<?xml version="1.0"?>
<gpx
 version="1.1"
 creator="Satmap Active 20"
 xmlns:xsi="http://www.w3.org/2001/XMLSchema-instance"
 xmlns="http://www.topografix.com/GPX/1/1"
 xmlns:satmap="http://www.satmap.com/updates/xmlschemas/GpxExtensions/v2/GpxExtensions_v2.xsd"
 xsi:schemaLocation="http://www.topografix.com/GPX/1/1 http://www.topografix.com/GPX/1/1/gpx.xsd">
<metadata>
<time>2022-04-13T10:54:18Z</time>
<extensions>
<satmap:platform>43</satmap:platform>
<satmap:software version="3.13.037">SM15.exe</satmap:software>
<satmap:username>pieter metz</satmap:username>
<satmap:network_ids>
<satmap:network_id type="wifi">00-23-A7-CA-E3-5C</satmap:network_id>
<satmap:network_id type="bluetooth">80-BB-EB-78-4F-29</satmap:network_id>
</satmap:network_ids>
<satmap:snap_type>simple</satmap:snap_type>
</extensions>
</metadata>
<trk>
<name>2022-04-13_1054</name>
<desc>Track 1</desc>
<number>1</number>
<trkseg>
<trkpt lat="52.075672" lon="05.647563"><ele>-9.4</ele><time>2022-04-13T10:54:18Z</time><name>PT1</name></trkpt>
<trkpt lat="52.075677" lon="05.647564"><ele>-9.4</ele><time>2022-04-13T10:54:19Z</time><name>PT2</name></trkpt>
<trkpt lat="52.075684" lon="05.647567"><ele>-9.4</ele><time>2022-04-13T10:54:20Z</time><name>PT3</name></trkpt>
<trkpt lat="52.075690" lon="05.647573"><ele>-9.4</ele><time>2022-04-13T10:54:21Z</time><name>PT4</name></trkpt>
<trkpt lat="52.075700" lon="05.647587"><ele>-9.4</ele><time>2022-04-13T10:54:22Z</time><name>PT5</name></trkpt>
<trkpt lat="52.075711" lon="05.647603"><ele>-9.3</ele><time>2022-04-13T10:54:23Z</time><name>PT6</name></trkpt>
<trkpt lat="52.075717" lon="05.647617"><ele>-9.2</ele><time>2022-04-13T10:54:24Z</time><name>PT7</name></trkpt>
<trkpt lat="52.075722" lon="05.647628"><ele>-9.3</ele><time>2022-04-13T10:54:25Z</time><name>PT8</name></trkpt>
<trkpt lat="52.075728" lon="05.647638"><ele>-9.3</ele><time>2022-04-13T10:54:26Z</time><name>PT9</name></trkpt>
<trkpt lat="52.075737" lon="05.647649"><ele>-9.2</ele><time>2022-04-13T10:54:27Z</time><name>PT10</name></trkpt>
<trkpt lat="52.075745" lon="05.647659"><ele>-9.1</ele><time>2022-04-13T10:54:28Z</time><name>PT11</name></trkpt>
<trkpt lat="52.075756" lon="05.647672"><ele>-9.1</ele><time>2022-04-13T10:54:29Z</time><name>PT12</name></trkpt>
<trkpt lat="52.075765" lon="05.647678"><ele>-8.9</ele><time>2022-04-13T10:54:30Z</time><name>PT13</name></trkpt>
<trkpt lat="52.075766" lon="05.647674"><ele>-8.9</ele><time>2022-04-13T10:54:31Z</time><name>PT14</name></trkpt>
<trkpt lat="52.075766" lon="05.647672"><ele>-9</ele><time>2022-04-13T10:54:32Z</time><name>PT15</name></trkpt>
<trkpt lat="52.075766" lon="05.647668"><ele>-9.2</ele><time>2022-04-13T10:54:33Z</time><name>PT16</name></trkpt>
<trkpt lat="52.075762" lon="05.647672"><ele>-9.1</ele><time>2022-04-13T10:54:34Z</time><name>PT17</name></trkpt>
<trkpt lat="52.075761" lon="05.647677"><ele>-9.2</ele><time>2022-04-13T10:54:35Z</time><name>PT18</name></trkpt>
<trkpt lat="52.075761" lon="05.647678"><ele>-9.2</ele><time>2022-04-13T10:54:36Z</time><name>PT19</name></trkpt>
<trkpt lat="52.075758" lon="05.647683"><ele>-9.2</ele><time>2022-04-13T10:54:37Z</time><name>PT20</name></trkpt>
<trkpt lat="52.075762" lon="05.647684"><ele>-9.1</ele><time>2022-04-13T10:54:38Z</time><name>PT21</name></trkpt>
<trkpt lat="52.075762" lon="05.647679"><ele>-9.1</ele><time>2022-04-13T10:54:39Z</time><name>PT22</name></trkpt>
<trkpt lat="52.075762" lon="05.647679"><ele>-9.2</ele><time>2022-04-13T10:54:40Z</time><name>PT23</name></trkpt>
<trkpt lat="52.075764" lon="05.647681"><ele>-9.1</ele><time>2022-04-13T10:54:41Z</time><name>PT24</name></trkpt>
<trkpt lat="52.075764" lon="05.647682"><ele>-9.2</ele><time>2022-04-13T10:54:42Z</time><name>PT25</name></trkpt>
<trkpt lat="52.075765" lon="05.647686"><ele>-9.4</ele><time>2022-04-13T10:54:48Z</time><name>PT26</name></trkpt>
<trkpt lat="52.075767" lon="05.647687"><ele>-9.4</ele><time>2022-04-13T10:54:49Z</time><name>PT27</name></trkpt>
<trkpt lat="52.075767" lon="05.647690"><ele>-9.5</ele><time>2022-04-13T10:54:50Z</time><name>PT28</name></trkpt>
<trkpt lat="52.075768" lon="05.647697"><ele>-9.6</ele><time>2022-04-13T10:54:54Z</time><name>PT29</name></trkpt>
<trkpt lat="52.075769" lon="05.647705"><ele>-9.5</ele><time>2022-04-13T10:54:55Z</time><name>PT30</name></trkpt>
<trkpt lat="52.075768" lon="05.647712"><ele>-9.4</ele><time>2022-04-13T10:54:56Z</time><name>PT31</name></trkpt>
<trkpt lat="52.075763" lon="05.647716"><ele>-9.4</ele><time>2022-04-13T10:54:57Z</time><name>PT32</name></trkpt>
<trkpt lat="52.075763" lon="05.647720"><ele>-9.5</ele><time>2022-04-13T10:54:58Z</time><name>PT33</name></trkpt>
<trkpt lat="52.075764" lon="05.647721"><ele>-9.5</ele><time>2022-04-13T10:54:59Z</time><name>PT34</name></trkpt>
<trkpt lat="52.075768" lon="05.647730"><ele>-9.4</ele><time>2022-04-13T10:55:00Z</time><name>PT35</name></trkpt>
<trkpt lat="52.075771" lon="05.647741"><ele>-9.6</ele><time>2022-04-13T10:55:01Z</time><name>PT36</name></trkpt>
<trkpt lat="52.075778" lon="05.647755"><ele>-9.6</ele><time>2022-04-13T10:55:02Z</time><name>PT37</name></trkpt>
<trkpt lat="52.075783" lon="05.647763"><ele>-9.6</ele><time>2022-04-13T10:55:03Z</time><name>PT38</name></trkpt>
<trkpt lat="52.075786" lon="05.647769"><ele>-9.5</ele><time>2022-04-13T10:55:04Z</time><name>PT39</name></trkpt>
<trkpt lat="52.075794" lon="05.647763"><ele>-9.6</ele><time>2022-04-13T10:55:05Z</time><name>PT40</name></trkpt>
<trkpt lat="52.075793" lon="05.647762"><ele>-9.5</ele><time>2022-04-13T10:55:06Z</time><name>PT41</name></trkpt>
<trkpt lat="52.075790" lon="05.647763"><ele>-9.4</ele><time>2022-04-13T10:55:07Z</time><name>PT42</name></trkpt>
<trkpt lat="52.075788" lon="05.647759"><ele>-9.4</ele><time>2022-04-13T10:55:08Z</time><name>PT43</name></trkpt>
<trkpt lat="52.075793" lon="05.647742"><ele>-9.4</ele><time>2022-04-13T10:55:15Z</time><name>PT44</name></trkpt>
<trkpt lat="52.075796" lon="05.647738"><ele>-9.4</ele><time>2022-04-13T10:55:16Z</time><name>PT45</name></trkpt>
<trkpt lat="52.075797" lon="05.647732"><ele>-9.4</ele><time>2022-04-13T10:55:17Z</time><name>PT46</name></trkpt>
<trkpt lat="52.075798" lon="05.647729"><ele>-9.3</ele><time>2022-04-13T10:55:18Z</time><name>PT47</name></trkpt>
<trkpt lat="52.075807" lon="05.647723"><ele>-9.2</ele><time>2022-04-13T10:55:19Z</time><name>PT48</name></trkpt>
<trkpt lat="52.075807" lon="05.647729"><ele>-9.1</ele><time>2022-04-13T10:55:20Z</time><name>PT49</name></trkpt>
<trkpt lat="52.075810" lon="05.647729"><ele>-9.1</ele><time>2022-04-13T10:55:21Z</time><name>PT50</name></trkpt>
<trkpt lat="52.075813" lon="05.647735"><ele>-9.1</ele><time>2022-04-13T10:55:22Z</time><name>PT51</name></trkpt>
<trkpt lat="52.075819" lon="05.647738"><ele>-9.4</ele><time>2022-04-13T10:55:23Z</time><name>PT52</name></trkpt>
<trkpt lat="52.075826" lon="05.647743"><ele>-9.4</ele><time>2022-04-13T10:55:24Z</time><name>PT53</name></trkpt>
<trkpt lat="52.075829" lon="05.647758"><ele>-9.4</ele><time>2022-04-13T10:55:25Z</time><name>PT54</name></trkpt>
<trkpt lat="52.075836" lon="05.647772"><ele>-9.5</ele><time>2022-04-13T10:55:26Z</time><name>PT55</name></trkpt>
<trkpt lat="52.075845" lon="05.647786"><ele>-9.6</ele><time>2022-04-13T10:55:27Z</time><name>PT56</name></trkpt>
<trkpt lat="52.075858" lon="05.647802"><ele>-9.4</ele><time>2022-04-13T10:55:28Z</time><name>PT57</name></trkpt>
<trkpt lat="52.075868" lon="05.647813"><ele>-9.5</ele><time>2022-04-13T10:55:29Z</time><name>PT58</name></trkpt>
<trkpt lat="52.075876" lon="05.647824"><ele>-9.4</ele><time>2022-04-13T10:55:30Z</time><name>PT59</name></trkpt>
<trkpt lat="52.075885" lon="05.647837"><ele>-9.4</ele><time>2022-04-13T10:55:31Z</time><name>PT60</name></trkpt>
<trkpt lat="52.075891" lon="05.647846"><ele>-9.4</ele><time>2022-04-13T10:55:32Z</time><name>PT61</name></trkpt>
<trkpt lat="52.075904" lon="05.647860"><ele>-9.4</ele><time>2022-04-13T10:55:33Z</time><name>PT62</name></trkpt>
<trkpt lat="52.075913" lon="05.647877"><ele>-9.1</ele><time>2022-04-13T10:55:34Z</time><name>PT63</name></trkpt>
<trkpt lat="52.075916" lon="05.647880"><ele>-9.2</ele><time>2022-04-13T10:55:35Z</time><name>PT64</name></trkpt>
<trkpt lat="52.075921" lon="05.647884"><ele>-9.3</ele><time>2022-04-13T10:55:36Z</time><name>PT65</name></trkpt>
<trkpt lat="52.075918" lon="05.647887"><ele>-9.2</ele><time>2022-04-13T10:55:37Z</time><name>PT66</name></trkpt>
<trkpt lat="52.075923" lon="05.647888"><ele>-9.1</ele><time>2022-04-13T10:55:38Z</time><name>PT67</name></trkpt>
<trkpt lat="52.075918" lon="05.647883"><ele>-9.2</ele><time>2022-04-13T10:55:39Z</time><name>PT68</name></trkpt>
<trkpt lat="52.075913" lon="05.647882"><ele>-9.2</ele><time>2022-04-13T10:55:40Z</time><name>PT69</name></trkpt>
<trkpt lat="52.075911" lon="05.647874"><ele>-9.2</ele><time>2022-04-13T10:55:41Z</time><name>PT70</name></trkpt>
<trkpt lat="52.075903" lon="05.647877"><ele>-9.2</ele><time>2022-04-13T10:55:42Z</time><name>PT71</name></trkpt>
<trkpt lat="52.075900" lon="05.647876"><ele>-9.4</ele><time>2022-04-13T10:55:43Z</time><name>PT72</name></trkpt>
<trkpt lat="52.075903" lon="05.647885"><ele>-9.4</ele><time>2022-04-13T10:55:44Z</time><name>PT73</name></trkpt>
<trkpt lat="52.075912" lon="05.647890"><ele>-9.4</ele><time>2022-04-13T10:55:45Z</time><name>PT74</name></trkpt>
<trkpt lat="52.075921" lon="05.647899"><ele>-9.4</ele><time>2022-04-13T10:55:46Z</time><name>PT75</name></trkpt>
<trkpt lat="52.075928" lon="05.647915"><ele>-9.4</ele><time>2022-04-13T10:55:47Z</time><name>PT76</name></trkpt>
<trkpt lat="52.075934" lon="05.647928"><ele>-9.2</ele><time>2022-04-13T10:55:48Z</time><name>PT77</name></trkpt>
<trkpt lat="52.075943" lon="05.647942"><ele>-9.1</ele><time>2022-04-13T10:55:49Z</time><name>PT78</name></trkpt>
<trkpt lat="52.075952" lon="05.647954"><ele>-8.9</ele><time>2022-04-13T10:55:50Z</time><name>PT79</name></trkpt>
<trkpt lat="52.075964" lon="05.647966"><ele>-9</ele><time>2022-04-13T10:55:51Z</time><name>PT80</name></trkpt>
<trkpt lat="52.075976" lon="05.647983"><ele>-9.1</ele><time>2022-04-13T10:55:52Z</time><name>PT81</name></trkpt>
<trkpt lat="52.075982" lon="05.647990"><ele>-9</ele><time>2022-04-13T10:55:53Z</time><name>PT82</name></trkpt>
<trkpt lat="52.075992" lon="05.647998"><ele>-8.9</ele><time>2022-04-13T10:55:54Z</time><name>PT83</name></trkpt>
<trkpt lat="52.075999" lon="05.648009"><ele>-8.9</ele><time>2022-04-13T10:55:55Z</time><name>PT84</name></trkpt>
<trkpt lat="52.076007" lon="05.648023"><ele>-8.9</ele><time>2022-04-13T10:55:56Z</time><name>PT85</name></trkpt>
<trkpt lat="52.076017" lon="05.648030"><ele>-8.8</ele><time>2022-04-13T10:55:57Z</time><name>PT86</name></trkpt>
<trkpt lat="52.076025" lon="05.648036"><ele>-8.9</ele><time>2022-04-13T10:55:58Z</time><name>PT87</name></trkpt>
<trkpt lat="52.076035" lon="05.648049"><ele>-9.2</ele><time>2022-04-13T10:55:59Z</time><name>PT88</name></trkpt>
<trkpt lat="52.076044" lon="05.648061"><ele>-9</ele><time>2022-04-13T10:56:00Z</time><name>PT89</name></trkpt>
<trkpt lat="52.076048" lon="05.648075"><ele>-9</ele><time>2022-04-13T10:56:01Z</time><name>PT90</name></trkpt>
<trkpt lat="52.076050" lon="05.648086"><ele>-9.2</ele><time>2022-04-13T10:56:02Z</time><name>PT91</name></trkpt>
<trkpt lat="52.076054" lon="05.648098"><ele>-9.1</ele><time>2022-04-13T10:56:03Z</time><name>PT92</name></trkpt>
<trkpt lat="52.076057" lon="05.648111"><ele>-9.1</ele><time>2022-04-13T10:56:04Z</time><name>PT93</name></trkpt>
<trkpt lat="52.076071" lon="05.648128"><ele>-9.1</ele><time>2022-04-13T10:56:05Z</time><name>PT94</name></trkpt>
<trkpt lat="52.076081" lon="05.648140"><ele>-9.1</ele><time>2022-04-13T10:56:06Z</time><name>PT95</name></trkpt>
<trkpt lat="52.076092" lon="05.648151"><ele>-9.2</ele><time>2022-04-13T10:56:07Z</time><name>PT96</name></trkpt>
<trkpt lat="52.076097" lon="05.648152"><ele>-9.2</ele><time>2022-04-13T10:56:08Z</time><name>PT97</name></trkpt>
<trkpt lat="52.076101" lon="05.648153"><ele>-9.1</ele><time>2022-04-13T10:56:09Z</time><name>PT98</name></trkpt>
<trkpt lat="52.076105" lon="05.648154"><ele>-9.2</ele><time>2022-04-13T10:56:10Z</time><name>PT99</name></trkpt>
<trkpt lat="52.076112" lon="05.648166"><ele>-9.1</ele><time>2022-04-13T10:56:11Z</time><name>PT100</name></trkpt>
<trkpt lat="52.076121" lon="05.648177"><ele>-9.1</ele><time>2022-04-13T10:56:12Z</time><name>PT101</name></trkpt>
<trkpt lat="52.076135" lon="05.648195"><ele>-9</ele><time>2022-04-13T10:56:13Z</time><name>PT102</name></trkpt>
<trkpt lat="52.076153" lon="05.648209"><ele>-8.9</ele><time>2022-04-13T10:56:14Z</time><name>PT103</name></trkpt>
<trkpt lat="52.076168" lon="05.648220"><ele>-9</ele><time>2022-04-13T10:56:15Z</time><name>PT104</name></trkpt>
<trkpt lat="52.076176" lon="05.648229"><ele>-9</ele><time>2022-04-13T10:56:16Z</time><name>PT105</name></trkpt>
<trkpt lat="52.076181" lon="05.648233"><ele>-8.9</ele><time>2022-04-13T10:56:17Z</time><name>PT106</name></trkpt>
<trkpt lat="52.076181" lon="05.648239"><ele>-8.9</ele><time>2022-04-13T10:56:18Z</time><name>PT107</name></trkpt>
<trkpt lat="52.076184" lon="05.648249"><ele>-8.9</ele><time>2022-04-13T10:56:19Z</time><name>PT108</name></trkpt>
<trkpt lat="52.076190" lon="05.648267"><ele>-8.8</ele><time>2022-04-13T10:56:20Z</time><name>PT109</name></trkpt>
<trkpt lat="52.076200" lon="05.648290"><ele>-8.8</ele><time>2022-04-13T10:56:21Z</time><name>PT110</name></trkpt>
<trkpt lat="52.076208" lon="05.648311"><ele>-8.9</ele><time>2022-04-13T10:56:22Z</time><name>PT111</name></trkpt>
<trkpt lat="52.076226" lon="05.648335"><ele>-8.7</ele><time>2022-04-13T10:56:23Z</time><name>PT112</name></trkpt>
<trkpt lat="52.076237" lon="05.648351"><ele>-8.6</ele><time>2022-04-13T10:56:24Z</time><name>PT113</name></trkpt>
<trkpt lat="52.076244" lon="05.648362"><ele>-8.6</ele><time>2022-04-13T10:56:25Z</time><name>PT114</name></trkpt>
<trkpt lat="52.076246" lon="05.648373"><ele>-8.4</ele><time>2022-04-13T10:56:26Z</time><name>PT115</name></trkpt>
<trkpt lat="52.076254" lon="05.648392"><ele>-8.4</ele><time>2022-04-13T10:56:27Z</time><name>PT116</name></trkpt>
<trkpt lat="52.076260" lon="05.648396"><ele>-8.4</ele><time>2022-04-13T10:56:28Z</time><name>PT117</name></trkpt>
<trkpt lat="52.076266" lon="05.648405"><ele>-8.4</ele><time>2022-04-13T10:56:29Z</time><name>PT118</name></trkpt>
<trkpt lat="52.076274" lon="05.648419"><ele>-8.4</ele><time>2022-04-13T10:56:30Z</time><name>PT119</name></trkpt>
<trkpt lat="52.076282" lon="05.648430"><ele>-8.4</ele><time>2022-04-13T10:56:31Z</time><name>PT120</name></trkpt>
<trkpt lat="52.076290" lon="05.648441"><ele>-8.4</ele><time>2022-04-13T10:56:32Z</time><name>PT121</name></trkpt>
<trkpt lat="52.076301" lon="05.648461"><ele>-8.3</ele><time>2022-04-13T10:56:33Z</time><name>PT122</name></trkpt>
<trkpt lat="52.076308" lon="05.648474"><ele>-8.3</ele><time>2022-04-13T10:56:34Z</time><name>PT123</name></trkpt>
<trkpt lat="52.076311" lon="05.648482"><ele>-8.3</ele><time>2022-04-13T10:56:35Z</time><name>PT124</name></trkpt>
<trkpt lat="52.076316" lon="05.648487"><ele>-8.4</ele><time>2022-04-13T10:56:36Z</time><name>PT125</name></trkpt>
<trkpt lat="52.076326" lon="05.648499"><ele>-8.2</ele><time>2022-04-13T10:56:37Z</time><name>PT126</name></trkpt>
<trkpt lat="52.076341" lon="05.648519"><ele>-8.4</ele><time>2022-04-13T10:56:38Z</time><name>PT127</name></trkpt>
<trkpt lat="52.076350" lon="05.648539"><ele>-8.3</ele><time>2022-04-13T10:56:39Z</time><name>PT128</name></trkpt>
<trkpt lat="52.076353" lon="05.648552"><ele>-8.1</ele><time>2022-04-13T10:56:40Z</time><name>PT129</name></trkpt>
<trkpt lat="52.076360" lon="05.648571"><ele>-8</ele><time>2022-04-13T10:56:41Z</time><name>PT130</name></trkpt>
<trkpt lat="52.076367" lon="05.648581"><ele>-8.2</ele><time>2022-04-13T10:56:42Z</time><name>PT131</name></trkpt>
<trkpt lat="52.076374" lon="05.648589"><ele>-8.2</ele><time>2022-04-13T10:56:43Z</time><name>PT132</name></trkpt>
<trkpt lat="52.076381" lon="05.648596"><ele>-8.1</ele><time>2022-04-13T10:56:44Z</time><name>PT133</name></trkpt>
<trkpt lat="52.076392" lon="05.648604"><ele>-8.2</ele><time>2022-04-13T10:56:45Z</time><name>PT134</name></trkpt>
<trkpt lat="52.076403" lon="05.648619"><ele>-8.1</ele><time>2022-04-13T10:56:46Z</time><name>PT135</name></trkpt>
<trkpt lat="52.076415" lon="05.648638"><ele>-8.1</ele><time>2022-04-13T10:56:47Z</time><name>PT136</name></trkpt>
<trkpt lat="52.076422" lon="05.648650"><ele>-7.9</ele><time>2022-04-13T10:56:48Z</time><name>PT137</name></trkpt>
<trkpt lat="52.076434" lon="05.648655"><ele>-7.9</ele><time>2022-04-13T10:56:49Z</time><name>PT138</name></trkpt>
<trkpt lat="52.076441" lon="05.648659"><ele>-7.9</ele><time>2022-04-13T10:56:50Z</time><name>PT139</name></trkpt>
<trkpt lat="52.076446" lon="05.648666"><ele>-7.7</ele><time>2022-04-13T10:56:51Z</time><name>PT140</name></trkpt>
<trkpt lat="52.076454" lon="05.648675"><ele>-7.9</ele><time>2022-04-13T10:56:52Z</time><name>PT141</name></trkpt>
<trkpt lat="52.076460" lon="05.648685"><ele>-7.9</ele><time>2022-04-13T10:56:53Z</time><name>PT142</name></trkpt>
<trkpt lat="52.076463" lon="05.648707"><ele>-7.9</ele><time>2022-04-13T10:56:54Z</time><name>PT143</name></trkpt>
<trkpt lat="52.076467" lon="05.648730"><ele>-7.8</ele><time>2022-04-13T10:56:55Z</time><name>PT144</name></trkpt>
<trkpt lat="52.076482" lon="05.648752"><ele>-7.8</ele><time>2022-04-13T10:56:56Z</time><name>PT145</name></trkpt>
<trkpt lat="52.076498" lon="05.648770"><ele>-7.9</ele><time>2022-04-13T10:56:57Z</time><name>PT146</name></trkpt>
<trkpt lat="52.076503" lon="05.648781"><ele>-7.9</ele><time>2022-04-13T10:56:58Z</time><name>PT147</name></trkpt>
<trkpt lat="52.076505" lon="05.648786"><ele>-7.8</ele><time>2022-04-13T10:56:59Z</time><name>PT148</name></trkpt>
<trkpt lat="52.076512" lon="05.648788"><ele>-7.8</ele><time>2022-04-13T10:57:00Z</time><name>PT149</name></trkpt>
<trkpt lat="52.076528" lon="05.648803"><ele>-7.8</ele><time>2022-04-13T10:57:01Z</time><name>PT150</name></trkpt>
<trkpt lat="52.076540" lon="05.648824"><ele>-7.7</ele><time>2022-04-13T10:57:02Z</time><name>PT151</name></trkpt>
<trkpt lat="52.076553" lon="05.648849"><ele>-7.7</ele><time>2022-04-13T10:57:03Z</time><name>PT152</name></trkpt>
<trkpt lat="52.076564" lon="05.648868"><ele>-7.6</ele><time>2022-04-13T10:57:04Z</time><name>PT153</name></trkpt>
<trkpt lat="52.076576" lon="05.648880"><ele>-7.5</ele><time>2022-04-13T10:57:05Z</time><name>PT154</name></trkpt>
<trkpt lat="52.076584" lon="05.648889"><ele>-7.5</ele><time>2022-04-13T10:57:06Z</time><name>PT155</name></trkpt>
<trkpt lat="52.076590" lon="05.648897"><ele>-7.5</ele><time>2022-04-13T10:57:07Z</time><name>PT156</name></trkpt>
<trkpt lat="52.076597" lon="05.648905"><ele>-7.5</ele><time>2022-04-13T10:57:08Z</time><name>PT157</name></trkpt>
<trkpt lat="52.076601" lon="05.648914"><ele>-7.6</ele><time>2022-04-13T10:57:09Z</time><name>PT158</name></trkpt>
<trkpt lat="52.076614" lon="05.648929"><ele>-7.5</ele><time>2022-04-13T10:57:10Z</time><name>PT159</name></trkpt>
<trkpt lat="52.076622" lon="05.648940"><ele>-7.4</ele><time>2022-04-13T10:57:11Z</time><name>PT160</name></trkpt>
<trkpt lat="52.076636" lon="05.648951"><ele>-7.1</ele><time>2022-04-13T10:57:12Z</time><name>PT161</name></trkpt>
<trkpt lat="52.076651" lon="05.648965"><ele>-7.2</ele><time>2022-04-13T10:57:13Z</time><name>PT162</name></trkpt>
<trkpt lat="52.076663" lon="05.648982"><ele>-7.4</ele><time>2022-04-13T10:57:14Z</time><name>PT163</name></trkpt>
<trkpt lat="52.076675" lon="05.648999"><ele>-7.6</ele><time>2022-04-13T10:57:15Z</time><name>PT164</name></trkpt>
<trkpt lat="52.076690" lon="05.649016"><ele>-7.6</ele><time>2022-04-13T10:57:16Z</time><name>PT165</name></trkpt>
<trkpt lat="52.076698" lon="05.649025"><ele>-7.7</ele><time>2022-04-13T10:57:17Z</time><name>PT166</name></trkpt>
<trkpt lat="52.076706" lon="05.649032"><ele>-7.7</ele><time>2022-04-13T10:57:18Z</time><name>PT167</name></trkpt>
<trkpt lat="52.076711" lon="05.649042"><ele>-7.6</ele><time>2022-04-13T10:57:19Z</time><name>PT168</name></trkpt>
<trkpt lat="52.076716" lon="05.649051"><ele>-7.5</ele><time>2022-04-13T10:57:20Z</time><name>PT169</name></trkpt>
<trkpt lat="52.076724" lon="05.649063"><ele>-7.5</ele><time>2022-04-13T10:57:21Z</time><name>PT170</name></trkpt>
<trkpt lat="52.076739" lon="05.649081"><ele>-7.5</ele><time>2022-04-13T10:57:22Z</time><name>PT171</name></trkpt>
<trkpt lat="52.076751" lon="05.649104"><ele>-7.5</ele><time>2022-04-13T10:57:23Z</time><name>PT172</name></trkpt>
<trkpt lat="52.076764" lon="05.649127"><ele>-7.5</ele><time>2022-04-13T10:57:24Z</time><name>PT173</name></trkpt>
<trkpt lat="52.076772" lon="05.649141"><ele>-7.4</ele><time>2022-04-13T10:57:25Z</time><name>PT174</name></trkpt>
<trkpt lat="52.076776" lon="05.649146"><ele>-7.4</ele><time>2022-04-13T10:57:26Z</time><name>PT175</name></trkpt>
<trkpt lat="52.076777" lon="05.649154"><ele>-7.3</ele><time>2022-04-13T10:57:27Z</time><name>PT176</name></trkpt>
<trkpt lat="52.076785" lon="05.649167"><ele>-7.2</ele><time>2022-04-13T10:57:28Z</time><name>PT177</name></trkpt>
<trkpt lat="52.076795" lon="05.649178"><ele>-7.2</ele><time>2022-04-13T10:57:29Z</time><name>PT178</name></trkpt>
<trkpt lat="52.076807" lon="05.649194"><ele>-7.3</ele><time>2022-04-13T10:57:30Z</time><name>PT179</name></trkpt>
<trkpt lat="52.076816" lon="05.649206"><ele>-7.2</ele><time>2022-04-13T10:57:31Z</time><name>PT180</name></trkpt>
<trkpt lat="52.076828" lon="05.649226"><ele>-7.4</ele><time>2022-04-13T10:57:32Z</time><name>PT181</name></trkpt>
<trkpt lat="52.076835" lon="05.649235"><ele>-7.3</ele><time>2022-04-13T10:57:33Z</time><name>PT182</name></trkpt>
<trkpt lat="52.076838" lon="05.649243"><ele>-7.3</ele><time>2022-04-13T10:57:34Z</time><name>PT183</name></trkpt>
<trkpt lat="52.076842" lon="05.649250"><ele>-7.5</ele><time>2022-04-13T10:57:35Z</time><name>PT184</name></trkpt>
<trkpt lat="52.076848" lon="05.649255"><ele>-7.5</ele><time>2022-04-13T10:57:36Z</time><name>PT185</name></trkpt>
<trkpt lat="52.076861" lon="05.649278"><ele>-7.3</ele><time>2022-04-13T10:57:37Z</time><name>PT186</name></trkpt>
<trkpt lat="52.076879" lon="05.649302"><ele>-7.5</ele><time>2022-04-13T10:57:38Z</time><name>PT187</name></trkpt>
<trkpt lat="52.076890" lon="05.649324"><ele>-7.5</ele><time>2022-04-13T10:57:39Z</time><name>PT188</name></trkpt>
<trkpt lat="52.076900" lon="05.649343"><ele>-7.4</ele><time>2022-04-13T10:57:40Z</time><name>PT189</name></trkpt>
<trkpt lat="52.076906" lon="05.649355"><ele>-7.4</ele><time>2022-04-13T10:57:41Z</time><name>PT190</name></trkpt>
<trkpt lat="52.076911" lon="05.649359"><ele>-7.1</ele><time>2022-04-13T10:57:42Z</time><name>PT191</name></trkpt>
<trkpt lat="52.076915" lon="05.649364"><ele>-7</ele><time>2022-04-13T10:57:43Z</time><name>PT192</name></trkpt>
<trkpt lat="52.076926" lon="05.649370"><ele>-7</ele><time>2022-04-13T10:57:44Z</time><name>PT193</name></trkpt>
<trkpt lat="52.076943" lon="05.649389"><ele>-7</ele><time>2022-04-13T10:57:45Z</time><name>PT194</name></trkpt>
<trkpt lat="52.076953" lon="05.649409"><ele>-6.9</ele><time>2022-04-13T10:57:46Z</time><name>PT195</name></trkpt>
<trkpt lat="52.076965" lon="05.649429"><ele>-7.1</ele><time>2022-04-13T10:57:47Z</time><name>PT196</name></trkpt>
<trkpt lat="52.076977" lon="05.649450"><ele>-7.2</ele><time>2022-04-13T10:57:48Z</time><name>PT197</name></trkpt>
<trkpt lat="52.076986" lon="05.649462"><ele>-7.1</ele><time>2022-04-13T10:57:49Z</time><name>PT198</name></trkpt>
<trkpt lat="52.076992" lon="05.649467"><ele>-7.2</ele><time>2022-04-13T10:57:50Z</time><name>PT199</name></trkpt>
<trkpt lat="52.076997" lon="05.649472"><ele>-7.2</ele><time>2022-04-13T10:57:51Z</time><name>PT200</name></trkpt>
<trkpt lat="52.077002" lon="05.649482"><ele>-7.1</ele><time>2022-04-13T10:57:52Z</time><name>PT201</name></trkpt>
<trkpt lat="52.077012" lon="05.649491"><ele>-7</ele><time>2022-04-13T10:57:53Z</time><name>PT202</name></trkpt>
<trkpt lat="52.077021" lon="05.649504"><ele>-7</ele><time>2022-04-13T10:57:54Z</time><name>PT203</name></trkpt>
<trkpt lat="52.077032" lon="05.649516"><ele>-6.9</ele><time>2022-04-13T10:57:55Z</time><name>PT204</name></trkpt>
<trkpt lat="52.077043" lon="05.649528"><ele>-6.8</ele><time>2022-04-13T10:57:56Z</time><name>PT205</name></trkpt>
<trkpt lat="52.077056" lon="05.649541"><ele>-6.6</ele><time>2022-04-13T10:57:57Z</time><name>PT206</name></trkpt>
<trkpt lat="52.077064" lon="05.649544"><ele>-6.6</ele><time>2022-04-13T10:57:58Z</time><name>PT207</name></trkpt>
<trkpt lat="52.077064" lon="05.649533"><ele>-6.6</ele><time>2022-04-13T10:57:59Z</time><name>PT208</name></trkpt>
<trkpt lat="52.077073" lon="05.649534"><ele>-6.5</ele><time>2022-04-13T10:58:00Z</time><name>PT209</name></trkpt>
<trkpt lat="52.077073" lon="05.649521"><ele>-6.5</ele><time>2022-04-13T10:58:01Z</time><name>PT210</name></trkpt>
<trkpt lat="52.077085" lon="05.649505"><ele>-6.5</ele><time>2022-04-13T10:58:02Z</time><name>PT211</name></trkpt>
<trkpt lat="52.077094" lon="05.649498"><ele>-6.4</ele><time>2022-04-13T10:58:03Z</time><name>PT212</name></trkpt>
<trkpt lat="52.077103" lon="05.649490"><ele>-6.5</ele><time>2022-04-13T10:58:04Z</time><name>PT213</name></trkpt>
<trkpt lat="52.077101" lon="05.649489"><ele>-6.6</ele><time>2022-04-13T10:58:05Z</time><name>PT214</name></trkpt>
<trkpt lat="52.077107" lon="05.649479"><ele>-6.7</ele><time>2022-04-13T10:58:06Z</time><name>PT215</name></trkpt>
<trkpt lat="52.077120" lon="05.649458"><ele>-6.9</ele><time>2022-04-13T10:58:07Z</time><name>PT216</name></trkpt>
<trkpt lat="52.077129" lon="05.649443"><ele>-6.7</ele><time>2022-04-13T10:58:08Z</time><name>PT217</name></trkpt>
<trkpt lat="52.077136" lon="05.649437"><ele>-6.7</ele><time>2022-04-13T10:58:09Z</time><name>PT218</name></trkpt>
<trkpt lat="52.077147" lon="05.649430"><ele>-6.5</ele><time>2022-04-13T10:58:10Z</time><name>PT219</name></trkpt>
<trkpt lat="52.077153" lon="05.649424"><ele>-6.6</ele><time>2022-04-13T10:58:11Z</time><name>PT220</name></trkpt>
<trkpt lat="52.077158" lon="05.649415"><ele>-6.5</ele><time>2022-04-13T10:58:12Z</time><name>PT221</name></trkpt>
<trkpt lat="52.077167" lon="05.649402"><ele>-6.5</ele><time>2022-04-13T10:58:13Z</time><name>PT222</name></trkpt>
<trkpt lat="52.077172" lon="05.649397"><ele>-6.6</ele><time>2022-04-13T10:58:14Z</time><name>PT223</name></trkpt>
<trkpt lat="52.077187" lon="05.649380"><ele>-6.6</ele><time>2022-04-13T10:58:15Z</time><name>PT224</name></trkpt>
<trkpt lat="52.077202" lon="05.649368"><ele>-6.5</ele><time>2022-04-13T10:58:16Z</time><name>PT225</name></trkpt>
<trkpt lat="52.077214" lon="05.649356"><ele>-6.7</ele><time>2022-04-13T10:58:17Z</time><name>PT226</name></trkpt>
<trkpt lat="52.077223" lon="05.649347"><ele>-7</ele><time>2022-04-13T10:58:18Z</time><name>PT227</name></trkpt>
<trkpt lat="52.077231" lon="05.649341"><ele>-7</ele><time>2022-04-13T10:58:19Z</time><name>PT228</name></trkpt>
<trkpt lat="52.077240" lon="05.649339"><ele>-7</ele><time>2022-04-13T10:58:20Z</time><name>PT229</name></trkpt>
<trkpt lat="52.077248" lon="05.649335"><ele>-6.9</ele><time>2022-04-13T10:58:21Z</time><name>PT230</name></trkpt>
<trkpt lat="52.077253" lon="05.649326"><ele>-6.7</ele><time>2022-04-13T10:58:22Z</time><name>PT231</name></trkpt>
<trkpt lat="52.077252" lon="05.649313"><ele>-6.6</ele><time>2022-04-13T10:58:23Z</time><name>PT232</name></trkpt>
<trkpt lat="52.077259" lon="05.649298"><ele>-6.6</ele><time>2022-04-13T10:58:24Z</time><name>PT233</name></trkpt>
<trkpt lat="52.077278" lon="05.649289"><ele>-6.6</ele><time>2022-04-13T10:58:25Z</time><name>PT234</name></trkpt>
<trkpt lat="52.077296" lon="05.649275"><ele>-6.7</ele><time>2022-04-13T10:58:26Z</time><name>PT235</name></trkpt>
<trkpt lat="52.077308" lon="05.649263"><ele>-6.8</ele><time>2022-04-13T10:58:27Z</time><name>PT236</name></trkpt>
<trkpt lat="52.077314" lon="05.649255"><ele>-7</ele><time>2022-04-13T10:58:28Z</time><name>PT237</name></trkpt>
<trkpt lat="52.077317" lon="05.649251"><ele>-7</ele><time>2022-04-13T10:58:29Z</time><name>PT238</name></trkpt>
<trkpt lat="52.077317" lon="05.649248"><ele>-6.9</ele><time>2022-04-13T10:58:30Z</time><name>PT239</name></trkpt>
<trkpt lat="52.077327" lon="05.649235"><ele>-6.9</ele><time>2022-04-13T10:58:31Z</time><name>PT240</name></trkpt>
<trkpt lat="52.077337" lon="05.649221"><ele>-6.7</ele><time>2022-04-13T10:58:32Z</time><name>PT241</name></trkpt>
<trkpt lat="52.077345" lon="05.649211"><ele>-6.7</ele><time>2022-04-13T10:58:33Z</time><name>PT242</name></trkpt>
<trkpt lat="52.077348" lon="05.649209"><ele>-6.8</ele><time>2022-04-13T10:58:34Z</time><name>PT243</name></trkpt>
<trkpt lat="52.077361" lon="05.649196"><ele>-6.8</ele><time>2022-04-13T10:58:35Z</time><name>PT244</name></trkpt>
<trkpt lat="52.077371" lon="05.649183"><ele>-7</ele><time>2022-04-13T10:58:36Z</time><name>PT245</name></trkpt>
<trkpt lat="52.077380" lon="05.649173"><ele>-7</ele><time>2022-04-13T10:58:37Z</time><name>PT246</name></trkpt>
<trkpt lat="52.077392" lon="05.649158"><ele>-6.9</ele><time>2022-04-13T10:58:38Z</time><name>PT247</name></trkpt>
<trkpt lat="52.077401" lon="05.649152"><ele>-6.9</ele><time>2022-04-13T10:58:39Z</time><name>PT248</name></trkpt>
<trkpt lat="52.077411" lon="05.649150"><ele>-6.8</ele><time>2022-04-13T10:58:40Z</time><name>PT249</name></trkpt>
<trkpt lat="52.077417" lon="05.649150"><ele>-6.8</ele><time>2022-04-13T10:58:41Z</time><name>PT250</name></trkpt>
<trkpt lat="52.077421" lon="05.649146"><ele>-6.8</ele><time>2022-04-13T10:58:42Z</time><name>PT251</name></trkpt>
<trkpt lat="52.077425" lon="05.649144"><ele>-6.8</ele><time>2022-04-13T10:58:43Z</time><name>PT252</name></trkpt>
<trkpt lat="52.077431" lon="05.649140"><ele>-6.8</ele><time>2022-04-13T10:58:44Z</time><name>PT253</name></trkpt>
<trkpt lat="52.077438" lon="05.649133"><ele>-6.8</ele><time>2022-04-13T10:58:45Z</time><name>PT254</name></trkpt>
<trkpt lat="52.077443" lon="05.649123"><ele>-6.8</ele><time>2022-04-13T10:58:46Z</time><name>PT255</name></trkpt>
<trkpt lat="52.077442" lon="05.649124"><ele>-6.9</ele><time>2022-04-13T10:58:47Z</time><name>PT256</name></trkpt>
<trkpt lat="52.077452" lon="05.649113"><ele>-6.9</ele><time>2022-04-13T10:58:48Z</time><name>PT257</name></trkpt>
<trkpt lat="52.077463" lon="05.649108"><ele>-6.9</ele><time>2022-04-13T10:58:49Z</time><name>PT258</name></trkpt>
<trkpt lat="52.077474" lon="05.649102"><ele>-6.9</ele><time>2022-04-13T10:58:50Z</time><name>PT259</name></trkpt>
<trkpt lat="52.077479" lon="05.649093"><ele>-6.8</ele><time>2022-04-13T10:58:51Z</time><name>PT260</name></trkpt>
<trkpt lat="52.077486" lon="05.649081"><ele>-6.8</ele><time>2022-04-13T10:58:52Z</time><name>PT261</name></trkpt>
<trkpt lat="52.077489" lon="05.649074"><ele>-6.8</ele><time>2022-04-13T10:58:53Z</time><name>PT262</name></trkpt>
<trkpt lat="52.077496" lon="05.649068"><ele>-6.7</ele><time>2022-04-13T10:58:54Z</time><name>PT263</name></trkpt>
<trkpt lat="52.077505" lon="05.649055"><ele>-6.7</ele><time>2022-04-13T10:58:55Z</time><name>PT264</name></trkpt>
<trkpt lat="52.077504" lon="05.649046"><ele>-6.8</ele><time>2022-04-13T10:58:56Z</time><name>PT265</name></trkpt>
<trkpt lat="52.077519" lon="05.649028"><ele>-6.7</ele><time>2022-04-13T10:58:57Z</time><name>PT266</name></trkpt>
<trkpt lat="52.077537" lon="05.649013"><ele>-6.6</ele><time>2022-04-13T10:58:58Z</time><name>PT267</name></trkpt>
<trkpt lat="52.077545" lon="05.649001"><ele>-6.6</ele><time>2022-04-13T10:58:59Z</time><name>PT268</name></trkpt>
<trkpt lat="52.077552" lon="05.648994"><ele>-6.6</ele><time>2022-04-13T10:59:00Z</time><name>PT269</name></trkpt>
<trkpt lat="52.077561" lon="05.648993"><ele>-6.7</ele><time>2022-04-13T10:59:01Z</time><name>PT270</name></trkpt>
<trkpt lat="52.077573" lon="05.648995"><ele>-6.9</ele><time>2022-04-13T10:59:02Z</time><name>PT271</name></trkpt>
<trkpt lat="52.077588" lon="05.648987"><ele>-6.8</ele><time>2022-04-13T10:59:03Z</time><name>PT272</name></trkpt>
<trkpt lat="52.077602" lon="05.648976"><ele>-6.7</ele><time>2022-04-13T10:59:04Z</time><name>PT273</name></trkpt>
<trkpt lat="52.077614" lon="05.648955"><ele>-6.6</ele><time>2022-04-13T10:59:05Z</time><name>PT274</name></trkpt>
<trkpt lat="52.077640" lon="05.648930"><ele>-6.5</ele><time>2022-04-13T10:59:06Z</time><name>PT275</name></trkpt>
<trkpt lat="52.077658" lon="05.648916"><ele>-6.4</ele><time>2022-04-13T10:59:07Z</time><name>PT276</name></trkpt>
<trkpt lat="52.077671" lon="05.648904"><ele>-6.4</ele><time>2022-04-13T10:59:08Z</time><name>PT277</name></trkpt>
<trkpt lat="52.077677" lon="05.648899"><ele>-6.3</ele><time>2022-04-13T10:59:09Z</time><name>PT278</name></trkpt>
<trkpt lat="52.077681" lon="05.648892"><ele>-6.3</ele><time>2022-04-13T10:59:10Z</time><name>PT279</name></trkpt>
<trkpt lat="52.077682" lon="05.648885"><ele>-6.5</ele><time>2022-04-13T10:59:11Z</time><name>PT280</name></trkpt>
<trkpt lat="52.077690" lon="05.648878"><ele>-6.2</ele><time>2022-04-13T10:59:12Z</time><name>PT281</name></trkpt>
<trkpt lat="52.077699" lon="05.648865"><ele>-6.1</ele><time>2022-04-13T10:59:13Z</time><name>PT282</name></trkpt>
<trkpt lat="52.077717" lon="05.648855"><ele>-6.2</ele><time>2022-04-13T10:59:14Z</time><name>PT283</name></trkpt>
<trkpt lat="52.077730" lon="05.648850"><ele>-6.2</ele><time>2022-04-13T10:59:15Z</time><name>PT284</name></trkpt>
<trkpt lat="52.077740" lon="05.648846"><ele>-6.3</ele><time>2022-04-13T10:59:16Z</time><name>PT285</name></trkpt>
<trkpt lat="52.077752" lon="05.648839"><ele>-6.4</ele><time>2022-04-13T10:59:17Z</time><name>PT286</name></trkpt>
<trkpt lat="52.077753" lon="05.648831"><ele>-6.5</ele><time>2022-04-13T10:59:18Z</time><name>PT287</name></trkpt>
<trkpt lat="52.077760" lon="05.648820"><ele>-6.6</ele><time>2022-04-13T10:59:19Z</time><name>PT288</name></trkpt>
<trkpt lat="52.077775" lon="05.648813"><ele>-6.9</ele><time>2022-04-13T10:59:20Z</time><name>PT289</name></trkpt>
<trkpt lat="52.077794" lon="05.648803"><ele>-7</ele><time>2022-04-13T10:59:21Z</time><name>PT290</name></trkpt>
<trkpt lat="52.077810" lon="05.648798"><ele>-6.9</ele><time>2022-04-13T10:59:22Z</time><name>PT291</name></trkpt>
<trkpt lat="52.077821" lon="05.648792"><ele>-6.8</ele><time>2022-04-13T10:59:23Z</time><name>PT292</name></trkpt>
<trkpt lat="52.077832" lon="05.648781"><ele>-6.7</ele><time>2022-04-13T10:59:24Z</time><name>PT293</name></trkpt>
<trkpt lat="52.077842" lon="05.648775"><ele>-6.7</ele><time>2022-04-13T10:59:25Z</time><name>PT294</name></trkpt>
<trkpt lat="52.077847" lon="05.648770"><ele>-6.5</ele><time>2022-04-13T10:59:26Z</time><name>PT295</name></trkpt>
<trkpt lat="52.077853" lon="05.648775"><ele>-6.6</ele><time>2022-04-13T10:59:27Z</time><name>PT296</name></trkpt>
<trkpt lat="52.077864" lon="05.648772"><ele>-6.7</ele><time>2022-04-13T10:59:28Z</time><name>PT297</name></trkpt>
<trkpt lat="52.077867" lon="05.648756"><ele>-6.8</ele><time>2022-04-13T10:59:29Z</time><name>PT298</name></trkpt>
<trkpt lat="52.077867" lon="05.648735"><ele>-6.9</ele><time>2022-04-13T10:59:30Z</time><name>PT299</name></trkpt>
<trkpt lat="52.077881" lon="05.648715"><ele>-6.9</ele><time>2022-04-13T10:59:31Z</time><name>PT300</name></trkpt>
<trkpt lat="52.077896" lon="05.648698"><ele>-7</ele><time>2022-04-13T10:59:32Z</time><name>PT301</name></trkpt>
<trkpt lat="52.077907" lon="05.648682"><ele>-7</ele><time>2022-04-13T10:59:33Z</time><name>PT302</name></trkpt>
<trkpt lat="52.077922" lon="05.648674"><ele>-6.9</ele><time>2022-04-13T10:59:34Z</time><name>PT303</name></trkpt>
<trkpt lat="52.077934" lon="05.648667"><ele>-6.9</ele><time>2022-04-13T10:59:35Z</time><name>PT304</name></trkpt>
<trkpt lat="52.077942" lon="05.648659"><ele>-7</ele><time>2022-04-13T10:59:36Z</time><name>PT305</name></trkpt>
<trkpt lat="52.077952" lon="05.648649"><ele>-7</ele><time>2022-04-13T10:59:37Z</time><name>PT306</name></trkpt>
<trkpt lat="52.077957" lon="05.648634"><ele>-7</ele><time>2022-04-13T10:59:38Z</time><name>PT307</name></trkpt>
<trkpt lat="52.077963" lon="05.648620"><ele>-7.1</ele><time>2022-04-13T10:59:39Z</time><name>PT308</name></trkpt>
<trkpt lat="52.077972" lon="05.648602"><ele>-7</ele><time>2022-04-13T10:59:40Z</time><name>PT309</name></trkpt>
<trkpt lat="52.077988" lon="05.648592"><ele>-6.9</ele><time>2022-04-13T10:59:41Z</time><name>PT310</name></trkpt>
<trkpt lat="52.078002" lon="05.648583"><ele>-6.7</ele><time>2022-04-13T10:59:42Z</time><name>PT311</name></trkpt>
<trkpt lat="52.078007" lon="05.648573"><ele>-6.7</ele><time>2022-04-13T10:59:43Z</time><name>PT312</name></trkpt>
<trkpt lat="52.078013" lon="05.648568"><ele>-6.5</ele><time>2022-04-13T10:59:44Z</time><name>PT313</name></trkpt>
<trkpt lat="52.078014" lon="05.648562"><ele>-6.5</ele><time>2022-04-13T10:59:45Z</time><name>PT314</name></trkpt>
<trkpt lat="52.078019" lon="05.648544"><ele>-6.4</ele><time>2022-04-13T10:59:46Z</time><name>PT315</name></trkpt>
<trkpt lat="52.078036" lon="05.648523"><ele>-6.5</ele><time>2022-04-13T10:59:47Z</time><name>PT316</name></trkpt>
<trkpt lat="52.078059" lon="05.648501"><ele>-6.5</ele><time>2022-04-13T10:59:48Z</time><name>PT317</name></trkpt>
<trkpt lat="52.078073" lon="05.648488"><ele>-6.6</ele><time>2022-04-13T10:59:49Z</time><name>PT318</name></trkpt>
<trkpt lat="52.078083" lon="05.648476"><ele>-6.8</ele><time>2022-04-13T10:59:50Z</time><name>PT319</name></trkpt>
<trkpt lat="52.078090" lon="05.648474"><ele>-7</ele><time>2022-04-13T10:59:51Z</time><name>PT320</name></trkpt>
<trkpt lat="52.078093" lon="05.648470"><ele>-6.9</ele><time>2022-04-13T10:59:52Z</time><name>PT321</name></trkpt>
<trkpt lat="52.078101" lon="05.648463"><ele>-7</ele><time>2022-04-13T10:59:53Z</time><name>PT322</name></trkpt>
<trkpt lat="52.078116" lon="05.648452"><ele>-7</ele><time>2022-04-13T10:59:54Z</time><name>PT323</name></trkpt>
<trkpt lat="52.078131" lon="05.648437"><ele>-7</ele><time>2022-04-13T10:59:55Z</time><name>PT324</name></trkpt>
<trkpt lat="52.078141" lon="05.648425"><ele>-6.8</ele><time>2022-04-13T10:59:56Z</time><name>PT325</name></trkpt>
<trkpt lat="52.078154" lon="05.648411"><ele>-6.7</ele><time>2022-04-13T10:59:57Z</time><name>PT326</name></trkpt>
<trkpt lat="52.078159" lon="05.648407"><ele>-6.8</ele><time>2022-04-13T10:59:58Z</time><name>PT327</name></trkpt>
<trkpt lat="52.078162" lon="05.648405"><ele>-7</ele><time>2022-04-13T10:59:59Z</time><name>PT328</name></trkpt>
<trkpt lat="52.078165" lon="05.648391"><ele>-7</ele><time>2022-04-13T11:00:00Z</time><name>PT329</name></trkpt>
<trkpt lat="52.078179" lon="05.648368"><ele>-7</ele><time>2022-04-13T11:00:01Z</time><name>PT330</name></trkpt>
<trkpt lat="52.078197" lon="05.648353"><ele>-7</ele><time>2022-04-13T11:00:02Z</time><name>PT331</name></trkpt>
<trkpt lat="52.078208" lon="05.648340"><ele>-7</ele><time>2022-04-13T11:00:03Z</time><name>PT332</name></trkpt>
<trkpt lat="52.078218" lon="05.648319"><ele>-6.7</ele><time>2022-04-13T11:00:05Z</time><name>PT333</name></trkpt>
<trkpt lat="52.078228" lon="05.648308"><ele>-6.7</ele><time>2022-04-13T11:00:05Z</time><name>PT334</name></trkpt>
<trkpt lat="52.078239" lon="05.648302"><ele>-6.5</ele><time>2022-04-13T11:00:06Z</time><name>PT335</name></trkpt>
<trkpt lat="52.078250" lon="05.648293"><ele>-6.5</ele><time>2022-04-13T11:00:07Z</time><name>PT336</name></trkpt>
<trkpt lat="52.078270" lon="05.648282"><ele>-6.3</ele><time>2022-04-13T11:00:08Z</time><name>PT337</name></trkpt>
<trkpt lat="52.078283" lon="05.648273"><ele>-6.4</ele><time>2022-04-13T11:00:09Z</time><name>PT338</name></trkpt>
<trkpt lat="52.078287" lon="05.648264"><ele>-6.6</ele><time>2022-04-13T11:00:10Z</time><name>PT339</name></trkpt>
<trkpt lat="52.078293" lon="05.648259"><ele>-6.7</ele><time>2022-04-13T11:00:11Z</time><name>PT340</name></trkpt>
<trkpt lat="52.078301" lon="05.648252"><ele>-7</ele><time>2022-04-13T11:00:12Z</time><name>PT341</name></trkpt>
<trkpt lat="52.078312" lon="05.648243"><ele>-7.2</ele><time>2022-04-13T11:00:13Z</time><name>PT342</name></trkpt>
<trkpt lat="52.078321" lon="05.648237"><ele>-7.3</ele><time>2022-04-13T11:00:14Z</time><name>PT343</name></trkpt>
<trkpt lat="52.078324" lon="05.648228"><ele>-7.3</ele><time>2022-04-13T11:00:15Z</time><name>PT344</name></trkpt>
<trkpt lat="52.078330" lon="05.648217"><ele>-7.2</ele><time>2022-04-13T11:00:16Z</time><name>PT345</name></trkpt>
<trkpt lat="52.078339" lon="05.648209"><ele>-7</ele><time>2022-04-13T11:00:17Z</time><name>PT346</name></trkpt>
<trkpt lat="52.078347" lon="05.648191"><ele>-7.1</ele><time>2022-04-13T11:00:18Z</time><name>PT347</name></trkpt>
<trkpt lat="52.078362" lon="05.648184"><ele>-7.1</ele><time>2022-04-13T11:00:19Z</time><name>PT348</name></trkpt>
<trkpt lat="52.078368" lon="05.648181"><ele>-7</ele><time>2022-04-13T11:00:20Z</time><name>PT349</name></trkpt>
<trkpt lat="52.078372" lon="05.648177"><ele>-7.1</ele><time>2022-04-13T11:00:21Z</time><name>PT350</name></trkpt>
<trkpt lat="52.078382" lon="05.648170"><ele>-7.1</ele><time>2022-04-13T11:00:22Z</time><name>PT351</name></trkpt>
<trkpt lat="52.078381" lon="05.648172"><ele>-7.2</ele><time>2022-04-13T11:00:23Z</time><name>PT352</name></trkpt>
<trkpt lat="52.078386" lon="05.648167"><ele>-7.2</ele><time>2022-04-13T11:00:24Z</time><name>PT353</name></trkpt>
<trkpt lat="52.078394" lon="05.648160"><ele>-7.1</ele><time>2022-04-13T11:00:25Z</time><name>PT354</name></trkpt>
<trkpt lat="52.078409" lon="05.648148"><ele>-7.1</ele><time>2022-04-13T11:00:26Z</time><name>PT355</name></trkpt>
<trkpt lat="52.078424" lon="05.648145"><ele>-7.3</ele><time>2022-04-13T11:00:27Z</time><name>PT356</name></trkpt>
<trkpt lat="52.078436" lon="05.648144"><ele>-7.3</ele><time>2022-04-13T11:00:28Z</time><name>PT357</name></trkpt>
<trkpt lat="52.078448" lon="05.648141"><ele>-7.2</ele><time>2022-04-13T11:00:29Z</time><name>PT358</name></trkpt>
<trkpt lat="52.078453" lon="05.648141"><ele>-7.1</ele><time>2022-04-13T11:00:30Z</time><name>PT359</name></trkpt>
<trkpt lat="52.078457" lon="05.648141"><ele>-7</ele><time>2022-04-13T11:00:31Z</time><name>PT360</name></trkpt>
<trkpt lat="52.078462" lon="05.648146"><ele>-6.9</ele><time>2022-04-13T11:00:32Z</time><name>PT361</name></trkpt>
<trkpt lat="52.078471" lon="05.648160"><ele>-6.8</ele><time>2022-04-13T11:00:33Z</time><name>PT362</name></trkpt>
<trkpt lat="52.078485" lon="05.648170"><ele>-6.7</ele><time>2022-04-13T11:00:34Z</time><name>PT363</name></trkpt>
<trkpt lat="52.078496" lon="05.648175"><ele>-6.7</ele><time>2022-04-13T11:00:35Z</time><name>PT364</name></trkpt>
<trkpt lat="52.078500" lon="05.648181"><ele>-6.9</ele><time>2022-04-13T11:00:36Z</time><name>PT365</name></trkpt>
<trkpt lat="52.078509" lon="05.648180"><ele>-6.7</ele><time>2022-04-13T11:00:37Z</time><name>PT366</name></trkpt>
<trkpt lat="52.078518" lon="05.648180"><ele>-6.9</ele><time>2022-04-13T11:00:38Z</time><name>PT367</name></trkpt>
<trkpt lat="52.078536" lon="05.648194"><ele>-6.9</ele><time>2022-04-13T11:00:39Z</time><name>PT368</name></trkpt>
<trkpt lat="52.078550" lon="05.648198"><ele>-6.9</ele><time>2022-04-13T11:00:40Z</time><name>PT369</name></trkpt>
<trkpt lat="52.078561" lon="05.648197"><ele>-6.8</ele><time>2022-04-13T11:00:41Z</time><name>PT370</name></trkpt>
<trkpt lat="52.078565" lon="05.648196"><ele>-6.9</ele><time>2022-04-13T11:00:42Z</time><name>PT371</name></trkpt>
<trkpt lat="52.078569" lon="05.648199"><ele>-6.7</ele><time>2022-04-13T11:00:43Z</time><name>PT372</name></trkpt>
<trkpt lat="52.078582" lon="05.648201"><ele>-6.6</ele><time>2022-04-13T11:00:44Z</time><name>PT373</name></trkpt>
<trkpt lat="52.078594" lon="05.648205"><ele>-6.7</ele><time>2022-04-13T11:00:45Z</time><name>PT374</name></trkpt>
<trkpt lat="52.078607" lon="05.648220"><ele>-6.6</ele><time>2022-04-13T11:00:46Z</time><name>PT375</name></trkpt>
<trkpt lat="52.078617" lon="05.648229"><ele>-6.6</ele><time>2022-04-13T11:00:47Z</time><name>PT376</name></trkpt>
<trkpt lat="52.078621" lon="05.648234"><ele>-6.5</ele><time>2022-04-13T11:00:48Z</time><name>PT377</name></trkpt>
<trkpt lat="52.078623" lon="05.648238"><ele>-6.5</ele><time>2022-04-13T11:00:49Z</time><name>PT378</name></trkpt>
<trkpt lat="52.078632" lon="05.648245"><ele>-6.4</ele><time>2022-04-13T11:00:50Z</time><name>PT379</name></trkpt>
<trkpt lat="52.078649" lon="05.648255"><ele>-6.5</ele><time>2022-04-13T11:00:51Z</time><name>PT380</name></trkpt>
<trkpt lat="52.078655" lon="05.648272"><ele>-6.4</ele><time>2022-04-13T11:00:52Z</time><name>PT381</name></trkpt>
<trkpt lat="52.078663" lon="05.648286"><ele>-6.4</ele><time>2022-04-13T11:00:53Z</time><name>PT382</name></trkpt>
<trkpt lat="52.078672" lon="05.648296"><ele>-6.2</ele><time>2022-04-13T11:00:54Z</time><name>PT383</name></trkpt>
<trkpt lat="52.078676" lon="05.648301"><ele>-6.1</ele><time>2022-04-13T11:00:55Z</time><name>PT384</name></trkpt>
<trkpt lat="52.078681" lon="05.648304"><ele>-6.1</ele><time>2022-04-13T11:00:56Z</time><name>PT385</name></trkpt>
<trkpt lat="52.078691" lon="05.648305"><ele>-6</ele><time>2022-04-13T11:00:57Z</time><name>PT386</name></trkpt>
<trkpt lat="52.078708" lon="05.648303"><ele>-6</ele><time>2022-04-13T11:00:58Z</time><name>PT387</name></trkpt>
<trkpt lat="52.078727" lon="05.648310"><ele>-6</ele><time>2022-04-13T11:00:59Z</time><name>PT388</name></trkpt>
<trkpt lat="52.078734" lon="05.648319"><ele>-6</ele><time>2022-04-13T11:01:00Z</time><name>PT389</name></trkpt>
<trkpt lat="52.078742" lon="05.648328"><ele>-6.1</ele><time>2022-04-13T11:01:01Z</time><name>PT390</name></trkpt>
<trkpt lat="52.078744" lon="05.648329"><ele>-6.1</ele><time>2022-04-13T11:01:02Z</time><name>PT391</name></trkpt>
<trkpt lat="52.078748" lon="05.648329"><ele>-6.1</ele><time>2022-04-13T11:01:03Z</time><name>PT392</name></trkpt>
<trkpt lat="52.078760" lon="05.648344"><ele>-6</ele><time>2022-04-13T11:01:04Z</time><name>PT393</name></trkpt>
<trkpt lat="52.078772" lon="05.648351"><ele>-5.9</ele><time>2022-04-13T11:01:05Z</time><name>PT394</name></trkpt>
<trkpt lat="52.078786" lon="05.648354"><ele>-6</ele><time>2022-04-13T11:01:06Z</time><name>PT395</name></trkpt>
<trkpt lat="52.078803" lon="05.648359"><ele>-6</ele><time>2022-04-13T11:01:07Z</time><name>PT396</name></trkpt>
<trkpt lat="52.078813" lon="05.648362"><ele>-5.8</ele><time>2022-04-13T11:01:08Z</time><name>PT397</name></trkpt>
<trkpt lat="52.078818" lon="05.648366"><ele>-5.6</ele><time>2022-04-13T11:01:09Z</time><name>PT398</name></trkpt>
<trkpt lat="52.078824" lon="05.648368"><ele>-5.5</ele><time>2022-04-13T11:01:10Z</time><name>PT399</name></trkpt>
<trkpt lat="52.078829" lon="05.648372"><ele>-5.5</ele><time>2022-04-13T11:01:11Z</time><name>PT400</name></trkpt>
<trkpt lat="52.078847" lon="05.648381"><ele>-5.5</ele><time>2022-04-13T11:01:12Z</time><name>PT401</name></trkpt>
<trkpt lat="52.078880" lon="05.648400"><ele>-5.5</ele><time>2022-04-13T11:01:13Z</time><name>PT402</name></trkpt>
<trkpt lat="52.078899" lon="05.648419"><ele>-5.5</ele><time>2022-04-13T11:01:14Z</time><name>PT403</name></trkpt>
<trkpt lat="52.078914" lon="05.648429"><ele>-5.5</ele><time>2022-04-13T11:01:15Z</time><name>PT404</name></trkpt>
<trkpt lat="52.078922" lon="05.648435"><ele>-5.4</ele><time>2022-04-13T11:01:16Z</time><name>PT405</name></trkpt>
<trkpt lat="52.078926" lon="05.648440"><ele>-5.4</ele><time>2022-04-13T11:01:17Z</time><name>PT406</name></trkpt>
<trkpt lat="52.078932" lon="05.648443"><ele>-5.3</ele><time>2022-04-13T11:01:18Z</time><name>PT407</name></trkpt>
<trkpt lat="52.078946" lon="05.648453"><ele>-5.2</ele><time>2022-04-13T11:01:19Z</time><name>PT408</name></trkpt>
<trkpt lat="52.078958" lon="05.648463"><ele>-5.1</ele><time>2022-04-13T11:01:20Z</time><name>PT409</name></trkpt>
<trkpt lat="52.078975" lon="05.648472"><ele>-4.9</ele><time>2022-04-13T11:01:21Z</time><name>PT410</name></trkpt>
<trkpt lat="52.078986" lon="05.648477"><ele>-4.9</ele><time>2022-04-13T11:01:22Z</time><name>PT411</name></trkpt>
<trkpt lat="52.078992" lon="05.648476"><ele>-5</ele><time>2022-04-13T11:01:23Z</time><name>PT412</name></trkpt>
<trkpt lat="52.078995" lon="05.648476"><ele>-4.9</ele><time>2022-04-13T11:01:24Z</time><name>PT413</name></trkpt>
<trkpt lat="52.079002" lon="05.648475"><ele>-4.9</ele><time>2022-04-13T11:01:25Z</time><name>PT414</name></trkpt>
<trkpt lat="52.079007" lon="05.648473"><ele>-4.8</ele><time>2022-04-13T11:01:26Z</time><name>PT415</name></trkpt>
<trkpt lat="52.079018" lon="05.648477"><ele>-4.8</ele><time>2022-04-13T11:01:27Z</time><name>PT416</name></trkpt>
<trkpt lat="52.079031" lon="05.648467"><ele>-4.6</ele><time>2022-04-13T11:01:28Z</time><name>PT417</name></trkpt>
<trkpt lat="52.079041" lon="05.648463"><ele>-4.5</ele><time>2022-04-13T11:01:29Z</time><name>PT418</name></trkpt>
<trkpt lat="52.079051" lon="05.648461"><ele>-4.6</ele><time>2022-04-13T11:01:30Z</time><name>PT419</name></trkpt>
<trkpt lat="52.079057" lon="05.648459"><ele>-4.5</ele><time>2022-04-13T11:01:31Z</time><name>PT420</name></trkpt>
<trkpt lat="52.079071" lon="05.648458"><ele>-4.5</ele><time>2022-04-13T11:01:32Z</time><name>PT421</name></trkpt>
<trkpt lat="52.079079" lon="05.648458"><ele>-4.6</ele><time>2022-04-13T11:01:33Z</time><name>PT422</name></trkpt>
<trkpt lat="52.079090" lon="05.648459"><ele>-4.8</ele><time>2022-04-13T11:01:34Z</time><name>PT423</name></trkpt>
<trkpt lat="52.079102" lon="05.648454"><ele>-4.9</ele><time>2022-04-13T11:01:35Z</time><name>PT424</name></trkpt>
<trkpt lat="52.079107" lon="05.648458"><ele>-4.9</ele><time>2022-04-13T11:01:36Z</time><name>PT425</name></trkpt>
<trkpt lat="52.079118" lon="05.648463"><ele>-5.1</ele><time>2022-04-13T11:01:37Z</time><name>PT426</name></trkpt>
<trkpt lat="52.079142" lon="05.648460"><ele>-4.9</ele><time>2022-04-13T11:01:38Z</time><name>PT427</name></trkpt>
<trkpt lat="52.079156" lon="05.648448"><ele>-4.6</ele><time>2022-04-13T11:01:39Z</time><name>PT428</name></trkpt>
<trkpt lat="52.079157" lon="05.648441"><ele>-4.6</ele><time>2022-04-13T11:01:40Z</time><name>PT429</name></trkpt>
<trkpt lat="52.079164" lon="05.648441"><ele>-4.6</ele><time>2022-04-13T11:01:41Z</time><name>PT430</name></trkpt>
<trkpt lat="52.079171" lon="05.648445"><ele>-4.6</ele><time>2022-04-13T11:01:42Z</time><name>PT431</name></trkpt>
<trkpt lat="52.079187" lon="05.648438"><ele>-4.6</ele><time>2022-04-13T11:01:43Z</time><name>PT432</name></trkpt>
<trkpt lat="52.079204" lon="05.648426"><ele>-4.6</ele><time>2022-04-13T11:01:44Z</time><name>PT433</name></trkpt>
<trkpt lat="52.079221" lon="05.648411"><ele>-4.6</ele><time>2022-04-13T11:01:45Z</time><name>PT434</name></trkpt>
<trkpt lat="52.079240" lon="05.648409"><ele>-4.8</ele><time>2022-04-13T11:01:46Z</time><name>PT435</name></trkpt>
<trkpt lat="52.079253" lon="05.648410"><ele>-5</ele><time>2022-04-13T11:01:47Z</time><name>PT436</name></trkpt>
<trkpt lat="52.079263" lon="05.648408"><ele>-5</ele><time>2022-04-13T11:01:48Z</time><name>PT437</name></trkpt>
<trkpt lat="52.079272" lon="05.648404"><ele>-4.9</ele><time>2022-04-13T11:01:49Z</time><name>PT438</name></trkpt>
<trkpt lat="52.079281" lon="05.648397"><ele>-4.9</ele><time>2022-04-13T11:01:50Z</time><name>PT439</name></trkpt>
<trkpt lat="52.079290" lon="05.648393"><ele>-4.9</ele><time>2022-04-13T11:01:51Z</time><name>PT440</name></trkpt>
<trkpt lat="52.079290" lon="05.648380"><ele>-4.8</ele><time>2022-04-13T11:01:52Z</time><name>PT441</name></trkpt>
<trkpt lat="52.079306" lon="05.648365"><ele>-4.8</ele><time>2022-04-13T11:01:53Z</time><name>PT442</name></trkpt>
<trkpt lat="52.079327" lon="05.648359"><ele>-4.6</ele><time>2022-04-13T11:01:54Z</time><name>PT443</name></trkpt>
<trkpt lat="52.079338" lon="05.648355"><ele>-4.8</ele><time>2022-04-13T11:01:55Z</time><name>PT444</name></trkpt>
<trkpt lat="52.079350" lon="05.648348"><ele>-4.7</ele><time>2022-04-13T11:01:56Z</time><name>PT445</name></trkpt>
<trkpt lat="52.079360" lon="05.648342"><ele>-4.7</ele><time>2022-04-13T11:01:57Z</time><name>PT446</name></trkpt>
<trkpt lat="52.079368" lon="05.648340"><ele>-4.8</ele><time>2022-04-13T11:01:58Z</time><name>PT447</name></trkpt>
<trkpt lat="52.079371" lon="05.648334"><ele>-5.1</ele><time>2022-04-13T11:01:59Z</time><name>PT448</name></trkpt>
<trkpt lat="52.079379" lon="05.648323"><ele>-5.1</ele><time>2022-04-13T11:02:00Z</time><name>PT449</name></trkpt>
<trkpt lat="52.079387" lon="05.648314"><ele>-5.2</ele><time>2022-04-13T11:02:01Z</time><name>PT450</name></trkpt>
<trkpt lat="52.079397" lon="05.648308"><ele>-5.1</ele><time>2022-04-13T11:02:02Z</time><name>PT451</name></trkpt>
<trkpt lat="52.079414" lon="05.648300"><ele>-5.2</ele><time>2022-04-13T11:02:03Z</time><name>PT452</name></trkpt>
<trkpt lat="52.079424" lon="05.648295"><ele>-5.1</ele><time>2022-04-13T11:02:04Z</time><name>PT453</name></trkpt>
<trkpt lat="52.079429" lon="05.648286"><ele>-5</ele><time>2022-04-13T11:02:05Z</time><name>PT454</name></trkpt>
<trkpt lat="52.079427" lon="05.648276"><ele>-5.1</ele><time>2022-04-13T11:02:06Z</time><name>PT455</name></trkpt>
<trkpt lat="52.079431" lon="05.648263"><ele>-5</ele><time>2022-04-13T11:02:07Z</time><name>PT456</name></trkpt>
<trkpt lat="52.079438" lon="05.648257"><ele>-4.7</ele><time>2022-04-13T11:02:08Z</time><name>PT457</name></trkpt>
<trkpt lat="52.079447" lon="05.648256"><ele>-4.8</ele><time>2022-04-13T11:02:09Z</time><name>PT458</name></trkpt>
<trkpt lat="52.079451" lon="05.648252"><ele>-4.8</ele><time>2022-04-13T11:02:10Z</time><name>PT459</name></trkpt>
<trkpt lat="52.079469" lon="05.648259"><ele>-4.9</ele><time>2022-04-13T11:02:11Z</time><name>PT460</name></trkpt>
<trkpt lat="52.079486" lon="05.648264"><ele>-4.9</ele><time>2022-04-13T11:02:12Z</time><name>PT461</name></trkpt>
<trkpt lat="52.079489" lon="05.648261"><ele>-5</ele><time>2022-04-13T11:02:13Z</time><name>PT462</name></trkpt>
<trkpt lat="52.079510" lon="05.648263"><ele>-5.1</ele><time>2022-04-13T11:02:14Z</time><name>PT463</name></trkpt>
<trkpt lat="52.079525" lon="05.648267"><ele>-5.1</ele><time>2022-04-13T11:02:15Z</time><name>PT464</name></trkpt>
<trkpt lat="52.079531" lon="05.648261"><ele>-4.9</ele><time>2022-04-13T11:02:23Z</time><name>PT465</name></trkpt>
<trkpt lat="52.079534" lon="05.648256"><ele>-5</ele><time>2022-04-13T11:02:24Z</time><name>PT466</name></trkpt>
<trkpt lat="52.079544" lon="05.648243"><ele>-5</ele><time>2022-04-13T11:02:25Z</time><name>PT467</name></trkpt>
<trkpt lat="52.079545" lon="05.648244"><ele>-5.1</ele><time>2022-04-13T11:02:26Z</time><name>PT468</name></trkpt>
<trkpt lat="52.079544" lon="05.648239"><ele>-4.9</ele><time>2022-04-13T11:02:28Z</time><name>PT469</name></trkpt>
<trkpt lat="52.079549" lon="05.648236"><ele>-4.7</ele><time>2022-04-13T11:02:29Z</time><name>PT470</name></trkpt>
<trkpt lat="52.079559" lon="05.648221"><ele>-4.8</ele><time>2022-04-13T11:02:30Z</time><name>PT471</name></trkpt>
<trkpt lat="52.079576" lon="05.648214"><ele>-5</ele><time>2022-04-13T11:02:31Z</time><name>PT472</name></trkpt>
<trkpt lat="52.079595" lon="05.648214"><ele>-5</ele><time>2022-04-13T11:02:32Z</time><name>PT473</name></trkpt>
<trkpt lat="52.079608" lon="05.648218"><ele>-5.1</ele><time>2022-04-13T11:02:33Z</time><name>PT474</name></trkpt>
<trkpt lat="52.079615" lon="05.648223"><ele>-5.1</ele><time>2022-04-13T11:02:34Z</time><name>PT475</name></trkpt>
<trkpt lat="52.079615" lon="05.648223"><ele>-5</ele><time>2022-04-13T11:02:35Z</time><name>PT476</name></trkpt>
<trkpt lat="52.079624" lon="05.648214"><ele>-5</ele><time>2022-04-13T11:02:36Z</time><name>PT477</name></trkpt>
<trkpt lat="52.079632" lon="05.648206"><ele>-4.9</ele><time>2022-04-13T11:02:37Z</time><name>PT478</name></trkpt>
<trkpt lat="52.079641" lon="05.648206"><ele>-4.9</ele><time>2022-04-13T11:02:38Z</time><name>PT479</name></trkpt>
<trkpt lat="52.079650" lon="05.648210"><ele>-5.1</ele><time>2022-04-13T11:02:39Z</time><name>PT480</name></trkpt>
<trkpt lat="52.079662" lon="05.648209"><ele>-5.1</ele><time>2022-04-13T11:02:40Z</time><name>PT481</name></trkpt>
<trkpt lat="52.079668" lon="05.648213"><ele>-5.2</ele><time>2022-04-13T11:02:41Z</time><name>PT482</name></trkpt>
<trkpt lat="52.079680" lon="05.648226"><ele>-5.2</ele><time>2022-04-13T11:02:42Z</time><name>PT483</name></trkpt>
<trkpt lat="52.079692" lon="05.648228"><ele>-5.2</ele><time>2022-04-13T11:02:43Z</time><name>PT484</name></trkpt>
<trkpt lat="52.079699" lon="05.648228"><ele>-5.2</ele><time>2022-04-13T11:02:44Z</time><name>PT485</name></trkpt>
<trkpt lat="52.079703" lon="05.648232"><ele>-5.1</ele><time>2022-04-13T11:02:45Z</time><name>PT486</name></trkpt>
<trkpt lat="52.079713" lon="05.648228"><ele>-5.1</ele><time>2022-04-13T11:02:46Z</time><name>PT487</name></trkpt>
<trkpt lat="52.079731" lon="05.648238"><ele>-5.1</ele><time>2022-04-13T11:02:47Z</time><name>PT488</name></trkpt>
<trkpt lat="52.079738" lon="05.648249"><ele>-5.1</ele><time>2022-04-13T11:02:48Z</time><name>PT489</name></trkpt>
<trkpt lat="52.079744" lon="05.648260"><ele>-5.1</ele><time>2022-04-13T11:02:49Z</time><name>PT490</name></trkpt>
<trkpt lat="52.079758" lon="05.648273"><ele>-5.1</ele><time>2022-04-13T11:02:50Z</time><name>PT491</name></trkpt>
<trkpt lat="52.079768" lon="05.648276"><ele>-5</ele><time>2022-04-13T11:02:51Z</time><name>PT492</name></trkpt>
<trkpt lat="52.079779" lon="05.648278"><ele>-5</ele><time>2022-04-13T11:02:52Z</time><name>PT493</name></trkpt>
<trkpt lat="52.079792" lon="05.648282"><ele>-4.9</ele><time>2022-04-13T11:02:53Z</time><name>PT494</name></trkpt>
<trkpt lat="52.079805" lon="05.648289"><ele>-5.1</ele><time>2022-04-13T11:02:54Z</time><name>PT495</name></trkpt>
<trkpt lat="52.079820" lon="05.648290"><ele>-5.1</ele><time>2022-04-13T11:02:55Z</time><name>PT496</name></trkpt>
<trkpt lat="52.079836" lon="05.648299"><ele>-5.2</ele><time>2022-04-13T11:02:56Z</time><name>PT497</name></trkpt>
<trkpt lat="52.079852" lon="05.648311"><ele>-5.3</ele><time>2022-04-13T11:02:57Z</time><name>PT498</name></trkpt>
<trkpt lat="52.079876" lon="05.648319"><ele>-5.4</ele><time>2022-04-13T11:02:58Z</time><name>PT499</name></trkpt>
<trkpt lat="52.079888" lon="05.648322"><ele>-5.1</ele><time>2022-04-13T11:02:59Z</time><name>PT500</name></trkpt>
<trkpt lat="52.079898" lon="05.648322"><ele>-4.9</ele><time>2022-04-13T11:03:00Z</time><name>PT501</name></trkpt>
<trkpt lat="52.079923" lon="05.648319"><ele>-4.8</ele><time>2022-04-13T11:03:01Z</time><name>PT502</name></trkpt>
<trkpt lat="52.079931" lon="05.648316"><ele>-4.7</ele><time>2022-04-13T11:03:02Z</time><name>PT503</name></trkpt>
<trkpt lat="52.079939" lon="05.648315"><ele>-4.5</ele><time>2022-04-13T11:03:03Z</time><name>PT504</name></trkpt>
<trkpt lat="52.079947" lon="05.648318"><ele>-4.6</ele><time>2022-04-13T11:03:04Z</time><name>PT505</name></trkpt>
<trkpt lat="52.079956" lon="05.648319"><ele>-4.6</ele><time>2022-04-13T11:03:05Z</time><name>PT506</name></trkpt>
<trkpt lat="52.079962" lon="05.648324"><ele>-4.7</ele><time>2022-04-13T11:03:06Z</time><name>PT507</name></trkpt>
<trkpt lat="52.079967" lon="05.648326"><ele>-4.6</ele><time>2022-04-13T11:03:07Z</time><name>PT508</name></trkpt>
<trkpt lat="52.079973" lon="05.648328"><ele>-4.6</ele><time>2022-04-13T11:03:08Z</time><name>PT509</name></trkpt>
<trkpt lat="52.079980" lon="05.648325"><ele>-4.6</ele><time>2022-04-13T11:03:09Z</time><name>PT510</name></trkpt>
<trkpt lat="52.079985" lon="05.648320"><ele>-4.6</ele><time>2022-04-13T11:03:10Z</time><name>PT511</name></trkpt>
<trkpt lat="52.079991" lon="05.648321"><ele>-4.7</ele><time>2022-04-13T11:03:11Z</time><name>PT512</name></trkpt>
<trkpt lat="52.080002" lon="05.648319"><ele>-4.7</ele><time>2022-04-13T11:03:12Z</time><name>PT513</name></trkpt>
<trkpt lat="52.080015" lon="05.648313"><ele>-4.7</ele><time>2022-04-13T11:03:13Z</time><name>PT514</name></trkpt>
<trkpt lat="52.080029" lon="05.648308"><ele>-4.6</ele><time>2022-04-13T11:03:14Z</time><name>PT515</name></trkpt>
<trkpt lat="52.080035" lon="05.648309"><ele>-4.5</ele><time>2022-04-13T11:03:15Z</time><name>PT516</name></trkpt>
<trkpt lat="52.080050" lon="05.648306"><ele>-4.4</ele><time>2022-04-13T11:03:16Z</time><name>PT517</name></trkpt>
<trkpt lat="52.080059" lon="05.648304"><ele>-4.4</ele><time>2022-04-13T11:03:17Z</time><name>PT518</name></trkpt>
<trkpt lat="52.080068" lon="05.648303"><ele>-4.4</ele><time>2022-04-13T11:03:18Z</time><name>PT519</name></trkpt>
<trkpt lat="52.080078" lon="05.648306"><ele>-4.6</ele><time>2022-04-13T11:03:19Z</time><name>PT520</name></trkpt>
<trkpt lat="52.080087" lon="05.648313"><ele>-4.5</ele><time>2022-04-13T11:03:20Z</time><name>PT521</name></trkpt>
<trkpt lat="52.080097" lon="05.648316"><ele>-4.5</ele><time>2022-04-13T11:03:21Z</time><name>PT522</name></trkpt>
<trkpt lat="52.080106" lon="05.648322"><ele>-4.5</ele><time>2022-04-13T11:03:22Z</time><name>PT523</name></trkpt>
<trkpt lat="52.080116" lon="05.648324"><ele>-4.4</ele><time>2022-04-13T11:03:23Z</time><name>PT524</name></trkpt>
<trkpt lat="52.080128" lon="05.648327"><ele>-4.2</ele><time>2022-04-13T11:03:24Z</time><name>PT525</name></trkpt>
<trkpt lat="52.080137" lon="05.648330"><ele>-4.3</ele><time>2022-04-13T11:03:25Z</time><name>PT526</name></trkpt>
<trkpt lat="52.080146" lon="05.648335"><ele>-4.2</ele><time>2022-04-13T11:03:26Z</time><name>PT527</name></trkpt>
<trkpt lat="52.080156" lon="05.648343"><ele>-4.2</ele><time>2022-04-13T11:03:27Z</time><name>PT528</name></trkpt>
<trkpt lat="52.080170" lon="05.648347"><ele>-4.1</ele><time>2022-04-13T11:03:28Z</time><name>PT529</name></trkpt>
<trkpt lat="52.080182" lon="05.648348"><ele>-4.3</ele><time>2022-04-13T11:03:29Z</time><name>PT530</name></trkpt>
<trkpt lat="52.080188" lon="05.648351"><ele>-4.2</ele><time>2022-04-13T11:03:30Z</time><name>PT531</name></trkpt>
<trkpt lat="52.080197" lon="05.648354"><ele>-4.3</ele><time>2022-04-13T11:03:31Z</time><name>PT532</name></trkpt>
<trkpt lat="52.080206" lon="05.648353"><ele>-4.3</ele><time>2022-04-13T11:03:32Z</time><name>PT533</name></trkpt>
<trkpt lat="52.080220" lon="05.648355"><ele>-4.1</ele><time>2022-04-13T11:03:33Z</time><name>PT534</name></trkpt>
<trkpt lat="52.080233" lon="05.648362"><ele>-4.1</ele><time>2022-04-13T11:03:34Z</time><name>PT535</name></trkpt>
<trkpt lat="52.080244" lon="05.648367"><ele>-4.1</ele><time>2022-04-13T11:03:35Z</time><name>PT536</name></trkpt>
<trkpt lat="52.080255" lon="05.648367"><ele>-4.2</ele><time>2022-04-13T11:03:36Z</time><name>PT537</name></trkpt>
<trkpt lat="52.080268" lon="05.648365"><ele>-4.2</ele><time>2022-04-13T11:03:37Z</time><name>PT538</name></trkpt>
<trkpt lat="52.080285" lon="05.648365"><ele>-4.4</ele><time>2022-04-13T11:03:38Z</time><name>PT539</name></trkpt>
<trkpt lat="52.080300" lon="05.648370"><ele>-4.6</ele><time>2022-04-13T11:03:39Z</time><name>PT540</name></trkpt>
<trkpt lat="52.080318" lon="05.648374"><ele>-4.4</ele><time>2022-04-13T11:03:40Z</time><name>PT541</name></trkpt>
<trkpt lat="52.080331" lon="05.648383"><ele>-4.3</ele><time>2022-04-13T11:03:41Z</time><name>PT542</name></trkpt>
<trkpt lat="52.080350" lon="05.648387"><ele>-4.1</ele><time>2022-04-13T11:03:42Z</time><name>PT543</name></trkpt>
<trkpt lat="52.080360" lon="05.648389"><ele>-4.1</ele><time>2022-04-13T11:03:43Z</time><name>PT544</name></trkpt>
<trkpt lat="52.080366" lon="05.648390"><ele>-3.9</ele><time>2022-04-13T11:03:44Z</time><name>PT545</name></trkpt>
<trkpt lat="52.080378" lon="05.648384"><ele>-3.9</ele><time>2022-04-13T11:03:45Z</time><name>PT546</name></trkpt>
<trkpt lat="52.080388" lon="05.648381"><ele>-3.9</ele><time>2022-04-13T11:03:46Z</time><name>PT547</name></trkpt>
<trkpt lat="52.080391" lon="05.648383"><ele>-4.1</ele><time>2022-04-13T11:03:47Z</time><name>PT548</name></trkpt>
<trkpt lat="52.080392" lon="05.648383"><ele>-4</ele><time>2022-04-13T11:03:48Z</time><name>PT549</name></trkpt>
<trkpt lat="52.080394" lon="05.648384"><ele>-4</ele><time>2022-04-13T11:03:49Z</time><name>PT550</name></trkpt>
<trkpt lat="52.080395" lon="05.648381"><ele>-3.9</ele><time>2022-04-13T11:03:50Z</time><name>PT551</name></trkpt>
<trkpt lat="52.080388" lon="05.648382"><ele>-4</ele><time>2022-04-13T11:03:57Z</time><name>PT552</name></trkpt>
<trkpt lat="52.080388" lon="05.648381"><ele>-4.1</ele><time>2022-04-13T11:03:58Z</time><name>PT553</name></trkpt>
<trkpt lat="52.080388" lon="05.648378"><ele>-4.1</ele><time>2022-04-13T11:03:59Z</time><name>PT554</name></trkpt>
<trkpt lat="52.080391" lon="05.648378"><ele>-4.5</ele><time>2022-04-13T11:04:07Z</time><name>PT555</name></trkpt>
<trkpt lat="52.080390" lon="05.648385"><ele>-4.3</ele><time>2022-04-13T11:04:08Z</time><name>PT556</name></trkpt>
<trkpt lat="52.080393" lon="05.648378"><ele>-4.1</ele><time>2022-04-13T11:04:09Z</time><name>PT557</name></trkpt>
<trkpt lat="52.080397" lon="05.648370"><ele>-4.2</ele><time>2022-04-13T11:04:10Z</time><name>PT558</name></trkpt>
<trkpt lat="52.080399" lon="05.648361"><ele>-4.2</ele><time>2022-04-13T11:04:11Z</time><name>PT559</name></trkpt>
<trkpt lat="52.080409" lon="05.648321"><ele>-4.6</ele><time>2022-04-13T11:04:19Z</time><name>PT560</name></trkpt>
<trkpt lat="52.080410" lon="05.648327"><ele>-4.6</ele><time>2022-04-13T11:04:20Z</time><name>PT561</name></trkpt>
<trkpt lat="52.080413" lon="05.648322"><ele>-4.5</ele><time>2022-04-13T11:04:21Z</time><name>PT562</name></trkpt>
<trkpt lat="52.080409" lon="05.648344"><ele>-4.4</ele><time>2022-04-13T11:04:27Z</time><name>PT563</name></trkpt>
<trkpt lat="52.080416" lon="05.648364"><ele>-4.4</ele><time>2022-04-13T11:04:28Z</time><name>PT564</name></trkpt>
<trkpt lat="52.080431" lon="05.648382"><ele>-4.5</ele><time>2022-04-13T11:04:29Z</time><name>PT565</name></trkpt>
<trkpt lat="52.080438" lon="05.648388"><ele>-4.6</ele><time>2022-04-13T11:04:30Z</time><name>PT566</name></trkpt>
<trkpt lat="52.080445" lon="05.648402"><ele>-4.6</ele><time>2022-04-13T11:04:31Z</time><name>PT567</name></trkpt>
<trkpt lat="52.080449" lon="05.648403"><ele>-4.6</ele><time>2022-04-13T11:04:32Z</time><name>PT568</name></trkpt>
<trkpt lat="52.080454" lon="05.648409"><ele>-4.6</ele><time>2022-04-13T11:04:33Z</time><name>PT569</name></trkpt>
<trkpt lat="52.080460" lon="05.648407"><ele>-4.5</ele><time>2022-04-13T11:04:34Z</time><name>PT570</name></trkpt>
<trkpt lat="52.080464" lon="05.648393"><ele>-4.4</ele><time>2022-04-13T11:04:35Z</time><name>PT571</name></trkpt>
<trkpt lat="52.080462" lon="05.648390"><ele>-4.5</ele><time>2022-04-13T11:04:36Z</time><name>PT572</name></trkpt>
<trkpt lat="52.080463" lon="05.648394"><ele>-4.6</ele><time>2022-04-13T11:04:37Z</time><name>PT573</name></trkpt>
<trkpt lat="52.080464" lon="05.648399"><ele>-4.6</ele><time>2022-04-13T11:04:38Z</time><name>PT574</name></trkpt>
<trkpt lat="52.080462" lon="05.648385"><ele>-4.6</ele><time>2022-04-13T11:04:40Z</time><name>PT575</name></trkpt>
<trkpt lat="52.080468" lon="05.648370"><ele>-4.4</ele><time>2022-04-13T11:04:41Z</time><name>PT576</name></trkpt>
<trkpt lat="52.080460" lon="05.648362"><ele>-4.4</ele><time>2022-04-13T11:04:42Z</time><name>PT577</name></trkpt>
<trkpt lat="52.080457" lon="05.648354"><ele>-4.4</ele><time>2022-04-13T11:04:43Z</time><name>PT578</name></trkpt>
<trkpt lat="52.080463" lon="05.648352"><ele>-4.1</ele><time>2022-04-13T11:04:48Z</time><name>PT579</name></trkpt>
<trkpt lat="52.080476" lon="05.648390"><ele>-4.2</ele><time>2022-04-13T11:04:49Z</time><name>PT580</name></trkpt>
<trkpt lat="52.080485" lon="05.648404"><ele>-4.3</ele><time>2022-04-13T11:04:50Z</time><name>PT581</name></trkpt>
<trkpt lat="52.080493" lon="05.648413"><ele>-4.5</ele><time>2022-04-13T11:04:51Z</time><name>PT582</name></trkpt>
<trkpt lat="52.080497" lon="05.648428"><ele>-4.5</ele><time>2022-04-13T11:04:52Z</time><name>PT583</name></trkpt>
<trkpt lat="52.080501" lon="05.648432"><ele>-4.5</ele><time>2022-04-13T11:04:53Z</time><name>PT584</name></trkpt>
<trkpt lat="52.080509" lon="05.648437"><ele>-4.5</ele><time>2022-04-13T11:04:54Z</time><name>PT585</name></trkpt>
<trkpt lat="52.080520" lon="05.648440"><ele>-4.4</ele><time>2022-04-13T11:04:55Z</time><name>PT586</name></trkpt>
<trkpt lat="52.080530" lon="05.648445"><ele>-4.6</ele><time>2022-04-13T11:04:56Z</time><name>PT587</name></trkpt>
<trkpt lat="52.080535" lon="05.648445"><ele>-4.5</ele><time>2022-04-13T11:04:57Z</time><name>PT588</name></trkpt>
<trkpt lat="52.080539" lon="05.648439"><ele>-4.4</ele><time>2022-04-13T11:04:58Z</time><name>PT589</name></trkpt>
<trkpt lat="52.080552" lon="05.648448"><ele>-4.6</ele><time>2022-04-13T11:04:59Z</time><name>PT590</name></trkpt>
<trkpt lat="52.080560" lon="05.648452"><ele>-4.5</ele><time>2022-04-13T11:05:00Z</time><name>PT591</name></trkpt>
<trkpt lat="52.080566" lon="05.648458"><ele>-4.4</ele><time>2022-04-13T11:05:01Z</time><name>PT592</name></trkpt>
<trkpt lat="52.080571" lon="05.648463"><ele>-4.4</ele><time>2022-04-13T11:05:02Z</time><name>PT593</name></trkpt>
<trkpt lat="52.080575" lon="05.648471"><ele>-4.3</ele><time>2022-04-13T11:05:03Z</time><name>PT594</name></trkpt>
<trkpt lat="52.080570" lon="05.648492"><ele>-4.1</ele><time>2022-04-13T11:05:05Z</time><name>PT595</name></trkpt>
<trkpt lat="52.080579" lon="05.648506"><ele>-3.9</ele><time>2022-04-13T11:05:06Z</time><name>PT596</name></trkpt>
<trkpt lat="52.080586" lon="05.648517"><ele>-3.9</ele><time>2022-04-13T11:05:07Z</time><name>PT597</name></trkpt>
<trkpt lat="52.080588" lon="05.648526"><ele>-3.9</ele><time>2022-04-13T11:05:08Z</time><name>PT598</name></trkpt>
<trkpt lat="52.080593" lon="05.648533"><ele>-4</ele><time>2022-04-13T11:05:09Z</time><name>PT599</name></trkpt>
<trkpt lat="52.080600" lon="05.648534"><ele>-4</ele><time>2022-04-13T11:05:10Z</time><name>PT600</name></trkpt>
<trkpt lat="52.080610" lon="05.648547"><ele>-4.1</ele><time>2022-04-13T11:05:11Z</time><name>PT601</name></trkpt>
<trkpt lat="52.080626" lon="05.648564"><ele>-4.1</ele><time>2022-04-13T11:05:12Z</time><name>PT602</name></trkpt>
<trkpt lat="52.080642" lon="05.648580"><ele>-4.1</ele><time>2022-04-13T11:05:13Z</time><name>PT603</name></trkpt>
<trkpt lat="52.080652" lon="05.648592"><ele>-4</ele><time>2022-04-13T11:05:14Z</time><name>PT604</name></trkpt>
<trkpt lat="52.080656" lon="05.648594"><ele>-3.8</ele><time>2022-04-13T11:05:15Z</time><name>PT605</name></trkpt>
<trkpt lat="52.080668" lon="05.648592"><ele>-3.6</ele><time>2022-04-13T11:05:16Z</time><name>PT606</name></trkpt>
<trkpt lat="52.080676" lon="05.648589"><ele>-3.6</ele><time>2022-04-13T11:05:17Z</time><name>PT607</name></trkpt>
<trkpt lat="52.080680" lon="05.648590"><ele>-3.5</ele><time>2022-04-13T11:05:18Z</time><name>PT608</name></trkpt>
<trkpt lat="52.080689" lon="05.648582"><ele>-3.3</ele><time>2022-04-13T11:05:19Z</time><name>PT609</name></trkpt>
<trkpt lat="52.080696" lon="05.648582"><ele>-3.2</ele><time>2022-04-13T11:05:20Z</time><name>PT610</name></trkpt>
<trkpt lat="52.080704" lon="05.648583"><ele>-3.2</ele><time>2022-04-13T11:05:21Z</time><name>PT611</name></trkpt>
<trkpt lat="52.080717" lon="05.648573"><ele>-3.1</ele><time>2022-04-13T11:05:22Z</time><name>PT612</name></trkpt>
<trkpt lat="52.080728" lon="05.648568"><ele>-2.8</ele><time>2022-04-13T11:05:23Z</time><name>PT613</name></trkpt>
<trkpt lat="52.080736" lon="05.648566"><ele>-2.6</ele><time>2022-04-13T11:05:24Z</time><name>PT614</name></trkpt>
<trkpt lat="52.080744" lon="05.648571"><ele>-2.5</ele><time>2022-04-13T11:05:25Z</time><name>PT615</name></trkpt>
<trkpt lat="52.080749" lon="05.648576"><ele>-2.4</ele><time>2022-04-13T11:05:26Z</time><name>PT616</name></trkpt>
<trkpt lat="52.080754" lon="05.648573"><ele>-2.4</ele><time>2022-04-13T11:05:27Z</time><name>PT617</name></trkpt>
<trkpt lat="52.080762" lon="05.648574"><ele>-2.4</ele><time>2022-04-13T11:05:28Z</time><name>PT618</name></trkpt>
<trkpt lat="52.080769" lon="05.648582"><ele>-2.5</ele><time>2022-04-13T11:05:29Z</time><name>PT619</name></trkpt>
<trkpt lat="52.080776" lon="05.648586"><ele>-2.6</ele><time>2022-04-13T11:05:30Z</time><name>PT620</name></trkpt>
<trkpt lat="52.080779" lon="05.648589"><ele>-2.4</ele><time>2022-04-13T11:05:31Z</time><name>PT621</name></trkpt>
<trkpt lat="52.080778" lon="05.648592"><ele>-2.3</ele><time>2022-04-13T11:05:32Z</time><name>PT622</name></trkpt>
<trkpt lat="52.080784" lon="05.648598"><ele>-2.3</ele><time>2022-04-13T11:05:33Z</time><name>PT623</name></trkpt>
<trkpt lat="52.080791" lon="05.648596"><ele>-2.2</ele><time>2022-04-13T11:05:34Z</time><name>PT624</name></trkpt>
<trkpt lat="52.080805" lon="05.648598"><ele>-2</ele><time>2022-04-13T11:05:35Z</time><name>PT625</name></trkpt>
<trkpt lat="52.080829" lon="05.648597"><ele>-2</ele><time>2022-04-13T11:05:36Z</time><name>PT626</name></trkpt>
<trkpt lat="52.080845" lon="05.648598"><ele>-2</ele><time>2022-04-13T11:05:37Z</time><name>PT627</name></trkpt>
<trkpt lat="52.080850" lon="05.648599"><ele>-1.9</ele><time>2022-04-13T11:05:38Z</time><name>PT628</name></trkpt>
<trkpt lat="52.080851" lon="05.648601"><ele>-1.8</ele><time>2022-04-13T11:05:39Z</time><name>PT629</name></trkpt>
<trkpt lat="52.080866" lon="05.648597"><ele>-1.9</ele><time>2022-04-13T11:05:40Z</time><name>PT630</name></trkpt>
<trkpt lat="52.080880" lon="05.648598"><ele>-1.8</ele><time>2022-04-13T11:05:41Z</time><name>PT631</name></trkpt>
<trkpt lat="52.080892" lon="05.648585"><ele>-1.7</ele><time>2022-04-13T11:05:42Z</time><name>PT632</name></trkpt>
<trkpt lat="52.080908" lon="05.648584"><ele>-1.5</ele><time>2022-04-13T11:05:43Z</time><name>PT633</name></trkpt>
<trkpt lat="52.080921" lon="05.648582"><ele>-1.4</ele><time>2022-04-13T11:05:44Z</time><name>PT634</name></trkpt>
<trkpt lat="52.080930" lon="05.648581"><ele>-1.5</ele><time>2022-04-13T11:05:45Z</time><name>PT635</name></trkpt>
<trkpt lat="52.080939" lon="05.648585"><ele>-1.3</ele><time>2022-04-13T11:05:46Z</time><name>PT636</name></trkpt>
<trkpt lat="52.080942" lon="05.648586"><ele>-1.2</ele><time>2022-04-13T11:05:47Z</time><name>PT637</name></trkpt>
<trkpt lat="52.080950" lon="05.648581"><ele>-1.4</ele><time>2022-04-13T11:05:48Z</time><name>PT638</name></trkpt>
<trkpt lat="52.080963" lon="05.648567"><ele>-1.3</ele><time>2022-04-13T11:05:49Z</time><name>PT639</name></trkpt>
<trkpt lat="52.080974" lon="05.648564"><ele>-1.1</ele><time>2022-04-13T11:05:50Z</time><name>PT640</name></trkpt>
<trkpt lat="52.080985" lon="05.648567"><ele>-1.1</ele><time>2022-04-13T11:05:51Z</time><name>PT641</name></trkpt>
<trkpt lat="52.080988" lon="05.648572"><ele>-1.1</ele><time>2022-04-13T11:05:52Z</time><name>PT642</name></trkpt>
<trkpt lat="52.081001" lon="05.648577"><ele>-1</ele><time>2022-04-13T11:05:53Z</time><name>PT643</name></trkpt>
<trkpt lat="52.081015" lon="05.648573"><ele>0.9</ele><time>2022-04-13T11:05:54Z</time><name>PT644</name></trkpt>
<trkpt lat="52.081030" lon="05.648566"><ele>0.8</ele><time>2022-04-13T11:05:55Z</time><name>PT645</name></trkpt>
<trkpt lat="52.081038" lon="05.648564"><ele>0.7</ele><time>2022-04-13T11:05:56Z</time><name>PT646</name></trkpt>
<trkpt lat="52.081046" lon="05.648564"><ele>0.6</ele><time>2022-04-13T11:05:57Z</time><name>PT647</name></trkpt>
<trkpt lat="52.081051" lon="05.648566"><ele>0.3</ele><time>2022-04-13T11:05:58Z</time><name>PT648</name></trkpt>
<trkpt lat="52.081066" lon="05.648565"><ele>0.2</ele><time>2022-04-13T11:05:59Z</time><name>PT649</name></trkpt>
<trkpt lat="52.081084" lon="05.648552"><ele>0.1</ele><time>2022-04-13T11:06:00Z</time><name>PT650</name></trkpt>
<trkpt lat="52.081107" lon="05.648544"><ele>0.1</ele><time>2022-04-13T11:06:01Z</time><name>PT651</name></trkpt>
<trkpt lat="52.081117" lon="05.648536"><ele>0.1</ele><time>2022-04-13T11:06:02Z</time><name>PT652</name></trkpt>
<trkpt lat="52.081123" lon="05.648536"><ele>0.2</ele><time>2022-04-13T11:06:03Z</time><name>PT653</name></trkpt>
<trkpt lat="52.081129" lon="05.648535"><ele>0.3</ele><time>2022-04-13T11:06:04Z</time><name>PT654</name></trkpt>
<trkpt lat="52.081138" lon="05.648530"><ele>0.2</ele><time>2022-04-13T11:06:05Z</time><name>PT655</name></trkpt>
<trkpt lat="52.081144" lon="05.648530"><ele>0.2</ele><time>2022-04-13T11:06:06Z</time><name>PT656</name></trkpt>
<trkpt lat="52.081152" lon="05.648532"><ele>0.3</ele><time>2022-04-13T11:06:07Z</time><name>PT657</name></trkpt>
<trkpt lat="52.081164" lon="05.648533"><ele>0.1</ele><time>2022-04-13T11:06:08Z</time><name>PT658</name></trkpt>
<trkpt lat="52.081173" lon="05.648511"><ele>0.2</ele><time>2022-04-13T11:06:19Z</time><name>PT659</name></trkpt>
<trkpt lat="52.081185" lon="05.648513"><ele>0.4</ele><time>2022-04-13T11:06:20Z</time><name>PT660</name></trkpt>
<trkpt lat="52.081198" lon="05.648516"><ele>0.4</ele><time>2022-04-13T11:06:21Z</time><name>PT661</name></trkpt>
<trkpt lat="52.081209" lon="05.648515"><ele>0.8</ele><time>2022-04-13T11:06:22Z</time><name>PT662</name></trkpt>
<trkpt lat="52.081213" lon="05.648522"><ele>1</ele><time>2022-04-13T11:06:23Z</time><name>PT663</name></trkpt>
<trkpt lat="52.081218" lon="05.648534"><ele>1.3</ele><time>2022-04-13T11:06:24Z</time><name>PT664</name></trkpt>
<trkpt lat="52.081223" lon="05.648540"><ele>1.4</ele><time>2022-04-13T11:06:25Z</time><name>PT665</name></trkpt>
<trkpt lat="52.081222" lon="05.648546"><ele>1.5</ele><time>2022-04-13T11:06:26Z</time><name>PT666</name></trkpt>
<trkpt lat="52.081222" lon="05.648549"><ele>1.5</ele><time>2022-04-13T11:06:27Z</time><name>PT667</name></trkpt>
<trkpt lat="52.081224" lon="05.648555"><ele>1.6</ele><time>2022-04-13T11:06:28Z</time><name>PT668</name></trkpt>
<trkpt lat="52.081234" lon="05.648573"><ele>1.6</ele><time>2022-04-13T11:06:29Z</time><name>PT669</name></trkpt>
<trkpt lat="52.081252" lon="05.648590"><ele>1.7</ele><time>2022-04-13T11:06:30Z</time><name>PT670</name></trkpt>
<trkpt lat="52.081264" lon="05.648587"><ele>1.9</ele><time>2022-04-13T11:06:31Z</time><name>PT671</name></trkpt>
<trkpt lat="52.081279" lon="05.648593"><ele>2.1</ele><time>2022-04-13T11:06:32Z</time><name>PT672</name></trkpt>
<trkpt lat="52.081295" lon="05.648605"><ele>2.2</ele><time>2022-04-13T11:06:33Z</time><name>PT673</name></trkpt>
<trkpt lat="52.081312" lon="05.648608"><ele>2.5</ele><time>2022-04-13T11:06:34Z</time><name>PT674</name></trkpt>
<trkpt lat="52.081326" lon="05.648617"><ele>2.6</ele><time>2022-04-13T11:06:35Z</time><name>PT675</name></trkpt>
<trkpt lat="52.081336" lon="05.648621"><ele>2.9</ele><time>2022-04-13T11:06:36Z</time><name>PT676</name></trkpt>
<trkpt lat="52.081342" lon="05.648624"><ele>3.1</ele><time>2022-04-13T11:06:37Z</time><name>PT677</name></trkpt>
<trkpt lat="52.081345" lon="05.648624"><ele>3.3</ele><time>2022-04-13T11:06:38Z</time><name>PT678</name></trkpt>
<trkpt lat="52.081347" lon="05.648628"><ele>3.4</ele><time>2022-04-13T11:06:39Z</time><name>PT679</name></trkpt>
<trkpt lat="52.081350" lon="05.648633"><ele>3.5</ele><time>2022-04-13T11:06:40Z</time><name>PT680</name></trkpt>
<trkpt lat="52.081360" lon="05.648634"><ele>3.5</ele><time>2022-04-13T11:06:41Z</time><name>PT681</name></trkpt>
<trkpt lat="52.081372" lon="05.648636"><ele>3.5</ele><time>2022-04-13T11:06:42Z</time><name>PT682</name></trkpt>
<trkpt lat="52.081379" lon="05.648640"><ele>3.5</ele><time>2022-04-13T11:06:43Z</time><name>PT683</name></trkpt>
<trkpt lat="52.081386" lon="05.648643"><ele>3.5</ele><time>2022-04-13T11:06:44Z</time><name>PT684</name></trkpt>
<trkpt lat="52.081392" lon="05.648636"><ele>3.6</ele><time>2022-04-13T11:06:45Z</time><name>PT685</name></trkpt>
<trkpt lat="52.081399" lon="05.648635"><ele>3.6</ele><time>2022-04-13T11:06:46Z</time><name>PT686</name></trkpt>
<trkpt lat="52.081410" lon="05.648635"><ele>3.7</ele><time>2022-04-13T11:06:47Z</time><name>PT687</name></trkpt>
<trkpt lat="52.081413" lon="05.648632"><ele>3.8</ele><time>2022-04-13T11:06:48Z</time><name>PT688</name></trkpt>
<trkpt lat="52.081415" lon="05.648627"><ele>3.7</ele><time>2022-04-13T11:06:49Z</time><name>PT689</name></trkpt>
<trkpt lat="52.081416" lon="05.648624"><ele>3.8</ele><time>2022-04-13T11:06:50Z</time><name>PT690</name></trkpt>
<trkpt lat="52.081418" lon="05.648620"><ele>3.8</ele><time>2022-04-13T11:06:51Z</time><name>PT691</name></trkpt>
<trkpt lat="52.081417" lon="05.648622"><ele>3.8</ele><time>2022-04-13T11:06:52Z</time><name>PT692</name></trkpt>
<trkpt lat="52.081423" lon="05.648603"><ele>3.6</ele><time>2022-04-13T11:07:07Z</time><name>PT693</name></trkpt>
<trkpt lat="52.081426" lon="05.648595"><ele>3.6</ele><time>2022-04-13T11:07:08Z</time><name>PT694</name></trkpt>
<trkpt lat="52.081422" lon="05.648585"><ele>3.5</ele><time>2022-04-13T11:07:09Z</time><name>PT695</name></trkpt>
<trkpt lat="52.081425" lon="05.648575"><ele>3.5</ele><time>2022-04-13T11:07:10Z</time><name>PT696</name></trkpt>
<trkpt lat="52.081425" lon="05.648576"><ele>3.5</ele><time>2022-04-13T11:07:11Z</time><name>PT697</name></trkpt>
<trkpt lat="52.081427" lon="05.648575"><ele>3.5</ele><time>2022-04-13T11:07:12Z</time><name>PT698</name></trkpt>
<trkpt lat="52.081428" lon="05.648575"><ele>3.5</ele><time>2022-04-13T11:07:13Z</time><name>PT699</name></trkpt>
<trkpt lat="52.081430" lon="05.648579"><ele>3.6</ele><time>2022-04-13T11:07:14Z</time><name>PT700</name></trkpt>
<trkpt lat="52.081431" lon="05.648573"><ele>3.7</ele><time>2022-04-13T11:07:15Z</time><name>PT701</name></trkpt>
<trkpt lat="52.081427" lon="05.648577"><ele>3.7</ele><time>2022-04-13T11:07:16Z</time><name>PT702</name></trkpt>
<trkpt lat="52.081429" lon="05.648586"><ele>3.8</ele><time>2022-04-13T11:07:17Z</time><name>PT703</name></trkpt>
<trkpt lat="52.081438" lon="05.648576"><ele>3.8</ele><time>2022-04-13T11:07:20Z</time><name>PT704</name></trkpt>
<trkpt lat="52.081444" lon="05.648545"><ele>3.8</ele><time>2022-04-13T11:07:21Z</time><name>PT705</name></trkpt>
<trkpt lat="52.081444" lon="05.648539"><ele>3.6</ele><time>2022-04-13T11:07:22Z</time><name>PT706</name></trkpt>
<trkpt lat="52.081448" lon="05.648518"><ele>3.7</ele><time>2022-04-13T11:07:23Z</time><name>PT707</name></trkpt>
<trkpt lat="52.081451" lon="05.648493"><ele>3.4</ele><time>2022-04-13T11:07:24Z</time><name>PT708</name></trkpt>
<trkpt lat="52.081452" lon="05.648470"><ele>3.4</ele><time>2022-04-13T11:07:25Z</time><name>PT709</name></trkpt>
<trkpt lat="52.081453" lon="05.648454"><ele>3.3</ele><time>2022-04-13T11:07:26Z</time><name>PT710</name></trkpt>
<trkpt lat="52.081460" lon="05.648442"><ele>3.3</ele><time>2022-04-13T11:07:27Z</time><name>PT711</name></trkpt>
<trkpt lat="52.081460" lon="05.648433"><ele>3.3</ele><time>2022-04-13T11:07:28Z</time><name>PT712</name></trkpt>
<trkpt lat="52.081461" lon="05.648422"><ele>3.2</ele><time>2022-04-13T11:07:29Z</time><name>PT713</name></trkpt>
<trkpt lat="52.081468" lon="05.648412"><ele>3.2</ele><time>2022-04-13T11:07:30Z</time><name>PT714</name></trkpt>
<trkpt lat="52.081478" lon="05.648397"><ele>3.1</ele><time>2022-04-13T11:07:31Z</time><name>PT715</name></trkpt>
<trkpt lat="52.081483" lon="05.648380"><ele>3.1</ele><time>2022-04-13T11:07:32Z</time><name>PT716</name></trkpt>
<trkpt lat="52.081483" lon="05.648366"><ele>2.9</ele><time>2022-04-13T11:07:33Z</time><name>PT717</name></trkpt>
<trkpt lat="52.081486" lon="05.648357"><ele>2.8</ele><time>2022-04-13T11:07:34Z</time><name>PT718</name></trkpt>
<trkpt lat="52.081481" lon="05.648349"><ele>2.5</ele><time>2022-04-13T11:07:35Z</time><name>PT719</name></trkpt>
<trkpt lat="52.081488" lon="05.648333"><ele>2.6</ele><time>2022-04-13T11:07:36Z</time><name>PT720</name></trkpt>
<trkpt lat="52.081493" lon="05.648320"><ele>2.3</ele><time>2022-04-13T11:07:37Z</time><name>PT721</name></trkpt>
<trkpt lat="52.081502" lon="05.648303"><ele>2.4</ele><time>2022-04-13T11:07:38Z</time><name>PT722</name></trkpt>
<trkpt lat="52.081511" lon="05.648289"><ele>2.4</ele><time>2022-04-13T11:07:39Z</time><name>PT723</name></trkpt>
<trkpt lat="52.081518" lon="05.648274"><ele>2.4</ele><time>2022-04-13T11:07:40Z</time><name>PT724</name></trkpt>
<trkpt lat="52.081528" lon="05.648263"><ele>2.2</ele><time>2022-04-13T11:07:41Z</time><name>PT725</name></trkpt>
<trkpt lat="52.081527" lon="05.648256"><ele>2</ele><time>2022-04-13T11:07:42Z</time><name>PT726</name></trkpt>
<trkpt lat="52.081527" lon="05.648250"><ele>1.9</ele><time>2022-04-13T11:07:43Z</time><name>PT727</name></trkpt>
<trkpt lat="52.081526" lon="05.648240"><ele>1.9</ele><time>2022-04-13T11:07:44Z</time><name>PT728</name></trkpt>
<trkpt lat="52.081533" lon="05.648225"><ele>2.1</ele><time>2022-04-13T11:07:45Z</time><name>PT729</name></trkpt>
<trkpt lat="52.081537" lon="05.648205"><ele>2.1</ele><time>2022-04-13T11:07:46Z</time><name>PT730</name></trkpt>
<trkpt lat="52.081545" lon="05.648178"><ele>2.2</ele><time>2022-04-13T11:07:47Z</time><name>PT731</name></trkpt>
<trkpt lat="52.081556" lon="05.648167"><ele>2.3</ele><time>2022-04-13T11:07:48Z</time><name>PT732</name></trkpt>
<trkpt lat="52.081564" lon="05.648157"><ele>2.1</ele><time>2022-04-13T11:07:49Z</time><name>PT733</name></trkpt>
<trkpt lat="52.081567" lon="05.648146"><ele>2.1</ele><time>2022-04-13T11:07:50Z</time><name>PT734</name></trkpt>
<trkpt lat="52.081570" lon="05.648136"><ele>2</ele><time>2022-04-13T11:07:51Z</time><name>PT735</name></trkpt>
<trkpt lat="52.081580" lon="05.648126"><ele>1.8</ele><time>2022-04-13T11:07:52Z</time><name>PT736</name></trkpt>
<trkpt lat="52.081586" lon="05.648105"><ele>1.6</ele><time>2022-04-13T11:07:53Z</time><name>PT737</name></trkpt>
<trkpt lat="52.081589" lon="05.648082"><ele>1.6</ele><time>2022-04-13T11:07:54Z</time><name>PT738</name></trkpt>
<trkpt lat="52.081600" lon="05.648058"><ele>1.4</ele><time>2022-04-13T11:07:55Z</time><name>PT739</name></trkpt>
<trkpt lat="52.081603" lon="05.648041"><ele>1.2</ele><time>2022-04-13T11:07:56Z</time><name>PT740</name></trkpt>
<trkpt lat="52.081611" lon="05.648031"><ele>1.2</ele><time>2022-04-13T11:07:57Z</time><name>PT741</name></trkpt>
<trkpt lat="52.081611" lon="05.648017"><ele>1.2</ele><time>2022-04-13T11:07:58Z</time><name>PT742</name></trkpt>
<trkpt lat="52.081613" lon="05.648008"><ele>1.1</ele><time>2022-04-13T11:07:59Z</time><name>PT743</name></trkpt>
<trkpt lat="52.081619" lon="05.648000"><ele>1.1</ele><time>2022-04-13T11:08:00Z</time><name>PT744</name></trkpt>
<trkpt lat="52.081629" lon="05.647980"><ele>1.1</ele><time>2022-04-13T11:08:01Z</time><name>PT745</name></trkpt>
<trkpt lat="52.081633" lon="05.647957"><ele>0.9</ele><time>2022-04-13T11:08:02Z</time><name>PT746</name></trkpt>
<trkpt lat="52.081642" lon="05.647929"><ele>0.9</ele><time>2022-04-13T11:08:03Z</time><name>PT747</name></trkpt>
<trkpt lat="52.081648" lon="05.647919"><ele>1.1</ele><time>2022-04-13T11:08:04Z</time><name>PT748</name></trkpt>
<trkpt lat="52.081657" lon="05.647913"><ele>1</ele><time>2022-04-13T11:08:05Z</time><name>PT749</name></trkpt>
<trkpt lat="52.081666" lon="05.647898"><ele>0.9</ele><time>2022-04-13T11:08:06Z</time><name>PT750</name></trkpt>
<trkpt lat="52.081673" lon="05.647885"><ele>0.8</ele><time>2022-04-13T11:08:07Z</time><name>PT751</name></trkpt>
<trkpt lat="52.081672" lon="05.647868"><ele>0.6</ele><time>2022-04-13T11:08:08Z</time><name>PT752</name></trkpt>
<trkpt lat="52.081677" lon="05.647846"><ele>0.4</ele><time>2022-04-13T11:08:09Z</time><name>PT753</name></trkpt>
<trkpt lat="52.081693" lon="05.647826"><ele>0.5</ele><time>2022-04-13T11:08:10Z</time><name>PT754</name></trkpt>
<trkpt lat="52.081705" lon="05.647801"><ele>0.5</ele><time>2022-04-13T11:08:11Z</time><name>PT755</name></trkpt>
<trkpt lat="52.081712" lon="05.647782"><ele>0.4</ele><time>2022-04-13T11:08:12Z</time><name>PT756</name></trkpt>
<trkpt lat="52.081721" lon="05.647770"><ele>0.2</ele><time>2022-04-13T11:08:13Z</time><name>PT757</name></trkpt>
<trkpt lat="52.081726" lon="05.647765"><ele>0.3</ele><time>2022-04-13T11:08:14Z</time><name>PT758</name></trkpt>
<trkpt lat="52.081725" lon="05.647752"><ele>0.3</ele><time>2022-04-13T11:08:15Z</time><name>PT759</name></trkpt>
<trkpt lat="52.081731" lon="05.647733"><ele>0.5</ele><time>2022-04-13T11:08:16Z</time><name>PT760</name></trkpt>
<trkpt lat="52.081740" lon="05.647716"><ele>0.6</ele><time>2022-04-13T11:08:17Z</time><name>PT761</name></trkpt>
<trkpt lat="52.081755" lon="05.647700"><ele>0.6</ele><time>2022-04-13T11:08:18Z</time><name>PT762</name></trkpt>
<trkpt lat="52.081768" lon="05.647686"><ele>0.6</ele><time>2022-04-13T11:08:19Z</time><name>PT763</name></trkpt>
<trkpt lat="52.081775" lon="05.647667"><ele>0.6</ele><time>2022-04-13T11:08:20Z</time><name>PT764</name></trkpt>
<trkpt lat="52.081779" lon="05.647657"><ele>0.6</ele><time>2022-04-13T11:08:21Z</time><name>PT765</name></trkpt>
<trkpt lat="52.081786" lon="05.647649"><ele>0.6</ele><time>2022-04-13T11:08:22Z</time><name>PT766</name></trkpt>
<trkpt lat="52.081785" lon="05.647638"><ele>0.4</ele><time>2022-04-13T11:08:23Z</time><name>PT767</name></trkpt>
<trkpt lat="52.081779" lon="05.647624"><ele>0.3</ele><time>2022-04-13T11:08:24Z</time><name>PT768</name></trkpt>
<trkpt lat="52.081782" lon="05.647617"><ele>0.2</ele><time>2022-04-13T11:08:25Z</time><name>PT769</name></trkpt>
<trkpt lat="52.081783" lon="05.647626"><ele>0.3</ele><time>2022-04-13T11:08:26Z</time><name>PT770</name></trkpt>
<trkpt lat="52.081782" lon="05.647629"><ele>0.4</ele><time>2022-04-13T11:08:27Z</time><name>PT771</name></trkpt>
<trkpt lat="52.081783" lon="05.647620"><ele>0.4</ele><time>2022-04-13T11:08:28Z</time><name>PT772</name></trkpt>
<trkpt lat="52.081789" lon="05.647608"><ele>0.4</ele><time>2022-04-13T11:08:29Z</time><name>PT773</name></trkpt>
<trkpt lat="52.081790" lon="05.647597"><ele>0.4</ele><time>2022-04-13T11:08:30Z</time><name>PT774</name></trkpt>
<trkpt lat="52.081798" lon="05.647587"><ele>0.4</ele><time>2022-04-13T11:08:31Z</time><name>PT775</name></trkpt>
<trkpt lat="52.081797" lon="05.647573"><ele>0.2</ele><time>2022-04-13T11:08:32Z</time><name>PT776</name></trkpt>
<trkpt lat="52.081797" lon="05.647560"><ele>0.2</ele><time>2022-04-13T11:08:33Z</time><name>PT777</name></trkpt>
<trkpt lat="52.081801" lon="05.647548"><ele>0.1</ele><time>2022-04-13T11:08:34Z</time><name>PT778</name></trkpt>
<trkpt lat="52.081808" lon="05.647525"><ele>0.1</ele><time>2022-04-13T11:08:35Z</time><name>PT779</name></trkpt>
<trkpt lat="52.081824" lon="05.647508"><ele>0.1</ele><time>2022-04-13T11:08:36Z</time><name>PT780</name></trkpt>
<trkpt lat="52.081831" lon="05.647495"><ele>0.3</ele><time>2022-04-13T11:08:37Z</time><name>PT781</name></trkpt>
<trkpt lat="52.081847" lon="05.647485"><ele>0.2</ele><time>2022-04-13T11:08:38Z</time><name>PT782</name></trkpt>
<trkpt lat="52.081854" lon="05.647475"><ele>0.4</ele><time>2022-04-13T11:08:39Z</time><name>PT783</name></trkpt>
<trkpt lat="52.081855" lon="05.647466"><ele>0.2</ele><time>2022-04-13T11:08:40Z</time><name>PT784</name></trkpt>
<trkpt lat="52.081857" lon="05.647455"><ele>0.2</ele><time>2022-04-13T11:08:41Z</time><name>PT785</name></trkpt>
<trkpt lat="52.081854" lon="05.647441"><ele>0.3</ele><time>2022-04-13T11:08:42Z</time><name>PT786</name></trkpt>
<trkpt lat="52.081863" lon="05.647425"><ele>0.4</ele><time>2022-04-13T11:08:43Z</time><name>PT787</name></trkpt>
<trkpt lat="52.081866" lon="05.647407"><ele>0.1</ele><time>2022-04-13T11:08:44Z</time><name>PT788</name></trkpt>
<trkpt lat="52.081873" lon="05.647383"><ele>0.1</ele><time>2022-04-13T11:08:45Z</time><name>PT789</name></trkpt>
<trkpt lat="52.081888" lon="05.647360"><ele>0</ele><time>2022-04-13T11:08:46Z</time><name>PT790</name></trkpt>
<trkpt lat="52.081898" lon="05.647350"><ele>0</ele><time>2022-04-13T11:08:47Z</time><name>PT791</name></trkpt>
<trkpt lat="52.081901" lon="05.647335"><ele>0</ele><time>2022-04-13T11:08:48Z</time><name>PT792</name></trkpt>
<trkpt lat="52.081900" lon="05.647325"><ele>0.1</ele><time>2022-04-13T11:08:49Z</time><name>PT793</name></trkpt>
<trkpt lat="52.081901" lon="05.647309"><ele>0</ele><time>2022-04-13T11:08:50Z</time><name>PT794</name></trkpt>
<trkpt lat="52.081900" lon="05.647292"><ele>0</ele><time>2022-04-13T11:08:51Z</time><name>PT795</name></trkpt>
<trkpt lat="52.081914" lon="05.647265"><ele>0</ele><time>2022-04-13T11:08:52Z</time><name>PT796</name></trkpt>
<trkpt lat="52.081929" lon="05.647247"><ele>0</ele><time>2022-04-13T11:08:53Z</time><name>PT797</name></trkpt>
<trkpt lat="52.081940" lon="05.647234"><ele>0</ele><time>2022-04-13T11:08:54Z</time><name>PT798</name></trkpt>
<trkpt lat="52.081949" lon="05.647218"><ele>0</ele><time>2022-04-13T11:08:55Z</time><name>PT799</name></trkpt>
<trkpt lat="52.081949" lon="05.647209"><ele>0</ele><time>2022-04-13T11:08:56Z</time><name>PT800</name></trkpt>
<trkpt lat="52.081953" lon="05.647200"><ele>0</ele><time>2022-04-13T11:08:57Z</time><name>PT801</name></trkpt>
<trkpt lat="52.081956" lon="05.647188"><ele>0.1</ele><time>2022-04-13T11:08:58Z</time><name>PT802</name></trkpt>
<trkpt lat="52.081967" lon="05.647177"><ele>0.1</ele><time>2022-04-13T11:08:59Z</time><name>PT803</name></trkpt>
<trkpt lat="52.081977" lon="05.647155"><ele>0.1</ele><time>2022-04-13T11:09:00Z</time><name>PT804</name></trkpt>
<trkpt lat="52.081993" lon="05.647139"><ele>0.2</ele><time>2022-04-13T11:09:01Z</time><name>PT805</name></trkpt>
<trkpt lat="52.082000" lon="05.647122"><ele>0.2</ele><time>2022-04-13T11:09:02Z</time><name>PT806</name></trkpt>
<trkpt lat="52.082006" lon="05.647110"><ele>0.4</ele><time>2022-04-13T11:09:03Z</time><name>PT807</name></trkpt>
<trkpt lat="52.082016" lon="05.647100"><ele>0.6</ele><time>2022-04-13T11:09:04Z</time><name>PT808</name></trkpt>
<trkpt lat="52.082023" lon="05.647090"><ele>0.6</ele><time>2022-04-13T11:09:05Z</time><name>PT809</name></trkpt>
<trkpt lat="52.082031" lon="05.647083"><ele>0.3</ele><time>2022-04-13T11:09:06Z</time><name>PT810</name></trkpt>
<trkpt lat="52.082037" lon="05.647071"><ele>0.3</ele><time>2022-04-13T11:09:07Z</time><name>PT811</name></trkpt>
<trkpt lat="52.082051" lon="05.647063"><ele>0.3</ele><time>2022-04-13T11:09:08Z</time><name>PT812</name></trkpt>
<trkpt lat="52.082054" lon="05.647064"><ele>0.2</ele><time>2022-04-13T11:09:09Z</time><name>PT813</name></trkpt>
<trkpt lat="52.082058" lon="05.647060"><ele>0.2</ele><time>2022-04-13T11:09:10Z</time><name>PT814</name></trkpt>
<trkpt lat="52.082066" lon="05.647060"><ele>0.3</ele><time>2022-04-13T11:09:11Z</time><name>PT815</name></trkpt>
<trkpt lat="52.082070" lon="05.647063"><ele>0.3</ele><time>2022-04-13T11:09:12Z</time><name>PT816</name></trkpt>
<trkpt lat="52.082071" lon="05.647068"><ele>0.1</ele><time>2022-04-13T11:09:13Z</time><name>PT817</name></trkpt>
<trkpt lat="52.082079" lon="05.647070"><ele>0.1</ele><time>2022-04-13T11:09:14Z</time><name>PT818</name></trkpt>
<trkpt lat="52.082091" lon="05.647066"><ele>0</ele><time>2022-04-13T11:09:15Z</time><name>PT819</name></trkpt>
<trkpt lat="52.082100" lon="05.647071"><ele>0.1</ele><time>2022-04-13T11:09:16Z</time><name>PT820</name></trkpt>
<trkpt lat="52.082106" lon="05.647080"><ele>0</ele><time>2022-04-13T11:09:17Z</time><name>PT821</name></trkpt>
<trkpt lat="52.082115" lon="05.647093"><ele>0</ele><time>2022-04-13T11:09:18Z</time><name>PT822</name></trkpt>
<trkpt lat="52.082121" lon="05.647105"><ele>0</ele><time>2022-04-13T11:09:19Z</time><name>PT823</name></trkpt>
<trkpt lat="52.082127" lon="05.647100"><ele>0.1</ele><time>2022-04-13T11:09:20Z</time><name>PT824</name></trkpt>
<trkpt lat="52.082134" lon="05.647093"><ele>0.3</ele><time>2022-04-13T11:09:21Z</time><name>PT825</name></trkpt>
<trkpt lat="52.082136" lon="05.647089"><ele>0.5</ele><time>2022-04-13T11:09:22Z</time><name>PT826</name></trkpt>
<trkpt lat="52.082137" lon="05.647092"><ele>0.5</ele><time>2022-04-13T11:09:23Z</time><name>PT827</name></trkpt>
<trkpt lat="52.082140" lon="05.647095"><ele>0.8</ele><time>2022-04-13T11:09:24Z</time><name>PT828</name></trkpt>
<trkpt lat="52.082158" lon="05.647108"><ele>0.9</ele><time>2022-04-13T11:09:37Z</time><name>PT829</name></trkpt>
<trkpt lat="52.082169" lon="05.647109"><ele>1</ele><time>2022-04-13T11:09:38Z</time><name>PT830</name></trkpt>
<trkpt lat="52.082171" lon="05.647115"><ele>0.8</ele><time>2022-04-13T11:09:39Z</time><name>PT831</name></trkpt>
<trkpt lat="52.082177" lon="05.647122"><ele>1</ele><time>2022-04-13T11:09:40Z</time><name>PT832</name></trkpt>
<trkpt lat="52.082186" lon="05.647133"><ele>1.1</ele><time>2022-04-13T11:09:41Z</time><name>PT833</name></trkpt>
<trkpt lat="52.082197" lon="05.647147"><ele>1.1</ele><time>2022-04-13T11:09:42Z</time><name>PT834</name></trkpt>
<trkpt lat="52.082201" lon="05.647156"><ele>1.3</ele><time>2022-04-13T11:09:43Z</time><name>PT835</name></trkpt>
<trkpt lat="52.082200" lon="05.647161"><ele>1.4</ele><time>2022-04-13T11:09:44Z</time><name>PT836</name></trkpt>
<trkpt lat="52.082201" lon="05.647168"><ele>1.5</ele><time>2022-04-13T11:09:45Z</time><name>PT837</name></trkpt>
<trkpt lat="52.082204" lon="05.647168"><ele>1.8</ele><time>2022-04-13T11:09:54Z</time><name>PT838</name></trkpt>
<trkpt lat="52.082210" lon="05.647186"><ele>1.8</ele><time>2022-04-13T11:09:55Z</time><name>PT839</name></trkpt>
<trkpt lat="52.082214" lon="05.647202"><ele>1.7</ele><time>2022-04-13T11:09:56Z</time><name>PT840</name></trkpt>
<trkpt lat="52.082221" lon="05.647213"><ele>1.6</ele><time>2022-04-13T11:09:57Z</time><name>PT841</name></trkpt>
<trkpt lat="52.082228" lon="05.647227"><ele>1.6</ele><time>2022-04-13T11:09:58Z</time><name>PT842</name></trkpt>
<trkpt lat="52.082233" lon="05.647234"><ele>1.7</ele><time>2022-04-13T11:09:59Z</time><name>PT843</name></trkpt>
<trkpt lat="52.082241" lon="05.647237"><ele>1.6</ele><time>2022-04-13T11:10:00Z</time><name>PT844</name></trkpt>
<trkpt lat="52.082248" lon="05.647242"><ele>1.9</ele><time>2022-04-13T11:10:01Z</time><name>PT845</name></trkpt>
<trkpt lat="52.082254" lon="05.647246"><ele>2.1</ele><time>2022-04-13T11:10:02Z</time><name>PT846</name></trkpt>
<trkpt lat="52.082260" lon="05.647257"><ele>2.2</ele><time>2022-04-13T11:10:03Z</time><name>PT847</name></trkpt>
<trkpt lat="52.082261" lon="05.647264"><ele>2.3</ele><time>2022-04-13T11:10:04Z</time><name>PT848</name></trkpt>
<trkpt lat="52.082268" lon="05.647269"><ele>2.3</ele><time>2022-04-13T11:10:05Z</time><name>PT849</name></trkpt>
<trkpt lat="52.082279" lon="05.647272"><ele>2.5</ele><time>2022-04-13T11:10:06Z</time><name>PT850</name></trkpt>
<trkpt lat="52.082286" lon="05.647278"><ele>2.6</ele><time>2022-04-13T11:10:07Z</time><name>PT851</name></trkpt>
<trkpt lat="52.082294" lon="05.647287"><ele>2.7</ele><time>2022-04-13T11:10:08Z</time><name>PT852</name></trkpt>
<trkpt lat="52.082305" lon="05.647297"><ele>2.9</ele><time>2022-04-13T11:10:09Z</time><name>PT853</name></trkpt>
<trkpt lat="52.082316" lon="05.647302"><ele>3</ele><time>2022-04-13T11:10:10Z</time><name>PT854</name></trkpt>
<trkpt lat="52.082324" lon="05.647312"><ele>3.1</ele><time>2022-04-13T11:10:11Z</time><name>PT855</name></trkpt>
<trkpt lat="52.082334" lon="05.647320"><ele>3.3</ele><time>2022-04-13T11:10:12Z</time><name>PT856</name></trkpt>
<trkpt lat="52.082341" lon="05.647325"><ele>3.5</ele><time>2022-04-13T11:10:13Z</time><name>PT857</name></trkpt>
<trkpt lat="52.082343" lon="05.647332"><ele>3.5</ele><time>2022-04-13T11:10:14Z</time><name>PT858</name></trkpt>
<trkpt lat="52.082345" lon="05.647335"><ele>3.8</ele><time>2022-04-13T11:10:15Z</time><name>PT859</name></trkpt>
<trkpt lat="52.082344" lon="05.647338"><ele>3.7</ele><time>2022-04-13T11:10:16Z</time><name>PT860</name></trkpt>
<trkpt lat="52.082345" lon="05.647340"><ele>4</ele><time>2022-04-13T11:10:17Z</time><name>PT861</name></trkpt>
<trkpt lat="52.082348" lon="05.647341"><ele>4.1</ele><time>2022-04-13T11:10:18Z</time><name>PT862</name></trkpt>
<trkpt lat="52.082350" lon="05.647354"><ele>4.3</ele><time>2022-04-13T11:10:20Z</time><name>PT863</name></trkpt>
<trkpt lat="52.082355" lon="05.647374"><ele>4.5</ele><time>2022-04-13T11:10:21Z</time><name>PT864</name></trkpt>
<trkpt lat="52.082362" lon="05.647383"><ele>4.4</ele><time>2022-04-13T11:10:22Z</time><name>PT865</name></trkpt>
<trkpt lat="52.082365" lon="05.647393"><ele>4.5</ele><time>2022-04-13T11:10:23Z</time><name>PT866</name></trkpt>
<trkpt lat="52.082376" lon="05.647393"><ele>4.7</ele><time>2022-04-13T11:10:24Z</time><name>PT867</name></trkpt>
<trkpt lat="52.082383" lon="05.647397"><ele>5</ele><time>2022-04-13T11:10:25Z</time><name>PT868</name></trkpt>
<trkpt lat="52.082398" lon="05.647399"><ele>5.2</ele><time>2022-04-13T11:10:26Z</time><name>PT869</name></trkpt>
<trkpt lat="52.082404" lon="05.647404"><ele>5.5</ele><time>2022-04-13T11:10:27Z</time><name>PT870</name></trkpt>
<trkpt lat="52.082412" lon="05.647413"><ele>5.8</ele><time>2022-04-13T11:10:28Z</time><name>PT871</name></trkpt>
<trkpt lat="52.082424" lon="05.647436"><ele>5.9</ele><time>2022-04-13T11:10:29Z</time><name>PT872</name></trkpt>
<trkpt lat="52.082429" lon="05.647446"><ele>6</ele><time>2022-04-13T11:10:30Z</time><name>PT873</name></trkpt>
<trkpt lat="52.082433" lon="05.647454"><ele>6.2</ele><time>2022-04-13T11:10:31Z</time><name>PT874</name></trkpt>
<trkpt lat="52.082436" lon="05.647461"><ele>6.2</ele><time>2022-04-13T11:10:32Z</time><name>PT875</name></trkpt>
<trkpt lat="52.082441" lon="05.647469"><ele>6.4</ele><time>2022-04-13T11:10:33Z</time><name>PT876</name></trkpt>
<trkpt lat="52.082446" lon="05.647481"><ele>6.9</ele><time>2022-04-13T11:10:49Z</time><name>PT877</name></trkpt>
<trkpt lat="52.082457" lon="05.647493"><ele>7</ele><time>2022-04-13T11:10:50Z</time><name>PT878</name></trkpt>
<trkpt lat="52.082473" lon="05.647495"><ele>7.3</ele><time>2022-04-13T11:10:51Z</time><name>PT879</name></trkpt>
<trkpt lat="52.082482" lon="05.647516"><ele>7.4</ele><time>2022-04-13T11:10:52Z</time><name>PT880</name></trkpt>
<trkpt lat="52.082489" lon="05.647522"><ele>7.7</ele><time>2022-04-13T11:10:53Z</time><name>PT881</name></trkpt>
<trkpt lat="52.082491" lon="05.647531"><ele>7.9</ele><time>2022-04-13T11:10:54Z</time><name>PT882</name></trkpt>
<trkpt lat="52.082493" lon="05.647537"><ele>7.9</ele><time>2022-04-13T11:10:55Z</time><name>PT883</name></trkpt>
<trkpt lat="52.082498" lon="05.647556"><ele>8.1</ele><time>2022-04-13T11:10:57Z</time><name>PT884</name></trkpt>
<trkpt lat="52.082504" lon="05.647575"><ele>8.1</ele><time>2022-04-13T11:10:58Z</time><name>PT885</name></trkpt>
<trkpt lat="52.082509" lon="05.647593"><ele>8.2</ele><time>2022-04-13T11:10:59Z</time><name>PT886</name></trkpt>
<trkpt lat="52.082516" lon="05.647589"><ele>8.3</ele><time>2022-04-13T11:11:00Z</time><name>PT887</name></trkpt>
<trkpt lat="52.082527" lon="05.647606"><ele>8.4</ele><time>2022-04-13T11:11:01Z</time><name>PT888</name></trkpt>
<trkpt lat="52.082532" lon="05.647613"><ele>8.6</ele><time>2022-04-13T11:11:02Z</time><name>PT889</name></trkpt>
<trkpt lat="52.082538" lon="05.647619"><ele>8.8</ele><time>2022-04-13T11:11:03Z</time><name>PT890</name></trkpt>
<trkpt lat="52.082545" lon="05.647631"><ele>8.9</ele><time>2022-04-13T11:11:04Z</time><name>PT891</name></trkpt>
<trkpt lat="52.082550" lon="05.647641"><ele>9</ele><time>2022-04-13T11:11:05Z</time><name>PT892</name></trkpt>
<trkpt lat="52.082560" lon="05.647651"><ele>9</ele><time>2022-04-13T11:11:06Z</time><name>PT893</name></trkpt>
<trkpt lat="52.082562" lon="05.647663"><ele>9.4</ele><time>2022-04-13T11:11:07Z</time><name>PT894</name></trkpt>
<trkpt lat="52.082565" lon="05.647672"><ele>9.6</ele><time>2022-04-13T11:11:08Z</time><name>PT895</name></trkpt>
<trkpt lat="52.082573" lon="05.647682"><ele>10</ele><time>2022-04-13T11:11:09Z</time><name>PT896</name></trkpt>
<trkpt lat="52.082587" lon="05.647688"><ele>10</ele><time>2022-04-13T11:11:10Z</time><name>PT897</name></trkpt>
<trkpt lat="52.082591" lon="05.647692"><ele>10.4</ele><time>2022-04-13T11:11:11Z</time><name>PT898</name></trkpt>
<trkpt lat="52.082594" lon="05.647701"><ele>10.5</ele><time>2022-04-13T11:11:12Z</time><name>PT899</name></trkpt>
<trkpt lat="52.082604" lon="05.647709"><ele>10.5</ele><time>2022-04-13T11:11:13Z</time><name>PT900</name></trkpt>
<trkpt lat="52.082616" lon="05.647712"><ele>10.5</ele><time>2022-04-13T11:11:14Z</time><name>PT901</name></trkpt>
<trkpt lat="52.082636" lon="05.647723"><ele>10.8</ele><time>2022-04-13T11:11:15Z</time><name>PT902</name></trkpt>
<trkpt lat="52.082654" lon="05.647741"><ele>10.8</ele><time>2022-04-13T11:11:16Z</time><name>PT903</name></trkpt>
<trkpt lat="52.082664" lon="05.647751"><ele>10.9</ele><time>2022-04-13T11:11:17Z</time><name>PT904</name></trkpt>
<trkpt lat="52.082678" lon="05.647762"><ele>11.2</ele><time>2022-04-13T11:11:18Z</time><name>PT905</name></trkpt>
<trkpt lat="52.082683" lon="05.647768"><ele>11.4</ele><time>2022-04-13T11:11:19Z</time><name>PT906</name></trkpt>
<trkpt lat="52.082695" lon="05.647775"><ele>11.5</ele><time>2022-04-13T11:11:20Z</time><name>PT907</name></trkpt>
<trkpt lat="52.082707" lon="05.647781"><ele>11.4</ele><time>2022-04-13T11:11:21Z</time><name>PT908</name></trkpt>
<trkpt lat="52.082719" lon="05.647793"><ele>11.5</ele><time>2022-04-13T11:11:22Z</time><name>PT909</name></trkpt>
<trkpt lat="52.082734" lon="05.647808"><ele>11.4</ele><time>2022-04-13T11:11:23Z</time><name>PT910</name></trkpt>
<trkpt lat="52.082745" lon="05.647818"><ele>11.7</ele><time>2022-04-13T11:11:24Z</time><name>PT911</name></trkpt>
<trkpt lat="52.082759" lon="05.647829"><ele>11.7</ele><time>2022-04-13T11:11:25Z</time><name>PT912</name></trkpt>
<trkpt lat="52.082769" lon="05.647840"><ele>12.1</ele><time>2022-04-13T11:11:26Z</time><name>PT913</name></trkpt>
<trkpt lat="52.082778" lon="05.647851"><ele>12.2</ele><time>2022-04-13T11:11:27Z</time><name>PT914</name></trkpt>
<trkpt lat="52.082784" lon="05.647862"><ele>12.4</ele><time>2022-04-13T11:11:28Z</time><name>PT915</name></trkpt>
<trkpt lat="52.082790" lon="05.647873"><ele>12.5</ele><time>2022-04-13T11:11:29Z</time><name>PT916</name></trkpt>
<trkpt lat="52.082796" lon="05.647886"><ele>12.6</ele><time>2022-04-13T11:11:30Z</time><name>PT917</name></trkpt>
<trkpt lat="52.082803" lon="05.647901"><ele>12.6</ele><time>2022-04-13T11:11:31Z</time><name>PT918</name></trkpt>
<trkpt lat="52.082807" lon="05.647915"><ele>12.8</ele><time>2022-04-13T11:11:32Z</time><name>PT919</name></trkpt>
<trkpt lat="52.082810" lon="05.647927"><ele>13</ele><time>2022-04-13T11:11:33Z</time><name>PT920</name></trkpt>
<trkpt lat="52.082812" lon="05.647940"><ele>13.1</ele><time>2022-04-13T11:11:34Z</time><name>PT921</name></trkpt>
<trkpt lat="52.082816" lon="05.647955"><ele>13.2</ele><time>2022-04-13T11:11:35Z</time><name>PT922</name></trkpt>
<trkpt lat="52.082823" lon="05.647969"><ele>13.3</ele><time>2022-04-13T11:11:36Z</time><name>PT923</name></trkpt>
<trkpt lat="52.082827" lon="05.647982"><ele>13.5</ele><time>2022-04-13T11:11:37Z</time><name>PT924</name></trkpt>
<trkpt lat="52.082830" lon="05.647995"><ele>13.5</ele><time>2022-04-13T11:11:38Z</time><name>PT925</name></trkpt>
<trkpt lat="52.082835" lon="05.648012"><ele>13.7</ele><time>2022-04-13T11:11:39Z</time><name>PT926</name></trkpt>
<trkpt lat="52.082835" lon="05.648029"><ele>13.8</ele><time>2022-04-13T11:11:40Z</time><name>PT927</name></trkpt>
<trkpt lat="52.082838" lon="05.648047"><ele>13.9</ele><time>2022-04-13T11:11:41Z</time><name>PT928</name></trkpt>
<trkpt lat="52.082839" lon="05.648062"><ele>13.9</ele><time>2022-04-13T11:11:42Z</time><name>PT929</name></trkpt>
<trkpt lat="52.082838" lon="05.648076"><ele>14.2</ele><time>2022-04-13T11:11:43Z</time><name>PT930</name></trkpt>
<trkpt lat="52.082839" lon="05.648091"><ele>14.2</ele><time>2022-04-13T11:11:44Z</time><name>PT931</name></trkpt>
<trkpt lat="52.082840" lon="05.648105"><ele>14.3</ele><time>2022-04-13T11:11:45Z</time><name>PT932</name></trkpt>
<trkpt lat="52.082841" lon="05.648113"><ele>14.3</ele><time>2022-04-13T11:11:46Z</time><name>PT933</name></trkpt>
<trkpt lat="52.082843" lon="05.648121"><ele>14.2</ele><time>2022-04-13T11:11:47Z</time><name>PT934</name></trkpt>
<trkpt lat="52.082844" lon="05.648119"><ele>14.2</ele><time>2022-04-13T11:11:48Z</time><name>PT935</name></trkpt>
<trkpt lat="52.082845" lon="05.648122"><ele>14.1</ele><time>2022-04-13T11:11:49Z</time><name>PT936</name></trkpt>
<trkpt lat="52.082846" lon="05.648125"><ele>14</ele><time>2022-04-13T11:11:50Z</time><name>PT937</name></trkpt>
<trkpt lat="52.082846" lon="05.648129"><ele>14</ele><time>2022-04-13T11:11:51Z</time><name>PT938</name></trkpt>
<trkpt lat="52.082847" lon="05.648133"><ele>14</ele><time>2022-04-13T11:11:55Z</time><name>PT939</name></trkpt>
<trkpt lat="52.082845" lon="05.648130"><ele>14</ele><time>2022-04-13T11:11:56Z</time><name>PT940</name></trkpt>
<trkpt lat="52.082846" lon="05.648137"><ele>13.8</ele><time>2022-04-13T11:11:57Z</time><name>PT941</name></trkpt>
<trkpt lat="52.082847" lon="05.648147"><ele>13.8</ele><time>2022-04-13T11:11:58Z</time><name>PT942</name></trkpt>
<trkpt lat="52.082847" lon="05.648154"><ele>13.7</ele><time>2022-04-13T11:11:59Z</time><name>PT943</name></trkpt>
<trkpt lat="52.082852" lon="05.648173"><ele>13.8</ele><time>2022-04-13T11:12:11Z</time><name>PT944</name></trkpt>
<trkpt lat="52.082853" lon="05.648192"><ele>13.8</ele><time>2022-04-13T11:12:12Z</time><name>PT945</name></trkpt>
<trkpt lat="52.082851" lon="05.648207"><ele>13.8</ele><time>2022-04-13T11:12:13Z</time><name>PT946</name></trkpt>
<trkpt lat="52.082850" lon="05.648219"><ele>14.2</ele><time>2022-04-13T11:12:14Z</time><name>PT947</name></trkpt>
<trkpt lat="52.082853" lon="05.648235"><ele>14.4</ele><time>2022-04-13T11:12:15Z</time><name>PT948</name></trkpt>
<trkpt lat="52.082856" lon="05.648246"><ele>14.2</ele><time>2022-04-13T11:12:16Z</time><name>PT949</name></trkpt>
<trkpt lat="52.082857" lon="05.648249"><ele>14.1</ele><time>2022-04-13T11:12:17Z</time><name>PT950</name></trkpt>
<trkpt lat="52.082858" lon="05.648252"><ele>14.1</ele><time>2022-04-13T11:12:18Z</time><name>PT951</name></trkpt>
<trkpt lat="52.082855" lon="05.648245"><ele>13.9</ele><time>2022-04-13T11:12:19Z</time><name>PT952</name></trkpt>
<trkpt lat="52.082853" lon="05.648249"><ele>13.8</ele><time>2022-04-13T11:12:20Z</time><name>PT953</name></trkpt>
<trkpt lat="52.082855" lon="05.648258"><ele>13.9</ele><time>2022-04-13T11:12:21Z</time><name>PT954</name></trkpt>
<trkpt lat="52.082857" lon="05.648267"><ele>13.9</ele><time>2022-04-13T11:12:22Z</time><name>PT955</name></trkpt>
<trkpt lat="52.082859" lon="05.648270"><ele>13.9</ele><time>2022-04-13T11:12:23Z</time><name>PT956</name></trkpt>
<trkpt lat="52.082859" lon="05.648271"><ele>13.8</ele><time>2022-04-13T11:12:24Z</time><name>PT957</name></trkpt>
<trkpt lat="52.082859" lon="05.648273"><ele>14</ele><time>2022-04-13T11:12:25Z</time><name>PT958</name></trkpt>
<trkpt lat="52.082859" lon="05.648274"><ele>14.1</ele><time>2022-04-13T11:12:26Z</time><name>PT959</name></trkpt>
<trkpt lat="52.082859" lon="05.648288"><ele>14.2</ele><time>2022-04-13T11:12:33Z</time><name>PT960</name></trkpt>
<trkpt lat="52.082858" lon="05.648292"><ele>14.1</ele><time>2022-04-13T11:12:34Z</time><name>PT961</name></trkpt>
<trkpt lat="52.082856" lon="05.648298"><ele>14</ele><time>2022-04-13T11:12:35Z</time><name>PT962</name></trkpt>
<trkpt lat="52.082858" lon="05.648305"><ele>14.1</ele><time>2022-04-13T11:12:59Z</time><name>PT963</name></trkpt>
<trkpt lat="52.082860" lon="05.648311"><ele>14.2</ele><time>2022-04-13T11:13:00Z</time><name>PT964</name></trkpt>
<trkpt lat="52.082861" lon="05.648321"><ele>14.1</ele><time>2022-04-13T11:13:01Z</time><name>PT965</name></trkpt>
<trkpt lat="52.082858" lon="05.648301"><ele>14.1</ele><time>2022-04-13T11:13:30Z</time><name>PT966</name></trkpt>
<trkpt lat="52.082857" lon="05.648296"><ele>14.3</ele><time>2022-04-13T11:13:31Z</time><name>PT967</name></trkpt>
<trkpt lat="52.082859" lon="05.648284"><ele>14.3</ele><time>2022-04-13T11:13:32Z</time><name>PT968</name></trkpt>
<trkpt lat="52.082860" lon="05.648284"><ele>14.4</ele><time>2022-04-13T11:13:33Z</time><name>PT969</name></trkpt>
<trkpt lat="52.082868" lon="05.648297"><ele>14.3</ele><time>2022-04-13T11:13:34Z</time><name>PT970</name></trkpt>
<trkpt lat="52.082878" lon="05.648308"><ele>14.3</ele><time>2022-04-13T11:13:35Z</time><name>PT971</name></trkpt>
<trkpt lat="52.082887" lon="05.648316"><ele>14.2</ele><time>2022-04-13T11:13:36Z</time><name>PT972</name></trkpt>
<trkpt lat="52.082890" lon="05.648319"><ele>14.2</ele><time>2022-04-13T11:13:37Z</time><name>PT973</name></trkpt>
<trkpt lat="52.082892" lon="05.648324"><ele>14.2</ele><time>2022-04-13T11:13:38Z</time><name>PT974</name></trkpt>
<trkpt lat="52.082898" lon="05.648322"><ele>14.3</ele><time>2022-04-13T11:13:39Z</time><name>PT975</name></trkpt>
<trkpt lat="52.082906" lon="05.648330"><ele>14.3</ele><time>2022-04-13T11:13:40Z</time><name>PT976</name></trkpt>
<trkpt lat="52.082916" lon="05.648340"><ele>14.3</ele><time>2022-04-13T11:13:41Z</time><name>PT977</name></trkpt>
<trkpt lat="52.082919" lon="05.648356"><ele>14.3</ele><time>2022-04-13T11:13:42Z</time><name>PT978</name></trkpt>
<trkpt lat="52.082925" lon="05.648366"><ele>14.2</ele><time>2022-04-13T11:13:43Z</time><name>PT979</name></trkpt>
<trkpt lat="52.082933" lon="05.648380"><ele>14.2</ele><time>2022-04-13T11:13:44Z</time><name>PT980</name></trkpt>
<trkpt lat="52.082940" lon="05.648394"><ele>14.2</ele><time>2022-04-13T11:13:45Z</time><name>PT981</name></trkpt>
<trkpt lat="52.082943" lon="05.648402"><ele>14.4</ele><time>2022-04-13T11:13:46Z</time><name>PT982</name></trkpt>
<trkpt lat="52.082946" lon="05.648411"><ele>14.5</ele><time>2022-04-13T11:13:47Z</time><name>PT983</name></trkpt>
<trkpt lat="52.082950" lon="05.648414"><ele>14.5</ele><time>2022-04-13T11:13:48Z</time><name>PT984</name></trkpt>
<trkpt lat="52.082956" lon="05.648424"><ele>14.4</ele><time>2022-04-13T11:13:49Z</time><name>PT985</name></trkpt>
<trkpt lat="52.082955" lon="05.648433"><ele>14.6</ele><time>2022-04-13T11:13:50Z</time><name>PT986</name></trkpt>
<trkpt lat="52.082953" lon="05.648447"><ele>14.5</ele><time>2022-04-13T11:13:51Z</time><name>PT987</name></trkpt>
<trkpt lat="52.082953" lon="05.648451"><ele>14.5</ele><time>2022-04-13T11:13:52Z</time><name>PT988</name></trkpt>
<trkpt lat="52.082950" lon="05.648450"><ele>14.5</ele><time>2022-04-13T11:13:53Z</time><name>PT989</name></trkpt>
<trkpt lat="52.082947" lon="05.648450"><ele>14.5</ele><time>2022-04-13T11:13:54Z</time><name>PT990</name></trkpt>
<trkpt lat="52.082947" lon="05.648453"><ele>14.3</ele><time>2022-04-13T11:13:55Z</time><name>PT991</name></trkpt>
<trkpt lat="52.082947" lon="05.648452"><ele>14.3</ele><time>2022-04-13T11:13:56Z</time><name>PT992</name></trkpt>
<trkpt lat="52.082941" lon="05.648454"><ele>14.1</ele><time>2022-04-13T11:14:32Z</time><name>PT993</name></trkpt>
<trkpt lat="52.082938" lon="05.648460"><ele>14.1</ele><time>2022-04-13T11:14:33Z</time><name>PT994</name></trkpt>
<trkpt lat="52.082938" lon="05.648465"><ele>14.2</ele><time>2022-04-13T11:14:34Z</time><name>PT995</name></trkpt>
<trkpt lat="52.082936" lon="05.648472"><ele>14.3</ele><time>2022-04-13T11:14:35Z</time><name>PT996</name></trkpt>
<trkpt lat="52.082934" lon="05.648490"><ele>14.4</ele><time>2022-04-13T11:14:36Z</time><name>PT997</name></trkpt>
<trkpt lat="52.082934" lon="05.648514"><ele>14.4</ele><time>2022-04-13T11:14:37Z</time><name>PT998</name></trkpt>
<trkpt lat="52.082932" lon="05.648525"><ele>14.4</ele><time>2022-04-13T11:14:38Z</time><name>PT999</name></trkpt>
<trkpt lat="52.082928" lon="05.648531"><ele>14.3</ele><time>2022-04-13T11:14:39Z</time><name>PT1000</name></trkpt>
<trkpt lat="52.082926" lon="05.648545"><ele>14.2</ele><time>2022-04-13T11:14:40Z</time><name>PT1001</name></trkpt>
<trkpt lat="52.082927" lon="05.648566"><ele>14.2</ele><time>2022-04-13T11:14:41Z</time><name>PT1002</name></trkpt>
<trkpt lat="52.082923" lon="05.648581"><ele>14.2</ele><time>2022-04-13T11:14:42Z</time><name>PT1003</name></trkpt>
<trkpt lat="52.082921" lon="05.648593"><ele>14.2</ele><time>2022-04-13T11:14:43Z</time><name>PT1004</name></trkpt>
<trkpt lat="52.082922" lon="05.648601"><ele>14.2</ele><time>2022-04-13T11:14:44Z</time><name>PT1005</name></trkpt>
<trkpt lat="52.082918" lon="05.648609"><ele>14.2</ele><time>2022-04-13T11:14:45Z</time><name>PT1006</name></trkpt>
<trkpt lat="52.082918" lon="05.648626"><ele>14.1</ele><time>2022-04-13T11:14:46Z</time><name>PT1007</name></trkpt>
<trkpt lat="52.082917" lon="05.648651"><ele>13.9</ele><time>2022-04-13T11:14:47Z</time><name>PT1008</name></trkpt>
<trkpt lat="52.082912" lon="05.648673"><ele>13.8</ele><time>2022-04-13T11:14:48Z</time><name>PT1009</name></trkpt>
<trkpt lat="52.082910" lon="05.648681"><ele>13.8</ele><time>2022-04-13T11:14:49Z</time><name>PT1010</name></trkpt>
<trkpt lat="52.082910" lon="05.648687"><ele>13.8</ele><time>2022-04-13T11:14:50Z</time><name>PT1011</name></trkpt>
<trkpt lat="52.082912" lon="05.648691"><ele>13.7</ele><time>2022-04-13T11:14:51Z</time><name>PT1012</name></trkpt>
<trkpt lat="52.082911" lon="05.648709"><ele>13.9</ele><time>2022-04-13T11:14:52Z</time><name>PT1013</name></trkpt>
<trkpt lat="52.082909" lon="05.648733"><ele>13.8</ele><time>2022-04-13T11:14:53Z</time><name>PT1014</name></trkpt>
<trkpt lat="52.082905" lon="05.648753"><ele>13.8</ele><time>2022-04-13T11:14:54Z</time><name>PT1015</name></trkpt>
<trkpt lat="52.082903" lon="05.648769"><ele>13.7</ele><time>2022-04-13T11:14:55Z</time><name>PT1016</name></trkpt>
<trkpt lat="52.082904" lon="05.648780"><ele>13.7</ele><time>2022-04-13T11:14:56Z</time><name>PT1017</name></trkpt>
<trkpt lat="52.082910" lon="05.648782"><ele>13.7</ele><time>2022-04-13T11:14:57Z</time><name>PT1018</name></trkpt>
<trkpt lat="52.082909" lon="05.648793"><ele>13.3</ele><time>2022-04-13T11:14:58Z</time><name>PT1019</name></trkpt>
<trkpt lat="52.082905" lon="05.648808"><ele>13.3</ele><time>2022-04-13T11:14:59Z</time><name>PT1020</name></trkpt>
<trkpt lat="52.082904" lon="05.648817"><ele>13.4</ele><time>2022-04-13T11:15:00Z</time><name>PT1021</name></trkpt>
<trkpt lat="52.082904" lon="05.648829"><ele>13.2</ele><time>2022-04-13T11:15:01Z</time><name>PT1022</name></trkpt>
<trkpt lat="52.082903" lon="05.648839"><ele>13.2</ele><time>2022-04-13T11:15:02Z</time><name>PT1023</name></trkpt>
<trkpt lat="52.082902" lon="05.648851"><ele>13.1</ele><time>2022-04-13T11:15:03Z</time><name>PT1024</name></trkpt>
<trkpt lat="52.082903" lon="05.648863"><ele>12.9</ele><time>2022-04-13T11:15:04Z</time><name>PT1025</name></trkpt>
<trkpt lat="52.082903" lon="05.648872"><ele>12.9</ele><time>2022-04-13T11:15:05Z</time><name>PT1026</name></trkpt>
<trkpt lat="52.082903" lon="05.648879"><ele>12.7</ele><time>2022-04-13T11:15:06Z</time><name>PT1027</name></trkpt>
<trkpt lat="52.082902" lon="05.648889"><ele>12.6</ele><time>2022-04-13T11:15:07Z</time><name>PT1028</name></trkpt>
<trkpt lat="52.082903" lon="05.648900"><ele>12.6</ele><time>2022-04-13T11:15:08Z</time><name>PT1029</name></trkpt>
<trkpt lat="52.082902" lon="05.648910"><ele>12.6</ele><time>2022-04-13T11:15:09Z</time><name>PT1030</name></trkpt>
<trkpt lat="52.082903" lon="05.648915"><ele>12.5</ele><time>2022-04-13T11:15:10Z</time><name>PT1031</name></trkpt>
<trkpt lat="52.082905" lon="05.648924"><ele>12.5</ele><time>2022-04-13T11:15:11Z</time><name>PT1032</name></trkpt>
<trkpt lat="52.082907" lon="05.648937"><ele>12.3</ele><time>2022-04-13T11:15:12Z</time><name>PT1033</name></trkpt>
<trkpt lat="52.082908" lon="05.648949"><ele>12.2</ele><time>2022-04-13T11:15:13Z</time><name>PT1034</name></trkpt>
<trkpt lat="52.082909" lon="05.648957"><ele>12.2</ele><time>2022-04-13T11:15:14Z</time><name>PT1035</name></trkpt>
<trkpt lat="52.082911" lon="05.648972"><ele>11.9</ele><time>2022-04-13T11:15:15Z</time><name>PT1036</name></trkpt>
<trkpt lat="52.082913" lon="05.648994"><ele>11.8</ele><time>2022-04-13T11:15:16Z</time><name>PT1037</name></trkpt>
<trkpt lat="52.082915" lon="05.649009"><ele>11.9</ele><time>2022-04-13T11:15:17Z</time><name>PT1038</name></trkpt>
<trkpt lat="52.082917" lon="05.649017"><ele>12.1</ele><time>2022-04-13T11:15:18Z</time><name>PT1039</name></trkpt>
<trkpt lat="52.082916" lon="05.649026"><ele>12</ele><time>2022-04-13T11:15:19Z</time><name>PT1040</name></trkpt>
<trkpt lat="52.082915" lon="05.649037"><ele>12.1</ele><time>2022-04-13T11:15:20Z</time><name>PT1041</name></trkpt>
<trkpt lat="52.082913" lon="05.649049"><ele>12</ele><time>2022-04-13T11:15:21Z</time><name>PT1042</name></trkpt>
<trkpt lat="52.082912" lon="05.649057"><ele>11.9</ele><time>2022-04-13T11:15:22Z</time><name>PT1043</name></trkpt>
<trkpt lat="52.082910" lon="05.649066"><ele>11.8</ele><time>2022-04-13T11:15:23Z</time><name>PT1044</name></trkpt>
<trkpt lat="52.082910" lon="05.649080"><ele>11.7</ele><time>2022-04-13T11:15:24Z</time><name>PT1045</name></trkpt>
<trkpt lat="52.082910" lon="05.649088"><ele>11.7</ele><time>2022-04-13T11:15:25Z</time><name>PT1046</name></trkpt>
<trkpt lat="52.082911" lon="05.649093"><ele>11.6</ele><time>2022-04-13T11:15:26Z</time><name>PT1047</name></trkpt>
<trkpt lat="52.082913" lon="05.649101"><ele>11.5</ele><time>2022-04-13T11:15:27Z</time><name>PT1048</name></trkpt>
<trkpt lat="52.082916" lon="05.649114"><ele>11.3</ele><time>2022-04-13T11:15:28Z</time><name>PT1049</name></trkpt>
<trkpt lat="52.082916" lon="05.649124"><ele>11.4</ele><time>2022-04-13T11:15:29Z</time><name>PT1050</name></trkpt>
<trkpt lat="52.082914" lon="05.649129"><ele>11.4</ele><time>2022-04-13T11:15:30Z</time><name>PT1051</name></trkpt>
<trkpt lat="52.082914" lon="05.649132"><ele>11.5</ele><time>2022-04-13T11:15:31Z</time><name>PT1052</name></trkpt>
<trkpt lat="52.082912" lon="05.649132"><ele>11.5</ele><time>2022-04-13T11:15:32Z</time><name>PT1053</name></trkpt>
<trkpt lat="52.082911" lon="05.649136"><ele>11.7</ele><time>2022-04-13T11:15:33Z</time><name>PT1054</name></trkpt>
<trkpt lat="52.082910" lon="05.649139"><ele>11.5</ele><time>2022-04-13T11:15:34Z</time><name>PT1055</name></trkpt>
<trkpt lat="52.082910" lon="05.649143"><ele>11.5</ele><time>2022-04-13T11:15:35Z</time><name>PT1056</name></trkpt>
<trkpt lat="52.082917" lon="05.649151"><ele>11.3</ele><time>2022-04-13T11:15:37Z</time><name>PT1057</name></trkpt>
<trkpt lat="52.082916" lon="05.649159"><ele>11.2</ele><time>2022-04-13T11:15:38Z</time><name>PT1058</name></trkpt>
<trkpt lat="52.082918" lon="05.649171"><ele>11.1</ele><time>2022-04-13T11:15:39Z</time><name>PT1059</name></trkpt>
<trkpt lat="52.082917" lon="05.649194"><ele>11</ele><time>2022-04-13T11:15:40Z</time><name>PT1060</name></trkpt>
<trkpt lat="52.082918" lon="05.649211"><ele>10.9</ele><time>2022-04-13T11:15:41Z</time><name>PT1061</name></trkpt>
<trkpt lat="52.082920" lon="05.649228"><ele>10.9</ele><time>2022-04-13T11:15:42Z</time><name>PT1062</name></trkpt>
<trkpt lat="52.082923" lon="05.649250"><ele>11.1</ele><time>2022-04-13T11:15:43Z</time><name>PT1063</name></trkpt>
<trkpt lat="52.082928" lon="05.649265"><ele>11.2</ele><time>2022-04-13T11:15:44Z</time><name>PT1064</name></trkpt>
<trkpt lat="52.082937" lon="05.649285"><ele>11.2</ele><time>2022-04-13T11:15:45Z</time><name>PT1065</name></trkpt>
<trkpt lat="52.082946" lon="05.649301"><ele>11.1</ele><time>2022-04-13T11:15:46Z</time><name>PT1066</name></trkpt>
<trkpt lat="52.082953" lon="05.649322"><ele>10.8</ele><time>2022-04-13T11:15:47Z</time><name>PT1067</name></trkpt>
<trkpt lat="52.082963" lon="05.649339"><ele>10.8</ele><time>2022-04-13T11:15:48Z</time><name>PT1068</name></trkpt>
<trkpt lat="52.082980" lon="05.649356"><ele>10.6</ele><time>2022-04-13T11:15:49Z</time><name>PT1069</name></trkpt>
<trkpt lat="52.082990" lon="05.649379"><ele>10.5</ele><time>2022-04-13T11:15:50Z</time><name>PT1070</name></trkpt>
<trkpt lat="52.082997" lon="05.649394"><ele>10.6</ele><time>2022-04-13T11:15:51Z</time><name>PT1071</name></trkpt>
<trkpt lat="52.083000" lon="05.649400"><ele>10.5</ele><time>2022-04-13T11:15:52Z</time><name>PT1072</name></trkpt>
<trkpt lat="52.082997" lon="05.649400"><ele>10.7</ele><time>2022-04-13T11:15:53Z</time><name>PT1073</name></trkpt>
<trkpt lat="52.082996" lon="05.649392"><ele>10.6</ele><time>2022-04-13T11:15:54Z</time><name>PT1074</name></trkpt>
<trkpt lat="52.082999" lon="05.649391"><ele>10.5</ele><time>2022-04-13T11:15:55Z</time><name>PT1075</name></trkpt>
<trkpt lat="52.083009" lon="05.649390"><ele>10.7</ele><time>2022-04-13T11:15:56Z</time><name>PT1076</name></trkpt>
<trkpt lat="52.083021" lon="05.649398"><ele>10.6</ele><time>2022-04-13T11:15:57Z</time><name>PT1077</name></trkpt>
<trkpt lat="52.083025" lon="05.649407"><ele>10.6</ele><time>2022-04-13T11:15:58Z</time><name>PT1078</name></trkpt>
<trkpt lat="52.083029" lon="05.649415"><ele>10.7</ele><time>2022-04-13T11:15:59Z</time><name>PT1079</name></trkpt>
<trkpt lat="52.083035" lon="05.649422"><ele>10.7</ele><time>2022-04-13T11:16:00Z</time><name>PT1080</name></trkpt>
<trkpt lat="52.083041" lon="05.649424"><ele>10.8</ele><time>2022-04-13T11:16:01Z</time><name>PT1081</name></trkpt>
<trkpt lat="52.083048" lon="05.649431"><ele>10.6</ele><time>2022-04-13T11:16:02Z</time><name>PT1082</name></trkpt>
<trkpt lat="52.083060" lon="05.649442"><ele>10.6</ele><time>2022-04-13T11:16:03Z</time><name>PT1083</name></trkpt>
<trkpt lat="52.083067" lon="05.649444"><ele>10.6</ele><time>2022-04-13T11:16:04Z</time><name>PT1084</name></trkpt>
<trkpt lat="52.083064" lon="05.649446"><ele>10.5</ele><time>2022-04-13T11:16:05Z</time><name>PT1085</name></trkpt>
<trkpt lat="52.083073" lon="05.649451"><ele>10.3</ele><time>2022-04-13T11:16:06Z</time><name>PT1086</name></trkpt>
<trkpt lat="52.083093" lon="05.649462"><ele>10.3</ele><time>2022-04-13T11:16:07Z</time><name>PT1087</name></trkpt>
<trkpt lat="52.083102" lon="05.649472"><ele>10.2</ele><time>2022-04-13T11:16:08Z</time><name>PT1088</name></trkpt>
<trkpt lat="52.083112" lon="05.649485"><ele>10.2</ele><time>2022-04-13T11:16:09Z</time><name>PT1089</name></trkpt>
<trkpt lat="52.083117" lon="05.649492"><ele>10.1</ele><time>2022-04-13T11:16:10Z</time><name>PT1090</name></trkpt>
<trkpt lat="52.083118" lon="05.649493"><ele>10</ele><time>2022-04-13T11:16:11Z</time><name>PT1091</name></trkpt>
<trkpt lat="52.083122" lon="05.649492"><ele>10.1</ele><time>2022-04-13T11:16:12Z</time><name>PT1092</name></trkpt>
<trkpt lat="52.083124" lon="05.649494"><ele>10.3</ele><time>2022-04-13T11:16:13Z</time><name>PT1093</name></trkpt>
<trkpt lat="52.083127" lon="05.649494"><ele>10.4</ele><time>2022-04-13T11:16:14Z</time><name>PT1094</name></trkpt>
<trkpt lat="52.083133" lon="05.649497"><ele>10.6</ele><time>2022-04-13T11:16:15Z</time><name>PT1095</name></trkpt>
<trkpt lat="52.083145" lon="05.649502"><ele>10.7</ele><time>2022-04-13T11:16:16Z</time><name>PT1096</name></trkpt>
<trkpt lat="52.083159" lon="05.649509"><ele>10.7</ele><time>2022-04-13T11:16:17Z</time><name>PT1097</name></trkpt>
<trkpt lat="52.083167" lon="05.649509"><ele>10.7</ele><time>2022-04-13T11:16:18Z</time><name>PT1098</name></trkpt>
<trkpt lat="52.083175" lon="05.649509"><ele>10.7</ele><time>2022-04-13T11:16:19Z</time><name>PT1099</name></trkpt>
<trkpt lat="52.083189" lon="05.649518"><ele>10.7</ele><time>2022-04-13T11:16:20Z</time><name>PT1100</name></trkpt>
<trkpt lat="52.083201" lon="05.649526"><ele>10.6</ele><time>2022-04-13T11:16:21Z</time><name>PT1101</name></trkpt>
<trkpt lat="52.083212" lon="05.649532"><ele>10.8</ele><time>2022-04-13T11:16:22Z</time><name>PT1102</name></trkpt>
<trkpt lat="52.083222" lon="05.649538"><ele>10.7</ele><time>2022-04-13T11:16:23Z</time><name>PT1103</name></trkpt>
<trkpt lat="52.083231" lon="05.649540"><ele>10.6</ele><time>2022-04-13T11:16:24Z</time><name>PT1104</name></trkpt>
<trkpt lat="52.083235" lon="05.649538"><ele>10.6</ele><time>2022-04-13T11:16:25Z</time><name>PT1105</name></trkpt>
<trkpt lat="52.083239" lon="05.649541"><ele>10.5</ele><time>2022-04-13T11:16:26Z</time><name>PT1106</name></trkpt>
<trkpt lat="52.083244" lon="05.649547"><ele>10.4</ele><time>2022-04-13T11:16:27Z</time><name>PT1107</name></trkpt>
<trkpt lat="52.083252" lon="05.649550"><ele>10.3</ele><time>2022-04-13T11:16:28Z</time><name>PT1108</name></trkpt>
<trkpt lat="52.083260" lon="05.649558"><ele>10.4</ele><time>2022-04-13T11:16:29Z</time><name>PT1109</name></trkpt>
<trkpt lat="52.083266" lon="05.649565"><ele>10.4</ele><time>2022-04-13T11:16:30Z</time><name>PT1110</name></trkpt>
<trkpt lat="52.083278" lon="05.649569"><ele>10.3</ele><time>2022-04-13T11:16:31Z</time><name>PT1111</name></trkpt>
<trkpt lat="52.083287" lon="05.649574"><ele>10.3</ele><time>2022-04-13T11:16:32Z</time><name>PT1112</name></trkpt>
<trkpt lat="52.083292" lon="05.649580"><ele>10.3</ele><time>2022-04-13T11:16:33Z</time><name>PT1113</name></trkpt>
<trkpt lat="52.083302" lon="05.649585"><ele>10.2</ele><time>2022-04-13T11:16:34Z</time><name>PT1114</name></trkpt>
<trkpt lat="52.083309" lon="05.649584"><ele>10</ele><time>2022-04-13T11:16:35Z</time><name>PT1115</name></trkpt>
<trkpt lat="52.083317" lon="05.649586"><ele>10</ele><time>2022-04-13T11:16:36Z</time><name>PT1116</name></trkpt>
<trkpt lat="52.083330" lon="05.649599"><ele>10</ele><time>2022-04-13T11:16:37Z</time><name>PT1117</name></trkpt>
<trkpt lat="52.083342" lon="05.649609"><ele>10</ele><time>2022-04-13T11:16:38Z</time><name>PT1118</name></trkpt>
<trkpt lat="52.083361" lon="05.649631"><ele>10</ele><time>2022-04-13T11:16:39Z</time><name>PT1119</name></trkpt>
<trkpt lat="52.083374" lon="05.649645"><ele>10</ele><time>2022-04-13T11:16:40Z</time><name>PT1120</name></trkpt>
<trkpt lat="52.083388" lon="05.649641"><ele>10</ele><time>2022-04-13T11:16:41Z</time><name>PT1121</name></trkpt>
<trkpt lat="52.083394" lon="05.649642"><ele>9.8</ele><time>2022-04-13T11:16:42Z</time><name>PT1122</name></trkpt>
<trkpt lat="52.083401" lon="05.649644"><ele>9.8</ele><time>2022-04-13T11:16:43Z</time><name>PT1123</name></trkpt>
<trkpt lat="52.083414" lon="05.649647"><ele>9.7</ele><time>2022-04-13T11:16:44Z</time><name>PT1124</name></trkpt>
<trkpt lat="52.083422" lon="05.649649"><ele>9.4</ele><time>2022-04-13T11:16:45Z</time><name>PT1125</name></trkpt>
<trkpt lat="52.083431" lon="05.649653"><ele>9.4</ele><time>2022-04-13T11:16:46Z</time><name>PT1126</name></trkpt>
<trkpt lat="52.083440" lon="05.649660"><ele>9.3</ele><time>2022-04-13T11:16:47Z</time><name>PT1127</name></trkpt>
<trkpt lat="52.083448" lon="05.649666"><ele>9.3</ele><time>2022-04-13T11:16:48Z</time><name>PT1128</name></trkpt>
<trkpt lat="52.083459" lon="05.649675"><ele>9</ele><time>2022-04-13T11:16:49Z</time><name>PT1129</name></trkpt>
<trkpt lat="52.083467" lon="05.649679"><ele>8.9</ele><time>2022-04-13T11:16:50Z</time><name>PT1130</name></trkpt>
<trkpt lat="52.083481" lon="05.649686"><ele>9</ele><time>2022-04-13T11:16:51Z</time><name>PT1131</name></trkpt>
<trkpt lat="52.083500" lon="05.649688"><ele>8.9</ele><time>2022-04-13T11:16:52Z</time><name>PT1132</name></trkpt>
<trkpt lat="52.083513" lon="05.649689"><ele>8.9</ele><time>2022-04-13T11:16:53Z</time><name>PT1133</name></trkpt>
<trkpt lat="52.083525" lon="05.649690"><ele>8.9</ele><time>2022-04-13T11:16:54Z</time><name>PT1134</name></trkpt>
<trkpt lat="52.083549" lon="05.649694"><ele>8.9</ele><time>2022-04-13T11:16:55Z</time><name>PT1135</name></trkpt>
<trkpt lat="52.083562" lon="05.649697"><ele>8.7</ele><time>2022-04-13T11:16:56Z</time><name>PT1136</name></trkpt>
<trkpt lat="52.083574" lon="05.649703"><ele>8.6</ele><time>2022-04-13T11:16:57Z</time><name>PT1137</name></trkpt>
<trkpt lat="52.083592" lon="05.649710"><ele>8.3</ele><time>2022-04-13T11:16:58Z</time><name>PT1138</name></trkpt>
<trkpt lat="52.083598" lon="05.649714"><ele>8.2</ele><time>2022-04-13T11:16:59Z</time><name>PT1139</name></trkpt>
<trkpt lat="52.083603" lon="05.649712"><ele>7.9</ele><time>2022-04-13T11:17:00Z</time><name>PT1140</name></trkpt>
<trkpt lat="52.083618" lon="05.649707"><ele>7.8</ele><time>2022-04-13T11:17:01Z</time><name>PT1141</name></trkpt>
<trkpt lat="52.083635" lon="05.649704"><ele>7.9</ele><time>2022-04-13T11:17:02Z</time><name>PT1142</name></trkpt>
<trkpt lat="52.083662" lon="05.649717"><ele>7.8</ele><time>2022-04-13T11:17:03Z</time><name>PT1143</name></trkpt>
<trkpt lat="52.083679" lon="05.649728"><ele>7.8</ele><time>2022-04-13T11:17:04Z</time><name>PT1144</name></trkpt>
<trkpt lat="52.083694" lon="05.649730"><ele>7.7</ele><time>2022-04-13T11:17:05Z</time><name>PT1145</name></trkpt>
<trkpt lat="52.083696" lon="05.649729"><ele>7.6</ele><time>2022-04-13T11:17:06Z</time><name>PT1146</name></trkpt>
<trkpt lat="52.083709" lon="05.649718"><ele>7.7</ele><time>2022-04-13T11:17:07Z</time><name>PT1147</name></trkpt>
<trkpt lat="52.083716" lon="05.649715"><ele>7.9</ele><time>2022-04-13T11:17:08Z</time><name>PT1148</name></trkpt>
<trkpt lat="52.083727" lon="05.649716"><ele>7.5</ele><time>2022-04-13T11:17:09Z</time><name>PT1149</name></trkpt>
<trkpt lat="52.083748" lon="05.649707"><ele>7.6</ele><time>2022-04-13T11:17:10Z</time><name>PT1150</name></trkpt>
<trkpt lat="52.083766" lon="05.649702"><ele>7.4</ele><time>2022-04-13T11:17:11Z</time><name>PT1151</name></trkpt>
<trkpt lat="52.083782" lon="05.649698"><ele>7.2</ele><time>2022-04-13T11:17:12Z</time><name>PT1152</name></trkpt>
<trkpt lat="52.083789" lon="05.649697"><ele>7.2</ele><time>2022-04-13T11:17:13Z</time><name>PT1153</name></trkpt>
<trkpt lat="52.083804" lon="05.649693"><ele>7.3</ele><time>2022-04-13T11:17:14Z</time><name>PT1154</name></trkpt>
<trkpt lat="52.083819" lon="05.649692"><ele>7.4</ele><time>2022-04-13T11:17:15Z</time><name>PT1155</name></trkpt>
<trkpt lat="52.083830" lon="05.649689"><ele>7.4</ele><time>2022-04-13T11:17:16Z</time><name>PT1156</name></trkpt>
<trkpt lat="52.083836" lon="05.649683"><ele>7.4</ele><time>2022-04-13T11:17:17Z</time><name>PT1157</name></trkpt>
<trkpt lat="52.083849" lon="05.649673"><ele>7.4</ele><time>2022-04-13T11:17:18Z</time><name>PT1158</name></trkpt>
<trkpt lat="52.083871" lon="05.649657"><ele>7.4</ele><time>2022-04-13T11:17:19Z</time><name>PT1159</name></trkpt>
<trkpt lat="52.083890" lon="05.649647"><ele>7.4</ele><time>2022-04-13T11:17:20Z</time><name>PT1160</name></trkpt>
<trkpt lat="52.083910" lon="05.649642"><ele>7.4</ele><time>2022-04-13T11:17:21Z</time><name>PT1161</name></trkpt>
<trkpt lat="52.083923" lon="05.649639"><ele>7.4</ele><time>2022-04-13T11:17:22Z</time><name>PT1162</name></trkpt>
<trkpt lat="52.083931" lon="05.649639"><ele>7.4</ele><time>2022-04-13T11:17:23Z</time><name>PT1163</name></trkpt>
<trkpt lat="52.083942" lon="05.649638"><ele>7.4</ele><time>2022-04-13T11:17:24Z</time><name>PT1164</name></trkpt>
<trkpt lat="52.083951" lon="05.649633"><ele>7.3</ele><time>2022-04-13T11:17:25Z</time><name>PT1165</name></trkpt>
<trkpt lat="52.083955" lon="05.649632"><ele>7.4</ele><time>2022-04-13T11:17:26Z</time><name>PT1166</name></trkpt>
<trkpt lat="52.083962" lon="05.649620"><ele>7.5</ele><time>2022-04-13T11:17:27Z</time><name>PT1167</name></trkpt>
<trkpt lat="52.083979" lon="05.649611"><ele>7.5</ele><time>2022-04-13T11:17:28Z</time><name>PT1168</name></trkpt>
<trkpt lat="52.083997" lon="05.649586"><ele>7.5</ele><time>2022-04-13T11:17:29Z</time><name>PT1169</name></trkpt>
<trkpt lat="52.084001" lon="05.649572"><ele>7.5</ele><time>2022-04-13T11:17:30Z</time><name>PT1170</name></trkpt>
<trkpt lat="52.084015" lon="05.649563"><ele>7.4</ele><time>2022-04-13T11:17:31Z</time><name>PT1171</name></trkpt>
<trkpt lat="52.084030" lon="05.649556"><ele>7.4</ele><time>2022-04-13T11:17:32Z</time><name>PT1172</name></trkpt>
<trkpt lat="52.084039" lon="05.649544"><ele>7.2</ele><time>2022-04-13T11:17:33Z</time><name>PT1173</name></trkpt>
<trkpt lat="52.084046" lon="05.649541"><ele>7.1</ele><time>2022-04-13T11:17:34Z</time><name>PT1174</name></trkpt>
<trkpt lat="52.084057" lon="05.649540"><ele>7.2</ele><time>2022-04-13T11:17:35Z</time><name>PT1175</name></trkpt>
<trkpt lat="52.084063" lon="05.649540"><ele>7</ele><time>2022-04-13T11:17:36Z</time><name>PT1176</name></trkpt>
<trkpt lat="52.084079" lon="05.649543"><ele>7</ele><time>2022-04-13T11:17:37Z</time><name>PT1177</name></trkpt>
<trkpt lat="52.084093" lon="05.649534"><ele>7</ele><time>2022-04-13T11:17:38Z</time><name>PT1178</name></trkpt>
<trkpt lat="52.084101" lon="05.649517"><ele>7.2</ele><time>2022-04-13T11:17:39Z</time><name>PT1179</name></trkpt>
<trkpt lat="52.084115" lon="05.649508"><ele>7</ele><time>2022-04-13T11:17:40Z</time><name>PT1180</name></trkpt>
<trkpt lat="52.084125" lon="05.649502"><ele>7</ele><time>2022-04-13T11:17:41Z</time><name>PT1181</name></trkpt>
<trkpt lat="52.084131" lon="05.649499"><ele>7</ele><time>2022-04-13T11:17:42Z</time><name>PT1182</name></trkpt>
<trkpt lat="52.084140" lon="05.649496"><ele>6.7</ele><time>2022-04-13T11:17:43Z</time><name>PT1183</name></trkpt>
<trkpt lat="52.084147" lon="05.649487"><ele>6.6</ele><time>2022-04-13T11:17:44Z</time><name>PT1184</name></trkpt>
<trkpt lat="52.084154" lon="05.649477"><ele>6.6</ele><time>2022-04-13T11:17:45Z</time><name>PT1185</name></trkpt>
<trkpt lat="52.084159" lon="05.649469"><ele>6.6</ele><time>2022-04-13T11:17:46Z</time><name>PT1186</name></trkpt>
<trkpt lat="52.084168" lon="05.649457"><ele>6.6</ele><time>2022-04-13T11:17:47Z</time><name>PT1187</name></trkpt>
<trkpt lat="52.084176" lon="05.649450"><ele>6.7</ele><time>2022-04-13T11:17:48Z</time><name>PT1188</name></trkpt>
<trkpt lat="52.084190" lon="05.649449"><ele>6.8</ele><time>2022-04-13T11:17:49Z</time><name>PT1189</name></trkpt>
<trkpt lat="52.084197" lon="05.649450"><ele>6.8</ele><time>2022-04-13T11:17:50Z</time><name>PT1190</name></trkpt>
<trkpt lat="52.084199" lon="05.649450"><ele>6.7</ele><time>2022-04-13T11:17:51Z</time><name>PT1191</name></trkpt>
<trkpt lat="52.084210" lon="05.649444"><ele>6.7</ele><time>2022-04-13T11:17:52Z</time><name>PT1192</name></trkpt>
<trkpt lat="52.084224" lon="05.649436"><ele>6.6</ele><time>2022-04-13T11:17:53Z</time><name>PT1193</name></trkpt>
<trkpt lat="52.084231" lon="05.649432"><ele>6.5</ele><time>2022-04-13T11:17:54Z</time><name>PT1194</name></trkpt>
<trkpt lat="52.084236" lon="05.649423"><ele>6.4</ele><time>2022-04-13T11:17:55Z</time><name>PT1195</name></trkpt>
<trkpt lat="52.084253" lon="05.649414"><ele>6.4</ele><time>2022-04-13T11:17:56Z</time><name>PT1196</name></trkpt>
<trkpt lat="52.084261" lon="05.649411"><ele>6.4</ele><time>2022-04-13T11:17:57Z</time><name>PT1197</name></trkpt>
<trkpt lat="52.084267" lon="05.649412"><ele>6.4</ele><time>2022-04-13T11:17:58Z</time><name>PT1198</name></trkpt>
<trkpt lat="52.084282" lon="05.649404"><ele>6.5</ele><time>2022-04-13T11:17:59Z</time><name>PT1199</name></trkpt>
<trkpt lat="52.084299" lon="05.649399"><ele>6.8</ele><time>2022-04-13T11:18:00Z</time><name>PT1200</name></trkpt>
<trkpt lat="52.084316" lon="05.649396"><ele>6.6</ele><time>2022-04-13T11:18:01Z</time><name>PT1201</name></trkpt>
<trkpt lat="52.084327" lon="05.649390"><ele>6.4</ele><time>2022-04-13T11:18:02Z</time><name>PT1202</name></trkpt>
<trkpt lat="52.084353" lon="05.649388"><ele>6.4</ele><time>2022-04-13T11:18:03Z</time><name>PT1203</name></trkpt>
<trkpt lat="52.084369" lon="05.649381"><ele>6.4</ele><time>2022-04-13T11:18:04Z</time><name>PT1204</name></trkpt>
<trkpt lat="52.084387" lon="05.649371"><ele>6.2</ele><time>2022-04-13T11:18:05Z</time><name>PT1205</name></trkpt>
<trkpt lat="52.084386" lon="05.649371"><ele>6.2</ele><time>2022-04-13T11:18:06Z</time><name>PT1206</name></trkpt>
<trkpt lat="52.084404" lon="05.649365"><ele>6.3</ele><time>2022-04-13T11:18:07Z</time><name>PT1207</name></trkpt>
<trkpt lat="52.084429" lon="05.649357"><ele>6.3</ele><time>2022-04-13T11:18:08Z</time><name>PT1208</name></trkpt>
<trkpt lat="52.084449" lon="05.649351"><ele>6.3</ele><time>2022-04-13T11:18:09Z</time><name>PT1209</name></trkpt>
<trkpt lat="52.084458" lon="05.649348"><ele>6.3</ele><time>2022-04-13T11:18:10Z</time><name>PT1210</name></trkpt>
<trkpt lat="52.084465" lon="05.649344"><ele>6.4</ele><time>2022-04-13T11:18:11Z</time><name>PT1211</name></trkpt>
<trkpt lat="52.084487" lon="05.649336"><ele>6.3</ele><time>2022-04-13T11:18:12Z</time><name>PT1212</name></trkpt>
<trkpt lat="52.084493" lon="05.649331"><ele>6.1</ele><time>2022-04-13T11:18:13Z</time><name>PT1213</name></trkpt>
<trkpt lat="52.084507" lon="05.649314"><ele>6.1</ele><time>2022-04-13T11:18:14Z</time><name>PT1214</name></trkpt>
<trkpt lat="52.084522" lon="05.649305"><ele>6.3</ele><time>2022-04-13T11:18:15Z</time><name>PT1215</name></trkpt>
<trkpt lat="52.084533" lon="05.649303"><ele>6.3</ele><time>2022-04-13T11:18:16Z</time><name>PT1216</name></trkpt>
<trkpt lat="52.084539" lon="05.649301"><ele>6.3</ele><time>2022-04-13T11:18:17Z</time><name>PT1217</name></trkpt>
<trkpt lat="52.084549" lon="05.649302"><ele>6.4</ele><time>2022-04-13T11:18:18Z</time><name>PT1218</name></trkpt>
<trkpt lat="52.084557" lon="05.649302"><ele>6.2</ele><time>2022-04-13T11:18:19Z</time><name>PT1219</name></trkpt>
<trkpt lat="52.084558" lon="05.649307"><ele>6</ele><time>2022-04-13T11:18:20Z</time><name>PT1220</name></trkpt>
<trkpt lat="52.084566" lon="05.649304"><ele>6</ele><time>2022-04-13T11:18:21Z</time><name>PT1221</name></trkpt>
<trkpt lat="52.084575" lon="05.649303"><ele>6</ele><time>2022-04-13T11:18:22Z</time><name>PT1222</name></trkpt>
<trkpt lat="52.084586" lon="05.649297"><ele>5.8</ele><time>2022-04-13T11:18:23Z</time><name>PT1223</name></trkpt>
<trkpt lat="52.084604" lon="05.649296"><ele>5.9</ele><time>2022-04-13T11:18:24Z</time><name>PT1224</name></trkpt>
<trkpt lat="52.084609" lon="05.649297"><ele>5.7</ele><time>2022-04-13T11:18:25Z</time><name>PT1225</name></trkpt>
<trkpt lat="52.084617" lon="05.649294"><ele>5.7</ele><time>2022-04-13T11:18:26Z</time><name>PT1226</name></trkpt>
<trkpt lat="52.084621" lon="05.649294"><ele>5.7</ele><time>2022-04-13T11:18:27Z</time><name>PT1227</name></trkpt>
<trkpt lat="52.084632" lon="05.649287"><ele>5.5</ele><time>2022-04-13T11:18:28Z</time><name>PT1228</name></trkpt>
<trkpt lat="52.084628" lon="05.649290"><ele>5.5</ele><time>2022-04-13T11:18:29Z</time><name>PT1229</name></trkpt>
<trkpt lat="52.084639" lon="05.649286"><ele>5.4</ele><time>2022-04-13T11:18:30Z</time><name>PT1230</name></trkpt>
<trkpt lat="52.084656" lon="05.649282"><ele>5.4</ele><time>2022-04-13T11:18:31Z</time><name>PT1231</name></trkpt>
<trkpt lat="52.084674" lon="05.649279"><ele>5.1</ele><time>2022-04-13T11:18:32Z</time><name>PT1232</name></trkpt>
<trkpt lat="52.084691" lon="05.649282"><ele>5</ele><time>2022-04-13T11:18:33Z</time><name>PT1233</name></trkpt>
<trkpt lat="52.084701" lon="05.649288"><ele>5</ele><time>2022-04-13T11:18:34Z</time><name>PT1234</name></trkpt>
<trkpt lat="52.084708" lon="05.649289"><ele>5</ele><time>2022-04-13T11:18:35Z</time><name>PT1235</name></trkpt>
<trkpt lat="52.084714" lon="05.649290"><ele>4.7</ele><time>2022-04-13T11:18:36Z</time><name>PT1236</name></trkpt>
<trkpt lat="52.084727" lon="05.649290"><ele>4.8</ele><time>2022-04-13T11:18:37Z</time><name>PT1237</name></trkpt>
<trkpt lat="52.084733" lon="05.649289"><ele>4.9</ele><time>2022-04-13T11:18:38Z</time><name>PT1238</name></trkpt>
<trkpt lat="52.084745" lon="05.649294"><ele>4.8</ele><time>2022-04-13T11:18:39Z</time><name>PT1239</name></trkpt>
<trkpt lat="52.084762" lon="05.649300"><ele>4.8</ele><time>2022-04-13T11:18:40Z</time><name>PT1240</name></trkpt>
<trkpt lat="52.084785" lon="05.649299"><ele>4.9</ele><time>2022-04-13T11:18:41Z</time><name>PT1241</name></trkpt>
<trkpt lat="52.084796" lon="05.649304"><ele>5</ele><time>2022-04-13T11:18:42Z</time><name>PT1242</name></trkpt>
<trkpt lat="52.084807" lon="05.649309"><ele>5</ele><time>2022-04-13T11:18:43Z</time><name>PT1243</name></trkpt>
<trkpt lat="52.084812" lon="05.649315"><ele>5</ele><time>2022-04-13T11:18:44Z</time><name>PT1244</name></trkpt>
<trkpt lat="52.084824" lon="05.649318"><ele>5</ele><time>2022-04-13T11:18:45Z</time><name>PT1245</name></trkpt>
<trkpt lat="52.084832" lon="05.649318"><ele>4.7</ele><time>2022-04-13T11:18:46Z</time><name>PT1246</name></trkpt>
<trkpt lat="52.084843" lon="05.649328"><ele>4.5</ele><time>2022-04-13T11:18:47Z</time><name>PT1247</name></trkpt>
<trkpt lat="52.084849" lon="05.649337"><ele>4.2</ele><time>2022-04-13T11:18:48Z</time><name>PT1248</name></trkpt>
<trkpt lat="52.084879" lon="05.649335"><ele>4.2</ele><time>2022-04-13T11:18:49Z</time><name>PT1249</name></trkpt>
<trkpt lat="52.084890" lon="05.649334"><ele>4.1</ele><time>2022-04-13T11:18:50Z</time><name>PT1250</name></trkpt>
<trkpt lat="52.084897" lon="05.649334"><ele>4.2</ele><time>2022-04-13T11:18:51Z</time><name>PT1251</name></trkpt>
<trkpt lat="52.084905" lon="05.649336"><ele>4.2</ele><time>2022-04-13T11:18:52Z</time><name>PT1252</name></trkpt>
<trkpt lat="52.084927" lon="05.649337"><ele>4.3</ele><time>2022-04-13T11:18:53Z</time><name>PT1253</name></trkpt>
<trkpt lat="52.084943" lon="05.649334"><ele>4.1</ele><time>2022-04-13T11:18:54Z</time><name>PT1254</name></trkpt>
<trkpt lat="52.084963" lon="05.649343"><ele>4</ele><time>2022-04-13T11:18:55Z</time><name>PT1255</name></trkpt>
<trkpt lat="52.084984" lon="05.649346"><ele>4</ele><time>2022-04-13T11:18:56Z</time><name>PT1256</name></trkpt>
<trkpt lat="52.085000" lon="05.649350"><ele>3.7</ele><time>2022-04-13T11:18:57Z</time><name>PT1257</name></trkpt>
<trkpt lat="52.085008" lon="05.649352"><ele>3.7</ele><time>2022-04-13T11:18:58Z</time><name>PT1258</name></trkpt>
<trkpt lat="52.085023" lon="05.649354"><ele>3.8</ele><time>2022-04-13T11:18:59Z</time><name>PT1259</name></trkpt>
<trkpt lat="52.085029" lon="05.649354"><ele>3.7</ele><time>2022-04-13T11:19:00Z</time><name>PT1260</name></trkpt>
<trkpt lat="52.085042" lon="05.649361"><ele>3.8</ele><time>2022-04-13T11:19:01Z</time><name>PT1261</name></trkpt>
<trkpt lat="52.085063" lon="05.649368"><ele>3.9</ele><time>2022-04-13T11:19:02Z</time><name>PT1262</name></trkpt>
<trkpt lat="52.085072" lon="05.649373"><ele>3.8</ele><time>2022-04-13T11:19:03Z</time><name>PT1263</name></trkpt>
<trkpt lat="52.085091" lon="05.649375"><ele>3.6</ele><time>2022-04-13T11:19:04Z</time><name>PT1264</name></trkpt>
<trkpt lat="52.085097" lon="05.649381"><ele>3.6</ele><time>2022-04-13T11:19:05Z</time><name>PT1265</name></trkpt>
<trkpt lat="52.085116" lon="05.649385"><ele>3.5</ele><time>2022-04-13T11:19:06Z</time><name>PT1266</name></trkpt>
<trkpt lat="52.085133" lon="05.649397"><ele>3.5</ele><time>2022-04-13T11:19:07Z</time><name>PT1267</name></trkpt>
<trkpt lat="52.085147" lon="05.649401"><ele>3.5</ele><time>2022-04-13T11:19:08Z</time><name>PT1268</name></trkpt>
<trkpt lat="52.085156" lon="05.649403"><ele>3.5</ele><time>2022-04-13T11:19:09Z</time><name>PT1269</name></trkpt>
<trkpt lat="52.085162" lon="05.649407"><ele>3.6</ele><time>2022-04-13T11:19:10Z</time><name>PT1270</name></trkpt>
<trkpt lat="52.085178" lon="05.649409"><ele>3.8</ele><time>2022-04-13T11:19:11Z</time><name>PT1271</name></trkpt>
<trkpt lat="52.085190" lon="05.649414"><ele>3.8</ele><time>2022-04-13T11:19:12Z</time><name>PT1272</name></trkpt>
<trkpt lat="52.085207" lon="05.649417"><ele>3.7</ele><time>2022-04-13T11:19:13Z</time><name>PT1273</name></trkpt>
<trkpt lat="52.085226" lon="05.649422"><ele>3.9</ele><time>2022-04-13T11:19:14Z</time><name>PT1274</name></trkpt>
<trkpt lat="52.085245" lon="05.649434"><ele>3.9</ele><time>2022-04-13T11:19:15Z</time><name>PT1275</name></trkpt>
<trkpt lat="52.085256" lon="05.649444"><ele>3.6</ele><time>2022-04-13T11:19:16Z</time><name>PT1276</name></trkpt>
<trkpt lat="52.085268" lon="05.649450"><ele>3.6</ele><time>2022-04-13T11:19:17Z</time><name>PT1277</name></trkpt>
<trkpt lat="52.085284" lon="05.649456"><ele>3.5</ele><time>2022-04-13T11:19:18Z</time><name>PT1278</name></trkpt>
<trkpt lat="52.085294" lon="05.649460"><ele>3.5</ele><time>2022-04-13T11:19:19Z</time><name>PT1279</name></trkpt>
<trkpt lat="52.085302" lon="05.649462"><ele>3.5</ele><time>2022-04-13T11:19:20Z</time><name>PT1280</name></trkpt>
<trkpt lat="52.085315" lon="05.649468"><ele>3.6</ele><time>2022-04-13T11:19:21Z</time><name>PT1281</name></trkpt>
<trkpt lat="52.085325" lon="05.649473"><ele>3.6</ele><time>2022-04-13T11:19:22Z</time><name>PT1282</name></trkpt>
<trkpt lat="52.085339" lon="05.649466"><ele>3.7</ele><time>2022-04-13T11:19:23Z</time><name>PT1283</name></trkpt>
<trkpt lat="52.085357" lon="05.649471"><ele>3.6</ele><time>2022-04-13T11:19:24Z</time><name>PT1284</name></trkpt>
<trkpt lat="52.085374" lon="05.649480"><ele>3.6</ele><time>2022-04-13T11:19:25Z</time><name>PT1285</name></trkpt>
<trkpt lat="52.085389" lon="05.649480"><ele>3.9</ele><time>2022-04-13T11:19:26Z</time><name>PT1286</name></trkpt>
<trkpt lat="52.085402" lon="05.649480"><ele>4</ele><time>2022-04-13T11:19:27Z</time><name>PT1287</name></trkpt>
<trkpt lat="52.085408" lon="05.649478"><ele>4</ele><time>2022-04-13T11:19:28Z</time><name>PT1288</name></trkpt>
<trkpt lat="52.085420" lon="05.649482"><ele>4.1</ele><time>2022-04-13T11:19:29Z</time><name>PT1289</name></trkpt>
<trkpt lat="52.085433" lon="05.649483"><ele>4</ele><time>2022-04-13T11:19:30Z</time><name>PT1290</name></trkpt>
<trkpt lat="52.085457" lon="05.649490"><ele>4</ele><time>2022-04-13T11:19:31Z</time><name>PT1291</name></trkpt>
<trkpt lat="52.085465" lon="05.649492"><ele>4</ele><time>2022-04-13T11:19:32Z</time><name>PT1292</name></trkpt>
<trkpt lat="52.085474" lon="05.649497"><ele>4</ele><time>2022-04-13T11:19:33Z</time><name>PT1293</name></trkpt>
<trkpt lat="52.085487" lon="05.649503"><ele>4</ele><time>2022-04-13T11:19:34Z</time><name>PT1294</name></trkpt>
<trkpt lat="52.085495" lon="05.649508"><ele>4.1</ele><time>2022-04-13T11:19:35Z</time><name>PT1295</name></trkpt>
<trkpt lat="52.085508" lon="05.649515"><ele>4.1</ele><time>2022-04-13T11:19:36Z</time><name>PT1296</name></trkpt>
<trkpt lat="52.085521" lon="05.649517"><ele>4.3</ele><time>2022-04-13T11:19:37Z</time><name>PT1297</name></trkpt>
<trkpt lat="52.085530" lon="05.649525"><ele>4.5</ele><time>2022-04-13T11:19:38Z</time><name>PT1298</name></trkpt>
<trkpt lat="52.085534" lon="05.649525"><ele>4.4</ele><time>2022-04-13T11:19:39Z</time><name>PT1299</name></trkpt>
<trkpt lat="52.085530" lon="05.649528"><ele>4.1</ele><time>2022-04-13T11:19:46Z</time><name>PT1300</name></trkpt>
<trkpt lat="52.085531" lon="05.649529"><ele>4.2</ele><time>2022-04-13T11:19:47Z</time><name>PT1301</name></trkpt>
<trkpt lat="52.085532" lon="05.649536"><ele>4.1</ele><time>2022-04-13T11:19:48Z</time><name>PT1302</name></trkpt>
<trkpt lat="52.085534" lon="05.649521"><ele>3.5</ele><time>2022-04-13T11:20:37Z</time><name>PT1303</name></trkpt>
<trkpt lat="52.085543" lon="05.649520"><ele>3.4</ele><time>2022-04-13T11:20:38Z</time><name>PT1304</name></trkpt>
<trkpt lat="52.085546" lon="05.649515"><ele>3.5</ele><time>2022-04-13T11:20:39Z</time><name>PT1305</name></trkpt>
<trkpt lat="52.085549" lon="05.649515"><ele>3.6</ele><time>2022-04-13T11:20:40Z</time><name>PT1306</name></trkpt>
<trkpt lat="52.085556" lon="05.649512"><ele>3.5</ele><time>2022-04-13T11:20:41Z</time><name>PT1307</name></trkpt>
<trkpt lat="52.085560" lon="05.649524"><ele>3.6</ele><time>2022-04-13T11:21:04Z</time><name>PT1308</name></trkpt>
<trkpt lat="52.085562" lon="05.649531"><ele>3.6</ele><time>2022-04-13T11:21:05Z</time><name>PT1309</name></trkpt>
<trkpt lat="52.085562" lon="05.649531"><ele>3.5</ele><time>2022-04-13T11:21:06Z</time><name>PT1310</name></trkpt>
<trkpt lat="52.085563" lon="05.649533"><ele>3.4</ele><time>2022-04-13T11:21:07Z</time><name>PT1311</name></trkpt>
<trkpt lat="52.085564" lon="05.649539"><ele>3.5</ele><time>2022-04-13T11:21:08Z</time><name>PT1312</name></trkpt>
<trkpt lat="52.085565" lon="05.649542"><ele>3.8</ele><time>2022-04-13T11:21:15Z</time><name>PT1313</name></trkpt>
<trkpt lat="52.085572" lon="05.649544"><ele>3.7</ele><time>2022-04-13T11:21:16Z</time><name>PT1314</name></trkpt>
<trkpt lat="52.085579" lon="05.649548"><ele>3.5</ele><time>2022-04-13T11:21:17Z</time><name>PT1315</name></trkpt>
<trkpt lat="52.085587" lon="05.649544"><ele>3.6</ele><time>2022-04-13T11:21:18Z</time><name>PT1316</name></trkpt>
<trkpt lat="52.085590" lon="05.649545"><ele>3.6</ele><time>2022-04-13T11:21:19Z</time><name>PT1317</name></trkpt>
<trkpt lat="52.085593" lon="05.649543"><ele>3.5</ele><time>2022-04-13T11:21:20Z</time><name>PT1318</name></trkpt>
<trkpt lat="52.085594" lon="05.649546"><ele>3.5</ele><time>2022-04-13T11:21:21Z</time><name>PT1319</name></trkpt>
<trkpt lat="52.085597" lon="05.649545"><ele>3.4</ele><time>2022-04-13T11:22:01Z</time><name>PT1320</name></trkpt>
<trkpt lat="52.085596" lon="05.649547"><ele>3.4</ele><time>2022-04-13T11:22:02Z</time><name>PT1321</name></trkpt>
<trkpt lat="52.085603" lon="05.649549"><ele>3.5</ele><time>2022-04-13T11:22:03Z</time><name>PT1322</name></trkpt>
<trkpt lat="52.085604" lon="05.649555"><ele>3.5</ele><time>2022-04-13T11:22:04Z</time><name>PT1323</name></trkpt>
<trkpt lat="52.085601" lon="05.649559"><ele>3.6</ele><time>2022-04-13T11:22:05Z</time><name>PT1324</name></trkpt>
<trkpt lat="52.085599" lon="05.649560"><ele>3.7</ele><time>2022-04-13T11:22:06Z</time><name>PT1325</name></trkpt>
<trkpt lat="52.085601" lon="05.649565"><ele>3.7</ele><time>2022-04-13T11:22:07Z</time><name>PT1326</name></trkpt>
<trkpt lat="52.085601" lon="05.649564"><ele>3.8</ele><time>2022-04-13T11:22:08Z</time><name>PT1327</name></trkpt>
<trkpt lat="52.085603" lon="05.649566"><ele>3.9</ele><time>2022-04-13T11:22:09Z</time><name>PT1328</name></trkpt>
<trkpt lat="52.085604" lon="05.649568"><ele>3.9</ele><time>2022-04-13T11:22:12Z</time><name>PT1329</name></trkpt>
<trkpt lat="52.085607" lon="05.649568"><ele>4</ele><time>2022-04-13T11:22:13Z</time><name>PT1330</name></trkpt>
<trkpt lat="52.085609" lon="05.649566"><ele>3.9</ele><time>2022-04-13T11:22:14Z</time><name>PT1331</name></trkpt>
<trkpt lat="52.085610" lon="05.649569"><ele>3.8</ele><time>2022-04-13T11:22:15Z</time><name>PT1332</name></trkpt>
<trkpt lat="52.085610" lon="05.649568"><ele>3.8</ele><time>2022-04-13T11:22:17Z</time><name>PT1333</name></trkpt>
<trkpt lat="52.085618" lon="05.649569"><ele>3.9</ele><time>2022-04-13T11:22:18Z</time><name>PT1334</name></trkpt>
<trkpt lat="52.085624" lon="05.649570"><ele>3.8</ele><time>2022-04-13T11:22:19Z</time><name>PT1335</name></trkpt>
<trkpt lat="52.085631" lon="05.649557"><ele>3.9</ele><time>2022-04-13T11:22:20Z</time><name>PT1336</name></trkpt>
<trkpt lat="52.085637" lon="05.649560"><ele>3.9</ele><time>2022-04-13T11:22:21Z</time><name>PT1337</name></trkpt>
<trkpt lat="52.085638" lon="05.649549"><ele>3.8</ele><time>2022-04-13T11:22:22Z</time><name>PT1338</name></trkpt>
<trkpt lat="52.085641" lon="05.649545"><ele>3.8</ele><time>2022-04-13T11:22:23Z</time><name>PT1339</name></trkpt>
<trkpt lat="52.085644" lon="05.649541"><ele>3.8</ele><time>2022-04-13T11:22:24Z</time><name>PT1340</name></trkpt>
<trkpt lat="52.085646" lon="05.649538"><ele>3.9</ele><time>2022-04-13T11:22:25Z</time><name>PT1341</name></trkpt>
<trkpt lat="52.085643" lon="05.649512"><ele>3.7</ele><time>2022-04-13T11:22:29Z</time><name>PT1342</name></trkpt>
<trkpt lat="52.085645" lon="05.649503"><ele>3.6</ele><time>2022-04-13T11:22:30Z</time><name>PT1343</name></trkpt>
<trkpt lat="52.085646" lon="05.649501"><ele>3.7</ele><time>2022-04-13T11:22:31Z</time><name>PT1344</name></trkpt>
<trkpt lat="52.085647" lon="05.649496"><ele>3.7</ele><time>2022-04-13T11:22:32Z</time><name>PT1345</name></trkpt>
<trkpt lat="52.085645" lon="05.649495"><ele>3.9</ele><time>2022-04-13T11:22:38Z</time><name>PT1346</name></trkpt>
<trkpt lat="52.085646" lon="05.649491"><ele>3.8</ele><time>2022-04-13T11:22:39Z</time><name>PT1347</name></trkpt>
<trkpt lat="52.085649" lon="05.649485"><ele>3.8</ele><time>2022-04-13T11:22:40Z</time><name>PT1348</name></trkpt>
<trkpt lat="52.085654" lon="05.649477"><ele>3.6</ele><time>2022-04-13T11:22:41Z</time><name>PT1349</name></trkpt>
<trkpt lat="52.085657" lon="05.649473"><ele>3.5</ele><time>2022-04-13T11:22:42Z</time><name>PT1350</name></trkpt>
<trkpt lat="52.085659" lon="05.649469"><ele>3.4</ele><time>2022-04-13T11:22:43Z</time><name>PT1351</name></trkpt>
<trkpt lat="52.085657" lon="05.649444"><ele>3.4</ele><time>2022-04-13T11:22:44Z</time><name>PT1352</name></trkpt>
<trkpt lat="52.085664" lon="05.649430"><ele>3.4</ele><time>2022-04-13T11:22:45Z</time><name>PT1353</name></trkpt>
<trkpt lat="52.085672" lon="05.649422"><ele>3.4</ele><time>2022-04-13T11:22:46Z</time><name>PT1354</name></trkpt>
<trkpt lat="52.085680" lon="05.649414"><ele>3.5</ele><time>2022-04-13T11:22:47Z</time><name>PT1355</name></trkpt>
<trkpt lat="52.085686" lon="05.649407"><ele>3.5</ele><time>2022-04-13T11:22:48Z</time><name>PT1356</name></trkpt>
<trkpt lat="52.085696" lon="05.649393"><ele>3.5</ele><time>2022-04-13T11:22:49Z</time><name>PT1357</name></trkpt>
<trkpt lat="52.085704" lon="05.649383"><ele>3.6</ele><time>2022-04-13T11:22:50Z</time><name>PT1358</name></trkpt>
<trkpt lat="52.085706" lon="05.649376"><ele>3.7</ele><time>2022-04-13T11:22:51Z</time><name>PT1359</name></trkpt>
<trkpt lat="52.085711" lon="05.649366"><ele>3.5</ele><time>2022-04-13T11:22:52Z</time><name>PT1360</name></trkpt>
<trkpt lat="52.085721" lon="05.649352"><ele>3.5</ele><time>2022-04-13T11:22:53Z</time><name>PT1361</name></trkpt>
<trkpt lat="52.085733" lon="05.649340"><ele>3.4</ele><time>2022-04-13T11:22:54Z</time><name>PT1362</name></trkpt>
<trkpt lat="52.085750" lon="05.649321"><ele>3.2</ele><time>2022-04-13T11:22:55Z</time><name>PT1363</name></trkpt>
<trkpt lat="52.085754" lon="05.649311"><ele>3.1</ele><time>2022-04-13T11:22:56Z</time><name>PT1364</name></trkpt>
<trkpt lat="52.085763" lon="05.649301"><ele>3.2</ele><time>2022-04-13T11:22:57Z</time><name>PT1365</name></trkpt>
<trkpt lat="52.085766" lon="05.649292"><ele>3.2</ele><time>2022-04-13T11:22:58Z</time><name>PT1366</name></trkpt>
<trkpt lat="52.085773" lon="05.649278"><ele>3.2</ele><time>2022-04-13T11:22:59Z</time><name>PT1367</name></trkpt>
<trkpt lat="52.085777" lon="05.649258"><ele>3.5</ele><time>2022-04-13T11:23:00Z</time><name>PT1368</name></trkpt>
<trkpt lat="52.085795" lon="05.649235"><ele>3.5</ele><time>2022-04-13T11:23:01Z</time><name>PT1369</name></trkpt>
<trkpt lat="52.085803" lon="05.649217"><ele>3.6</ele><time>2022-04-13T11:23:02Z</time><name>PT1370</name></trkpt>
<trkpt lat="52.085808" lon="05.649201"><ele>3.6</ele><time>2022-04-13T11:23:03Z</time><name>PT1371</name></trkpt>
<trkpt lat="52.085812" lon="05.649191"><ele>3.7</ele><time>2022-04-13T11:23:04Z</time><name>PT1372</name></trkpt>
<trkpt lat="52.085814" lon="05.649184"><ele>3.6</ele><time>2022-04-13T11:23:05Z</time><name>PT1373</name></trkpt>
<trkpt lat="52.085822" lon="05.649175"><ele>3.6</ele><time>2022-04-13T11:23:06Z</time><name>PT1374</name></trkpt>
<trkpt lat="52.085824" lon="05.649164"><ele>3.5</ele><time>2022-04-13T11:23:07Z</time><name>PT1375</name></trkpt>
<trkpt lat="52.085823" lon="05.649159"><ele>3.4</ele><time>2022-04-13T11:23:08Z</time><name>PT1376</name></trkpt>
<trkpt lat="52.085823" lon="05.649153"><ele>3.5</ele><time>2022-04-13T11:23:09Z</time><name>PT1377</name></trkpt>
<trkpt lat="52.085823" lon="05.649150"><ele>3.4</ele><time>2022-04-13T11:23:10Z</time><name>PT1378</name></trkpt>
<trkpt lat="52.085832" lon="05.649154"><ele>3.5</ele><time>2022-04-13T11:23:11Z</time><name>PT1379</name></trkpt>
<trkpt lat="52.085843" lon="05.649153"><ele>3.5</ele><time>2022-04-13T11:23:12Z</time><name>PT1380</name></trkpt>
<trkpt lat="52.085846" lon="05.649151"><ele>3.4</ele><time>2022-04-13T11:23:13Z</time><name>PT1381</name></trkpt>
<trkpt lat="52.085839" lon="05.649145"><ele>3.7</ele><time>2022-04-13T11:23:20Z</time><name>PT1382</name></trkpt>
<trkpt lat="52.085839" lon="05.649145"><ele>3.5</ele><time>2022-04-13T11:23:21Z</time><name>PT1383</name></trkpt>
<trkpt lat="52.085840" lon="05.649135"><ele>3.7</ele><time>2022-04-13T11:23:22Z</time><name>PT1384</name></trkpt>
<trkpt lat="52.085845" lon="05.649113"><ele>3.6</ele><time>2022-04-13T11:23:28Z</time><name>PT1385</name></trkpt>
<trkpt lat="52.085846" lon="05.649101"><ele>3.4</ele><time>2022-04-13T11:23:29Z</time><name>PT1386</name></trkpt>
<trkpt lat="52.085851" lon="05.649094"><ele>3.2</ele><time>2022-04-13T11:23:30Z</time><name>PT1387</name></trkpt>
<trkpt lat="52.085851" lon="05.649098"><ele>3.3</ele><time>2022-04-13T11:23:31Z</time><name>PT1388</name></trkpt>
<trkpt lat="52.085851" lon="05.649091"><ele>3</ele><time>2022-04-13T11:23:48Z</time><name>PT1389</name></trkpt>
<trkpt lat="52.085851" lon="05.649093"><ele>3.1</ele><time>2022-04-13T11:23:49Z</time><name>PT1390</name></trkpt>
<trkpt lat="52.085853" lon="05.649091"><ele>3.1</ele><time>2022-04-13T11:23:51Z</time><name>PT1391</name></trkpt>
<trkpt lat="52.085855" lon="05.649119"><ele>3.1</ele><time>2022-04-13T11:23:52Z</time><name>PT1392</name></trkpt>
<trkpt lat="52.085852" lon="05.649128"><ele>3</ele><time>2022-04-13T11:23:53Z</time><name>PT1393</name></trkpt>
<trkpt lat="52.085854" lon="05.649133"><ele>3.1</ele><time>2022-04-13T11:23:54Z</time><name>PT1394</name></trkpt>
<trkpt lat="52.085860" lon="05.649136"><ele>3.1</ele><time>2022-04-13T11:23:55Z</time><name>PT1395</name></trkpt>
<trkpt lat="52.085862" lon="05.649127"><ele>3</ele><time>2022-04-13T11:23:56Z</time><name>PT1396</name></trkpt>
<trkpt lat="52.085868" lon="05.649126"><ele>2.9</ele><time>2022-04-13T11:23:57Z</time><name>PT1397</name></trkpt>
<trkpt lat="52.085866" lon="05.649120"><ele>2.6</ele><time>2022-04-13T11:24:19Z</time><name>PT1398</name></trkpt>
<trkpt lat="52.085866" lon="05.649120"><ele>2.5</ele><time>2022-04-13T11:24:20Z</time><name>PT1399</name></trkpt>
<trkpt lat="52.085864" lon="05.649122"><ele>2.6</ele><time>2022-04-13T11:24:21Z</time><name>PT1400</name></trkpt>
<trkpt lat="52.085862" lon="05.649124"><ele>2.7</ele><time>2022-04-13T11:24:28Z</time><name>PT1401</name></trkpt>
<trkpt lat="52.085862" lon="05.649131"><ele>2.6</ele><time>2022-04-13T11:24:29Z</time><name>PT1402</name></trkpt>
<trkpt lat="52.085863" lon="05.649135"><ele>2.7</ele><time>2022-04-13T11:24:30Z</time><name>PT1403</name></trkpt>
<trkpt lat="52.085864" lon="05.649128"><ele>2.8</ele><time>2022-04-13T11:24:41Z</time><name>PT1404</name></trkpt>
<trkpt lat="52.085862" lon="05.649135"><ele>2.9</ele><time>2022-04-13T11:24:42Z</time><name>PT1405</name></trkpt>
<trkpt lat="52.085864" lon="05.649138"><ele>2.8</ele><time>2022-04-13T11:24:43Z</time><name>PT1406</name></trkpt>
<trkpt lat="52.085861" lon="05.649138"><ele>2.8</ele><time>2022-04-13T11:24:44Z</time><name>PT1407</name></trkpt>
<trkpt lat="52.085861" lon="05.649145"><ele>2.7</ele><time>2022-04-13T11:24:45Z</time><name>PT1408</name></trkpt>
<trkpt lat="52.085862" lon="05.649152"><ele>3</ele><time>2022-04-13T11:24:46Z</time><name>PT1409</name></trkpt>
<trkpt lat="52.085866" lon="05.649152"><ele>2.8</ele><time>2022-04-13T11:24:47Z</time><name>PT1410</name></trkpt>
<trkpt lat="52.085865" lon="05.649162"><ele>2.7</ele><time>2022-04-13T11:24:49Z</time><name>PT1411</name></trkpt>
<trkpt lat="52.085858" lon="05.649178"><ele>2.7</ele><time>2022-04-13T11:24:50Z</time><name>PT1412</name></trkpt>
<trkpt lat="52.085850" lon="05.649187"><ele>2.6</ele><time>2022-04-13T11:24:51Z</time><name>PT1413</name></trkpt>
<trkpt lat="52.085841" lon="05.649202"><ele>2.9</ele><time>2022-04-13T11:24:52Z</time><name>PT1414</name></trkpt>
<trkpt lat="52.085834" lon="05.649217"><ele>2.9</ele><time>2022-04-13T11:24:53Z</time><name>PT1415</name></trkpt>
<trkpt lat="52.085820" lon="05.649227"><ele>3</ele><time>2022-04-13T11:24:54Z</time><name>PT1416</name></trkpt>
<trkpt lat="52.085809" lon="05.649242"><ele>3</ele><time>2022-04-13T11:24:55Z</time><name>PT1417</name></trkpt>
<trkpt lat="52.085799" lon="05.649258"><ele>3.1</ele><time>2022-04-13T11:24:56Z</time><name>PT1418</name></trkpt>
<trkpt lat="52.085788" lon="05.649274"><ele>3.1</ele><time>2022-04-13T11:24:57Z</time><name>PT1419</name></trkpt>
<trkpt lat="52.085782" lon="05.649285"><ele>2.8</ele><time>2022-04-13T11:24:58Z</time><name>PT1420</name></trkpt>
<trkpt lat="52.085775" lon="05.649294"><ele>2.6</ele><time>2022-04-13T11:24:59Z</time><name>PT1421</name></trkpt>
<trkpt lat="52.085768" lon="05.649302"><ele>2.6</ele><time>2022-04-13T11:25:00Z</time><name>PT1422</name></trkpt>
<trkpt lat="52.085758" lon="05.649309"><ele>2.6</ele><time>2022-04-13T11:25:01Z</time><name>PT1423</name></trkpt>
<trkpt lat="52.085747" lon="05.649320"><ele>2.7</ele><time>2022-04-13T11:25:02Z</time><name>PT1424</name></trkpt>
<trkpt lat="52.085738" lon="05.649326"><ele>2.8</ele><time>2022-04-13T11:25:03Z</time><name>PT1425</name></trkpt>
<trkpt lat="52.085733" lon="05.649329"><ele>2.8</ele><time>2022-04-13T11:25:04Z</time><name>PT1426</name></trkpt>
<trkpt lat="52.085726" lon="05.649339"><ele>2.8</ele><time>2022-04-13T11:25:05Z</time><name>PT1427</name></trkpt>
<trkpt lat="52.085722" lon="05.649346"><ele>2.8</ele><time>2022-04-13T11:25:06Z</time><name>PT1428</name></trkpt>
<trkpt lat="52.085717" lon="05.649351"><ele>2.7</ele><time>2022-04-13T11:25:07Z</time><name>PT1429</name></trkpt>
<trkpt lat="52.085711" lon="05.649355"><ele>2.7</ele><time>2022-04-13T11:25:08Z</time><name>PT1430</name></trkpt>
<trkpt lat="52.085703" lon="05.649356"><ele>2.9</ele><time>2022-04-13T11:25:09Z</time><name>PT1431</name></trkpt>
<trkpt lat="52.085698" lon="05.649360"><ele>2.9</ele><time>2022-04-13T11:25:10Z</time><name>PT1432</name></trkpt>
<trkpt lat="52.085694" lon="05.649365"><ele>2.9</ele><time>2022-04-13T11:25:11Z</time><name>PT1433</name></trkpt>
<trkpt lat="52.085694" lon="05.649367"><ele>2.9</ele><time>2022-04-13T11:25:12Z</time><name>PT1434</name></trkpt>
<trkpt lat="52.085691" lon="05.649369"><ele>2.9</ele><time>2022-04-13T11:25:13Z</time><name>PT1435</name></trkpt>
<trkpt lat="52.085687" lon="05.649367"><ele>3</ele><time>2022-04-13T11:25:14Z</time><name>PT1436</name></trkpt>
<trkpt lat="52.085685" lon="05.649358"><ele>3</ele><time>2022-04-13T11:25:15Z</time><name>PT1437</name></trkpt>
<trkpt lat="52.085683" lon="05.649351"><ele>2.9</ele><time>2022-04-13T11:25:16Z</time><name>PT1438</name></trkpt>
<trkpt lat="52.085683" lon="05.649334"><ele>2.9</ele><time>2022-04-13T11:25:17Z</time><name>PT1439</name></trkpt>
<trkpt lat="52.085679" lon="05.649319"><ele>2.8</ele><time>2022-04-13T11:25:18Z</time><name>PT1440</name></trkpt>
<trkpt lat="52.085681" lon="05.649305"><ele>2.9</ele><time>2022-04-13T11:25:19Z</time><name>PT1441</name></trkpt>
<trkpt lat="52.085678" lon="05.649289"><ele>2.7</ele><time>2022-04-13T11:25:20Z</time><name>PT1442</name></trkpt>
<trkpt lat="52.085679" lon="05.649277"><ele>2.7</ele><time>2022-04-13T11:25:21Z</time><name>PT1443</name></trkpt>
<trkpt lat="52.085685" lon="05.649268"><ele>2.7</ele><time>2022-04-13T11:25:22Z</time><name>PT1444</name></trkpt>
<trkpt lat="52.085688" lon="05.649255"><ele>2.9</ele><time>2022-04-13T11:25:23Z</time><name>PT1445</name></trkpt>
<trkpt lat="52.085686" lon="05.649246"><ele>2.8</ele><time>2022-04-13T11:25:24Z</time><name>PT1446</name></trkpt>
<trkpt lat="52.085689" lon="05.649237"><ele>2.9</ele><time>2022-04-13T11:25:25Z</time><name>PT1447</name></trkpt>
<trkpt lat="52.085689" lon="05.649219"><ele>3.1</ele><time>2022-04-13T11:25:26Z</time><name>PT1448</name></trkpt>
<trkpt lat="52.085684" lon="05.649204"><ele>3.2</ele><time>2022-04-13T11:25:27Z</time><name>PT1449</name></trkpt>
<trkpt lat="52.085683" lon="05.649187"><ele>3.1</ele><time>2022-04-13T11:25:28Z</time><name>PT1450</name></trkpt>
<trkpt lat="52.085681" lon="05.649168"><ele>3</ele><time>2022-04-13T11:25:29Z</time><name>PT1451</name></trkpt>
<trkpt lat="52.085681" lon="05.649155"><ele>2.7</ele><time>2022-04-13T11:25:30Z</time><name>PT1452</name></trkpt>
<trkpt lat="52.085679" lon="05.649142"><ele>2.7</ele><time>2022-04-13T11:25:31Z</time><name>PT1453</name></trkpt>
<trkpt lat="52.085678" lon="05.649132"><ele>2.6</ele><time>2022-04-13T11:25:32Z</time><name>PT1454</name></trkpt>
<trkpt lat="52.085674" lon="05.649117"><ele>2.6</ele><time>2022-04-13T11:25:33Z</time><name>PT1455</name></trkpt>
<trkpt lat="52.085674" lon="05.649106"><ele>2.6</ele><time>2022-04-13T11:25:34Z</time><name>PT1456</name></trkpt>
<trkpt lat="52.085675" lon="05.649098"><ele>2.6</ele><time>2022-04-13T11:25:35Z</time><name>PT1457</name></trkpt>
<trkpt lat="52.085675" lon="05.649096"><ele>2.6</ele><time>2022-04-13T11:25:36Z</time><name>PT1458</name></trkpt>
<trkpt lat="52.085680" lon="05.649101"><ele>2.7</ele><time>2022-04-13T11:25:37Z</time><name>PT1459</name></trkpt>
<trkpt lat="52.085682" lon="05.649086"><ele>2.7</ele><time>2022-04-13T11:25:39Z</time><name>PT1460</name></trkpt>
<trkpt lat="52.085681" lon="05.649079"><ele>2.7</ele><time>2022-04-13T11:25:40Z</time><name>PT1461</name></trkpt>
<trkpt lat="52.085678" lon="05.649068"><ele>2.6</ele><time>2022-04-13T11:25:41Z</time><name>PT1462</name></trkpt>
<trkpt lat="52.085678" lon="05.649053"><ele>2.6</ele><time>2022-04-13T11:25:42Z</time><name>PT1463</name></trkpt>
<trkpt lat="52.085679" lon="05.649033"><ele>2.6</ele><time>2022-04-13T11:25:43Z</time><name>PT1464</name></trkpt>
<trkpt lat="52.085682" lon="05.649016"><ele>2.4</ele><time>2022-04-13T11:25:44Z</time><name>PT1465</name></trkpt>
<trkpt lat="52.085684" lon="05.649004"><ele>2.4</ele><time>2022-04-13T11:25:45Z</time><name>PT1466</name></trkpt>
<trkpt lat="52.085686" lon="05.648987"><ele>2.3</ele><time>2022-04-13T11:25:46Z</time><name>PT1467</name></trkpt>
<trkpt lat="52.085686" lon="05.648960"><ele>2.2</ele><time>2022-04-13T11:25:48Z</time><name>PT1468</name></trkpt>
<trkpt lat="52.085682" lon="05.648942"><ele>2.4</ele><time>2022-04-13T11:25:49Z</time><name>PT1469</name></trkpt>
<trkpt lat="52.085676" lon="05.648926"><ele>2.4</ele><time>2022-04-13T11:25:50Z</time><name>PT1470</name></trkpt>
<trkpt lat="52.085673" lon="05.648906"><ele>2.5</ele><time>2022-04-13T11:25:51Z</time><name>PT1471</name></trkpt>
<trkpt lat="52.085671" lon="05.648895"><ele>2.6</ele><time>2022-04-13T11:25:52Z</time><name>PT1472</name></trkpt>
<trkpt lat="52.085671" lon="05.648880"><ele>2.6</ele><time>2022-04-13T11:25:53Z</time><name>PT1473</name></trkpt>
<trkpt lat="52.085669" lon="05.648854"><ele>2.3</ele><time>2022-04-13T11:25:54Z</time><name>PT1474</name></trkpt>
<trkpt lat="52.085677" lon="05.648840"><ele>2.2</ele><time>2022-04-13T11:25:55Z</time><name>PT1475</name></trkpt>
<trkpt lat="52.085675" lon="05.648830"><ele>2.1</ele><time>2022-04-13T11:25:56Z</time><name>PT1476</name></trkpt>
<trkpt lat="52.085674" lon="05.648823"><ele>2.2</ele><time>2022-04-13T11:25:57Z</time><name>PT1477</name></trkpt>
<trkpt lat="52.085673" lon="05.648813"><ele>2.3</ele><time>2022-04-13T11:25:58Z</time><name>PT1478</name></trkpt>
<trkpt lat="52.085673" lon="05.648802"><ele>2.2</ele><time>2022-04-13T11:25:59Z</time><name>PT1479</name></trkpt>
<trkpt lat="52.085674" lon="05.648778"><ele>2.1</ele><time>2022-04-13T11:26:00Z</time><name>PT1480</name></trkpt>
<trkpt lat="52.085667" lon="05.648750"><ele>2.2</ele><time>2022-04-13T11:26:01Z</time><name>PT1481</name></trkpt>
<trkpt lat="52.085666" lon="05.648721"><ele>2</ele><time>2022-04-13T11:26:02Z</time><name>PT1482</name></trkpt>
<trkpt lat="52.085666" lon="05.648701"><ele>1.8</ele><time>2022-04-13T11:26:03Z</time><name>PT1483</name></trkpt>
<trkpt lat="52.085658" lon="05.648678"><ele>1.9</ele><time>2022-04-13T11:26:04Z</time><name>PT1484</name></trkpt>
<trkpt lat="52.085654" lon="05.648666"><ele>2</ele><time>2022-04-13T11:26:05Z</time><name>PT1485</name></trkpt>
<trkpt lat="52.085649" lon="05.648644"><ele>2.1</ele><time>2022-04-13T11:26:06Z</time><name>PT1486</name></trkpt>
<trkpt lat="52.085647" lon="05.648622"><ele>2.1</ele><time>2022-04-13T11:26:07Z</time><name>PT1487</name></trkpt>
<trkpt lat="52.085645" lon="05.648600"><ele>2.1</ele><time>2022-04-13T11:26:08Z</time><name>PT1488</name></trkpt>
<trkpt lat="52.085645" lon="05.648580"><ele>2</ele><time>2022-04-13T11:26:09Z</time><name>PT1489</name></trkpt>
<trkpt lat="52.085643" lon="05.648564"><ele>1.9</ele><time>2022-04-13T11:26:10Z</time><name>PT1490</name></trkpt>
<trkpt lat="52.085647" lon="05.648554"><ele>1.7</ele><time>2022-04-13T11:26:11Z</time><name>PT1491</name></trkpt>
<trkpt lat="52.085645" lon="05.648542"><ele>1.7</ele><time>2022-04-13T11:26:12Z</time><name>PT1492</name></trkpt>
<trkpt lat="52.085640" lon="05.648517"><ele>1.4</ele><time>2022-04-13T11:26:13Z</time><name>PT1493</name></trkpt>
<trkpt lat="52.085638" lon="05.648503"><ele>1.6</ele><time>2022-04-13T11:26:14Z</time><name>PT1494</name></trkpt>
<trkpt lat="52.085636" lon="05.648488"><ele>1.5</ele><time>2022-04-13T11:26:15Z</time><name>PT1495</name></trkpt>
<trkpt lat="52.085638" lon="05.648477"><ele>1.4</ele><time>2022-04-13T11:26:16Z</time><name>PT1496</name></trkpt>
<trkpt lat="52.085629" lon="05.648462"><ele>1.4</ele><time>2022-04-13T11:26:17Z</time><name>PT1497</name></trkpt>
<trkpt lat="52.085623" lon="05.648442"><ele>1.6</ele><time>2022-04-13T11:26:18Z</time><name>PT1498</name></trkpt>
<trkpt lat="52.085621" lon="05.648425"><ele>1.5</ele><time>2022-04-13T11:26:19Z</time><name>PT1499</name></trkpt>
<trkpt lat="52.085618" lon="05.648406"><ele>1.3</ele><time>2022-04-13T11:26:20Z</time><name>PT1500</name></trkpt>
<trkpt lat="52.085617" lon="05.648399"><ele>1.1</ele><time>2022-04-13T11:26:21Z</time><name>PT1501</name></trkpt>
<trkpt lat="52.085616" lon="05.648381"><ele>1.1</ele><time>2022-04-13T11:26:22Z</time><name>PT1502</name></trkpt>
<trkpt lat="52.085613" lon="05.648367"><ele>0.9</ele><time>2022-04-13T11:26:23Z</time><name>PT1503</name></trkpt>
<trkpt lat="52.085610" lon="05.648358"><ele>0.9</ele><time>2022-04-13T11:26:24Z</time><name>PT1504</name></trkpt>
<trkpt lat="52.085606" lon="05.648344"><ele>1.1</ele><time>2022-04-13T11:26:25Z</time><name>PT1505</name></trkpt>
<trkpt lat="52.085605" lon="05.648335"><ele>1.1</ele><time>2022-04-13T11:26:26Z</time><name>PT1506</name></trkpt>
<trkpt lat="52.085607" lon="05.648328"><ele>1.1</ele><time>2022-04-13T11:26:27Z</time><name>PT1507</name></trkpt>
<trkpt lat="52.085612" lon="05.648318"><ele>1.2</ele><time>2022-04-13T11:26:28Z</time><name>PT1508</name></trkpt>
<trkpt lat="52.085615" lon="05.648302"><ele>1.1</ele><time>2022-04-13T11:26:29Z</time><name>PT1509</name></trkpt>
<trkpt lat="52.085613" lon="05.648289"><ele>1.1</ele><time>2022-04-13T11:26:30Z</time><name>PT1510</name></trkpt>
<trkpt lat="52.085610" lon="05.648276"><ele>1.1</ele><time>2022-04-13T11:26:31Z</time><name>PT1511</name></trkpt>
<trkpt lat="52.085613" lon="05.648269"><ele>1.1</ele><time>2022-04-13T11:26:32Z</time><name>PT1512</name></trkpt>
<trkpt lat="52.085615" lon="05.648248"><ele>1.1</ele><time>2022-04-13T11:26:33Z</time><name>PT1513</name></trkpt>
<trkpt lat="52.085616" lon="05.648228"><ele>1.1</ele><time>2022-04-13T11:26:34Z</time><name>PT1514</name></trkpt>
<trkpt lat="52.085619" lon="05.648215"><ele>0.8</ele><time>2022-04-13T11:26:35Z</time><name>PT1515</name></trkpt>
<trkpt lat="52.085620" lon="05.648205"><ele>0.7</ele><time>2022-04-13T11:26:36Z</time><name>PT1516</name></trkpt>
<trkpt lat="52.085617" lon="05.648187"><ele>0.7</ele><time>2022-04-13T11:26:37Z</time><name>PT1517</name></trkpt>
<trkpt lat="52.085612" lon="05.648158"><ele>0.7</ele><time>2022-04-13T11:26:38Z</time><name>PT1518</name></trkpt>
<trkpt lat="52.085610" lon="05.648136"><ele>0.8</ele><time>2022-04-13T11:26:39Z</time><name>PT1519</name></trkpt>
<trkpt lat="52.085607" lon="05.648128"><ele>0.7</ele><time>2022-04-13T11:26:40Z</time><name>PT1520</name></trkpt>
<trkpt lat="52.085603" lon="05.648122"><ele>0.8</ele><time>2022-04-13T11:26:41Z</time><name>PT1521</name></trkpt>
<trkpt lat="52.085599" lon="05.648100"><ele>0.9</ele><time>2022-04-13T11:26:42Z</time><name>PT1522</name></trkpt>
<trkpt lat="52.085602" lon="05.648073"><ele>1</ele><time>2022-04-13T11:26:43Z</time><name>PT1523</name></trkpt>
<trkpt lat="52.085602" lon="05.648043"><ele>1</ele><time>2022-04-13T11:26:44Z</time><name>PT1524</name></trkpt>
<trkpt lat="52.085600" lon="05.648025"><ele>1</ele><time>2022-04-13T11:26:45Z</time><name>PT1525</name></trkpt>
<trkpt lat="52.085594" lon="05.648026"><ele>1</ele><time>2022-04-13T11:26:46Z</time><name>PT1526</name></trkpt>
<trkpt lat="52.085592" lon="05.648023"><ele>0.9</ele><time>2022-04-13T11:26:47Z</time><name>PT1527</name></trkpt>
<trkpt lat="52.085589" lon="05.648017"><ele>0.7</ele><time>2022-04-13T11:26:48Z</time><name>PT1528</name></trkpt>
<trkpt lat="52.085589" lon="05.648013"><ele>0.6</ele><time>2022-04-13T11:26:49Z</time><name>PT1529</name></trkpt>
<trkpt lat="52.085587" lon="05.648005"><ele>0.6</ele><time>2022-04-13T11:26:50Z</time><name>PT1530</name></trkpt>
<trkpt lat="52.085584" lon="05.647992"><ele>0.7</ele><time>2022-04-13T11:26:51Z</time><name>PT1531</name></trkpt>
<trkpt lat="52.085580" lon="05.647986"><ele>0.6</ele><time>2022-04-13T11:26:52Z</time><name>PT1532</name></trkpt>
<trkpt lat="52.085576" lon="05.647978"><ele>0.6</ele><time>2022-04-13T11:26:53Z</time><name>PT1533</name></trkpt>
<trkpt lat="52.085578" lon="05.647965"><ele>0.5</ele><time>2022-04-13T11:26:54Z</time><name>PT1534</name></trkpt>
<trkpt lat="52.085578" lon="05.647951"><ele>0.4</ele><time>2022-04-13T11:26:55Z</time><name>PT1535</name></trkpt>
<trkpt lat="52.085576" lon="05.647937"><ele>0.4</ele><time>2022-04-13T11:26:56Z</time><name>PT1536</name></trkpt>
<trkpt lat="52.085574" lon="05.647927"><ele>0.2</ele><time>2022-04-13T11:26:57Z</time><name>PT1537</name></trkpt>
<trkpt lat="52.085580" lon="05.647919"><ele>0.3</ele><time>2022-04-13T11:26:58Z</time><name>PT1538</name></trkpt>
<trkpt lat="52.085578" lon="05.647906"><ele>0.2</ele><time>2022-04-13T11:26:59Z</time><name>PT1539</name></trkpt>
<trkpt lat="52.085571" lon="05.647889"><ele>0.1</ele><time>2022-04-13T11:27:00Z</time><name>PT1540</name></trkpt>
<trkpt lat="52.085567" lon="05.647872"><ele>0</ele><time>2022-04-13T11:27:01Z</time><name>PT1541</name></trkpt>
<trkpt lat="52.085568" lon="05.647854"><ele>0.1</ele><time>2022-04-13T11:27:02Z</time><name>PT1542</name></trkpt>
<trkpt lat="52.085570" lon="05.647845"><ele>0.1</ele><time>2022-04-13T11:27:03Z</time><name>PT1543</name></trkpt>
<trkpt lat="52.085571" lon="05.647827"><ele>0.1</ele><time>2022-04-13T11:27:04Z</time><name>PT1544</name></trkpt>
<trkpt lat="52.085570" lon="05.647806"><ele>0.1</ele><time>2022-04-13T11:27:05Z</time><name>PT1545</name></trkpt>
<trkpt lat="52.085569" lon="05.647778"><ele>0</ele><time>2022-04-13T11:27:06Z</time><name>PT1546</name></trkpt>
<trkpt lat="52.085565" lon="05.647759"><ele>0</ele><time>2022-04-13T11:27:07Z</time><name>PT1547</name></trkpt>
<trkpt lat="52.085564" lon="05.647755"><ele>0</ele><time>2022-04-13T11:27:08Z</time><name>PT1548</name></trkpt>
<trkpt lat="52.085565" lon="05.647736"><ele>0.1</ele><time>2022-04-13T11:27:09Z</time><name>PT1549</name></trkpt>
<trkpt lat="52.085569" lon="05.647710"><ele>0.1</ele><time>2022-04-13T11:27:10Z</time><name>PT1550</name></trkpt>
<trkpt lat="52.085568" lon="05.647694"><ele>0.2</ele><time>2022-04-13T11:27:11Z</time><name>PT1551</name></trkpt>
<trkpt lat="52.085568" lon="05.647678"><ele>0.1</ele><time>2022-04-13T11:27:12Z</time><name>PT1552</name></trkpt>
<trkpt lat="52.085569" lon="05.647666"><ele>0.1</ele><time>2022-04-13T11:27:13Z</time><name>PT1553</name></trkpt>
<trkpt lat="52.085571" lon="05.647644"><ele>0.1</ele><time>2022-04-13T11:27:14Z</time><name>PT1554</name></trkpt>
<trkpt lat="52.085572" lon="05.647621"><ele>0.2</ele><time>2022-04-13T11:27:15Z</time><name>PT1555</name></trkpt>
<trkpt lat="52.085574" lon="05.647601"><ele>0.2</ele><time>2022-04-13T11:27:16Z</time><name>PT1556</name></trkpt>
<trkpt lat="52.085568" lon="05.647587"><ele>0.2</ele><time>2022-04-13T11:27:17Z</time><name>PT1557</name></trkpt>
<trkpt lat="52.085570" lon="05.647578"><ele>0.2</ele><time>2022-04-13T11:27:18Z</time><name>PT1558</name></trkpt>
<trkpt lat="52.085570" lon="05.647556"><ele>0.2</ele><time>2022-04-13T11:27:19Z</time><name>PT1559</name></trkpt>
<trkpt lat="52.085575" lon="05.647534"><ele>0.2</ele><time>2022-04-13T11:27:20Z</time><name>PT1560</name></trkpt>
<trkpt lat="52.085577" lon="05.647515"><ele>0.3</ele><time>2022-04-13T11:27:21Z</time><name>PT1561</name></trkpt>
<trkpt lat="52.085577" lon="05.647502"><ele>0.5</ele><time>2022-04-13T11:27:22Z</time><name>PT1562</name></trkpt>
<trkpt lat="52.085581" lon="05.647491"><ele>0.5</ele><time>2022-04-13T11:27:23Z</time><name>PT1563</name></trkpt>
<trkpt lat="52.085582" lon="05.647480"><ele>0.6</ele><time>2022-04-13T11:27:24Z</time><name>PT1564</name></trkpt>
<trkpt lat="52.085581" lon="05.647459"><ele>0.7</ele><time>2022-04-13T11:27:25Z</time><name>PT1565</name></trkpt>
<trkpt lat="52.085580" lon="05.647432"><ele>0.7</ele><time>2022-04-13T11:27:26Z</time><name>PT1566</name></trkpt>
<trkpt lat="52.085581" lon="05.647413"><ele>0.7</ele><time>2022-04-13T11:27:27Z</time><name>PT1567</name></trkpt>
<trkpt lat="52.085586" lon="05.647399"><ele>0.7</ele><time>2022-04-13T11:27:28Z</time><name>PT1568</name></trkpt>
<trkpt lat="52.085589" lon="05.647392"><ele>0.7</ele><time>2022-04-13T11:27:29Z</time><name>PT1569</name></trkpt>
<trkpt lat="52.085587" lon="05.647375"><ele>0.7</ele><time>2022-04-13T11:27:30Z</time><name>PT1570</name></trkpt>
<trkpt lat="52.085591" lon="05.647353"><ele>0.7</ele><time>2022-04-13T11:27:31Z</time><name>PT1571</name></trkpt>
<trkpt lat="52.085593" lon="05.647329"><ele>0.9</ele><time>2022-04-13T11:27:32Z</time><name>PT1572</name></trkpt>
<trkpt lat="52.085593" lon="05.647301"><ele>0.9</ele><time>2022-04-13T11:27:33Z</time><name>PT1573</name></trkpt>
<trkpt lat="52.085596" lon="05.647285"><ele>0.8</ele><time>2022-04-13T11:27:34Z</time><name>PT1574</name></trkpt>
<trkpt lat="52.085601" lon="05.647272"><ele>0.9</ele><time>2022-04-13T11:27:35Z</time><name>PT1575</name></trkpt>
<trkpt lat="52.085600" lon="05.647256"><ele>0.8</ele><time>2022-04-13T11:27:36Z</time><name>PT1576</name></trkpt>
<trkpt lat="52.085596" lon="05.647230"><ele>0.8</ele><time>2022-04-13T11:27:37Z</time><name>PT1577</name></trkpt>
<trkpt lat="52.085605" lon="05.647210"><ele>-1.1</ele><time>2022-04-13T11:27:38Z</time><name>PT1578</name></trkpt>
<trkpt lat="52.085613" lon="05.647199"><ele>-1.2</ele><time>2022-04-13T11:27:39Z</time><name>PT1579</name></trkpt>
<trkpt lat="52.085613" lon="05.647189"><ele>-1.3</ele><time>2022-04-13T11:27:40Z</time><name>PT1580</name></trkpt>
<trkpt lat="52.085610" lon="05.647178"><ele>-1.5</ele><time>2022-04-13T11:27:41Z</time><name>PT1581</name></trkpt>
<trkpt lat="52.085609" lon="05.647161"><ele>-1.6</ele><time>2022-04-13T11:27:42Z</time><name>PT1582</name></trkpt>
<trkpt lat="52.085612" lon="05.647135"><ele>-1.6</ele><time>2022-04-13T11:27:43Z</time><name>PT1583</name></trkpt>
<trkpt lat="52.085612" lon="05.647113"><ele>-1.7</ele><time>2022-04-13T11:27:44Z</time><name>PT1584</name></trkpt>
<trkpt lat="52.085614" lon="05.647100"><ele>-1.6</ele><time>2022-04-13T11:27:45Z</time><name>PT1585</name></trkpt>
<trkpt lat="52.085614" lon="05.647090"><ele>-1.6</ele><time>2022-04-13T11:27:46Z</time><name>PT1586</name></trkpt>
<trkpt lat="52.085619" lon="05.647076"><ele>-1.6</ele><time>2022-04-13T11:27:47Z</time><name>PT1587</name></trkpt>
<trkpt lat="52.085616" lon="05.647053"><ele>-1.6</ele><time>2022-04-13T11:27:48Z</time><name>PT1588</name></trkpt>
<trkpt lat="52.085611" lon="05.647035"><ele>-1.7</ele><time>2022-04-13T11:27:49Z</time><name>PT1589</name></trkpt>
<trkpt lat="52.085611" lon="05.647024"><ele>-1.7</ele><time>2022-04-13T11:27:50Z</time><name>PT1590</name></trkpt>
<trkpt lat="52.085616" lon="05.647015"><ele>-1.8</ele><time>2022-04-13T11:27:51Z</time><name>PT1591</name></trkpt>
<trkpt lat="52.085616" lon="05.647002"><ele>-2</ele><time>2022-04-13T11:27:52Z</time><name>PT1592</name></trkpt>
<trkpt lat="52.085615" lon="05.646996"><ele>-1.9</ele><time>2022-04-13T11:27:53Z</time><name>PT1593</name></trkpt>
<trkpt lat="52.085615" lon="05.646989"><ele>-2</ele><time>2022-04-13T11:27:54Z</time><name>PT1594</name></trkpt>
<trkpt lat="52.085614" lon="05.646984"><ele>-2</ele><time>2022-04-13T11:27:55Z</time><name>PT1595</name></trkpt>
<trkpt lat="52.085615" lon="05.646982"><ele>-2</ele><time>2022-04-13T11:27:56Z</time><name>PT1596</name></trkpt>
<trkpt lat="52.085618" lon="05.646986"><ele>-2</ele><time>2022-04-13T11:27:57Z</time><name>PT1597</name></trkpt>
<trkpt lat="52.085617" lon="05.646984"><ele>-2.1</ele><time>2022-04-13T11:27:58Z</time><name>PT1598</name></trkpt>
<trkpt lat="52.085615" lon="05.646981"><ele>-1.9</ele><time>2022-04-13T11:27:59Z</time><name>PT1599</name></trkpt>
<trkpt lat="52.085615" lon="05.646973"><ele>-2</ele><time>2022-04-13T11:28:00Z</time><name>PT1600</name></trkpt>
<trkpt lat="52.085612" lon="05.646969"><ele>-1.7</ele><time>2022-04-13T11:28:01Z</time><name>PT1601</name></trkpt>
<trkpt lat="52.085614" lon="05.646971"><ele>-1.7</ele><time>2022-04-13T11:28:02Z</time><name>PT1602</name></trkpt>
<trkpt lat="52.085614" lon="05.646960"><ele>-1.7</ele><time>2022-04-13T11:28:03Z</time><name>PT1603</name></trkpt>
<trkpt lat="52.085609" lon="05.646950"><ele>-1.7</ele><time>2022-04-13T11:28:04Z</time><name>PT1604</name></trkpt>
<trkpt lat="52.085605" lon="05.646937"><ele>-1.7</ele><time>2022-04-13T11:28:05Z</time><name>PT1605</name></trkpt>
<trkpt lat="52.085604" lon="05.646927"><ele>-1.7</ele><time>2022-04-13T11:28:06Z</time><name>PT1606</name></trkpt>
<trkpt lat="52.085598" lon="05.646908"><ele>-1.9</ele><time>2022-04-13T11:28:07Z</time><name>PT1607</name></trkpt>
<trkpt lat="52.085586" lon="05.646884"><ele>-2</ele><time>2022-04-13T11:28:08Z</time><name>PT1608</name></trkpt>
<trkpt lat="52.085592" lon="05.646869"><ele>-1.8</ele><time>2022-04-13T11:28:09Z</time><name>PT1609</name></trkpt>
<trkpt lat="52.085587" lon="05.646843"><ele>-1.8</ele><time>2022-04-13T11:28:10Z</time><name>PT1610</name></trkpt>
<trkpt lat="52.085591" lon="05.646823"><ele>-1.8</ele><time>2022-04-13T11:28:11Z</time><name>PT1611</name></trkpt>
<trkpt lat="52.085585" lon="05.646798"><ele>-1.7</ele><time>2022-04-13T11:28:12Z</time><name>PT1612</name></trkpt>
<trkpt lat="52.085583" lon="05.646780"><ele>-1.7</ele><time>2022-04-13T11:28:13Z</time><name>PT1613</name></trkpt>
<trkpt lat="52.085576" lon="05.646761"><ele>-1.8</ele><time>2022-04-13T11:28:14Z</time><name>PT1614</name></trkpt>
<trkpt lat="52.085565" lon="05.646741"><ele>-1.8</ele><time>2022-04-13T11:28:15Z</time><name>PT1615</name></trkpt>
<trkpt lat="52.085563" lon="05.646730"><ele>-1.8</ele><time>2022-04-13T11:28:16Z</time><name>PT1616</name></trkpt>
<trkpt lat="52.085559" lon="05.646710"><ele>-1.9</ele><time>2022-04-13T11:28:17Z</time><name>PT1617</name></trkpt>
<trkpt lat="52.085561" lon="05.646700"><ele>-2</ele><time>2022-04-13T11:28:18Z</time><name>PT1618</name></trkpt>
<trkpt lat="52.085560" lon="05.646685"><ele>-2</ele><time>2022-04-13T11:28:19Z</time><name>PT1619</name></trkpt>
<trkpt lat="52.085555" lon="05.646662"><ele>-2</ele><time>2022-04-13T11:28:20Z</time><name>PT1620</name></trkpt>
<trkpt lat="52.085555" lon="05.646642"><ele>-2.2</ele><time>2022-04-13T11:28:21Z</time><name>PT1621</name></trkpt>
<trkpt lat="52.085558" lon="05.646634"><ele>-2.3</ele><time>2022-04-13T11:28:22Z</time><name>PT1622</name></trkpt>
<trkpt lat="52.085552" lon="05.646627"><ele>-2.3</ele><time>2022-04-13T11:28:23Z</time><name>PT1623</name></trkpt>
<trkpt lat="52.085537" lon="05.646618"><ele>-2.2</ele><time>2022-04-13T11:28:24Z</time><name>PT1624</name></trkpt>
<trkpt lat="52.085527" lon="05.646594"><ele>-2.2</ele><time>2022-04-13T11:28:25Z</time><name>PT1625</name></trkpt>
<trkpt lat="52.085526" lon="05.646571"><ele>-2.4</ele><time>2022-04-13T11:28:26Z</time><name>PT1626</name></trkpt>
<trkpt lat="52.085526" lon="05.646548"><ele>-2.4</ele><time>2022-04-13T11:28:27Z</time><name>PT1627</name></trkpt>
<trkpt lat="52.085523" lon="05.646537"><ele>-2.3</ele><time>2022-04-13T11:28:28Z</time><name>PT1628</name></trkpt>
<trkpt lat="52.085528" lon="05.646530"><ele>-2.4</ele><time>2022-04-13T11:28:29Z</time><name>PT1629</name></trkpt>
<trkpt lat="52.085535" lon="05.646512"><ele>-2.2</ele><time>2022-04-13T11:28:30Z</time><name>PT1630</name></trkpt>
<trkpt lat="52.085553" lon="05.646495"><ele>-2.2</ele><time>2022-04-13T11:28:31Z</time><name>PT1631</name></trkpt>
<trkpt lat="52.085572" lon="05.646488"><ele>-2</ele><time>2022-04-13T11:28:32Z</time><name>PT1632</name></trkpt>
<trkpt lat="52.085588" lon="05.646481"><ele>-2</ele><time>2022-04-13T11:28:33Z</time><name>PT1633</name></trkpt>
<trkpt lat="52.085598" lon="05.646476"><ele>-2</ele><time>2022-04-13T11:28:34Z</time><name>PT1634</name></trkpt>
<trkpt lat="52.085608" lon="05.646467"><ele>-2.1</ele><time>2022-04-13T11:28:35Z</time><name>PT1635</name></trkpt>
<trkpt lat="52.085620" lon="05.646455"><ele>-2.1</ele><time>2022-04-13T11:28:36Z</time><name>PT1636</name></trkpt>
<trkpt lat="52.085639" lon="05.646451"><ele>-2.1</ele><time>2022-04-13T11:28:37Z</time><name>PT1637</name></trkpt>
<trkpt lat="52.085646" lon="05.646448"><ele>-2.2</ele><time>2022-04-13T11:28:38Z</time><name>PT1638</name></trkpt>
<trkpt lat="52.085653" lon="05.646446"><ele>-2.1</ele><time>2022-04-13T11:28:39Z</time><name>PT1639</name></trkpt>
<trkpt lat="52.085655" lon="05.646439"><ele>-1.9</ele><time>2022-04-13T11:28:40Z</time><name>PT1640</name></trkpt>
<trkpt lat="52.085658" lon="05.646433"><ele>-1.9</ele><time>2022-04-13T11:28:41Z</time><name>PT1641</name></trkpt>
<trkpt lat="52.085665" lon="05.646437"><ele>-1.8</ele><time>2022-04-13T11:28:42Z</time><name>PT1642</name></trkpt>
<trkpt lat="52.085673" lon="05.646440"><ele>-1.7</ele><time>2022-04-13T11:28:43Z</time><name>PT1643</name></trkpt>
<trkpt lat="52.085676" lon="05.646442"><ele>-1.4</ele><time>2022-04-13T11:28:44Z</time><name>PT1644</name></trkpt>
<trkpt lat="52.085679" lon="05.646425"><ele>-1.4</ele><time>2022-04-13T11:28:46Z</time><name>PT1645</name></trkpt>
<trkpt lat="52.085681" lon="05.646408"><ele>-1.3</ele><time>2022-04-13T11:28:47Z</time><name>PT1646</name></trkpt>
<trkpt lat="52.085673" lon="05.646410"><ele>-1.5</ele><time>2022-04-13T11:28:48Z</time><name>PT1647</name></trkpt>
<trkpt lat="52.085668" lon="05.646404"><ele>-1.6</ele><time>2022-04-13T11:28:49Z</time><name>PT1648</name></trkpt>
<trkpt lat="52.085662" lon="05.646397"><ele>-1.7</ele><time>2022-04-13T11:28:50Z</time><name>PT1649</name></trkpt>
<trkpt lat="52.085662" lon="05.646394"><ele>-1.9</ele><time>2022-04-13T11:28:53Z</time><name>PT1650</name></trkpt>
<trkpt lat="52.085665" lon="05.646398"><ele>-1.7</ele><time>2022-04-13T11:28:54Z</time><name>PT1651</name></trkpt>
<trkpt lat="52.085668" lon="05.646393"><ele>-1.7</ele><time>2022-04-13T11:28:55Z</time><name>PT1652</name></trkpt>
<trkpt lat="52.085673" lon="05.646393"><ele>-1.7</ele><time>2022-04-13T11:28:58Z</time><name>PT1653</name></trkpt>
<trkpt lat="52.085679" lon="05.646387"><ele>-1.8</ele><time>2022-04-13T11:28:59Z</time><name>PT1654</name></trkpt>
<trkpt lat="52.085688" lon="05.646383"><ele>-2</ele><time>2022-04-13T11:29:00Z</time><name>PT1655</name></trkpt>
<trkpt lat="52.085702" lon="05.646376"><ele>-1.7</ele><time>2022-04-13T11:29:01Z</time><name>PT1656</name></trkpt>
<trkpt lat="52.085715" lon="05.646372"><ele>-1.7</ele><time>2022-04-13T11:29:02Z</time><name>PT1657</name></trkpt>
<trkpt lat="52.085721" lon="05.646370"><ele>-1.6</ele><time>2022-04-13T11:29:03Z</time><name>PT1658</name></trkpt>
<trkpt lat="52.085727" lon="05.646367"><ele>-1.6</ele><time>2022-04-13T11:29:04Z</time><name>PT1659</name></trkpt>
<trkpt lat="52.085736" lon="05.646359"><ele>-1.6</ele><time>2022-04-13T11:29:05Z</time><name>PT1660</name></trkpt>
<trkpt lat="52.085751" lon="05.646352"><ele>-1.7</ele><time>2022-04-13T11:29:06Z</time><name>PT1661</name></trkpt>
<trkpt lat="52.085768" lon="05.646345"><ele>-1.7</ele><time>2022-04-13T11:29:07Z</time><name>PT1662</name></trkpt>
<trkpt lat="52.085783" lon="05.646337"><ele>-1.7</ele><time>2022-04-13T11:29:08Z</time><name>PT1663</name></trkpt>
<trkpt lat="52.085788" lon="05.646332"><ele>-1.7</ele><time>2022-04-13T11:29:09Z</time><name>PT1664</name></trkpt>
<trkpt lat="52.085794" lon="05.646327"><ele>-1.6</ele><time>2022-04-13T11:29:10Z</time><name>PT1665</name></trkpt>
<trkpt lat="52.085801" lon="05.646316"><ele>-1.4</ele><time>2022-04-13T11:29:11Z</time><name>PT1666</name></trkpt>
<trkpt lat="52.085815" lon="05.646300"><ele>-1.4</ele><time>2022-04-13T11:29:12Z</time><name>PT1667</name></trkpt>
<trkpt lat="52.085831" lon="05.646289"><ele>-1.4</ele><time>2022-04-13T11:29:13Z</time><name>PT1668</name></trkpt>
<trkpt lat="52.085844" lon="05.646278"><ele>-1.3</ele><time>2022-04-13T11:29:14Z</time><name>PT1669</name></trkpt>
<trkpt lat="52.085860" lon="05.646273"><ele>-1.2</ele><time>2022-04-13T11:29:15Z</time><name>PT1670</name></trkpt>
<trkpt lat="52.085872" lon="05.646264"><ele>-1.2</ele><time>2022-04-13T11:29:16Z</time><name>PT1671</name></trkpt>
<trkpt lat="52.085877" lon="05.646259"><ele>-1.1</ele><time>2022-04-13T11:29:17Z</time><name>PT1672</name></trkpt>
<trkpt lat="52.085880" lon="05.646256"><ele>-1</ele><time>2022-04-13T11:29:18Z</time><name>PT1673</name></trkpt>
<trkpt lat="52.085883" lon="05.646247"><ele>-1</ele><time>2022-04-13T11:29:19Z</time><name>PT1674</name></trkpt>
<trkpt lat="52.085890" lon="05.646238"><ele>-1.1</ele><time>2022-04-13T11:29:20Z</time><name>PT1675</name></trkpt>
<trkpt lat="52.085903" lon="05.646224"><ele>-1.1</ele><time>2022-04-13T11:29:21Z</time><name>PT1676</name></trkpt>
<trkpt lat="52.085924" lon="05.646223"><ele>-1.1</ele><time>2022-04-13T11:29:22Z</time><name>PT1677</name></trkpt>
<trkpt lat="52.085939" lon="05.646217"><ele>-1.2</ele><time>2022-04-13T11:29:23Z</time><name>PT1678</name></trkpt>
<trkpt lat="52.085945" lon="05.646214"><ele>-1.1</ele><time>2022-04-13T11:29:24Z</time><name>PT1679</name></trkpt>
<trkpt lat="52.085950" lon="05.646211"><ele>-1</ele><time>2022-04-13T11:29:25Z</time><name>PT1680</name></trkpt>
<trkpt lat="52.085955" lon="05.646208"><ele>-1.1</ele><time>2022-04-13T11:29:26Z</time><name>PT1681</name></trkpt>
<trkpt lat="52.085966" lon="05.646198"><ele>0.7</ele><time>2022-04-13T11:29:27Z</time><name>PT1682</name></trkpt>
<trkpt lat="52.085979" lon="05.646187"><ele>0.6</ele><time>2022-04-13T11:29:28Z</time><name>PT1683</name></trkpt>
<trkpt lat="52.085992" lon="05.646178"><ele>0.3</ele><time>2022-04-13T11:29:29Z</time><name>PT1684</name></trkpt>
<trkpt lat="52.086007" lon="05.646170"><ele>0.2</ele><time>2022-04-13T11:29:30Z</time><name>PT1685</name></trkpt>
<trkpt lat="52.086016" lon="05.646165"><ele>0.2</ele><time>2022-04-13T11:29:31Z</time><name>PT1686</name></trkpt>
<trkpt lat="52.086023" lon="05.646163"><ele>0.2</ele><time>2022-04-13T11:29:32Z</time><name>PT1687</name></trkpt>
<trkpt lat="52.086026" lon="05.646162"><ele>0.2</ele><time>2022-04-13T11:29:33Z</time><name>PT1688</name></trkpt>
<trkpt lat="52.086031" lon="05.646161"><ele>0.2</ele><time>2022-04-13T11:29:34Z</time><name>PT1689</name></trkpt>
<trkpt lat="52.086037" lon="05.646153"><ele>0.1</ele><time>2022-04-13T11:29:35Z</time><name>PT1690</name></trkpt>
<trkpt lat="52.086051" lon="05.646145"><ele>0.1</ele><time>2022-04-13T11:29:36Z</time><name>PT1691</name></trkpt>
<trkpt lat="52.086065" lon="05.646137"><ele>0</ele><time>2022-04-13T11:29:37Z</time><name>PT1692</name></trkpt>
<trkpt lat="52.086079" lon="05.646131"><ele>0</ele><time>2022-04-13T11:29:38Z</time><name>PT1693</name></trkpt>
<trkpt lat="52.086092" lon="05.646125"><ele>0</ele><time>2022-04-13T11:29:39Z</time><name>PT1694</name></trkpt>
<trkpt lat="52.086099" lon="05.646123"><ele>0</ele><time>2022-04-13T11:29:40Z</time><name>PT1695</name></trkpt>
<trkpt lat="52.086103" lon="05.646123"><ele>0</ele><time>2022-04-13T11:29:41Z</time><name>PT1696</name></trkpt>
<trkpt lat="52.086107" lon="05.646121"><ele>0</ele><time>2022-04-13T11:29:42Z</time><name>PT1697</name></trkpt>
<trkpt lat="52.086116" lon="05.646117"><ele>0</ele><time>2022-04-13T11:29:43Z</time><name>PT1698</name></trkpt>
<trkpt lat="52.086133" lon="05.646114"><ele>0</ele><time>2022-04-13T11:29:44Z</time><name>PT1699</name></trkpt>
<trkpt lat="52.086149" lon="05.646111"><ele>0</ele><time>2022-04-13T11:29:45Z</time><name>PT1700</name></trkpt>
<trkpt lat="52.086159" lon="05.646107"><ele>0.1</ele><time>2022-04-13T11:29:46Z</time><name>PT1701</name></trkpt>
<trkpt lat="52.086164" lon="05.646103"><ele>0.1</ele><time>2022-04-13T11:29:47Z</time><name>PT1702</name></trkpt>
<trkpt lat="52.086172" lon="05.646096"><ele>0</ele><time>2022-04-13T11:29:48Z</time><name>PT1703</name></trkpt>
<trkpt lat="52.086180" lon="05.646087"><ele>0.1</ele><time>2022-04-13T11:29:49Z</time><name>PT1704</name></trkpt>
<trkpt lat="52.086192" lon="05.646076"><ele>0.5</ele><time>2022-04-13T11:29:50Z</time><name>PT1705</name></trkpt>
<trkpt lat="52.086205" lon="05.646063"><ele>0.6</ele><time>2022-04-13T11:29:51Z</time><name>PT1706</name></trkpt>
<trkpt lat="52.086219" lon="05.646055"><ele>0.6</ele><time>2022-04-13T11:29:52Z</time><name>PT1707</name></trkpt>
<trkpt lat="52.086231" lon="05.646047"><ele>0.6</ele><time>2022-04-13T11:29:53Z</time><name>PT1708</name></trkpt>
<trkpt lat="52.086240" lon="05.646042"><ele>0.5</ele><time>2022-04-13T11:29:54Z</time><name>PT1709</name></trkpt>
<trkpt lat="52.086241" lon="05.646038"><ele>0.1</ele><time>2022-04-13T11:29:55Z</time><name>PT1710</name></trkpt>
<trkpt lat="52.086243" lon="05.646037"><ele>0.1</ele><time>2022-04-13T11:29:56Z</time><name>PT1711</name></trkpt>
<trkpt lat="52.086256" lon="05.646034"><ele>0</ele><time>2022-04-13T11:29:57Z</time><name>PT1712</name></trkpt>
<trkpt lat="52.086276" lon="05.646028"><ele>0</ele><time>2022-04-13T11:29:58Z</time><name>PT1713</name></trkpt>
<trkpt lat="52.086293" lon="05.646019"><ele>0.1</ele><time>2022-04-13T11:29:59Z</time><name>PT1714</name></trkpt>
<trkpt lat="52.086305" lon="05.646012"><ele>0</ele><time>2022-04-13T11:30:00Z</time><name>PT1715</name></trkpt>
<trkpt lat="52.086312" lon="05.646005"><ele>0.1</ele><time>2022-04-13T11:30:01Z</time><name>PT1716</name></trkpt>
<trkpt lat="52.086316" lon="05.645999"><ele>0</ele><time>2022-04-13T11:30:02Z</time><name>PT1717</name></trkpt>
<trkpt lat="52.086317" lon="05.645990"><ele>0</ele><time>2022-04-13T11:30:03Z</time><name>PT1718</name></trkpt>
<trkpt lat="52.086320" lon="05.645977"><ele>0.1</ele><time>2022-04-13T11:30:04Z</time><name>PT1719</name></trkpt>
<trkpt lat="52.086328" lon="05.645961"><ele>0.1</ele><time>2022-04-13T11:30:05Z</time><name>PT1720</name></trkpt>
<trkpt lat="52.086339" lon="05.645945"><ele>0.3</ele><time>2022-04-13T11:30:06Z</time><name>PT1721</name></trkpt>
<trkpt lat="52.086348" lon="05.645937"><ele>0.5</ele><time>2022-04-13T11:30:07Z</time><name>PT1722</name></trkpt>
<trkpt lat="52.086355" lon="05.645929"><ele>0.6</ele><time>2022-04-13T11:30:08Z</time><name>PT1723</name></trkpt>
<trkpt lat="52.086359" lon="05.645924"><ele>0.6</ele><time>2022-04-13T11:30:09Z</time><name>PT1724</name></trkpt>
<trkpt lat="52.086365" lon="05.645920"><ele>0.5</ele><time>2022-04-13T11:30:10Z</time><name>PT1725</name></trkpt>
<trkpt lat="52.086368" lon="05.645907"><ele>0.3</ele><time>2022-04-13T11:30:11Z</time><name>PT1726</name></trkpt>
<trkpt lat="52.086379" lon="05.645896"><ele>0.2</ele><time>2022-04-13T11:30:12Z</time><name>PT1727</name></trkpt>
<trkpt lat="52.086392" lon="05.645882"><ele>0.1</ele><time>2022-04-13T11:30:13Z</time><name>PT1728</name></trkpt>
<trkpt lat="52.086404" lon="05.645866"><ele>0</ele><time>2022-04-13T11:30:14Z</time><name>PT1729</name></trkpt>
<trkpt lat="52.086415" lon="05.645858"><ele>0</ele><time>2022-04-13T11:30:15Z</time><name>PT1730</name></trkpt>
<trkpt lat="52.086421" lon="05.645849"><ele>0</ele><time>2022-04-13T11:30:16Z</time><name>PT1731</name></trkpt>
<trkpt lat="52.086425" lon="05.645842"><ele>0.2</ele><time>2022-04-13T11:30:17Z</time><name>PT1732</name></trkpt>
<trkpt lat="52.086432" lon="05.645833"><ele>0.2</ele><time>2022-04-13T11:30:18Z</time><name>PT1733</name></trkpt>
<trkpt lat="52.086441" lon="05.645820"><ele>0.3</ele><time>2022-04-13T11:30:19Z</time><name>PT1734</name></trkpt>
<trkpt lat="52.086452" lon="05.645803"><ele>0.5</ele><time>2022-04-13T11:30:20Z</time><name>PT1735</name></trkpt>
<trkpt lat="52.086462" lon="05.645787"><ele>0.6</ele><time>2022-04-13T11:30:21Z</time><name>PT1736</name></trkpt>
<trkpt lat="52.086469" lon="05.645770"><ele>0.7</ele><time>2022-04-13T11:30:22Z</time><name>PT1737</name></trkpt>
<trkpt lat="52.086472" lon="05.645761"><ele>0.7</ele><time>2022-04-13T11:30:23Z</time><name>PT1738</name></trkpt>
<trkpt lat="52.086475" lon="05.645755"><ele>0.9</ele><time>2022-04-13T11:30:24Z</time><name>PT1739</name></trkpt>
<trkpt lat="52.086477" lon="05.645745"><ele>0.9</ele><time>2022-04-13T11:30:25Z</time><name>PT1740</name></trkpt>
<trkpt lat="52.086483" lon="05.645730"><ele>0.7</ele><time>2022-04-13T11:30:26Z</time><name>PT1741</name></trkpt>
<trkpt lat="52.086491" lon="05.645715"><ele>0.6</ele><time>2022-04-13T11:30:27Z</time><name>PT1742</name></trkpt>
<trkpt lat="52.086500" lon="05.645700"><ele>0.6</ele><time>2022-04-13T11:30:28Z</time><name>PT1743</name></trkpt>
<trkpt lat="52.086509" lon="05.645686"><ele>0.6</ele><time>2022-04-13T11:30:29Z</time><name>PT1744</name></trkpt>
<trkpt lat="52.086513" lon="05.645673"><ele>0.5</ele><time>2022-04-13T11:30:30Z</time><name>PT1745</name></trkpt>
<trkpt lat="52.086516" lon="05.645665"><ele>0.5</ele><time>2022-04-13T11:30:31Z</time><name>PT1746</name></trkpt>
<trkpt lat="52.086522" lon="05.645655"><ele>0.4</ele><time>2022-04-13T11:30:32Z</time><name>PT1747</name></trkpt>
<trkpt lat="52.086530" lon="05.645638"><ele>0.5</ele><time>2022-04-13T11:30:33Z</time><name>PT1748</name></trkpt>
<trkpt lat="52.086542" lon="05.645616"><ele>0.6</ele><time>2022-04-13T11:30:34Z</time><name>PT1749</name></trkpt>
<trkpt lat="52.086556" lon="05.645599"><ele>0.6</ele><time>2022-04-13T11:30:35Z</time><name>PT1750</name></trkpt>
<trkpt lat="52.086565" lon="05.645583"><ele>0.6</ele><time>2022-04-13T11:30:36Z</time><name>PT1751</name></trkpt>
<trkpt lat="52.086570" lon="05.645570"><ele>0.6</ele><time>2022-04-13T11:30:37Z</time><name>PT1752</name></trkpt>
<trkpt lat="52.086575" lon="05.645562"><ele>0.6</ele><time>2022-04-13T11:30:38Z</time><name>PT1753</name></trkpt>
<trkpt lat="52.086583" lon="05.645551"><ele>0.5</ele><time>2022-04-13T11:30:39Z</time><name>PT1754</name></trkpt>
<trkpt lat="52.086591" lon="05.645530"><ele>0.4</ele><time>2022-04-13T11:30:40Z</time><name>PT1755</name></trkpt>
<trkpt lat="52.086601" lon="05.645512"><ele>0.3</ele><time>2022-04-13T11:30:41Z</time><name>PT1756</name></trkpt>
<trkpt lat="52.086607" lon="05.645499"><ele>0.3</ele><time>2022-04-13T11:30:42Z</time><name>PT1757</name></trkpt>
<trkpt lat="52.086612" lon="05.645488"><ele>0.1</ele><time>2022-04-13T11:30:43Z</time><name>PT1758</name></trkpt>
<trkpt lat="52.086614" lon="05.645482"><ele>0.1</ele><time>2022-04-13T11:30:44Z</time><name>PT1759</name></trkpt>
<trkpt lat="52.086618" lon="05.645470"><ele>0</ele><time>2022-04-13T11:30:45Z</time><name>PT1760</name></trkpt>
<trkpt lat="52.086624" lon="05.645450"><ele>0.2</ele><time>2022-04-13T11:30:46Z</time><name>PT1761</name></trkpt>
<trkpt lat="52.086631" lon="05.645428"><ele>0.2</ele><time>2022-04-13T11:30:47Z</time><name>PT1762</name></trkpt>
<trkpt lat="52.086638" lon="05.645409"><ele>0.2</ele><time>2022-04-13T11:30:48Z</time><name>PT1763</name></trkpt>
<trkpt lat="52.086645" lon="05.645397"><ele>0.2</ele><time>2022-04-13T11:30:49Z</time><name>PT1764</name></trkpt>
<trkpt lat="52.086649" lon="05.645389"><ele>0.2</ele><time>2022-04-13T11:30:50Z</time><name>PT1765</name></trkpt>
<trkpt lat="52.086653" lon="05.645384"><ele>0</ele><time>2022-04-13T11:30:51Z</time><name>PT1766</name></trkpt>
<trkpt lat="52.086656" lon="05.645378"><ele>0</ele><time>2022-04-13T11:30:52Z</time><name>PT1767</name></trkpt>
<trkpt lat="52.086659" lon="05.645366"><ele>0.2</ele><time>2022-04-13T11:30:54Z</time><name>PT1768</name></trkpt>
<trkpt lat="52.086671" lon="05.645352"><ele>0.5</ele><time>2022-04-13T11:30:55Z</time><name>PT1769</name></trkpt>
<trkpt lat="52.086682" lon="05.645341"><ele>0.5</ele><time>2022-04-13T11:30:56Z</time><name>PT1770</name></trkpt>
<trkpt lat="52.086689" lon="05.645334"><ele>0.7</ele><time>2022-04-13T11:30:57Z</time><name>PT1771</name></trkpt>
<trkpt lat="52.086695" lon="05.645326"><ele>0.7</ele><time>2022-04-13T11:30:58Z</time><name>PT1772</name></trkpt>
<trkpt lat="52.086703" lon="05.645309"><ele>0.9</ele><time>2022-04-13T11:30:59Z</time><name>PT1773</name></trkpt>
<trkpt lat="52.086713" lon="05.645286"><ele>-1.1</ele><time>2022-04-13T11:31:00Z</time><name>PT1774</name></trkpt>
<trkpt lat="52.086722" lon="05.645270"><ele>-1.1</ele><time>2022-04-13T11:31:01Z</time><name>PT1775</name></trkpt>
<trkpt lat="52.086728" lon="05.645264"><ele>-1.2</ele><time>2022-04-13T11:31:02Z</time><name>PT1776</name></trkpt>
<trkpt lat="52.086732" lon="05.645254"><ele>-1.2</ele><time>2022-04-13T11:31:03Z</time><name>PT1777</name></trkpt>
<trkpt lat="52.086734" lon="05.645244"><ele>-1.3</ele><time>2022-04-13T11:31:04Z</time><name>PT1778</name></trkpt>
<trkpt lat="52.086737" lon="05.645232"><ele>-1.4</ele><time>2022-04-13T11:31:05Z</time><name>PT1779</name></trkpt>
<trkpt lat="52.086745" lon="05.645229"><ele>-1.6</ele><time>2022-04-13T11:31:06Z</time><name>PT1780</name></trkpt>
<trkpt lat="52.086757" lon="05.645219"><ele>-1.4</ele><time>2022-04-13T11:31:07Z</time><name>PT1781</name></trkpt>
<trkpt lat="52.086770" lon="05.645207"><ele>-1.5</ele><time>2022-04-13T11:31:08Z</time><name>PT1782</name></trkpt>
<trkpt lat="52.086786" lon="05.645199"><ele>-1.6</ele><time>2022-04-13T11:31:09Z</time><name>PT1783</name></trkpt>
<trkpt lat="52.086802" lon="05.645197"><ele>-1.6</ele><time>2022-04-13T11:31:10Z</time><name>PT1784</name></trkpt>
<trkpt lat="52.086810" lon="05.645191"><ele>-1.7</ele><time>2022-04-13T11:31:11Z</time><name>PT1785</name></trkpt>
<trkpt lat="52.086821" lon="05.645195"><ele>-1.8</ele><time>2022-04-13T11:31:12Z</time><name>PT1786</name></trkpt>
<trkpt lat="52.086835" lon="05.645193"><ele>-1.5</ele><time>2022-04-13T11:31:13Z</time><name>PT1787</name></trkpt>
<trkpt lat="52.086844" lon="05.645196"><ele>-1.6</ele><time>2022-04-13T11:31:14Z</time><name>PT1788</name></trkpt>
<trkpt lat="52.086849" lon="05.645199"><ele>-1.5</ele><time>2022-04-13T11:31:15Z</time><name>PT1789</name></trkpt>
<trkpt lat="52.086859" lon="05.645203"><ele>-1.5</ele><time>2022-04-13T11:31:16Z</time><name>PT1790</name></trkpt>
<trkpt lat="52.086869" lon="05.645202"><ele>-1.5</ele><time>2022-04-13T11:31:17Z</time><name>PT1791</name></trkpt>
<trkpt lat="52.086876" lon="05.645200"><ele>-1.5</ele><time>2022-04-13T11:31:18Z</time><name>PT1792</name></trkpt>
<trkpt lat="52.086880" lon="05.645196"><ele>-1.4</ele><time>2022-04-13T11:31:19Z</time><name>PT1793</name></trkpt>
<trkpt lat="52.086887" lon="05.645190"><ele>-1.4</ele><time>2022-04-13T11:31:20Z</time><name>PT1794</name></trkpt>
<trkpt lat="52.086891" lon="05.645186"><ele>-1.2</ele><time>2022-04-13T11:31:21Z</time><name>PT1795</name></trkpt>
<trkpt lat="52.086895" lon="05.645180"><ele>-1.5</ele><time>2022-04-13T11:31:22Z</time><name>PT1796</name></trkpt>
<trkpt lat="52.086903" lon="05.645164"><ele>-1.6</ele><time>2022-04-13T11:31:23Z</time><name>PT1797</name></trkpt>
<trkpt lat="52.086915" lon="05.645153"><ele>-1.7</ele><time>2022-04-13T11:31:24Z</time><name>PT1798</name></trkpt>
<trkpt lat="52.086923" lon="05.645140"><ele>-1.7</ele><time>2022-04-13T11:31:25Z</time><name>PT1799</name></trkpt>
<trkpt lat="52.086929" lon="05.645133"><ele>-1.8</ele><time>2022-04-13T11:31:26Z</time><name>PT1800</name></trkpt>
<trkpt lat="52.086935" lon="05.645130"><ele>-1.7</ele><time>2022-04-13T11:31:27Z</time><name>PT1801</name></trkpt>
<trkpt lat="52.086941" lon="05.645125"><ele>-1.7</ele><time>2022-04-13T11:31:28Z</time><name>PT1802</name></trkpt>
<trkpt lat="52.086949" lon="05.645124"><ele>-1.8</ele><time>2022-04-13T11:31:29Z</time><name>PT1803</name></trkpt>
<trkpt lat="52.086964" lon="05.645116"><ele>-2</ele><time>2022-04-13T11:31:30Z</time><name>PT1804</name></trkpt>
<trkpt lat="52.086971" lon="05.645107"><ele>-2.1</ele><time>2022-04-13T11:31:31Z</time><name>PT1805</name></trkpt>
<trkpt lat="52.086982" lon="05.645096"><ele>-2.4</ele><time>2022-04-13T11:31:32Z</time><name>PT1806</name></trkpt>
<trkpt lat="52.086990" lon="05.645084"><ele>-2.4</ele><time>2022-04-13T11:31:33Z</time><name>PT1807</name></trkpt>
<trkpt lat="52.086998" lon="05.645077"><ele>-2.7</ele><time>2022-04-13T11:31:34Z</time><name>PT1808</name></trkpt>
<trkpt lat="52.087004" lon="05.645073"><ele>-2.9</ele><time>2022-04-13T11:31:35Z</time><name>PT1809</name></trkpt>
<trkpt lat="52.086999" lon="05.645070"><ele>-2.8</ele><time>2022-04-13T11:31:36Z</time><name>PT1810</name></trkpt>
<trkpt lat="52.087002" lon="05.645059"><ele>-3</ele><time>2022-04-13T11:31:37Z</time><name>PT1811</name></trkpt>
<trkpt lat="52.087012" lon="05.645050"><ele>-3.1</ele><time>2022-04-13T11:31:38Z</time><name>PT1812</name></trkpt>
<trkpt lat="52.087021" lon="05.645046"><ele>-3.1</ele><time>2022-04-13T11:31:39Z</time><name>PT1813</name></trkpt>
<trkpt lat="52.087029" lon="05.645041"><ele>-3.2</ele><time>2022-04-13T11:31:40Z</time><name>PT1814</name></trkpt>
<trkpt lat="52.087042" lon="05.645042"><ele>-3.3</ele><time>2022-04-13T11:31:41Z</time><name>PT1815</name></trkpt>
<trkpt lat="52.087053" lon="05.645041"><ele>-3.2</ele><time>2022-04-13T11:31:42Z</time><name>PT1816</name></trkpt>
<trkpt lat="52.087059" lon="05.645037"><ele>-3.2</ele><time>2022-04-13T11:31:43Z</time><name>PT1817</name></trkpt>
<trkpt lat="52.087071" lon="05.645031"><ele>-3.2</ele><time>2022-04-13T11:31:44Z</time><name>PT1818</name></trkpt>
<trkpt lat="52.087084" lon="05.645023"><ele>-3.4</ele><time>2022-04-13T11:31:45Z</time><name>PT1819</name></trkpt>
<trkpt lat="52.087096" lon="05.645015"><ele>-3.4</ele><time>2022-04-13T11:31:46Z</time><name>PT1820</name></trkpt>
<trkpt lat="52.087104" lon="05.645013"><ele>-3.7</ele><time>2022-04-13T11:31:47Z</time><name>PT1821</name></trkpt>
<trkpt lat="52.087111" lon="05.645015"><ele>-3.7</ele><time>2022-04-13T11:31:48Z</time><name>PT1822</name></trkpt>
<trkpt lat="52.087122" lon="05.645010"><ele>-3.6</ele><time>2022-04-13T11:31:49Z</time><name>PT1823</name></trkpt>
<trkpt lat="52.087137" lon="05.645010"><ele>-3.6</ele><time>2022-04-13T11:31:50Z</time><name>PT1824</name></trkpt>
<trkpt lat="52.087153" lon="05.645012"><ele>-3.7</ele><time>2022-04-13T11:31:51Z</time><name>PT1825</name></trkpt>
<trkpt lat="52.087165" lon="05.645017"><ele>-3.7</ele><time>2022-04-13T11:31:52Z</time><name>PT1826</name></trkpt>
<trkpt lat="52.087177" lon="05.645018"><ele>-3.9</ele><time>2022-04-13T11:31:53Z</time><name>PT1827</name></trkpt>
<trkpt lat="52.087185" lon="05.645020"><ele>-4.4</ele><time>2022-04-13T11:31:54Z</time><name>PT1828</name></trkpt>
<trkpt lat="52.087198" lon="05.645022"><ele>-4.4</ele><time>2022-04-13T11:31:55Z</time><name>PT1829</name></trkpt>
<trkpt lat="52.087212" lon="05.645020"><ele>-4.6</ele><time>2022-04-13T11:31:56Z</time><name>PT1830</name></trkpt>
<trkpt lat="52.087223" lon="05.645022"><ele>-4.6</ele><time>2022-04-13T11:31:57Z</time><name>PT1831</name></trkpt>
<trkpt lat="52.087231" lon="05.645025"><ele>-4.6</ele><time>2022-04-13T11:31:58Z</time><name>PT1832</name></trkpt>
<trkpt lat="52.087238" lon="05.645023"><ele>-4.6</ele><time>2022-04-13T11:31:59Z</time><name>PT1833</name></trkpt>
<trkpt lat="52.087248" lon="05.645024"><ele>-4.6</ele><time>2022-04-13T11:32:00Z</time><name>PT1834</name></trkpt>
<trkpt lat="52.087265" lon="05.645030"><ele>-4.8</ele><time>2022-04-13T11:32:01Z</time><name>PT1835</name></trkpt>
<trkpt lat="52.087281" lon="05.645037"><ele>-4.8</ele><time>2022-04-13T11:32:02Z</time><name>PT1836</name></trkpt>
<trkpt lat="52.087292" lon="05.645041"><ele>-4.7</ele><time>2022-04-13T11:32:03Z</time><name>PT1837</name></trkpt>
<trkpt lat="52.087306" lon="05.645043"><ele>-5</ele><time>2022-04-13T11:32:04Z</time><name>PT1838</name></trkpt>
<trkpt lat="52.087308" lon="05.645042"><ele>-4.9</ele><time>2022-04-13T11:32:05Z</time><name>PT1839</name></trkpt>
<trkpt lat="52.087317" lon="05.645044"><ele>-4.7</ele><time>2022-04-13T11:32:06Z</time><name>PT1840</name></trkpt>
<trkpt lat="52.087324" lon="05.645048"><ele>-5</ele><time>2022-04-13T11:32:07Z</time><name>PT1841</name></trkpt>
<trkpt lat="52.087332" lon="05.645050"><ele>-5</ele><time>2022-04-13T11:32:08Z</time><name>PT1842</name></trkpt>
<trkpt lat="52.087342" lon="05.645054"><ele>-4.9</ele><time>2022-04-13T11:32:09Z</time><name>PT1843</name></trkpt>
<trkpt lat="52.087349" lon="05.645058"><ele>-5</ele><time>2022-04-13T11:32:10Z</time><name>PT1844</name></trkpt>
<trkpt lat="52.087351" lon="05.645058"><ele>-5.3</ele><time>2022-04-13T11:32:11Z</time><name>PT1845</name></trkpt>
<trkpt lat="52.087360" lon="05.645059"><ele>-5.2</ele><time>2022-04-13T11:32:12Z</time><name>PT1846</name></trkpt>
<trkpt lat="52.087372" lon="05.645067"><ele>-5.5</ele><time>2022-04-13T11:32:13Z</time><name>PT1847</name></trkpt>
<trkpt lat="52.087389" lon="05.645076"><ele>-5.9</ele><time>2022-04-13T11:32:14Z</time><name>PT1848</name></trkpt>
<trkpt lat="52.087403" lon="05.645081"><ele>-6</ele><time>2022-04-13T11:32:15Z</time><name>PT1849</name></trkpt>
<trkpt lat="52.087415" lon="05.645083"><ele>-6</ele><time>2022-04-13T11:32:16Z</time><name>PT1850</name></trkpt>
<trkpt lat="52.087427" lon="05.645088"><ele>-6.2</ele><time>2022-04-13T11:32:17Z</time><name>PT1851</name></trkpt>
<trkpt lat="52.087435" lon="05.645089"><ele>-6.1</ele><time>2022-04-13T11:32:18Z</time><name>PT1852</name></trkpt>
<trkpt lat="52.087439" lon="05.645098"><ele>-6</ele><time>2022-04-13T11:32:19Z</time><name>PT1853</name></trkpt>
<trkpt lat="52.087455" lon="05.645098"><ele>-6.1</ele><time>2022-04-13T11:32:20Z</time><name>PT1854</name></trkpt>
<trkpt lat="52.087467" lon="05.645094"><ele>-6.3</ele><time>2022-04-13T11:32:21Z</time><name>PT1855</name></trkpt>
<trkpt lat="52.087475" lon="05.645090"><ele>-6.3</ele><time>2022-04-13T11:32:22Z</time><name>PT1856</name></trkpt>
<trkpt lat="52.087481" lon="05.645089"><ele>-6.5</ele><time>2022-04-13T11:32:23Z</time><name>PT1857</name></trkpt>
<trkpt lat="52.087487" lon="05.645093"><ele>-6.7</ele><time>2022-04-13T11:32:24Z</time><name>PT1858</name></trkpt>
<trkpt lat="52.087490" lon="05.645094"><ele>-6.8</ele><time>2022-04-13T11:32:25Z</time><name>PT1859</name></trkpt>
<trkpt lat="52.087504" lon="05.645096"><ele>-6.8</ele><time>2022-04-13T11:32:26Z</time><name>PT1860</name></trkpt>
<trkpt lat="52.087512" lon="05.645097"><ele>-6.8</ele><time>2022-04-13T11:32:27Z</time><name>PT1861</name></trkpt>
<trkpt lat="52.087523" lon="05.645090"><ele>-6.9</ele><time>2022-04-13T11:32:28Z</time><name>PT1862</name></trkpt>
<trkpt lat="52.087541" lon="05.645078"><ele>-6.8</ele><time>2022-04-13T11:32:29Z</time><name>PT1863</name></trkpt>
<trkpt lat="52.087549" lon="05.645073"><ele>-6.8</ele><time>2022-04-13T11:32:30Z</time><name>PT1864</name></trkpt>
<trkpt lat="52.087553" lon="05.645072"><ele>-7</ele><time>2022-04-13T11:32:31Z</time><name>PT1865</name></trkpt>
<trkpt lat="52.087561" lon="05.645063"><ele>-7</ele><time>2022-04-13T11:32:32Z</time><name>PT1866</name></trkpt>
<trkpt lat="52.087576" lon="05.645051"><ele>-6.7</ele><time>2022-04-13T11:32:33Z</time><name>PT1867</name></trkpt>
<trkpt lat="52.087595" lon="05.645040"><ele>-6.9</ele><time>2022-04-13T11:32:34Z</time><name>PT1868</name></trkpt>
<trkpt lat="52.087612" lon="05.645029"><ele>-6.8</ele><time>2022-04-13T11:32:35Z</time><name>PT1869</name></trkpt>
<trkpt lat="52.087622" lon="05.645021"><ele>-6.9</ele><time>2022-04-13T11:32:36Z</time><name>PT1870</name></trkpt>
<trkpt lat="52.087628" lon="05.645012"><ele>-7</ele><time>2022-04-13T11:32:37Z</time><name>PT1871</name></trkpt>
<trkpt lat="52.087636" lon="05.645004"><ele>-7</ele><time>2022-04-13T11:32:38Z</time><name>PT1872</name></trkpt>
<trkpt lat="52.087642" lon="05.644992"><ele>-7</ele><time>2022-04-13T11:32:39Z</time><name>PT1873</name></trkpt>
<trkpt lat="52.087656" lon="05.644978"><ele>-7</ele><time>2022-04-13T11:32:40Z</time><name>PT1874</name></trkpt>
<trkpt lat="52.087668" lon="05.644972"><ele>-7</ele><time>2022-04-13T11:32:41Z</time><name>PT1875</name></trkpt>
<trkpt lat="52.087678" lon="05.644969"><ele>-7</ele><time>2022-04-13T11:32:42Z</time><name>PT1876</name></trkpt>
<trkpt lat="52.087686" lon="05.644970"><ele>-7.1</ele><time>2022-04-13T11:32:43Z</time><name>PT1877</name></trkpt>
<trkpt lat="52.087693" lon="05.644969"><ele>-7.1</ele><time>2022-04-13T11:32:44Z</time><name>PT1878</name></trkpt>
<trkpt lat="52.087705" lon="05.644967"><ele>-7</ele><time>2022-04-13T11:32:45Z</time><name>PT1879</name></trkpt>
<trkpt lat="52.087719" lon="05.644964"><ele>-7</ele><time>2022-04-13T11:32:46Z</time><name>PT1880</name></trkpt>
<trkpt lat="52.087733" lon="05.644948"><ele>-6.9</ele><time>2022-04-13T11:32:47Z</time><name>PT1881</name></trkpt>
<trkpt lat="52.087744" lon="05.644939"><ele>-6.9</ele><time>2022-04-13T11:32:48Z</time><name>PT1882</name></trkpt>
<trkpt lat="52.087751" lon="05.644931"><ele>-7</ele><time>2022-04-13T11:32:49Z</time><name>PT1883</name></trkpt>
<trkpt lat="52.087757" lon="05.644929"><ele>-7.1</ele><time>2022-04-13T11:32:50Z</time><name>PT1884</name></trkpt>
<trkpt lat="52.087766" lon="05.644924"><ele>-7.1</ele><time>2022-04-13T11:32:51Z</time><name>PT1885</name></trkpt>
<trkpt lat="52.087769" lon="05.644927"><ele>-7.2</ele><time>2022-04-13T11:32:52Z</time><name>PT1886</name></trkpt>
<trkpt lat="52.087768" lon="05.644925"><ele>-7.2</ele><time>2022-04-13T11:32:53Z</time><name>PT1887</name></trkpt>
<trkpt lat="52.087767" lon="05.644923"><ele>-7.2</ele><time>2022-04-13T11:32:54Z</time><name>PT1888</name></trkpt>
<trkpt lat="52.087766" lon="05.644924"><ele>-7.4</ele><time>2022-04-13T11:32:55Z</time><name>PT1889</name></trkpt>
<trkpt lat="52.087766" lon="05.644923"><ele>-7.3</ele><time>2022-04-13T11:32:56Z</time><name>PT1890</name></trkpt>
<trkpt lat="52.087767" lon="05.644922"><ele>-7.1</ele><time>2022-04-13T11:32:57Z</time><name>PT1891</name></trkpt>
<trkpt lat="52.087774" lon="05.644918"><ele>-7.1</ele><time>2022-04-13T11:32:58Z</time><name>PT1892</name></trkpt>
<trkpt lat="52.087781" lon="05.644919"><ele>-7.1</ele><time>2022-04-13T11:32:59Z</time><name>PT1893</name></trkpt>
<trkpt lat="52.087789" lon="05.644924"><ele>-7.2</ele><time>2022-04-13T11:33:00Z</time><name>PT1894</name></trkpt>
<trkpt lat="52.087803" lon="05.644931"><ele>-7.5</ele><time>2022-04-13T11:33:01Z</time><name>PT1895</name></trkpt>
<trkpt lat="52.087817" lon="05.644945"><ele>-7.4</ele><time>2022-04-13T11:33:02Z</time><name>PT1896</name></trkpt>
<trkpt lat="52.087829" lon="05.644956"><ele>-7.5</ele><time>2022-04-13T11:33:03Z</time><name>PT1897</name></trkpt>
<trkpt lat="52.087840" lon="05.644969"><ele>-7.5</ele><time>2022-04-13T11:33:04Z</time><name>PT1898</name></trkpt>
<trkpt lat="52.087845" lon="05.644980"><ele>-7.3</ele><time>2022-04-13T11:33:05Z</time><name>PT1899</name></trkpt>
<trkpt lat="52.087850" lon="05.644986"><ele>-7.1</ele><time>2022-04-13T11:33:06Z</time><name>PT1900</name></trkpt>
<trkpt lat="52.087859" lon="05.645000"><ele>-7.1</ele><time>2022-04-13T11:33:07Z</time><name>PT1901</name></trkpt>
<trkpt lat="52.087864" lon="05.645021"><ele>-6.9</ele><time>2022-04-13T11:33:08Z</time><name>PT1902</name></trkpt>
<trkpt lat="52.087864" lon="05.645033"><ele>-7</ele><time>2022-04-13T11:33:09Z</time><name>PT1903</name></trkpt>
<trkpt lat="52.087872" lon="05.645049"><ele>-7</ele><time>2022-04-13T11:33:10Z</time><name>PT1904</name></trkpt>
<trkpt lat="52.087878" lon="05.645069"><ele>-7</ele><time>2022-04-13T11:33:11Z</time><name>PT1905</name></trkpt>
<trkpt lat="52.087885" lon="05.645088"><ele>-7.1</ele><time>2022-04-13T11:33:12Z</time><name>PT1906</name></trkpt>
<trkpt lat="52.087891" lon="05.645107"><ele>-7.1</ele><time>2022-04-13T11:33:13Z</time><name>PT1907</name></trkpt>
<trkpt lat="52.087896" lon="05.645125"><ele>-7</ele><time>2022-04-13T11:33:14Z</time><name>PT1908</name></trkpt>
<trkpt lat="52.087902" lon="05.645141"><ele>-7.1</ele><time>2022-04-13T11:33:15Z</time><name>PT1909</name></trkpt>
<trkpt lat="52.087907" lon="05.645155"><ele>-7</ele><time>2022-04-13T11:33:16Z</time><name>PT1910</name></trkpt>
<trkpt lat="52.087909" lon="05.645165"><ele>-7</ele><time>2022-04-13T11:33:17Z</time><name>PT1911</name></trkpt>
<trkpt lat="52.087910" lon="05.645177"><ele>-7</ele><time>2022-04-13T11:33:18Z</time><name>PT1912</name></trkpt>
<trkpt lat="52.087912" lon="05.645188"><ele>-7.1</ele><time>2022-04-13T11:33:19Z</time><name>PT1913</name></trkpt>
<trkpt lat="52.087917" lon="05.645195"><ele>-7.1</ele><time>2022-04-13T11:33:20Z</time><name>PT1914</name></trkpt>
<trkpt lat="52.087920" lon="05.645218"><ele>-7.2</ele><time>2022-04-13T11:33:21Z</time><name>PT1915</name></trkpt>
<trkpt lat="52.087913" lon="05.645244"><ele>-7.3</ele><time>2022-04-13T11:33:22Z</time><name>PT1916</name></trkpt>
<trkpt lat="52.087910" lon="05.645269"><ele>-7.4</ele><time>2022-04-13T11:33:23Z</time><name>PT1917</name></trkpt>
<trkpt lat="52.087911" lon="05.645293"><ele>-7.2</ele><time>2022-04-13T11:33:24Z</time><name>PT1918</name></trkpt>
<trkpt lat="52.087910" lon="05.645314"><ele>-7</ele><time>2022-04-13T11:33:25Z</time><name>PT1919</name></trkpt>
<trkpt lat="52.087914" lon="05.645333"><ele>-7</ele><time>2022-04-13T11:33:26Z</time><name>PT1920</name></trkpt>
<trkpt lat="52.087917" lon="05.645345"><ele>-6.9</ele><time>2022-04-13T11:33:27Z</time><name>PT1921</name></trkpt>
<trkpt lat="52.087926" lon="05.645354"><ele>-6.7</ele><time>2022-04-13T11:33:28Z</time><name>PT1922</name></trkpt>
<trkpt lat="52.087933" lon="05.645369"><ele>-6.9</ele><time>2022-04-13T11:33:29Z</time><name>PT1923</name></trkpt>
<trkpt lat="52.087937" lon="05.645394"><ele>-6.8</ele><time>2022-04-13T11:33:30Z</time><name>PT1924</name></trkpt>
<trkpt lat="52.087944" lon="05.645420"><ele>-6.7</ele><time>2022-04-13T11:33:31Z</time><name>PT1925</name></trkpt>
<trkpt lat="52.087947" lon="05.645433"><ele>-6.6</ele><time>2022-04-13T11:33:32Z</time><name>PT1926</name></trkpt>
<trkpt lat="52.087952" lon="05.645452"><ele>-6.7</ele><time>2022-04-13T11:33:33Z</time><name>PT1927</name></trkpt>
<trkpt lat="52.087956" lon="05.645474"><ele>-6.6</ele><time>2022-04-13T11:33:34Z</time><name>PT1928</name></trkpt>
<trkpt lat="52.087959" lon="05.645492"><ele>-6.7</ele><time>2022-04-13T11:33:35Z</time><name>PT1929</name></trkpt>
<trkpt lat="52.087959" lon="05.645515"><ele>-6.6</ele><time>2022-04-13T11:33:36Z</time><name>PT1930</name></trkpt>
<trkpt lat="52.087957" lon="05.645530"><ele>-6.7</ele><time>2022-04-13T11:33:37Z</time><name>PT1931</name></trkpt>
<trkpt lat="52.087959" lon="05.645547"><ele>-6.9</ele><time>2022-04-13T11:33:38Z</time><name>PT1932</name></trkpt>
<trkpt lat="52.087960" lon="05.645557"><ele>-6.8</ele><time>2022-04-13T11:33:39Z</time><name>PT1933</name></trkpt>
<trkpt lat="52.087967" lon="05.645573"><ele>-6.5</ele><time>2022-04-13T11:33:40Z</time><name>PT1934</name></trkpt>
<trkpt lat="52.087978" lon="05.645599"><ele>-6.5</ele><time>2022-04-13T11:33:41Z</time><name>PT1935</name></trkpt>
<trkpt lat="52.087985" lon="05.645623"><ele>-6.5</ele><time>2022-04-13T11:33:42Z</time><name>PT1936</name></trkpt>
<trkpt lat="52.087994" lon="05.645656"><ele>-6.5</ele><time>2022-04-13T11:33:43Z</time><name>PT1937</name></trkpt>
<trkpt lat="52.087998" lon="05.645686"><ele>-6.5</ele><time>2022-04-13T11:33:44Z</time><name>PT1938</name></trkpt>
<trkpt lat="52.088000" lon="05.645709"><ele>-6.7</ele><time>2022-04-13T11:33:45Z</time><name>PT1939</name></trkpt>
<trkpt lat="52.088000" lon="05.645727"><ele>-6.8</ele><time>2022-04-13T11:33:46Z</time><name>PT1940</name></trkpt>
<trkpt lat="52.087998" lon="05.645742"><ele>-6.8</ele><time>2022-04-13T11:33:47Z</time><name>PT1941</name></trkpt>
<trkpt lat="52.088000" lon="05.645750"><ele>-6.8</ele><time>2022-04-13T11:33:48Z</time><name>PT1942</name></trkpt>
<trkpt lat="52.088003" lon="05.645762"><ele>-6.8</ele><time>2022-04-13T11:33:49Z</time><name>PT1943</name></trkpt>
<trkpt lat="52.088004" lon="05.645778"><ele>-6.7</ele><time>2022-04-13T11:33:50Z</time><name>PT1944</name></trkpt>
<trkpt lat="52.088009" lon="05.645802"><ele>-6.7</ele><time>2022-04-13T11:33:51Z</time><name>PT1945</name></trkpt>
<trkpt lat="52.088013" lon="05.645824"><ele>-6.5</ele><time>2022-04-13T11:33:52Z</time><name>PT1946</name></trkpt>
<trkpt lat="52.088010" lon="05.645851"><ele>-6.7</ele><time>2022-04-13T11:33:53Z</time><name>PT1947</name></trkpt>
<trkpt lat="52.088010" lon="05.645876"><ele>-6.7</ele><time>2022-04-13T11:33:54Z</time><name>PT1948</name></trkpt>
<trkpt lat="52.088005" lon="05.645901"><ele>-6.7</ele><time>2022-04-13T11:33:55Z</time><name>PT1949</name></trkpt>
<trkpt lat="52.088005" lon="05.645918"><ele>-6.8</ele><time>2022-04-13T11:33:56Z</time><name>PT1950</name></trkpt>
<trkpt lat="52.088007" lon="05.645930"><ele>-6.8</ele><time>2022-04-13T11:33:57Z</time><name>PT1951</name></trkpt>
<trkpt lat="52.088013" lon="05.645930"><ele>-6.7</ele><time>2022-04-13T11:33:58Z</time><name>PT1952</name></trkpt>
<trkpt lat="52.088015" lon="05.645943"><ele>-6.7</ele><time>2022-04-13T11:33:59Z</time><name>PT1953</name></trkpt>
<trkpt lat="52.088017" lon="05.645963"><ele>-6.7</ele><time>2022-04-13T11:34:00Z</time><name>PT1954</name></trkpt>
<trkpt lat="52.088021" lon="05.645993"><ele>-6.6</ele><time>2022-04-13T11:34:01Z</time><name>PT1955</name></trkpt>
<trkpt lat="52.088027" lon="05.646030"><ele>-6.5</ele><time>2022-04-13T11:34:02Z</time><name>PT1956</name></trkpt>
<trkpt lat="52.088027" lon="05.646058"><ele>-6.5</ele><time>2022-04-13T11:34:03Z</time><name>PT1957</name></trkpt>
<trkpt lat="52.088030" lon="05.646077"><ele>-6.5</ele><time>2022-04-13T11:34:04Z</time><name>PT1958</name></trkpt>
<trkpt lat="52.088031" lon="05.646097"><ele>-6.6</ele><time>2022-04-13T11:34:05Z</time><name>PT1959</name></trkpt>
<trkpt lat="52.088033" lon="05.646106"><ele>-6.6</ele><time>2022-04-13T11:34:06Z</time><name>PT1960</name></trkpt>
<trkpt lat="52.088035" lon="05.646128"><ele>-6.7</ele><time>2022-04-13T11:34:07Z</time><name>PT1961</name></trkpt>
<trkpt lat="52.088037" lon="05.646140"><ele>-6.8</ele><time>2022-04-13T11:34:08Z</time><name>PT1962</name></trkpt>
<trkpt lat="52.088042" lon="05.646148"><ele>-6.7</ele><time>2022-04-13T11:34:09Z</time><name>PT1963</name></trkpt>
<trkpt lat="52.088035" lon="05.646164"><ele>-6.7</ele><time>2022-04-13T11:34:10Z</time><name>PT1964</name></trkpt>
<trkpt lat="52.088034" lon="05.646185"><ele>-6.7</ele><time>2022-04-13T11:34:11Z</time><name>PT1965</name></trkpt>
<trkpt lat="52.088031" lon="05.646202"><ele>-6.6</ele><time>2022-04-13T11:34:12Z</time><name>PT1966</name></trkpt>
<trkpt lat="52.088033" lon="05.646220"><ele>-6.4</ele><time>2022-04-13T11:34:13Z</time><name>PT1967</name></trkpt>
<trkpt lat="52.088039" lon="05.646237"><ele>-6.5</ele><time>2022-04-13T11:34:14Z</time><name>PT1968</name></trkpt>
<trkpt lat="52.088046" lon="05.646252"><ele>-6.2</ele><time>2022-04-13T11:34:15Z</time><name>PT1969</name></trkpt>
<trkpt lat="52.088054" lon="05.646270"><ele>-6.2</ele><time>2022-04-13T11:34:16Z</time><name>PT1970</name></trkpt>
<trkpt lat="52.088059" lon="05.646294"><ele>-6.5</ele><time>2022-04-13T11:34:17Z</time><name>PT1971</name></trkpt>
<trkpt lat="52.088065" lon="05.646318"><ele>-6.5</ele><time>2022-04-13T11:34:18Z</time><name>PT1972</name></trkpt>
<trkpt lat="52.088066" lon="05.646341"><ele>-6.4</ele><time>2022-04-13T11:34:19Z</time><name>PT1973</name></trkpt>
<trkpt lat="52.088066" lon="05.646361"><ele>-6.4</ele><time>2022-04-13T11:34:20Z</time><name>PT1974</name></trkpt>
<trkpt lat="52.088069" lon="05.646371"><ele>-6.4</ele><time>2022-04-13T11:34:21Z</time><name>PT1975</name></trkpt>
<trkpt lat="52.088076" lon="05.646386"><ele>-6.4</ele><time>2022-04-13T11:34:22Z</time><name>PT1976</name></trkpt>
<trkpt lat="52.088077" lon="05.646397"><ele>-6.5</ele><time>2022-04-13T11:34:23Z</time><name>PT1977</name></trkpt>
<trkpt lat="52.088076" lon="05.646407"><ele>-6.5</ele><time>2022-04-13T11:34:24Z</time><name>PT1978</name></trkpt>
<trkpt lat="52.088080" lon="05.646425"><ele>-6.5</ele><time>2022-04-13T11:34:25Z</time><name>PT1979</name></trkpt>
<trkpt lat="52.088084" lon="05.646450"><ele>-6.5</ele><time>2022-04-13T11:34:26Z</time><name>PT1980</name></trkpt>
<trkpt lat="52.088089" lon="05.646479"><ele>-6.4</ele><time>2022-04-13T11:34:27Z</time><name>PT1981</name></trkpt>
<trkpt lat="52.088092" lon="05.646504"><ele>-6.4</ele><time>2022-04-13T11:34:28Z</time><name>PT1982</name></trkpt>
<trkpt lat="52.088092" lon="05.646526"><ele>-6.4</ele><time>2022-04-13T11:34:29Z</time><name>PT1983</name></trkpt>
<trkpt lat="52.088092" lon="05.646543"><ele>-6.5</ele><time>2022-04-13T11:34:30Z</time><name>PT1984</name></trkpt>
<trkpt lat="52.088096" lon="05.646564"><ele>-6.4</ele><time>2022-04-13T11:34:31Z</time><name>PT1985</name></trkpt>
<trkpt lat="52.088106" lon="05.646579"><ele>-6.3</ele><time>2022-04-13T11:34:32Z</time><name>PT1986</name></trkpt>
<trkpt lat="52.088108" lon="05.646592"><ele>-6.2</ele><time>2022-04-13T11:34:33Z</time><name>PT1987</name></trkpt>
<trkpt lat="52.088112" lon="05.646615"><ele>-6.2</ele><time>2022-04-13T11:34:34Z</time><name>PT1988</name></trkpt>
<trkpt lat="52.088111" lon="05.646627"><ele>-6.2</ele><time>2022-04-13T11:34:35Z</time><name>PT1989</name></trkpt>
<trkpt lat="52.088114" lon="05.646647"><ele>-6.3</ele><time>2022-04-13T11:34:36Z</time><name>PT1990</name></trkpt>
<trkpt lat="52.088120" lon="05.646677"><ele>-6.4</ele><time>2022-04-13T11:34:37Z</time><name>PT1991</name></trkpt>
<trkpt lat="52.088125" lon="05.646698"><ele>-6.1</ele><time>2022-04-13T11:34:38Z</time><name>PT1992</name></trkpt>
<trkpt lat="52.088127" lon="05.646717"><ele>-6.1</ele><time>2022-04-13T11:34:39Z</time><name>PT1993</name></trkpt>
<trkpt lat="52.088130" lon="05.646729"><ele>-6</ele><time>2022-04-13T11:34:40Z</time><name>PT1994</name></trkpt>
<trkpt lat="52.088126" lon="05.646746"><ele>-5.9</ele><time>2022-04-13T11:34:41Z</time><name>PT1995</name></trkpt>
<trkpt lat="52.088127" lon="05.646755"><ele>-6</ele><time>2022-04-13T11:34:42Z</time><name>PT1996</name></trkpt>
<trkpt lat="52.088129" lon="05.646775"><ele>-6</ele><time>2022-04-13T11:34:43Z</time><name>PT1997</name></trkpt>
<trkpt lat="52.088131" lon="05.646796"><ele>-6</ele><time>2022-04-13T11:34:44Z</time><name>PT1998</name></trkpt>
<trkpt lat="52.088137" lon="05.646826"><ele>-6.1</ele><time>2022-04-13T11:34:45Z</time><name>PT1999</name></trkpt>
<trkpt lat="52.088145" lon="05.646858"><ele>-6.1</ele><time>2022-04-13T11:34:46Z</time><name>PT2000</name></trkpt>
<trkpt lat="52.088146" lon="05.646885"><ele>-6</ele><time>2022-04-13T11:34:47Z</time><name>PT2001</name></trkpt>
<trkpt lat="52.088146" lon="05.646906"><ele>-6.1</ele><time>2022-04-13T11:34:48Z</time><name>PT2002</name></trkpt>
<trkpt lat="52.088142" lon="05.646921"><ele>-6</ele><time>2022-04-13T11:34:49Z</time><name>PT2003</name></trkpt>
<trkpt lat="52.088139" lon="05.646936"><ele>-6.1</ele><time>2022-04-13T11:34:50Z</time><name>PT2004</name></trkpt>
<trkpt lat="52.088140" lon="05.646951"><ele>-6.3</ele><time>2022-04-13T11:34:51Z</time><name>PT2005</name></trkpt>
<trkpt lat="52.088134" lon="05.646961"><ele>-6.4</ele><time>2022-04-13T11:34:52Z</time><name>PT2006</name></trkpt>
<trkpt lat="52.088136" lon="05.646980"><ele>-6.3</ele><time>2022-04-13T11:34:53Z</time><name>PT2007</name></trkpt>
<trkpt lat="52.088137" lon="05.647002"><ele>-6.2</ele><time>2022-04-13T11:34:54Z</time><name>PT2008</name></trkpt>
<trkpt lat="52.088143" lon="05.647010"><ele>-6.1</ele><time>2022-04-13T11:34:55Z</time><name>PT2009</name></trkpt>
<trkpt lat="52.088142" lon="05.647032"><ele>-6</ele><time>2022-04-13T11:34:56Z</time><name>PT2010</name></trkpt>
<trkpt lat="52.088144" lon="05.647050"><ele>-5.7</ele><time>2022-04-13T11:34:57Z</time><name>PT2011</name></trkpt>
<trkpt lat="52.088141" lon="05.647056"><ele>-5.8</ele><time>2022-04-13T11:34:58Z</time><name>PT2012</name></trkpt>
<trkpt lat="52.088134" lon="05.647069"><ele>-5.9</ele><time>2022-04-13T11:34:59Z</time><name>PT2013</name></trkpt>
<trkpt lat="52.088137" lon="05.647084"><ele>-5.9</ele><time>2022-04-13T11:35:00Z</time><name>PT2014</name></trkpt>
<trkpt lat="52.088138" lon="05.647108"><ele>-6</ele><time>2022-04-13T11:35:01Z</time><name>PT2015</name></trkpt>
<trkpt lat="52.088138" lon="05.647141"><ele>-6.2</ele><time>2022-04-13T11:35:02Z</time><name>PT2016</name></trkpt>
<trkpt lat="52.088139" lon="05.647177"><ele>-6.2</ele><time>2022-04-13T11:35:03Z</time><name>PT2017</name></trkpt>
<trkpt lat="52.088132" lon="05.647210"><ele>-6.2</ele><time>2022-04-13T11:35:04Z</time><name>PT2018</name></trkpt>
<trkpt lat="52.088131" lon="05.647219"><ele>-6.3</ele><time>2022-04-13T11:35:05Z</time><name>PT2019</name></trkpt>
<trkpt lat="52.088131" lon="05.647234"><ele>-6.3</ele><time>2022-04-13T11:35:06Z</time><name>PT2020</name></trkpt>
<trkpt lat="52.088137" lon="05.647249"><ele>-6.1</ele><time>2022-04-13T11:35:07Z</time><name>PT2021</name></trkpt>
<trkpt lat="52.088152" lon="05.647263"><ele>-6.2</ele><time>2022-04-13T11:35:08Z</time><name>PT2022</name></trkpt>
<trkpt lat="52.088170" lon="05.647284"><ele>-6.2</ele><time>2022-04-13T11:35:09Z</time><name>PT2023</name></trkpt>
<trkpt lat="52.088179" lon="05.647305"><ele>-6.2</ele><time>2022-04-13T11:35:10Z</time><name>PT2024</name></trkpt>
<trkpt lat="52.088191" lon="05.647327"><ele>-6</ele><time>2022-04-13T11:35:11Z</time><name>PT2025</name></trkpt>
<trkpt lat="52.088201" lon="05.647350"><ele>-6</ele><time>2022-04-13T11:35:12Z</time><name>PT2026</name></trkpt>
<trkpt lat="52.088208" lon="05.647370"><ele>-5.9</ele><time>2022-04-13T11:35:13Z</time><name>PT2027</name></trkpt>
<trkpt lat="52.088215" lon="05.647386"><ele>-5.9</ele><time>2022-04-13T11:35:14Z</time><name>PT2028</name></trkpt>
<trkpt lat="52.088219" lon="05.647399"><ele>-5.9</ele><time>2022-04-13T11:35:15Z</time><name>PT2029</name></trkpt>
<trkpt lat="52.088223" lon="05.647408"><ele>-5.8</ele><time>2022-04-13T11:35:16Z</time><name>PT2030</name></trkpt>
<trkpt lat="52.088221" lon="05.647427"><ele>-5.8</ele><time>2022-04-13T11:35:17Z</time><name>PT2031</name></trkpt>
<trkpt lat="52.088219" lon="05.647440"><ele>-5.9</ele><time>2022-04-13T11:35:18Z</time><name>PT2032</name></trkpt>
<trkpt lat="52.088220" lon="05.647454"><ele>-5.8</ele><time>2022-04-13T11:35:19Z</time><name>PT2033</name></trkpt>
<trkpt lat="52.088223" lon="05.647470"><ele>-5.7</ele><time>2022-04-13T11:35:20Z</time><name>PT2034</name></trkpt>
<trkpt lat="52.088225" lon="05.647484"><ele>-5.7</ele><time>2022-04-13T11:35:21Z</time><name>PT2035</name></trkpt>
<trkpt lat="52.088217" lon="05.647507"><ele>-5.7</ele><time>2022-04-13T11:35:22Z</time><name>PT2036</name></trkpt>
<trkpt lat="52.088216" lon="05.647531"><ele>-5.6</ele><time>2022-04-13T11:35:23Z</time><name>PT2037</name></trkpt>
<trkpt lat="52.088216" lon="05.647549"><ele>-5.9</ele><time>2022-04-13T11:35:24Z</time><name>PT2038</name></trkpt>
<trkpt lat="52.088217" lon="05.647560"><ele>-5.9</ele><time>2022-04-13T11:35:25Z</time><name>PT2039</name></trkpt>
<trkpt lat="52.088217" lon="05.647572"><ele>-6</ele><time>2022-04-13T11:35:26Z</time><name>PT2040</name></trkpt>
<trkpt lat="52.088215" lon="05.647586"><ele>-5.9</ele><time>2022-04-13T11:35:27Z</time><name>PT2041</name></trkpt>
<trkpt lat="52.088213" lon="05.647604"><ele>-5.8</ele><time>2022-04-13T11:35:28Z</time><name>PT2042</name></trkpt>
<trkpt lat="52.088215" lon="05.647620"><ele>-5.8</ele><time>2022-04-13T11:35:29Z</time><name>PT2043</name></trkpt>
<trkpt lat="52.088215" lon="05.647643"><ele>-5.8</ele><time>2022-04-13T11:35:30Z</time><name>PT2044</name></trkpt>
<trkpt lat="52.088215" lon="05.647659"><ele>-5.7</ele><time>2022-04-13T11:35:31Z</time><name>PT2045</name></trkpt>
<trkpt lat="52.088216" lon="05.647676"><ele>-5.5</ele><time>2022-04-13T11:35:32Z</time><name>PT2046</name></trkpt>
<trkpt lat="52.088218" lon="05.647694"><ele>-5.5</ele><time>2022-04-13T11:35:33Z</time><name>PT2047</name></trkpt>
<trkpt lat="52.088220" lon="05.647713"><ele>-5.5</ele><time>2022-04-13T11:35:34Z</time><name>PT2048</name></trkpt>
<trkpt lat="52.088224" lon="05.647730"><ele>-5.6</ele><time>2022-04-13T11:35:35Z</time><name>PT2049</name></trkpt>
<trkpt lat="52.088228" lon="05.647752"><ele>-5.6</ele><time>2022-04-13T11:35:36Z</time><name>PT2050</name></trkpt>
<trkpt lat="52.088227" lon="05.647781"><ele>-5.7</ele><time>2022-04-13T11:35:37Z</time><name>PT2051</name></trkpt>
<trkpt lat="52.088228" lon="05.647809"><ele>-5.7</ele><time>2022-04-13T11:35:38Z</time><name>PT2052</name></trkpt>
<trkpt lat="52.088230" lon="05.647828"><ele>-5.7</ele><time>2022-04-13T11:35:39Z</time><name>PT2053</name></trkpt>
<trkpt lat="52.088230" lon="05.647842"><ele>-5.7</ele><time>2022-04-13T11:35:40Z</time><name>PT2054</name></trkpt>
<trkpt lat="52.088232" lon="05.647856"><ele>-5.5</ele><time>2022-04-13T11:35:41Z</time><name>PT2055</name></trkpt>
<trkpt lat="52.088228" lon="05.647864"><ele>-5.5</ele><time>2022-04-13T11:35:42Z</time><name>PT2056</name></trkpt>
<trkpt lat="52.088232" lon="05.647882"><ele>-5.5</ele><time>2022-04-13T11:35:43Z</time><name>PT2057</name></trkpt>
<trkpt lat="52.088235" lon="05.647900"><ele>-5.5</ele><time>2022-04-13T11:35:44Z</time><name>PT2058</name></trkpt>
<trkpt lat="52.088231" lon="05.647920"><ele>-5.5</ele><time>2022-04-13T11:35:45Z</time><name>PT2059</name></trkpt>
<trkpt lat="52.088216" lon="05.647930"><ele>-5.6</ele><time>2022-04-13T11:35:46Z</time><name>PT2060</name></trkpt>
<trkpt lat="52.088217" lon="05.647949"><ele>-5.5</ele><time>2022-04-13T11:35:47Z</time><name>PT2061</name></trkpt>
<trkpt lat="52.088218" lon="05.647959"><ele>-5.7</ele><time>2022-04-13T11:35:48Z</time><name>PT2062</name></trkpt>
<trkpt lat="52.088218" lon="05.647970"><ele>-5.6</ele><time>2022-04-13T11:35:49Z</time><name>PT2063</name></trkpt>
<trkpt lat="52.088217" lon="05.647976"><ele>-5.8</ele><time>2022-04-13T11:35:50Z</time><name>PT2064</name></trkpt>
<trkpt lat="52.088218" lon="05.647993"><ele>-5.6</ele><time>2022-04-13T11:35:52Z</time><name>PT2065</name></trkpt>
<trkpt lat="52.088226" lon="05.648025"><ele>-5.5</ele><time>2022-04-13T11:35:53Z</time><name>PT2066</name></trkpt>
<trkpt lat="52.088231" lon="05.648054"><ele>-5.5</ele><time>2022-04-13T11:35:54Z</time><name>PT2067</name></trkpt>
<trkpt lat="52.088237" lon="05.648085"><ele>-5.5</ele><time>2022-04-13T11:35:55Z</time><name>PT2068</name></trkpt>
<trkpt lat="52.088237" lon="05.648118"><ele>-5.9</ele><time>2022-04-13T11:35:56Z</time><name>PT2069</name></trkpt>
<trkpt lat="52.088239" lon="05.648132"><ele>-6</ele><time>2022-04-13T11:35:57Z</time><name>PT2070</name></trkpt>
<trkpt lat="52.088237" lon="05.648149"><ele>-6</ele><time>2022-04-13T11:35:58Z</time><name>PT2071</name></trkpt>
<trkpt lat="52.088246" lon="05.648162"><ele>-5.9</ele><time>2022-04-13T11:35:59Z</time><name>PT2072</name></trkpt>
<trkpt lat="52.088246" lon="05.648180"><ele>-5.8</ele><time>2022-04-13T11:36:00Z</time><name>PT2073</name></trkpt>
<trkpt lat="52.088243" lon="05.648201"><ele>-5.8</ele><time>2022-04-13T11:36:01Z</time><name>PT2074</name></trkpt>
<trkpt lat="52.088248" lon="05.648233"><ele>-5.6</ele><time>2022-04-13T11:36:02Z</time><name>PT2075</name></trkpt>
<trkpt lat="52.088253" lon="05.648252"><ele>-5.6</ele><time>2022-04-13T11:36:03Z</time><name>PT2076</name></trkpt>
<trkpt lat="52.088255" lon="05.648280"><ele>-5.5</ele><time>2022-04-13T11:36:04Z</time><name>PT2077</name></trkpt>
<trkpt lat="52.088260" lon="05.648294"><ele>-5.5</ele><time>2022-04-13T11:36:05Z</time><name>PT2078</name></trkpt>
<trkpt lat="52.088261" lon="05.648312"><ele>-5.4</ele><time>2022-04-13T11:36:06Z</time><name>PT2079</name></trkpt>
<trkpt lat="52.088256" lon="05.648332"><ele>-5.5</ele><time>2022-04-13T11:36:07Z</time><name>PT2080</name></trkpt>
<trkpt lat="52.088258" lon="05.648351"><ele>-5.5</ele><time>2022-04-13T11:36:08Z</time><name>PT2081</name></trkpt>
<trkpt lat="52.088259" lon="05.648371"><ele>-5.5</ele><time>2022-04-13T11:36:09Z</time><name>PT2082</name></trkpt>
<trkpt lat="52.088261" lon="05.648390"><ele>-5.5</ele><time>2022-04-13T11:36:10Z</time><name>PT2083</name></trkpt>
<trkpt lat="52.088261" lon="05.648406"><ele>-5.5</ele><time>2022-04-13T11:36:11Z</time><name>PT2084</name></trkpt>
<trkpt lat="52.088262" lon="05.648427"><ele>-5.5</ele><time>2022-04-13T11:36:12Z</time><name>PT2085</name></trkpt>
<trkpt lat="52.088264" lon="05.648438"><ele>-5.5</ele><time>2022-04-13T11:36:13Z</time><name>PT2086</name></trkpt>
<trkpt lat="52.088263" lon="05.648458"><ele>-5.5</ele><time>2022-04-13T11:36:14Z</time><name>PT2087</name></trkpt>
<trkpt lat="52.088257" lon="05.648475"><ele>-5.2</ele><time>2022-04-13T11:36:15Z</time><name>PT2088</name></trkpt>
<trkpt lat="52.088256" lon="05.648496"><ele>-5.3</ele><time>2022-04-13T11:36:16Z</time><name>PT2089</name></trkpt>
<trkpt lat="52.088256" lon="05.648519"><ele>-5.2</ele><time>2022-04-13T11:36:17Z</time><name>PT2090</name></trkpt>
<trkpt lat="52.088256" lon="05.648541"><ele>-5.1</ele><time>2022-04-13T11:36:18Z</time><name>PT2091</name></trkpt>
<trkpt lat="52.088262" lon="05.648565"><ele>-5.1</ele><time>2022-04-13T11:36:19Z</time><name>PT2092</name></trkpt>
<trkpt lat="52.088266" lon="05.648581"><ele>-5.1</ele><time>2022-04-13T11:36:20Z</time><name>PT2093</name></trkpt>
<trkpt lat="52.088268" lon="05.648590"><ele>-5.1</ele><time>2022-04-13T11:36:21Z</time><name>PT2094</name></trkpt>
<trkpt lat="52.088272" lon="05.648595"><ele>-5.3</ele><time>2022-04-13T11:36:22Z</time><name>PT2095</name></trkpt>
<trkpt lat="52.088276" lon="05.648617"><ele>-5.4</ele><time>2022-04-13T11:36:23Z</time><name>PT2096</name></trkpt>
<trkpt lat="52.088278" lon="05.648633"><ele>-5.5</ele><time>2022-04-13T11:36:24Z</time><name>PT2097</name></trkpt>
<trkpt lat="52.088277" lon="05.648651"><ele>-5.6</ele><time>2022-04-13T11:36:25Z</time><name>PT2098</name></trkpt>
<trkpt lat="52.088278" lon="05.648672"><ele>-5.5</ele><time>2022-04-13T11:36:26Z</time><name>PT2099</name></trkpt>
<trkpt lat="52.088278" lon="05.648684"><ele>-5.5</ele><time>2022-04-13T11:36:27Z</time><name>PT2100</name></trkpt>
<trkpt lat="52.088282" lon="05.648695"><ele>-5.5</ele><time>2022-04-13T11:36:28Z</time><name>PT2101</name></trkpt>
<trkpt lat="52.088284" lon="05.648703"><ele>-5.4</ele><time>2022-04-13T11:36:29Z</time><name>PT2102</name></trkpt>
<trkpt lat="52.088287" lon="05.648713"><ele>-5.5</ele><time>2022-04-13T11:36:30Z</time><name>PT2103</name></trkpt>
<trkpt lat="52.088283" lon="05.648724"><ele>-5.5</ele><time>2022-04-13T11:36:32Z</time><name>PT2104</name></trkpt>
<trkpt lat="52.088289" lon="05.648753"><ele>-5.5</ele><time>2022-04-13T11:36:33Z</time><name>PT2105</name></trkpt>
<trkpt lat="52.088304" lon="05.648769"><ele>-5.5</ele><time>2022-04-13T11:36:34Z</time><name>PT2106</name></trkpt>
<trkpt lat="52.088315" lon="05.648788"><ele>-5.1</ele><time>2022-04-13T11:36:35Z</time><name>PT2107</name></trkpt>
<trkpt lat="52.088323" lon="05.648811"><ele>-5.1</ele><time>2022-04-13T11:36:36Z</time><name>PT2108</name></trkpt>
<trkpt lat="52.088331" lon="05.648822"><ele>-5</ele><time>2022-04-13T11:36:37Z</time><name>PT2109</name></trkpt>
<trkpt lat="52.088337" lon="05.648830"><ele>-4.7</ele><time>2022-04-13T11:36:38Z</time><name>PT2110</name></trkpt>
<trkpt lat="52.088343" lon="05.648841"><ele>-4.9</ele><time>2022-04-13T11:36:39Z</time><name>PT2111</name></trkpt>
<trkpt lat="52.088346" lon="05.648849"><ele>-4.7</ele><time>2022-04-13T11:36:40Z</time><name>PT2112</name></trkpt>
<trkpt lat="52.088349" lon="05.648854"><ele>-4.7</ele><time>2022-04-13T11:36:41Z</time><name>PT2113</name></trkpt>
<trkpt lat="52.088358" lon="05.648865"><ele>-4.8</ele><time>2022-04-13T11:36:42Z</time><name>PT2114</name></trkpt>
<trkpt lat="52.088363" lon="05.648869"><ele>-4.8</ele><time>2022-04-13T11:36:43Z</time><name>PT2115</name></trkpt>
<trkpt lat="52.088373" lon="05.648870"><ele>-4.8</ele><time>2022-04-13T11:36:44Z</time><name>PT2116</name></trkpt>
<trkpt lat="52.088378" lon="05.648872"><ele>-4.8</ele><time>2022-04-13T11:36:45Z</time><name>PT2117</name></trkpt>
<trkpt lat="52.088389" lon="05.648875"><ele>-4.7</ele><time>2022-04-13T11:36:46Z</time><name>PT2118</name></trkpt>
<trkpt lat="52.088399" lon="05.648880"><ele>-4.6</ele><time>2022-04-13T11:36:47Z</time><name>PT2119</name></trkpt>
<trkpt lat="52.088406" lon="05.648885"><ele>-4.6</ele><time>2022-04-13T11:36:48Z</time><name>PT2120</name></trkpt>
<trkpt lat="52.088415" lon="05.648891"><ele>-4.6</ele><time>2022-04-13T11:36:49Z</time><name>PT2121</name></trkpt>
<trkpt lat="52.088423" lon="05.648891"><ele>-4.6</ele><time>2022-04-13T11:36:50Z</time><name>PT2122</name></trkpt>
<trkpt lat="52.088437" lon="05.648901"><ele>-4.7</ele><time>2022-04-13T11:36:52Z</time><name>PT2123</name></trkpt>
<trkpt lat="52.088441" lon="05.648888"><ele>-4.6</ele><time>2022-04-13T11:36:54Z</time><name>PT2124</name></trkpt>
<trkpt lat="52.088448" lon="05.648886"><ele>-4.6</ele><time>2022-04-13T11:36:55Z</time><name>PT2125</name></trkpt>
<trkpt lat="52.088454" lon="05.648886"><ele>-4.6</ele><time>2022-04-13T11:36:56Z</time><name>PT2126</name></trkpt>
<trkpt lat="52.088461" lon="05.648888"><ele>-4.5</ele><time>2022-04-13T11:36:57Z</time><name>PT2127</name></trkpt>
<trkpt lat="52.088465" lon="05.648890"><ele>-4.5</ele><time>2022-04-13T11:36:59Z</time><name>PT2128</name></trkpt>
<trkpt lat="52.088476" lon="05.648897"><ele>-4.5</ele><time>2022-04-13T11:37:00Z</time><name>PT2129</name></trkpt>
<trkpt lat="52.088490" lon="05.648908"><ele>-4.6</ele><time>2022-04-13T11:37:01Z</time><name>PT2130</name></trkpt>
<trkpt lat="52.088501" lon="05.648917"><ele>-4.3</ele><time>2022-04-13T11:37:02Z</time><name>PT2131</name></trkpt>
<trkpt lat="52.088511" lon="05.648927"><ele>-4.2</ele><time>2022-04-13T11:37:03Z</time><name>PT2132</name></trkpt>
<trkpt lat="52.088519" lon="05.648928"><ele>-4.1</ele><time>2022-04-13T11:37:04Z</time><name>PT2133</name></trkpt>
<trkpt lat="52.088537" lon="05.648934"><ele>-4</ele><time>2022-04-13T11:37:05Z</time><name>PT2134</name></trkpt>
<trkpt lat="52.088552" lon="05.648937"><ele>-3.9</ele><time>2022-04-13T11:37:06Z</time><name>PT2135</name></trkpt>
<trkpt lat="52.088564" lon="05.648945"><ele>-4</ele><time>2022-04-13T11:37:07Z</time><name>PT2136</name></trkpt>
<trkpt lat="52.088571" lon="05.648948"><ele>-3.9</ele><time>2022-04-13T11:37:08Z</time><name>PT2137</name></trkpt>
<trkpt lat="52.088573" lon="05.648944"><ele>-3.7</ele><time>2022-04-13T11:37:09Z</time><name>PT2138</name></trkpt>
<trkpt lat="52.088578" lon="05.648947"><ele>-3.6</ele><time>2022-04-13T11:37:10Z</time><name>PT2139</name></trkpt>
<trkpt lat="52.088585" lon="05.648954"><ele>-3.4</ele><time>2022-04-13T11:37:11Z</time><name>PT2140</name></trkpt>
<trkpt lat="52.088604" lon="05.648959"><ele>-3.1</ele><time>2022-04-13T11:37:12Z</time><name>PT2141</name></trkpt>
<trkpt lat="52.088620" lon="05.648971"><ele>-3.1</ele><time>2022-04-13T11:37:13Z</time><name>PT2142</name></trkpt>
<trkpt lat="52.088637" lon="05.648996"><ele>-3.1</ele><time>2022-04-13T11:37:14Z</time><name>PT2143</name></trkpt>
<trkpt lat="52.088653" lon="05.649009"><ele>-3</ele><time>2022-04-13T11:37:15Z</time><name>PT2144</name></trkpt>
<trkpt lat="52.088664" lon="05.649011"><ele>-3.1</ele><time>2022-04-13T11:37:16Z</time><name>PT2145</name></trkpt>
<trkpt lat="52.088670" lon="05.649006"><ele>-2.9</ele><time>2022-04-13T11:37:17Z</time><name>PT2146</name></trkpt>
<trkpt lat="52.088675" lon="05.649005"><ele>-2.9</ele><time>2022-04-13T11:37:18Z</time><name>PT2147</name></trkpt>
<trkpt lat="52.088684" lon="05.649004"><ele>-2.9</ele><time>2022-04-13T11:37:19Z</time><name>PT2148</name></trkpt>
<trkpt lat="52.088696" lon="05.648999"><ele>-2.7</ele><time>2022-04-13T11:37:20Z</time><name>PT2149</name></trkpt>
<trkpt lat="52.088712" lon="05.649004"><ele>-2.6</ele><time>2022-04-13T11:37:21Z</time><name>PT2150</name></trkpt>
<trkpt lat="52.088727" lon="05.649009"><ele>-2.6</ele><time>2022-04-13T11:37:22Z</time><name>PT2151</name></trkpt>
<trkpt lat="52.088735" lon="05.649008"><ele>-2.6</ele><time>2022-04-13T11:37:23Z</time><name>PT2152</name></trkpt>
<trkpt lat="52.088745" lon="05.649001"><ele>-2.4</ele><time>2022-04-13T11:37:24Z</time><name>PT2153</name></trkpt>
<trkpt lat="52.088746" lon="05.648996"><ele>-2.4</ele><time>2022-04-13T11:37:25Z</time><name>PT2154</name></trkpt>
<trkpt lat="52.088749" lon="05.648995"><ele>-2.4</ele><time>2022-04-13T11:37:26Z</time><name>PT2155</name></trkpt>
<trkpt lat="52.088744" lon="05.649006"><ele>-2.3</ele><time>2022-04-13T11:37:27Z</time><name>PT2156</name></trkpt>
<trkpt lat="52.088751" lon="05.649025"><ele>-2.3</ele><time>2022-04-13T11:37:28Z</time><name>PT2157</name></trkpt>
<trkpt lat="52.088771" lon="05.649038"><ele>-2.3</ele><time>2022-04-13T11:37:29Z</time><name>PT2158</name></trkpt>
<trkpt lat="52.088782" lon="05.649050"><ele>-2.2</ele><time>2022-04-13T11:37:30Z</time><name>PT2159</name></trkpt>
<trkpt lat="52.088786" lon="05.649051"><ele>-2.1</ele><time>2022-04-13T11:37:31Z</time><name>PT2160</name></trkpt>
<trkpt lat="52.088789" lon="05.649052"><ele>-2.2</ele><time>2022-04-13T11:37:32Z</time><name>PT2161</name></trkpt>
<trkpt lat="52.088796" lon="05.649052"><ele>-2</ele><time>2022-04-13T11:37:33Z</time><name>PT2162</name></trkpt>
<trkpt lat="52.088804" lon="05.649055"><ele>-2</ele><time>2022-04-13T11:37:34Z</time><name>PT2163</name></trkpt>
<trkpt lat="52.088805" lon="05.649053"><ele>-2</ele><time>2022-04-13T11:37:35Z</time><name>PT2164</name></trkpt>
<trkpt lat="52.088818" lon="05.649063"><ele>-2.1</ele><time>2022-04-13T11:37:36Z</time><name>PT2165</name></trkpt>
<trkpt lat="52.088832" lon="05.649070"><ele>-2.1</ele><time>2022-04-13T11:37:37Z</time><name>PT2166</name></trkpt>
<trkpt lat="52.088842" lon="05.649070"><ele>-2.1</ele><time>2022-04-13T11:37:38Z</time><name>PT2167</name></trkpt>
<trkpt lat="52.088848" lon="05.649071"><ele>-2.1</ele><time>2022-04-13T11:37:39Z</time><name>PT2168</name></trkpt>
<trkpt lat="52.088852" lon="05.649071"><ele>-1.9</ele><time>2022-04-13T11:37:40Z</time><name>PT2169</name></trkpt>
<trkpt lat="52.088866" lon="05.649060"><ele>-1.7</ele><time>2022-04-13T11:37:41Z</time><name>PT2170</name></trkpt>
<trkpt lat="52.088884" lon="05.649056"><ele>-1.6</ele><time>2022-04-13T11:37:42Z</time><name>PT2171</name></trkpt>
<trkpt lat="52.088901" lon="05.649046"><ele>-1.5</ele><time>2022-04-13T11:37:43Z</time><name>PT2172</name></trkpt>
<trkpt lat="52.088922" lon="05.649049"><ele>-1.2</ele><time>2022-04-13T11:37:44Z</time><name>PT2173</name></trkpt>
<trkpt lat="52.088936" lon="05.649055"><ele>-1.3</ele><time>2022-04-13T11:37:45Z</time><name>PT2174</name></trkpt>
<trkpt lat="52.088941" lon="05.649055"><ele>-1.2</ele><time>2022-04-13T11:37:46Z</time><name>PT2175</name></trkpt>
<trkpt lat="52.088949" lon="05.649049"><ele>-1.3</ele><time>2022-04-13T11:37:47Z</time><name>PT2176</name></trkpt>
<trkpt lat="52.088963" lon="05.649046"><ele>-1.2</ele><time>2022-04-13T11:37:48Z</time><name>PT2177</name></trkpt>
<trkpt lat="52.088971" lon="05.649037"><ele>-1.2</ele><time>2022-04-13T11:37:49Z</time><name>PT2178</name></trkpt>
<trkpt lat="52.088981" lon="05.649041"><ele>-1.2</ele><time>2022-04-13T11:37:50Z</time><name>PT2179</name></trkpt>
<trkpt lat="52.089003" lon="05.649056"><ele>-1.3</ele><time>2022-04-13T11:37:51Z</time><name>PT2180</name></trkpt>
<trkpt lat="52.089030" lon="05.649063"><ele>-1.2</ele><time>2022-04-13T11:37:52Z</time><name>PT2181</name></trkpt>
<trkpt lat="52.089046" lon="05.649064"><ele>-1.2</ele><time>2022-04-13T11:37:53Z</time><name>PT2182</name></trkpt>
<trkpt lat="52.089052" lon="05.649068"><ele>-1.2</ele><time>2022-04-13T11:37:54Z</time><name>PT2183</name></trkpt>
<trkpt lat="52.089059" lon="05.649069"><ele>-1.2</ele><time>2022-04-13T11:37:55Z</time><name>PT2184</name></trkpt>
<trkpt lat="52.089073" lon="05.649069"><ele>-1.1</ele><time>2022-04-13T11:37:56Z</time><name>PT2185</name></trkpt>
<trkpt lat="52.089088" lon="05.649069"><ele>0.9</ele><time>2022-04-13T11:37:57Z</time><name>PT2186</name></trkpt>
<trkpt lat="52.089097" lon="05.649074"><ele>-1.1</ele><time>2022-04-13T11:37:58Z</time><name>PT2187</name></trkpt>
<trkpt lat="52.089102" lon="05.649076"><ele>-1</ele><time>2022-04-13T11:37:59Z</time><name>PT2188</name></trkpt>
<trkpt lat="52.089109" lon="05.649079"><ele>-1.2</ele><time>2022-04-13T11:38:00Z</time><name>PT2189</name></trkpt>
<trkpt lat="52.089115" lon="05.649079"><ele>-1.1</ele><time>2022-04-13T11:38:01Z</time><name>PT2190</name></trkpt>
<trkpt lat="52.089122" lon="05.649082"><ele>-1.1</ele><time>2022-04-13T11:38:02Z</time><name>PT2191</name></trkpt>
<trkpt lat="52.089132" lon="05.649076"><ele>0.9</ele><time>2022-04-13T11:38:03Z</time><name>PT2192</name></trkpt>
<trkpt lat="52.089145" lon="05.649076"><ele>-1</ele><time>2022-04-13T11:38:04Z</time><name>PT2193</name></trkpt>
<trkpt lat="52.089157" lon="05.649081"><ele>0.8</ele><time>2022-04-13T11:38:05Z</time><name>PT2194</name></trkpt>
<trkpt lat="52.089164" lon="05.649084"><ele>0.8</ele><time>2022-04-13T11:38:06Z</time><name>PT2195</name></trkpt>
<trkpt lat="52.089163" lon="05.649083"><ele>0.6</ele><time>2022-04-13T11:38:07Z</time><name>PT2196</name></trkpt>
<trkpt lat="52.089167" lon="05.649082"><ele>0.5</ele><time>2022-04-13T11:38:08Z</time><name>PT2197</name></trkpt>
<trkpt lat="52.089172" lon="05.649077"><ele>0.2</ele><time>2022-04-13T11:38:09Z</time><name>PT2198</name></trkpt>
<trkpt lat="52.089189" lon="05.649068"><ele>0</ele><time>2022-04-13T11:38:10Z</time><name>PT2199</name></trkpt>
<trkpt lat="52.089212" lon="05.649083"><ele>0.1</ele><time>2022-04-13T11:38:11Z</time><name>PT2200</name></trkpt>
<trkpt lat="52.089233" lon="05.649095"><ele>0.1</ele><time>2022-04-13T11:38:12Z</time><name>PT2201</name></trkpt>
<trkpt lat="52.089248" lon="05.649103"><ele>0.1</ele><time>2022-04-13T11:38:13Z</time><name>PT2202</name></trkpt>
<trkpt lat="52.089258" lon="05.649110"><ele>0.1</ele><time>2022-04-13T11:38:14Z</time><name>PT2203</name></trkpt>
<trkpt lat="52.089271" lon="05.649104"><ele>0</ele><time>2022-04-13T11:38:15Z</time><name>PT2204</name></trkpt>
<trkpt lat="52.089281" lon="05.649084"><ele>0</ele><time>2022-04-13T11:38:16Z</time><name>PT2205</name></trkpt>
<trkpt lat="52.089295" lon="05.649092"><ele>0</ele><time>2022-04-13T11:38:17Z</time><name>PT2206</name></trkpt>
<trkpt lat="52.089305" lon="05.649108"><ele>0</ele><time>2022-04-13T11:38:18Z</time><name>PT2207</name></trkpt>
<trkpt lat="52.089317" lon="05.649112"><ele>0.2</ele><time>2022-04-13T11:38:19Z</time><name>PT2208</name></trkpt>
<trkpt lat="52.089327" lon="05.649114"><ele>0</ele><time>2022-04-13T11:38:20Z</time><name>PT2209</name></trkpt>
<trkpt lat="52.089334" lon="05.649106"><ele>0</ele><time>2022-04-13T11:38:21Z</time><name>PT2210</name></trkpt>
<trkpt lat="52.089346" lon="05.649090"><ele>0.1</ele><time>2022-04-13T11:38:22Z</time><name>PT2211</name></trkpt>
<trkpt lat="52.089371" lon="05.649084"><ele>0.1</ele><time>2022-04-13T11:38:23Z</time><name>PT2212</name></trkpt>
<trkpt lat="52.089392" lon="05.649081"><ele>0.3</ele><time>2022-04-13T11:38:24Z</time><name>PT2213</name></trkpt>
<trkpt lat="52.089405" lon="05.649082"><ele>0.2</ele><time>2022-04-13T11:38:25Z</time><name>PT2214</name></trkpt>
<trkpt lat="52.089414" lon="05.649080"><ele>0.2</ele><time>2022-04-13T11:38:26Z</time><name>PT2215</name></trkpt>
<trkpt lat="52.089428" lon="05.649079"><ele>0.1</ele><time>2022-04-13T11:38:27Z</time><name>PT2216</name></trkpt>
<trkpt lat="52.089436" lon="05.649079"><ele>0.2</ele><time>2022-04-13T11:38:28Z</time><name>PT2217</name></trkpt>
<trkpt lat="52.089436" lon="05.649078"><ele>0.4</ele><time>2022-04-13T11:38:29Z</time><name>PT2218</name></trkpt>
<trkpt lat="52.089440" lon="05.649077"><ele>0.5</ele><time>2022-04-13T11:38:30Z</time><name>PT2219</name></trkpt>
<trkpt lat="52.089442" lon="05.649081"><ele>0.6</ele><time>2022-04-13T11:38:31Z</time><name>PT2220</name></trkpt>
<trkpt lat="52.089450" lon="05.649078"><ele>0.6</ele><time>2022-04-13T11:38:32Z</time><name>PT2221</name></trkpt>
<trkpt lat="52.089469" lon="05.649074"><ele>0.6</ele><time>2022-04-13T11:38:33Z</time><name>PT2222</name></trkpt>
<trkpt lat="52.089478" lon="05.649078"><ele>0.7</ele><time>2022-04-13T11:38:34Z</time><name>PT2223</name></trkpt>
<trkpt lat="52.089484" lon="05.649078"><ele>0.7</ele><time>2022-04-13T11:38:35Z</time><name>PT2224</name></trkpt>
<trkpt lat="52.089488" lon="05.649076"><ele>0.8</ele><time>2022-04-13T11:38:36Z</time><name>PT2225</name></trkpt>
<trkpt lat="52.089499" lon="05.649072"><ele>0.8</ele><time>2022-04-13T11:38:37Z</time><name>PT2226</name></trkpt>
<trkpt lat="52.089513" lon="05.649078"><ele>0.7</ele><time>2022-04-13T11:38:38Z</time><name>PT2227</name></trkpt>
<trkpt lat="52.089530" lon="05.649084"><ele>0.6</ele><time>2022-04-13T11:38:39Z</time><name>PT2228</name></trkpt>
<trkpt lat="52.089540" lon="05.649083"><ele>0.8</ele><time>2022-04-13T11:38:40Z</time><name>PT2229</name></trkpt>
<trkpt lat="52.089543" lon="05.649082"><ele>0.9</ele><time>2022-04-13T11:38:41Z</time><name>PT2230</name></trkpt>
<trkpt lat="52.089550" lon="05.649080"><ele>1</ele><time>2022-04-13T11:38:42Z</time><name>PT2231</name></trkpt>
<trkpt lat="52.089556" lon="05.649080"><ele>0.9</ele><time>2022-04-13T11:38:43Z</time><name>PT2232</name></trkpt>
<trkpt lat="52.089565" lon="05.649081"><ele>1</ele><time>2022-04-13T11:38:44Z</time><name>PT2233</name></trkpt>
<trkpt lat="52.089569" lon="05.649081"><ele>0.8</ele><time>2022-04-13T11:38:45Z</time><name>PT2234</name></trkpt>
<trkpt lat="52.089576" lon="05.649083"><ele>0.7</ele><time>2022-04-13T11:38:46Z</time><name>PT2235</name></trkpt>
<trkpt lat="52.089584" lon="05.649090"><ele>0.7</ele><time>2022-04-13T11:38:47Z</time><name>PT2236</name></trkpt>
<trkpt lat="52.089601" lon="05.649087"><ele>0.9</ele><time>2022-04-13T11:38:48Z</time><name>PT2237</name></trkpt>
<trkpt lat="52.089616" lon="05.649090"><ele>1.1</ele><time>2022-04-13T11:38:49Z</time><name>PT2238</name></trkpt>
<trkpt lat="52.089632" lon="05.649095"><ele>1.1</ele><time>2022-04-13T11:38:50Z</time><name>PT2239</name></trkpt>
<trkpt lat="52.089637" lon="05.649094"><ele>1.1</ele><time>2022-04-13T11:38:51Z</time><name>PT2240</name></trkpt>
<trkpt lat="52.089642" lon="05.649094"><ele>1.1</ele><time>2022-04-13T11:38:52Z</time><name>PT2241</name></trkpt>
<trkpt lat="52.089645" lon="05.649095"><ele>1</ele><time>2022-04-13T11:38:53Z</time><name>PT2242</name></trkpt>
<trkpt lat="52.089649" lon="05.649097"><ele>1</ele><time>2022-04-13T11:38:54Z</time><name>PT2243</name></trkpt>
<trkpt lat="52.089656" lon="05.649101"><ele>1.1</ele><time>2022-04-13T11:38:55Z</time><name>PT2244</name></trkpt>
<trkpt lat="52.089667" lon="05.649111"><ele>1.3</ele><time>2022-04-13T11:38:56Z</time><name>PT2245</name></trkpt>
<trkpt lat="52.089680" lon="05.649118"><ele>1.6</ele><time>2022-04-13T11:38:57Z</time><name>PT2246</name></trkpt>
<trkpt lat="52.089690" lon="05.649115"><ele>1.6</ele><time>2022-04-13T11:38:58Z</time><name>PT2247</name></trkpt>
<trkpt lat="52.089703" lon="05.649124"><ele>1.6</ele><time>2022-04-13T11:38:59Z</time><name>PT2248</name></trkpt>
<trkpt lat="52.089712" lon="05.649127"><ele>1.6</ele><time>2022-04-13T11:39:00Z</time><name>PT2249</name></trkpt>
<trkpt lat="52.089725" lon="05.649134"><ele>1.5</ele><time>2022-04-13T11:39:01Z</time><name>PT2250</name></trkpt>
<trkpt lat="52.089740" lon="05.649142"><ele>1.6</ele><time>2022-04-13T11:39:02Z</time><name>PT2251</name></trkpt>
<trkpt lat="52.089758" lon="05.649145"><ele>1.6</ele><time>2022-04-13T11:39:03Z</time><name>PT2252</name></trkpt>
<trkpt lat="52.089777" lon="05.649153"><ele>1.6</ele><time>2022-04-13T11:39:04Z</time><name>PT2253</name></trkpt>
<trkpt lat="52.089786" lon="05.649154"><ele>1.6</ele><time>2022-04-13T11:39:05Z</time><name>PT2254</name></trkpt>
<trkpt lat="52.089797" lon="05.649157"><ele>1.5</ele><time>2022-04-13T11:39:06Z</time><name>PT2255</name></trkpt>
<trkpt lat="52.089810" lon="05.649155"><ele>1.2</ele><time>2022-04-13T11:39:07Z</time><name>PT2256</name></trkpt>
<trkpt lat="52.089825" lon="05.649159"><ele>1.4</ele><time>2022-04-13T11:39:08Z</time><name>PT2257</name></trkpt>
<trkpt lat="52.089837" lon="05.649168"><ele>1.5</ele><time>2022-04-13T11:39:09Z</time><name>PT2258</name></trkpt>
<trkpt lat="52.089846" lon="05.649169"><ele>1.5</ele><time>2022-04-13T11:39:10Z</time><name>PT2259</name></trkpt>
<trkpt lat="52.089854" lon="05.649173"><ele>1.6</ele><time>2022-04-13T11:39:11Z</time><name>PT2260</name></trkpt>
<trkpt lat="52.089859" lon="05.649172"><ele>1.6</ele><time>2022-04-13T11:39:12Z</time><name>PT2261</name></trkpt>
<trkpt lat="52.089865" lon="05.649169"><ele>1.6</ele><time>2022-04-13T11:39:13Z</time><name>PT2262</name></trkpt>
<trkpt lat="52.089880" lon="05.649166"><ele>1.6</ele><time>2022-04-13T11:39:14Z</time><name>PT2263</name></trkpt>
<trkpt lat="52.089898" lon="05.649169"><ele>1.7</ele><time>2022-04-13T11:39:15Z</time><name>PT2264</name></trkpt>
<trkpt lat="52.089915" lon="05.649173"><ele>1.8</ele><time>2022-04-13T11:39:16Z</time><name>PT2265</name></trkpt>
<trkpt lat="52.089932" lon="05.649178"><ele>1.9</ele><time>2022-04-13T11:39:17Z</time><name>PT2266</name></trkpt>
<trkpt lat="52.089946" lon="05.649182"><ele>2</ele><time>2022-04-13T11:39:18Z</time><name>PT2267</name></trkpt>
<trkpt lat="52.089953" lon="05.649181"><ele>2</ele><time>2022-04-13T11:39:19Z</time><name>PT2268</name></trkpt>
<trkpt lat="52.089959" lon="05.649179"><ele>2.1</ele><time>2022-04-13T11:39:20Z</time><name>PT2269</name></trkpt>
<trkpt lat="52.089974" lon="05.649184"><ele>2</ele><time>2022-04-13T11:39:21Z</time><name>PT2270</name></trkpt>
<trkpt lat="52.089989" lon="05.649190"><ele>2</ele><time>2022-04-13T11:39:22Z</time><name>PT2271</name></trkpt>
<trkpt lat="52.090002" lon="05.649192"><ele>2.1</ele><time>2022-04-13T11:39:23Z</time><name>PT2272</name></trkpt>
<trkpt lat="52.090018" lon="05.649193"><ele>2.3</ele><time>2022-04-13T11:39:24Z</time><name>PT2273</name></trkpt>
<trkpt lat="52.090029" lon="05.649197"><ele>2.3</ele><time>2022-04-13T11:39:25Z</time><name>PT2274</name></trkpt>
<trkpt lat="52.090041" lon="05.649198"><ele>2.5</ele><time>2022-04-13T11:39:26Z</time><name>PT2275</name></trkpt>
<trkpt lat="52.090051" lon="05.649202"><ele>2.5</ele><time>2022-04-13T11:39:27Z</time><name>PT2276</name></trkpt>
<trkpt lat="52.090060" lon="05.649213"><ele>2.3</ele><time>2022-04-13T11:39:28Z</time><name>PT2277</name></trkpt>
<trkpt lat="52.090073" lon="05.649218"><ele>2.3</ele><time>2022-04-13T11:39:29Z</time><name>PT2278</name></trkpt>
<trkpt lat="52.090086" lon="05.649205"><ele>2.3</ele><time>2022-04-13T11:39:30Z</time><name>PT2279</name></trkpt>
<trkpt lat="52.090104" lon="05.649206"><ele>2.3</ele><time>2022-04-13T11:39:31Z</time><name>PT2280</name></trkpt>
<trkpt lat="52.090122" lon="05.649210"><ele>2.2</ele><time>2022-04-13T11:39:32Z</time><name>PT2281</name></trkpt>
<trkpt lat="52.090135" lon="05.649212"><ele>2.2</ele><time>2022-04-13T11:39:33Z</time><name>PT2282</name></trkpt>
<trkpt lat="52.090137" lon="05.649208"><ele>2.2</ele><time>2022-04-13T11:39:34Z</time><name>PT2283</name></trkpt>
<trkpt lat="52.090140" lon="05.649209"><ele>2.1</ele><time>2022-04-13T11:39:35Z</time><name>PT2284</name></trkpt>
<trkpt lat="52.090155" lon="05.649204"><ele>2.1</ele><time>2022-04-13T11:39:36Z</time><name>PT2285</name></trkpt>
<trkpt lat="52.090179" lon="05.649196"><ele>2.1</ele><time>2022-04-13T11:39:37Z</time><name>PT2286</name></trkpt>
<trkpt lat="52.090198" lon="05.649202"><ele>2.1</ele><time>2022-04-13T11:39:38Z</time><name>PT2287</name></trkpt>
<trkpt lat="52.090215" lon="05.649210"><ele>2.1</ele><time>2022-04-13T11:39:39Z</time><name>PT2288</name></trkpt>
<trkpt lat="52.090224" lon="05.649208"><ele>2.2</ele><time>2022-04-13T11:39:40Z</time><name>PT2289</name></trkpt>
<trkpt lat="52.090226" lon="05.649205"><ele>2.3</ele><time>2022-04-13T11:39:41Z</time><name>PT2290</name></trkpt>
<trkpt lat="52.090227" lon="05.649202"><ele>2.3</ele><time>2022-04-13T11:39:42Z</time><name>PT2291</name></trkpt>
<trkpt lat="52.090231" lon="05.649201"><ele>2.4</ele><time>2022-04-13T11:39:43Z</time><name>PT2292</name></trkpt>
<trkpt lat="52.090236" lon="05.649204"><ele>2.5</ele><time>2022-04-13T11:39:44Z</time><name>PT2293</name></trkpt>
<trkpt lat="52.090249" lon="05.649206"><ele>2.5</ele><time>2022-04-13T11:39:45Z</time><name>PT2294</name></trkpt>
<trkpt lat="52.090269" lon="05.649212"><ele>2.5</ele><time>2022-04-13T11:39:46Z</time><name>PT2295</name></trkpt>
<trkpt lat="52.090289" lon="05.649225"><ele>2.6</ele><time>2022-04-13T11:39:47Z</time><name>PT2296</name></trkpt>
<trkpt lat="52.090297" lon="05.649233"><ele>2.6</ele><time>2022-04-13T11:39:48Z</time><name>PT2297</name></trkpt>
<trkpt lat="52.090302" lon="05.649232"><ele>2.6</ele><time>2022-04-13T11:39:49Z</time><name>PT2298</name></trkpt>
<trkpt lat="52.090305" lon="05.649234"><ele>2.6</ele><time>2022-04-13T11:39:50Z</time><name>PT2299</name></trkpt>
<trkpt lat="52.090311" lon="05.649237"><ele>2.6</ele><time>2022-04-13T11:39:51Z</time><name>PT2300</name></trkpt>
<trkpt lat="52.090316" lon="05.649234"><ele>2.8</ele><time>2022-04-13T11:39:52Z</time><name>PT2301</name></trkpt>
<trkpt lat="52.090318" lon="05.649231"><ele>2.8</ele><time>2022-04-13T11:39:53Z</time><name>PT2302</name></trkpt>
<trkpt lat="52.090322" lon="05.649228"><ele>3</ele><time>2022-04-13T11:39:54Z</time><name>PT2303</name></trkpt>
<trkpt lat="52.090332" lon="05.649229"><ele>3</ele><time>2022-04-13T11:39:55Z</time><name>PT2304</name></trkpt>
<trkpt lat="52.090343" lon="05.649229"><ele>3</ele><time>2022-04-13T11:39:56Z</time><name>PT2305</name></trkpt>
<trkpt lat="52.090360" lon="05.649228"><ele>2.9</ele><time>2022-04-13T11:39:57Z</time><name>PT2306</name></trkpt>
<trkpt lat="52.090380" lon="05.649230"><ele>3</ele><time>2022-04-13T11:39:58Z</time><name>PT2307</name></trkpt>
<trkpt lat="52.090399" lon="05.649233"><ele>3.1</ele><time>2022-04-13T11:39:59Z</time><name>PT2308</name></trkpt>
<trkpt lat="52.090414" lon="05.649240"><ele>3.1</ele><time>2022-04-13T11:40:00Z</time><name>PT2309</name></trkpt>
<trkpt lat="52.090429" lon="05.649240"><ele>3.1</ele><time>2022-04-13T11:40:01Z</time><name>PT2310</name></trkpt>
<trkpt lat="52.090453" lon="05.649236"><ele>3.2</ele><time>2022-04-13T11:40:02Z</time><name>PT2311</name></trkpt>
<trkpt lat="52.090471" lon="05.649228"><ele>3.3</ele><time>2022-04-13T11:40:03Z</time><name>PT2312</name></trkpt>
<trkpt lat="52.090492" lon="05.649235"><ele>3.4</ele><time>2022-04-13T11:40:04Z</time><name>PT2313</name></trkpt>
<trkpt lat="52.090504" lon="05.649231"><ele>3.4</ele><time>2022-04-13T11:40:05Z</time><name>PT2314</name></trkpt>
<trkpt lat="52.090516" lon="05.649231"><ele>3.5</ele><time>2022-04-13T11:40:06Z</time><name>PT2315</name></trkpt>
<trkpt lat="52.090526" lon="05.649232"><ele>3.5</ele><time>2022-04-13T11:40:07Z</time><name>PT2316</name></trkpt>
<trkpt lat="52.090533" lon="05.649230"><ele>3.5</ele><time>2022-04-13T11:40:08Z</time><name>PT2317</name></trkpt>
<trkpt lat="52.090540" lon="05.649230"><ele>3.6</ele><time>2022-04-13T11:40:09Z</time><name>PT2318</name></trkpt>
<trkpt lat="52.090546" lon="05.649232"><ele>3.7</ele><time>2022-04-13T11:40:10Z</time><name>PT2319</name></trkpt>
<trkpt lat="52.090556" lon="05.649235"><ele>3.7</ele><time>2022-04-13T11:40:11Z</time><name>PT2320</name></trkpt>
<trkpt lat="52.090571" lon="05.649240"><ele>3.9</ele><time>2022-04-13T11:40:12Z</time><name>PT2321</name></trkpt>
<trkpt lat="52.090587" lon="05.649247"><ele>4</ele><time>2022-04-13T11:40:13Z</time><name>PT2322</name></trkpt>
<trkpt lat="52.090587" lon="05.649239"><ele>4</ele><time>2022-04-13T11:40:14Z</time><name>PT2323</name></trkpt>
<trkpt lat="52.090607" lon="05.649238"><ele>4.1</ele><time>2022-04-13T11:40:15Z</time><name>PT2324</name></trkpt>
<trkpt lat="52.090630" lon="05.649241"><ele>4.3</ele><time>2022-04-13T11:40:16Z</time><name>PT2325</name></trkpt>
<trkpt lat="52.090648" lon="05.649242"><ele>4.2</ele><time>2022-04-13T11:40:17Z</time><name>PT2326</name></trkpt>
<trkpt lat="52.090657" lon="05.649241"><ele>4.1</ele><time>2022-04-13T11:40:18Z</time><name>PT2327</name></trkpt>
<trkpt lat="52.090666" lon="05.649243"><ele>4.2</ele><time>2022-04-13T11:40:19Z</time><name>PT2328</name></trkpt>
<trkpt lat="52.090674" lon="05.649244"><ele>4.3</ele><time>2022-04-13T11:40:20Z</time><name>PT2329</name></trkpt>
<trkpt lat="52.090684" lon="05.649244"><ele>4.3</ele><time>2022-04-13T11:40:21Z</time><name>PT2330</name></trkpt>
<trkpt lat="52.090701" lon="05.649250"><ele>4.2</ele><time>2022-04-13T11:40:22Z</time><name>PT2331</name></trkpt>
<trkpt lat="52.090715" lon="05.649251"><ele>4.2</ele><time>2022-04-13T11:40:23Z</time><name>PT2332</name></trkpt>
<trkpt lat="52.090726" lon="05.649251"><ele>4.2</ele><time>2022-04-13T11:40:24Z</time><name>PT2333</name></trkpt>
<trkpt lat="52.090730" lon="05.649250"><ele>4.1</ele><time>2022-04-13T11:40:25Z</time><name>PT2334</name></trkpt>
<trkpt lat="52.090735" lon="05.649248"><ele>4.1</ele><time>2022-04-13T11:40:26Z</time><name>PT2335</name></trkpt>
<trkpt lat="52.090738" lon="05.649249"><ele>4.2</ele><time>2022-04-13T11:40:27Z</time><name>PT2336</name></trkpt>
<trkpt lat="52.090744" lon="05.649249"><ele>4.3</ele><time>2022-04-13T11:40:28Z</time><name>PT2337</name></trkpt>
<trkpt lat="52.090757" lon="05.649246"><ele>4.4</ele><time>2022-04-13T11:40:29Z</time><name>PT2338</name></trkpt>
<trkpt lat="52.090770" lon="05.649248"><ele>4.5</ele><time>2022-04-13T11:40:30Z</time><name>PT2339</name></trkpt>
<trkpt lat="52.090774" lon="05.649251"><ele>4.5</ele><time>2022-04-13T11:40:31Z</time><name>PT2340</name></trkpt>
<trkpt lat="52.090787" lon="05.649254"><ele>4.7</ele><time>2022-04-13T11:40:32Z</time><name>PT2341</name></trkpt>
<trkpt lat="52.090802" lon="05.649250"><ele>4.6</ele><time>2022-04-13T11:40:33Z</time><name>PT2342</name></trkpt>
<trkpt lat="52.090815" lon="05.649251"><ele>4.7</ele><time>2022-04-13T11:40:34Z</time><name>PT2343</name></trkpt>
<trkpt lat="52.090826" lon="05.649254"><ele>4.8</ele><time>2022-04-13T11:40:35Z</time><name>PT2344</name></trkpt>
<trkpt lat="52.090830" lon="05.649252"><ele>4.9</ele><time>2022-04-13T11:40:36Z</time><name>PT2345</name></trkpt>
<trkpt lat="52.090839" lon="05.649252"><ele>5</ele><time>2022-04-13T11:40:37Z</time><name>PT2346</name></trkpt>
<trkpt lat="52.090858" lon="05.649253"><ele>5.1</ele><time>2022-04-13T11:40:38Z</time><name>PT2347</name></trkpt>
<trkpt lat="52.090879" lon="05.649260"><ele>5.2</ele><time>2022-04-13T11:40:39Z</time><name>PT2348</name></trkpt>
<trkpt lat="52.090896" lon="05.649266"><ele>5.1</ele><time>2022-04-13T11:40:40Z</time><name>PT2349</name></trkpt>
<trkpt lat="52.090902" lon="05.649266"><ele>5.2</ele><time>2022-04-13T11:40:41Z</time><name>PT2350</name></trkpt>
<trkpt lat="52.090900" lon="05.649272"><ele>5.3</ele><time>2022-04-13T11:40:42Z</time><name>PT2351</name></trkpt>
<trkpt lat="52.090906" lon="05.649280"><ele>5.4</ele><time>2022-04-13T11:40:43Z</time><name>PT2352</name></trkpt>
<trkpt lat="52.090913" lon="05.649285"><ele>5.3</ele><time>2022-04-13T11:40:44Z</time><name>PT2353</name></trkpt>
<trkpt lat="52.090923" lon="05.649289"><ele>5.4</ele><time>2022-04-13T11:40:45Z</time><name>PT2354</name></trkpt>
<trkpt lat="52.090940" lon="05.649294"><ele>5.5</ele><time>2022-04-13T11:40:46Z</time><name>PT2355</name></trkpt>
<trkpt lat="52.090956" lon="05.649293"><ele>5.5</ele><time>2022-04-13T11:40:47Z</time><name>PT2356</name></trkpt>
<trkpt lat="52.090979" lon="05.649301"><ele>5.4</ele><time>2022-04-13T11:40:48Z</time><name>PT2357</name></trkpt>
<trkpt lat="52.090998" lon="05.649310"><ele>5.6</ele><time>2022-04-13T11:40:49Z</time><name>PT2358</name></trkpt>
<trkpt lat="52.091004" lon="05.649310"><ele>5.7</ele><time>2022-04-13T11:40:50Z</time><name>PT2359</name></trkpt>
<trkpt lat="52.091009" lon="05.649315"><ele>5.7</ele><time>2022-04-13T11:40:51Z</time><name>PT2360</name></trkpt>
<trkpt lat="52.091016" lon="05.649315"><ele>5.8</ele><time>2022-04-13T11:40:52Z</time><name>PT2361</name></trkpt>
<trkpt lat="52.091022" lon="05.649315"><ele>5.8</ele><time>2022-04-13T11:40:53Z</time><name>PT2362</name></trkpt>
<trkpt lat="52.091042" lon="05.649305"><ele>5.7</ele><time>2022-04-13T11:40:54Z</time><name>PT2363</name></trkpt>
<trkpt lat="52.091060" lon="05.649307"><ele>5.8</ele><time>2022-04-13T11:40:55Z</time><name>PT2364</name></trkpt>
<trkpt lat="52.091073" lon="05.649311"><ele>5.8</ele><time>2022-04-13T11:40:56Z</time><name>PT2365</name></trkpt>
<trkpt lat="52.091087" lon="05.649316"><ele>5.9</ele><time>2022-04-13T11:40:57Z</time><name>PT2366</name></trkpt>
<trkpt lat="52.091098" lon="05.649319"><ele>6</ele><time>2022-04-13T11:40:58Z</time><name>PT2367</name></trkpt>
<trkpt lat="52.091107" lon="05.649319"><ele>6.2</ele><time>2022-04-13T11:40:59Z</time><name>PT2368</name></trkpt>
<trkpt lat="52.091109" lon="05.649318"><ele>6.3</ele><time>2022-04-13T11:41:00Z</time><name>PT2369</name></trkpt>
<trkpt lat="52.091112" lon="05.649316"><ele>6.4</ele><time>2022-04-13T11:41:01Z</time><name>PT2370</name></trkpt>
<trkpt lat="52.091119" lon="05.649320"><ele>6.4</ele><time>2022-04-13T11:41:02Z</time><name>PT2371</name></trkpt>
<trkpt lat="52.091134" lon="05.649327"><ele>6.4</ele><time>2022-04-13T11:41:03Z</time><name>PT2372</name></trkpt>
<trkpt lat="52.091151" lon="05.649333"><ele>6.2</ele><time>2022-04-13T11:41:04Z</time><name>PT2373</name></trkpt>
<trkpt lat="52.091172" lon="05.649332"><ele>6.2</ele><time>2022-04-13T11:41:05Z</time><name>PT2374</name></trkpt>
<trkpt lat="52.091191" lon="05.649346"><ele>6.3</ele><time>2022-04-13T11:41:06Z</time><name>PT2375</name></trkpt>
<trkpt lat="52.091203" lon="05.649357"><ele>6.4</ele><time>2022-04-13T11:41:07Z</time><name>PT2376</name></trkpt>
<trkpt lat="52.091211" lon="05.649359"><ele>6.4</ele><time>2022-04-13T11:41:08Z</time><name>PT2377</name></trkpt>
<trkpt lat="52.091215" lon="05.649358"><ele>6.6</ele><time>2022-04-13T11:41:09Z</time><name>PT2378</name></trkpt>
<trkpt lat="52.091228" lon="05.649353"><ele>6.6</ele><time>2022-04-13T11:41:10Z</time><name>PT2379</name></trkpt>
<trkpt lat="52.091240" lon="05.649358"><ele>6.7</ele><time>2022-04-13T11:41:11Z</time><name>PT2380</name></trkpt>
<trkpt lat="52.091259" lon="05.649362"><ele>6.8</ele><time>2022-04-13T11:41:12Z</time><name>PT2381</name></trkpt>
<trkpt lat="52.091282" lon="05.649369"><ele>6.8</ele><time>2022-04-13T11:41:13Z</time><name>PT2382</name></trkpt>
<trkpt lat="52.091298" lon="05.649375"><ele>6.8</ele><time>2022-04-13T11:41:14Z</time><name>PT2383</name></trkpt>
<trkpt lat="52.091306" lon="05.649378"><ele>6.9</ele><time>2022-04-13T11:41:15Z</time><name>PT2384</name></trkpt>
<trkpt lat="52.091309" lon="05.649381"><ele>6.9</ele><time>2022-04-13T11:41:16Z</time><name>PT2385</name></trkpt>
<trkpt lat="52.091314" lon="05.649380"><ele>6.9</ele><time>2022-04-13T11:41:17Z</time><name>PT2386</name></trkpt>
<trkpt lat="52.091315" lon="05.649383"><ele>7.1</ele><time>2022-04-13T11:41:18Z</time><name>PT2387</name></trkpt>
<trkpt lat="52.091315" lon="05.649388"><ele>7</ele><time>2022-04-13T11:41:19Z</time><name>PT2388</name></trkpt>
<trkpt lat="52.091315" lon="05.649390"><ele>6.8</ele><time>2022-04-13T11:41:20Z</time><name>PT2389</name></trkpt>
<trkpt lat="52.091317" lon="05.649392"><ele>6.9</ele><time>2022-04-13T11:41:25Z</time><name>PT2390</name></trkpt>
<trkpt lat="52.091334" lon="05.649395"><ele>6.9</ele><time>2022-04-13T11:41:26Z</time><name>PT2391</name></trkpt>
<trkpt lat="52.091353" lon="05.649392"><ele>6.9</ele><time>2022-04-13T11:41:27Z</time><name>PT2392</name></trkpt>
<trkpt lat="52.091378" lon="05.649393"><ele>7</ele><time>2022-04-13T11:41:28Z</time><name>PT2393</name></trkpt>
<trkpt lat="52.091389" lon="05.649400"><ele>7</ele><time>2022-04-13T11:41:29Z</time><name>PT2394</name></trkpt>
<trkpt lat="52.091396" lon="05.649401"><ele>7.3</ele><time>2022-04-13T11:41:30Z</time><name>PT2395</name></trkpt>
<trkpt lat="52.091397" lon="05.649401"><ele>7.4</ele><time>2022-04-13T11:41:31Z</time><name>PT2396</name></trkpt>
<trkpt lat="52.091407" lon="05.649399"><ele>7.6</ele><time>2022-04-13T11:41:32Z</time><name>PT2397</name></trkpt>
<trkpt lat="52.091426" lon="05.649397"><ele>7.6</ele><time>2022-04-13T11:41:33Z</time><name>PT2398</name></trkpt>
<trkpt lat="52.091440" lon="05.649399"><ele>7.9</ele><time>2022-04-13T11:41:34Z</time><name>PT2399</name></trkpt>
<trkpt lat="52.091442" lon="05.649393"><ele>7.8</ele><time>2022-04-13T11:41:35Z</time><name>PT2400</name></trkpt>
<trkpt lat="52.091446" lon="05.649391"><ele>7.6</ele><time>2022-04-13T11:41:36Z</time><name>PT2401</name></trkpt>
<trkpt lat="52.091453" lon="05.649387"><ele>7.5</ele><time>2022-04-13T11:41:37Z</time><name>PT2402</name></trkpt>
<trkpt lat="52.091467" lon="05.649374"><ele>7.4</ele><time>2022-04-13T11:41:38Z</time><name>PT2403</name></trkpt>
<trkpt lat="52.091479" lon="05.649371"><ele>7.4</ele><time>2022-04-13T11:41:39Z</time><name>PT2404</name></trkpt>
<trkpt lat="52.091487" lon="05.649382"><ele>7.7</ele><time>2022-04-13T11:41:40Z</time><name>PT2405</name></trkpt>
<trkpt lat="52.091492" lon="05.649378"><ele>7.9</ele><time>2022-04-13T11:41:41Z</time><name>PT2406</name></trkpt>
<trkpt lat="52.091493" lon="05.649369"><ele>8.2</ele><time>2022-04-13T11:41:42Z</time><name>PT2407</name></trkpt>
<trkpt lat="52.091492" lon="05.649359"><ele>8.3</ele><time>2022-04-13T11:41:43Z</time><name>PT2408</name></trkpt>
<trkpt lat="52.091492" lon="05.649350"><ele>8.4</ele><time>2022-04-13T11:41:44Z</time><name>PT2409</name></trkpt>
<trkpt lat="52.091493" lon="05.649343"><ele>8</ele><time>2022-04-13T11:41:47Z</time><name>PT2410</name></trkpt>
<trkpt lat="52.091499" lon="05.649336"><ele>7.9</ele><time>2022-04-13T11:41:48Z</time><name>PT2411</name></trkpt>
<trkpt lat="52.091511" lon="05.649332"><ele>8</ele><time>2022-04-13T11:41:49Z</time><name>PT2412</name></trkpt>
<trkpt lat="52.091527" lon="05.649339"><ele>8</ele><time>2022-04-13T11:41:50Z</time><name>PT2413</name></trkpt>
<trkpt lat="52.091546" lon="05.649359"><ele>8</ele><time>2022-04-13T11:41:51Z</time><name>PT2414</name></trkpt>
<trkpt lat="52.091550" lon="05.649374"><ele>8</ele><time>2022-04-13T11:41:52Z</time><name>PT2415</name></trkpt>
<trkpt lat="52.091559" lon="05.649383"><ele>8.2</ele><time>2022-04-13T11:41:53Z</time><name>PT2416</name></trkpt>
<trkpt lat="52.091561" lon="05.649389"><ele>8.4</ele><time>2022-04-13T11:41:54Z</time><name>PT2417</name></trkpt>
<trkpt lat="52.091562" lon="05.649395"><ele>8.5</ele><time>2022-04-13T11:41:55Z</time><name>PT2418</name></trkpt>
<trkpt lat="52.091563" lon="05.649406"><ele>8.4</ele><time>2022-04-13T11:41:56Z</time><name>PT2419</name></trkpt>
<trkpt lat="52.091573" lon="05.649429"><ele>8.7</ele><time>2022-04-13T11:41:57Z</time><name>PT2420</name></trkpt>
<trkpt lat="52.091573" lon="05.649444"><ele>8.6</ele><time>2022-04-13T11:41:58Z</time><name>PT2421</name></trkpt>
<trkpt lat="52.091571" lon="05.649456"><ele>8.6</ele><time>2022-04-13T11:41:59Z</time><name>PT2422</name></trkpt>
<trkpt lat="52.091581" lon="05.649472"><ele>8.6</ele><time>2022-04-13T11:42:00Z</time><name>PT2423</name></trkpt>
<trkpt lat="52.091582" lon="05.649489"><ele>8.7</ele><time>2022-04-13T11:42:01Z</time><name>PT2424</name></trkpt>
<trkpt lat="52.091582" lon="05.649505"><ele>8.8</ele><time>2022-04-13T11:42:02Z</time><name>PT2425</name></trkpt>
<trkpt lat="52.091577" lon="05.649514"><ele>8.7</ele><time>2022-04-13T11:42:03Z</time><name>PT2426</name></trkpt>
<trkpt lat="52.091578" lon="05.649524"><ele>8.6</ele><time>2022-04-13T11:42:04Z</time><name>PT2427</name></trkpt>
<trkpt lat="52.091582" lon="05.649539"><ele>8.5</ele><time>2022-04-13T11:42:05Z</time><name>PT2428</name></trkpt>
<trkpt lat="52.091585" lon="05.649553"><ele>8.5</ele><time>2022-04-13T11:42:06Z</time><name>PT2429</name></trkpt>
<trkpt lat="52.091589" lon="05.649577"><ele>8.5</ele><time>2022-04-13T11:42:07Z</time><name>PT2430</name></trkpt>
<trkpt lat="52.091589" lon="05.649605"><ele>8.5</ele><time>2022-04-13T11:42:08Z</time><name>PT2431</name></trkpt>
<trkpt lat="52.091589" lon="05.649622"><ele>8.5</ele><time>2022-04-13T11:42:09Z</time><name>PT2432</name></trkpt>
<trkpt lat="52.091594" lon="05.649629"><ele>8.5</ele><time>2022-04-13T11:42:10Z</time><name>PT2433</name></trkpt>
<trkpt lat="52.091598" lon="05.649631"><ele>8.4</ele><time>2022-04-13T11:42:11Z</time><name>PT2434</name></trkpt>
<trkpt lat="52.091607" lon="05.649636"><ele>8.4</ele><time>2022-04-13T11:42:12Z</time><name>PT2435</name></trkpt>
<trkpt lat="52.091619" lon="05.649647"><ele>8.6</ele><time>2022-04-13T11:42:13Z</time><name>PT2436</name></trkpt>
<trkpt lat="52.091630" lon="05.649661"><ele>8.8</ele><time>2022-04-13T11:42:14Z</time><name>PT2437</name></trkpt>
<trkpt lat="52.091634" lon="05.649665"><ele>9.1</ele><time>2022-04-13T11:42:15Z</time><name>PT2438</name></trkpt>
<trkpt lat="52.091638" lon="05.649679"><ele>9.2</ele><time>2022-04-13T11:42:16Z</time><name>PT2439</name></trkpt>
<trkpt lat="52.091646" lon="05.649692"><ele>9.4</ele><time>2022-04-13T11:42:17Z</time><name>PT2440</name></trkpt>
<trkpt lat="52.091651" lon="05.649699"><ele>9.1</ele><time>2022-04-13T11:42:18Z</time><name>PT2441</name></trkpt>
<trkpt lat="52.091659" lon="05.649714"><ele>9</ele><time>2022-04-13T11:42:19Z</time><name>PT2442</name></trkpt>
<trkpt lat="52.091670" lon="05.649724"><ele>9</ele><time>2022-04-13T11:42:20Z</time><name>PT2443</name></trkpt>
<trkpt lat="52.091675" lon="05.649730"><ele>9.1</ele><time>2022-04-13T11:42:21Z</time><name>PT2444</name></trkpt>
<trkpt lat="52.091685" lon="05.649739"><ele>9.1</ele><time>2022-04-13T11:42:22Z</time><name>PT2445</name></trkpt>
<trkpt lat="52.091697" lon="05.649747"><ele>9.4</ele><time>2022-04-13T11:42:23Z</time><name>PT2446</name></trkpt>
<trkpt lat="52.091708" lon="05.649757"><ele>9.4</ele><time>2022-04-13T11:42:24Z</time><name>PT2447</name></trkpt>
<trkpt lat="52.091714" lon="05.649761"><ele>9.3</ele><time>2022-04-13T11:42:25Z</time><name>PT2448</name></trkpt>
<trkpt lat="52.091724" lon="05.649764"><ele>9</ele><time>2022-04-13T11:42:26Z</time><name>PT2449</name></trkpt>
<trkpt lat="52.091735" lon="05.649765"><ele>9.1</ele><time>2022-04-13T11:42:27Z</time><name>PT2450</name></trkpt>
<trkpt lat="52.091748" lon="05.649764"><ele>9.2</ele><time>2022-04-13T11:42:28Z</time><name>PT2451</name></trkpt>
<trkpt lat="52.091751" lon="05.649764"><ele>9.3</ele><time>2022-04-13T11:42:29Z</time><name>PT2452</name></trkpt>
<trkpt lat="52.091758" lon="05.649764"><ele>9.3</ele><time>2022-04-13T11:42:30Z</time><name>PT2453</name></trkpt>
<trkpt lat="52.091765" lon="05.649758"><ele>9.3</ele><time>2022-04-13T11:42:31Z</time><name>PT2454</name></trkpt>
<trkpt lat="52.091772" lon="05.649744"><ele>9.3</ele><time>2022-04-13T11:42:32Z</time><name>PT2455</name></trkpt>
<trkpt lat="52.091782" lon="05.649723"><ele>9.3</ele><time>2022-04-13T11:42:33Z</time><name>PT2456</name></trkpt>
<trkpt lat="52.091787" lon="05.649712"><ele>9.3</ele><time>2022-04-13T11:42:34Z</time><name>PT2457</name></trkpt>
<trkpt lat="52.091796" lon="05.649707"><ele>9.4</ele><time>2022-04-13T11:42:35Z</time><name>PT2458</name></trkpt>
<trkpt lat="52.091799" lon="05.649706"><ele>9.4</ele><time>2022-04-13T11:42:36Z</time><name>PT2459</name></trkpt>
<trkpt lat="52.091802" lon="05.649701"><ele>9.4</ele><time>2022-04-13T11:42:37Z</time><name>PT2460</name></trkpt>
<trkpt lat="52.091802" lon="05.649695"><ele>9.5</ele><time>2022-04-13T11:42:38Z</time><name>PT2461</name></trkpt>
<trkpt lat="52.091805" lon="05.649679"><ele>9.6</ele><time>2022-04-13T11:42:39Z</time><name>PT2462</name></trkpt>
<trkpt lat="52.091812" lon="05.649662"><ele>9.8</ele><time>2022-04-13T11:42:40Z</time><name>PT2463</name></trkpt>
<trkpt lat="52.091818" lon="05.649656"><ele>9.8</ele><time>2022-04-13T11:42:41Z</time><name>PT2464</name></trkpt>
<trkpt lat="52.091822" lon="05.649651"><ele>9.8</ele><time>2022-04-13T11:42:42Z</time><name>PT2465</name></trkpt>
<trkpt lat="52.091827" lon="05.649648"><ele>9.8</ele><time>2022-04-13T11:42:43Z</time><name>PT2466</name></trkpt>
<trkpt lat="52.091837" lon="05.649641"><ele>9.8</ele><time>2022-04-13T11:42:44Z</time><name>PT2467</name></trkpt>
<trkpt lat="52.091840" lon="05.649623"><ele>9.9</ele><time>2022-04-13T11:42:45Z</time><name>PT2468</name></trkpt>
<trkpt lat="52.091842" lon="05.649599"><ele>9.8</ele><time>2022-04-13T11:42:46Z</time><name>PT2469</name></trkpt>
<trkpt lat="52.091853" lon="05.649588"><ele>9.8</ele><time>2022-04-13T11:42:47Z</time><name>PT2470</name></trkpt>
<trkpt lat="52.091862" lon="05.649582"><ele>10</ele><time>2022-04-13T11:42:48Z</time><name>PT2471</name></trkpt>
<trkpt lat="52.091869" lon="05.649578"><ele>10.1</ele><time>2022-04-13T11:42:49Z</time><name>PT2472</name></trkpt>
<trkpt lat="52.091874" lon="05.649573"><ele>10</ele><time>2022-04-13T11:42:50Z</time><name>PT2473</name></trkpt>
<trkpt lat="52.091883" lon="05.649560"><ele>10.2</ele><time>2022-04-13T11:42:51Z</time><name>PT2474</name></trkpt>
<trkpt lat="52.091901" lon="05.649543"><ele>10.3</ele><time>2022-04-13T11:42:52Z</time><name>PT2475</name></trkpt>
<trkpt lat="52.091910" lon="05.649525"><ele>10.3</ele><time>2022-04-13T11:42:53Z</time><name>PT2476</name></trkpt>
<trkpt lat="52.091921" lon="05.649518"><ele>10.3</ele><time>2022-04-13T11:42:54Z</time><name>PT2477</name></trkpt>
<trkpt lat="52.091924" lon="05.649515"><ele>10.6</ele><time>2022-04-13T11:42:55Z</time><name>PT2478</name></trkpt>
<trkpt lat="52.091927" lon="05.649514"><ele>10.8</ele><time>2022-04-13T11:42:56Z</time><name>PT2479</name></trkpt>
<trkpt lat="52.091932" lon="05.649509"><ele>10.9</ele><time>2022-04-13T11:42:57Z</time><name>PT2480</name></trkpt>
<trkpt lat="52.091940" lon="05.649504"><ele>11.1</ele><time>2022-04-13T11:42:58Z</time><name>PT2481</name></trkpt>
<trkpt lat="52.091950" lon="05.649494"><ele>11</ele><time>2022-04-13T11:42:59Z</time><name>PT2482</name></trkpt>
<trkpt lat="52.091968" lon="05.649491"><ele>11.2</ele><time>2022-04-13T11:43:00Z</time><name>PT2483</name></trkpt>
<trkpt lat="52.091982" lon="05.649475"><ele>11.2</ele><time>2022-04-13T11:43:01Z</time><name>PT2484</name></trkpt>
<trkpt lat="52.091996" lon="05.649465"><ele>11.3</ele><time>2022-04-13T11:43:02Z</time><name>PT2485</name></trkpt>
<trkpt lat="52.092004" lon="05.649461"><ele>11.3</ele><time>2022-04-13T11:43:03Z</time><name>PT2486</name></trkpt>
<trkpt lat="52.092011" lon="05.649462"><ele>11.3</ele><time>2022-04-13T11:43:04Z</time><name>PT2487</name></trkpt>
<trkpt lat="52.092012" lon="05.649461"><ele>11.4</ele><time>2022-04-13T11:43:05Z</time><name>PT2488</name></trkpt>
<trkpt lat="52.092017" lon="05.649457"><ele>11.4</ele><time>2022-04-13T11:43:06Z</time><name>PT2489</name></trkpt>
<trkpt lat="52.092028" lon="05.649447"><ele>11.5</ele><time>2022-04-13T11:43:07Z</time><name>PT2490</name></trkpt>
<trkpt lat="52.092033" lon="05.649427"><ele>11.8</ele><time>2022-04-13T11:43:08Z</time><name>PT2491</name></trkpt>
<trkpt lat="52.092043" lon="05.649420"><ele>11.8</ele><time>2022-04-13T11:43:09Z</time><name>PT2492</name></trkpt>
<trkpt lat="52.092053" lon="05.649417"><ele>11.8</ele><time>2022-04-13T11:43:10Z</time><name>PT2493</name></trkpt>
<trkpt lat="52.092060" lon="05.649417"><ele>11.8</ele><time>2022-04-13T11:43:11Z</time><name>PT2494</name></trkpt>
<trkpt lat="52.092066" lon="05.649417"><ele>11.8</ele><time>2022-04-13T11:43:12Z</time><name>PT2495</name></trkpt>
<trkpt lat="52.092073" lon="05.649416"><ele>11.8</ele><time>2022-04-13T11:43:13Z</time><name>PT2496</name></trkpt>
<trkpt lat="52.092080" lon="05.649408"><ele>11.9</ele><time>2022-04-13T11:43:14Z</time><name>PT2497</name></trkpt>
<trkpt lat="52.092094" lon="05.649397"><ele>12</ele><time>2022-04-13T11:43:15Z</time><name>PT2498</name></trkpt>
<trkpt lat="52.092105" lon="05.649393"><ele>12.1</ele><time>2022-04-13T11:43:16Z</time><name>PT2499</name></trkpt>
<trkpt lat="52.092111" lon="05.649394"><ele>12.3</ele><time>2022-04-13T11:43:17Z</time><name>PT2500</name></trkpt>
<trkpt lat="52.092117" lon="05.649394"><ele>12.3</ele><time>2022-04-13T11:43:18Z</time><name>PT2501</name></trkpt>
<trkpt lat="52.092121" lon="05.649393"><ele>12.4</ele><time>2022-04-13T11:43:19Z</time><name>PT2502</name></trkpt>
<trkpt lat="52.092127" lon="05.649392"><ele>12.4</ele><time>2022-04-13T11:43:20Z</time><name>PT2503</name></trkpt>
<trkpt lat="52.092139" lon="05.649386"><ele>12.5</ele><time>2022-04-13T11:43:21Z</time><name>PT2504</name></trkpt>
<trkpt lat="52.092152" lon="05.649382"><ele>12.7</ele><time>2022-04-13T11:43:22Z</time><name>PT2505</name></trkpt>
<trkpt lat="52.092164" lon="05.649381"><ele>12.8</ele><time>2022-04-13T11:43:23Z</time><name>PT2506</name></trkpt>
<trkpt lat="52.092175" lon="05.649383"><ele>12.9</ele><time>2022-04-13T11:43:24Z</time><name>PT2507</name></trkpt>
<trkpt lat="52.092179" lon="05.649385"><ele>12.9</ele><time>2022-04-13T11:43:25Z</time><name>PT2508</name></trkpt>
<trkpt lat="52.092185" lon="05.649381"><ele>12.9</ele><time>2022-04-13T11:43:26Z</time><name>PT2509</name></trkpt>
<trkpt lat="52.092193" lon="05.649371"><ele>13.2</ele><time>2022-04-13T11:43:27Z</time><name>PT2510</name></trkpt>
<trkpt lat="52.092208" lon="05.649349"><ele>13</ele><time>2022-04-13T11:43:28Z</time><name>PT2511</name></trkpt>
<trkpt lat="52.092225" lon="05.649351"><ele>13</ele><time>2022-04-13T11:43:29Z</time><name>PT2512</name></trkpt>
<trkpt lat="52.092241" lon="05.649355"><ele>13</ele><time>2022-04-13T11:43:30Z</time><name>PT2513</name></trkpt>
<trkpt lat="52.092251" lon="05.649356"><ele>13.1</ele><time>2022-04-13T11:43:31Z</time><name>PT2514</name></trkpt>
<trkpt lat="52.092259" lon="05.649357"><ele>12.9</ele><time>2022-04-13T11:43:32Z</time><name>PT2515</name></trkpt>
<trkpt lat="52.092269" lon="05.649352"><ele>13.1</ele><time>2022-04-13T11:43:33Z</time><name>PT2516</name></trkpt>
<trkpt lat="52.092282" lon="05.649343"><ele>13</ele><time>2022-04-13T11:43:34Z</time><name>PT2517</name></trkpt>
<trkpt lat="52.092294" lon="05.649341"><ele>13.1</ele><time>2022-04-13T11:43:35Z</time><name>PT2518</name></trkpt>
<trkpt lat="52.092306" lon="05.649347"><ele>13.2</ele><time>2022-04-13T11:43:36Z</time><name>PT2519</name></trkpt>
<trkpt lat="52.092309" lon="05.649345"><ele>13.4</ele><time>2022-04-13T11:43:37Z</time><name>PT2520</name></trkpt>
<trkpt lat="52.092309" lon="05.649340"><ele>13.6</ele><time>2022-04-13T11:43:38Z</time><name>PT2521</name></trkpt>
<trkpt lat="52.092319" lon="05.649326"><ele>13.8</ele><time>2022-04-13T11:43:39Z</time><name>PT2522</name></trkpt>
<trkpt lat="52.092333" lon="05.649318"><ele>13.8</ele><time>2022-04-13T11:43:40Z</time><name>PT2523</name></trkpt>
<trkpt lat="52.092349" lon="05.649311"><ele>13.8</ele><time>2022-04-13T11:43:41Z</time><name>PT2524</name></trkpt>
<trkpt lat="52.092366" lon="05.649307"><ele>14.1</ele><time>2022-04-13T11:43:42Z</time><name>PT2525</name></trkpt>
<trkpt lat="52.092377" lon="05.649307"><ele>14.1</ele><time>2022-04-13T11:43:43Z</time><name>PT2526</name></trkpt>
<trkpt lat="52.092386" lon="05.649309"><ele>14.2</ele><time>2022-04-13T11:43:44Z</time><name>PT2527</name></trkpt>
<trkpt lat="52.092382" lon="05.649323"><ele>14.2</ele><time>2022-04-13T11:43:45Z</time><name>PT2528</name></trkpt>
<trkpt lat="52.092394" lon="05.649311"><ele>14.2</ele><time>2022-04-13T11:43:46Z</time><name>PT2529</name></trkpt>
<trkpt lat="52.092409" lon="05.649305"><ele>14.2</ele><time>2022-04-13T11:43:47Z</time><name>PT2530</name></trkpt>
<trkpt lat="52.092424" lon="05.649309"><ele>14</ele><time>2022-04-13T11:43:48Z</time><name>PT2531</name></trkpt>
<trkpt lat="52.092434" lon="05.649308"><ele>14.1</ele><time>2022-04-13T11:43:49Z</time><name>PT2532</name></trkpt>
<trkpt lat="52.092440" lon="05.649303"><ele>14.2</ele><time>2022-04-13T11:43:50Z</time><name>PT2533</name></trkpt>
<trkpt lat="52.092445" lon="05.649302"><ele>14.2</ele><time>2022-04-13T11:43:51Z</time><name>PT2534</name></trkpt>
<trkpt lat="52.092462" lon="05.649291"><ele>14.2</ele><time>2022-04-13T11:43:52Z</time><name>PT2535</name></trkpt>
<trkpt lat="52.092482" lon="05.649286"><ele>14.2</ele><time>2022-04-13T11:43:53Z</time><name>PT2536</name></trkpt>
<trkpt lat="52.092500" lon="05.649285"><ele>14.2</ele><time>2022-04-13T11:43:54Z</time><name>PT2537</name></trkpt>
<trkpt lat="52.092513" lon="05.649284"><ele>14.2</ele><time>2022-04-13T11:43:55Z</time><name>PT2538</name></trkpt>
<trkpt lat="52.092525" lon="05.649288"><ele>14.3</ele><time>2022-04-13T11:43:56Z</time><name>PT2539</name></trkpt>
<trkpt lat="52.092535" lon="05.649294"><ele>14.3</ele><time>2022-04-13T11:43:57Z</time><name>PT2540</name></trkpt>
<trkpt lat="52.092551" lon="05.649280"><ele>14.6</ele><time>2022-04-13T11:43:58Z</time><name>PT2541</name></trkpt>
<trkpt lat="52.092568" lon="05.649279"><ele>14.6</ele><time>2022-04-13T11:43:59Z</time><name>PT2542</name></trkpt>
<trkpt lat="52.092577" lon="05.649280"><ele>14.7</ele><time>2022-04-13T11:44:00Z</time><name>PT2543</name></trkpt>
<trkpt lat="52.092579" lon="05.649277"><ele>14.7</ele><time>2022-04-13T11:44:01Z</time><name>PT2544</name></trkpt>
<trkpt lat="52.092583" lon="05.649275"><ele>14.7</ele><time>2022-04-13T11:44:02Z</time><name>PT2545</name></trkpt>
<trkpt lat="52.092592" lon="05.649272"><ele>14.8</ele><time>2022-04-13T11:44:03Z</time><name>PT2546</name></trkpt>
<trkpt lat="52.092607" lon="05.649267"><ele>14.9</ele><time>2022-04-13T11:44:04Z</time><name>PT2547</name></trkpt>
<trkpt lat="52.092621" lon="05.649263"><ele>14.8</ele><time>2022-04-13T11:44:05Z</time><name>PT2548</name></trkpt>
<trkpt lat="52.092641" lon="05.649256"><ele>14.9</ele><time>2022-04-13T11:44:06Z</time><name>PT2549</name></trkpt>
<trkpt lat="52.092658" lon="05.649256"><ele>15.1</ele><time>2022-04-13T11:44:07Z</time><name>PT2550</name></trkpt>
<trkpt lat="52.092672" lon="05.649261"><ele>15.1</ele><time>2022-04-13T11:44:08Z</time><name>PT2551</name></trkpt>
<trkpt lat="52.092679" lon="05.649262"><ele>15.1</ele><time>2022-04-13T11:44:09Z</time><name>PT2552</name></trkpt>
<trkpt lat="52.092683" lon="05.649260"><ele>15.2</ele><time>2022-04-13T11:44:10Z</time><name>PT2553</name></trkpt>
<trkpt lat="52.092691" lon="05.649250"><ele>15.3</ele><time>2022-04-13T11:44:11Z</time><name>PT2554</name></trkpt>
<trkpt lat="52.092711" lon="05.649244"><ele>15.2</ele><time>2022-04-13T11:44:12Z</time><name>PT2555</name></trkpt>
<trkpt lat="52.092733" lon="05.649241"><ele>15.3</ele><time>2022-04-13T11:44:13Z</time><name>PT2556</name></trkpt>
<trkpt lat="52.092746" lon="05.649249"><ele>15.4</ele><time>2022-04-13T11:44:14Z</time><name>PT2557</name></trkpt>
<trkpt lat="52.092752" lon="05.649252"><ele>15.3</ele><time>2022-04-13T11:44:15Z</time><name>PT2558</name></trkpt>
<trkpt lat="52.092749" lon="05.649257"><ele>15.4</ele><time>2022-04-13T11:44:16Z</time><name>PT2559</name></trkpt>
<trkpt lat="52.092752" lon="05.649252"><ele>15.4</ele><time>2022-04-13T11:44:17Z</time><name>PT2560</name></trkpt>
<trkpt lat="52.092764" lon="05.649246"><ele>15.5</ele><time>2022-04-13T11:44:18Z</time><name>PT2561</name></trkpt>
<trkpt lat="52.092786" lon="05.649240"><ele>15.7</ele><time>2022-04-13T11:44:19Z</time><name>PT2562</name></trkpt>
<trkpt lat="52.092801" lon="05.649243"><ele>15.7</ele><time>2022-04-13T11:44:20Z</time><name>PT2563</name></trkpt>
<trkpt lat="52.092812" lon="05.649245"><ele>15.7</ele><time>2022-04-13T11:44:21Z</time><name>PT2564</name></trkpt>
<trkpt lat="52.092818" lon="05.649243"><ele>15.7</ele><time>2022-04-13T11:44:22Z</time><name>PT2565</name></trkpt>
<trkpt lat="52.092824" lon="05.649237"><ele>15.7</ele><time>2022-04-13T11:44:23Z</time><name>PT2566</name></trkpt>
<trkpt lat="52.092836" lon="05.649237"><ele>15.6</ele><time>2022-04-13T11:44:24Z</time><name>PT2567</name></trkpt>
<trkpt lat="52.092854" lon="05.649244"><ele>15.7</ele><time>2022-04-13T11:44:25Z</time><name>PT2568</name></trkpt>
<trkpt lat="52.092869" lon="05.649251"><ele>15.7</ele><time>2022-04-13T11:44:26Z</time><name>PT2569</name></trkpt>
<trkpt lat="52.092875" lon="05.649250"><ele>15.8</ele><time>2022-04-13T11:44:27Z</time><name>PT2570</name></trkpt>
<trkpt lat="52.092879" lon="05.649250"><ele>16</ele><time>2022-04-13T11:44:28Z</time><name>PT2571</name></trkpt>
<trkpt lat="52.092886" lon="05.649254"><ele>16</ele><time>2022-04-13T11:44:29Z</time><name>PT2572</name></trkpt>
<trkpt lat="52.092894" lon="05.649254"><ele>16.2</ele><time>2022-04-13T11:44:30Z</time><name>PT2573</name></trkpt>
<trkpt lat="52.092907" lon="05.649250"><ele>16.2</ele><time>2022-04-13T11:44:31Z</time><name>PT2574</name></trkpt>
<trkpt lat="52.092926" lon="05.649259"><ele>16.1</ele><time>2022-04-13T11:44:32Z</time><name>PT2575</name></trkpt>
<trkpt lat="52.092941" lon="05.649268"><ele>16.2</ele><time>2022-04-13T11:44:33Z</time><name>PT2576</name></trkpt>
<trkpt lat="52.092950" lon="05.649271"><ele>16.3</ele><time>2022-04-13T11:44:34Z</time><name>PT2577</name></trkpt>
<trkpt lat="52.092955" lon="05.649271"><ele>16.2</ele><time>2022-04-13T11:44:35Z</time><name>PT2578</name></trkpt>
<trkpt lat="52.092971" lon="05.649267"><ele>16.2</ele><time>2022-04-13T11:44:36Z</time><name>PT2579</name></trkpt>
<trkpt lat="52.092979" lon="05.649260"><ele>16.3</ele><time>2022-04-13T11:44:37Z</time><name>PT2580</name></trkpt>
<trkpt lat="52.092995" lon="05.649264"><ele>16.2</ele><time>2022-04-13T11:44:38Z</time><name>PT2581</name></trkpt>
<trkpt lat="52.093007" lon="05.649271"><ele>16.4</ele><time>2022-04-13T11:44:39Z</time><name>PT2582</name></trkpt>
<trkpt lat="52.093015" lon="05.649276"><ele>16.4</ele><time>2022-04-13T11:44:40Z</time><name>PT2583</name></trkpt>
<trkpt lat="52.093020" lon="05.649274"><ele>16.5</ele><time>2022-04-13T11:44:41Z</time><name>PT2584</name></trkpt>
<trkpt lat="52.093025" lon="05.649269"><ele>16.6</ele><time>2022-04-13T11:44:42Z</time><name>PT2585</name></trkpt>
<trkpt lat="52.093032" lon="05.649262"><ele>16.6</ele><time>2022-04-13T11:44:43Z</time><name>PT2586</name></trkpt>
<trkpt lat="52.093041" lon="05.649254"><ele>16.6</ele><time>2022-04-13T11:44:44Z</time><name>PT2587</name></trkpt>
<trkpt lat="52.093053" lon="05.649258"><ele>16.7</ele><time>2022-04-13T11:44:45Z</time><name>PT2588</name></trkpt>
<trkpt lat="52.093071" lon="05.649266"><ele>16.7</ele><time>2022-04-13T11:44:46Z</time><name>PT2589</name></trkpt>
<trkpt lat="52.093085" lon="05.649276"><ele>16.9</ele><time>2022-04-13T11:44:47Z</time><name>PT2590</name></trkpt>
<trkpt lat="52.093096" lon="05.649283"><ele>17.1</ele><time>2022-04-13T11:44:48Z</time><name>PT2591</name></trkpt>
<trkpt lat="52.093101" lon="05.649287"><ele>17.2</ele><time>2022-04-13T11:44:49Z</time><name>PT2592</name></trkpt>
<trkpt lat="52.093104" lon="05.649287"><ele>17.3</ele><time>2022-04-13T11:44:50Z</time><name>PT2593</name></trkpt>
<trkpt lat="52.093107" lon="05.649285"><ele>17.4</ele><time>2022-04-13T11:44:51Z</time><name>PT2594</name></trkpt>
<trkpt lat="52.093116" lon="05.649284"><ele>17.5</ele><time>2022-04-13T11:44:52Z</time><name>PT2595</name></trkpt>
<trkpt lat="52.093132" lon="05.649288"><ele>17.5</ele><time>2022-04-13T11:44:53Z</time><name>PT2596</name></trkpt>
<trkpt lat="52.093145" lon="05.649296"><ele>17.5</ele><time>2022-04-13T11:44:54Z</time><name>PT2597</name></trkpt>
<trkpt lat="52.093157" lon="05.649299"><ele>17.6</ele><time>2022-04-13T11:44:55Z</time><name>PT2598</name></trkpt>
<trkpt lat="52.093162" lon="05.649301"><ele>17.6</ele><time>2022-04-13T11:44:56Z</time><name>PT2599</name></trkpt>
<trkpt lat="52.093166" lon="05.649297"><ele>17.6</ele><time>2022-04-13T11:44:57Z</time><name>PT2600</name></trkpt>
<trkpt lat="52.093180" lon="05.649297"><ele>17.8</ele><time>2022-04-13T11:44:58Z</time><name>PT2601</name></trkpt>
<trkpt lat="52.093198" lon="05.649311"><ele>17.8</ele><time>2022-04-13T11:44:59Z</time><name>PT2602</name></trkpt>
<trkpt lat="52.093214" lon="05.649328"><ele>17.9</ele><time>2022-04-13T11:45:00Z</time><name>PT2603</name></trkpt>
<trkpt lat="52.093224" lon="05.649338"><ele>18</ele><time>2022-04-13T11:45:01Z</time><name>PT2604</name></trkpt>
<trkpt lat="52.093233" lon="05.649347"><ele>18.1</ele><time>2022-04-13T11:45:02Z</time><name>PT2605</name></trkpt>
<trkpt lat="52.093240" lon="05.649352"><ele>18.1</ele><time>2022-04-13T11:45:03Z</time><name>PT2606</name></trkpt>
<trkpt lat="52.093244" lon="05.649349"><ele>18.1</ele><time>2022-04-13T11:45:04Z</time><name>PT2607</name></trkpt>
<trkpt lat="52.093252" lon="05.649354"><ele>18.3</ele><time>2022-04-13T11:45:05Z</time><name>PT2608</name></trkpt>
<trkpt lat="52.093265" lon="05.649365"><ele>18.4</ele><time>2022-04-13T11:45:06Z</time><name>PT2609</name></trkpt>
<trkpt lat="52.093279" lon="05.649375"><ele>18.4</ele><time>2022-04-13T11:45:07Z</time><name>PT2610</name></trkpt>
<trkpt lat="52.093289" lon="05.649382"><ele>18.4</ele><time>2022-04-13T11:45:08Z</time><name>PT2611</name></trkpt>
<trkpt lat="52.093298" lon="05.649383"><ele>18.5</ele><time>2022-04-13T11:45:09Z</time><name>PT2612</name></trkpt>
<trkpt lat="52.093302" lon="05.649380"><ele>18.5</ele><time>2022-04-13T11:45:10Z</time><name>PT2613</name></trkpt>
<trkpt lat="52.093310" lon="05.649384"><ele>18.6</ele><time>2022-04-13T11:45:11Z</time><name>PT2614</name></trkpt>
<trkpt lat="52.093325" lon="05.649385"><ele>18.6</ele><time>2022-04-13T11:45:12Z</time><name>PT2615</name></trkpt>
<trkpt lat="52.093338" lon="05.649386"><ele>18.6</ele><time>2022-04-13T11:45:13Z</time><name>PT2616</name></trkpt>
<trkpt lat="52.093350" lon="05.649394"><ele>18.6</ele><time>2022-04-13T11:45:14Z</time><name>PT2617</name></trkpt>
<trkpt lat="52.093372" lon="05.649407"><ele>18.7</ele><time>2022-04-13T11:45:15Z</time><name>PT2618</name></trkpt>
<trkpt lat="52.093382" lon="05.649415"><ele>18.9</ele><time>2022-04-13T11:45:16Z</time><name>PT2619</name></trkpt>
<trkpt lat="52.093387" lon="05.649420"><ele>18.9</ele><time>2022-04-13T11:45:17Z</time><name>PT2620</name></trkpt>
<trkpt lat="52.093390" lon="05.649422"><ele>19.1</ele><time>2022-04-13T11:45:18Z</time><name>PT2621</name></trkpt>
<trkpt lat="52.093397" lon="05.649426"><ele>19.3</ele><time>2022-04-13T11:45:19Z</time><name>PT2622</name></trkpt>
<trkpt lat="52.093408" lon="05.649426"><ele>19.2</ele><time>2022-04-13T11:45:20Z</time><name>PT2623</name></trkpt>
<trkpt lat="52.093419" lon="05.649433"><ele>19.2</ele><time>2022-04-13T11:45:21Z</time><name>PT2624</name></trkpt>
<trkpt lat="52.093437" lon="05.649443"><ele>19.3</ele><time>2022-04-13T11:45:22Z</time><name>PT2625</name></trkpt>
<trkpt lat="52.093454" lon="05.649461"><ele>19.3</ele><time>2022-04-13T11:45:23Z</time><name>PT2626</name></trkpt>
<trkpt lat="52.093465" lon="05.649467"><ele>19.4</ele><time>2022-04-13T11:45:24Z</time><name>PT2627</name></trkpt>
<trkpt lat="52.093466" lon="05.649466"><ele>19.5</ele><time>2022-04-13T11:45:25Z</time><name>PT2628</name></trkpt>
<trkpt lat="52.093469" lon="05.649469"><ele>19.4</ele><time>2022-04-13T11:45:26Z</time><name>PT2629</name></trkpt>
<trkpt lat="52.093477" lon="05.649472"><ele>19.6</ele><time>2022-04-13T11:45:27Z</time><name>PT2630</name></trkpt>
<trkpt lat="52.093489" lon="05.649479"><ele>19.7</ele><time>2022-04-13T11:45:28Z</time><name>PT2631</name></trkpt>
<trkpt lat="52.093504" lon="05.649487"><ele>19.8</ele><time>2022-04-13T11:45:29Z</time><name>PT2632</name></trkpt>
<trkpt lat="52.093519" lon="05.649494"><ele>19.7</ele><time>2022-04-13T11:45:30Z</time><name>PT2633</name></trkpt>
<trkpt lat="52.093530" lon="05.649496"><ele>20</ele><time>2022-04-13T11:45:31Z</time><name>PT2634</name></trkpt>
<trkpt lat="52.093535" lon="05.649493"><ele>20.1</ele><time>2022-04-13T11:45:32Z</time><name>PT2635</name></trkpt>
<trkpt lat="52.093536" lon="05.649497"><ele>20.2</ele><time>2022-04-13T11:45:33Z</time><name>PT2636</name></trkpt>
<trkpt lat="52.093540" lon="05.649502"><ele>20.3</ele><time>2022-04-13T11:45:34Z</time><name>PT2637</name></trkpt>
<trkpt lat="52.093557" lon="05.649506"><ele>20.5</ele><time>2022-04-13T11:45:35Z</time><name>PT2638</name></trkpt>
<trkpt lat="52.093572" lon="05.649520"><ele>20.6</ele><time>2022-04-13T11:45:36Z</time><name>PT2639</name></trkpt>
<trkpt lat="52.093586" lon="05.649532"><ele>20.7</ele><time>2022-04-13T11:45:37Z</time><name>PT2640</name></trkpt>
<trkpt lat="52.093594" lon="05.649540"><ele>20.6</ele><time>2022-04-13T11:45:38Z</time><name>PT2641</name></trkpt>
<trkpt lat="52.093599" lon="05.649543"><ele>20.6</ele><time>2022-04-13T11:45:39Z</time><name>PT2642</name></trkpt>
<trkpt lat="52.093602" lon="05.649549"><ele>20.8</ele><time>2022-04-13T11:45:40Z</time><name>PT2643</name></trkpt>
<trkpt lat="52.093607" lon="05.649555"><ele>20.7</ele><time>2022-04-13T11:45:41Z</time><name>PT2644</name></trkpt>
<trkpt lat="52.093617" lon="05.649562"><ele>20.7</ele><time>2022-04-13T11:45:42Z</time><name>PT2645</name></trkpt>
<trkpt lat="52.093630" lon="05.649573"><ele>20.8</ele><time>2022-04-13T11:45:43Z</time><name>PT2646</name></trkpt>
<trkpt lat="52.093638" lon="05.649579"><ele>21.1</ele><time>2022-04-13T11:45:44Z</time><name>PT2647</name></trkpt>
<trkpt lat="52.093639" lon="05.649579"><ele>21.1</ele><time>2022-04-13T11:45:45Z</time><name>PT2648</name></trkpt>
<trkpt lat="52.093642" lon="05.649577"><ele>21.3</ele><time>2022-04-13T11:45:46Z</time><name>PT2649</name></trkpt>
<trkpt lat="52.093645" lon="05.649574"><ele>21.5</ele><time>2022-04-13T11:45:47Z</time><name>PT2650</name></trkpt>
<trkpt lat="52.093661" lon="05.649579"><ele>21.5</ele><time>2022-04-13T11:45:48Z</time><name>PT2651</name></trkpt>
<trkpt lat="52.093677" lon="05.649585"><ele>21.5</ele><time>2022-04-13T11:45:49Z</time><name>PT2652</name></trkpt>
<trkpt lat="52.093687" lon="05.649596"><ele>21.6</ele><time>2022-04-13T11:45:50Z</time><name>PT2653</name></trkpt>
<trkpt lat="52.093699" lon="05.649607"><ele>21.6</ele><time>2022-04-13T11:45:51Z</time><name>PT2654</name></trkpt>
<trkpt lat="52.093705" lon="05.649610"><ele>21.7</ele><time>2022-04-13T11:45:52Z</time><name>PT2655</name></trkpt>
<trkpt lat="52.093712" lon="05.649611"><ele>21.7</ele><time>2022-04-13T11:45:53Z</time><name>PT2656</name></trkpt>
<trkpt lat="52.093722" lon="05.649615"><ele>21.6</ele><time>2022-04-13T11:45:54Z</time><name>PT2657</name></trkpt>
<trkpt lat="52.093734" lon="05.649616"><ele>21.5</ele><time>2022-04-13T11:45:55Z</time><name>PT2658</name></trkpt>
<trkpt lat="52.093745" lon="05.649622"><ele>21.5</ele><time>2022-04-13T11:45:56Z</time><name>PT2659</name></trkpt>
<trkpt lat="52.093750" lon="05.649628"><ele>21.5</ele><time>2022-04-13T11:45:57Z</time><name>PT2660</name></trkpt>
<trkpt lat="52.093763" lon="05.649634"><ele>21.6</ele><time>2022-04-13T11:45:58Z</time><name>PT2661</name></trkpt>
<trkpt lat="52.093778" lon="05.649651"><ele>21.9</ele><time>2022-04-13T11:45:59Z</time><name>PT2662</name></trkpt>
<trkpt lat="52.093789" lon="05.649659"><ele>22</ele><time>2022-04-13T11:46:00Z</time><name>PT2663</name></trkpt>
<trkpt lat="52.093802" lon="05.649666"><ele>22</ele><time>2022-04-13T11:46:01Z</time><name>PT2664</name></trkpt>
<trkpt lat="52.093809" lon="05.649672"><ele>22</ele><time>2022-04-13T11:46:02Z</time><name>PT2665</name></trkpt>
<trkpt lat="52.093820" lon="05.649684"><ele>22</ele><time>2022-04-13T11:46:03Z</time><name>PT2666</name></trkpt>
<trkpt lat="52.093833" lon="05.649697"><ele>22</ele><time>2022-04-13T11:46:04Z</time><name>PT2667</name></trkpt>
<trkpt lat="52.093844" lon="05.649708"><ele>22</ele><time>2022-04-13T11:46:05Z</time><name>PT2668</name></trkpt>
<trkpt lat="52.093851" lon="05.649715"><ele>22</ele><time>2022-04-13T11:46:06Z</time><name>PT2669</name></trkpt>
<trkpt lat="52.093857" lon="05.649720"><ele>22</ele><time>2022-04-13T11:46:07Z</time><name>PT2670</name></trkpt>
<trkpt lat="52.093863" lon="05.649727"><ele>21.9</ele><time>2022-04-13T11:46:08Z</time><name>PT2671</name></trkpt>
<trkpt lat="52.093872" lon="05.649735"><ele>21.9</ele><time>2022-04-13T11:46:09Z</time><name>PT2672</name></trkpt>
<trkpt lat="52.093881" lon="05.649742"><ele>21.9</ele><time>2022-04-13T11:46:10Z</time><name>PT2673</name></trkpt>
<trkpt lat="52.093889" lon="05.649745"><ele>21.8</ele><time>2022-04-13T11:46:11Z</time><name>PT2674</name></trkpt>
<trkpt lat="52.093898" lon="05.649747"><ele>22</ele><time>2022-04-13T11:46:12Z</time><name>PT2675</name></trkpt>
<trkpt lat="52.093905" lon="05.649751"><ele>22.2</ele><time>2022-04-13T11:46:13Z</time><name>PT2676</name></trkpt>
<trkpt lat="52.093918" lon="05.649756"><ele>22.1</ele><time>2022-04-13T11:46:14Z</time><name>PT2677</name></trkpt>
<trkpt lat="52.093932" lon="05.649771"><ele>22</ele><time>2022-04-13T11:46:15Z</time><name>PT2678</name></trkpt>
<trkpt lat="52.093943" lon="05.649780"><ele>22</ele><time>2022-04-13T11:46:16Z</time><name>PT2679</name></trkpt>
<trkpt lat="52.093951" lon="05.649785"><ele>22</ele><time>2022-04-13T11:46:17Z</time><name>PT2680</name></trkpt>
<trkpt lat="52.093955" lon="05.649789"><ele>22</ele><time>2022-04-13T11:46:18Z</time><name>PT2681</name></trkpt>
<trkpt lat="52.093968" lon="05.649799"><ele>21.9</ele><time>2022-04-13T11:46:19Z</time><name>PT2682</name></trkpt>
<trkpt lat="52.093983" lon="05.649811"><ele>21.9</ele><time>2022-04-13T11:46:20Z</time><name>PT2683</name></trkpt>
<trkpt lat="52.093996" lon="05.649821"><ele>21.7</ele><time>2022-04-13T11:46:21Z</time><name>PT2684</name></trkpt>
<trkpt lat="52.094006" lon="05.649828"><ele>21.6</ele><time>2022-04-13T11:46:22Z</time><name>PT2685</name></trkpt>
<trkpt lat="52.094012" lon="05.649830"><ele>21.6</ele><time>2022-04-13T11:46:23Z</time><name>PT2686</name></trkpt>
<trkpt lat="52.094020" lon="05.649832"><ele>21.5</ele><time>2022-04-13T11:46:24Z</time><name>PT2687</name></trkpt>
<trkpt lat="52.094028" lon="05.649835"><ele>21.5</ele><time>2022-04-13T11:46:25Z</time><name>PT2688</name></trkpt>
<trkpt lat="52.094040" lon="05.649834"><ele>21.5</ele><time>2022-04-13T11:46:26Z</time><name>PT2689</name></trkpt>
<trkpt lat="52.094052" lon="05.649840"><ele>21.6</ele><time>2022-04-13T11:46:27Z</time><name>PT2690</name></trkpt>
<trkpt lat="52.094060" lon="05.649836"><ele>21.6</ele><time>2022-04-13T11:46:28Z</time><name>PT2691</name></trkpt>
<trkpt lat="52.094067" lon="05.649833"><ele>21.7</ele><time>2022-04-13T11:46:29Z</time><name>PT2692</name></trkpt>
<trkpt lat="52.094078" lon="05.649831"><ele>21.5</ele><time>2022-04-13T11:46:30Z</time><name>PT2693</name></trkpt>
<trkpt lat="52.094090" lon="05.649828"><ele>21.5</ele><time>2022-04-13T11:46:31Z</time><name>PT2694</name></trkpt>
<trkpt lat="52.094096" lon="05.649829"><ele>21.5</ele><time>2022-04-13T11:46:32Z</time><name>PT2695</name></trkpt>
<trkpt lat="52.094109" lon="05.649827"><ele>21.3</ele><time>2022-04-13T11:46:33Z</time><name>PT2696</name></trkpt>
<trkpt lat="52.094122" lon="05.649807"><ele>21.3</ele><time>2022-04-13T11:46:34Z</time><name>PT2697</name></trkpt>
<trkpt lat="52.094133" lon="05.649807"><ele>21.3</ele><time>2022-04-13T11:46:35Z</time><name>PT2698</name></trkpt>
<trkpt lat="52.094143" lon="05.649808"><ele>21.3</ele><time>2022-04-13T11:46:36Z</time><name>PT2699</name></trkpt>
<trkpt lat="52.094152" lon="05.649810"><ele>21.3</ele><time>2022-04-13T11:46:37Z</time><name>PT2700</name></trkpt>
<trkpt lat="52.094165" lon="05.649811"><ele>21.5</ele><time>2022-04-13T11:46:38Z</time><name>PT2701</name></trkpt>
<trkpt lat="52.094176" lon="05.649813"><ele>21.6</ele><time>2022-04-13T11:46:39Z</time><name>PT2702</name></trkpt>
<trkpt lat="52.094188" lon="05.649819"><ele>21.6</ele><time>2022-04-13T11:46:40Z</time><name>PT2703</name></trkpt>
<trkpt lat="52.094194" lon="05.649821"><ele>21.5</ele><time>2022-04-13T11:46:41Z</time><name>PT2704</name></trkpt>
<trkpt lat="52.094202" lon="05.649820"><ele>21.5</ele><time>2022-04-13T11:46:42Z</time><name>PT2705</name></trkpt>
<trkpt lat="52.094209" lon="05.649816"><ele>21.4</ele><time>2022-04-13T11:46:43Z</time><name>PT2706</name></trkpt>
<trkpt lat="52.094217" lon="05.649815"><ele>21.2</ele><time>2022-04-13T11:46:44Z</time><name>PT2707</name></trkpt>
<trkpt lat="52.094224" lon="05.649813"><ele>21.1</ele><time>2022-04-13T11:46:45Z</time><name>PT2708</name></trkpt>
<trkpt lat="52.094233" lon="05.649811"><ele>21.3</ele><time>2022-04-13T11:46:46Z</time><name>PT2709</name></trkpt>
<trkpt lat="52.094241" lon="05.649808"><ele>21.1</ele><time>2022-04-13T11:46:47Z</time><name>PT2710</name></trkpt>
<trkpt lat="52.094248" lon="05.649805"><ele>21.1</ele><time>2022-04-13T11:46:48Z</time><name>PT2711</name></trkpt>
<trkpt lat="52.094258" lon="05.649800"><ele>21</ele><time>2022-04-13T11:46:49Z</time><name>PT2712</name></trkpt>
<trkpt lat="52.094269" lon="05.649790"><ele>21.1</ele><time>2022-04-13T11:46:50Z</time><name>PT2713</name></trkpt>
<trkpt lat="52.094278" lon="05.649791"><ele>21</ele><time>2022-04-13T11:46:51Z</time><name>PT2714</name></trkpt>
<trkpt lat="52.094289" lon="05.649794"><ele>20.9</ele><time>2022-04-13T11:46:52Z</time><name>PT2715</name></trkpt>
<trkpt lat="52.094303" lon="05.649791"><ele>20.8</ele><time>2022-04-13T11:46:53Z</time><name>PT2716</name></trkpt>
<trkpt lat="52.094315" lon="05.649786"><ele>20.7</ele><time>2022-04-13T11:46:54Z</time><name>PT2717</name></trkpt>
<trkpt lat="52.094323" lon="05.649780"><ele>20.7</ele><time>2022-04-13T11:46:55Z</time><name>PT2718</name></trkpt>
<trkpt lat="52.094337" lon="05.649777"><ele>20.7</ele><time>2022-04-13T11:46:56Z</time><name>PT2719</name></trkpt>
<trkpt lat="52.094346" lon="05.649778"><ele>20.7</ele><time>2022-04-13T11:46:57Z</time><name>PT2720</name></trkpt>
<trkpt lat="52.094359" lon="05.649781"><ele>20.6</ele><time>2022-04-13T11:46:58Z</time><name>PT2721</name></trkpt>
<trkpt lat="52.094375" lon="05.649783"><ele>20.5</ele><time>2022-04-13T11:46:59Z</time><name>PT2722</name></trkpt>
<trkpt lat="52.094383" lon="05.649783"><ele>20.5</ele><time>2022-04-13T11:47:00Z</time><name>PT2723</name></trkpt>
<trkpt lat="52.094391" lon="05.649782"><ele>20.4</ele><time>2022-04-13T11:47:01Z</time><name>PT2724</name></trkpt>
<trkpt lat="52.094403" lon="05.649780"><ele>20.2</ele><time>2022-04-13T11:47:02Z</time><name>PT2725</name></trkpt>
<trkpt lat="52.094416" lon="05.649784"><ele>20.1</ele><time>2022-04-13T11:47:03Z</time><name>PT2726</name></trkpt>
<trkpt lat="52.094433" lon="05.649789"><ele>20.1</ele><time>2022-04-13T11:47:04Z</time><name>PT2727</name></trkpt>
<trkpt lat="52.094448" lon="05.649793"><ele>19.9</ele><time>2022-04-13T11:47:05Z</time><name>PT2728</name></trkpt>
<trkpt lat="52.094461" lon="05.649798"><ele>19.9</ele><time>2022-04-13T11:47:06Z</time><name>PT2729</name></trkpt>
<trkpt lat="52.094468" lon="05.649800"><ele>19.9</ele><time>2022-04-13T11:47:07Z</time><name>PT2730</name></trkpt>
<trkpt lat="52.094477" lon="05.649799"><ele>19.9</ele><time>2022-04-13T11:47:08Z</time><name>PT2731</name></trkpt>
<trkpt lat="52.094487" lon="05.649799"><ele>19.9</ele><time>2022-04-13T11:47:09Z</time><name>PT2732</name></trkpt>
<trkpt lat="52.094495" lon="05.649799"><ele>19.7</ele><time>2022-04-13T11:47:10Z</time><name>PT2733</name></trkpt>
<trkpt lat="52.094512" lon="05.649809"><ele>19.6</ele><time>2022-04-13T11:47:11Z</time><name>PT2734</name></trkpt>
<trkpt lat="52.094531" lon="05.649820"><ele>19.4</ele><time>2022-04-13T11:47:12Z</time><name>PT2735</name></trkpt>
<trkpt lat="52.094544" lon="05.649823"><ele>19.3</ele><time>2022-04-13T11:47:13Z</time><name>PT2736</name></trkpt>
<trkpt lat="52.094557" lon="05.649826"><ele>19.1</ele><time>2022-04-13T11:47:14Z</time><name>PT2737</name></trkpt>
<trkpt lat="52.094564" lon="05.649832"><ele>19.1</ele><time>2022-04-13T11:47:15Z</time><name>PT2738</name></trkpt>
<trkpt lat="52.094568" lon="05.649836"><ele>19.1</ele><time>2022-04-13T11:47:16Z</time><name>PT2739</name></trkpt>
<trkpt lat="52.094572" lon="05.649835"><ele>19.1</ele><time>2022-04-13T11:47:17Z</time><name>PT2740</name></trkpt>
<trkpt lat="52.094579" lon="05.649839"><ele>19.1</ele><time>2022-04-13T11:47:18Z</time><name>PT2741</name></trkpt>
<trkpt lat="52.094590" lon="05.649848"><ele>19.1</ele><time>2022-04-13T11:47:19Z</time><name>PT2742</name></trkpt>
<trkpt lat="52.094596" lon="05.649855"><ele>19.2</ele><time>2022-04-13T11:47:20Z</time><name>PT2743</name></trkpt>
<trkpt lat="52.094604" lon="05.649859"><ele>19.1</ele><time>2022-04-13T11:47:21Z</time><name>PT2744</name></trkpt>
<trkpt lat="52.094610" lon="05.649861"><ele>19.1</ele><time>2022-04-13T11:47:22Z</time><name>PT2745</name></trkpt>
<trkpt lat="52.094621" lon="05.649859"><ele>19.1</ele><time>2022-04-13T11:47:23Z</time><name>PT2746</name></trkpt>
<trkpt lat="52.094633" lon="05.649860"><ele>19.2</ele><time>2022-04-13T11:47:24Z</time><name>PT2747</name></trkpt>
<trkpt lat="52.094644" lon="05.649870"><ele>19.1</ele><time>2022-04-13T11:47:25Z</time><name>PT2748</name></trkpt>
<trkpt lat="52.094653" lon="05.649882"><ele>19.1</ele><time>2022-04-13T11:47:26Z</time><name>PT2749</name></trkpt>
<trkpt lat="52.094660" lon="05.649889"><ele>19.4</ele><time>2022-04-13T11:47:27Z</time><name>PT2750</name></trkpt>
<trkpt lat="52.094665" lon="05.649893"><ele>19.4</ele><time>2022-04-13T11:47:28Z</time><name>PT2751</name></trkpt>
<trkpt lat="52.094672" lon="05.649897"><ele>19.2</ele><time>2022-04-13T11:47:29Z</time><name>PT2752</name></trkpt>
<trkpt lat="52.094688" lon="05.649896"><ele>19</ele><time>2022-04-13T11:47:30Z</time><name>PT2753</name></trkpt>
<trkpt lat="52.094702" lon="05.649904"><ele>18.8</ele><time>2022-04-13T11:47:31Z</time><name>PT2754</name></trkpt>
<trkpt lat="52.094716" lon="05.649923"><ele>18.7</ele><time>2022-04-13T11:47:32Z</time><name>PT2755</name></trkpt>
<trkpt lat="52.094725" lon="05.649938"><ele>18.6</ele><time>2022-04-13T11:47:33Z</time><name>PT2756</name></trkpt>
<trkpt lat="52.094730" lon="05.649946"><ele>18.5</ele><time>2022-04-13T11:47:34Z</time><name>PT2757</name></trkpt>
<trkpt lat="52.094736" lon="05.649949"><ele>18.5</ele><time>2022-04-13T11:47:35Z</time><name>PT2758</name></trkpt>
<trkpt lat="52.094745" lon="05.649955"><ele>18.5</ele><time>2022-04-13T11:47:36Z</time><name>PT2759</name></trkpt>
<trkpt lat="52.094751" lon="05.649959"><ele>18.4</ele><time>2022-04-13T11:47:37Z</time><name>PT2760</name></trkpt>
<trkpt lat="52.094759" lon="05.649963"><ele>18.4</ele><time>2022-04-13T11:47:38Z</time><name>PT2761</name></trkpt>
<trkpt lat="52.094768" lon="05.649971"><ele>18.2</ele><time>2022-04-13T11:47:39Z</time><name>PT2762</name></trkpt>
<trkpt lat="52.094778" lon="05.649980"><ele>18.3</ele><time>2022-04-13T11:47:40Z</time><name>PT2763</name></trkpt>
<trkpt lat="52.094788" lon="05.649983"><ele>18.2</ele><time>2022-04-13T11:47:41Z</time><name>PT2764</name></trkpt>
<trkpt lat="52.094805" lon="05.649986"><ele>18.4</ele><time>2022-04-13T11:47:42Z</time><name>PT2765</name></trkpt>
<trkpt lat="52.094817" lon="05.650000"><ele>18.5</ele><time>2022-04-13T11:47:43Z</time><name>PT2766</name></trkpt>
<trkpt lat="52.094826" lon="05.650016"><ele>18.6</ele><time>2022-04-13T11:47:44Z</time><name>PT2767</name></trkpt>
<trkpt lat="52.094833" lon="05.650027"><ele>18.7</ele><time>2022-04-13T11:47:45Z</time><name>PT2768</name></trkpt>
<trkpt lat="52.094841" lon="05.650035"><ele>18.6</ele><time>2022-04-13T11:47:46Z</time><name>PT2769</name></trkpt>
<trkpt lat="52.094853" lon="05.650039"><ele>18.5</ele><time>2022-04-13T11:47:47Z</time><name>PT2770</name></trkpt>
<trkpt lat="52.094862" lon="05.650053"><ele>18.4</ele><time>2022-04-13T11:47:48Z</time><name>PT2771</name></trkpt>
<trkpt lat="52.094871" lon="05.650073"><ele>18.2</ele><time>2022-04-13T11:47:49Z</time><name>PT2772</name></trkpt>
<trkpt lat="52.094876" lon="05.650089"><ele>18.1</ele><time>2022-04-13T11:47:50Z</time><name>PT2773</name></trkpt>
<trkpt lat="52.094880" lon="05.650099"><ele>18.1</ele><time>2022-04-13T11:47:51Z</time><name>PT2774</name></trkpt>
<trkpt lat="52.094888" lon="05.650106"><ele>18.2</ele><time>2022-04-13T11:47:52Z</time><name>PT2775</name></trkpt>
<trkpt lat="52.094897" lon="05.650119"><ele>18.3</ele><time>2022-04-13T11:47:53Z</time><name>PT2776</name></trkpt>
<trkpt lat="52.094904" lon="05.650133"><ele>18.5</ele><time>2022-04-13T11:47:54Z</time><name>PT2777</name></trkpt>
<trkpt lat="52.094906" lon="05.650148"><ele>18.7</ele><time>2022-04-13T11:47:55Z</time><name>PT2778</name></trkpt>
<trkpt lat="52.094914" lon="05.650165"><ele>18.8</ele><time>2022-04-13T11:47:56Z</time><name>PT2779</name></trkpt>
<trkpt lat="52.094915" lon="05.650181"><ele>18.9</ele><time>2022-04-13T11:47:57Z</time><name>PT2780</name></trkpt>
<trkpt lat="52.094914" lon="05.650193"><ele>18.9</ele><time>2022-04-13T11:47:58Z</time><name>PT2781</name></trkpt>
<trkpt lat="52.094912" lon="05.650201"><ele>18.8</ele><time>2022-04-13T11:47:59Z</time><name>PT2782</name></trkpt>
<trkpt lat="52.094917" lon="05.650213"><ele>18.8</ele><time>2022-04-13T11:48:00Z</time><name>PT2783</name></trkpt>
<trkpt lat="52.094922" lon="05.650226"><ele>18.6</ele><time>2022-04-13T11:48:01Z</time><name>PT2784</name></trkpt>
<trkpt lat="52.094926" lon="05.650245"><ele>18.4</ele><time>2022-04-13T11:48:02Z</time><name>PT2785</name></trkpt>
<trkpt lat="52.094929" lon="05.650269"><ele>18.4</ele><time>2022-04-13T11:48:03Z</time><name>PT2786</name></trkpt>
<trkpt lat="52.094933" lon="05.650287"><ele>18.3</ele><time>2022-04-13T11:48:04Z</time><name>PT2787</name></trkpt>
<trkpt lat="52.094934" lon="05.650298"><ele>18.2</ele><time>2022-04-13T11:48:05Z</time><name>PT2788</name></trkpt>
<trkpt lat="52.094938" lon="05.650307"><ele>18.3</ele><time>2022-04-13T11:48:06Z</time><name>PT2789</name></trkpt>
<trkpt lat="52.094938" lon="05.650328"><ele>18.3</ele><time>2022-04-13T11:48:07Z</time><name>PT2790</name></trkpt>
<trkpt lat="52.094943" lon="05.650354"><ele>18.3</ele><time>2022-04-13T11:48:08Z</time><name>PT2791</name></trkpt>
<trkpt lat="52.094942" lon="05.650370"><ele>18.3</ele><time>2022-04-13T11:48:09Z</time><name>PT2792</name></trkpt>
<trkpt lat="52.094939" lon="05.650374"><ele>18.2</ele><time>2022-04-13T11:48:10Z</time><name>PT2793</name></trkpt>
<trkpt lat="52.094942" lon="05.650385"><ele>18.2</ele><time>2022-04-13T11:48:11Z</time><name>PT2794</name></trkpt>
<trkpt lat="52.094946" lon="05.650405"><ele>18.2</ele><time>2022-04-13T11:48:12Z</time><name>PT2795</name></trkpt>
<trkpt lat="52.094947" lon="05.650439"><ele>18.1</ele><time>2022-04-13T11:48:13Z</time><name>PT2796</name></trkpt>
<trkpt lat="52.094947" lon="05.650475"><ele>18.1</ele><time>2022-04-13T11:48:14Z</time><name>PT2797</name></trkpt>
<trkpt lat="52.094950" lon="05.650497"><ele>18.1</ele><time>2022-04-13T11:48:15Z</time><name>PT2798</name></trkpt>
<trkpt lat="52.094950" lon="05.650505"><ele>17.9</ele><time>2022-04-13T11:48:16Z</time><name>PT2799</name></trkpt>
<trkpt lat="52.094951" lon="05.650510"><ele>18.1</ele><time>2022-04-13T11:48:17Z</time><name>PT2800</name></trkpt>
<trkpt lat="52.094955" lon="05.650520"><ele>18.1</ele><time>2022-04-13T11:48:18Z</time><name>PT2801</name></trkpt>
<trkpt lat="52.094960" lon="05.650531"><ele>18.1</ele><time>2022-04-13T11:48:19Z</time><name>PT2802</name></trkpt>
<trkpt lat="52.094963" lon="05.650550"><ele>18.1</ele><time>2022-04-13T11:48:20Z</time><name>PT2803</name></trkpt>
<trkpt lat="52.094967" lon="05.650565"><ele>18.1</ele><time>2022-04-13T11:48:21Z</time><name>PT2804</name></trkpt>
<trkpt lat="52.094972" lon="05.650577"><ele>18.1</ele><time>2022-04-13T11:48:22Z</time><name>PT2805</name></trkpt>
<trkpt lat="52.094976" lon="05.650583"><ele>18.1</ele><time>2022-04-13T11:48:23Z</time><name>PT2806</name></trkpt>
<trkpt lat="52.094987" lon="05.650595"><ele>18.1</ele><time>2022-04-13T11:48:24Z</time><name>PT2807</name></trkpt>
<trkpt lat="52.094998" lon="05.650614"><ele>18.1</ele><time>2022-04-13T11:48:25Z</time><name>PT2808</name></trkpt>
<trkpt lat="52.094998" lon="05.650627"><ele>18.1</ele><time>2022-04-13T11:48:26Z</time><name>PT2809</name></trkpt>
<trkpt lat="52.095000" lon="05.650636"><ele>18.1</ele><time>2022-04-13T11:48:27Z</time><name>PT2810</name></trkpt>
<trkpt lat="52.095003" lon="05.650640"><ele>17.8</ele><time>2022-04-13T11:48:28Z</time><name>PT2811</name></trkpt>
<trkpt lat="52.095005" lon="05.650642"><ele>17.9</ele><time>2022-04-13T11:48:29Z</time><name>PT2812</name></trkpt>
<trkpt lat="52.095013" lon="05.650649"><ele>18.1</ele><time>2022-04-13T11:48:30Z</time><name>PT2813</name></trkpt>
<trkpt lat="52.095023" lon="05.650651"><ele>18</ele><time>2022-04-13T11:48:31Z</time><name>PT2814</name></trkpt>
<trkpt lat="52.095030" lon="05.650655"><ele>17.9</ele><time>2022-04-13T11:48:32Z</time><name>PT2815</name></trkpt>
<trkpt lat="52.095034" lon="05.650659"><ele>18</ele><time>2022-04-13T11:48:33Z</time><name>PT2816</name></trkpt>
<trkpt lat="52.095034" lon="05.650661"><ele>17.9</ele><time>2022-04-13T11:48:34Z</time><name>PT2817</name></trkpt>
<trkpt lat="52.095036" lon="05.650664"><ele>17.7</ele><time>2022-04-13T11:48:35Z</time><name>PT2818</name></trkpt>
<trkpt lat="52.095035" lon="05.650669"><ele>17.6</ele><time>2022-04-13T11:48:36Z</time><name>PT2819</name></trkpt>
<trkpt lat="52.095037" lon="05.650668"><ele>17.6</ele><time>2022-04-13T11:48:37Z</time><name>PT2820</name></trkpt>
<trkpt lat="52.095042" lon="05.650662"><ele>17.7</ele><time>2022-04-13T11:48:38Z</time><name>PT2821</name></trkpt>
<trkpt lat="52.095049" lon="05.650663"><ele>17.7</ele><time>2022-04-13T11:48:39Z</time><name>PT2822</name></trkpt>
<trkpt lat="52.095055" lon="05.650658"><ele>17.9</ele><time>2022-04-13T11:48:40Z</time><name>PT2823</name></trkpt>
<trkpt lat="52.095059" lon="05.650654"><ele>18</ele><time>2022-04-13T11:48:41Z</time><name>PT2824</name></trkpt>
<trkpt lat="52.095059" lon="05.650673"><ele>17.9</ele><time>2022-04-13T11:48:56Z</time><name>PT2825</name></trkpt>
<trkpt lat="52.095041" lon="05.650696"><ele>18.1</ele><time>2022-04-13T11:48:57Z</time><name>PT2826</name></trkpt>
<trkpt lat="52.095020" lon="05.650710"><ele>18</ele><time>2022-04-13T11:48:58Z</time><name>PT2827</name></trkpt>
<trkpt lat="52.095002" lon="05.650724"><ele>18</ele><time>2022-04-13T11:48:59Z</time><name>PT2828</name></trkpt>
<trkpt lat="52.094993" lon="05.650732"><ele>17.8</ele><time>2022-04-13T11:49:00Z</time><name>PT2829</name></trkpt>
<trkpt lat="52.094990" lon="05.650741"><ele>17.6</ele><time>2022-04-13T11:49:01Z</time><name>PT2830</name></trkpt>
<trkpt lat="52.094995" lon="05.650760"><ele>17.6</ele><time>2022-04-13T11:49:02Z</time><name>PT2831</name></trkpt>
<trkpt lat="52.095002" lon="05.650778"><ele>17.6</ele><time>2022-04-13T11:49:03Z</time><name>PT2832</name></trkpt>
<trkpt lat="52.095007" lon="05.650797"><ele>17.6</ele><time>2022-04-13T11:49:04Z</time><name>PT2833</name></trkpt>
<trkpt lat="52.095009" lon="05.650808"><ele>17.6</ele><time>2022-04-13T11:49:05Z</time><name>PT2834</name></trkpt>
<trkpt lat="52.095012" lon="05.650818"><ele>17.6</ele><time>2022-04-13T11:49:06Z</time><name>PT2835</name></trkpt>
<trkpt lat="52.095018" lon="05.650821"><ele>17.6</ele><time>2022-04-13T11:49:07Z</time><name>PT2836</name></trkpt>
<trkpt lat="52.095024" lon="05.650828"><ele>17.6</ele><time>2022-04-13T11:49:08Z</time><name>PT2837</name></trkpt>
<trkpt lat="52.095030" lon="05.650838"><ele>17.6</ele><time>2022-04-13T11:49:09Z</time><name>PT2838</name></trkpt>
<trkpt lat="52.095040" lon="05.650865"><ele>17.8</ele><time>2022-04-13T11:49:10Z</time><name>PT2839</name></trkpt>
<trkpt lat="52.095049" lon="05.650892"><ele>17.8</ele><time>2022-04-13T11:49:11Z</time><name>PT2840</name></trkpt>
<trkpt lat="52.095052" lon="05.650911"><ele>17.7</ele><time>2022-04-13T11:49:12Z</time><name>PT2841</name></trkpt>
<trkpt lat="52.095053" lon="05.650922"><ele>17.7</ele><time>2022-04-13T11:49:13Z</time><name>PT2842</name></trkpt>
<trkpt lat="52.095050" lon="05.650924"><ele>17.8</ele><time>2022-04-13T11:49:14Z</time><name>PT2843</name></trkpt>
<trkpt lat="52.095050" lon="05.650924"><ele>17.8</ele><time>2022-04-13T11:49:15Z</time><name>PT2844</name></trkpt>
<trkpt lat="52.095049" lon="05.650929"><ele>17.9</ele><time>2022-04-13T11:49:16Z</time><name>PT2845</name></trkpt>
<trkpt lat="52.095054" lon="05.650957"><ele>17.8</ele><time>2022-04-13T11:49:17Z</time><name>PT2846</name></trkpt>
<trkpt lat="52.095056" lon="05.650988"><ele>17.9</ele><time>2022-04-13T11:49:18Z</time><name>PT2847</name></trkpt>
<trkpt lat="52.095058" lon="05.651022"><ele>17.6</ele><time>2022-04-13T11:49:19Z</time><name>PT2848</name></trkpt>
<trkpt lat="52.095058" lon="05.651045"><ele>17.3</ele><time>2022-04-13T11:49:20Z</time><name>PT2849</name></trkpt>
<trkpt lat="52.095061" lon="05.651058"><ele>17.1</ele><time>2022-04-13T11:49:21Z</time><name>PT2850</name></trkpt>
<trkpt lat="52.095066" lon="05.651066"><ele>17</ele><time>2022-04-13T11:49:22Z</time><name>PT2851</name></trkpt>
<trkpt lat="52.095071" lon="05.651073"><ele>17</ele><time>2022-04-13T11:49:23Z</time><name>PT2852</name></trkpt>
<trkpt lat="52.095080" lon="05.651081"><ele>17.1</ele><time>2022-04-13T11:49:24Z</time><name>PT2853</name></trkpt>
<trkpt lat="52.095087" lon="05.651099"><ele>17.2</ele><time>2022-04-13T11:49:25Z</time><name>PT2854</name></trkpt>
<trkpt lat="52.095089" lon="05.651128"><ele>17.2</ele><time>2022-04-13T11:49:26Z</time><name>PT2855</name></trkpt>
<trkpt lat="52.095086" lon="05.651162"><ele>17.3</ele><time>2022-04-13T11:49:27Z</time><name>PT2856</name></trkpt>
<trkpt lat="52.095082" lon="05.651189"><ele>17.4</ele><time>2022-04-13T11:49:28Z</time><name>PT2857</name></trkpt>
<trkpt lat="52.095080" lon="05.651208"><ele>17.2</ele><time>2022-04-13T11:49:29Z</time><name>PT2858</name></trkpt>
<trkpt lat="52.095091" lon="05.651225"><ele>17.1</ele><time>2022-04-13T11:49:30Z</time><name>PT2859</name></trkpt>
<trkpt lat="52.095097" lon="05.651240"><ele>16.9</ele><time>2022-04-13T11:49:31Z</time><name>PT2860</name></trkpt>
<trkpt lat="52.095101" lon="05.651249"><ele>16.8</ele><time>2022-04-13T11:49:32Z</time><name>PT2861</name></trkpt>
<trkpt lat="52.095107" lon="05.651270"><ele>16.8</ele><time>2022-04-13T11:49:33Z</time><name>PT2862</name></trkpt>
<trkpt lat="52.095108" lon="05.651292"><ele>16.8</ele><time>2022-04-13T11:49:34Z</time><name>PT2863</name></trkpt>
<trkpt lat="52.095109" lon="05.651320"><ele>16.7</ele><time>2022-04-13T11:49:35Z</time><name>PT2864</name></trkpt>
<trkpt lat="52.095113" lon="05.651341"><ele>16.7</ele><time>2022-04-13T11:49:36Z</time><name>PT2865</name></trkpt>
<trkpt lat="52.095113" lon="05.651354"><ele>16.6</ele><time>2022-04-13T11:49:37Z</time><name>PT2866</name></trkpt>
<trkpt lat="52.095113" lon="05.651356"><ele>16.6</ele><time>2022-04-13T11:49:38Z</time><name>PT2867</name></trkpt>
<trkpt lat="52.095115" lon="05.651362"><ele>16.6</ele><time>2022-04-13T11:49:39Z</time><name>PT2868</name></trkpt>
<trkpt lat="52.095117" lon="05.651376"><ele>16.5</ele><time>2022-04-13T11:49:40Z</time><name>PT2869</name></trkpt>
<trkpt lat="52.095114" lon="05.651392"><ele>16.6</ele><time>2022-04-13T11:49:41Z</time><name>PT2870</name></trkpt>
<trkpt lat="52.095113" lon="05.651416"><ele>16.7</ele><time>2022-04-13T11:49:42Z</time><name>PT2871</name></trkpt>
<trkpt lat="52.095117" lon="05.651438"><ele>16.7</ele><time>2022-04-13T11:49:43Z</time><name>PT2872</name></trkpt>
<trkpt lat="52.095118" lon="05.651452"><ele>16.6</ele><time>2022-04-13T11:49:44Z</time><name>PT2873</name></trkpt>
<trkpt lat="52.095122" lon="05.651459"><ele>16.5</ele><time>2022-04-13T11:49:45Z</time><name>PT2874</name></trkpt>
<trkpt lat="52.095123" lon="05.651475"><ele>16.4</ele><time>2022-04-13T11:49:46Z</time><name>PT2875</name></trkpt>
<trkpt lat="52.095126" lon="05.651494"><ele>16.4</ele><time>2022-04-13T11:49:47Z</time><name>PT2876</name></trkpt>
<trkpt lat="52.095135" lon="05.651519"><ele>16.3</ele><time>2022-04-13T11:49:48Z</time><name>PT2877</name></trkpt>
<trkpt lat="52.095142" lon="05.651550"><ele>16.2</ele><time>2022-04-13T11:49:49Z</time><name>PT2878</name></trkpt>
<trkpt lat="52.095144" lon="05.651573"><ele>16.2</ele><time>2022-04-13T11:49:50Z</time><name>PT2879</name></trkpt>
<trkpt lat="52.095149" lon="05.651583"><ele>16.4</ele><time>2022-04-13T11:49:51Z</time><name>PT2880</name></trkpt>
<trkpt lat="52.095153" lon="05.651591"><ele>16.2</ele><time>2022-04-13T11:49:52Z</time><name>PT2881</name></trkpt>
<trkpt lat="52.095156" lon="05.651604"><ele>16.2</ele><time>2022-04-13T11:49:53Z</time><name>PT2882</name></trkpt>
<trkpt lat="52.095162" lon="05.651629"><ele>16.2</ele><time>2022-04-13T11:49:54Z</time><name>PT2883</name></trkpt>
<trkpt lat="52.095164" lon="05.651659"><ele>16.2</ele><time>2022-04-13T11:49:55Z</time><name>PT2884</name></trkpt>
<trkpt lat="52.095166" lon="05.651685"><ele>15.9</ele><time>2022-04-13T11:49:56Z</time><name>PT2885</name></trkpt>
<trkpt lat="52.095167" lon="05.651700"><ele>15.9</ele><time>2022-04-13T11:49:57Z</time><name>PT2886</name></trkpt>
<trkpt lat="52.095169" lon="05.651708"><ele>15.9</ele><time>2022-04-13T11:49:58Z</time><name>PT2887</name></trkpt>
<trkpt lat="52.095171" lon="05.651718"><ele>16</ele><time>2022-04-13T11:49:59Z</time><name>PT2888</name></trkpt>
<trkpt lat="52.095171" lon="05.651729"><ele>16</ele><time>2022-04-13T11:50:00Z</time><name>PT2889</name></trkpt>
<trkpt lat="52.095177" lon="05.651747"><ele>16</ele><time>2022-04-13T11:50:01Z</time><name>PT2890</name></trkpt>
<trkpt lat="52.095185" lon="05.651773"><ele>15.9</ele><time>2022-04-13T11:50:02Z</time><name>PT2891</name></trkpt>
<trkpt lat="52.095189" lon="05.651799"><ele>15.7</ele><time>2022-04-13T11:50:03Z</time><name>PT2892</name></trkpt>
<trkpt lat="52.095188" lon="05.651814"><ele>15.6</ele><time>2022-04-13T11:50:04Z</time><name>PT2893</name></trkpt>
<trkpt lat="52.095189" lon="05.651828"><ele>15.2</ele><time>2022-04-13T11:50:05Z</time><name>PT2894</name></trkpt>
<trkpt lat="52.095189" lon="05.651834"><ele>15.2</ele><time>2022-04-13T11:50:06Z</time><name>PT2895</name></trkpt>
<trkpt lat="52.095192" lon="05.651847"><ele>15.2</ele><time>2022-04-13T11:50:07Z</time><name>PT2896</name></trkpt>
<trkpt lat="52.095195" lon="05.651868"><ele>15.2</ele><time>2022-04-13T11:50:08Z</time><name>PT2897</name></trkpt>
<trkpt lat="52.095195" lon="05.651892"><ele>15.4</ele><time>2022-04-13T11:50:09Z</time><name>PT2898</name></trkpt>
<trkpt lat="52.095200" lon="05.651916"><ele>15.4</ele><time>2022-04-13T11:50:10Z</time><name>PT2899</name></trkpt>
<trkpt lat="52.095201" lon="05.651935"><ele>15.6</ele><time>2022-04-13T11:50:11Z</time><name>PT2900</name></trkpt>
<trkpt lat="52.095200" lon="05.651948"><ele>15.6</ele><time>2022-04-13T11:50:12Z</time><name>PT2901</name></trkpt>
<trkpt lat="52.095199" lon="05.651958"><ele>15.4</ele><time>2022-04-13T11:50:13Z</time><name>PT2902</name></trkpt>
<trkpt lat="52.095201" lon="05.651973"><ele>15.3</ele><time>2022-04-13T11:50:14Z</time><name>PT2903</name></trkpt>
<trkpt lat="52.095198" lon="05.651998"><ele>15.2</ele><time>2022-04-13T11:50:15Z</time><name>PT2904</name></trkpt>
<trkpt lat="52.095207" lon="05.652027"><ele>14.9</ele><time>2022-04-13T11:50:16Z</time><name>PT2905</name></trkpt>
<trkpt lat="52.095212" lon="05.652055"><ele>14.8</ele><time>2022-04-13T11:50:17Z</time><name>PT2906</name></trkpt>
<trkpt lat="52.095215" lon="05.652072"><ele>14.8</ele><time>2022-04-13T11:50:18Z</time><name>PT2907</name></trkpt>
<trkpt lat="52.095223" lon="05.652083"><ele>15</ele><time>2022-04-13T11:50:19Z</time><name>PT2908</name></trkpt>
<trkpt lat="52.095228" lon="05.652093"><ele>15</ele><time>2022-04-13T11:50:20Z</time><name>PT2909</name></trkpt>
<trkpt lat="52.095226" lon="05.652102"><ele>15.1</ele><time>2022-04-13T11:50:21Z</time><name>PT2910</name></trkpt>
<trkpt lat="52.095226" lon="05.652110"><ele>15.1</ele><time>2022-04-13T11:50:22Z</time><name>PT2911</name></trkpt>
<trkpt lat="52.095227" lon="05.652130"><ele>14.9</ele><time>2022-04-13T11:50:23Z</time><name>PT2912</name></trkpt>
<trkpt lat="52.095227" lon="05.652149"><ele>14.7</ele><time>2022-04-13T11:50:24Z</time><name>PT2913</name></trkpt>
<trkpt lat="52.095228" lon="05.652159"><ele>14.7</ele><time>2022-04-13T11:50:25Z</time><name>PT2914</name></trkpt>
<trkpt lat="52.095230" lon="05.652170"><ele>14.7</ele><time>2022-04-13T11:50:26Z</time><name>PT2915</name></trkpt>
<trkpt lat="52.095234" lon="05.652187"><ele>14.6</ele><time>2022-04-13T11:50:27Z</time><name>PT2916</name></trkpt>
<trkpt lat="52.095239" lon="05.652219"><ele>14.6</ele><time>2022-04-13T11:50:28Z</time><name>PT2917</name></trkpt>
<trkpt lat="52.095244" lon="05.652248"><ele>14.4</ele><time>2022-04-13T11:50:29Z</time><name>PT2918</name></trkpt>
<trkpt lat="52.095249" lon="05.652278"><ele>14.4</ele><time>2022-04-13T11:50:30Z</time><name>PT2919</name></trkpt>
<trkpt lat="52.095253" lon="05.652292"><ele>14.5</ele><time>2022-04-13T11:50:31Z</time><name>PT2920</name></trkpt>
<trkpt lat="52.095249" lon="05.652299"><ele>14.6</ele><time>2022-04-13T11:50:32Z</time><name>PT2921</name></trkpt>
<trkpt lat="52.095253" lon="05.652306"><ele>14.6</ele><time>2022-04-13T11:50:33Z</time><name>PT2922</name></trkpt>
<trkpt lat="52.095260" lon="05.652325"><ele>14.5</ele><time>2022-04-13T11:50:34Z</time><name>PT2923</name></trkpt>
<trkpt lat="52.095262" lon="05.652358"><ele>14.4</ele><time>2022-04-13T11:50:35Z</time><name>PT2924</name></trkpt>
<trkpt lat="52.095260" lon="05.652388"><ele>14.4</ele><time>2022-04-13T11:50:36Z</time><name>PT2925</name></trkpt>
<trkpt lat="52.095260" lon="05.652407"><ele>14.2</ele><time>2022-04-13T11:50:37Z</time><name>PT2926</name></trkpt>
<trkpt lat="52.095262" lon="05.652416"><ele>14.2</ele><time>2022-04-13T11:50:38Z</time><name>PT2927</name></trkpt>
<trkpt lat="52.095270" lon="05.652423"><ele>14.2</ele><time>2022-04-13T11:50:39Z</time><name>PT2928</name></trkpt>
<trkpt lat="52.095277" lon="05.652443"><ele>14.2</ele><time>2022-04-13T11:50:40Z</time><name>PT2929</name></trkpt>
<trkpt lat="52.095286" lon="05.652467"><ele>14.2</ele><time>2022-04-13T11:50:41Z</time><name>PT2930</name></trkpt>
<trkpt lat="52.095286" lon="05.652489"><ele>14.1</ele><time>2022-04-13T11:50:42Z</time><name>PT2931</name></trkpt>
<trkpt lat="52.095285" lon="05.652509"><ele>14</ele><time>2022-04-13T11:50:43Z</time><name>PT2932</name></trkpt>
<trkpt lat="52.095286" lon="05.652520"><ele>14</ele><time>2022-04-13T11:50:44Z</time><name>PT2933</name></trkpt>
<trkpt lat="52.095288" lon="05.652530"><ele>14</ele><time>2022-04-13T11:50:45Z</time><name>PT2934</name></trkpt>
<trkpt lat="52.095291" lon="05.652544"><ele>13.9</ele><time>2022-04-13T11:50:46Z</time><name>PT2935</name></trkpt>
<trkpt lat="52.095295" lon="05.652569"><ele>14</ele><time>2022-04-13T11:50:47Z</time><name>PT2936</name></trkpt>
<trkpt lat="52.095299" lon="05.652589"><ele>13.9</ele><time>2022-04-13T11:50:48Z</time><name>PT2937</name></trkpt>
<trkpt lat="52.095308" lon="05.652606"><ele>13.8</ele><time>2022-04-13T11:50:49Z</time><name>PT2938</name></trkpt>
<trkpt lat="52.095312" lon="05.652617"><ele>13.7</ele><time>2022-04-13T11:50:50Z</time><name>PT2939</name></trkpt>
<trkpt lat="52.095317" lon="05.652630"><ele>13.7</ele><time>2022-04-13T11:50:51Z</time><name>PT2940</name></trkpt>
<trkpt lat="52.095338" lon="05.652640"><ele>13.7</ele><time>2022-04-13T11:50:52Z</time><name>PT2941</name></trkpt>
<trkpt lat="52.095345" lon="05.652659"><ele>13.8</ele><time>2022-04-13T11:50:53Z</time><name>PT2942</name></trkpt>
<trkpt lat="52.095345" lon="05.652681"><ele>13.9</ele><time>2022-04-13T11:50:54Z</time><name>PT2943</name></trkpt>
<trkpt lat="52.095348" lon="05.652699"><ele>14</ele><time>2022-04-13T11:50:55Z</time><name>PT2944</name></trkpt>
<trkpt lat="52.095350" lon="05.652708"><ele>13.9</ele><time>2022-04-13T11:50:56Z</time><name>PT2945</name></trkpt>
<trkpt lat="52.095352" lon="05.652714"><ele>13.8</ele><time>2022-04-13T11:50:57Z</time><name>PT2946</name></trkpt>
<trkpt lat="52.095358" lon="05.652728"><ele>13.8</ele><time>2022-04-13T11:50:58Z</time><name>PT2947</name></trkpt>
<trkpt lat="52.095364" lon="05.652751"><ele>13.7</ele><time>2022-04-13T11:50:59Z</time><name>PT2948</name></trkpt>
<trkpt lat="52.095369" lon="05.652778"><ele>13.4</ele><time>2022-04-13T11:51:00Z</time><name>PT2949</name></trkpt>
<trkpt lat="52.095368" lon="05.652797"><ele>13.4</ele><time>2022-04-13T11:51:01Z</time><name>PT2950</name></trkpt>
<trkpt lat="52.095376" lon="05.652811"><ele>13.5</ele><time>2022-04-13T11:51:02Z</time><name>PT2951</name></trkpt>
<trkpt lat="52.095387" lon="05.652822"><ele>13.4</ele><time>2022-04-13T11:51:03Z</time><name>PT2952</name></trkpt>
<trkpt lat="52.095394" lon="05.652836"><ele>13.6</ele><time>2022-04-13T11:51:04Z</time><name>PT2953</name></trkpt>
<trkpt lat="52.095406" lon="05.652855"><ele>13.7</ele><time>2022-04-13T11:51:05Z</time><name>PT2954</name></trkpt>
<trkpt lat="52.095415" lon="05.652882"><ele>13.7</ele><time>2022-04-13T11:51:06Z</time><name>PT2955</name></trkpt>
<trkpt lat="52.095415" lon="05.652903"><ele>13.6</ele><time>2022-04-13T11:51:07Z</time><name>PT2956</name></trkpt>
<trkpt lat="52.095421" lon="05.652916"><ele>13.5</ele><time>2022-04-13T11:51:08Z</time><name>PT2957</name></trkpt>
<trkpt lat="52.095423" lon="05.652924"><ele>13.4</ele><time>2022-04-13T11:51:09Z</time><name>PT2958</name></trkpt>
<trkpt lat="52.095427" lon="05.652941"><ele>13.2</ele><time>2022-04-13T11:51:10Z</time><name>PT2959</name></trkpt>
<trkpt lat="52.095433" lon="05.652962"><ele>13.2</ele><time>2022-04-13T11:51:11Z</time><name>PT2960</name></trkpt>
<trkpt lat="52.095445" lon="05.652984"><ele>13.3</ele><time>2022-04-13T11:51:12Z</time><name>PT2961</name></trkpt>
<trkpt lat="52.095456" lon="05.653002"><ele>13.4</ele><time>2022-04-13T11:51:13Z</time><name>PT2962</name></trkpt>
<trkpt lat="52.095461" lon="05.653015"><ele>13.5</ele><time>2022-04-13T11:51:14Z</time><name>PT2963</name></trkpt>
<trkpt lat="52.095466" lon="05.653023"><ele>13.3</ele><time>2022-04-13T11:51:15Z</time><name>PT2964</name></trkpt>
<trkpt lat="52.095474" lon="05.653028"><ele>13.2</ele><time>2022-04-13T11:51:16Z</time><name>PT2965</name></trkpt>
<trkpt lat="52.095489" lon="05.653039"><ele>13.1</ele><time>2022-04-13T11:51:17Z</time><name>PT2966</name></trkpt>
<trkpt lat="52.095504" lon="05.653047"><ele>12.9</ele><time>2022-04-13T11:51:18Z</time><name>PT2967</name></trkpt>
<trkpt lat="52.095515" lon="05.653055"><ele>12.8</ele><time>2022-04-13T11:51:19Z</time><name>PT2968</name></trkpt>
<trkpt lat="52.095524" lon="05.653062"><ele>12.8</ele><time>2022-04-13T11:51:20Z</time><name>PT2969</name></trkpt>
<trkpt lat="52.095530" lon="05.653068"><ele>12.9</ele><time>2022-04-13T11:51:21Z</time><name>PT2970</name></trkpt>
<trkpt lat="52.095537" lon="05.653072"><ele>12.9</ele><time>2022-04-13T11:51:22Z</time><name>PT2971</name></trkpt>
<trkpt lat="52.095549" lon="05.653074"><ele>12.9</ele><time>2022-04-13T11:51:23Z</time><name>PT2972</name></trkpt>
<trkpt lat="52.095561" lon="05.653078"><ele>13.1</ele><time>2022-04-13T11:51:24Z</time><name>PT2973</name></trkpt>
<trkpt lat="52.095567" lon="05.653079"><ele>13.1</ele><time>2022-04-13T11:51:25Z</time><name>PT2974</name></trkpt>
<trkpt lat="52.095573" lon="05.653082"><ele>13</ele><time>2022-04-13T11:51:26Z</time><name>PT2975</name></trkpt>
<trkpt lat="52.095582" lon="05.653081"><ele>12.9</ele><time>2022-04-13T11:51:27Z</time><name>PT2976</name></trkpt>
<trkpt lat="52.095593" lon="05.653078"><ele>12.8</ele><time>2022-04-13T11:51:28Z</time><name>PT2977</name></trkpt>
<trkpt lat="52.095609" lon="05.653082"><ele>12.9</ele><time>2022-04-13T11:51:29Z</time><name>PT2978</name></trkpt>
<trkpt lat="52.095619" lon="05.653086"><ele>12.8</ele><time>2022-04-13T11:51:30Z</time><name>PT2979</name></trkpt>
<trkpt lat="52.095628" lon="05.653086"><ele>12.8</ele><time>2022-04-13T11:51:31Z</time><name>PT2980</name></trkpt>
<trkpt lat="52.095638" lon="05.653080"><ele>12.8</ele><time>2022-04-13T11:51:32Z</time><name>PT2981</name></trkpt>
<trkpt lat="52.095650" lon="05.653071"><ele>12.9</ele><time>2022-04-13T11:51:33Z</time><name>PT2982</name></trkpt>
<trkpt lat="52.095658" lon="05.653070"><ele>13.1</ele><time>2022-04-13T11:51:34Z</time><name>PT2983</name></trkpt>
<trkpt lat="52.095668" lon="05.653065"><ele>13.1</ele><time>2022-04-13T11:51:35Z</time><name>PT2984</name></trkpt>
<trkpt lat="52.095676" lon="05.653060"><ele>13.2</ele><time>2022-04-13T11:51:36Z</time><name>PT2985</name></trkpt>
<trkpt lat="52.095684" lon="05.653053"><ele>13.3</ele><time>2022-04-13T11:51:37Z</time><name>PT2986</name></trkpt>
<trkpt lat="52.095691" lon="05.653044"><ele>13.2</ele><time>2022-04-13T11:51:38Z</time><name>PT2987</name></trkpt>
<trkpt lat="52.095697" lon="05.653031"><ele>13.1</ele><time>2022-04-13T11:51:39Z</time><name>PT2988</name></trkpt>
<trkpt lat="52.095703" lon="05.653018"><ele>13.2</ele><time>2022-04-13T11:51:40Z</time><name>PT2989</name></trkpt>
<trkpt lat="52.095707" lon="05.653005"><ele>13.2</ele><time>2022-04-13T11:51:41Z</time><name>PT2990</name></trkpt>
<trkpt lat="52.095710" lon="05.652991"><ele>13</ele><time>2022-04-13T11:51:42Z</time><name>PT2991</name></trkpt>
<trkpt lat="52.095712" lon="05.652974"><ele>13.1</ele><time>2022-04-13T11:51:43Z</time><name>PT2992</name></trkpt>
<trkpt lat="52.095712" lon="05.652953"><ele>13.2</ele><time>2022-04-13T11:51:44Z</time><name>PT2993</name></trkpt>
<trkpt lat="52.095710" lon="05.652932"><ele>13.2</ele><time>2022-04-13T11:51:45Z</time><name>PT2994</name></trkpt>
<trkpt lat="52.095708" lon="05.652912"><ele>13.1</ele><time>2022-04-13T11:51:46Z</time><name>PT2995</name></trkpt>
<trkpt lat="52.095710" lon="05.652888"><ele>13.2</ele><time>2022-04-13T11:51:47Z</time><name>PT2996</name></trkpt>
<trkpt lat="52.095710" lon="05.652865"><ele>13.4</ele><time>2022-04-13T11:51:48Z</time><name>PT2997</name></trkpt>
<trkpt lat="52.095710" lon="05.652848"><ele>13.3</ele><time>2022-04-13T11:51:49Z</time><name>PT2998</name></trkpt>
<trkpt lat="52.095711" lon="05.652832"><ele>13.3</ele><time>2022-04-13T11:51:50Z</time><name>PT2999</name></trkpt>
<trkpt lat="52.095712" lon="05.652817"><ele>13.4</ele><time>2022-04-13T11:51:51Z</time><name>PT3000</name></trkpt>
<trkpt lat="52.095710" lon="05.652802"><ele>13.3</ele><time>2022-04-13T11:51:52Z</time><name>PT3001</name></trkpt>
<trkpt lat="52.095709" lon="05.652786"><ele>13.2</ele><time>2022-04-13T11:51:53Z</time><name>PT3002</name></trkpt>
<trkpt lat="52.095709" lon="05.652768"><ele>13.2</ele><time>2022-04-13T11:51:54Z</time><name>PT3003</name></trkpt>
<trkpt lat="52.095710" lon="05.652748"><ele>13.2</ele><time>2022-04-13T11:51:55Z</time><name>PT3004</name></trkpt>
<trkpt lat="52.095707" lon="05.652719"><ele>13</ele><time>2022-04-13T11:51:56Z</time><name>PT3005</name></trkpt>
<trkpt lat="52.095707" lon="05.652694"><ele>13.2</ele><time>2022-04-13T11:51:57Z</time><name>PT3006</name></trkpt>
<trkpt lat="52.095703" lon="05.652670"><ele>13.3</ele><time>2022-04-13T11:51:58Z</time><name>PT3007</name></trkpt>
<trkpt lat="52.095702" lon="05.652651"><ele>13.3</ele><time>2022-04-13T11:51:59Z</time><name>PT3008</name></trkpt>
<trkpt lat="52.095699" lon="05.652635"><ele>13.3</ele><time>2022-04-13T11:52:00Z</time><name>PT3009</name></trkpt>
<trkpt lat="52.095697" lon="05.652625"><ele>13.2</ele><time>2022-04-13T11:52:01Z</time><name>PT3010</name></trkpt>
<trkpt lat="52.095696" lon="05.652611"><ele>13.2</ele><time>2022-04-13T11:52:02Z</time><name>PT3011</name></trkpt>
<trkpt lat="52.095698" lon="05.652593"><ele>13</ele><time>2022-04-13T11:52:03Z</time><name>PT3012</name></trkpt>
<trkpt lat="52.095701" lon="05.652574"><ele>13</ele><time>2022-04-13T11:52:04Z</time><name>PT3013</name></trkpt>
<trkpt lat="52.095704" lon="05.652554"><ele>13</ele><time>2022-04-13T11:52:05Z</time><name>PT3014</name></trkpt>
<trkpt lat="52.095704" lon="05.652539"><ele>13.1</ele><time>2022-04-13T11:52:06Z</time><name>PT3015</name></trkpt>
<trkpt lat="52.095705" lon="05.652529"><ele>13</ele><time>2022-04-13T11:52:07Z</time><name>PT3016</name></trkpt>
<trkpt lat="52.095704" lon="05.652518"><ele>12.9</ele><time>2022-04-13T11:52:08Z</time><name>PT3017</name></trkpt>
<trkpt lat="52.095711" lon="05.652503"><ele>12.8</ele><time>2022-04-13T11:52:09Z</time><name>PT3018</name></trkpt>
<trkpt lat="52.095725" lon="05.652490"><ele>12.7</ele><time>2022-04-13T11:52:10Z</time><name>PT3019</name></trkpt>
<trkpt lat="52.095737" lon="05.652478"><ele>12.6</ele><time>2022-04-13T11:52:11Z</time><name>PT3020</name></trkpt>
<trkpt lat="52.095760" lon="05.652475"><ele>12.4</ele><time>2022-04-13T11:52:12Z</time><name>PT3021</name></trkpt>
<trkpt lat="52.095775" lon="05.652470"><ele>12.3</ele><time>2022-04-13T11:52:13Z</time><name>PT3022</name></trkpt>
<trkpt lat="52.095781" lon="05.652462"><ele>12.3</ele><time>2022-04-13T11:52:14Z</time><name>PT3023</name></trkpt>
<trkpt lat="52.095784" lon="05.652455"><ele>12.2</ele><time>2022-04-13T11:52:15Z</time><name>PT3024</name></trkpt>
<trkpt lat="52.095782" lon="05.652449"><ele>11.7</ele><time>2022-04-13T11:52:16Z</time><name>PT3025</name></trkpt>
<trkpt lat="52.095781" lon="05.652445"><ele>11.6</ele><time>2022-04-13T11:52:17Z</time><name>PT3026</name></trkpt>
<trkpt lat="52.095780" lon="05.652441"><ele>11.3</ele><time>2022-04-13T11:52:18Z</time><name>PT3027</name></trkpt>
<trkpt lat="52.095775" lon="05.652437"><ele>11</ele><time>2022-04-13T11:52:19Z</time><name>PT3028</name></trkpt>
<trkpt lat="52.095780" lon="05.652426"><ele>10.9</ele><time>2022-04-13T11:52:20Z</time><name>PT3029</name></trkpt>
<trkpt lat="52.095780" lon="05.652414"><ele>10.8</ele><time>2022-04-13T11:52:21Z</time><name>PT3030</name></trkpt>
<trkpt lat="52.095788" lon="05.652401"><ele>10.5</ele><time>2022-04-13T11:52:22Z</time><name>PT3031</name></trkpt>
<trkpt lat="52.095797" lon="05.652380"><ele>10.3</ele><time>2022-04-13T11:52:23Z</time><name>PT3032</name></trkpt>
<trkpt lat="52.095801" lon="05.652356"><ele>10.1</ele><time>2022-04-13T11:52:24Z</time><name>PT3033</name></trkpt>
<trkpt lat="52.095810" lon="05.652339"><ele>9.9</ele><time>2022-04-13T11:52:25Z</time><name>PT3034</name></trkpt>
<trkpt lat="52.095817" lon="05.652334"><ele>9.8</ele><time>2022-04-13T11:52:26Z</time><name>PT3035</name></trkpt>
<trkpt lat="52.095818" lon="05.652328"><ele>9.9</ele><time>2022-04-13T11:52:27Z</time><name>PT3036</name></trkpt>
<trkpt lat="52.095818" lon="05.652326"><ele>9.7</ele><time>2022-04-13T11:52:28Z</time><name>PT3037</name></trkpt>
<trkpt lat="52.095825" lon="05.652323"><ele>9.8</ele><time>2022-04-13T11:52:29Z</time><name>PT3038</name></trkpt>
<trkpt lat="52.095833" lon="05.652310"><ele>9.6</ele><time>2022-04-13T11:52:30Z</time><name>PT3039</name></trkpt>
<trkpt lat="52.095841" lon="05.652290"><ele>9.5</ele><time>2022-04-13T11:52:31Z</time><name>PT3040</name></trkpt>
<trkpt lat="52.095848" lon="05.652269"><ele>9.4</ele><time>2022-04-13T11:52:32Z</time><name>PT3041</name></trkpt>
<trkpt lat="52.095854" lon="05.652257"><ele>9.2</ele><time>2022-04-13T11:52:33Z</time><name>PT3042</name></trkpt>
<trkpt lat="52.095857" lon="05.652250"><ele>9.1</ele><time>2022-04-13T11:52:34Z</time><name>PT3043</name></trkpt>
<trkpt lat="52.095860" lon="05.652243"><ele>9</ele><time>2022-04-13T11:52:35Z</time><name>PT3044</name></trkpt>
<trkpt lat="52.095861" lon="05.652242"><ele>8.9</ele><time>2022-04-13T11:52:36Z</time><name>PT3045</name></trkpt>
<trkpt lat="52.095864" lon="05.652239"><ele>8.8</ele><time>2022-04-13T11:52:37Z</time><name>PT3046</name></trkpt>
<trkpt lat="52.095869" lon="05.652228"><ele>8.9</ele><time>2022-04-13T11:52:38Z</time><name>PT3047</name></trkpt>
<trkpt lat="52.095881" lon="05.652215"><ele>8.8</ele><time>2022-04-13T11:52:39Z</time><name>PT3048</name></trkpt>
<trkpt lat="52.095890" lon="05.652195"><ele>8.4</ele><time>2022-04-13T11:52:40Z</time><name>PT3049</name></trkpt>
<trkpt lat="52.095901" lon="05.652179"><ele>8.4</ele><time>2022-04-13T11:52:41Z</time><name>PT3050</name></trkpt>
<trkpt lat="52.095912" lon="05.652162"><ele>8.2</ele><time>2022-04-13T11:52:42Z</time><name>PT3051</name></trkpt>
<trkpt lat="52.095919" lon="05.652152"><ele>7.9</ele><time>2022-04-13T11:52:43Z</time><name>PT3052</name></trkpt>
<trkpt lat="52.095931" lon="05.652144"><ele>7.9</ele><time>2022-04-13T11:52:44Z</time><name>PT3053</name></trkpt>
<trkpt lat="52.095938" lon="05.652138"><ele>7.6</ele><time>2022-04-13T11:52:45Z</time><name>PT3054</name></trkpt>
<trkpt lat="52.095939" lon="05.652130"><ele>7.5</ele><time>2022-04-13T11:52:46Z</time><name>PT3055</name></trkpt>
<trkpt lat="52.095941" lon="05.652123"><ele>7.4</ele><time>2022-04-13T11:52:47Z</time><name>PT3056</name></trkpt>
<trkpt lat="52.095944" lon="05.652124"><ele>7.2</ele><time>2022-04-13T11:52:48Z</time><name>PT3057</name></trkpt>
<trkpt lat="52.095950" lon="05.652118"><ele>7.1</ele><time>2022-04-13T11:52:49Z</time><name>PT3058</name></trkpt>
<trkpt lat="52.095959" lon="05.652103"><ele>7.1</ele><time>2022-04-13T11:52:50Z</time><name>PT3059</name></trkpt>
<trkpt lat="52.095968" lon="05.652087"><ele>7</ele><time>2022-04-13T11:52:51Z</time><name>PT3060</name></trkpt>
<trkpt lat="52.095986" lon="05.652075"><ele>6.9</ele><time>2022-04-13T11:52:52Z</time><name>PT3061</name></trkpt>
<trkpt lat="52.095999" lon="05.652062"><ele>6.8</ele><time>2022-04-13T11:52:53Z</time><name>PT3062</name></trkpt>
<trkpt lat="52.096000" lon="05.652044"><ele>6.5</ele><time>2022-04-13T11:52:54Z</time><name>PT3063</name></trkpt>
<trkpt lat="52.095999" lon="05.652027"><ele>6.4</ele><time>2022-04-13T11:52:55Z</time><name>PT3064</name></trkpt>
<trkpt lat="52.096006" lon="05.652033"><ele>6.2</ele><time>2022-04-13T11:52:56Z</time><name>PT3065</name></trkpt>
<trkpt lat="52.096011" lon="05.652032"><ele>6.1</ele><time>2022-04-13T11:52:57Z</time><name>PT3066</name></trkpt>
<trkpt lat="52.096022" lon="05.652020"><ele>6</ele><time>2022-04-13T11:52:58Z</time><name>PT3067</name></trkpt>
<trkpt lat="52.096031" lon="05.652006"><ele>6</ele><time>2022-04-13T11:52:59Z</time><name>PT3068</name></trkpt>
<trkpt lat="52.096038" lon="05.651986"><ele>5.9</ele><time>2022-04-13T11:53:00Z</time><name>PT3069</name></trkpt>
<trkpt lat="52.096050" lon="05.651972"><ele>5.7</ele><time>2022-04-13T11:53:01Z</time><name>PT3070</name></trkpt>
<trkpt lat="52.096057" lon="05.651962"><ele>5.5</ele><time>2022-04-13T11:53:02Z</time><name>PT3071</name></trkpt>
<trkpt lat="52.096057" lon="05.651955"><ele>5.4</ele><time>2022-04-13T11:53:03Z</time><name>PT3072</name></trkpt>
<trkpt lat="52.096056" lon="05.651952"><ele>5.4</ele><time>2022-04-13T11:53:04Z</time><name>PT3073</name></trkpt>
<trkpt lat="52.096056" lon="05.651950"><ele>5.1</ele><time>2022-04-13T11:53:05Z</time><name>PT3074</name></trkpt>
<trkpt lat="52.096068" lon="05.651940"><ele>5.2</ele><time>2022-04-13T11:53:06Z</time><name>PT3075</name></trkpt>
<trkpt lat="52.096083" lon="05.651931"><ele>5</ele><time>2022-04-13T11:53:07Z</time><name>PT3076</name></trkpt>
<trkpt lat="52.096093" lon="05.651925"><ele>5</ele><time>2022-04-13T11:53:08Z</time><name>PT3077</name></trkpt>
<trkpt lat="52.096110" lon="05.651914"><ele>4.9</ele><time>2022-04-13T11:53:09Z</time><name>PT3078</name></trkpt>
<trkpt lat="52.096125" lon="05.651907"><ele>4.9</ele><time>2022-04-13T11:53:10Z</time><name>PT3079</name></trkpt>
<trkpt lat="52.096129" lon="05.651900"><ele>4.8</ele><time>2022-04-13T11:53:11Z</time><name>PT3080</name></trkpt>
<trkpt lat="52.096134" lon="05.651895"><ele>4.7</ele><time>2022-04-13T11:53:12Z</time><name>PT3081</name></trkpt>
<trkpt lat="52.096138" lon="05.651891"><ele>4.3</ele><time>2022-04-13T11:53:13Z</time><name>PT3082</name></trkpt>
<trkpt lat="52.096146" lon="05.651886"><ele>4.1</ele><time>2022-04-13T11:53:14Z</time><name>PT3083</name></trkpt>
<trkpt lat="52.096161" lon="05.651878"><ele>4</ele><time>2022-04-13T11:53:15Z</time><name>PT3084</name></trkpt>
<trkpt lat="52.096173" lon="05.651866"><ele>3.9</ele><time>2022-04-13T11:53:16Z</time><name>PT3085</name></trkpt>
<trkpt lat="52.096184" lon="05.651849"><ele>3.7</ele><time>2022-04-13T11:53:17Z</time><name>PT3086</name></trkpt>
<trkpt lat="52.096188" lon="05.651837"><ele>3.7</ele><time>2022-04-13T11:53:18Z</time><name>PT3087</name></trkpt>
<trkpt lat="52.096184" lon="05.651830"><ele>3.5</ele><time>2022-04-13T11:53:19Z</time><name>PT3088</name></trkpt>
<trkpt lat="52.096182" lon="05.651828"><ele>3.3</ele><time>2022-04-13T11:53:20Z</time><name>PT3089</name></trkpt>
<trkpt lat="52.096183" lon="05.651814"><ele>3.2</ele><time>2022-04-13T11:53:21Z</time><name>PT3090</name></trkpt>
<trkpt lat="52.096185" lon="05.651796"><ele>3.1</ele><time>2022-04-13T11:53:22Z</time><name>PT3091</name></trkpt>
<trkpt lat="52.096191" lon="05.651774"><ele>3.1</ele><time>2022-04-13T11:53:23Z</time><name>PT3092</name></trkpt>
<trkpt lat="52.096203" lon="05.651775"><ele>3</ele><time>2022-04-13T11:53:24Z</time><name>PT3093</name></trkpt>
<trkpt lat="52.096211" lon="05.651767"><ele>2.8</ele><time>2022-04-13T11:53:25Z</time><name>PT3094</name></trkpt>
<trkpt lat="52.096211" lon="05.651760"><ele>2.7</ele><time>2022-04-13T11:53:26Z</time><name>PT3095</name></trkpt>
<trkpt lat="52.096212" lon="05.651753"><ele>2.8</ele><time>2022-04-13T11:53:27Z</time><name>PT3096</name></trkpt>
<trkpt lat="52.096215" lon="05.651739"><ele>2.5</ele><time>2022-04-13T11:53:28Z</time><name>PT3097</name></trkpt>
<trkpt lat="52.096226" lon="05.651723"><ele>2.3</ele><time>2022-04-13T11:53:29Z</time><name>PT3098</name></trkpt>
<trkpt lat="52.096241" lon="05.651713"><ele>2.4</ele><time>2022-04-13T11:53:30Z</time><name>PT3099</name></trkpt>
<trkpt lat="52.096254" lon="05.651708"><ele>2.2</ele><time>2022-04-13T11:53:31Z</time><name>PT3100</name></trkpt>
<trkpt lat="52.096257" lon="05.651701"><ele>2.1</ele><time>2022-04-13T11:53:32Z</time><name>PT3101</name></trkpt>
<trkpt lat="52.096255" lon="05.651698"><ele>2.2</ele><time>2022-04-13T11:53:33Z</time><name>PT3102</name></trkpt>
<trkpt lat="52.096256" lon="05.651690"><ele>2.2</ele><time>2022-04-13T11:53:34Z</time><name>PT3103</name></trkpt>
<trkpt lat="52.096267" lon="05.651677"><ele>2</ele><time>2022-04-13T11:53:35Z</time><name>PT3104</name></trkpt>
<trkpt lat="52.096282" lon="05.651665"><ele>2</ele><time>2022-04-13T11:53:36Z</time><name>PT3105</name></trkpt>
<trkpt lat="52.096295" lon="05.651658"><ele>1.8</ele><time>2022-04-13T11:53:37Z</time><name>PT3106</name></trkpt>
<trkpt lat="52.096296" lon="05.651656"><ele>1.5</ele><time>2022-04-13T11:53:38Z</time><name>PT3107</name></trkpt>
<trkpt lat="52.096298" lon="05.651651"><ele>1.5</ele><time>2022-04-13T11:53:39Z</time><name>PT3108</name></trkpt>
<trkpt lat="52.096310" lon="05.651635"><ele>1.6</ele><time>2022-04-13T11:53:40Z</time><name>PT3109</name></trkpt>
<trkpt lat="52.096331" lon="05.651621"><ele>1.3</ele><time>2022-04-13T11:53:41Z</time><name>PT3110</name></trkpt>
<trkpt lat="52.096350" lon="05.651612"><ele>1.4</ele><time>2022-04-13T11:53:42Z</time><name>PT3111</name></trkpt>
<trkpt lat="52.096362" lon="05.651607"><ele>1.2</ele><time>2022-04-13T11:53:43Z</time><name>PT3112</name></trkpt>
<trkpt lat="52.096369" lon="05.651602"><ele>1.2</ele><time>2022-04-13T11:53:44Z</time><name>PT3113</name></trkpt>
<trkpt lat="52.096376" lon="05.651595"><ele>1.1</ele><time>2022-04-13T11:53:45Z</time><name>PT3114</name></trkpt>
<trkpt lat="52.096377" lon="05.651573"><ele>1</ele><time>2022-04-13T11:53:46Z</time><name>PT3115</name></trkpt>
<trkpt lat="52.096386" lon="05.651569"><ele>0.7</ele><time>2022-04-13T11:53:47Z</time><name>PT3116</name></trkpt>
<trkpt lat="52.096401" lon="05.651562"><ele>0.9</ele><time>2022-04-13T11:53:48Z</time><name>PT3117</name></trkpt>
<trkpt lat="52.096410" lon="05.651554"><ele>0.6</ele><time>2022-04-13T11:53:49Z</time><name>PT3118</name></trkpt>
<trkpt lat="52.096412" lon="05.651544"><ele>0.5</ele><time>2022-04-13T11:53:50Z</time><name>PT3119</name></trkpt>
<trkpt lat="52.096417" lon="05.651538"><ele>0.6</ele><time>2022-04-13T11:53:51Z</time><name>PT3120</name></trkpt>
<trkpt lat="52.096427" lon="05.651530"><ele>0.5</ele><time>2022-04-13T11:53:52Z</time><name>PT3121</name></trkpt>
<trkpt lat="52.096441" lon="05.651525"><ele>0.1</ele><time>2022-04-13T11:53:53Z</time><name>PT3122</name></trkpt>
<trkpt lat="52.096455" lon="05.651520"><ele>0.2</ele><time>2022-04-13T11:53:54Z</time><name>PT3123</name></trkpt>
<trkpt lat="52.096468" lon="05.651515"><ele>0.2</ele><time>2022-04-13T11:53:55Z</time><name>PT3124</name></trkpt>
<trkpt lat="52.096471" lon="05.651511"><ele>0.1</ele><time>2022-04-13T11:53:56Z</time><name>PT3125</name></trkpt>
<trkpt lat="52.096472" lon="05.651508"><ele>0.1</ele><time>2022-04-13T11:53:57Z</time><name>PT3126</name></trkpt>
<trkpt lat="52.096477" lon="05.651503"><ele>0.1</ele><time>2022-04-13T11:53:58Z</time><name>PT3127</name></trkpt>
<trkpt lat="52.096488" lon="05.651491"><ele>0</ele><time>2022-04-13T11:53:59Z</time><name>PT3128</name></trkpt>
<trkpt lat="52.096508" lon="05.651492"><ele>0</ele><time>2022-04-13T11:54:00Z</time><name>PT3129</name></trkpt>
<trkpt lat="52.096523" lon="05.651486"><ele>0</ele><time>2022-04-13T11:54:01Z</time><name>PT3130</name></trkpt>
<trkpt lat="52.096533" lon="05.651486"><ele>0</ele><time>2022-04-13T11:54:02Z</time><name>PT3131</name></trkpt>
<trkpt lat="52.096534" lon="05.651484"><ele>0.1</ele><time>2022-04-13T11:54:03Z</time><name>PT3132</name></trkpt>
<trkpt lat="52.096541" lon="05.651479"><ele>0.2</ele><time>2022-04-13T11:54:04Z</time><name>PT3133</name></trkpt>
<trkpt lat="52.096555" lon="05.651465"><ele>0.4</ele><time>2022-04-13T11:54:05Z</time><name>PT3134</name></trkpt>
<trkpt lat="52.096577" lon="05.651449"><ele>0.4</ele><time>2022-04-13T11:54:06Z</time><name>PT3135</name></trkpt>
<trkpt lat="52.096594" lon="05.651445"><ele>0.5</ele><time>2022-04-13T11:54:07Z</time><name>PT3136</name></trkpt>
<trkpt lat="52.096604" lon="05.651436"><ele>0.7</ele><time>2022-04-13T11:54:08Z</time><name>PT3137</name></trkpt>
<trkpt lat="52.096611" lon="05.651430"><ele>0.6</ele><time>2022-04-13T11:54:09Z</time><name>PT3138</name></trkpt>
<trkpt lat="52.096618" lon="05.651425"><ele>0.6</ele><time>2022-04-13T11:54:10Z</time><name>PT3139</name></trkpt>
<trkpt lat="52.096623" lon="05.651410"><ele>0.7</ele><time>2022-04-13T11:54:11Z</time><name>PT3140</name></trkpt>
<trkpt lat="52.096630" lon="05.651388"><ele>0.7</ele><time>2022-04-13T11:54:12Z</time><name>PT3141</name></trkpt>
<trkpt lat="52.096644" lon="05.651369"><ele>0.7</ele><time>2022-04-13T11:54:13Z</time><name>PT3142</name></trkpt>
<trkpt lat="52.096658" lon="05.651362"><ele>-1</ele><time>2022-04-13T11:54:14Z</time><name>PT3143</name></trkpt>
<trkpt lat="52.096666" lon="05.651356"><ele>-1</ele><time>2022-04-13T11:54:15Z</time><name>PT3144</name></trkpt>
<trkpt lat="52.096675" lon="05.651352"><ele>-1.1</ele><time>2022-04-13T11:54:16Z</time><name>PT3145</name></trkpt>
<trkpt lat="52.096679" lon="05.651344"><ele>-1.2</ele><time>2022-04-13T11:54:17Z</time><name>PT3146</name></trkpt>
<trkpt lat="52.096690" lon="05.651330"><ele>-1.2</ele><time>2022-04-13T11:54:18Z</time><name>PT3147</name></trkpt>
<trkpt lat="52.096702" lon="05.651322"><ele>-1.2</ele><time>2022-04-13T11:54:19Z</time><name>PT3148</name></trkpt>
<trkpt lat="52.096715" lon="05.651316"><ele>-1.1</ele><time>2022-04-13T11:54:20Z</time><name>PT3149</name></trkpt>
<trkpt lat="52.096726" lon="05.651311"><ele>-1.1</ele><time>2022-04-13T11:54:21Z</time><name>PT3150</name></trkpt>
<trkpt lat="52.096731" lon="05.651308"><ele>-1.1</ele><time>2022-04-13T11:54:22Z</time><name>PT3151</name></trkpt>
<trkpt lat="52.096733" lon="05.651305"><ele>-1.2</ele><time>2022-04-13T11:54:23Z</time><name>PT3152</name></trkpt>
<trkpt lat="52.096739" lon="05.651300"><ele>-1.3</ele><time>2022-04-13T11:54:24Z</time><name>PT3153</name></trkpt>
<trkpt lat="52.096750" lon="05.651293"><ele>-1.5</ele><time>2022-04-13T11:54:25Z</time><name>PT3154</name></trkpt>
<trkpt lat="52.096762" lon="05.651286"><ele>-1.6</ele><time>2022-04-13T11:54:26Z</time><name>PT3155</name></trkpt>
<trkpt lat="52.096771" lon="05.651283"><ele>-1.5</ele><time>2022-04-13T11:54:27Z</time><name>PT3156</name></trkpt>
<trkpt lat="52.096770" lon="05.651278"><ele>-1.8</ele><time>2022-04-13T11:54:28Z</time><name>PT3157</name></trkpt>
<trkpt lat="52.096778" lon="05.651275"><ele>-1.8</ele><time>2022-04-13T11:54:29Z</time><name>PT3158</name></trkpt>
<trkpt lat="52.096785" lon="05.651268"><ele>-1.9</ele><time>2022-04-13T11:54:30Z</time><name>PT3159</name></trkpt>
<trkpt lat="52.096787" lon="05.651264"><ele>-1.9</ele><time>2022-04-13T11:54:31Z</time><name>PT3160</name></trkpt>
<trkpt lat="52.096791" lon="05.651261"><ele>-2.2</ele><time>2022-04-13T11:54:32Z</time><name>PT3161</name></trkpt>
<trkpt lat="52.096796" lon="05.651254"><ele>-2.1</ele><time>2022-04-13T11:54:33Z</time><name>PT3162</name></trkpt>
<trkpt lat="52.096806" lon="05.651253"><ele>-2.1</ele><time>2022-04-13T11:54:34Z</time><name>PT3163</name></trkpt>
<trkpt lat="52.096821" lon="05.651254"><ele>-2.2</ele><time>2022-04-13T11:54:35Z</time><name>PT3164</name></trkpt>
<trkpt lat="52.096826" lon="05.651254"><ele>-2.1</ele><time>2022-04-13T11:54:36Z</time><name>PT3165</name></trkpt>
<trkpt lat="52.096821" lon="05.651251"><ele>-2.1</ele><time>2022-04-13T11:54:37Z</time><name>PT3166</name></trkpt>
<trkpt lat="52.096816" lon="05.651249"><ele>-2.1</ele><time>2022-04-13T11:54:38Z</time><name>PT3167</name></trkpt>
<trkpt lat="52.096814" lon="05.651250"><ele>-2.1</ele><time>2022-04-13T11:54:39Z</time><name>PT3168</name></trkpt>
<trkpt lat="52.096816" lon="05.651238"><ele>-2.2</ele><time>2022-04-13T11:54:57Z</time><name>PT3169</name></trkpt>
<trkpt lat="52.096820" lon="05.651227"><ele>-2.1</ele><time>2022-04-13T11:54:58Z</time><name>PT3170</name></trkpt>
<trkpt lat="52.096826" lon="05.651218"><ele>-1.9</ele><time>2022-04-13T11:54:59Z</time><name>PT3171</name></trkpt>
<trkpt lat="52.096831" lon="05.651211"><ele>-1.9</ele><time>2022-04-13T11:55:00Z</time><name>PT3172</name></trkpt>
<trkpt lat="52.096841" lon="05.651202"><ele>-1.9</ele><time>2022-04-13T11:55:01Z</time><name>PT3173</name></trkpt>
<trkpt lat="52.096856" lon="05.651190"><ele>-2</ele><time>2022-04-13T11:55:02Z</time><name>PT3174</name></trkpt>
<trkpt lat="52.096875" lon="05.651186"><ele>-2.2</ele><time>2022-04-13T11:55:03Z</time><name>PT3175</name></trkpt>
<trkpt lat="52.096895" lon="05.651181"><ele>-2.3</ele><time>2022-04-13T11:55:04Z</time><name>PT3176</name></trkpt>
<trkpt lat="52.096906" lon="05.651175"><ele>-2.3</ele><time>2022-04-13T11:55:05Z</time><name>PT3177</name></trkpt>
<trkpt lat="52.096912" lon="05.651169"><ele>-2.5</ele><time>2022-04-13T11:55:06Z</time><name>PT3178</name></trkpt>
<trkpt lat="52.096917" lon="05.651166"><ele>-2.3</ele><time>2022-04-13T11:55:07Z</time><name>PT3179</name></trkpt>
<trkpt lat="52.096919" lon="05.651160"><ele>-2.4</ele><time>2022-04-13T11:55:08Z</time><name>PT3180</name></trkpt>
<trkpt lat="52.096925" lon="05.651157"><ele>-2.5</ele><time>2022-04-13T11:55:09Z</time><name>PT3181</name></trkpt>
<trkpt lat="52.096938" lon="05.651151"><ele>-2.6</ele><time>2022-04-13T11:55:10Z</time><name>PT3182</name></trkpt>
<trkpt lat="52.096954" lon="05.651144"><ele>-2.7</ele><time>2022-04-13T11:55:11Z</time><name>PT3183</name></trkpt>
<trkpt lat="52.096970" lon="05.651134"><ele>-2.6</ele><time>2022-04-13T11:55:12Z</time><name>PT3184</name></trkpt>
<trkpt lat="52.096978" lon="05.651128"><ele>-2.8</ele><time>2022-04-13T11:55:13Z</time><name>PT3185</name></trkpt>
<trkpt lat="52.096982" lon="05.651124"><ele>-2.6</ele><time>2022-04-13T11:55:14Z</time><name>PT3186</name></trkpt>
<trkpt lat="52.096983" lon="05.651119"><ele>-2.5</ele><time>2022-04-13T11:55:15Z</time><name>PT3187</name></trkpt>
<trkpt lat="52.096987" lon="05.651115"><ele>-2.4</ele><time>2022-04-13T11:55:16Z</time><name>PT3188</name></trkpt>
<trkpt lat="52.097002" lon="05.651108"><ele>-2.5</ele><time>2022-04-13T11:55:17Z</time><name>PT3189</name></trkpt>
<trkpt lat="52.097020" lon="05.651105"><ele>-2.5</ele><time>2022-04-13T11:55:18Z</time><name>PT3190</name></trkpt>
<trkpt lat="52.097040" lon="05.651105"><ele>-2.6</ele><time>2022-04-13T11:55:19Z</time><name>PT3191</name></trkpt>
<trkpt lat="52.097058" lon="05.651108"><ele>-2.5</ele><time>2022-04-13T11:55:20Z</time><name>PT3192</name></trkpt>
<trkpt lat="52.097063" lon="05.651109"><ele>-2.6</ele><time>2022-04-13T11:55:21Z</time><name>PT3193</name></trkpt>
<trkpt lat="52.097068" lon="05.651111"><ele>-2.7</ele><time>2022-04-13T11:55:22Z</time><name>PT3194</name></trkpt>
<trkpt lat="52.097077" lon="05.651109"><ele>-2.7</ele><time>2022-04-13T11:55:23Z</time><name>PT3195</name></trkpt>
<trkpt lat="52.097090" lon="05.651108"><ele>-2.9</ele><time>2022-04-13T11:55:24Z</time><name>PT3196</name></trkpt>
<trkpt lat="52.097107" lon="05.651107"><ele>-3</ele><time>2022-04-13T11:55:25Z</time><name>PT3197</name></trkpt>
<trkpt lat="52.097120" lon="05.651106"><ele>-3.1</ele><time>2022-04-13T11:55:26Z</time><name>PT3198</name></trkpt>
<trkpt lat="52.097134" lon="05.651107"><ele>-3.1</ele><time>2022-04-13T11:55:27Z</time><name>PT3199</name></trkpt>
<trkpt lat="52.097140" lon="05.651105"><ele>-3.1</ele><time>2022-04-13T11:55:28Z</time><name>PT3200</name></trkpt>
<trkpt lat="52.097142" lon="05.651105"><ele>-3.1</ele><time>2022-04-13T11:55:29Z</time><name>PT3201</name></trkpt>
<trkpt lat="52.097147" lon="05.651107"><ele>-3.2</ele><time>2022-04-13T11:55:30Z</time><name>PT3202</name></trkpt>
<trkpt lat="52.097157" lon="05.651105"><ele>-3.1</ele><time>2022-04-13T11:55:31Z</time><name>PT3203</name></trkpt>
<trkpt lat="52.097180" lon="05.651109"><ele>-3.2</ele><time>2022-04-13T11:55:32Z</time><name>PT3204</name></trkpt>
<trkpt lat="52.097203" lon="05.651114"><ele>-3.3</ele><time>2022-04-13T11:55:33Z</time><name>PT3205</name></trkpt>
<trkpt lat="52.097222" lon="05.651117"><ele>-3.5</ele><time>2022-04-13T11:55:34Z</time><name>PT3206</name></trkpt>
<trkpt lat="52.097233" lon="05.651115"><ele>-3.4</ele><time>2022-04-13T11:55:35Z</time><name>PT3207</name></trkpt>
<trkpt lat="52.097240" lon="05.651115"><ele>-3.3</ele><time>2022-04-13T11:55:36Z</time><name>PT3208</name></trkpt>
<trkpt lat="52.097242" lon="05.651117"><ele>-3.2</ele><time>2022-04-13T11:55:37Z</time><name>PT3209</name></trkpt>
<trkpt lat="52.097251" lon="05.651115"><ele>-3.4</ele><time>2022-04-13T11:55:38Z</time><name>PT3210</name></trkpt>
<trkpt lat="52.097270" lon="05.651123"><ele>-3.4</ele><time>2022-04-13T11:55:39Z</time><name>PT3211</name></trkpt>
<trkpt lat="52.097293" lon="05.651134"><ele>-3.4</ele><time>2022-04-13T11:55:40Z</time><name>PT3212</name></trkpt>
<trkpt lat="52.097305" lon="05.651137"><ele>-3.6</ele><time>2022-04-13T11:55:41Z</time><name>PT3213</name></trkpt>
<trkpt lat="52.097311" lon="05.651135"><ele>-3.6</ele><time>2022-04-13T11:55:42Z</time><name>PT3214</name></trkpt>
<trkpt lat="52.097311" lon="05.651131"><ele>-3.3</ele><time>2022-04-13T11:55:43Z</time><name>PT3215</name></trkpt>
<trkpt lat="52.097323" lon="05.651129"><ele>-3.2</ele><time>2022-04-13T11:55:44Z</time><name>PT3216</name></trkpt>
<trkpt lat="52.097337" lon="05.651127"><ele>-3.2</ele><time>2022-04-13T11:55:45Z</time><name>PT3217</name></trkpt>
<trkpt lat="52.097354" lon="05.651126"><ele>-3.2</ele><time>2022-04-13T11:55:46Z</time><name>PT3218</name></trkpt>
<trkpt lat="52.097370" lon="05.651126"><ele>-3.4</ele><time>2022-04-13T11:55:47Z</time><name>PT3219</name></trkpt>
<trkpt lat="52.097375" lon="05.651120"><ele>-3.4</ele><time>2022-04-13T11:55:48Z</time><name>PT3220</name></trkpt>
<trkpt lat="52.097371" lon="05.651115"><ele>-3.5</ele><time>2022-04-13T11:55:49Z</time><name>PT3221</name></trkpt>
<trkpt lat="52.097378" lon="05.651119"><ele>-3.4</ele><time>2022-04-13T11:55:50Z</time><name>PT3222</name></trkpt>
<trkpt lat="52.097401" lon="05.651117"><ele>-3.4</ele><time>2022-04-13T11:55:51Z</time><name>PT3223</name></trkpt>
<trkpt lat="52.097423" lon="05.651123"><ele>-3.6</ele><time>2022-04-13T11:55:52Z</time><name>PT3224</name></trkpt>
<trkpt lat="52.097442" lon="05.651127"><ele>-3.6</ele><time>2022-04-13T11:55:53Z</time><name>PT3225</name></trkpt>
<trkpt lat="52.097452" lon="05.651127"><ele>-3.6</ele><time>2022-04-13T11:55:54Z</time><name>PT3226</name></trkpt>
<trkpt lat="52.097461" lon="05.651125"><ele>-3.8</ele><time>2022-04-13T11:55:55Z</time><name>PT3227</name></trkpt>
<trkpt lat="52.097462" lon="05.651124"><ele>-4</ele><time>2022-04-13T11:55:56Z</time><name>PT3228</name></trkpt>
<trkpt lat="52.097465" lon="05.651123"><ele>-3.9</ele><time>2022-04-13T11:55:57Z</time><name>PT3229</name></trkpt>
<trkpt lat="52.097471" lon="05.651122"><ele>-3.8</ele><time>2022-04-13T11:55:58Z</time><name>PT3230</name></trkpt>
<trkpt lat="52.097482" lon="05.651117"><ele>-3.7</ele><time>2022-04-13T11:55:59Z</time><name>PT3231</name></trkpt>
<trkpt lat="52.097493" lon="05.651122"><ele>-3.7</ele><time>2022-04-13T11:56:00Z</time><name>PT3232</name></trkpt>
<trkpt lat="52.097507" lon="05.651126"><ele>-3.6</ele><time>2022-04-13T11:56:01Z</time><name>PT3233</name></trkpt>
<trkpt lat="52.097515" lon="05.651127"><ele>-3.6</ele><time>2022-04-13T11:56:02Z</time><name>PT3234</name></trkpt>
<trkpt lat="52.097518" lon="05.651133"><ele>-3.4</ele><time>2022-04-13T11:56:03Z</time><name>PT3235</name></trkpt>
<trkpt lat="52.097521" lon="05.651129"><ele>-3.5</ele><time>2022-04-13T11:56:04Z</time><name>PT3236</name></trkpt>
<trkpt lat="52.097531" lon="05.651120"><ele>-3.3</ele><time>2022-04-13T11:56:05Z</time><name>PT3237</name></trkpt>
<trkpt lat="52.097547" lon="05.651109"><ele>-3.2</ele><time>2022-04-13T11:56:06Z</time><name>PT3238</name></trkpt>
<trkpt lat="52.097567" lon="05.651106"><ele>-3.3</ele><time>2022-04-13T11:56:07Z</time><name>PT3239</name></trkpt>
<trkpt lat="52.097585" lon="05.651101"><ele>-3.3</ele><time>2022-04-13T11:56:08Z</time><name>PT3240</name></trkpt>
<trkpt lat="52.097598" lon="05.651093"><ele>-3.1</ele><time>2022-04-13T11:56:09Z</time><name>PT3241</name></trkpt>
<trkpt lat="52.097605" lon="05.651089"><ele>-3.2</ele><time>2022-04-13T11:56:10Z</time><name>PT3242</name></trkpt>
<trkpt lat="52.097607" lon="05.651088"><ele>-3.4</ele><time>2022-04-13T11:56:11Z</time><name>PT3243</name></trkpt>
<trkpt lat="52.097610" lon="05.651083"><ele>-3.5</ele><time>2022-04-13T11:56:12Z</time><name>PT3244</name></trkpt>
<trkpt lat="52.097616" lon="05.651080"><ele>-3.6</ele><time>2022-04-13T11:56:13Z</time><name>PT3245</name></trkpt>
<trkpt lat="52.097623" lon="05.651073"><ele>-3.6</ele><time>2022-04-13T11:56:14Z</time><name>PT3246</name></trkpt>
<trkpt lat="52.097632" lon="05.651058"><ele>-3.7</ele><time>2022-04-13T11:56:15Z</time><name>PT3247</name></trkpt>
<trkpt lat="52.097648" lon="05.651052"><ele>-3.6</ele><time>2022-04-13T11:56:16Z</time><name>PT3248</name></trkpt>
<trkpt lat="52.097665" lon="05.651050"><ele>-3.4</ele><time>2022-04-13T11:56:17Z</time><name>PT3249</name></trkpt>
<trkpt lat="52.097676" lon="05.651045"><ele>-3.5</ele><time>2022-04-13T11:56:18Z</time><name>PT3250</name></trkpt>
<trkpt lat="52.097680" lon="05.651043"><ele>-3.3</ele><time>2022-04-13T11:56:19Z</time><name>PT3251</name></trkpt>
<trkpt lat="52.097683" lon="05.651043"><ele>-3.3</ele><time>2022-04-13T11:56:20Z</time><name>PT3252</name></trkpt>
<trkpt lat="52.097695" lon="05.651038"><ele>-3.2</ele><time>2022-04-13T11:56:21Z</time><name>PT3253</name></trkpt>
<trkpt lat="52.097709" lon="05.651027"><ele>-3.1</ele><time>2022-04-13T11:56:22Z</time><name>PT3254</name></trkpt>
<trkpt lat="52.097721" lon="05.651022"><ele>-3</ele><time>2022-04-13T11:56:23Z</time><name>PT3255</name></trkpt>
<trkpt lat="52.097729" lon="05.651018"><ele>-3</ele><time>2022-04-13T11:56:24Z</time><name>PT3256</name></trkpt>
<trkpt lat="52.097742" lon="05.651007"><ele>-2.8</ele><time>2022-04-13T11:56:25Z</time><name>PT3257</name></trkpt>
<trkpt lat="52.097753" lon="05.650996"><ele>-2.6</ele><time>2022-04-13T11:56:26Z</time><name>PT3258</name></trkpt>
<trkpt lat="52.097755" lon="05.650981"><ele>-2.8</ele><time>2022-04-13T11:56:27Z</time><name>PT3259</name></trkpt>
<trkpt lat="52.097754" lon="05.650979"><ele>-3.1</ele><time>2022-04-13T11:56:28Z</time><name>PT3260</name></trkpt>
<trkpt lat="52.097758" lon="05.650979"><ele>-3.1</ele><time>2022-04-13T11:56:29Z</time><name>PT3261</name></trkpt>
<trkpt lat="52.097755" lon="05.650971"><ele>-3.1</ele><time>2022-04-13T11:56:30Z</time><name>PT3262</name></trkpt>
<trkpt lat="52.097757" lon="05.650962"><ele>-3.2</ele><time>2022-04-13T11:56:31Z</time><name>PT3263</name></trkpt>
<trkpt lat="52.097763" lon="05.650948"><ele>-3.1</ele><time>2022-04-13T11:56:32Z</time><name>PT3264</name></trkpt>
<trkpt lat="52.097765" lon="05.650923"><ele>-3.1</ele><time>2022-04-13T11:56:33Z</time><name>PT3265</name></trkpt>
<trkpt lat="52.097772" lon="05.650896"><ele>-3</ele><time>2022-04-13T11:56:34Z</time><name>PT3266</name></trkpt>
<trkpt lat="52.097785" lon="05.650874"><ele>-3</ele><time>2022-04-13T11:56:35Z</time><name>PT3267</name></trkpt>
<trkpt lat="52.097799" lon="05.650856"><ele>-3.1</ele><time>2022-04-13T11:56:36Z</time><name>PT3268</name></trkpt>
<trkpt lat="52.097810" lon="05.650839"><ele>-3.1</ele><time>2022-04-13T11:56:37Z</time><name>PT3269</name></trkpt>
<trkpt lat="52.097817" lon="05.650826"><ele>-3.2</ele><time>2022-04-13T11:56:38Z</time><name>PT3270</name></trkpt>
<trkpt lat="52.097819" lon="05.650817"><ele>-3.4</ele><time>2022-04-13T11:56:39Z</time><name>PT3271</name></trkpt>
<trkpt lat="52.097824" lon="05.650813"><ele>-3.3</ele><time>2022-04-13T11:56:40Z</time><name>PT3272</name></trkpt>
<trkpt lat="52.097829" lon="05.650807"><ele>-3.2</ele><time>2022-04-13T11:56:41Z</time><name>PT3273</name></trkpt>
<trkpt lat="52.097836" lon="05.650787"><ele>-3.1</ele><time>2022-04-13T11:56:42Z</time><name>PT3274</name></trkpt>
<trkpt lat="52.097849" lon="05.650768"><ele>-2.9</ele><time>2022-04-13T11:56:43Z</time><name>PT3275</name></trkpt>
<trkpt lat="52.097864" lon="05.650748"><ele>-2.8</ele><time>2022-04-13T11:56:44Z</time><name>PT3276</name></trkpt>
<trkpt lat="52.097877" lon="05.650734"><ele>-2.7</ele><time>2022-04-13T11:56:45Z</time><name>PT3277</name></trkpt>
<trkpt lat="52.097886" lon="05.650724"><ele>-2.8</ele><time>2022-04-13T11:56:46Z</time><name>PT3278</name></trkpt>
<trkpt lat="52.097891" lon="05.650714"><ele>-2.9</ele><time>2022-04-13T11:56:47Z</time><name>PT3279</name></trkpt>
<trkpt lat="52.097895" lon="05.650706"><ele>-3</ele><time>2022-04-13T11:56:48Z</time><name>PT3280</name></trkpt>
<trkpt lat="52.097900" lon="05.650700"><ele>-2.9</ele><time>2022-04-13T11:56:49Z</time><name>PT3281</name></trkpt>
<trkpt lat="52.097905" lon="05.650688"><ele>-3</ele><time>2022-04-13T11:56:50Z</time><name>PT3282</name></trkpt>
<trkpt lat="52.097913" lon="05.650671"><ele>-2.9</ele><time>2022-04-13T11:56:51Z</time><name>PT3283</name></trkpt>
<trkpt lat="52.097927" lon="05.650654"><ele>-2.7</ele><time>2022-04-13T11:56:52Z</time><name>PT3284</name></trkpt>
<trkpt lat="52.097942" lon="05.650638"><ele>-2.8</ele><time>2022-04-13T11:56:53Z</time><name>PT3285</name></trkpt>
<trkpt lat="52.097956" lon="05.650624"><ele>-2.9</ele><time>2022-04-13T11:56:54Z</time><name>PT3286</name></trkpt>
<trkpt lat="52.097964" lon="05.650614"><ele>-2.9</ele><time>2022-04-13T11:56:55Z</time><name>PT3287</name></trkpt>
<trkpt lat="52.097968" lon="05.650604"><ele>-3</ele><time>2022-04-13T11:56:56Z</time><name>PT3288</name></trkpt>
<trkpt lat="52.097971" lon="05.650598"><ele>-3.1</ele><time>2022-04-13T11:56:57Z</time><name>PT3289</name></trkpt>
<trkpt lat="52.097979" lon="05.650590"><ele>-2.9</ele><time>2022-04-13T11:56:58Z</time><name>PT3290</name></trkpt>
<trkpt lat="52.097990" lon="05.650569"><ele>-2.9</ele><time>2022-04-13T11:56:59Z</time><name>PT3291</name></trkpt>
<trkpt lat="52.098007" lon="05.650553"><ele>-3</ele><time>2022-04-13T11:57:00Z</time><name>PT3292</name></trkpt>
<trkpt lat="52.098021" lon="05.650545"><ele>-3</ele><time>2022-04-13T11:57:01Z</time><name>PT3293</name></trkpt>
<trkpt lat="52.098035" lon="05.650536"><ele>-2.9</ele><time>2022-04-13T11:57:02Z</time><name>PT3294</name></trkpt>
<trkpt lat="52.098045" lon="05.650526"><ele>-2.8</ele><time>2022-04-13T11:57:03Z</time><name>PT3295</name></trkpt>
<trkpt lat="52.098051" lon="05.650518"><ele>-2.7</ele><time>2022-04-13T11:57:04Z</time><name>PT3296</name></trkpt>
<trkpt lat="52.098055" lon="05.650513"><ele>-2.6</ele><time>2022-04-13T11:57:05Z</time><name>PT3297</name></trkpt>
<trkpt lat="52.098055" lon="05.650509"><ele>-2.6</ele><time>2022-04-13T11:57:06Z</time><name>PT3298</name></trkpt>
<trkpt lat="52.098060" lon="05.650498"><ele>-2.6</ele><time>2022-04-13T11:57:07Z</time><name>PT3299</name></trkpt>
<trkpt lat="52.098068" lon="05.650478"><ele>-2.6</ele><time>2022-04-13T11:57:08Z</time><name>PT3300</name></trkpt>
<trkpt lat="52.098077" lon="05.650453"><ele>-2.6</ele><time>2022-04-13T11:57:09Z</time><name>PT3301</name></trkpt>
<trkpt lat="52.098082" lon="05.650433"><ele>-2.6</ele><time>2022-04-13T11:57:10Z</time><name>PT3302</name></trkpt>
<trkpt lat="52.098084" lon="05.650418"><ele>-2.6</ele><time>2022-04-13T11:57:11Z</time><name>PT3303</name></trkpt>
<trkpt lat="52.098084" lon="05.650407"><ele>-2.6</ele><time>2022-04-13T11:57:12Z</time><name>PT3304</name></trkpt>
<trkpt lat="52.098085" lon="05.650396"><ele>-2.6</ele><time>2022-04-13T11:57:13Z</time><name>PT3305</name></trkpt>
<trkpt lat="52.098090" lon="05.650380"><ele>-2.6</ele><time>2022-04-13T11:57:14Z</time><name>PT3306</name></trkpt>
<trkpt lat="52.098096" lon="05.650359"><ele>-2.6</ele><time>2022-04-13T11:57:15Z</time><name>PT3307</name></trkpt>
<trkpt lat="52.098106" lon="05.650335"><ele>-2.6</ele><time>2022-04-13T11:57:16Z</time><name>PT3308</name></trkpt>
<trkpt lat="52.098115" lon="05.650312"><ele>-2.5</ele><time>2022-04-13T11:57:17Z</time><name>PT3309</name></trkpt>
<trkpt lat="52.098128" lon="05.650294"><ele>-2.5</ele><time>2022-04-13T11:57:18Z</time><name>PT3310</name></trkpt>
<trkpt lat="52.098138" lon="05.650280"><ele>-2.4</ele><time>2022-04-13T11:57:19Z</time><name>PT3311</name></trkpt>
<trkpt lat="52.098145" lon="05.650269"><ele>-2.4</ele><time>2022-04-13T11:57:20Z</time><name>PT3312</name></trkpt>
<trkpt lat="52.098146" lon="05.650260"><ele>-2.5</ele><time>2022-04-13T11:57:21Z</time><name>PT3313</name></trkpt>
<trkpt lat="52.098149" lon="05.650253"><ele>-2.4</ele><time>2022-04-13T11:57:22Z</time><name>PT3314</name></trkpt>
<trkpt lat="52.098152" lon="05.650240"><ele>-2.3</ele><time>2022-04-13T11:57:23Z</time><name>PT3315</name></trkpt>
<trkpt lat="52.098155" lon="05.650222"><ele>-2.5</ele><time>2022-04-13T11:57:24Z</time><name>PT3316</name></trkpt>
<trkpt lat="52.098167" lon="05.650206"><ele>-2.6</ele><time>2022-04-13T11:57:25Z</time><name>PT3317</name></trkpt>
<trkpt lat="52.098181" lon="05.650191"><ele>-2.6</ele><time>2022-04-13T11:57:26Z</time><name>PT3318</name></trkpt>
<trkpt lat="52.098189" lon="05.650179"><ele>-2.6</ele><time>2022-04-13T11:57:27Z</time><name>PT3319</name></trkpt>
<trkpt lat="52.098183" lon="05.650164"><ele>-2.6</ele><time>2022-04-13T11:57:28Z</time><name>PT3320</name></trkpt>
<trkpt lat="52.098181" lon="05.650152"><ele>-2.6</ele><time>2022-04-13T11:57:29Z</time><name>PT3321</name></trkpt>
<trkpt lat="52.098185" lon="05.650148"><ele>-2.6</ele><time>2022-04-13T11:57:30Z</time><name>PT3322</name></trkpt>
<trkpt lat="52.098193" lon="05.650129"><ele>-2.5</ele><time>2022-04-13T11:57:31Z</time><name>PT3323</name></trkpt>
<trkpt lat="52.098207" lon="05.650103"><ele>-2.5</ele><time>2022-04-13T11:57:32Z</time><name>PT3324</name></trkpt>
<trkpt lat="52.098215" lon="05.650085"><ele>-2.5</ele><time>2022-04-13T11:57:33Z</time><name>PT3325</name></trkpt>
<trkpt lat="52.098224" lon="05.650071"><ele>-2.5</ele><time>2022-04-13T11:57:34Z</time><name>PT3326</name></trkpt>
<trkpt lat="52.098231" lon="05.650059"><ele>-2.6</ele><time>2022-04-13T11:57:35Z</time><name>PT3327</name></trkpt>
<trkpt lat="52.098236" lon="05.650048"><ele>-2.6</ele><time>2022-04-13T11:57:36Z</time><name>PT3328</name></trkpt>
<trkpt lat="52.098241" lon="05.650035"><ele>-2.6</ele><time>2022-04-13T11:57:37Z</time><name>PT3329</name></trkpt>
<trkpt lat="52.098247" lon="05.650016"><ele>-2.6</ele><time>2022-04-13T11:57:38Z</time><name>PT3330</name></trkpt>
<trkpt lat="52.098256" lon="05.649996"><ele>-2.5</ele><time>2022-04-13T11:57:39Z</time><name>PT3331</name></trkpt>
<trkpt lat="52.098262" lon="05.649982"><ele>-2.5</ele><time>2022-04-13T11:57:40Z</time><name>PT3332</name></trkpt>
<trkpt lat="52.098263" lon="05.649970"><ele>-2.5</ele><time>2022-04-13T11:57:41Z</time><name>PT3333</name></trkpt>
<trkpt lat="52.098264" lon="05.649958"><ele>-2.3</ele><time>2022-04-13T11:57:42Z</time><name>PT3334</name></trkpt>
<trkpt lat="52.098270" lon="05.649951"><ele>-2.2</ele><time>2022-04-13T11:57:43Z</time><name>PT3335</name></trkpt>
<trkpt lat="52.098276" lon="05.649942"><ele>-2.2</ele><time>2022-04-13T11:57:44Z</time><name>PT3336</name></trkpt>
<trkpt lat="52.098284" lon="05.649926"><ele>-2.1</ele><time>2022-04-13T11:57:45Z</time><name>PT3337</name></trkpt>
<trkpt lat="52.098292" lon="05.649914"><ele>-1.9</ele><time>2022-04-13T11:57:46Z</time><name>PT3338</name></trkpt>
<trkpt lat="52.098293" lon="05.649903"><ele>-1.9</ele><time>2022-04-13T11:57:47Z</time><name>PT3339</name></trkpt>
<trkpt lat="52.098289" lon="05.649887"><ele>-1.9</ele><time>2022-04-13T11:57:48Z</time><name>PT3340</name></trkpt>
<trkpt lat="52.098294" lon="05.649873"><ele>-1.9</ele><time>2022-04-13T11:57:49Z</time><name>PT3341</name></trkpt>
<trkpt lat="52.098305" lon="05.649859"><ele>-1.7</ele><time>2022-04-13T11:57:50Z</time><name>PT3342</name></trkpt>
<trkpt lat="52.098316" lon="05.649840"><ele>-1.7</ele><time>2022-04-13T11:57:51Z</time><name>PT3343</name></trkpt>
<trkpt lat="52.098322" lon="05.649825"><ele>-1.5</ele><time>2022-04-13T11:57:52Z</time><name>PT3344</name></trkpt>
<trkpt lat="52.098325" lon="05.649813"><ele>-1.4</ele><time>2022-04-13T11:57:53Z</time><name>PT3345</name></trkpt>
<trkpt lat="52.098326" lon="05.649805"><ele>-1.2</ele><time>2022-04-13T11:57:54Z</time><name>PT3346</name></trkpt>
<trkpt lat="52.098322" lon="05.649789"><ele>-1.4</ele><time>2022-04-13T11:57:55Z</time><name>PT3347</name></trkpt>
<trkpt lat="52.098332" lon="05.649774"><ele>-1.4</ele><time>2022-04-13T11:57:56Z</time><name>PT3348</name></trkpt>
<trkpt lat="52.098332" lon="05.649752"><ele>-1.3</ele><time>2022-04-13T11:57:57Z</time><name>PT3349</name></trkpt>
<trkpt lat="52.098335" lon="05.649732"><ele>-1.6</ele><time>2022-04-13T11:57:58Z</time><name>PT3350</name></trkpt>
<trkpt lat="52.098337" lon="05.649724"><ele>-1.5</ele><time>2022-04-13T11:57:59Z</time><name>PT3351</name></trkpt>
<trkpt lat="52.098356" lon="05.649712"><ele>-1.5</ele><time>2022-04-13T11:58:00Z</time><name>PT3352</name></trkpt>
<trkpt lat="52.098362" lon="05.649699"><ele>-1.6</ele><time>2022-04-13T11:58:01Z</time><name>PT3353</name></trkpt>
<trkpt lat="52.098364" lon="05.649696"><ele>-1.5</ele><time>2022-04-13T11:58:02Z</time><name>PT3354</name></trkpt>
<trkpt lat="52.098366" lon="05.649692"><ele>-1.3</ele><time>2022-04-13T11:58:03Z</time><name>PT3355</name></trkpt>
<trkpt lat="52.098371" lon="05.649678"><ele>-1.2</ele><time>2022-04-13T11:58:04Z</time><name>PT3356</name></trkpt>
<trkpt lat="52.098373" lon="05.649668"><ele>-1</ele><time>2022-04-13T11:58:05Z</time><name>PT3357</name></trkpt>
<trkpt lat="52.098378" lon="05.649665"><ele>0.7</ele><time>2022-04-13T11:58:06Z</time><name>PT3358</name></trkpt>
<trkpt lat="52.098380" lon="05.649652"><ele>0.5</ele><time>2022-04-13T11:58:07Z</time><name>PT3359</name></trkpt>
<trkpt lat="52.098382" lon="05.649629"><ele>0.3</ele><time>2022-04-13T11:58:08Z</time><name>PT3360</name></trkpt>
<trkpt lat="52.098383" lon="05.649616"><ele>0.2</ele><time>2022-04-13T11:58:09Z</time><name>PT3361</name></trkpt>
<trkpt lat="52.098383" lon="05.649615"><ele>0.2</ele><time>2022-04-13T11:58:10Z</time><name>PT3362</name></trkpt>
<trkpt lat="52.098383" lon="05.649601"><ele>0.2</ele><time>2022-04-13T11:58:11Z</time><name>PT3363</name></trkpt>
<trkpt lat="52.098376" lon="05.649579"><ele>0.1</ele><time>2022-04-13T11:58:12Z</time><name>PT3364</name></trkpt>
<trkpt lat="52.098377" lon="05.649569"><ele>0</ele><time>2022-04-13T11:58:13Z</time><name>PT3365</name></trkpt>
<trkpt lat="52.098384" lon="05.649567"><ele>0.1</ele><time>2022-04-13T11:58:14Z</time><name>PT3366</name></trkpt>
<trkpt lat="52.098382" lon="05.649553"><ele>0.4</ele><time>2022-04-13T11:58:15Z</time><name>PT3367</name></trkpt>
<trkpt lat="52.098386" lon="05.649539"><ele>0.5</ele><time>2022-04-13T11:58:16Z</time><name>PT3368</name></trkpt>
<trkpt lat="52.098387" lon="05.649531"><ele>0.6</ele><time>2022-04-13T11:58:17Z</time><name>PT3369</name></trkpt>
<trkpt lat="52.098389" lon="05.649524"><ele>0.6</ele><time>2022-04-13T11:58:18Z</time><name>PT3370</name></trkpt>
<trkpt lat="52.098395" lon="05.649505"><ele>0.6</ele><time>2022-04-13T11:58:19Z</time><name>PT3371</name></trkpt>
<trkpt lat="52.098399" lon="05.649495"><ele>0.6</ele><time>2022-04-13T11:58:20Z</time><name>PT3372</name></trkpt>
<trkpt lat="52.098402" lon="05.649492"><ele>0.7</ele><time>2022-04-13T11:58:21Z</time><name>PT3373</name></trkpt>
<trkpt lat="52.098402" lon="05.649487"><ele>1</ele><time>2022-04-13T11:58:22Z</time><name>PT3374</name></trkpt>
<trkpt lat="52.098403" lon="05.649473"><ele>1.1</ele><time>2022-04-13T11:58:23Z</time><name>PT3375</name></trkpt>
<trkpt lat="52.098408" lon="05.649461"><ele>1.2</ele><time>2022-04-13T11:58:24Z</time><name>PT3376</name></trkpt>
<trkpt lat="52.098410" lon="05.649453"><ele>1.4</ele><time>2022-04-13T11:58:25Z</time><name>PT3377</name></trkpt>
<trkpt lat="52.098407" lon="05.649444"><ele>1.4</ele><time>2022-04-13T11:58:26Z</time><name>PT3378</name></trkpt>
<trkpt lat="52.098410" lon="05.649432"><ele>1.5</ele><time>2022-04-13T11:58:27Z</time><name>PT3379</name></trkpt>
<trkpt lat="52.098411" lon="05.649421"><ele>1.6</ele><time>2022-04-13T11:58:28Z</time><name>PT3380</name></trkpt>
<trkpt lat="52.098409" lon="05.649417"><ele>1.8</ele><time>2022-04-13T11:58:29Z</time><name>PT3381</name></trkpt>
<trkpt lat="52.098407" lon="05.649410"><ele>2</ele><time>2022-04-13T11:58:30Z</time><name>PT3382</name></trkpt>
<trkpt lat="52.098408" lon="05.649400"><ele>2.1</ele><time>2022-04-13T11:58:31Z</time><name>PT3383</name></trkpt>
<trkpt lat="52.098412" lon="05.649388"><ele>2.2</ele><time>2022-04-13T11:58:32Z</time><name>PT3384</name></trkpt>
<trkpt lat="52.098415" lon="05.649381"><ele>2.3</ele><time>2022-04-13T11:58:33Z</time><name>PT3385</name></trkpt>
<trkpt lat="52.098415" lon="05.649382"><ele>2.3</ele><time>2022-04-13T11:58:34Z</time><name>PT3386</name></trkpt>
<trkpt lat="52.098415" lon="05.649369"><ele>2.2</ele><time>2022-04-13T11:58:35Z</time><name>PT3387</name></trkpt>
<trkpt lat="52.098417" lon="05.649356"><ele>2.4</ele><time>2022-04-13T11:58:36Z</time><name>PT3388</name></trkpt>
<trkpt lat="52.098419" lon="05.649347"><ele>2.4</ele><time>2022-04-13T11:58:37Z</time><name>PT3389</name></trkpt>
<trkpt lat="52.098417" lon="05.649328"><ele>2.6</ele><time>2022-04-13T11:58:38Z</time><name>PT3390</name></trkpt>
<trkpt lat="52.098417" lon="05.649312"><ele>2.8</ele><time>2022-04-13T11:58:39Z</time><name>PT3391</name></trkpt>
<trkpt lat="52.098415" lon="05.649301"><ele>3</ele><time>2022-04-13T11:58:40Z</time><name>PT3392</name></trkpt>
<trkpt lat="52.098418" lon="05.649295"><ele>3</ele><time>2022-04-13T11:58:41Z</time><name>PT3393</name></trkpt>
<trkpt lat="52.098421" lon="05.649292"><ele>2.9</ele><time>2022-04-13T11:58:42Z</time><name>PT3394</name></trkpt>
<trkpt lat="52.098425" lon="05.649289"><ele>3.1</ele><time>2022-04-13T11:58:43Z</time><name>PT3395</name></trkpt>
<trkpt lat="52.098425" lon="05.649289"><ele>3.1</ele><time>2022-04-13T11:58:44Z</time><name>PT3396</name></trkpt>
<trkpt lat="52.098430" lon="05.649270"><ele>3.3</ele><time>2022-04-13T11:58:45Z</time><name>PT3397</name></trkpt>
<trkpt lat="52.098443" lon="05.649251"><ele>3.4</ele><time>2022-04-13T11:58:46Z</time><name>PT3398</name></trkpt>
<trkpt lat="52.098450" lon="05.649239"><ele>3.5</ele><time>2022-04-13T11:58:47Z</time><name>PT3399</name></trkpt>
<trkpt lat="52.098454" lon="05.649235"><ele>3.7</ele><time>2022-04-13T11:58:48Z</time><name>PT3400</name></trkpt>
<trkpt lat="52.098454" lon="05.649225"><ele>3.9</ele><time>2022-04-13T11:58:49Z</time><name>PT3401</name></trkpt>
<trkpt lat="52.098459" lon="05.649215"><ele>3.9</ele><time>2022-04-13T11:58:50Z</time><name>PT3402</name></trkpt>
<trkpt lat="52.098464" lon="05.649207"><ele>4</ele><time>2022-04-13T11:58:51Z</time><name>PT3403</name></trkpt>
<trkpt lat="52.098469" lon="05.649204"><ele>4.1</ele><time>2022-04-13T11:58:52Z</time><name>PT3404</name></trkpt>
<trkpt lat="52.098470" lon="05.649192"><ele>4</ele><time>2022-04-13T11:58:53Z</time><name>PT3405</name></trkpt>
<trkpt lat="52.098471" lon="05.649180"><ele>4.1</ele><time>2022-04-13T11:58:54Z</time><name>PT3406</name></trkpt>
<trkpt lat="52.098471" lon="05.649172"><ele>4.4</ele><time>2022-04-13T11:58:55Z</time><name>PT3407</name></trkpt>
<trkpt lat="52.098474" lon="05.649166"><ele>4.4</ele><time>2022-04-13T11:58:56Z</time><name>PT3408</name></trkpt>
<trkpt lat="52.098481" lon="05.649153"><ele>4.5</ele><time>2022-04-13T11:58:57Z</time><name>PT3409</name></trkpt>
<trkpt lat="52.098486" lon="05.649140"><ele>4.5</ele><time>2022-04-13T11:58:58Z</time><name>PT3410</name></trkpt>
<trkpt lat="52.098489" lon="05.649133"><ele>4.6</ele><time>2022-04-13T11:58:59Z</time><name>PT3411</name></trkpt>
<trkpt lat="52.098514" lon="05.649134"><ele>4.6</ele><time>2022-04-13T11:59:00Z</time><name>PT3412</name></trkpt>
<trkpt lat="52.098529" lon="05.649124"><ele>4.8</ele><time>2022-04-13T11:59:01Z</time><name>PT3413</name></trkpt>
<trkpt lat="52.098530" lon="05.649114"><ele>4.8</ele><time>2022-04-13T11:59:02Z</time><name>PT3414</name></trkpt>
<trkpt lat="52.098530" lon="05.649110"><ele>5.1</ele><time>2022-04-13T11:59:03Z</time><name>PT3415</name></trkpt>
<trkpt lat="52.098521" lon="05.649092"><ele>5.2</ele><time>2022-04-13T11:59:04Z</time><name>PT3416</name></trkpt>
<trkpt lat="52.098525" lon="05.649079"><ele>5.3</ele><time>2022-04-13T11:59:05Z</time><name>PT3417</name></trkpt>
<trkpt lat="52.098526" lon="05.649069"><ele>5.5</ele><time>2022-04-13T11:59:06Z</time><name>PT3418</name></trkpt>
<trkpt lat="52.098523" lon="05.649061"><ele>5.5</ele><time>2022-04-13T11:59:07Z</time><name>PT3419</name></trkpt>
<trkpt lat="52.098526" lon="05.649048"><ele>5.6</ele><time>2022-04-13T11:59:08Z</time><name>PT3420</name></trkpt>
<trkpt lat="52.098527" lon="05.649037"><ele>5.7</ele><time>2022-04-13T11:59:09Z</time><name>PT3421</name></trkpt>
<trkpt lat="52.098525" lon="05.649035"><ele>5.9</ele><time>2022-04-13T11:59:10Z</time><name>PT3422</name></trkpt>
<trkpt lat="52.098534" lon="05.649024"><ele>6.1</ele><time>2022-04-13T11:59:11Z</time><name>PT3423</name></trkpt>
<trkpt lat="52.098541" lon="05.649010"><ele>6.1</ele><time>2022-04-13T11:59:12Z</time><name>PT3424</name></trkpt>
<trkpt lat="52.098542" lon="05.649003"><ele>6.1</ele><time>2022-04-13T11:59:13Z</time><name>PT3425</name></trkpt>
<trkpt lat="52.098546" lon="05.648990"><ele>6.3</ele><time>2022-04-13T11:59:14Z</time><name>PT3426</name></trkpt>
<trkpt lat="52.098546" lon="05.648979"><ele>6.4</ele><time>2022-04-13T11:59:15Z</time><name>PT3427</name></trkpt>
<trkpt lat="52.098542" lon="05.648970"><ele>6.4</ele><time>2022-04-13T11:59:16Z</time><name>PT3428</name></trkpt>
<trkpt lat="52.098550" lon="05.648956"><ele>6.7</ele><time>2022-04-13T11:59:17Z</time><name>PT3429</name></trkpt>
<trkpt lat="52.098556" lon="05.648946"><ele>6.9</ele><time>2022-04-13T11:59:18Z</time><name>PT3430</name></trkpt>
<trkpt lat="52.098557" lon="05.648934"><ele>7.1</ele><time>2022-04-13T11:59:19Z</time><name>PT3431</name></trkpt>
<trkpt lat="52.098558" lon="05.648924"><ele>7.4</ele><time>2022-04-13T11:59:20Z</time><name>PT3432</name></trkpt>
<trkpt lat="52.098556" lon="05.648915"><ele>7.5</ele><time>2022-04-13T11:59:21Z</time><name>PT3433</name></trkpt>
<trkpt lat="52.098561" lon="05.648897"><ele>7.8</ele><time>2022-04-13T11:59:22Z</time><name>PT3434</name></trkpt>
<trkpt lat="52.098564" lon="05.648885"><ele>7.9</ele><time>2022-04-13T11:59:23Z</time><name>PT3435</name></trkpt>
<trkpt lat="52.098563" lon="05.648875"><ele>7.9</ele><time>2022-04-13T11:59:24Z</time><name>PT3436</name></trkpt>
<trkpt lat="52.098565" lon="05.648867"><ele>7.9</ele><time>2022-04-13T11:59:25Z</time><name>PT3437</name></trkpt>
<trkpt lat="52.098567" lon="05.648860"><ele>8.1</ele><time>2022-04-13T11:59:26Z</time><name>PT3438</name></trkpt>
<trkpt lat="52.098576" lon="05.648846"><ele>8.4</ele><time>2022-04-13T11:59:27Z</time><name>PT3439</name></trkpt>
<trkpt lat="52.098579" lon="05.648835"><ele>8.6</ele><time>2022-04-13T11:59:28Z</time><name>PT3440</name></trkpt>
<trkpt lat="52.098588" lon="05.648818"><ele>8.8</ele><time>2022-04-13T11:59:29Z</time><name>PT3441</name></trkpt>
<trkpt lat="52.098594" lon="05.648806"><ele>8.9</ele><time>2022-04-13T11:59:30Z</time><name>PT3442</name></trkpt>
<trkpt lat="52.098598" lon="05.648806"><ele>9.2</ele><time>2022-04-13T11:59:31Z</time><name>PT3443</name></trkpt>
<trkpt lat="52.098601" lon="05.648801"><ele>9.5</ele><time>2022-04-13T11:59:32Z</time><name>PT3444</name></trkpt>
<trkpt lat="52.098603" lon="05.648797"><ele>9.8</ele><time>2022-04-13T11:59:33Z</time><name>PT3445</name></trkpt>
<trkpt lat="52.098603" lon="05.648781"><ele>10.2</ele><time>2022-04-13T11:59:34Z</time><name>PT3446</name></trkpt>
<trkpt lat="52.098605" lon="05.648770"><ele>10.2</ele><time>2022-04-13T11:59:35Z</time><name>PT3447</name></trkpt>
<trkpt lat="52.098604" lon="05.648760"><ele>10.4</ele><time>2022-04-13T11:59:36Z</time><name>PT3448</name></trkpt>
<trkpt lat="52.098606" lon="05.648750"><ele>10.6</ele><time>2022-04-13T11:59:37Z</time><name>PT3449</name></trkpt>
<trkpt lat="52.098610" lon="05.648739"><ele>10.6</ele><time>2022-04-13T11:59:38Z</time><name>PT3450</name></trkpt>
<trkpt lat="52.098612" lon="05.648721"><ele>10.7</ele><time>2022-04-13T11:59:39Z</time><name>PT3451</name></trkpt>
<trkpt lat="52.098616" lon="05.648709"><ele>10.9</ele><time>2022-04-13T11:59:40Z</time><name>PT3452</name></trkpt>
<trkpt lat="52.098619" lon="05.648702"><ele>11.1</ele><time>2022-04-13T11:59:41Z</time><name>PT3453</name></trkpt>
<trkpt lat="52.098622" lon="05.648685"><ele>11.3</ele><time>2022-04-13T11:59:42Z</time><name>PT3454</name></trkpt>
<trkpt lat="52.098625" lon="05.648673"><ele>11.5</ele><time>2022-04-13T11:59:43Z</time><name>PT3455</name></trkpt>
<trkpt lat="52.098623" lon="05.648661"><ele>11.7</ele><time>2022-04-13T11:59:44Z</time><name>PT3456</name></trkpt>
<trkpt lat="52.098630" lon="05.648651"><ele>11.8</ele><time>2022-04-13T11:59:45Z</time><name>PT3457</name></trkpt>
<trkpt lat="52.098634" lon="05.648645"><ele>11.8</ele><time>2022-04-13T11:59:46Z</time><name>PT3458</name></trkpt>
<trkpt lat="52.098631" lon="05.648632"><ele>12</ele><time>2022-04-13T11:59:47Z</time><name>PT3459</name></trkpt>
<trkpt lat="52.098635" lon="05.648620"><ele>12.2</ele><time>2022-04-13T11:59:48Z</time><name>PT3460</name></trkpt>
<trkpt lat="52.098640" lon="05.648613"><ele>12.4</ele><time>2022-04-13T11:59:49Z</time><name>PT3461</name></trkpt>
<trkpt lat="52.098648" lon="05.648597"><ele>12.5</ele><time>2022-04-13T11:59:50Z</time><name>PT3462</name></trkpt>
<trkpt lat="52.098653" lon="05.648584"><ele>12.8</ele><time>2022-04-13T11:59:51Z</time><name>PT3463</name></trkpt>
<trkpt lat="52.098654" lon="05.648582"><ele>13</ele><time>2022-04-13T11:59:52Z</time><name>PT3464</name></trkpt>
<trkpt lat="52.098657" lon="05.648581"><ele>13</ele><time>2022-04-13T11:59:53Z</time><name>PT3465</name></trkpt>
<trkpt lat="52.098658" lon="05.648578"><ele>13</ele><time>2022-04-13T11:59:54Z</time><name>PT3466</name></trkpt>
<trkpt lat="52.098663" lon="05.648563"><ele>12.9</ele><time>2022-04-13T11:59:55Z</time><name>PT3467</name></trkpt>
<trkpt lat="52.098666" lon="05.648552"><ele>12.8</ele><time>2022-04-13T11:59:56Z</time><name>PT3468</name></trkpt>
<trkpt lat="52.098666" lon="05.648537"><ele>12.7</ele><time>2022-04-13T11:59:57Z</time><name>PT3469</name></trkpt>
<trkpt lat="52.098665" lon="05.648522"><ele>12.7</ele><time>2022-04-13T11:59:58Z</time><name>PT3470</name></trkpt>
<trkpt lat="52.098660" lon="05.648505"><ele>12.8</ele><time>2022-04-13T11:59:59Z</time><name>PT3471</name></trkpt>
<trkpt lat="52.098658" lon="05.648484"><ele>12.8</ele><time>2022-04-13T12:00:00Z</time><name>PT3472</name></trkpt>
<trkpt lat="52.098656" lon="05.648467"><ele>12.9</ele><time>2022-04-13T12:00:01Z</time><name>PT3473</name></trkpt>
<trkpt lat="52.098646" lon="05.648455"><ele>12.9</ele><time>2022-04-13T12:00:02Z</time><name>PT3474</name></trkpt>
<trkpt lat="52.098644" lon="05.648446"><ele>13</ele><time>2022-04-13T12:00:03Z</time><name>PT3475</name></trkpt>
<trkpt lat="52.098648" lon="05.648439"><ele>12.9</ele><time>2022-04-13T12:00:04Z</time><name>PT3476</name></trkpt>
<trkpt lat="52.098652" lon="05.648429"><ele>12.9</ele><time>2022-04-13T12:00:05Z</time><name>PT3477</name></trkpt>
<trkpt lat="52.098654" lon="05.648423"><ele>12.8</ele><time>2022-04-13T12:00:06Z</time><name>PT3478</name></trkpt>
<trkpt lat="52.098654" lon="05.648420"><ele>12.9</ele><time>2022-04-13T12:00:07Z</time><name>PT3479</name></trkpt>
<trkpt lat="52.098655" lon="05.648420"><ele>12.8</ele><time>2022-04-13T12:00:08Z</time><name>PT3480</name></trkpt>
<trkpt lat="52.098656" lon="05.648415"><ele>12.7</ele><time>2022-04-13T12:00:09Z</time><name>PT3481</name></trkpt>
<trkpt lat="52.098658" lon="05.648413"><ele>12.6</ele><time>2022-04-13T12:00:10Z</time><name>PT3482</name></trkpt>
<trkpt lat="52.098659" lon="05.648417"><ele>12.7</ele><time>2022-04-13T12:00:11Z</time><name>PT3483</name></trkpt>
<trkpt lat="52.098662" lon="05.648403"><ele>12.9</ele><time>2022-04-13T12:00:14Z</time><name>PT3484</name></trkpt>
<trkpt lat="52.098670" lon="05.648381"><ele>13.1</ele><time>2022-04-13T12:00:15Z</time><name>PT3485</name></trkpt>
<trkpt lat="52.098673" lon="05.648362"><ele>13</ele><time>2022-04-13T12:00:16Z</time><name>PT3486</name></trkpt>
<trkpt lat="52.098673" lon="05.648352"><ele>12.9</ele><time>2022-04-13T12:00:17Z</time><name>PT3487</name></trkpt>
<trkpt lat="52.098674" lon="05.648342"><ele>12.8</ele><time>2022-04-13T12:00:18Z</time><name>PT3488</name></trkpt>
<trkpt lat="52.098680" lon="05.648329"><ele>12.8</ele><time>2022-04-13T12:00:19Z</time><name>PT3489</name></trkpt>
<trkpt lat="52.098683" lon="05.648319"><ele>12.9</ele><time>2022-04-13T12:00:20Z</time><name>PT3490</name></trkpt>
<trkpt lat="52.098680" lon="05.648310"><ele>13</ele><time>2022-04-13T12:00:21Z</time><name>PT3491</name></trkpt>
<trkpt lat="52.098682" lon="05.648295"><ele>13</ele><time>2022-04-13T12:00:22Z</time><name>PT3492</name></trkpt>
<trkpt lat="52.098686" lon="05.648283"><ele>13</ele><time>2022-04-13T12:00:23Z</time><name>PT3493</name></trkpt>
<trkpt lat="52.098689" lon="05.648267"><ele>13</ele><time>2022-04-13T12:00:24Z</time><name>PT3494</name></trkpt>
<trkpt lat="52.098697" lon="05.648250"><ele>12.9</ele><time>2022-04-13T12:00:25Z</time><name>PT3495</name></trkpt>
<trkpt lat="52.098707" lon="05.648236"><ele>12.9</ele><time>2022-04-13T12:00:26Z</time><name>PT3496</name></trkpt>
<trkpt lat="52.098711" lon="05.648226"><ele>12.9</ele><time>2022-04-13T12:00:27Z</time><name>PT3497</name></trkpt>
<trkpt lat="52.098711" lon="05.648225"><ele>12.9</ele><time>2022-04-13T12:00:28Z</time><name>PT3498</name></trkpt>
<trkpt lat="52.098716" lon="05.648221"><ele>12.9</ele><time>2022-04-13T12:00:29Z</time><name>PT3499</name></trkpt>
<trkpt lat="52.098722" lon="05.648204"><ele>13.1</ele><time>2022-04-13T12:00:30Z</time><name>PT3500</name></trkpt>
<trkpt lat="52.098732" lon="05.648184"><ele>13.2</ele><time>2022-04-13T12:00:31Z</time><name>PT3501</name></trkpt>
<trkpt lat="52.098744" lon="05.648168"><ele>13</ele><time>2022-04-13T12:00:32Z</time><name>PT3502</name></trkpt>
<trkpt lat="52.098748" lon="05.648160"><ele>12.8</ele><time>2022-04-13T12:00:33Z</time><name>PT3503</name></trkpt>
<trkpt lat="52.098751" lon="05.648150"><ele>12.8</ele><time>2022-04-13T12:00:34Z</time><name>PT3504</name></trkpt>
<trkpt lat="52.098748" lon="05.648138"><ele>12.9</ele><time>2022-04-13T12:00:35Z</time><name>PT3505</name></trkpt>
<trkpt lat="52.098748" lon="05.648124"><ele>12.8</ele><time>2022-04-13T12:00:36Z</time><name>PT3506</name></trkpt>
<trkpt lat="52.098764" lon="05.648112"><ele>12.8</ele><time>2022-04-13T12:00:37Z</time><name>PT3507</name></trkpt>
<trkpt lat="52.098772" lon="05.648098"><ele>13</ele><time>2022-04-13T12:00:38Z</time><name>PT3508</name></trkpt>
<trkpt lat="52.098776" lon="05.648082"><ele>13.1</ele><time>2022-04-13T12:00:39Z</time><name>PT3509</name></trkpt>
<trkpt lat="52.098777" lon="05.648070"><ele>13</ele><time>2022-04-13T12:00:40Z</time><name>PT3510</name></trkpt>
<trkpt lat="52.098780" lon="05.648058"><ele>13</ele><time>2022-04-13T12:00:41Z</time><name>PT3511</name></trkpt>
<trkpt lat="52.098783" lon="05.648044"><ele>13.1</ele><time>2022-04-13T12:00:42Z</time><name>PT3512</name></trkpt>
<trkpt lat="52.098795" lon="05.648034"><ele>13.2</ele><time>2022-04-13T12:00:43Z</time><name>PT3513</name></trkpt>
<trkpt lat="52.098794" lon="05.648025"><ele>13.1</ele><time>2022-04-13T12:00:44Z</time><name>PT3514</name></trkpt>
<trkpt lat="52.098788" lon="05.648021"><ele>13.1</ele><time>2022-04-13T12:00:45Z</time><name>PT3515</name></trkpt>
<trkpt lat="52.098789" lon="05.648013"><ele>13</ele><time>2022-04-13T12:00:46Z</time><name>PT3516</name></trkpt>
<trkpt lat="52.098795" lon="05.648005"><ele>13.1</ele><time>2022-04-13T12:00:47Z</time><name>PT3517</name></trkpt>
<trkpt lat="52.098801" lon="05.647997"><ele>13</ele><time>2022-04-13T12:00:48Z</time><name>PT3518</name></trkpt>
<trkpt lat="52.098803" lon="05.647984"><ele>13.2</ele><time>2022-04-13T12:00:49Z</time><name>PT3519</name></trkpt>
<trkpt lat="52.098810" lon="05.647964"><ele>13</ele><time>2022-04-13T12:00:50Z</time><name>PT3520</name></trkpt>
<trkpt lat="52.098827" lon="05.647927"><ele>13.4</ele><time>2022-04-13T12:00:52Z</time><name>PT3521</name></trkpt>
<trkpt lat="52.098833" lon="05.647910"><ele>13.4</ele><time>2022-04-13T12:00:53Z</time><name>PT3522</name></trkpt>
<trkpt lat="52.098836" lon="05.647896"><ele>13.4</ele><time>2022-04-13T12:00:54Z</time><name>PT3523</name></trkpt>
<trkpt lat="52.098835" lon="05.647887"><ele>13.5</ele><time>2022-04-13T12:00:55Z</time><name>PT3524</name></trkpt>
<trkpt lat="52.098827" lon="05.647867"><ele>13.4</ele><time>2022-04-13T12:00:56Z</time><name>PT3525</name></trkpt>
<trkpt lat="52.098832" lon="05.647840"><ele>13.2</ele><time>2022-04-13T12:00:57Z</time><name>PT3526</name></trkpt>
<trkpt lat="52.098829" lon="05.647817"><ele>13.4</ele><time>2022-04-13T12:00:58Z</time><name>PT3527</name></trkpt>
<trkpt lat="52.098831" lon="05.647797"><ele>13.3</ele><time>2022-04-13T12:00:59Z</time><name>PT3528</name></trkpt>
<trkpt lat="52.098830" lon="05.647783"><ele>13.4</ele><time>2022-04-13T12:01:00Z</time><name>PT3529</name></trkpt>
<trkpt lat="52.098824" lon="05.647773"><ele>13.4</ele><time>2022-04-13T12:01:01Z</time><name>PT3530</name></trkpt>
<trkpt lat="52.098818" lon="05.647762"><ele>13.5</ele><time>2022-04-13T12:01:02Z</time><name>PT3531</name></trkpt>
<trkpt lat="52.098815" lon="05.647738"><ele>13.2</ele><time>2022-04-13T12:01:03Z</time><name>PT3532</name></trkpt>
<trkpt lat="52.098810" lon="05.647709"><ele>13.2</ele><time>2022-04-13T12:01:04Z</time><name>PT3533</name></trkpt>
<trkpt lat="52.098805" lon="05.647686"><ele>13.2</ele><time>2022-04-13T12:01:05Z</time><name>PT3534</name></trkpt>
<trkpt lat="52.098805" lon="05.647672"><ele>13.2</ele><time>2022-04-13T12:01:06Z</time><name>PT3535</name></trkpt>
<trkpt lat="52.098806" lon="05.647662"><ele>12.9</ele><time>2022-04-13T12:01:07Z</time><name>PT3536</name></trkpt>
<trkpt lat="52.098805" lon="05.647647"><ele>12.9</ele><time>2022-04-13T12:01:08Z</time><name>PT3537</name></trkpt>
<trkpt lat="52.098804" lon="05.647633"><ele>13</ele><time>2022-04-13T12:01:09Z</time><name>PT3538</name></trkpt>
<trkpt lat="52.098802" lon="05.647620"><ele>12.8</ele><time>2022-04-13T12:01:10Z</time><name>PT3539</name></trkpt>
<trkpt lat="52.098800" lon="05.647605"><ele>12.8</ele><time>2022-04-13T12:01:11Z</time><name>PT3540</name></trkpt>
<trkpt lat="52.098800" lon="05.647595"><ele>12.8</ele><time>2022-04-13T12:01:12Z</time><name>PT3541</name></trkpt>
<trkpt lat="52.098798" lon="05.647587"><ele>12.8</ele><time>2022-04-13T12:01:13Z</time><name>PT3542</name></trkpt>
<trkpt lat="52.098793" lon="05.647576"><ele>12.7</ele><time>2022-04-13T12:01:14Z</time><name>PT3543</name></trkpt>
<trkpt lat="52.098785" lon="05.647563"><ele>12.7</ele><time>2022-04-13T12:01:15Z</time><name>PT3544</name></trkpt>
<trkpt lat="52.098780" lon="05.647558"><ele>12.6</ele><time>2022-04-13T12:01:16Z</time><name>PT3545</name></trkpt>
<trkpt lat="52.098776" lon="05.647551"><ele>12.6</ele><time>2022-04-13T12:01:17Z</time><name>PT3546</name></trkpt>
<trkpt lat="52.098772" lon="05.647545"><ele>12.7</ele><time>2022-04-13T12:01:18Z</time><name>PT3547</name></trkpt>
<trkpt lat="52.098774" lon="05.647541"><ele>12.8</ele><time>2022-04-13T12:01:24Z</time><name>PT3548</name></trkpt>
<trkpt lat="52.098772" lon="05.647528"><ele>12.8</ele><time>2022-04-13T12:01:25Z</time><name>PT3549</name></trkpt>
<trkpt lat="52.098771" lon="05.647520"><ele>12.8</ele><time>2022-04-13T12:01:26Z</time><name>PT3550</name></trkpt>
<trkpt lat="52.098771" lon="05.647531"><ele>12.7</ele><time>2022-04-13T12:01:27Z</time><name>PT3551</name></trkpt>
<trkpt lat="52.098773" lon="05.647526"><ele>12.8</ele><time>2022-04-13T12:01:28Z</time><name>PT3552</name></trkpt>
<trkpt lat="52.098773" lon="05.647516"><ele>12.6</ele><time>2022-04-13T12:01:29Z</time><name>PT3553</name></trkpt>
<trkpt lat="52.098778" lon="05.647507"><ele>12.5</ele><time>2022-04-13T12:01:30Z</time><name>PT3554</name></trkpt>
<trkpt lat="52.098782" lon="05.647503"><ele>12.5</ele><time>2022-04-13T12:01:31Z</time><name>PT3555</name></trkpt>
<trkpt lat="52.098786" lon="05.647498"><ele>12.7</ele><time>2022-04-13T12:01:32Z</time><name>PT3556</name></trkpt>
<trkpt lat="52.098793" lon="05.647477"><ele>12.7</ele><time>2022-04-13T12:01:33Z</time><name>PT3557</name></trkpt>
<trkpt lat="52.098790" lon="05.647451"><ele>12.7</ele><time>2022-04-13T12:01:34Z</time><name>PT3558</name></trkpt>
<trkpt lat="52.098800" lon="05.647442"><ele>12.7</ele><time>2022-04-13T12:01:35Z</time><name>PT3559</name></trkpt>
<trkpt lat="52.098824" lon="05.647444"><ele>12.8</ele><time>2022-04-13T12:01:36Z</time><name>PT3560</name></trkpt>
<trkpt lat="52.098829" lon="05.647444"><ele>12.8</ele><time>2022-04-13T12:01:37Z</time><name>PT3561</name></trkpt>
<trkpt lat="52.098834" lon="05.647442"><ele>12.7</ele><time>2022-04-13T12:01:38Z</time><name>PT3562</name></trkpt>
<trkpt lat="52.098842" lon="05.647439"><ele>12.7</ele><time>2022-04-13T12:01:39Z</time><name>PT3563</name></trkpt>
<trkpt lat="52.098852" lon="05.647435"><ele>12.9</ele><time>2022-04-13T12:01:40Z</time><name>PT3564</name></trkpt>
<trkpt lat="52.098869" lon="05.647431"><ele>12.8</ele><time>2022-04-13T12:01:41Z</time><name>PT3565</name></trkpt>
<trkpt lat="52.098878" lon="05.647429"><ele>12.9</ele><time>2022-04-13T12:01:42Z</time><name>PT3566</name></trkpt>
<trkpt lat="52.098884" lon="05.647426"><ele>13</ele><time>2022-04-13T12:01:43Z</time><name>PT3567</name></trkpt>
<trkpt lat="52.098895" lon="05.647421"><ele>13</ele><time>2022-04-13T12:01:44Z</time><name>PT3568</name></trkpt>
<trkpt lat="52.098902" lon="05.647413"><ele>12.8</ele><time>2022-04-13T12:01:45Z</time><name>PT3569</name></trkpt>
<trkpt lat="52.098911" lon="05.647403"><ele>12.8</ele><time>2022-04-13T12:01:46Z</time><name>PT3570</name></trkpt>
<trkpt lat="52.098917" lon="05.647398"><ele>12.9</ele><time>2022-04-13T12:01:47Z</time><name>PT3571</name></trkpt>
<trkpt lat="52.098922" lon="05.647390"><ele>12.8</ele><time>2022-04-13T12:01:48Z</time><name>PT3572</name></trkpt>
<trkpt lat="52.098931" lon="05.647389"><ele>12.8</ele><time>2022-04-13T12:01:49Z</time><name>PT3573</name></trkpt>
<trkpt lat="52.098938" lon="05.647386"><ele>12.9</ele><time>2022-04-13T12:01:50Z</time><name>PT3574</name></trkpt>
<trkpt lat="52.098947" lon="05.647383"><ele>12.8</ele><time>2022-04-13T12:01:51Z</time><name>PT3575</name></trkpt>
<trkpt lat="52.098961" lon="05.647380"><ele>12.8</ele><time>2022-04-13T12:01:52Z</time><name>PT3576</name></trkpt>
<trkpt lat="52.098970" lon="05.647377"><ele>12.9</ele><time>2022-04-13T12:01:53Z</time><name>PT3577</name></trkpt>
<trkpt lat="52.098975" lon="05.647368"><ele>13</ele><time>2022-04-13T12:01:54Z</time><name>PT3578</name></trkpt>
<trkpt lat="52.098982" lon="05.647361"><ele>13</ele><time>2022-04-13T12:01:55Z</time><name>PT3579</name></trkpt>
<trkpt lat="52.098990" lon="05.647352"><ele>13</ele><time>2022-04-13T12:01:56Z</time><name>PT3580</name></trkpt>
<trkpt lat="52.099000" lon="05.647344"><ele>13</ele><time>2022-04-13T12:01:57Z</time><name>PT3581</name></trkpt>
<trkpt lat="52.099010" lon="05.647337"><ele>13.2</ele><time>2022-04-13T12:01:58Z</time><name>PT3582</name></trkpt>
<trkpt lat="52.099022" lon="05.647331"><ele>13.2</ele><time>2022-04-13T12:01:59Z</time><name>PT3583</name></trkpt>
<trkpt lat="52.099031" lon="05.647330"><ele>13.2</ele><time>2022-04-13T12:02:00Z</time><name>PT3584</name></trkpt>
<trkpt lat="52.099042" lon="05.647322"><ele>13.1</ele><time>2022-04-13T12:02:01Z</time><name>PT3585</name></trkpt>
<trkpt lat="52.099055" lon="05.647312"><ele>13.2</ele><time>2022-04-13T12:02:02Z</time><name>PT3586</name></trkpt>
<trkpt lat="52.099066" lon="05.647310"><ele>13.1</ele><time>2022-04-13T12:02:03Z</time><name>PT3587</name></trkpt>
<trkpt lat="52.099072" lon="05.647307"><ele>13</ele><time>2022-04-13T12:02:04Z</time><name>PT3588</name></trkpt>
<trkpt lat="52.099084" lon="05.647302"><ele>12.8</ele><time>2022-04-13T12:02:05Z</time><name>PT3589</name></trkpt>
<trkpt lat="52.099093" lon="05.647297"><ele>12.8</ele><time>2022-04-13T12:02:06Z</time><name>PT3590</name></trkpt>
<trkpt lat="52.099100" lon="05.647290"><ele>12.7</ele><time>2022-04-13T12:02:07Z</time><name>PT3591</name></trkpt>
<trkpt lat="52.099105" lon="05.647285"><ele>12.7</ele><time>2022-04-13T12:02:08Z</time><name>PT3592</name></trkpt>
<trkpt lat="52.099114" lon="05.647283"><ele>12.8</ele><time>2022-04-13T12:02:09Z</time><name>PT3593</name></trkpt>
<trkpt lat="52.099124" lon="05.647271"><ele>13</ele><time>2022-04-13T12:02:10Z</time><name>PT3594</name></trkpt>
<trkpt lat="52.099137" lon="05.647264"><ele>13.2</ele><time>2022-04-13T12:02:11Z</time><name>PT3595</name></trkpt>
<trkpt lat="52.099145" lon="05.647259"><ele>13.2</ele><time>2022-04-13T12:02:12Z</time><name>PT3596</name></trkpt>
<trkpt lat="52.099153" lon="05.647255"><ele>13.2</ele><time>2022-04-13T12:02:13Z</time><name>PT3597</name></trkpt>
<trkpt lat="52.099160" lon="05.647249"><ele>13.1</ele><time>2022-04-13T12:02:14Z</time><name>PT3598</name></trkpt>
<trkpt lat="52.099170" lon="05.647244"><ele>13.1</ele><time>2022-04-13T12:02:15Z</time><name>PT3599</name></trkpt>
<trkpt lat="52.099186" lon="05.647240"><ele>13.1</ele><time>2022-04-13T12:02:16Z</time><name>PT3600</name></trkpt>
<trkpt lat="52.099196" lon="05.647235"><ele>13.1</ele><time>2022-04-13T12:02:17Z</time><name>PT3601</name></trkpt>
<trkpt lat="52.099207" lon="05.647230"><ele>13.2</ele><time>2022-04-13T12:02:18Z</time><name>PT3602</name></trkpt>
<trkpt lat="52.099219" lon="05.647222"><ele>13.3</ele><time>2022-04-13T12:02:19Z</time><name>PT3603</name></trkpt>
<trkpt lat="52.099224" lon="05.647218"><ele>13.3</ele><time>2022-04-13T12:02:20Z</time><name>PT3604</name></trkpt>
<trkpt lat="52.099228" lon="05.647216"><ele>13.4</ele><time>2022-04-13T12:02:21Z</time><name>PT3605</name></trkpt>
<trkpt lat="52.099237" lon="05.647213"><ele>13.4</ele><time>2022-04-13T12:02:22Z</time><name>PT3606</name></trkpt>
<trkpt lat="52.099247" lon="05.647210"><ele>13.3</ele><time>2022-04-13T12:02:23Z</time><name>PT3607</name></trkpt>
<trkpt lat="52.099256" lon="05.647206"><ele>13.4</ele><time>2022-04-13T12:02:24Z</time><name>PT3608</name></trkpt>
<trkpt lat="52.099261" lon="05.647202"><ele>13.5</ele><time>2022-04-13T12:02:25Z</time><name>PT3609</name></trkpt>
<trkpt lat="52.099266" lon="05.647201"><ele>13.4</ele><time>2022-04-13T12:02:26Z</time><name>PT3610</name></trkpt>
<trkpt lat="52.099269" lon="05.647199"><ele>13.6</ele><time>2022-04-13T12:02:27Z</time><name>PT3611</name></trkpt>
<trkpt lat="52.099276" lon="05.647191"><ele>13.6</ele><time>2022-04-13T12:02:28Z</time><name>PT3612</name></trkpt>
<trkpt lat="52.099286" lon="05.647184"><ele>13.6</ele><time>2022-04-13T12:02:29Z</time><name>PT3613</name></trkpt>
<trkpt lat="52.099297" lon="05.647175"><ele>13.6</ele><time>2022-04-13T12:02:30Z</time><name>PT3614</name></trkpt>
<trkpt lat="52.099305" lon="05.647166"><ele>13.6</ele><time>2022-04-13T12:02:31Z</time><name>PT3615</name></trkpt>
<trkpt lat="52.099316" lon="05.647162"><ele>13.6</ele><time>2022-04-13T12:02:32Z</time><name>PT3616</name></trkpt>
<trkpt lat="52.099322" lon="05.647157"><ele>13.7</ele><time>2022-04-13T12:02:33Z</time><name>PT3617</name></trkpt>
<trkpt lat="52.099331" lon="05.647152"><ele>13.8</ele><time>2022-04-13T12:02:34Z</time><name>PT3618</name></trkpt>
<trkpt lat="52.099337" lon="05.647144"><ele>13.9</ele><time>2022-04-13T12:02:35Z</time><name>PT3619</name></trkpt>
<trkpt lat="52.099342" lon="05.647137"><ele>13.8</ele><time>2022-04-13T12:02:36Z</time><name>PT3620</name></trkpt>
<trkpt lat="52.099350" lon="05.647133"><ele>13.7</ele><time>2022-04-13T12:02:37Z</time><name>PT3621</name></trkpt>
<trkpt lat="52.099357" lon="05.647133"><ele>13.7</ele><time>2022-04-13T12:02:38Z</time><name>PT3622</name></trkpt>
<trkpt lat="52.099366" lon="05.647125"><ele>13.5</ele><time>2022-04-13T12:02:39Z</time><name>PT3623</name></trkpt>
<trkpt lat="52.099394" lon="05.647117"><ele>13.7</ele><time>2022-04-13T12:02:40Z</time><name>PT3624</name></trkpt>
<trkpt lat="52.099409" lon="05.647111"><ele>13.7</ele><time>2022-04-13T12:02:41Z</time><name>PT3625</name></trkpt>
<trkpt lat="52.099416" lon="05.647105"><ele>13.8</ele><time>2022-04-13T12:02:42Z</time><name>PT3626</name></trkpt>
<trkpt lat="52.099422" lon="05.647099"><ele>13.9</ele><time>2022-04-13T12:02:43Z</time><name>PT3627</name></trkpt>
<trkpt lat="52.099435" lon="05.647100"><ele>13.9</ele><time>2022-04-13T12:02:44Z</time><name>PT3628</name></trkpt>
<trkpt lat="52.099446" lon="05.647098"><ele>13.8</ele><time>2022-04-13T12:02:45Z</time><name>PT3629</name></trkpt>
<trkpt lat="52.099451" lon="05.647096"><ele>13.8</ele><time>2022-04-13T12:02:46Z</time><name>PT3630</name></trkpt>
<trkpt lat="52.099456" lon="05.647094"><ele>13.7</ele><time>2022-04-13T12:02:47Z</time><name>PT3631</name></trkpt>
<trkpt lat="52.099462" lon="05.647093"><ele>13.7</ele><time>2022-04-13T12:02:48Z</time><name>PT3632</name></trkpt>
<trkpt lat="52.099471" lon="05.647085"><ele>13.6</ele><time>2022-04-13T12:02:50Z</time><name>PT3633</name></trkpt>
<trkpt lat="52.099480" lon="05.647082"><ele>13.6</ele><time>2022-04-13T12:02:51Z</time><name>PT3634</name></trkpt>
<trkpt lat="52.099491" lon="05.647078"><ele>13.6</ele><time>2022-04-13T12:02:52Z</time><name>PT3635</name></trkpt>
<trkpt lat="52.099508" lon="05.647077"><ele>13.6</ele><time>2022-04-13T12:02:53Z</time><name>PT3636</name></trkpt>
<trkpt lat="52.099517" lon="05.647066"><ele>13.6</ele><time>2022-04-13T12:02:54Z</time><name>PT3637</name></trkpt>
<trkpt lat="52.099526" lon="05.647052"><ele>13.4</ele><time>2022-04-13T12:02:55Z</time><name>PT3638</name></trkpt>
<trkpt lat="52.099538" lon="05.647043"><ele>13.3</ele><time>2022-04-13T12:02:56Z</time><name>PT3639</name></trkpt>
<trkpt lat="52.099538" lon="05.647034"><ele>13.2</ele><time>2022-04-13T12:02:57Z</time><name>PT3640</name></trkpt>
<trkpt lat="52.099545" lon="05.647026"><ele>13.2</ele><time>2022-04-13T12:02:58Z</time><name>PT3641</name></trkpt>
<trkpt lat="52.099557" lon="05.647019"><ele>13.2</ele><time>2022-04-13T12:02:59Z</time><name>PT3642</name></trkpt>
<trkpt lat="52.099565" lon="05.647015"><ele>13.3</ele><time>2022-04-13T12:03:00Z</time><name>PT3643</name></trkpt>
<trkpt lat="52.099576" lon="05.647013"><ele>13.4</ele><time>2022-04-13T12:03:01Z</time><name>PT3644</name></trkpt>
<trkpt lat="52.099588" lon="05.647009"><ele>13.4</ele><time>2022-04-13T12:03:02Z</time><name>PT3645</name></trkpt>
<trkpt lat="52.099601" lon="05.647001"><ele>13.5</ele><time>2022-04-13T12:03:03Z</time><name>PT3646</name></trkpt>
<trkpt lat="52.099614" lon="05.646994"><ele>13.6</ele><time>2022-04-13T12:03:04Z</time><name>PT3647</name></trkpt>
<trkpt lat="52.099632" lon="05.646991"><ele>13.5</ele><time>2022-04-13T12:03:05Z</time><name>PT3648</name></trkpt>
<trkpt lat="52.099646" lon="05.646989"><ele>13.5</ele><time>2022-04-13T12:03:06Z</time><name>PT3649</name></trkpt>
<trkpt lat="52.099659" lon="05.646988"><ele>13.4</ele><time>2022-04-13T12:03:07Z</time><name>PT3650</name></trkpt>
<trkpt lat="52.099671" lon="05.646980"><ele>13.4</ele><time>2022-04-13T12:03:08Z</time><name>PT3651</name></trkpt>
<trkpt lat="52.099681" lon="05.646974"><ele>13.7</ele><time>2022-04-13T12:03:09Z</time><name>PT3652</name></trkpt>
<trkpt lat="52.099689" lon="05.646967"><ele>13.7</ele><time>2022-04-13T12:03:10Z</time><name>PT3653</name></trkpt>
<trkpt lat="52.099700" lon="05.646958"><ele>13.7</ele><time>2022-04-13T12:03:11Z</time><name>PT3654</name></trkpt>
<trkpt lat="52.099708" lon="05.646953"><ele>13.7</ele><time>2022-04-13T12:03:12Z</time><name>PT3655</name></trkpt>
<trkpt lat="52.099722" lon="05.646951"><ele>13.6</ele><time>2022-04-13T12:03:13Z</time><name>PT3656</name></trkpt>
<trkpt lat="52.099736" lon="05.646946"><ele>13.5</ele><time>2022-04-13T12:03:14Z</time><name>PT3657</name></trkpt>
<trkpt lat="52.099746" lon="05.646941"><ele>13.4</ele><time>2022-04-13T12:03:15Z</time><name>PT3658</name></trkpt>
<trkpt lat="52.099755" lon="05.646932"><ele>13.4</ele><time>2022-04-13T12:03:16Z</time><name>PT3659</name></trkpt>
<trkpt lat="52.099765" lon="05.646922"><ele>13.4</ele><time>2022-04-13T12:03:17Z</time><name>PT3660</name></trkpt>
<trkpt lat="52.099778" lon="05.646917"><ele>13.4</ele><time>2022-04-13T12:03:18Z</time><name>PT3661</name></trkpt>
<trkpt lat="52.099793" lon="05.646913"><ele>13.5</ele><time>2022-04-13T12:03:19Z</time><name>PT3662</name></trkpt>
<trkpt lat="52.099800" lon="05.646905"><ele>13.3</ele><time>2022-04-13T12:03:20Z</time><name>PT3663</name></trkpt>
<trkpt lat="52.099810" lon="05.646891"><ele>13.4</ele><time>2022-04-13T12:03:21Z</time><name>PT3664</name></trkpt>
<trkpt lat="52.099819" lon="05.646884"><ele>13.4</ele><time>2022-04-13T12:03:22Z</time><name>PT3665</name></trkpt>
<trkpt lat="52.099827" lon="05.646878"><ele>13.4</ele><time>2022-04-13T12:03:23Z</time><name>PT3666</name></trkpt>
<trkpt lat="52.099835" lon="05.646871"><ele>13.3</ele><time>2022-04-13T12:03:24Z</time><name>PT3667</name></trkpt>
<trkpt lat="52.099849" lon="05.646866"><ele>13.3</ele><time>2022-04-13T12:03:25Z</time><name>PT3668</name></trkpt>
<trkpt lat="52.099862" lon="05.646860"><ele>13.5</ele><time>2022-04-13T12:03:26Z</time><name>PT3669</name></trkpt>
<trkpt lat="52.099870" lon="05.646855"><ele>13.6</ele><time>2022-04-13T12:03:27Z</time><name>PT3670</name></trkpt>
<trkpt lat="52.099881" lon="05.646852"><ele>13.5</ele><time>2022-04-13T12:03:28Z</time><name>PT3671</name></trkpt>
<trkpt lat="52.099892" lon="05.646846"><ele>13.6</ele><time>2022-04-13T12:03:29Z</time><name>PT3672</name></trkpt>
<trkpt lat="52.099902" lon="05.646842"><ele>13.6</ele><time>2022-04-13T12:03:30Z</time><name>PT3673</name></trkpt>
<trkpt lat="52.099912" lon="05.646837"><ele>13.6</ele><time>2022-04-13T12:03:31Z</time><name>PT3674</name></trkpt>
<trkpt lat="52.099922" lon="05.646833"><ele>13.4</ele><time>2022-04-13T12:03:32Z</time><name>PT3675</name></trkpt>
<trkpt lat="52.099935" lon="05.646828"><ele>13.4</ele><time>2022-04-13T12:03:33Z</time><name>PT3676</name></trkpt>
<trkpt lat="52.099963" lon="05.646830"><ele>13.3</ele><time>2022-04-13T12:03:34Z</time><name>PT3677</name></trkpt>
<trkpt lat="52.099982" lon="05.646823"><ele>13.2</ele><time>2022-04-13T12:03:35Z</time><name>PT3678</name></trkpt>
<trkpt lat="52.099995" lon="05.646814"><ele>13.2</ele><time>2022-04-13T12:03:36Z</time><name>PT3679</name></trkpt>
<trkpt lat="52.100007" lon="05.646803"><ele>13.3</ele><time>2022-04-13T12:03:37Z</time><name>PT3680</name></trkpt>
<trkpt lat="52.100019" lon="05.646795"><ele>13.2</ele><time>2022-04-13T12:03:38Z</time><name>PT3681</name></trkpt>
<trkpt lat="52.100033" lon="05.646788"><ele>13.2</ele><time>2022-04-13T12:03:39Z</time><name>PT3682</name></trkpt>
<trkpt lat="52.100043" lon="05.646780"><ele>13.2</ele><time>2022-04-13T12:03:40Z</time><name>PT3683</name></trkpt>
<trkpt lat="52.100058" lon="05.646775"><ele>13.2</ele><time>2022-04-13T12:03:41Z</time><name>PT3684</name></trkpt>
<trkpt lat="52.100070" lon="05.646766"><ele>13.1</ele><time>2022-04-13T12:03:42Z</time><name>PT3685</name></trkpt>
<trkpt lat="52.100082" lon="05.646760"><ele>13.2</ele><time>2022-04-13T12:03:43Z</time><name>PT3686</name></trkpt>
<trkpt lat="52.100097" lon="05.646753"><ele>13.2</ele><time>2022-04-13T12:03:44Z</time><name>PT3687</name></trkpt>
<trkpt lat="52.100108" lon="05.646745"><ele>13.3</ele><time>2022-04-13T12:03:45Z</time><name>PT3688</name></trkpt>
<trkpt lat="52.100116" lon="05.646737"><ele>13.3</ele><time>2022-04-13T12:03:46Z</time><name>PT3689</name></trkpt>
<trkpt lat="52.100127" lon="05.646731"><ele>13.3</ele><time>2022-04-13T12:03:47Z</time><name>PT3690</name></trkpt>
<trkpt lat="52.100141" lon="05.646725"><ele>13.3</ele><time>2022-04-13T12:03:48Z</time><name>PT3691</name></trkpt>
<trkpt lat="52.100155" lon="05.646718"><ele>13.2</ele><time>2022-04-13T12:03:49Z</time><name>PT3692</name></trkpt>
<trkpt lat="52.100168" lon="05.646714"><ele>13.1</ele><time>2022-04-13T12:03:50Z</time><name>PT3693</name></trkpt>
<trkpt lat="52.100173" lon="05.646707"><ele>13.1</ele><time>2022-04-13T12:03:51Z</time><name>PT3694</name></trkpt>
<trkpt lat="52.100181" lon="05.646698"><ele>13.2</ele><time>2022-04-13T12:03:52Z</time><name>PT3695</name></trkpt>
<trkpt lat="52.100190" lon="05.646689"><ele>13.3</ele><time>2022-04-13T12:03:53Z</time><name>PT3696</name></trkpt>
<trkpt lat="52.100198" lon="05.646680"><ele>13.3</ele><time>2022-04-13T12:03:54Z</time><name>PT3697</name></trkpt>
<trkpt lat="52.100207" lon="05.646674"><ele>13.3</ele><time>2022-04-13T12:03:55Z</time><name>PT3698</name></trkpt>
<trkpt lat="52.100214" lon="05.646666"><ele>13.3</ele><time>2022-04-13T12:03:56Z</time><name>PT3699</name></trkpt>
<trkpt lat="52.100220" lon="05.646653"><ele>13.2</ele><time>2022-04-13T12:03:57Z</time><name>PT3700</name></trkpt>
<trkpt lat="52.100226" lon="05.646640"><ele>13.2</ele><time>2022-04-13T12:03:58Z</time><name>PT3701</name></trkpt>
<trkpt lat="52.100230" lon="05.646626"><ele>13.2</ele><time>2022-04-13T12:03:59Z</time><name>PT3702</name></trkpt>
<trkpt lat="52.100234" lon="05.646620"><ele>13.2</ele><time>2022-04-13T12:04:00Z</time><name>PT3703</name></trkpt>
<trkpt lat="52.100244" lon="05.646610"><ele>13.3</ele><time>2022-04-13T12:04:01Z</time><name>PT3704</name></trkpt>
<trkpt lat="52.100251" lon="05.646600"><ele>13.2</ele><time>2022-04-13T12:04:02Z</time><name>PT3705</name></trkpt>
<trkpt lat="52.100259" lon="05.646595"><ele>13.2</ele><time>2022-04-13T12:04:03Z</time><name>PT3706</name></trkpt>
<trkpt lat="52.100266" lon="05.646595"><ele>13.2</ele><time>2022-04-13T12:04:04Z</time><name>PT3707</name></trkpt>
<trkpt lat="52.100271" lon="05.646590"><ele>13.2</ele><time>2022-04-13T12:04:05Z</time><name>PT3708</name></trkpt>
<trkpt lat="52.100275" lon="05.646588"><ele>13</ele><time>2022-04-13T12:04:06Z</time><name>PT3709</name></trkpt>
<trkpt lat="52.100279" lon="05.646587"><ele>12.9</ele><time>2022-04-13T12:04:07Z</time><name>PT3710</name></trkpt>
<trkpt lat="52.100288" lon="05.646589"><ele>13.1</ele><time>2022-04-13T12:04:08Z</time><name>PT3711</name></trkpt>
<trkpt lat="52.100299" lon="05.646589"><ele>13.1</ele><time>2022-04-13T12:04:09Z</time><name>PT3712</name></trkpt>
<trkpt lat="52.100306" lon="05.646588"><ele>13.1</ele><time>2022-04-13T12:04:10Z</time><name>PT3713</name></trkpt>
<trkpt lat="52.100317" lon="05.646589"><ele>13.1</ele><time>2022-04-13T12:04:11Z</time><name>PT3714</name></trkpt>
<trkpt lat="52.100324" lon="05.646586"><ele>13.2</ele><time>2022-04-13T12:04:12Z</time><name>PT3715</name></trkpt>
<trkpt lat="52.100329" lon="05.646583"><ele>13.2</ele><time>2022-04-13T12:04:13Z</time><name>PT3716</name></trkpt>
<trkpt lat="52.100339" lon="05.646576"><ele>13.2</ele><time>2022-04-13T12:04:14Z</time><name>PT3717</name></trkpt>
<trkpt lat="52.100349" lon="05.646571"><ele>13.2</ele><time>2022-04-13T12:04:15Z</time><name>PT3718</name></trkpt>
<trkpt lat="52.100360" lon="05.646566"><ele>13.3</ele><time>2022-04-13T12:04:16Z</time><name>PT3719</name></trkpt>
<trkpt lat="52.100370" lon="05.646558"><ele>13.2</ele><time>2022-04-13T12:04:17Z</time><name>PT3720</name></trkpt>
<trkpt lat="52.100379" lon="05.646550"><ele>13.2</ele><time>2022-04-13T12:04:18Z</time><name>PT3721</name></trkpt>
<trkpt lat="52.100389" lon="05.646544"><ele>13.2</ele><time>2022-04-13T12:04:19Z</time><name>PT3722</name></trkpt>
<trkpt lat="52.100399" lon="05.646537"><ele>13.3</ele><time>2022-04-13T12:04:20Z</time><name>PT3723</name></trkpt>
<trkpt lat="52.100408" lon="05.646530"><ele>13.3</ele><time>2022-04-13T12:04:21Z</time><name>PT3724</name></trkpt>
<trkpt lat="52.100418" lon="05.646524"><ele>13.4</ele><time>2022-04-13T12:04:22Z</time><name>PT3725</name></trkpt>
<trkpt lat="52.100431" lon="05.646520"><ele>13.2</ele><time>2022-04-13T12:04:23Z</time><name>PT3726</name></trkpt>
<trkpt lat="52.100442" lon="05.646515"><ele>13.2</ele><time>2022-04-13T12:04:24Z</time><name>PT3727</name></trkpt>
<trkpt lat="52.100450" lon="05.646509"><ele>13.2</ele><time>2022-04-13T12:04:25Z</time><name>PT3728</name></trkpt>
<trkpt lat="52.100459" lon="05.646502"><ele>13.2</ele><time>2022-04-13T12:04:26Z</time><name>PT3729</name></trkpt>
<trkpt lat="52.100466" lon="05.646493"><ele>13.4</ele><time>2022-04-13T12:04:27Z</time><name>PT3730</name></trkpt>
<trkpt lat="52.100473" lon="05.646489"><ele>13.6</ele><time>2022-04-13T12:04:28Z</time><name>PT3731</name></trkpt>
<trkpt lat="52.100482" lon="05.646485"><ele>13.4</ele><time>2022-04-13T12:04:29Z</time><name>PT3732</name></trkpt>
<trkpt lat="52.100494" lon="05.646481"><ele>13.4</ele><time>2022-04-13T12:04:30Z</time><name>PT3733</name></trkpt>
<trkpt lat="52.100508" lon="05.646480"><ele>13.3</ele><time>2022-04-13T12:04:31Z</time><name>PT3734</name></trkpt>
<trkpt lat="52.100515" lon="05.646475"><ele>13.6</ele><time>2022-04-13T12:04:32Z</time><name>PT3735</name></trkpt>
<trkpt lat="52.100526" lon="05.646469"><ele>13.7</ele><time>2022-04-13T12:04:33Z</time><name>PT3736</name></trkpt>
<trkpt lat="52.100536" lon="05.646461"><ele>13.8</ele><time>2022-04-13T12:04:34Z</time><name>PT3737</name></trkpt>
<trkpt lat="52.100546" lon="05.646455"><ele>14</ele><time>2022-04-13T12:04:35Z</time><name>PT3738</name></trkpt>
<trkpt lat="52.100555" lon="05.646449"><ele>14.2</ele><time>2022-04-13T12:04:36Z</time><name>PT3739</name></trkpt>
<trkpt lat="52.100564" lon="05.646446"><ele>14.1</ele><time>2022-04-13T12:04:37Z</time><name>PT3740</name></trkpt>
<trkpt lat="52.100576" lon="05.646440"><ele>14.2</ele><time>2022-04-13T12:04:38Z</time><name>PT3741</name></trkpt>
<trkpt lat="52.100582" lon="05.646434"><ele>14.4</ele><time>2022-04-13T12:04:39Z</time><name>PT3742</name></trkpt>
<trkpt lat="52.100593" lon="05.646426"><ele>14.4</ele><time>2022-04-13T12:04:40Z</time><name>PT3743</name></trkpt>
<trkpt lat="52.100605" lon="05.646418"><ele>14.7</ele><time>2022-04-13T12:04:41Z</time><name>PT3744</name></trkpt>
<trkpt lat="52.100615" lon="05.646412"><ele>14.7</ele><time>2022-04-13T12:04:42Z</time><name>PT3745</name></trkpt>
<trkpt lat="52.100626" lon="05.646406"><ele>14.9</ele><time>2022-04-13T12:04:43Z</time><name>PT3746</name></trkpt>
<trkpt lat="52.100634" lon="05.646399"><ele>14.8</ele><time>2022-04-13T12:04:44Z</time><name>PT3747</name></trkpt>
<trkpt lat="52.100644" lon="05.646392"><ele>14.9</ele><time>2022-04-13T12:04:45Z</time><name>PT3748</name></trkpt>
<trkpt lat="52.100656" lon="05.646388"><ele>14.8</ele><time>2022-04-13T12:04:46Z</time><name>PT3749</name></trkpt>
<trkpt lat="52.100667" lon="05.646382"><ele>15</ele><time>2022-04-13T12:04:47Z</time><name>PT3750</name></trkpt>
<trkpt lat="52.100679" lon="05.646377"><ele>15</ele><time>2022-04-13T12:04:48Z</time><name>PT3751</name></trkpt>
<trkpt lat="52.100686" lon="05.646371"><ele>15.2</ele><time>2022-04-13T12:04:49Z</time><name>PT3752</name></trkpt>
<trkpt lat="52.100694" lon="05.646366"><ele>15.3</ele><time>2022-04-13T12:04:50Z</time><name>PT3753</name></trkpt>
<trkpt lat="52.100704" lon="05.646360"><ele>15.6</ele><time>2022-04-13T12:04:51Z</time><name>PT3754</name></trkpt>
<trkpt lat="52.100712" lon="05.646353"><ele>15.6</ele><time>2022-04-13T12:04:52Z</time><name>PT3755</name></trkpt>
<trkpt lat="52.100715" lon="05.646347"><ele>15.7</ele><time>2022-04-13T12:04:53Z</time><name>PT3756</name></trkpt>
<trkpt lat="52.100726" lon="05.646343"><ele>15.8</ele><time>2022-04-13T12:04:54Z</time><name>PT3757</name></trkpt>
<trkpt lat="52.100731" lon="05.646339"><ele>15.8</ele><time>2022-04-13T12:04:55Z</time><name>PT3758</name></trkpt>
<trkpt lat="52.100738" lon="05.646332"><ele>15.9</ele><time>2022-04-13T12:04:56Z</time><name>PT3759</name></trkpt>
<trkpt lat="52.100748" lon="05.646328"><ele>16.2</ele><time>2022-04-13T12:04:57Z</time><name>PT3760</name></trkpt>
<trkpt lat="52.100756" lon="05.646328"><ele>16.6</ele><time>2022-04-13T12:04:58Z</time><name>PT3761</name></trkpt>
<trkpt lat="52.100767" lon="05.646325"><ele>16.6</ele><time>2022-04-13T12:04:59Z</time><name>PT3762</name></trkpt>
<trkpt lat="52.100775" lon="05.646323"><ele>16.7</ele><time>2022-04-13T12:05:00Z</time><name>PT3763</name></trkpt>
<trkpt lat="52.100784" lon="05.646320"><ele>16.8</ele><time>2022-04-13T12:05:01Z</time><name>PT3764</name></trkpt>
<trkpt lat="52.100790" lon="05.646317"><ele>16.9</ele><time>2022-04-13T12:05:02Z</time><name>PT3765</name></trkpt>
<trkpt lat="52.100798" lon="05.646308"><ele>17</ele><time>2022-04-13T12:05:03Z</time><name>PT3766</name></trkpt>
<trkpt lat="52.100808" lon="05.646298"><ele>17.1</ele><time>2022-04-13T12:05:04Z</time><name>PT3767</name></trkpt>
<trkpt lat="52.100817" lon="05.646290"><ele>17.4</ele><time>2022-04-13T12:05:05Z</time><name>PT3768</name></trkpt>
<trkpt lat="52.100828" lon="05.646288"><ele>17.1</ele><time>2022-04-13T12:05:06Z</time><name>PT3769</name></trkpt>
<trkpt lat="52.100845" lon="05.646287"><ele>17.2</ele><time>2022-04-13T12:05:07Z</time><name>PT3770</name></trkpt>
<trkpt lat="52.100853" lon="05.646289"><ele>17.2</ele><time>2022-04-13T12:05:08Z</time><name>PT3771</name></trkpt>
<trkpt lat="52.100865" lon="05.646285"><ele>17.4</ele><time>2022-04-13T12:05:09Z</time><name>PT3772</name></trkpt>
<trkpt lat="52.100876" lon="05.646278"><ele>17.3</ele><time>2022-04-13T12:05:10Z</time><name>PT3773</name></trkpt>
<trkpt lat="52.100888" lon="05.646275"><ele>17.6</ele><time>2022-04-13T12:05:11Z</time><name>PT3774</name></trkpt>
<trkpt lat="52.100899" lon="05.646273"><ele>17.4</ele><time>2022-04-13T12:05:12Z</time><name>PT3775</name></trkpt>
<trkpt lat="52.100910" lon="05.646270"><ele>17.4</ele><time>2022-04-13T12:05:13Z</time><name>PT3776</name></trkpt>
<trkpt lat="52.100924" lon="05.646267"><ele>17.3</ele><time>2022-04-13T12:05:14Z</time><name>PT3777</name></trkpt>
<trkpt lat="52.100934" lon="05.646260"><ele>17.2</ele><time>2022-04-13T12:05:15Z</time><name>PT3778</name></trkpt>
<trkpt lat="52.100950" lon="05.646258"><ele>17.1</ele><time>2022-04-13T12:05:16Z</time><name>PT3779</name></trkpt>
<trkpt lat="52.100956" lon="05.646247"><ele>17.2</ele><time>2022-04-13T12:05:17Z</time><name>PT3780</name></trkpt>
<trkpt lat="52.100968" lon="05.646240"><ele>17.2</ele><time>2022-04-13T12:05:18Z</time><name>PT3781</name></trkpt>
<trkpt lat="52.100978" lon="05.646234"><ele>17.1</ele><time>2022-04-13T12:05:19Z</time><name>PT3782</name></trkpt>
<trkpt lat="52.100990" lon="05.646225"><ele>17.3</ele><time>2022-04-13T12:05:20Z</time><name>PT3783</name></trkpt>
<trkpt lat="52.101000" lon="05.646218"><ele>17.2</ele><time>2022-04-13T12:05:21Z</time><name>PT3784</name></trkpt>
<trkpt lat="52.101010" lon="05.646211"><ele>17.2</ele><time>2022-04-13T12:05:22Z</time><name>PT3785</name></trkpt>
<trkpt lat="52.101019" lon="05.646203"><ele>17.2</ele><time>2022-04-13T12:05:23Z</time><name>PT3786</name></trkpt>
<trkpt lat="52.101026" lon="05.646199"><ele>17.3</ele><time>2022-04-13T12:05:24Z</time><name>PT3787</name></trkpt>
<trkpt lat="52.101036" lon="05.646192"><ele>17.2</ele><time>2022-04-13T12:05:25Z</time><name>PT3788</name></trkpt>
<trkpt lat="52.101045" lon="05.646185"><ele>17.3</ele><time>2022-04-13T12:05:26Z</time><name>PT3789</name></trkpt>
<trkpt lat="52.101054" lon="05.646180"><ele>17.2</ele><time>2022-04-13T12:05:27Z</time><name>PT3790</name></trkpt>
<trkpt lat="52.101062" lon="05.646173"><ele>17.1</ele><time>2022-04-13T12:05:28Z</time><name>PT3791</name></trkpt>
<trkpt lat="52.101073" lon="05.646168"><ele>17</ele><time>2022-04-13T12:05:29Z</time><name>PT3792</name></trkpt>
<trkpt lat="52.101082" lon="05.646164"><ele>16.8</ele><time>2022-04-13T12:05:30Z</time><name>PT3793</name></trkpt>
<trkpt lat="52.101092" lon="05.646161"><ele>16.7</ele><time>2022-04-13T12:05:31Z</time><name>PT3794</name></trkpt>
<trkpt lat="52.101099" lon="05.646150"><ele>16.7</ele><time>2022-04-13T12:05:32Z</time><name>PT3795</name></trkpt>
<trkpt lat="52.101103" lon="05.646143"><ele>16.7</ele><time>2022-04-13T12:05:33Z</time><name>PT3796</name></trkpt>
<trkpt lat="52.101111" lon="05.646136"><ele>16.7</ele><time>2022-04-13T12:05:34Z</time><name>PT3797</name></trkpt>
<trkpt lat="52.101119" lon="05.646131"><ele>16.7</ele><time>2022-04-13T12:05:35Z</time><name>PT3798</name></trkpt>
<trkpt lat="52.101126" lon="05.646125"><ele>16.5</ele><time>2022-04-13T12:05:36Z</time><name>PT3799</name></trkpt>
<trkpt lat="52.101133" lon="05.646118"><ele>16.4</ele><time>2022-04-13T12:05:37Z</time><name>PT3800</name></trkpt>
<trkpt lat="52.101139" lon="05.646113"><ele>16.5</ele><time>2022-04-13T12:05:38Z</time><name>PT3801</name></trkpt>
<trkpt lat="52.101145" lon="05.646109"><ele>16.3</ele><time>2022-04-13T12:05:39Z</time><name>PT3802</name></trkpt>
<trkpt lat="52.101147" lon="05.646103"><ele>16.3</ele><time>2022-04-13T12:05:40Z</time><name>PT3803</name></trkpt>
<trkpt lat="52.101150" lon="05.646096"><ele>16.2</ele><time>2022-04-13T12:05:41Z</time><name>PT3804</name></trkpt>
<trkpt lat="52.101153" lon="05.646088"><ele>16</ele><time>2022-04-13T12:05:42Z</time><name>PT3805</name></trkpt>
<trkpt lat="52.101156" lon="05.646080"><ele>16</ele><time>2022-04-13T12:05:43Z</time><name>PT3806</name></trkpt>
<trkpt lat="52.101160" lon="05.646072"><ele>15.8</ele><time>2022-04-13T12:05:44Z</time><name>PT3807</name></trkpt>
<trkpt lat="52.101165" lon="05.646064"><ele>15.6</ele><time>2022-04-13T12:05:45Z</time><name>PT3808</name></trkpt>
<trkpt lat="52.101172" lon="05.646057"><ele>15.5</ele><time>2022-04-13T12:05:46Z</time><name>PT3809</name></trkpt>
<trkpt lat="52.101179" lon="05.646053"><ele>15.4</ele><time>2022-04-13T12:05:47Z</time><name>PT3810</name></trkpt>
<trkpt lat="52.101186" lon="05.646043"><ele>15.4</ele><time>2022-04-13T12:05:48Z</time><name>PT3811</name></trkpt>
<trkpt lat="52.101193" lon="05.646031"><ele>15.4</ele><time>2022-04-13T12:05:49Z</time><name>PT3812</name></trkpt>
<trkpt lat="52.101198" lon="05.646022"><ele>15.2</ele><time>2022-04-13T12:05:50Z</time><name>PT3813</name></trkpt>
<trkpt lat="52.101204" lon="05.646012"><ele>15.1</ele><time>2022-04-13T12:05:51Z</time><name>PT3814</name></trkpt>
<trkpt lat="52.101211" lon="05.646003"><ele>14.9</ele><time>2022-04-13T12:05:52Z</time><name>PT3815</name></trkpt>
<trkpt lat="52.101217" lon="05.645992"><ele>14.7</ele><time>2022-04-13T12:05:53Z</time><name>PT3816</name></trkpt>
<trkpt lat="52.101224" lon="05.645984"><ele>14.4</ele><time>2022-04-13T12:05:54Z</time><name>PT3817</name></trkpt>
<trkpt lat="52.101231" lon="05.645977"><ele>14.4</ele><time>2022-04-13T12:05:55Z</time><name>PT3818</name></trkpt>
<trkpt lat="52.101236" lon="05.645970"><ele>14.2</ele><time>2022-04-13T12:05:56Z</time><name>PT3819</name></trkpt>
<trkpt lat="52.101240" lon="05.645963"><ele>14.2</ele><time>2022-04-13T12:05:57Z</time><name>PT3820</name></trkpt>
<trkpt lat="52.101245" lon="05.645953"><ele>14.2</ele><time>2022-04-13T12:05:58Z</time><name>PT3821</name></trkpt>
<trkpt lat="52.101251" lon="05.645942"><ele>14.2</ele><time>2022-04-13T12:05:59Z</time><name>PT3822</name></trkpt>
<trkpt lat="52.101255" lon="05.645933"><ele>14.2</ele><time>2022-04-13T12:06:00Z</time><name>PT3823</name></trkpt>
<trkpt lat="52.101259" lon="05.645924"><ele>14</ele><time>2022-04-13T12:06:01Z</time><name>PT3824</name></trkpt>
<trkpt lat="52.101266" lon="05.645915"><ele>13.8</ele><time>2022-04-13T12:06:02Z</time><name>PT3825</name></trkpt>
<trkpt lat="52.101274" lon="05.645908"><ele>13.7</ele><time>2022-04-13T12:06:03Z</time><name>PT3826</name></trkpt>
<trkpt lat="52.101282" lon="05.645902"><ele>13.5</ele><time>2022-04-13T12:06:04Z</time><name>PT3827</name></trkpt>
<trkpt lat="52.101288" lon="05.645896"><ele>13.4</ele><time>2022-04-13T12:06:05Z</time><name>PT3828</name></trkpt>
<trkpt lat="52.101294" lon="05.645888"><ele>13.2</ele><time>2022-04-13T12:06:06Z</time><name>PT3829</name></trkpt>
<trkpt lat="52.101301" lon="05.645879"><ele>13.2</ele><time>2022-04-13T12:06:07Z</time><name>PT3830</name></trkpt>
<trkpt lat="52.101307" lon="05.645869"><ele>12.8</ele><time>2022-04-13T12:06:08Z</time><name>PT3831</name></trkpt>
<trkpt lat="52.101313" lon="05.645860"><ele>12.5</ele><time>2022-04-13T12:06:09Z</time><name>PT3832</name></trkpt>
<trkpt lat="52.101317" lon="05.645851"><ele>12.5</ele><time>2022-04-13T12:06:10Z</time><name>PT3833</name></trkpt>
<trkpt lat="52.101323" lon="05.645843"><ele>12.4</ele><time>2022-04-13T12:06:11Z</time><name>PT3834</name></trkpt>
<trkpt lat="52.101329" lon="05.645835"><ele>12.3</ele><time>2022-04-13T12:06:12Z</time><name>PT3835</name></trkpt>
<trkpt lat="52.101340" lon="05.645825"><ele>12.3</ele><time>2022-04-13T12:06:13Z</time><name>PT3836</name></trkpt>
<trkpt lat="52.101349" lon="05.645815"><ele>12.1</ele><time>2022-04-13T12:06:14Z</time><name>PT3837</name></trkpt>
<trkpt lat="52.101355" lon="05.645808"><ele>11.9</ele><time>2022-04-13T12:06:15Z</time><name>PT3838</name></trkpt>
<trkpt lat="52.101361" lon="05.645797"><ele>11.8</ele><time>2022-04-13T12:06:16Z</time><name>PT3839</name></trkpt>
<trkpt lat="52.101370" lon="05.645785"><ele>11.9</ele><time>2022-04-13T12:06:17Z</time><name>PT3840</name></trkpt>
<trkpt lat="52.101377" lon="05.645778"><ele>11.8</ele><time>2022-04-13T12:06:18Z</time><name>PT3841</name></trkpt>
<trkpt lat="52.101385" lon="05.645772"><ele>11.8</ele><time>2022-04-13T12:06:19Z</time><name>PT3842</name></trkpt>
<trkpt lat="52.101393" lon="05.645762"><ele>11.6</ele><time>2022-04-13T12:06:20Z</time><name>PT3843</name></trkpt>
<trkpt lat="52.101401" lon="05.645750"><ele>11.5</ele><time>2022-04-13T12:06:21Z</time><name>PT3844</name></trkpt>
<trkpt lat="52.101408" lon="05.645741"><ele>11.2</ele><time>2022-04-13T12:06:22Z</time><name>PT3845</name></trkpt>
<trkpt lat="52.101417" lon="05.645733"><ele>11.1</ele><time>2022-04-13T12:06:23Z</time><name>PT3846</name></trkpt>
<trkpt lat="52.101426" lon="05.645729"><ele>10.9</ele><time>2022-04-13T12:06:24Z</time><name>PT3847</name></trkpt>
<trkpt lat="52.101437" lon="05.645724"><ele>10.7</ele><time>2022-04-13T12:06:25Z</time><name>PT3848</name></trkpt>
<trkpt lat="52.101445" lon="05.645720"><ele>10.4</ele><time>2022-04-13T12:06:26Z</time><name>PT3849</name></trkpt>
<trkpt lat="52.101452" lon="05.645718"><ele>10.4</ele><time>2022-04-13T12:06:27Z</time><name>PT3850</name></trkpt>
<trkpt lat="52.101460" lon="05.645717"><ele>10.3</ele><time>2022-04-13T12:06:28Z</time><name>PT3851</name></trkpt>
<trkpt lat="52.101468" lon="05.645712"><ele>10.3</ele><time>2022-04-13T12:06:29Z</time><name>PT3852</name></trkpt>
<trkpt lat="52.101479" lon="05.645706"><ele>10.4</ele><time>2022-04-13T12:06:30Z</time><name>PT3853</name></trkpt>
<trkpt lat="52.101488" lon="05.645701"><ele>10.4</ele><time>2022-04-13T12:06:31Z</time><name>PT3854</name></trkpt>
<trkpt lat="52.101495" lon="05.645695"><ele>10.3</ele><time>2022-04-13T12:06:32Z</time><name>PT3855</name></trkpt>
<trkpt lat="52.101503" lon="05.645689"><ele>10.1</ele><time>2022-04-13T12:06:33Z</time><name>PT3856</name></trkpt>
<trkpt lat="52.101514" lon="05.645683"><ele>9.9</ele><time>2022-04-13T12:06:34Z</time><name>PT3857</name></trkpt>
<trkpt lat="52.101523" lon="05.645677"><ele>9.8</ele><time>2022-04-13T12:06:35Z</time><name>PT3858</name></trkpt>
<trkpt lat="52.101530" lon="05.645670"><ele>9.5</ele><time>2022-04-13T12:06:36Z</time><name>PT3859</name></trkpt>
<trkpt lat="52.101541" lon="05.645664"><ele>9.5</ele><time>2022-04-13T12:06:37Z</time><name>PT3860</name></trkpt>
<trkpt lat="52.101549" lon="05.645659"><ele>9.4</ele><time>2022-04-13T12:06:38Z</time><name>PT3861</name></trkpt>
<trkpt lat="52.101558" lon="05.645658"><ele>9.2</ele><time>2022-04-13T12:06:39Z</time><name>PT3862</name></trkpt>
<trkpt lat="52.101563" lon="05.645653"><ele>9.2</ele><time>2022-04-13T12:06:40Z</time><name>PT3863</name></trkpt>
<trkpt lat="52.101568" lon="05.645648"><ele>9.2</ele><time>2022-04-13T12:06:41Z</time><name>PT3864</name></trkpt>
<trkpt lat="52.101574" lon="05.645642"><ele>8.9</ele><time>2022-04-13T12:06:42Z</time><name>PT3865</name></trkpt>
<trkpt lat="52.101577" lon="05.645625"><ele>7.8</ele><time>2022-04-13T12:06:50Z</time><name>PT3866</name></trkpt>
<trkpt lat="52.101577" lon="05.645604"><ele>7.5</ele><time>2022-04-13T12:06:51Z</time><name>PT3867</name></trkpt>
<trkpt lat="52.101586" lon="05.645589"><ele>7.4</ele><time>2022-04-13T12:06:55Z</time><name>PT3868</name></trkpt>
<trkpt lat="52.101591" lon="05.645569"><ele>7.4</ele><time>2022-04-13T12:06:56Z</time><name>PT3869</name></trkpt>
<trkpt lat="52.101590" lon="05.645552"><ele>7.4</ele><time>2022-04-13T12:06:57Z</time><name>PT3870</name></trkpt>
<trkpt lat="52.101593" lon="05.645548"><ele>7.1</ele><time>2022-04-13T12:06:58Z</time><name>PT3871</name></trkpt>
<trkpt lat="52.101596" lon="05.645536"><ele>6.9</ele><time>2022-04-13T12:06:59Z</time><name>PT3872</name></trkpt>
<trkpt lat="52.101594" lon="05.645520"><ele>6.8</ele><time>2022-04-13T12:07:00Z</time><name>PT3873</name></trkpt>
<trkpt lat="52.101593" lon="05.645503"><ele>6.8</ele><time>2022-04-13T12:07:01Z</time><name>PT3874</name></trkpt>
<trkpt lat="52.101595" lon="05.645492"><ele>6.7</ele><time>2022-04-13T12:07:02Z</time><name>PT3875</name></trkpt>
<trkpt lat="52.101595" lon="05.645479"><ele>6.7</ele><time>2022-04-13T12:07:03Z</time><name>PT3876</name></trkpt>
<trkpt lat="52.101596" lon="05.645466"><ele>6.6</ele><time>2022-04-13T12:07:04Z</time><name>PT3877</name></trkpt>
<trkpt lat="52.101599" lon="05.645455"><ele>6.4</ele><time>2022-04-13T12:07:05Z</time><name>PT3878</name></trkpt>
<trkpt lat="52.101600" lon="05.645438"><ele>6.3</ele><time>2022-04-13T12:07:06Z</time><name>PT3879</name></trkpt>
<trkpt lat="52.101599" lon="05.645419"><ele>6.1</ele><time>2022-04-13T12:07:07Z</time><name>PT3880</name></trkpt>
<trkpt lat="52.101601" lon="05.645404"><ele>6</ele><time>2022-04-13T12:07:08Z</time><name>PT3881</name></trkpt>
<trkpt lat="52.101606" lon="05.645387"><ele>5.9</ele><time>2022-04-13T12:07:09Z</time><name>PT3882</name></trkpt>
<trkpt lat="52.101611" lon="05.645377"><ele>5.7</ele><time>2022-04-13T12:07:10Z</time><name>PT3883</name></trkpt>
<trkpt lat="52.101615" lon="05.645367"><ele>5.6</ele><time>2022-04-13T12:07:11Z</time><name>PT3884</name></trkpt>
<trkpt lat="52.101618" lon="05.645352"><ele>5.4</ele><time>2022-04-13T12:07:12Z</time><name>PT3885</name></trkpt>
<trkpt lat="52.101620" lon="05.645339"><ele>5.2</ele><time>2022-04-13T12:07:13Z</time><name>PT3886</name></trkpt>
<trkpt lat="52.101623" lon="05.645324"><ele>5</ele><time>2022-04-13T12:07:14Z</time><name>PT3887</name></trkpt>
<trkpt lat="52.101627" lon="05.645316"><ele>4.9</ele><time>2022-04-13T12:07:15Z</time><name>PT3888</name></trkpt>
<trkpt lat="52.101628" lon="05.645303"><ele>4.8</ele><time>2022-04-13T12:07:16Z</time><name>PT3889</name></trkpt>
<trkpt lat="52.101629" lon="05.645291"><ele>4.8</ele><time>2022-04-13T12:07:17Z</time><name>PT3890</name></trkpt>
<trkpt lat="52.101631" lon="05.645278"><ele>4.6</ele><time>2022-04-13T12:07:18Z</time><name>PT3891</name></trkpt>
<trkpt lat="52.101630" lon="05.645267"><ele>4.5</ele><time>2022-04-13T12:07:19Z</time><name>PT3892</name></trkpt>
<trkpt lat="52.101630" lon="05.645254"><ele>4.5</ele><time>2022-04-13T12:07:20Z</time><name>PT3893</name></trkpt>
<trkpt lat="52.101633" lon="05.645235"><ele>4.5</ele><time>2022-04-13T12:07:21Z</time><name>PT3894</name></trkpt>
<trkpt lat="52.101636" lon="05.645221"><ele>4.5</ele><time>2022-04-13T12:07:22Z</time><name>PT3895</name></trkpt>
<trkpt lat="52.101638" lon="05.645204"><ele>4.4</ele><time>2022-04-13T12:07:23Z</time><name>PT3896</name></trkpt>
<trkpt lat="52.101639" lon="05.645191"><ele>4.2</ele><time>2022-04-13T12:07:24Z</time><name>PT3897</name></trkpt>
<trkpt lat="52.101637" lon="05.645177"><ele>4</ele><time>2022-04-13T12:07:25Z</time><name>PT3898</name></trkpt>
<trkpt lat="52.101635" lon="05.645163"><ele>3.9</ele><time>2022-04-13T12:07:26Z</time><name>PT3899</name></trkpt>
<trkpt lat="52.101635" lon="05.645146"><ele>3.9</ele><time>2022-04-13T12:07:27Z</time><name>PT3900</name></trkpt>
<trkpt lat="52.101633" lon="05.645129"><ele>3.6</ele><time>2022-04-13T12:07:28Z</time><name>PT3901</name></trkpt>
<trkpt lat="52.101631" lon="05.645116"><ele>3.5</ele><time>2022-04-13T12:07:29Z</time><name>PT3902</name></trkpt>
<trkpt lat="52.101631" lon="05.645103"><ele>3.5</ele><time>2022-04-13T12:07:30Z</time><name>PT3903</name></trkpt>
<trkpt lat="52.101631" lon="05.645090"><ele>3.1</ele><time>2022-04-13T12:07:31Z</time><name>PT3904</name></trkpt>
<trkpt lat="52.101630" lon="05.645082"><ele>3</ele><time>2022-04-13T12:07:32Z</time><name>PT3905</name></trkpt>
<trkpt lat="52.101630" lon="05.645072"><ele>2.7</ele><time>2022-04-13T12:07:33Z</time><name>PT3906</name></trkpt>
<trkpt lat="52.101630" lon="05.645059"><ele>2.6</ele><time>2022-04-13T12:07:34Z</time><name>PT3907</name></trkpt>
<trkpt lat="52.101630" lon="05.645042"><ele>2.6</ele><time>2022-04-13T12:07:35Z</time><name>PT3908</name></trkpt>
<trkpt lat="52.101629" lon="05.645024"><ele>2.5</ele><time>2022-04-13T12:07:36Z</time><name>PT3909</name></trkpt>
<trkpt lat="52.101628" lon="05.645009"><ele>2.4</ele><time>2022-04-13T12:07:37Z</time><name>PT3910</name></trkpt>
<trkpt lat="52.101628" lon="05.644994"><ele>2.2</ele><time>2022-04-13T12:07:38Z</time><name>PT3911</name></trkpt>
<trkpt lat="52.101628" lon="05.644980"><ele>2.1</ele><time>2022-04-13T12:07:39Z</time><name>PT3912</name></trkpt>
<trkpt lat="52.101628" lon="05.644964"><ele>1.9</ele><time>2022-04-13T12:07:40Z</time><name>PT3913</name></trkpt>
<trkpt lat="52.101628" lon="05.644950"><ele>1.9</ele><time>2022-04-13T12:07:41Z</time><name>PT3914</name></trkpt>
<trkpt lat="52.101625" lon="05.644934"><ele>2.1</ele><time>2022-04-13T12:07:42Z</time><name>PT3915</name></trkpt>
<trkpt lat="52.101622" lon="05.644919"><ele>2</ele><time>2022-04-13T12:07:43Z</time><name>PT3916</name></trkpt>
<trkpt lat="52.101622" lon="05.644900"><ele>1.9</ele><time>2022-04-13T12:07:44Z</time><name>PT3917</name></trkpt>
<trkpt lat="52.101621" lon="05.644887"><ele>1.9</ele><time>2022-04-13T12:07:45Z</time><name>PT3918</name></trkpt>
<trkpt lat="52.101618" lon="05.644876"><ele>1.7</ele><time>2022-04-13T12:07:46Z</time><name>PT3919</name></trkpt>
<trkpt lat="52.101614" lon="05.644862"><ele>1.6</ele><time>2022-04-13T12:07:47Z</time><name>PT3920</name></trkpt>
<trkpt lat="52.101612" lon="05.644846"><ele>1.5</ele><time>2022-04-13T12:07:48Z</time><name>PT3921</name></trkpt>
<trkpt lat="52.101609" lon="05.644830"><ele>1.3</ele><time>2022-04-13T12:07:49Z</time><name>PT3922</name></trkpt>
<trkpt lat="52.101606" lon="05.644818"><ele>1.3</ele><time>2022-04-13T12:07:50Z</time><name>PT3923</name></trkpt>
<trkpt lat="52.101606" lon="05.644802"><ele>1.1</ele><time>2022-04-13T12:07:51Z</time><name>PT3924</name></trkpt>
<trkpt lat="52.101604" lon="05.644788"><ele>0.9</ele><time>2022-04-13T12:07:52Z</time><name>PT3925</name></trkpt>
<trkpt lat="52.101604" lon="05.644772"><ele>0.9</ele><time>2022-04-13T12:07:53Z</time><name>PT3926</name></trkpt>
<trkpt lat="52.101603" lon="05.644753"><ele>0.9</ele><time>2022-04-13T12:07:54Z</time><name>PT3927</name></trkpt>
<trkpt lat="52.101602" lon="05.644736"><ele>0.9</ele><time>2022-04-13T12:07:55Z</time><name>PT3928</name></trkpt>
<trkpt lat="52.101603" lon="05.644721"><ele>1.1</ele><time>2022-04-13T12:07:56Z</time><name>PT3929</name></trkpt>
<trkpt lat="52.101604" lon="05.644707"><ele>1</ele><time>2022-04-13T12:07:57Z</time><name>PT3930</name></trkpt>
<trkpt lat="52.101601" lon="05.644688"><ele>0.8</ele><time>2022-04-13T12:07:58Z</time><name>PT3931</name></trkpt>
<trkpt lat="52.101602" lon="05.644674"><ele>0.7</ele><time>2022-04-13T12:07:59Z</time><name>PT3932</name></trkpt>
<trkpt lat="52.101603" lon="05.644659"><ele>0.6</ele><time>2022-04-13T12:08:00Z</time><name>PT3933</name></trkpt>
<trkpt lat="52.101602" lon="05.644646"><ele>0.6</ele><time>2022-04-13T12:08:01Z</time><name>PT3934</name></trkpt>
<trkpt lat="52.101600" lon="05.644631"><ele>0.6</ele><time>2022-04-13T12:08:02Z</time><name>PT3935</name></trkpt>
<trkpt lat="52.101599" lon="05.644617"><ele>0.4</ele><time>2022-04-13T12:08:03Z</time><name>PT3936</name></trkpt>
<trkpt lat="52.101599" lon="05.644602"><ele>0.4</ele><time>2022-04-13T12:08:04Z</time><name>PT3937</name></trkpt>
<trkpt lat="52.101598" lon="05.644586"><ele>0.4</ele><time>2022-04-13T12:08:05Z</time><name>PT3938</name></trkpt>
<trkpt lat="52.101597" lon="05.644568"><ele>0.2</ele><time>2022-04-13T12:08:06Z</time><name>PT3939</name></trkpt>
<trkpt lat="52.101598" lon="05.644549"><ele>0.3</ele><time>2022-04-13T12:08:07Z</time><name>PT3940</name></trkpt>
<trkpt lat="52.101598" lon="05.644531"><ele>0.2</ele><time>2022-04-13T12:08:08Z</time><name>PT3941</name></trkpt>
<trkpt lat="52.101599" lon="05.644515"><ele>0.1</ele><time>2022-04-13T12:08:09Z</time><name>PT3942</name></trkpt>
<trkpt lat="52.101599" lon="05.644497"><ele>0.1</ele><time>2022-04-13T12:08:10Z</time><name>PT3943</name></trkpt>
<trkpt lat="52.101596" lon="05.644479"><ele>0</ele><time>2022-04-13T12:08:11Z</time><name>PT3944</name></trkpt>
<trkpt lat="52.101595" lon="05.644465"><ele>0</ele><time>2022-04-13T12:08:12Z</time><name>PT3945</name></trkpt>
<trkpt lat="52.101596" lon="05.644445"><ele>0</ele><time>2022-04-13T12:08:13Z</time><name>PT3946</name></trkpt>
<trkpt lat="52.101598" lon="05.644434"><ele>0.1</ele><time>2022-04-13T12:08:14Z</time><name>PT3947</name></trkpt>
<trkpt lat="52.101596" lon="05.644421"><ele>0.1</ele><time>2022-04-13T12:08:15Z</time><name>PT3948</name></trkpt>
<trkpt lat="52.101595" lon="05.644407"><ele>0.2</ele><time>2022-04-13T12:08:16Z</time><name>PT3949</name></trkpt>
<trkpt lat="52.101595" lon="05.644390"><ele>0.2</ele><time>2022-04-13T12:08:17Z</time><name>PT3950</name></trkpt>
<trkpt lat="52.101595" lon="05.644374"><ele>0.6</ele><time>2022-04-13T12:08:18Z</time><name>PT3951</name></trkpt>
<trkpt lat="52.101596" lon="05.644360"><ele>0.7</ele><time>2022-04-13T12:08:19Z</time><name>PT3952</name></trkpt>
<trkpt lat="52.101598" lon="05.644344"><ele>-1</ele><time>2022-04-13T12:08:20Z</time><name>PT3953</name></trkpt>
<trkpt lat="52.101599" lon="05.644328"><ele>-1.2</ele><time>2022-04-13T12:08:21Z</time><name>PT3954</name></trkpt>
<trkpt lat="52.101600" lon="05.644310"><ele>-1.2</ele><time>2022-04-13T12:08:22Z</time><name>PT3955</name></trkpt>
<trkpt lat="52.101599" lon="05.644293"><ele>-1.2</ele><time>2022-04-13T12:08:23Z</time><name>PT3956</name></trkpt>
<trkpt lat="52.101598" lon="05.644278"><ele>-1.2</ele><time>2022-04-13T12:08:24Z</time><name>PT3957</name></trkpt>
<trkpt lat="52.101597" lon="05.644265"><ele>-1.1</ele><time>2022-04-13T12:08:25Z</time><name>PT3958</name></trkpt>
<trkpt lat="52.101594" lon="05.644250"><ele>-1.2</ele><time>2022-04-13T12:08:26Z</time><name>PT3959</name></trkpt>
<trkpt lat="52.101593" lon="05.644235"><ele>-1.4</ele><time>2022-04-13T12:08:27Z</time><name>PT3960</name></trkpt>
<trkpt lat="52.101592" lon="05.644222"><ele>-1.4</ele><time>2022-04-13T12:08:28Z</time><name>PT3961</name></trkpt>
<trkpt lat="52.101591" lon="05.644208"><ele>-1.3</ele><time>2022-04-13T12:08:29Z</time><name>PT3962</name></trkpt>
<trkpt lat="52.101591" lon="05.644192"><ele>-1.4</ele><time>2022-04-13T12:08:30Z</time><name>PT3963</name></trkpt>
<trkpt lat="52.101591" lon="05.644176"><ele>-1.4</ele><time>2022-04-13T12:08:31Z</time><name>PT3964</name></trkpt>
<trkpt lat="52.101590" lon="05.644159"><ele>-1.5</ele><time>2022-04-13T12:08:32Z</time><name>PT3965</name></trkpt>
<trkpt lat="52.101587" lon="05.644144"><ele>-1.7</ele><time>2022-04-13T12:08:33Z</time><name>PT3966</name></trkpt>
<trkpt lat="52.101586" lon="05.644130"><ele>-1.8</ele><time>2022-04-13T12:08:34Z</time><name>PT3967</name></trkpt>
<trkpt lat="52.101586" lon="05.644114"><ele>-1.7</ele><time>2022-04-13T12:08:35Z</time><name>PT3968</name></trkpt>
<trkpt lat="52.101589" lon="05.644102"><ele>-1.9</ele><time>2022-04-13T12:08:36Z</time><name>PT3969</name></trkpt>
<trkpt lat="52.101593" lon="05.644086"><ele>-2.1</ele><time>2022-04-13T12:08:37Z</time><name>PT3970</name></trkpt>
<trkpt lat="52.101595" lon="05.644069"><ele>-2.2</ele><time>2022-04-13T12:08:38Z</time><name>PT3971</name></trkpt>
<trkpt lat="52.101596" lon="05.644056"><ele>-2.2</ele><time>2022-04-13T12:08:39Z</time><name>PT3972</name></trkpt>
<trkpt lat="52.101594" lon="05.644044"><ele>-2.5</ele><time>2022-04-13T12:08:40Z</time><name>PT3973</name></trkpt>
<trkpt lat="52.101593" lon="05.644032"><ele>-2.6</ele><time>2022-04-13T12:08:41Z</time><name>PT3974</name></trkpt>
<trkpt lat="52.101592" lon="05.644017"><ele>-2.6</ele><time>2022-04-13T12:08:42Z</time><name>PT3975</name></trkpt>
<trkpt lat="52.101590" lon="05.644004"><ele>-2.6</ele><time>2022-04-13T12:08:43Z</time><name>PT3976</name></trkpt>
<trkpt lat="52.101587" lon="05.643990"><ele>-2.8</ele><time>2022-04-13T12:08:44Z</time><name>PT3977</name></trkpt>
<trkpt lat="52.101585" lon="05.643977"><ele>-2.9</ele><time>2022-04-13T12:08:45Z</time><name>PT3978</name></trkpt>
<trkpt lat="52.101583" lon="05.643965"><ele>-3</ele><time>2022-04-13T12:08:46Z</time><name>PT3979</name></trkpt>
<trkpt lat="52.101584" lon="05.643950"><ele>-3.1</ele><time>2022-04-13T12:08:47Z</time><name>PT3980</name></trkpt>
<trkpt lat="52.101586" lon="05.643936"><ele>-3.1</ele><time>2022-04-13T12:08:48Z</time><name>PT3981</name></trkpt>
<trkpt lat="52.101588" lon="05.643919"><ele>-3.1</ele><time>2022-04-13T12:08:49Z</time><name>PT3982</name></trkpt>
<trkpt lat="52.101588" lon="05.643905"><ele>-3.1</ele><time>2022-04-13T12:08:50Z</time><name>PT3983</name></trkpt>
<trkpt lat="52.101586" lon="05.643885"><ele>-3.1</ele><time>2022-04-13T12:08:51Z</time><name>PT3984</name></trkpt>
<trkpt lat="52.101583" lon="05.643871"><ele>-3.1</ele><time>2022-04-13T12:08:52Z</time><name>PT3985</name></trkpt>
<trkpt lat="52.101580" lon="05.643858"><ele>-3</ele><time>2022-04-13T12:08:53Z</time><name>PT3986</name></trkpt>
<trkpt lat="52.101581" lon="05.643845"><ele>-3.1</ele><time>2022-04-13T12:08:54Z</time><name>PT3987</name></trkpt>
<trkpt lat="52.101582" lon="05.643832"><ele>-3</ele><time>2022-04-13T12:08:55Z</time><name>PT3988</name></trkpt>
<trkpt lat="52.101583" lon="05.643819"><ele>-2.8</ele><time>2022-04-13T12:08:56Z</time><name>PT3989</name></trkpt>
<trkpt lat="52.101583" lon="05.643801"><ele>-2.8</ele><time>2022-04-13T12:08:57Z</time><name>PT3990</name></trkpt>
<trkpt lat="52.101586" lon="05.643779"><ele>-3</ele><time>2022-04-13T12:08:58Z</time><name>PT3991</name></trkpt>
<trkpt lat="52.101589" lon="05.643766"><ele>-3</ele><time>2022-04-13T12:08:59Z</time><name>PT3992</name></trkpt>
<trkpt lat="52.101592" lon="05.643753"><ele>-3.1</ele><time>2022-04-13T12:09:00Z</time><name>PT3993</name></trkpt>
<trkpt lat="52.101596" lon="05.643739"><ele>-3.3</ele><time>2022-04-13T12:09:01Z</time><name>PT3994</name></trkpt>
<trkpt lat="52.101600" lon="05.643721"><ele>-3.4</ele><time>2022-04-13T12:09:02Z</time><name>PT3995</name></trkpt>
<trkpt lat="52.101601" lon="05.643705"><ele>-3.5</ele><time>2022-04-13T12:09:03Z</time><name>PT3996</name></trkpt>
<trkpt lat="52.101603" lon="05.643688"><ele>-3.6</ele><time>2022-04-13T12:09:04Z</time><name>PT3997</name></trkpt>
<trkpt lat="52.101606" lon="05.643672"><ele>-3.6</ele><time>2022-04-13T12:09:05Z</time><name>PT3998</name></trkpt>
<trkpt lat="52.101609" lon="05.643661"><ele>-3.6</ele><time>2022-04-13T12:09:06Z</time><name>PT3999</name></trkpt>
<trkpt lat="52.101613" lon="05.643650"><ele>-3.8</ele><time>2022-04-13T12:09:07Z</time><name>PT4000</name></trkpt>
<trkpt lat="52.101618" lon="05.643640"><ele>-4</ele><time>2022-04-13T12:09:08Z</time><name>PT4001</name></trkpt>
<trkpt lat="52.101622" lon="05.643629"><ele>-4.3</ele><time>2022-04-13T12:09:09Z</time><name>PT4002</name></trkpt>
<trkpt lat="52.101625" lon="05.643618"><ele>-4.5</ele><time>2022-04-13T12:09:10Z</time><name>PT4003</name></trkpt>
<trkpt lat="52.101628" lon="05.643606"><ele>-4.6</ele><time>2022-04-13T12:09:11Z</time><name>PT4004</name></trkpt>
<trkpt lat="52.101633" lon="05.643593"><ele>-4.6</ele><time>2022-04-13T12:09:12Z</time><name>PT4005</name></trkpt>
<trkpt lat="52.101636" lon="05.643579"><ele>-4.5</ele><time>2022-04-13T12:09:13Z</time><name>PT4006</name></trkpt>
<trkpt lat="52.101638" lon="05.643566"><ele>-4.6</ele><time>2022-04-13T12:09:14Z</time><name>PT4007</name></trkpt>
<trkpt lat="52.101638" lon="05.643552"><ele>-4.8</ele><time>2022-04-13T12:09:15Z</time><name>PT4008</name></trkpt>
<trkpt lat="52.101638" lon="05.643537"><ele>-4.9</ele><time>2022-04-13T12:09:16Z</time><name>PT4009</name></trkpt>
<trkpt lat="52.101641" lon="05.643522"><ele>-5.1</ele><time>2022-04-13T12:09:17Z</time><name>PT4010</name></trkpt>
<trkpt lat="52.101643" lon="05.643508"><ele>-5.2</ele><time>2022-04-13T12:09:18Z</time><name>PT4011</name></trkpt>
<trkpt lat="52.101644" lon="05.643495"><ele>-5.4</ele><time>2022-04-13T12:09:19Z</time><name>PT4012</name></trkpt>
<trkpt lat="52.101644" lon="05.643483"><ele>-5.4</ele><time>2022-04-13T12:09:20Z</time><name>PT4013</name></trkpt>
<trkpt lat="52.101644" lon="05.643471"><ele>-5.4</ele><time>2022-04-13T12:09:21Z</time><name>PT4014</name></trkpt>
<trkpt lat="52.101644" lon="05.643459"><ele>-5.3</ele><time>2022-04-13T12:09:22Z</time><name>PT4015</name></trkpt>
<trkpt lat="52.101645" lon="05.643447"><ele>-5.3</ele><time>2022-04-13T12:09:23Z</time><name>PT4016</name></trkpt>
<trkpt lat="52.101644" lon="05.643432"><ele>-5.3</ele><time>2022-04-13T12:09:24Z</time><name>PT4017</name></trkpt>
<trkpt lat="52.101641" lon="05.643419"><ele>-5.5</ele><time>2022-04-13T12:09:25Z</time><name>PT4018</name></trkpt>
<trkpt lat="52.101638" lon="05.643404"><ele>-5.6</ele><time>2022-04-13T12:09:26Z</time><name>PT4019</name></trkpt>
<trkpt lat="52.101631" lon="05.643392"><ele>-5.5</ele><time>2022-04-13T12:09:27Z</time><name>PT4020</name></trkpt>
<trkpt lat="52.101623" lon="05.643377"><ele>-5.5</ele><time>2022-04-13T12:09:28Z</time><name>PT4021</name></trkpt>
<trkpt lat="52.101614" lon="05.643364"><ele>-5.4</ele><time>2022-04-13T12:09:29Z</time><name>PT4022</name></trkpt>
<trkpt lat="52.101603" lon="05.643356"><ele>-5.5</ele><time>2022-04-13T12:09:30Z</time><name>PT4023</name></trkpt>
<trkpt lat="52.101592" lon="05.643351"><ele>-5.6</ele><time>2022-04-13T12:09:31Z</time><name>PT4024</name></trkpt>
<trkpt lat="52.101580" lon="05.643349"><ele>-5.8</ele><time>2022-04-13T12:09:32Z</time><name>PT4025</name></trkpt>
<trkpt lat="52.101570" lon="05.643346"><ele>-6</ele><time>2022-04-13T12:09:33Z</time><name>PT4026</name></trkpt>
<trkpt lat="52.101560" lon="05.643342"><ele>-6.1</ele><time>2022-04-13T12:09:34Z</time><name>PT4027</name></trkpt>
<trkpt lat="52.101547" lon="05.643339"><ele>-6</ele><time>2022-04-13T12:09:35Z</time><name>PT4028</name></trkpt>
<trkpt lat="52.101537" lon="05.643337"><ele>-6</ele><time>2022-04-13T12:09:36Z</time><name>PT4029</name></trkpt>
<trkpt lat="52.101528" lon="05.643338"><ele>-5.7</ele><time>2022-04-13T12:09:37Z</time><name>PT4030</name></trkpt>
<trkpt lat="52.101518" lon="05.643337"><ele>-5.7</ele><time>2022-04-13T12:09:38Z</time><name>PT4031</name></trkpt>
<trkpt lat="52.101508" lon="05.643336"><ele>-5.5</ele><time>2022-04-13T12:09:39Z</time><name>PT4032</name></trkpt>
<trkpt lat="52.101498" lon="05.643334"><ele>-5.5</ele><time>2022-04-13T12:09:40Z</time><name>PT4033</name></trkpt>
<trkpt lat="52.101489" lon="05.643336"><ele>-5.4</ele><time>2022-04-13T12:09:41Z</time><name>PT4034</name></trkpt>
<trkpt lat="52.101479" lon="05.643338"><ele>-5.4</ele><time>2022-04-13T12:09:42Z</time><name>PT4035</name></trkpt>
<trkpt lat="52.101468" lon="05.643342"><ele>-5.3</ele><time>2022-04-13T12:09:43Z</time><name>PT4036</name></trkpt>
<trkpt lat="52.101457" lon="05.643346"><ele>-5.1</ele><time>2022-04-13T12:09:44Z</time><name>PT4037</name></trkpt>
<trkpt lat="52.101448" lon="05.643353"><ele>-5.1</ele><time>2022-04-13T12:09:45Z</time><name>PT4038</name></trkpt>
<trkpt lat="52.101438" lon="05.643355"><ele>-4.8</ele><time>2022-04-13T12:09:46Z</time><name>PT4039</name></trkpt>
<trkpt lat="52.101429" lon="05.643355"><ele>-5</ele><time>2022-04-13T12:09:47Z</time><name>PT4040</name></trkpt>
<trkpt lat="52.101420" lon="05.643356"><ele>-4.9</ele><time>2022-04-13T12:09:48Z</time><name>PT4041</name></trkpt>
<trkpt lat="52.101410" lon="05.643360"><ele>-5</ele><time>2022-04-13T12:09:49Z</time><name>PT4042</name></trkpt>
<trkpt lat="52.101401" lon="05.643367"><ele>-5</ele><time>2022-04-13T12:09:50Z</time><name>PT4043</name></trkpt>
<trkpt lat="52.101393" lon="05.643373"><ele>-5.1</ele><time>2022-04-13T12:09:51Z</time><name>PT4044</name></trkpt>
<trkpt lat="52.101387" lon="05.643380"><ele>-5</ele><time>2022-04-13T12:09:52Z</time><name>PT4045</name></trkpt>
<trkpt lat="52.101378" lon="05.643385"><ele>-5</ele><time>2022-04-13T12:09:53Z</time><name>PT4046</name></trkpt>
<trkpt lat="52.101367" lon="05.643389"><ele>-5</ele><time>2022-04-13T12:09:54Z</time><name>PT4047</name></trkpt>
<trkpt lat="52.101358" lon="05.643393"><ele>-4.7</ele><time>2022-04-13T12:09:55Z</time><name>PT4048</name></trkpt>
<trkpt lat="52.101347" lon="05.643400"><ele>-4.5</ele><time>2022-04-13T12:09:56Z</time><name>PT4049</name></trkpt>
<trkpt lat="52.101335" lon="05.643406"><ele>-4.5</ele><time>2022-04-13T12:09:57Z</time><name>PT4050</name></trkpt>
<trkpt lat="52.101325" lon="05.643412"><ele>-4.4</ele><time>2022-04-13T12:09:58Z</time><name>PT4051</name></trkpt>
<trkpt lat="52.101316" lon="05.643418"><ele>-4.3</ele><time>2022-04-13T12:09:59Z</time><name>PT4052</name></trkpt>
<trkpt lat="52.101307" lon="05.643422"><ele>-4.6</ele><time>2022-04-13T12:10:00Z</time><name>PT4053</name></trkpt>
<trkpt lat="52.101299" lon="05.643428"><ele>-4.5</ele><time>2022-04-13T12:10:01Z</time><name>PT4054</name></trkpt>
<trkpt lat="52.101291" lon="05.643432"><ele>-4.5</ele><time>2022-04-13T12:10:02Z</time><name>PT4055</name></trkpt>
<trkpt lat="52.101281" lon="05.643437"><ele>-4.4</ele><time>2022-04-13T12:10:03Z</time><name>PT4056</name></trkpt>
<trkpt lat="52.101271" lon="05.643439"><ele>-4.5</ele><time>2022-04-13T12:10:04Z</time><name>PT4057</name></trkpt>
<trkpt lat="52.101261" lon="05.643446"><ele>-4.2</ele><time>2022-04-13T12:10:05Z</time><name>PT4058</name></trkpt>
<trkpt lat="52.101251" lon="05.643449"><ele>-4.2</ele><time>2022-04-13T12:10:06Z</time><name>PT4059</name></trkpt>
<trkpt lat="52.101241" lon="05.643453"><ele>-4.2</ele><time>2022-04-13T12:10:07Z</time><name>PT4060</name></trkpt>
<trkpt lat="52.101232" lon="05.643457"><ele>-4.1</ele><time>2022-04-13T12:10:08Z</time><name>PT4061</name></trkpt>
<trkpt lat="52.101222" lon="05.643462"><ele>-3.9</ele><time>2022-04-13T12:10:09Z</time><name>PT4062</name></trkpt>
<trkpt lat="52.101211" lon="05.643471"><ele>-3.8</ele><time>2022-04-13T12:10:10Z</time><name>PT4063</name></trkpt>
<trkpt lat="52.101202" lon="05.643476"><ele>-3.9</ele><time>2022-04-13T12:10:11Z</time><name>PT4064</name></trkpt>
<trkpt lat="52.101192" lon="05.643481"><ele>-3.7</ele><time>2022-04-13T12:10:12Z</time><name>PT4065</name></trkpt>
<trkpt lat="52.101185" lon="05.643485"><ele>-3.7</ele><time>2022-04-13T12:10:13Z</time><name>PT4066</name></trkpt>
<trkpt lat="52.101179" lon="05.643490"><ele>-3.6</ele><time>2022-04-13T12:10:14Z</time><name>PT4067</name></trkpt>
<trkpt lat="52.101173" lon="05.643491"><ele>-3.6</ele><time>2022-04-13T12:10:15Z</time><name>PT4068</name></trkpt>
<trkpt lat="52.101163" lon="05.643494"><ele>-3.5</ele><time>2022-04-13T12:10:16Z</time><name>PT4069</name></trkpt>
<trkpt lat="52.101154" lon="05.643500"><ele>-3.5</ele><time>2022-04-13T12:10:17Z</time><name>PT4070</name></trkpt>
<trkpt lat="52.101148" lon="05.643505"><ele>-3.4</ele><time>2022-04-13T12:10:18Z</time><name>PT4071</name></trkpt>
<trkpt lat="52.101141" lon="05.643513"><ele>-3.3</ele><time>2022-04-13T12:10:19Z</time><name>PT4072</name></trkpt>
<trkpt lat="52.101132" lon="05.643511"><ele>-3.3</ele><time>2022-04-13T12:10:20Z</time><name>PT4073</name></trkpt>
<trkpt lat="52.101123" lon="05.643515"><ele>-3.2</ele><time>2022-04-13T12:10:21Z</time><name>PT4074</name></trkpt>
<trkpt lat="52.101113" lon="05.643526"><ele>-3.1</ele><time>2022-04-13T12:10:22Z</time><name>PT4075</name></trkpt>
<trkpt lat="52.101107" lon="05.643534"><ele>-2.9</ele><time>2022-04-13T12:10:23Z</time><name>PT4076</name></trkpt>
<trkpt lat="52.101099" lon="05.643540"><ele>-3.1</ele><time>2022-04-13T12:10:24Z</time><name>PT4077</name></trkpt>
<trkpt lat="52.101091" lon="05.643547"><ele>-3.1</ele><time>2022-04-13T12:10:25Z</time><name>PT4078</name></trkpt>
<trkpt lat="52.101080" lon="05.643550"><ele>-3</ele><time>2022-04-13T12:10:26Z</time><name>PT4079</name></trkpt>
<trkpt lat="52.101070" lon="05.643555"><ele>-3.1</ele><time>2022-04-13T12:10:27Z</time><name>PT4080</name></trkpt>
<trkpt lat="52.101061" lon="05.643559"><ele>-2.9</ele><time>2022-04-13T12:10:28Z</time><name>PT4081</name></trkpt>
<trkpt lat="52.101051" lon="05.643568"><ele>-2.9</ele><time>2022-04-13T12:10:29Z</time><name>PT4082</name></trkpt>
<trkpt lat="52.101042" lon="05.643574"><ele>-2.8</ele><time>2022-04-13T12:10:30Z</time><name>PT4083</name></trkpt>
<trkpt lat="52.101032" lon="05.643583"><ele>-2.8</ele><time>2022-04-13T12:10:31Z</time><name>PT4084</name></trkpt>
<trkpt lat="52.101024" lon="05.643593"><ele>-2.9</ele><time>2022-04-13T12:10:32Z</time><name>PT4085</name></trkpt>
<trkpt lat="52.101012" lon="05.643598"><ele>-3</ele><time>2022-04-13T12:10:33Z</time><name>PT4086</name></trkpt>
<trkpt lat="52.101002" lon="05.643602"><ele>-2.9</ele><time>2022-04-13T12:10:34Z</time><name>PT4087</name></trkpt>
<trkpt lat="52.100993" lon="05.643611"><ele>-3</ele><time>2022-04-13T12:10:35Z</time><name>PT4088</name></trkpt>
<trkpt lat="52.100986" lon="05.643616"><ele>-2.9</ele><time>2022-04-13T12:10:36Z</time><name>PT4089</name></trkpt>
<trkpt lat="52.100974" lon="05.643619"><ele>-2.8</ele><time>2022-04-13T12:10:37Z</time><name>PT4090</name></trkpt>
<trkpt lat="52.100962" lon="05.643622"><ele>-2.7</ele><time>2022-04-13T12:10:38Z</time><name>PT4091</name></trkpt>
<trkpt lat="52.100954" lon="05.643626"><ele>-2.7</ele><time>2022-04-13T12:10:39Z</time><name>PT4092</name></trkpt>
<trkpt lat="52.100947" lon="05.643632"><ele>-2.5</ele><time>2022-04-13T12:10:40Z</time><name>PT4093</name></trkpt>
<trkpt lat="52.100938" lon="05.643639"><ele>-2.2</ele><time>2022-04-13T12:10:41Z</time><name>PT4094</name></trkpt>
<trkpt lat="52.100929" lon="05.643645"><ele>-2.3</ele><time>2022-04-13T12:10:42Z</time><name>PT4095</name></trkpt>
<trkpt lat="52.100921" lon="05.643651"><ele>-2.2</ele><time>2022-04-13T12:10:43Z</time><name>PT4096</name></trkpt>
<trkpt lat="52.100910" lon="05.643651"><ele>-2.1</ele><time>2022-04-13T12:10:44Z</time><name>PT4097</name></trkpt>
<trkpt lat="52.100898" lon="05.643658"><ele>-2</ele><time>2022-04-13T12:10:45Z</time><name>PT4098</name></trkpt>
<trkpt lat="52.100889" lon="05.643664"><ele>-1.9</ele><time>2022-04-13T12:10:46Z</time><name>PT4099</name></trkpt>
<trkpt lat="52.100878" lon="05.643670"><ele>-1.7</ele><time>2022-04-13T12:10:47Z</time><name>PT4100</name></trkpt>
<trkpt lat="52.100866" lon="05.643674"><ele>-1.8</ele><time>2022-04-13T12:10:48Z</time><name>PT4101</name></trkpt>
<trkpt lat="52.100856" lon="05.643676"><ele>-1.7</ele><time>2022-04-13T12:10:49Z</time><name>PT4102</name></trkpt>
<trkpt lat="52.100846" lon="05.643678"><ele>-1.6</ele><time>2022-04-13T12:10:50Z</time><name>PT4103</name></trkpt>
<trkpt lat="52.100836" lon="05.643683"><ele>-1.5</ele><time>2022-04-13T12:10:51Z</time><name>PT4104</name></trkpt>
<trkpt lat="52.100825" lon="05.643693"><ele>-1.4</ele><time>2022-04-13T12:10:52Z</time><name>PT4105</name></trkpt>
<trkpt lat="52.100816" lon="05.643699"><ele>-1.3</ele><time>2022-04-13T12:10:53Z</time><name>PT4106</name></trkpt>
<trkpt lat="52.100806" lon="05.643706"><ele>-1.2</ele><time>2022-04-13T12:10:54Z</time><name>PT4107</name></trkpt>
<trkpt lat="52.100795" lon="05.643714"><ele>-1.2</ele><time>2022-04-13T12:10:55Z</time><name>PT4108</name></trkpt>
<trkpt lat="52.100785" lon="05.643719"><ele>-1.3</ele><time>2022-04-13T12:10:56Z</time><name>PT4109</name></trkpt>
<trkpt lat="52.100775" lon="05.643721"><ele>-1.3</ele><time>2022-04-13T12:10:57Z</time><name>PT4110</name></trkpt>
<trkpt lat="52.100765" lon="05.643726"><ele>-1.1</ele><time>2022-04-13T12:10:58Z</time><name>PT4111</name></trkpt>
<trkpt lat="52.100757" lon="05.643733"><ele>0.9</ele><time>2022-04-13T12:10:59Z</time><name>PT4112</name></trkpt>
<trkpt lat="52.100748" lon="05.643741"><ele>0.8</ele><time>2022-04-13T12:11:00Z</time><name>PT4113</name></trkpt>
<trkpt lat="52.100742" lon="05.643747"><ele>0.7</ele><time>2022-04-13T12:11:01Z</time><name>PT4114</name></trkpt>
<trkpt lat="52.100732" lon="05.643756"><ele>0.7</ele><time>2022-04-13T12:11:02Z</time><name>PT4115</name></trkpt>
<trkpt lat="52.100720" lon="05.643764"><ele>0.7</ele><time>2022-04-13T12:11:03Z</time><name>PT4116</name></trkpt>
<trkpt lat="52.100708" lon="05.643770"><ele>0.8</ele><time>2022-04-13T12:11:04Z</time><name>PT4117</name></trkpt>
<trkpt lat="52.100699" lon="05.643777"><ele>0.8</ele><time>2022-04-13T12:11:05Z</time><name>PT4118</name></trkpt>
<trkpt lat="52.100688" lon="05.643780"><ele>0.7</ele><time>2022-04-13T12:11:06Z</time><name>PT4119</name></trkpt>
<trkpt lat="52.100678" lon="05.643789"><ele>0.7</ele><time>2022-04-13T12:11:07Z</time><name>PT4120</name></trkpt>
<trkpt lat="52.100667" lon="05.643793"><ele>0.5</ele><time>2022-04-13T12:11:08Z</time><name>PT4121</name></trkpt>
<trkpt lat="52.100657" lon="05.643798"><ele>0.3</ele><time>2022-04-13T12:11:09Z</time><name>PT4122</name></trkpt>
<trkpt lat="52.100647" lon="05.643805"><ele>0.2</ele><time>2022-04-13T12:11:10Z</time><name>PT4123</name></trkpt>
<trkpt lat="52.100636" lon="05.643810"><ele>0</ele><time>2022-04-13T12:11:11Z</time><name>PT4124</name></trkpt>
<trkpt lat="52.100627" lon="05.643813"><ele>0.1</ele><time>2022-04-13T12:11:12Z</time><name>PT4125</name></trkpt>
<trkpt lat="52.100618" lon="05.643815"><ele>0.2</ele><time>2022-04-13T12:11:13Z</time><name>PT4126</name></trkpt>
<trkpt lat="52.100611" lon="05.643820"><ele>0.1</ele><time>2022-04-13T12:11:14Z</time><name>PT4127</name></trkpt>
<trkpt lat="52.100604" lon="05.643825"><ele>0</ele><time>2022-04-13T12:11:15Z</time><name>PT4128</name></trkpt>
<trkpt lat="52.100593" lon="05.643832"><ele>0.1</ele><time>2022-04-13T12:11:16Z</time><name>PT4129</name></trkpt>
<trkpt lat="52.100585" lon="05.643837"><ele>0.2</ele><time>2022-04-13T12:11:17Z</time><name>PT4130</name></trkpt>
<trkpt lat="52.100578" lon="05.643841"><ele>0.4</ele><time>2022-04-13T12:11:18Z</time><name>PT4131</name></trkpt>
<trkpt lat="52.100571" lon="05.643845"><ele>0.3</ele><time>2022-04-13T12:11:19Z</time><name>PT4132</name></trkpt>
<trkpt lat="52.100565" lon="05.643846"><ele>0.4</ele><time>2022-04-13T12:11:20Z</time><name>PT4133</name></trkpt>
<trkpt lat="52.100562" lon="05.643845"><ele>0.3</ele><time>2022-04-13T12:11:21Z</time><name>PT4134</name></trkpt>
<trkpt lat="52.100560" lon="05.643846"><ele>0.4</ele><time>2022-04-13T12:11:22Z</time><name>PT4135</name></trkpt>
<trkpt lat="52.100557" lon="05.643845"><ele>0.4</ele><time>2022-04-13T12:11:23Z</time><name>PT4136</name></trkpt>
<trkpt lat="52.100547" lon="05.643834"><ele>0.4</ele><time>2022-04-13T12:11:27Z</time><name>PT4137</name></trkpt>
<trkpt lat="52.100540" lon="05.643838"><ele>0.3</ele><time>2022-04-13T12:11:28Z</time><name>PT4138</name></trkpt>
<trkpt lat="52.100525" lon="05.643845"><ele>0.2</ele><time>2022-04-13T12:11:29Z</time><name>PT4139</name></trkpt>
<trkpt lat="52.100513" lon="05.643845"><ele>0.3</ele><time>2022-04-13T12:11:30Z</time><name>PT4140</name></trkpt>
<trkpt lat="52.100503" lon="05.643847"><ele>0.5</ele><time>2022-04-13T12:11:31Z</time><name>PT4141</name></trkpt>
<trkpt lat="52.100492" lon="05.643846"><ele>0.4</ele><time>2022-04-13T12:11:32Z</time><name>PT4142</name></trkpt>
<trkpt lat="52.100482" lon="05.643844"><ele>0.5</ele><time>2022-04-13T12:11:33Z</time><name>PT4143</name></trkpt>
<trkpt lat="52.100471" lon="05.643843"><ele>0.6</ele><time>2022-04-13T12:11:34Z</time><name>PT4144</name></trkpt>
<trkpt lat="52.100462" lon="05.643839"><ele>0.7</ele><time>2022-04-13T12:11:35Z</time><name>PT4145</name></trkpt>
<trkpt lat="52.100449" lon="05.643837"><ele>0.6</ele><time>2022-04-13T12:11:36Z</time><name>PT4146</name></trkpt>
<trkpt lat="52.100439" lon="05.643835"><ele>0.6</ele><time>2022-04-13T12:11:37Z</time><name>PT4147</name></trkpt>
<trkpt lat="52.100429" lon="05.643830"><ele>0.7</ele><time>2022-04-13T12:11:38Z</time><name>PT4148</name></trkpt>
<trkpt lat="52.100420" lon="05.643823"><ele>0.6</ele><time>2022-04-13T12:11:39Z</time><name>PT4149</name></trkpt>
<trkpt lat="52.100411" lon="05.643817"><ele>0.7</ele><time>2022-04-13T12:11:40Z</time><name>PT4150</name></trkpt>
<trkpt lat="52.100402" lon="05.643812"><ele>0.7</ele><time>2022-04-13T12:11:41Z</time><name>PT4151</name></trkpt>
<trkpt lat="52.100393" lon="05.643804"><ele>0.9</ele><time>2022-04-13T12:11:42Z</time><name>PT4152</name></trkpt>
<trkpt lat="52.100384" lon="05.643798"><ele>1.1</ele><time>2022-04-13T12:11:43Z</time><name>PT4153</name></trkpt>
<trkpt lat="52.100377" lon="05.643795"><ele>1</ele><time>2022-04-13T12:11:44Z</time><name>PT4154</name></trkpt>
<trkpt lat="52.100376" lon="05.643793"><ele>1.1</ele><time>2022-04-13T12:11:45Z</time><name>PT4155</name></trkpt>
<trkpt lat="52.100376" lon="05.643791"><ele>1.3</ele><time>2022-04-13T12:11:46Z</time><name>PT4156</name></trkpt>
<trkpt lat="52.100375" lon="05.643789"><ele>1.3</ele><time>2022-04-13T12:11:47Z</time><name>PT4157</name></trkpt>
<trkpt lat="52.100370" lon="05.643789"><ele>0.9</ele><time>2022-04-13T12:11:57Z</time><name>PT4158</name></trkpt>
<trkpt lat="52.100360" lon="05.643792"><ele>0.8</ele><time>2022-04-13T12:11:58Z</time><name>PT4159</name></trkpt>
<trkpt lat="52.100351" lon="05.643782"><ele>0.8</ele><time>2022-04-13T12:11:59Z</time><name>PT4160</name></trkpt>
<trkpt lat="52.100343" lon="05.643771"><ele>1.1</ele><time>2022-04-13T12:12:00Z</time><name>PT4161</name></trkpt>
<trkpt lat="52.100337" lon="05.643769"><ele>1.1</ele><time>2022-04-13T12:12:01Z</time><name>PT4162</name></trkpt>
<trkpt lat="52.100328" lon="05.643768"><ele>1.2</ele><time>2022-04-13T12:12:02Z</time><name>PT4163</name></trkpt>
<trkpt lat="52.100318" lon="05.643764"><ele>1.1</ele><time>2022-04-13T12:12:03Z</time><name>PT4164</name></trkpt>
<trkpt lat="52.100306" lon="05.643761"><ele>1.2</ele><time>2022-04-13T12:12:04Z</time><name>PT4165</name></trkpt>
<trkpt lat="52.100297" lon="05.643756"><ele>1.2</ele><time>2022-04-13T12:12:05Z</time><name>PT4166</name></trkpt>
<trkpt lat="52.100288" lon="05.643755"><ele>1.2</ele><time>2022-04-13T12:12:06Z</time><name>PT4167</name></trkpt>
<trkpt lat="52.100278" lon="05.643752"><ele>1.1</ele><time>2022-04-13T12:12:07Z</time><name>PT4168</name></trkpt>
<trkpt lat="52.100269" lon="05.643751"><ele>1.2</ele><time>2022-04-13T12:12:08Z</time><name>PT4169</name></trkpt>
<trkpt lat="52.100257" lon="05.643749"><ele>1.4</ele><time>2022-04-13T12:12:09Z</time><name>PT4170</name></trkpt>
<trkpt lat="52.100245" lon="05.643747"><ele>1.4</ele><time>2022-04-13T12:12:10Z</time><name>PT4171</name></trkpt>
<trkpt lat="52.100234" lon="05.643744"><ele>1.5</ele><time>2022-04-13T12:12:11Z</time><name>PT4172</name></trkpt>
<trkpt lat="52.100228" lon="05.643736"><ele>1.6</ele><time>2022-04-13T12:12:12Z</time><name>PT4173</name></trkpt>
<trkpt lat="52.100221" lon="05.643731"><ele>1.6</ele><time>2022-04-13T12:12:13Z</time><name>PT4174</name></trkpt>
<trkpt lat="52.100216" lon="05.643729"><ele>1.8</ele><time>2022-04-13T12:12:14Z</time><name>PT4175</name></trkpt>
<trkpt lat="52.100210" lon="05.643725"><ele>1.9</ele><time>2022-04-13T12:12:15Z</time><name>PT4176</name></trkpt>
<trkpt lat="52.100204" lon="05.643719"><ele>1.8</ele><time>2022-04-13T12:12:16Z</time><name>PT4177</name></trkpt>
<trkpt lat="52.100197" lon="05.643716"><ele>2</ele><time>2022-04-13T12:12:17Z</time><name>PT4178</name></trkpt>
<trkpt lat="52.100190" lon="05.643708"><ele>1.9</ele><time>2022-04-13T12:12:18Z</time><name>PT4179</name></trkpt>
<trkpt lat="52.100181" lon="05.643707"><ele>1.9</ele><time>2022-04-13T12:12:19Z</time><name>PT4180</name></trkpt>
<trkpt lat="52.100176" lon="05.643700"><ele>2.1</ele><time>2022-04-13T12:12:20Z</time><name>PT4181</name></trkpt>
<trkpt lat="52.100170" lon="05.643691"><ele>2.1</ele><time>2022-04-13T12:12:21Z</time><name>PT4182</name></trkpt>
<trkpt lat="52.100163" lon="05.643685"><ele>2.5</ele><time>2022-04-13T12:12:22Z</time><name>PT4183</name></trkpt>
<trkpt lat="52.100157" lon="05.643676"><ele>2.6</ele><time>2022-04-13T12:12:23Z</time><name>PT4184</name></trkpt>
<trkpt lat="52.100151" lon="05.643670"><ele>2.7</ele><time>2022-04-13T12:12:24Z</time><name>PT4185</name></trkpt>
<trkpt lat="52.100145" lon="05.643662"><ele>2.7</ele><time>2022-04-13T12:12:25Z</time><name>PT4186</name></trkpt>
<trkpt lat="52.100140" lon="05.643653"><ele>2.6</ele><time>2022-04-13T12:12:26Z</time><name>PT4187</name></trkpt>
<trkpt lat="52.100137" lon="05.643646"><ele>2.6</ele><time>2022-04-13T12:12:27Z</time><name>PT4188</name></trkpt>
<trkpt lat="52.100135" lon="05.643636"><ele>2.6</ele><time>2022-04-13T12:12:28Z</time><name>PT4189</name></trkpt>
<trkpt lat="52.100130" lon="05.643629"><ele>3</ele><time>2022-04-13T12:12:29Z</time><name>PT4190</name></trkpt>
<trkpt lat="52.100124" lon="05.643621"><ele>3</ele><time>2022-04-13T12:12:30Z</time><name>PT4191</name></trkpt>
<trkpt lat="52.100118" lon="05.643615"><ele>3.2</ele><time>2022-04-13T12:12:31Z</time><name>PT4192</name></trkpt>
<trkpt lat="52.100112" lon="05.643607"><ele>3.4</ele><time>2022-04-13T12:12:32Z</time><name>PT4193</name></trkpt>
<trkpt lat="52.100106" lon="05.643602"><ele>3.5</ele><time>2022-04-13T12:12:33Z</time><name>PT4194</name></trkpt>
<trkpt lat="52.100100" lon="05.643594"><ele>3.3</ele><time>2022-04-13T12:12:34Z</time><name>PT4195</name></trkpt>
<trkpt lat="52.100094" lon="05.643589"><ele>3.3</ele><time>2022-04-13T12:12:35Z</time><name>PT4196</name></trkpt>
<trkpt lat="52.100086" lon="05.643585"><ele>3.4</ele><time>2022-04-13T12:12:36Z</time><name>PT4197</name></trkpt>
<trkpt lat="52.100078" lon="05.643581"><ele>3.1</ele><time>2022-04-13T12:12:37Z</time><name>PT4198</name></trkpt>
<trkpt lat="52.100071" lon="05.643575"><ele>3.3</ele><time>2022-04-13T12:12:38Z</time><name>PT4199</name></trkpt>
<trkpt lat="52.100064" lon="05.643567"><ele>3.6</ele><time>2022-04-13T12:12:39Z</time><name>PT4200</name></trkpt>
<trkpt lat="52.100057" lon="05.643559"><ele>3.5</ele><time>2022-04-13T12:12:40Z</time><name>PT4201</name></trkpt>
<trkpt lat="52.100048" lon="05.643556"><ele>3.7</ele><time>2022-04-13T12:12:41Z</time><name>PT4202</name></trkpt>
<trkpt lat="52.100040" lon="05.643551"><ele>3.5</ele><time>2022-04-13T12:12:42Z</time><name>PT4203</name></trkpt>
<trkpt lat="52.100032" lon="05.643547"><ele>3.4</ele><time>2022-04-13T12:12:43Z</time><name>PT4204</name></trkpt>
<trkpt lat="52.100024" lon="05.643541"><ele>3.5</ele><time>2022-04-13T12:12:44Z</time><name>PT4205</name></trkpt>
<trkpt lat="52.100015" lon="05.643539"><ele>3.4</ele><time>2022-04-13T12:12:45Z</time><name>PT4206</name></trkpt>
<trkpt lat="52.100007" lon="05.643533"><ele>3.5</ele><time>2022-04-13T12:12:46Z</time><name>PT4207</name></trkpt>
<trkpt lat="52.099999" lon="05.643522"><ele>3.5</ele><time>2022-04-13T12:12:47Z</time><name>PT4208</name></trkpt>
<trkpt lat="52.099991" lon="05.643514"><ele>3.5</ele><time>2022-04-13T12:12:48Z</time><name>PT4209</name></trkpt>
<trkpt lat="52.099984" lon="05.643509"><ele>3.5</ele><time>2022-04-13T12:12:49Z</time><name>PT4210</name></trkpt>
<trkpt lat="52.099977" lon="05.643500"><ele>3.7</ele><time>2022-04-13T12:12:50Z</time><name>PT4211</name></trkpt>
<trkpt lat="52.099969" lon="05.643493"><ele>3.7</ele><time>2022-04-13T12:12:51Z</time><name>PT4212</name></trkpt>
<trkpt lat="52.099962" lon="05.643485"><ele>3.8</ele><time>2022-04-13T12:12:52Z</time><name>PT4213</name></trkpt>
<trkpt lat="52.099953" lon="05.643482"><ele>3.9</ele><time>2022-04-13T12:12:53Z</time><name>PT4214</name></trkpt>
<trkpt lat="52.099945" lon="05.643474"><ele>3.9</ele><time>2022-04-13T12:12:54Z</time><name>PT4215</name></trkpt>
<trkpt lat="52.099940" lon="05.643470"><ele>3.9</ele><time>2022-04-13T12:12:55Z</time><name>PT4216</name></trkpt>
<trkpt lat="52.099933" lon="05.643464"><ele>3.8</ele><time>2022-04-13T12:12:56Z</time><name>PT4217</name></trkpt>
<trkpt lat="52.099925" lon="05.643461"><ele>4</ele><time>2022-04-13T12:12:57Z</time><name>PT4218</name></trkpt>
<trkpt lat="52.099916" lon="05.643456"><ele>4</ele><time>2022-04-13T12:12:58Z</time><name>PT4219</name></trkpt>
<trkpt lat="52.099910" lon="05.643446"><ele>4.2</ele><time>2022-04-13T12:12:59Z</time><name>PT4220</name></trkpt>
<trkpt lat="52.099902" lon="05.643440"><ele>4.4</ele><time>2022-04-13T12:13:00Z</time><name>PT4221</name></trkpt>
<trkpt lat="52.099894" lon="05.643433"><ele>4.2</ele><time>2022-04-13T12:13:01Z</time><name>PT4222</name></trkpt>
<trkpt lat="52.099886" lon="05.643426"><ele>4.2</ele><time>2022-04-13T12:13:02Z</time><name>PT4223</name></trkpt>
<trkpt lat="52.099879" lon="05.643415"><ele>4.3</ele><time>2022-04-13T12:13:03Z</time><name>PT4224</name></trkpt>
<trkpt lat="52.099871" lon="05.643408"><ele>4.4</ele><time>2022-04-13T12:13:04Z</time><name>PT4225</name></trkpt>
<trkpt lat="52.099861" lon="05.643405"><ele>4.4</ele><time>2022-04-13T12:13:05Z</time><name>PT4226</name></trkpt>
<trkpt lat="52.099855" lon="05.643398"><ele>4.6</ele><time>2022-04-13T12:13:06Z</time><name>PT4227</name></trkpt>
<trkpt lat="52.099846" lon="05.643387"><ele>4.7</ele><time>2022-04-13T12:13:07Z</time><name>PT4228</name></trkpt>
<trkpt lat="52.099840" lon="05.643377"><ele>4.6</ele><time>2022-04-13T12:13:08Z</time><name>PT4229</name></trkpt>
<trkpt lat="52.099832" lon="05.643373"><ele>4.8</ele><time>2022-04-13T12:13:09Z</time><name>PT4230</name></trkpt>
<trkpt lat="52.099825" lon="05.643363"><ele>4.9</ele><time>2022-04-13T12:13:10Z</time><name>PT4231</name></trkpt>
<trkpt lat="52.099818" lon="05.643357"><ele>4.6</ele><time>2022-04-13T12:13:11Z</time><name>PT4232</name></trkpt>
<trkpt lat="52.099810" lon="05.643351"><ele>4.6</ele><time>2022-04-13T12:13:12Z</time><name>PT4233</name></trkpt>
<trkpt lat="52.099803" lon="05.643348"><ele>4.5</ele><time>2022-04-13T12:13:13Z</time><name>PT4234</name></trkpt>
<trkpt lat="52.099797" lon="05.643344"><ele>4.6</ele><time>2022-04-13T12:13:14Z</time><name>PT4235</name></trkpt>
<trkpt lat="52.099790" lon="05.643335"><ele>4.7</ele><time>2022-04-13T12:13:15Z</time><name>PT4236</name></trkpt>
<trkpt lat="52.099781" lon="05.643327"><ele>4.9</ele><time>2022-04-13T12:13:16Z</time><name>PT4237</name></trkpt>
<trkpt lat="52.099773" lon="05.643316"><ele>5.3</ele><time>2022-04-13T12:13:17Z</time><name>PT4238</name></trkpt>
<trkpt lat="52.099767" lon="05.643310"><ele>5.3</ele><time>2022-04-13T12:13:18Z</time><name>PT4239</name></trkpt>
<trkpt lat="52.099758" lon="05.643303"><ele>5.4</ele><time>2022-04-13T12:13:19Z</time><name>PT4240</name></trkpt>
<trkpt lat="52.099750" lon="05.643296"><ele>5.5</ele><time>2022-04-13T12:13:20Z</time><name>PT4241</name></trkpt>
<trkpt lat="52.099743" lon="05.643287"><ele>5.4</ele><time>2022-04-13T12:13:21Z</time><name>PT4242</name></trkpt>
<trkpt lat="52.099734" lon="05.643280"><ele>5.5</ele><time>2022-04-13T12:13:22Z</time><name>PT4243</name></trkpt>
<trkpt lat="52.099726" lon="05.643276"><ele>5.5</ele><time>2022-04-13T12:13:23Z</time><name>PT4244</name></trkpt>
<trkpt lat="52.099720" lon="05.643272"><ele>5.6</ele><time>2022-04-13T12:13:24Z</time><name>PT4245</name></trkpt>
<trkpt lat="52.099712" lon="05.643263"><ele>5.6</ele><time>2022-04-13T12:13:25Z</time><name>PT4246</name></trkpt>
<trkpt lat="52.099704" lon="05.643254"><ele>5.7</ele><time>2022-04-13T12:13:26Z</time><name>PT4247</name></trkpt>
<trkpt lat="52.099696" lon="05.643248"><ele>5.7</ele><time>2022-04-13T12:13:27Z</time><name>PT4248</name></trkpt>
<trkpt lat="52.099687" lon="05.643240"><ele>6</ele><time>2022-04-13T12:13:28Z</time><name>PT4249</name></trkpt>
<trkpt lat="52.099678" lon="05.643228"><ele>6.3</ele><time>2022-04-13T12:13:29Z</time><name>PT4250</name></trkpt>
<trkpt lat="52.099670" lon="05.643211"><ele>6.4</ele><time>2022-04-13T12:13:30Z</time><name>PT4251</name></trkpt>
<trkpt lat="52.099663" lon="05.643204"><ele>6.4</ele><time>2022-04-13T12:13:31Z</time><name>PT4252</name></trkpt>
<trkpt lat="52.099653" lon="05.643199"><ele>6.2</ele><time>2022-04-13T12:13:32Z</time><name>PT4253</name></trkpt>
<trkpt lat="52.099646" lon="05.643190"><ele>6.2</ele><time>2022-04-13T12:13:33Z</time><name>PT4254</name></trkpt>
<trkpt lat="52.099642" lon="05.643188"><ele>6.2</ele><time>2022-04-13T12:13:34Z</time><name>PT4255</name></trkpt>
<trkpt lat="52.099635" lon="05.643183"><ele>6.2</ele><time>2022-04-13T12:13:35Z</time><name>PT4256</name></trkpt>
<trkpt lat="52.099629" lon="05.643175"><ele>6.2</ele><time>2022-04-13T12:13:36Z</time><name>PT4257</name></trkpt>
<trkpt lat="52.099623" lon="05.643166"><ele>6.4</ele><time>2022-04-13T12:13:37Z</time><name>PT4258</name></trkpt>
<trkpt lat="52.099615" lon="05.643159"><ele>6.2</ele><time>2022-04-13T12:13:38Z</time><name>PT4259</name></trkpt>
<trkpt lat="52.099607" lon="05.643155"><ele>6.2</ele><time>2022-04-13T12:13:39Z</time><name>PT4260</name></trkpt>
<trkpt lat="52.099600" lon="05.643149"><ele>6.3</ele><time>2022-04-13T12:13:40Z</time><name>PT4261</name></trkpt>
<trkpt lat="52.099593" lon="05.643141"><ele>6.2</ele><time>2022-04-13T12:13:41Z</time><name>PT4262</name></trkpt>
<trkpt lat="52.099586" lon="05.643135"><ele>6.3</ele><time>2022-04-13T12:13:42Z</time><name>PT4263</name></trkpt>
<trkpt lat="52.099576" lon="05.643132"><ele>6.1</ele><time>2022-04-13T12:13:43Z</time><name>PT4264</name></trkpt>
<trkpt lat="52.099568" lon="05.643127"><ele>6.1</ele><time>2022-04-13T12:13:44Z</time><name>PT4265</name></trkpt>
<trkpt lat="52.099562" lon="05.643120"><ele>6.3</ele><time>2022-04-13T12:13:45Z</time><name>PT4266</name></trkpt>
<trkpt lat="52.099555" lon="05.643115"><ele>6.4</ele><time>2022-04-13T12:13:46Z</time><name>PT4267</name></trkpt>
<trkpt lat="52.099549" lon="05.643109"><ele>6.4</ele><time>2022-04-13T12:13:47Z</time><name>PT4268</name></trkpt>
<trkpt lat="52.099542" lon="05.643103"><ele>6.5</ele><time>2022-04-13T12:13:48Z</time><name>PT4269</name></trkpt>
<trkpt lat="52.099535" lon="05.643092"><ele>6.4</ele><time>2022-04-13T12:13:49Z</time><name>PT4270</name></trkpt>
<trkpt lat="52.099528" lon="05.643088"><ele>6.3</ele><time>2022-04-13T12:13:50Z</time><name>PT4271</name></trkpt>
<trkpt lat="52.099519" lon="05.643082"><ele>6.2</ele><time>2022-04-13T12:13:51Z</time><name>PT4272</name></trkpt>
<trkpt lat="52.099512" lon="05.643078"><ele>6.2</ele><time>2022-04-13T12:13:52Z</time><name>PT4273</name></trkpt>
<trkpt lat="52.099508" lon="05.643081"><ele>6.4</ele><time>2022-04-13T12:13:53Z</time><name>PT4274</name></trkpt>
<trkpt lat="52.099504" lon="05.643080"><ele>6.5</ele><time>2022-04-13T12:13:54Z</time><name>PT4275</name></trkpt>
<trkpt lat="52.099462" lon="05.643078"><ele>43</ele><time>2022-04-13T12:29:46Z</time><name>PT4276</name></trkpt>
<trkpt lat="52.099471" lon="05.643090"><ele>43.3</ele><time>2022-04-13T12:29:57Z</time><name>PT4277</name></trkpt>
<trkpt lat="52.099470" lon="05.643082"><ele>43.3</ele><time>2022-04-13T12:29:58Z</time><name>PT4278</name></trkpt>
<trkpt lat="52.099470" lon="05.643078"><ele>43.3</ele><time>2022-04-13T12:29:59Z</time><name>PT4279</name></trkpt>
<trkpt lat="52.099466" lon="05.643081"><ele>43.2</ele><time>2022-04-13T12:30:00Z</time><name>PT4280</name></trkpt>
<trkpt lat="52.099456" lon="05.643060"><ele>43.3</ele><time>2022-04-13T12:30:09Z</time><name>PT4281</name></trkpt>
<trkpt lat="52.099458" lon="05.643059"><ele>43.2</ele><time>2022-04-13T12:30:10Z</time><name>PT4282</name></trkpt>
<trkpt lat="52.099453" lon="05.643060"><ele>43.1</ele><time>2022-04-13T12:30:11Z</time><name>PT4283</name></trkpt>
<trkpt lat="52.099452" lon="05.643057"><ele>42.9</ele><time>2022-04-13T12:30:12Z</time><name>PT4284</name></trkpt>
<trkpt lat="52.099446" lon="05.643070"><ele>42.8</ele><time>2022-04-13T12:30:13Z</time><name>PT4285</name></trkpt>
<trkpt lat="52.099449" lon="05.643085"><ele>42.8</ele><time>2022-04-13T12:30:16Z</time><name>PT4286</name></trkpt>
<trkpt lat="52.099453" lon="05.643088"><ele>42.8</ele><time>2022-04-13T12:30:17Z</time><name>PT4287</name></trkpt>
<trkpt lat="52.099459" lon="05.643080"><ele>42.8</ele><time>2022-04-13T12:30:18Z</time><name>PT4288</name></trkpt>
<trkpt lat="52.099464" lon="05.643075"><ele>42.8</ele><time>2022-04-13T12:30:19Z</time><name>PT4289</name></trkpt>
<trkpt lat="52.099465" lon="05.643074"><ele>42.6</ele><time>2022-04-13T12:31:06Z</time><name>PT4290</name></trkpt>
<trkpt lat="52.099466" lon="05.643068"><ele>42.8</ele><time>2022-04-13T12:31:07Z</time><name>PT4291</name></trkpt>
<trkpt lat="52.099471" lon="05.643057"><ele>42.9</ele><time>2022-04-13T12:31:08Z</time><name>PT4292</name></trkpt>
<trkpt lat="52.099459" lon="05.643068"><ele>43</ele><time>2022-04-13T12:31:09Z</time><name>PT4293</name></trkpt>
<trkpt lat="52.099454" lon="05.643073"><ele>43.2</ele><time>2022-04-13T12:31:10Z</time><name>PT4294</name></trkpt>
<trkpt lat="52.099445" lon="05.643076"><ele>43.1</ele><time>2022-04-13T12:31:11Z</time><name>PT4295</name></trkpt>
<trkpt lat="52.099437" lon="05.643079"><ele>43</ele><time>2022-04-13T12:31:12Z</time><name>PT4296</name></trkpt>
<trkpt lat="52.099431" lon="05.643085"><ele>42.9</ele><time>2022-04-13T12:31:13Z</time><name>PT4297</name></trkpt>
<trkpt lat="52.099423" lon="05.643091"><ele>43</ele><time>2022-04-13T12:31:14Z</time><name>PT4298</name></trkpt>
<trkpt lat="52.099412" lon="05.643092"><ele>42.9</ele><time>2022-04-13T12:31:15Z</time><name>PT4299</name></trkpt>
<trkpt lat="52.099406" lon="05.643099"><ele>42.9</ele><time>2022-04-13T12:31:16Z</time><name>PT4300</name></trkpt>
<trkpt lat="52.099400" lon="05.643098"><ele>42.9</ele><time>2022-04-13T12:31:17Z</time><name>PT4301</name></trkpt>
<trkpt lat="52.099401" lon="05.643098"><ele>43.2</ele><time>2022-04-13T12:31:18Z</time><name>PT4302</name></trkpt>
<trkpt lat="52.099400" lon="05.643100"><ele>43.1</ele><time>2022-04-13T12:31:19Z</time><name>PT4303</name></trkpt>
<trkpt lat="52.099399" lon="05.643103"><ele>43.1</ele><time>2022-04-13T12:31:20Z</time><name>PT4304</name></trkpt>
<trkpt lat="52.099397" lon="05.643111"><ele>43</ele><time>2022-04-13T12:31:21Z</time><name>PT4305</name></trkpt>
<trkpt lat="52.099397" lon="05.643120"><ele>43.2</ele><time>2022-04-13T12:31:22Z</time><name>PT4306</name></trkpt>
<trkpt lat="52.099396" lon="05.643132"><ele>42.9</ele><time>2022-04-13T12:31:23Z</time><name>PT4307</name></trkpt>
<trkpt lat="52.099398" lon="05.643143"><ele>43.1</ele><time>2022-04-13T12:31:24Z</time><name>PT4308</name></trkpt>
<trkpt lat="52.099398" lon="05.643155"><ele>43.2</ele><time>2022-04-13T12:31:25Z</time><name>PT4309</name></trkpt>
<trkpt lat="52.099399" lon="05.643164"><ele>43.2</ele><time>2022-04-13T12:31:26Z</time><name>PT4310</name></trkpt>
<trkpt lat="52.099396" lon="05.643171"><ele>43.3</ele><time>2022-04-13T12:31:27Z</time><name>PT4311</name></trkpt>
<trkpt lat="52.099394" lon="05.643175"><ele>43.3</ele><time>2022-04-13T12:31:28Z</time><name>PT4312</name></trkpt>
<trkpt lat="52.099392" lon="05.643178"><ele>43.4</ele><time>2022-04-13T12:31:29Z</time><name>PT4313</name></trkpt>
<trkpt lat="52.099389" lon="05.643183"><ele>43.6</ele><time>2022-04-13T12:31:30Z</time><name>PT4314</name></trkpt>
<trkpt lat="52.099383" lon="05.643191"><ele>43.7</ele><time>2022-04-13T12:31:31Z</time><name>PT4315</name></trkpt>
<trkpt lat="52.099379" lon="05.643196"><ele>43.8</ele><time>2022-04-13T12:31:32Z</time><name>PT4316</name></trkpt>
<trkpt lat="52.099376" lon="05.643200"><ele>43.9</ele><time>2022-04-13T12:31:33Z</time><name>PT4317</name></trkpt>
<trkpt lat="52.099373" lon="05.643203"><ele>43.8</ele><time>2022-04-13T12:31:34Z</time><name>PT4318</name></trkpt>
<trkpt lat="52.099366" lon="05.643221"><ele>43.6</ele><time>2022-04-13T12:31:43Z</time><name>PT4319</name></trkpt>
<trkpt lat="52.099365" lon="05.643243"><ele>43.5</ele><time>2022-04-13T12:31:44Z</time><name>PT4320</name></trkpt>
<trkpt lat="52.099362" lon="05.643242"><ele>43.2</ele><time>2022-04-13T12:31:45Z</time><name>PT4321</name></trkpt>
<trkpt lat="52.099359" lon="05.643248"><ele>43</ele><time>2022-04-13T12:31:46Z</time><name>PT4322</name></trkpt>
<trkpt lat="52.099357" lon="05.643250"><ele>42.7</ele><time>2022-04-13T12:31:47Z</time><name>PT4323</name></trkpt>
<trkpt lat="52.099340" lon="05.643240"><ele>42.3</ele><time>2022-04-13T12:31:48Z</time><name>PT4324</name></trkpt>
<trkpt lat="52.099330" lon="05.643243"><ele>42.1</ele><time>2022-04-13T12:31:49Z</time><name>PT4325</name></trkpt>
<trkpt lat="52.099327" lon="05.643242"><ele>41.8</ele><time>2022-04-13T12:31:50Z</time><name>PT4326</name></trkpt>
<trkpt lat="52.099325" lon="05.643245"><ele>41.5</ele><time>2022-04-13T12:31:51Z</time><name>PT4327</name></trkpt>
<trkpt lat="52.099318" lon="05.643248"><ele>41.4</ele><time>2022-04-13T12:31:52Z</time><name>PT4328</name></trkpt>
<trkpt lat="52.099316" lon="05.643251"><ele>41.1</ele><time>2022-04-13T12:31:53Z</time><name>PT4329</name></trkpt>
<trkpt lat="52.099312" lon="05.643254"><ele>40.7</ele><time>2022-04-13T12:31:54Z</time><name>PT4330</name></trkpt>
<trkpt lat="52.099307" lon="05.643256"><ele>40.5</ele><time>2022-04-13T12:31:55Z</time><name>PT4331</name></trkpt>
<trkpt lat="52.099306" lon="05.643266"><ele>40.2</ele><time>2022-04-13T12:31:56Z</time><name>PT4332</name></trkpt>
<trkpt lat="52.099304" lon="05.643276"><ele>40</ele><time>2022-04-13T12:31:57Z</time><name>PT4333</name></trkpt>
<trkpt lat="52.099302" lon="05.643281"><ele>40.1</ele><time>2022-04-13T12:31:58Z</time><name>PT4334</name></trkpt>
<trkpt lat="52.099304" lon="05.643295"><ele>40</ele><time>2022-04-13T12:31:59Z</time><name>PT4335</name></trkpt>
<trkpt lat="52.099303" lon="05.643307"><ele>39.9</ele><time>2022-04-13T12:32:00Z</time><name>PT4336</name></trkpt>
<trkpt lat="52.099303" lon="05.643317"><ele>40</ele><time>2022-04-13T12:32:01Z</time><name>PT4337</name></trkpt>
<trkpt lat="52.099302" lon="05.643325"><ele>40</ele><time>2022-04-13T12:32:02Z</time><name>PT4338</name></trkpt>
<trkpt lat="52.099299" lon="05.643331"><ele>39.9</ele><time>2022-04-13T12:32:03Z</time><name>PT4339</name></trkpt>
<trkpt lat="52.099297" lon="05.643337"><ele>40</ele><time>2022-04-13T12:32:04Z</time><name>PT4340</name></trkpt>
<trkpt lat="52.099295" lon="05.643346"><ele>40.2</ele><time>2022-04-13T12:32:08Z</time><name>PT4341</name></trkpt>
<trkpt lat="52.099274" lon="05.643349"><ele>40.3</ele><time>2022-04-13T12:32:09Z</time><name>PT4342</name></trkpt>
<trkpt lat="52.099264" lon="05.643348"><ele>40.3</ele><time>2022-04-13T12:32:10Z</time><name>PT4343</name></trkpt>
<trkpt lat="52.099255" lon="05.643361"><ele>40.1</ele><time>2022-04-13T12:32:11Z</time><name>PT4344</name></trkpt>
<trkpt lat="52.099249" lon="05.643371"><ele>39.9</ele><time>2022-04-13T12:32:12Z</time><name>PT4345</name></trkpt>
<trkpt lat="52.099248" lon="05.643380"><ele>39.9</ele><time>2022-04-13T12:32:13Z</time><name>PT4346</name></trkpt>
<trkpt lat="52.099245" lon="05.643373"><ele>39.9</ele><time>2022-04-13T12:32:14Z</time><name>PT4347</name></trkpt>
<trkpt lat="52.099240" lon="05.643380"><ele>39.9</ele><time>2022-04-13T12:32:15Z</time><name>PT4348</name></trkpt>
<trkpt lat="52.099236" lon="05.643395"><ele>40.1</ele><time>2022-04-13T12:32:16Z</time><name>PT4349</name></trkpt>
<trkpt lat="52.099234" lon="05.643401"><ele>40.4</ele><time>2022-04-13T12:32:17Z</time><name>PT4350</name></trkpt>
<trkpt lat="52.099229" lon="05.643403"><ele>40.6</ele><time>2022-04-13T12:32:18Z</time><name>PT4351</name></trkpt>
<trkpt lat="52.099218" lon="05.643407"><ele>40.8</ele><time>2022-04-13T12:32:19Z</time><name>PT4352</name></trkpt>
<trkpt lat="52.099212" lon="05.643403"><ele>41.1</ele><time>2022-04-13T12:32:22Z</time><name>PT4353</name></trkpt>
<trkpt lat="52.099203" lon="05.643406"><ele>40.9</ele><time>2022-04-13T12:32:23Z</time><name>PT4354</name></trkpt>
<trkpt lat="52.099191" lon="05.643420"><ele>41.2</ele><time>2022-04-13T12:32:24Z</time><name>PT4355</name></trkpt>
<trkpt lat="52.099182" lon="05.643423"><ele>41.3</ele><time>2022-04-13T12:32:25Z</time><name>PT4356</name></trkpt>
<trkpt lat="52.099176" lon="05.643425"><ele>41.5</ele><time>2022-04-13T12:32:26Z</time><name>PT4357</name></trkpt>
<trkpt lat="52.099170" lon="05.643433"><ele>41.6</ele><time>2022-04-13T12:32:27Z</time><name>PT4358</name></trkpt>
<trkpt lat="52.099159" lon="05.643440"><ele>41.9</ele><time>2022-04-13T12:32:28Z</time><name>PT4359</name></trkpt>
<trkpt lat="52.099150" lon="05.643435"><ele>42</ele><time>2022-04-13T12:32:29Z</time><name>PT4360</name></trkpt>
<trkpt lat="52.099125" lon="05.643423"><ele>42.3</ele><time>2022-04-13T12:32:30Z</time><name>PT4361</name></trkpt>
<trkpt lat="52.099118" lon="05.643427"><ele>42.4</ele><time>2022-04-13T12:32:31Z</time><name>PT4362</name></trkpt>
<trkpt lat="52.099110" lon="05.643432"><ele>42.7</ele><time>2022-04-13T12:32:32Z</time><name>PT4363</name></trkpt>
<trkpt lat="52.099106" lon="05.643439"><ele>42.8</ele><time>2022-04-13T12:32:33Z</time><name>PT4364</name></trkpt>
<trkpt lat="52.099101" lon="05.643445"><ele>43.1</ele><time>2022-04-13T12:32:34Z</time><name>PT4365</name></trkpt>
<trkpt lat="52.099091" lon="05.643448"><ele>43.2</ele><time>2022-04-13T12:32:35Z</time><name>PT4366</name></trkpt>
<trkpt lat="52.099077" lon="05.643458"><ele>43.2</ele><time>2022-04-13T12:32:36Z</time><name>PT4367</name></trkpt>
<trkpt lat="52.099073" lon="05.643470"><ele>43.3</ele><time>2022-04-13T12:32:37Z</time><name>PT4368</name></trkpt>
<trkpt lat="52.099071" lon="05.643480"><ele>43.3</ele><time>2022-04-13T12:32:38Z</time><name>PT4369</name></trkpt>
<trkpt lat="52.099069" lon="05.643492"><ele>43.3</ele><time>2022-04-13T12:32:39Z</time><name>PT4370</name></trkpt>
<trkpt lat="52.099068" lon="05.643499"><ele>43.6</ele><time>2022-04-13T12:32:40Z</time><name>PT4371</name></trkpt>
<trkpt lat="52.099060" lon="05.643503"><ele>43.6</ele><time>2022-04-13T12:32:41Z</time><name>PT4372</name></trkpt>
<trkpt lat="52.099063" lon="05.643518"><ele>43.8</ele><time>2022-04-13T12:32:42Z</time><name>PT4373</name></trkpt>
<trkpt lat="52.099058" lon="05.643530"><ele>43.8</ele><time>2022-04-13T12:32:43Z</time><name>PT4374</name></trkpt>
<trkpt lat="52.099054" lon="05.643536"><ele>43.7</ele><time>2022-04-13T12:32:44Z</time><name>PT4375</name></trkpt>
<trkpt lat="52.099050" lon="05.643533"><ele>43.7</ele><time>2022-04-13T12:32:45Z</time><name>PT4376</name></trkpt>
<trkpt lat="52.099047" lon="05.643542"><ele>43.6</ele><time>2022-04-13T12:32:46Z</time><name>PT4377</name></trkpt>
<trkpt lat="52.099043" lon="05.643564"><ele>43.3</ele><time>2022-04-13T12:32:47Z</time><name>PT4378</name></trkpt>
<trkpt lat="52.099038" lon="05.643572"><ele>43.3</ele><time>2022-04-13T12:32:48Z</time><name>PT4379</name></trkpt>
<trkpt lat="52.099035" lon="05.643582"><ele>43.1</ele><time>2022-04-13T12:32:49Z</time><name>PT4380</name></trkpt>
<trkpt lat="52.099032" lon="05.643591"><ele>42.9</ele><time>2022-04-13T12:32:50Z</time><name>PT4381</name></trkpt>
<trkpt lat="52.099030" lon="05.643599"><ele>42.8</ele><time>2022-04-13T12:32:51Z</time><name>PT4382</name></trkpt>
<trkpt lat="52.099027" lon="05.643606"><ele>42.6</ele><time>2022-04-13T12:32:52Z</time><name>PT4383</name></trkpt>
<trkpt lat="52.099021" lon="05.643618"><ele>42.5</ele><time>2022-04-13T12:32:53Z</time><name>PT4384</name></trkpt>
<trkpt lat="52.099009" lon="05.643623"><ele>42.2</ele><time>2022-04-13T12:32:54Z</time><name>PT4385</name></trkpt>
<trkpt lat="52.099000" lon="05.643629"><ele>42.2</ele><time>2022-04-13T12:32:55Z</time><name>PT4386</name></trkpt>
<trkpt lat="52.098996" lon="05.643639"><ele>42.2</ele><time>2022-04-13T12:32:56Z</time><name>PT4387</name></trkpt>
<trkpt lat="52.098989" lon="05.643651"><ele>42.3</ele><time>2022-04-13T12:32:57Z</time><name>PT4388</name></trkpt>
<trkpt lat="52.098980" lon="05.643659"><ele>42.5</ele><time>2022-04-13T12:32:58Z</time><name>PT4389</name></trkpt>
<trkpt lat="52.098976" lon="05.643664"><ele>42.7</ele><time>2022-04-13T12:32:59Z</time><name>PT4390</name></trkpt>
<trkpt lat="52.098969" lon="05.643675"><ele>42.8</ele><time>2022-04-13T12:33:00Z</time><name>PT4391</name></trkpt>
<trkpt lat="52.098963" lon="05.643688"><ele>43</ele><time>2022-04-13T12:33:01Z</time><name>PT4392</name></trkpt>
<trkpt lat="52.098959" lon="05.643697"><ele>43</ele><time>2022-04-13T12:33:02Z</time><name>PT4393</name></trkpt>
<trkpt lat="52.098954" lon="05.643708"><ele>43.1</ele><time>2022-04-13T12:33:03Z</time><name>PT4394</name></trkpt>
<trkpt lat="52.098949" lon="05.643726"><ele>43.1</ele><time>2022-04-13T12:33:04Z</time><name>PT4395</name></trkpt>
<trkpt lat="52.098943" lon="05.643735"><ele>42.9</ele><time>2022-04-13T12:33:05Z</time><name>PT4396</name></trkpt>
<trkpt lat="52.098937" lon="05.643744"><ele>42.9</ele><time>2022-04-13T12:33:06Z</time><name>PT4397</name></trkpt>
<trkpt lat="52.098930" lon="05.643751"><ele>43.1</ele><time>2022-04-13T12:33:07Z</time><name>PT4398</name></trkpt>
<trkpt lat="52.098928" lon="05.643757"><ele>43.2</ele><time>2022-04-13T12:33:08Z</time><name>PT4399</name></trkpt>
<trkpt lat="52.098925" lon="05.643764"><ele>43.3</ele><time>2022-04-13T12:33:09Z</time><name>PT4400</name></trkpt>
<trkpt lat="52.098918" lon="05.643772"><ele>43.5</ele><time>2022-04-13T12:33:10Z</time><name>PT4401</name></trkpt>
<trkpt lat="52.098916" lon="05.643785"><ele>43.5</ele><time>2022-04-13T12:33:11Z</time><name>PT4402</name></trkpt>
<trkpt lat="52.098907" lon="05.643799"><ele>43.5</ele><time>2022-04-13T12:33:12Z</time><name>PT4403</name></trkpt>
<trkpt lat="52.098903" lon="05.643817"><ele>43.6</ele><time>2022-04-13T12:33:13Z</time><name>PT4404</name></trkpt>
<trkpt lat="52.098902" lon="05.643828"><ele>43.6</ele><time>2022-04-13T12:33:14Z</time><name>PT4405</name></trkpt>
<trkpt lat="52.098901" lon="05.643839"><ele>43.4</ele><time>2022-04-13T12:33:15Z</time><name>PT4406</name></trkpt>
<trkpt lat="52.098897" lon="05.643851"><ele>43.3</ele><time>2022-04-13T12:33:16Z</time><name>PT4407</name></trkpt>
<trkpt lat="52.098895" lon="05.643861"><ele>43.1</ele><time>2022-04-13T12:33:17Z</time><name>PT4408</name></trkpt>
<trkpt lat="52.098892" lon="05.643869"><ele>43.1</ele><time>2022-04-13T12:33:18Z</time><name>PT4409</name></trkpt>
<trkpt lat="52.098888" lon="05.643881"><ele>43</ele><time>2022-04-13T12:33:19Z</time><name>PT4410</name></trkpt>
<trkpt lat="52.098884" lon="05.643889"><ele>43</ele><time>2022-04-13T12:33:20Z</time><name>PT4411</name></trkpt>
<trkpt lat="52.098881" lon="05.643904"><ele>43.2</ele><time>2022-04-13T12:33:21Z</time><name>PT4412</name></trkpt>
<trkpt lat="52.098885" lon="05.643916"><ele>43.3</ele><time>2022-04-13T12:33:22Z</time><name>PT4413</name></trkpt>
<trkpt lat="52.098880" lon="05.643947"><ele>43.3</ele><time>2022-04-13T12:33:23Z</time><name>PT4414</name></trkpt>
<trkpt lat="52.098867" lon="05.643959"><ele>43.3</ele><time>2022-04-13T12:33:24Z</time><name>PT4415</name></trkpt>
<trkpt lat="52.098854" lon="05.643976"><ele>43.3</ele><time>2022-04-13T12:33:25Z</time><name>PT4416</name></trkpt>
<trkpt lat="52.098851" lon="05.643992"><ele>43.2</ele><time>2022-04-13T12:33:26Z</time><name>PT4417</name></trkpt>
<trkpt lat="52.098838" lon="05.644008"><ele>43.1</ele><time>2022-04-13T12:33:27Z</time><name>PT4418</name></trkpt>
<trkpt lat="52.098826" lon="05.644020"><ele>43.3</ele><time>2022-04-13T12:33:28Z</time><name>PT4419</name></trkpt>
<trkpt lat="52.098823" lon="05.644039"><ele>43.2</ele><time>2022-04-13T12:33:29Z</time><name>PT4420</name></trkpt>
<trkpt lat="52.098813" lon="05.644056"><ele>43</ele><time>2022-04-13T12:33:30Z</time><name>PT4421</name></trkpt>
<trkpt lat="52.098807" lon="05.644070"><ele>43.1</ele><time>2022-04-13T12:33:31Z</time><name>PT4422</name></trkpt>
<trkpt lat="52.098799" lon="05.644075"><ele>42.9</ele><time>2022-04-13T12:33:32Z</time><name>PT4423</name></trkpt>
<trkpt lat="52.098795" lon="05.644081"><ele>42.9</ele><time>2022-04-13T12:33:33Z</time><name>PT4424</name></trkpt>
<trkpt lat="52.098791" lon="05.644094"><ele>42.9</ele><time>2022-04-13T12:33:34Z</time><name>PT4425</name></trkpt>
<trkpt lat="52.098786" lon="05.644108"><ele>43.1</ele><time>2022-04-13T12:33:35Z</time><name>PT4426</name></trkpt>
<trkpt lat="52.098783" lon="05.644120"><ele>42.9</ele><time>2022-04-13T12:33:36Z</time><name>PT4427</name></trkpt>
<trkpt lat="52.098781" lon="05.644129"><ele>42.9</ele><time>2022-04-13T12:33:37Z</time><name>PT4428</name></trkpt>
<trkpt lat="52.098780" lon="05.644143"><ele>42.9</ele><time>2022-04-13T12:33:38Z</time><name>PT4429</name></trkpt>
<trkpt lat="52.098777" lon="05.644147"><ele>43</ele><time>2022-04-13T12:33:39Z</time><name>PT4430</name></trkpt>
<trkpt lat="52.098771" lon="05.644159"><ele>42.9</ele><time>2022-04-13T12:33:40Z</time><name>PT4431</name></trkpt>
<trkpt lat="52.098766" lon="05.644171"><ele>42.9</ele><time>2022-04-13T12:33:41Z</time><name>PT4432</name></trkpt>
<trkpt lat="52.098763" lon="05.644182"><ele>42.9</ele><time>2022-04-13T12:33:42Z</time><name>PT4433</name></trkpt>
<trkpt lat="52.098758" lon="05.644191"><ele>42.8</ele><time>2022-04-13T12:33:43Z</time><name>PT4434</name></trkpt>
<trkpt lat="52.098758" lon="05.644206"><ele>42.8</ele><time>2022-04-13T12:33:44Z</time><name>PT4435</name></trkpt>
<trkpt lat="52.098760" lon="05.644224"><ele>42.7</ele><time>2022-04-13T12:33:45Z</time><name>PT4436</name></trkpt>
<trkpt lat="52.098757" lon="05.644235"><ele>42.8</ele><time>2022-04-13T12:33:46Z</time><name>PT4437</name></trkpt>
<trkpt lat="52.098757" lon="05.644247"><ele>42.8</ele><time>2022-04-13T12:33:47Z</time><name>PT4438</name></trkpt>
<trkpt lat="52.098752" lon="05.644264"><ele>42.8</ele><time>2022-04-13T12:33:48Z</time><name>PT4439</name></trkpt>
<trkpt lat="52.098752" lon="05.644276"><ele>42.9</ele><time>2022-04-13T12:33:49Z</time><name>PT4440</name></trkpt>
<trkpt lat="52.098752" lon="05.644289"><ele>42.9</ele><time>2022-04-13T12:33:50Z</time><name>PT4441</name></trkpt>
<trkpt lat="52.098750" lon="05.644309"><ele>43</ele><time>2022-04-13T12:33:51Z</time><name>PT4442</name></trkpt>
<trkpt lat="52.098751" lon="05.644326"><ele>43.2</ele><time>2022-04-13T12:33:52Z</time><name>PT4443</name></trkpt>
<trkpt lat="52.098751" lon="05.644342"><ele>43.2</ele><time>2022-04-13T12:33:53Z</time><name>PT4444</name></trkpt>
<trkpt lat="52.098748" lon="05.644359"><ele>43.3</ele><time>2022-04-13T12:33:54Z</time><name>PT4445</name></trkpt>
<trkpt lat="52.098749" lon="05.644371"><ele>43.3</ele><time>2022-04-13T12:33:55Z</time><name>PT4446</name></trkpt>
<trkpt lat="52.098752" lon="05.644390"><ele>43.2</ele><time>2022-04-13T12:33:56Z</time><name>PT4447</name></trkpt>
<trkpt lat="52.098750" lon="05.644406"><ele>43.2</ele><time>2022-04-13T12:33:57Z</time><name>PT4448</name></trkpt>
<trkpt lat="52.098749" lon="05.644416"><ele>43.3</ele><time>2022-04-13T12:33:58Z</time><name>PT4449</name></trkpt>
<trkpt lat="52.098753" lon="05.644434"><ele>43.4</ele><time>2022-04-13T12:33:59Z</time><name>PT4450</name></trkpt>
<trkpt lat="52.098755" lon="05.644453"><ele>43.5</ele><time>2022-04-13T12:34:00Z</time><name>PT4451</name></trkpt>
<trkpt lat="52.098756" lon="05.644466"><ele>43.5</ele><time>2022-04-13T12:34:01Z</time><name>PT4452</name></trkpt>
<trkpt lat="52.098754" lon="05.644488"><ele>43.6</ele><time>2022-04-13T12:34:02Z</time><name>PT4453</name></trkpt>
<trkpt lat="52.098758" lon="05.644508"><ele>43.5</ele><time>2022-04-13T12:34:03Z</time><name>PT4454</name></trkpt>
<trkpt lat="52.098752" lon="05.644525"><ele>43.3</ele><time>2022-04-13T12:34:04Z</time><name>PT4455</name></trkpt>
<trkpt lat="52.098752" lon="05.644542"><ele>43.4</ele><time>2022-04-13T12:34:05Z</time><name>PT4456</name></trkpt>
<trkpt lat="52.098748" lon="05.644565"><ele>43.3</ele><time>2022-04-13T12:34:06Z</time><name>PT4457</name></trkpt>
<trkpt lat="52.098746" lon="05.644581"><ele>43.3</ele><time>2022-04-13T12:34:07Z</time><name>PT4458</name></trkpt>
<trkpt lat="52.098750" lon="05.644597"><ele>43.3</ele><time>2022-04-13T12:34:08Z</time><name>PT4459</name></trkpt>
<trkpt lat="52.098751" lon="05.644612"><ele>43.4</ele><time>2022-04-13T12:34:09Z</time><name>PT4460</name></trkpt>
<trkpt lat="52.098751" lon="05.644623"><ele>43.4</ele><time>2022-04-13T12:34:10Z</time><name>PT4461</name></trkpt>
<trkpt lat="52.098752" lon="05.644629"><ele>43.4</ele><time>2022-04-13T12:34:11Z</time><name>PT4462</name></trkpt>
<trkpt lat="52.098755" lon="05.644669"><ele>43.5</ele><time>2022-04-13T12:34:12Z</time><name>PT4463</name></trkpt>
<trkpt lat="52.098749" lon="05.644685"><ele>43.6</ele><time>2022-04-13T12:34:13Z</time><name>PT4464</name></trkpt>
<trkpt lat="52.098739" lon="05.644704"><ele>43.6</ele><time>2022-04-13T12:34:14Z</time><name>PT4465</name></trkpt>
<trkpt lat="52.098732" lon="05.644719"><ele>43.6</ele><time>2022-04-13T12:34:15Z</time><name>PT4466</name></trkpt>
<trkpt lat="52.098717" lon="05.644738"><ele>43.5</ele><time>2022-04-13T12:34:16Z</time><name>PT4467</name></trkpt>
<trkpt lat="52.098699" lon="05.644768"><ele>43.4</ele><time>2022-04-13T12:34:17Z</time><name>PT4468</name></trkpt>
<trkpt lat="52.098698" lon="05.644772"><ele>43.1</ele><time>2022-04-13T12:34:18Z</time><name>PT4469</name></trkpt>
<trkpt lat="52.098702" lon="05.644775"><ele>43</ele><time>2022-04-13T12:34:19Z</time><name>PT4470</name></trkpt>
<trkpt lat="52.098701" lon="05.644776"><ele>43</ele><time>2022-04-13T12:34:20Z</time><name>PT4471</name></trkpt>
<trkpt lat="52.098722" lon="05.644781"><ele>43.1</ele><time>2022-04-13T12:34:21Z</time><name>PT4472</name></trkpt>
<trkpt lat="52.098719" lon="05.644781"><ele>43</ele><time>2022-04-13T12:34:22Z</time><name>PT4473</name></trkpt>
<trkpt lat="52.098712" lon="05.644776"><ele>42.9</ele><time>2022-04-13T12:34:23Z</time><name>PT4474</name></trkpt>
<trkpt lat="52.098698" lon="05.644773"><ele>42.8</ele><time>2022-04-13T12:34:24Z</time><name>PT4475</name></trkpt>
<trkpt lat="52.098689" lon="05.644773"><ele>42.8</ele><time>2022-04-13T12:34:25Z</time><name>PT4476</name></trkpt>
<trkpt lat="52.098679" lon="05.644773"><ele>42.8</ele><time>2022-04-13T12:34:26Z</time><name>PT4477</name></trkpt>
<trkpt lat="52.098671" lon="05.644772"><ele>42.7</ele><time>2022-04-13T12:34:27Z</time><name>PT4478</name></trkpt>
<trkpt lat="52.098671" lon="05.644766"><ele>42.8</ele><time>2022-04-13T12:34:28Z</time><name>PT4479</name></trkpt>
<trkpt lat="52.098665" lon="05.644764"><ele>42.8</ele><time>2022-04-13T12:34:29Z</time><name>PT4480</name></trkpt>
<trkpt lat="52.098652" lon="05.644762"><ele>43</ele><time>2022-04-13T12:34:30Z</time><name>PT4481</name></trkpt>
<trkpt lat="52.098637" lon="05.644760"><ele>42.8</ele><time>2022-04-13T12:34:31Z</time><name>PT4482</name></trkpt>
<trkpt lat="52.098624" lon="05.644761"><ele>42.8</ele><time>2022-04-13T12:34:32Z</time><name>PT4483</name></trkpt>
<trkpt lat="52.098614" lon="05.644762"><ele>42.8</ele><time>2022-04-13T12:34:33Z</time><name>PT4484</name></trkpt>
<trkpt lat="52.098603" lon="05.644765"><ele>42.7</ele><time>2022-04-13T12:34:34Z</time><name>PT4485</name></trkpt>
<trkpt lat="52.098599" lon="05.644767"><ele>42.5</ele><time>2022-04-13T12:34:35Z</time><name>PT4486</name></trkpt>
<trkpt lat="52.098591" lon="05.644775"><ele>42.5</ele><time>2022-04-13T12:34:36Z</time><name>PT4487</name></trkpt>
<trkpt lat="52.098582" lon="05.644769"><ele>42.5</ele><time>2022-04-13T12:34:37Z</time><name>PT4488</name></trkpt>
<trkpt lat="52.098570" lon="05.644764"><ele>42.5</ele><time>2022-04-13T12:34:38Z</time><name>PT4489</name></trkpt>
<trkpt lat="52.098562" lon="05.644771"><ele>42.6</ele><time>2022-04-13T12:34:39Z</time><name>PT4490</name></trkpt>
<trkpt lat="52.098557" lon="05.644781"><ele>42.8</ele><time>2022-04-13T12:34:40Z</time><name>PT4491</name></trkpt>
<trkpt lat="52.098550" lon="05.644784"><ele>42.8</ele><time>2022-04-13T12:34:41Z</time><name>PT4492</name></trkpt>
<trkpt lat="52.098548" lon="05.644788"><ele>42.8</ele><time>2022-04-13T12:34:42Z</time><name>PT4493</name></trkpt>
<trkpt lat="52.098543" lon="05.644793"><ele>42.9</ele><time>2022-04-13T12:34:43Z</time><name>PT4494</name></trkpt>
<trkpt lat="52.098539" lon="05.644802"><ele>43</ele><time>2022-04-13T12:34:44Z</time><name>PT4495</name></trkpt>
<trkpt lat="52.098536" lon="05.644812"><ele>42.9</ele><time>2022-04-13T12:34:51Z</time><name>PT4496</name></trkpt>
<trkpt lat="52.098530" lon="05.644840"><ele>42.8</ele><time>2022-04-13T12:34:52Z</time><name>PT4497</name></trkpt>
<trkpt lat="52.098524" lon="05.644866"><ele>42.9</ele><time>2022-04-13T12:34:53Z</time><name>PT4498</name></trkpt>
<trkpt lat="52.098520" lon="05.644900"><ele>42.9</ele><time>2022-04-13T12:34:54Z</time><name>PT4499</name></trkpt>
<trkpt lat="52.098517" lon="05.644923"><ele>42.9</ele><time>2022-04-13T12:34:55Z</time><name>PT4500</name></trkpt>
<trkpt lat="52.098497" lon="05.644944"><ele>42.8</ele><time>2022-04-13T12:34:56Z</time><name>PT4501</name></trkpt>
<trkpt lat="52.098498" lon="05.644954"><ele>42.8</ele><time>2022-04-13T12:34:57Z</time><name>PT4502</name></trkpt>
<trkpt lat="52.098494" lon="05.644971"><ele>42.8</ele><time>2022-04-13T12:34:58Z</time><name>PT4503</name></trkpt>
<trkpt lat="52.098477" lon="05.644974"><ele>42.8</ele><time>2022-04-13T12:34:59Z</time><name>PT4504</name></trkpt>
<trkpt lat="52.098471" lon="05.644989"><ele>42.9</ele><time>2022-04-13T12:35:00Z</time><name>PT4505</name></trkpt>
<trkpt lat="52.098471" lon="05.644997"><ele>43.1</ele><time>2022-04-13T12:35:01Z</time><name>PT4506</name></trkpt>
<trkpt lat="52.098458" lon="05.644997"><ele>43.3</ele><time>2022-04-13T12:35:02Z</time><name>PT4507</name></trkpt>
<trkpt lat="52.098450" lon="05.644996"><ele>43.3</ele><time>2022-04-13T12:35:03Z</time><name>PT4508</name></trkpt>
<trkpt lat="52.098441" lon="05.645005"><ele>43.3</ele><time>2022-04-13T12:35:04Z</time><name>PT4509</name></trkpt>
<trkpt lat="52.098433" lon="05.645013"><ele>43.3</ele><time>2022-04-13T12:35:05Z</time><name>PT4510</name></trkpt>
<trkpt lat="52.098413" lon="05.645036"><ele>43.3</ele><time>2022-04-13T12:35:06Z</time><name>PT4511</name></trkpt>
<trkpt lat="52.098406" lon="05.645041"><ele>43.3</ele><time>2022-04-13T12:35:07Z</time><name>PT4512</name></trkpt>
<trkpt lat="52.098401" lon="05.645045"><ele>43.2</ele><time>2022-04-13T12:35:08Z</time><name>PT4513</name></trkpt>
<trkpt lat="52.098399" lon="05.645049"><ele>43.1</ele><time>2022-04-13T12:35:09Z</time><name>PT4514</name></trkpt>
<trkpt lat="52.098394" lon="05.645055"><ele>42.9</ele><time>2022-04-13T12:35:10Z</time><name>PT4515</name></trkpt>
<trkpt lat="52.098386" lon="05.645060"><ele>42.8</ele><time>2022-04-13T12:35:11Z</time><name>PT4516</name></trkpt>
<trkpt lat="52.098378" lon="05.645065"><ele>42.5</ele><time>2022-04-13T12:35:12Z</time><name>PT4517</name></trkpt>
<trkpt lat="52.098370" lon="05.645069"><ele>42.3</ele><time>2022-04-13T12:35:13Z</time><name>PT4518</name></trkpt>
<trkpt lat="52.098359" lon="05.645075"><ele>42.2</ele><time>2022-04-13T12:35:14Z</time><name>PT4519</name></trkpt>
<trkpt lat="52.098348" lon="05.645083"><ele>42</ele><time>2022-04-13T12:35:15Z</time><name>PT4520</name></trkpt>
<trkpt lat="52.098339" lon="05.645086"><ele>41.8</ele><time>2022-04-13T12:35:16Z</time><name>PT4521</name></trkpt>
<trkpt lat="52.098331" lon="05.645087"><ele>41.8</ele><time>2022-04-13T12:35:17Z</time><name>PT4522</name></trkpt>
<trkpt lat="52.098324" lon="05.645094"><ele>41.7</ele><time>2022-04-13T12:35:18Z</time><name>PT4523</name></trkpt>
<trkpt lat="52.098320" lon="05.645097"><ele>41.8</ele><time>2022-04-13T12:35:19Z</time><name>PT4524</name></trkpt>
<trkpt lat="52.098313" lon="05.645100"><ele>41.6</ele><time>2022-04-13T12:35:20Z</time><name>PT4525</name></trkpt>
<trkpt lat="52.098307" lon="05.645103"><ele>41.7</ele><time>2022-04-13T12:35:21Z</time><name>PT4526</name></trkpt>
<trkpt lat="52.098299" lon="05.645107"><ele>41.8</ele><time>2022-04-13T12:35:22Z</time><name>PT4527</name></trkpt>
<trkpt lat="52.098288" lon="05.645110"><ele>41.8</ele><time>2022-04-13T12:35:23Z</time><name>PT4528</name></trkpt>
<trkpt lat="52.098284" lon="05.645114"><ele>41.8</ele><time>2022-04-13T12:35:24Z</time><name>PT4529</name></trkpt>
<trkpt lat="52.098284" lon="05.645117"><ele>42</ele><time>2022-04-13T12:35:25Z</time><name>PT4530</name></trkpt>
<trkpt lat="52.098278" lon="05.645130"><ele>41.9</ele><time>2022-04-13T12:35:26Z</time><name>PT4531</name></trkpt>
<trkpt lat="52.098278" lon="05.645141"><ele>42.2</ele><time>2022-04-13T12:35:27Z</time><name>PT4532</name></trkpt>
<trkpt lat="52.098274" lon="05.645151"><ele>42.3</ele><time>2022-04-13T12:35:28Z</time><name>PT4533</name></trkpt>
<trkpt lat="52.098268" lon="05.645159"><ele>42.4</ele><time>2022-04-13T12:35:29Z</time><name>PT4534</name></trkpt>
<trkpt lat="52.098266" lon="05.645161"><ele>42.6</ele><time>2022-04-13T12:35:30Z</time><name>PT4535</name></trkpt>
<trkpt lat="52.098251" lon="05.645178"><ele>42.6</ele><time>2022-04-13T12:35:31Z</time><name>PT4536</name></trkpt>
<trkpt lat="52.098248" lon="05.645196"><ele>42.7</ele><time>2022-04-13T12:35:32Z</time><name>PT4537</name></trkpt>
<trkpt lat="52.098248" lon="05.645209"><ele>42.8</ele><time>2022-04-13T12:35:33Z</time><name>PT4538</name></trkpt>
<trkpt lat="52.098243" lon="05.645222"><ele>43</ele><time>2022-04-13T12:35:34Z</time><name>PT4539</name></trkpt>
<trkpt lat="52.098243" lon="05.645236"><ele>43.1</ele><time>2022-04-13T12:35:35Z</time><name>PT4540</name></trkpt>
<trkpt lat="52.098242" lon="05.645246"><ele>43.2</ele><time>2022-04-13T12:35:36Z</time><name>PT4541</name></trkpt>
<trkpt lat="52.098243" lon="05.645258"><ele>43.1</ele><time>2022-04-13T12:35:37Z</time><name>PT4542</name></trkpt>
<trkpt lat="52.098243" lon="05.645269"><ele>43</ele><time>2022-04-13T12:35:38Z</time><name>PT4543</name></trkpt>
<trkpt lat="52.098242" lon="05.645281"><ele>42.9</ele><time>2022-04-13T12:35:39Z</time><name>PT4544</name></trkpt>
<trkpt lat="52.098236" lon="05.645297"><ele>42.9</ele><time>2022-04-13T12:35:40Z</time><name>PT4545</name></trkpt>
<trkpt lat="52.098237" lon="05.645305"><ele>43</ele><time>2022-04-13T12:35:41Z</time><name>PT4546</name></trkpt>
<trkpt lat="52.098235" lon="05.645311"><ele>43</ele><time>2022-04-13T12:35:42Z</time><name>PT4547</name></trkpt>
<trkpt lat="52.098235" lon="05.645325"><ele>42.8</ele><time>2022-04-13T12:35:43Z</time><name>PT4548</name></trkpt>
<trkpt lat="52.098237" lon="05.645342"><ele>42.8</ele><time>2022-04-13T12:35:44Z</time><name>PT4549</name></trkpt>
<trkpt lat="52.098239" lon="05.645353"><ele>42.9</ele><time>2022-04-13T12:35:45Z</time><name>PT4550</name></trkpt>
<trkpt lat="52.098241" lon="05.645364"><ele>42.8</ele><time>2022-04-13T12:35:46Z</time><name>PT4551</name></trkpt>
<trkpt lat="52.098250" lon="05.645375"><ele>42.8</ele><time>2022-04-13T12:35:47Z</time><name>PT4552</name></trkpt>
<trkpt lat="52.098253" lon="05.645387"><ele>42.8</ele><time>2022-04-13T12:35:48Z</time><name>PT4553</name></trkpt>
<trkpt lat="52.098252" lon="05.645400"><ele>42.8</ele><time>2022-04-13T12:35:49Z</time><name>PT4554</name></trkpt>
<trkpt lat="52.098250" lon="05.645419"><ele>42.9</ele><time>2022-04-13T12:35:50Z</time><name>PT4555</name></trkpt>
<trkpt lat="52.098250" lon="05.645435"><ele>43</ele><time>2022-04-13T12:35:51Z</time><name>PT4556</name></trkpt>
<trkpt lat="52.098247" lon="05.645448"><ele>43.1</ele><time>2022-04-13T12:35:52Z</time><name>PT4557</name></trkpt>
<trkpt lat="52.098246" lon="05.645459"><ele>43.1</ele><time>2022-04-13T12:35:53Z</time><name>PT4558</name></trkpt>
<trkpt lat="52.098242" lon="05.645468"><ele>43.2</ele><time>2022-04-13T12:35:54Z</time><name>PT4559</name></trkpt>
<trkpt lat="52.098238" lon="05.645477"><ele>43</ele><time>2022-04-13T12:35:55Z</time><name>PT4560</name></trkpt>
<trkpt lat="52.098233" lon="05.645503"><ele>42.9</ele><time>2022-04-13T12:35:56Z</time><name>PT4561</name></trkpt>
<trkpt lat="52.098229" lon="05.645513"><ele>43</ele><time>2022-04-13T12:35:57Z</time><name>PT4562</name></trkpt>
<trkpt lat="52.098226" lon="05.645525"><ele>43.1</ele><time>2022-04-13T12:35:58Z</time><name>PT4563</name></trkpt>
<trkpt lat="52.098227" lon="05.645534"><ele>43.2</ele><time>2022-04-13T12:35:59Z</time><name>PT4564</name></trkpt>
<trkpt lat="52.098229" lon="05.645540"><ele>43.3</ele><time>2022-04-13T12:36:00Z</time><name>PT4565</name></trkpt>
<trkpt lat="52.098227" lon="05.645557"><ele>43.5</ele><time>2022-04-13T12:36:01Z</time><name>PT4566</name></trkpt>
<trkpt lat="52.098230" lon="05.645570"><ele>43.4</ele><time>2022-04-13T12:36:02Z</time><name>PT4567</name></trkpt>
<trkpt lat="52.098232" lon="05.645588"><ele>43.3</ele><time>2022-04-13T12:36:03Z</time><name>PT4568</name></trkpt>
<trkpt lat="52.098230" lon="05.645600"><ele>43.3</ele><time>2022-04-13T12:36:04Z</time><name>PT4569</name></trkpt>
<trkpt lat="52.098227" lon="05.645613"><ele>43.3</ele><time>2022-04-13T12:36:05Z</time><name>PT4570</name></trkpt>
<trkpt lat="52.098220" lon="05.645630"><ele>43.3</ele><time>2022-04-13T12:36:06Z</time><name>PT4571</name></trkpt>
<trkpt lat="52.098220" lon="05.645647"><ele>43.4</ele><time>2022-04-13T12:36:07Z</time><name>PT4572</name></trkpt>
<trkpt lat="52.098220" lon="05.645658"><ele>43.4</ele><time>2022-04-13T12:36:08Z</time><name>PT4573</name></trkpt>
<trkpt lat="52.098220" lon="05.645665"><ele>43.4</ele><time>2022-04-13T12:36:09Z</time><name>PT4574</name></trkpt>
<trkpt lat="52.098224" lon="05.645684"><ele>43.4</ele><time>2022-04-13T12:36:10Z</time><name>PT4575</name></trkpt>
<trkpt lat="52.098226" lon="05.645696"><ele>43.3</ele><time>2022-04-13T12:36:11Z</time><name>PT4576</name></trkpt>
<trkpt lat="52.098225" lon="05.645714"><ele>43.3</ele><time>2022-04-13T12:36:12Z</time><name>PT4577</name></trkpt>
<trkpt lat="52.098224" lon="05.645726"><ele>43.4</ele><time>2022-04-13T12:36:13Z</time><name>PT4578</name></trkpt>
<trkpt lat="52.098227" lon="05.645740"><ele>43.5</ele><time>2022-04-13T12:36:14Z</time><name>PT4579</name></trkpt>
<trkpt lat="52.098227" lon="05.645759"><ele>43.3</ele><time>2022-04-13T12:36:15Z</time><name>PT4580</name></trkpt>
<trkpt lat="52.098224" lon="05.645779"><ele>43.3</ele><time>2022-04-13T12:36:16Z</time><name>PT4581</name></trkpt>
<trkpt lat="52.098220" lon="05.645797"><ele>43.3</ele><time>2022-04-13T12:36:17Z</time><name>PT4582</name></trkpt>
<trkpt lat="52.098213" lon="05.645819"><ele>43.3</ele><time>2022-04-13T12:36:18Z</time><name>PT4583</name></trkpt>
<trkpt lat="52.098207" lon="05.645835"><ele>43.4</ele><time>2022-04-13T12:36:19Z</time><name>PT4584</name></trkpt>
<trkpt lat="52.098214" lon="05.645849"><ele>43.5</ele><time>2022-04-13T12:36:20Z</time><name>PT4585</name></trkpt>
<trkpt lat="52.098217" lon="05.645862"><ele>43.6</ele><time>2022-04-13T12:36:21Z</time><name>PT4586</name></trkpt>
<trkpt lat="52.098209" lon="05.645878"><ele>43.5</ele><time>2022-04-13T12:36:22Z</time><name>PT4587</name></trkpt>
<trkpt lat="52.098203" lon="05.645897"><ele>43.8</ele><time>2022-04-13T12:36:23Z</time><name>PT4588</name></trkpt>
<trkpt lat="52.098196" lon="05.645926"><ele>43.8</ele><time>2022-04-13T12:36:24Z</time><name>PT4589</name></trkpt>
<trkpt lat="52.098199" lon="05.645937"><ele>43.7</ele><time>2022-04-13T12:36:25Z</time><name>PT4590</name></trkpt>
<trkpt lat="52.098199" lon="05.645953"><ele>43.8</ele><time>2022-04-13T12:36:26Z</time><name>PT4591</name></trkpt>
<trkpt lat="52.098197" lon="05.645968"><ele>43.8</ele><time>2022-04-13T12:36:27Z</time><name>PT4592</name></trkpt>
<trkpt lat="52.098199" lon="05.645984"><ele>43.7</ele><time>2022-04-13T12:36:28Z</time><name>PT4593</name></trkpt>
<trkpt lat="52.098196" lon="05.645997"><ele>43.7</ele><time>2022-04-13T12:36:29Z</time><name>PT4594</name></trkpt>
<trkpt lat="52.098192" lon="05.646014"><ele>43.8</ele><time>2022-04-13T12:36:30Z</time><name>PT4595</name></trkpt>
<trkpt lat="52.098192" lon="05.646042"><ele>43.8</ele><time>2022-04-13T12:36:31Z</time><name>PT4596</name></trkpt>
<trkpt lat="52.098195" lon="05.646051"><ele>43.9</ele><time>2022-04-13T12:36:32Z</time><name>PT4597</name></trkpt>
<trkpt lat="52.098193" lon="05.646065"><ele>43.8</ele><time>2022-04-13T12:36:33Z</time><name>PT4598</name></trkpt>
<trkpt lat="52.098191" lon="05.646082"><ele>44</ele><time>2022-04-13T12:36:34Z</time><name>PT4599</name></trkpt>
<trkpt lat="52.098193" lon="05.646096"><ele>44.1</ele><time>2022-04-13T12:36:35Z</time><name>PT4600</name></trkpt>
<trkpt lat="52.098183" lon="05.646112"><ele>44.1</ele><time>2022-04-13T12:36:36Z</time><name>PT4601</name></trkpt>
<trkpt lat="52.098182" lon="05.646122"><ele>44.2</ele><time>2022-04-13T12:36:37Z</time><name>PT4602</name></trkpt>
<trkpt lat="52.098176" lon="05.646134"><ele>44.3</ele><time>2022-04-13T12:36:38Z</time><name>PT4603</name></trkpt>
<trkpt lat="52.098176" lon="05.646158"><ele>44.1</ele><time>2022-04-13T12:36:39Z</time><name>PT4604</name></trkpt>
<trkpt lat="52.098176" lon="05.646173"><ele>44</ele><time>2022-04-13T12:36:40Z</time><name>PT4605</name></trkpt>
<trkpt lat="52.098174" lon="05.646190"><ele>43.8</ele><time>2022-04-13T12:36:41Z</time><name>PT4606</name></trkpt>
<trkpt lat="52.098179" lon="05.646205"><ele>43.8</ele><time>2022-04-13T12:36:42Z</time><name>PT4607</name></trkpt>
<trkpt lat="52.098178" lon="05.646226"><ele>43.8</ele><time>2022-04-13T12:36:43Z</time><name>PT4608</name></trkpt>
<trkpt lat="52.098175" lon="05.646237"><ele>43.8</ele><time>2022-04-13T12:36:44Z</time><name>PT4609</name></trkpt>
<trkpt lat="52.098173" lon="05.646257"><ele>43.8</ele><time>2022-04-13T12:36:45Z</time><name>PT4610</name></trkpt>
<trkpt lat="52.098172" lon="05.646269"><ele>43.9</ele><time>2022-04-13T12:36:46Z</time><name>PT4611</name></trkpt>
<trkpt lat="52.098176" lon="05.646279"><ele>44.1</ele><time>2022-04-13T12:36:47Z</time><name>PT4612</name></trkpt>
<trkpt lat="52.098176" lon="05.646296"><ele>44.1</ele><time>2022-04-13T12:36:48Z</time><name>PT4613</name></trkpt>
<trkpt lat="52.098178" lon="05.646310"><ele>44.2</ele><time>2022-04-13T12:36:49Z</time><name>PT4614</name></trkpt>
<trkpt lat="52.098179" lon="05.646323"><ele>44.3</ele><time>2022-04-13T12:36:50Z</time><name>PT4615</name></trkpt>
<trkpt lat="52.098179" lon="05.646334"><ele>44.2</ele><time>2022-04-13T12:36:51Z</time><name>PT4616</name></trkpt>
<trkpt lat="52.098181" lon="05.646354"><ele>44.3</ele><time>2022-04-13T12:36:52Z</time><name>PT4617</name></trkpt>
<trkpt lat="52.098182" lon="05.646373"><ele>44.4</ele><time>2022-04-13T12:36:53Z</time><name>PT4618</name></trkpt>
<trkpt lat="52.098180" lon="05.646394"><ele>44.4</ele><time>2022-04-13T12:36:54Z</time><name>PT4619</name></trkpt>
<trkpt lat="52.098181" lon="05.646409"><ele>44.3</ele><time>2022-04-13T12:36:55Z</time><name>PT4620</name></trkpt>
<trkpt lat="52.098176" lon="05.646430"><ele>44.5</ele><time>2022-04-13T12:36:56Z</time><name>PT4621</name></trkpt>
<trkpt lat="52.098176" lon="05.646448"><ele>44.5</ele><time>2022-04-13T12:36:57Z</time><name>PT4622</name></trkpt>
<trkpt lat="52.098173" lon="05.646467"><ele>44.3</ele><time>2022-04-13T12:36:58Z</time><name>PT4623</name></trkpt>
<trkpt lat="52.098172" lon="05.646483"><ele>44.3</ele><time>2022-04-13T12:36:59Z</time><name>PT4624</name></trkpt>
<trkpt lat="52.098174" lon="05.646497"><ele>44.4</ele><time>2022-04-13T12:37:00Z</time><name>PT4625</name></trkpt>
<trkpt lat="52.098174" lon="05.646517"><ele>44.3</ele><time>2022-04-13T12:37:01Z</time><name>PT4626</name></trkpt>
<trkpt lat="52.098174" lon="05.646528"><ele>44.3</ele><time>2022-04-13T12:37:02Z</time><name>PT4627</name></trkpt>
<trkpt lat="52.098170" lon="05.646542"><ele>44.3</ele><time>2022-04-13T12:37:03Z</time><name>PT4628</name></trkpt>
<trkpt lat="52.098172" lon="05.646554"><ele>44.3</ele><time>2022-04-13T12:37:04Z</time><name>PT4629</name></trkpt>
<trkpt lat="52.098173" lon="05.646567"><ele>44.3</ele><time>2022-04-13T12:37:05Z</time><name>PT4630</name></trkpt>
<trkpt lat="52.098174" lon="05.646581"><ele>44.1</ele><time>2022-04-13T12:37:06Z</time><name>PT4631</name></trkpt>
<trkpt lat="52.098170" lon="05.646591"><ele>44.3</ele><time>2022-04-13T12:37:07Z</time><name>PT4632</name></trkpt>
<trkpt lat="52.098166" lon="05.646596"><ele>44.2</ele><time>2022-04-13T12:37:08Z</time><name>PT4633</name></trkpt>
<trkpt lat="52.098165" lon="05.646606"><ele>44.1</ele><time>2022-04-13T12:37:09Z</time><name>PT4634</name></trkpt>
<trkpt lat="52.098163" lon="05.646635"><ele>44.3</ele><time>2022-04-13T12:37:10Z</time><name>PT4635</name></trkpt>
<trkpt lat="52.098162" lon="05.646647"><ele>44.3</ele><time>2022-04-13T12:37:11Z</time><name>PT4636</name></trkpt>
<trkpt lat="52.098160" lon="05.646666"><ele>44.3</ele><time>2022-04-13T12:37:12Z</time><name>PT4637</name></trkpt>
<trkpt lat="52.098156" lon="05.646691"><ele>44.3</ele><time>2022-04-13T12:37:13Z</time><name>PT4638</name></trkpt>
<trkpt lat="52.098156" lon="05.646709"><ele>44.4</ele><time>2022-04-13T12:37:14Z</time><name>PT4639</name></trkpt>
<trkpt lat="52.098156" lon="05.646726"><ele>44.5</ele><time>2022-04-13T12:37:15Z</time><name>PT4640</name></trkpt>
<trkpt lat="52.098161" lon="05.646760"><ele>44.5</ele><time>2022-04-13T12:37:16Z</time><name>PT4641</name></trkpt>
<trkpt lat="52.098154" lon="05.646776"><ele>44.6</ele><time>2022-04-13T12:37:17Z</time><name>PT4642</name></trkpt>
<trkpt lat="52.098148" lon="05.646786"><ele>44.8</ele><time>2022-04-13T12:37:18Z</time><name>PT4643</name></trkpt>
<trkpt lat="52.098139" lon="05.646813"><ele>44.8</ele><time>2022-04-13T12:37:19Z</time><name>PT4644</name></trkpt>
<trkpt lat="52.098138" lon="05.646828"><ele>44.9</ele><time>2022-04-13T12:37:20Z</time><name>PT4645</name></trkpt>
<trkpt lat="52.098122" lon="05.646854"><ele>45.1</ele><time>2022-04-13T12:37:21Z</time><name>PT4646</name></trkpt>
<trkpt lat="52.098110" lon="05.646864"><ele>45.2</ele><time>2022-04-13T12:37:22Z</time><name>PT4647</name></trkpt>
<trkpt lat="52.098100" lon="05.646873"><ele>45.1</ele><time>2022-04-13T12:37:23Z</time><name>PT4648</name></trkpt>
<trkpt lat="52.098089" lon="05.646880"><ele>45.1</ele><time>2022-04-13T12:37:24Z</time><name>PT4649</name></trkpt>
<trkpt lat="52.098079" lon="05.646893"><ele>45.1</ele><time>2022-04-13T12:37:25Z</time><name>PT4650</name></trkpt>
<trkpt lat="52.098065" lon="05.646899"><ele>45</ele><time>2022-04-13T12:37:26Z</time><name>PT4651</name></trkpt>
<trkpt lat="52.098055" lon="05.646905"><ele>45.1</ele><time>2022-04-13T12:37:27Z</time><name>PT4652</name></trkpt>
<trkpt lat="52.098047" lon="05.646909"><ele>45.2</ele><time>2022-04-13T12:37:28Z</time><name>PT4653</name></trkpt>
<trkpt lat="52.098040" lon="05.646913"><ele>45.1</ele><time>2022-04-13T12:37:29Z</time><name>PT4654</name></trkpt>
<trkpt lat="52.098032" lon="05.646920"><ele>45.2</ele><time>2022-04-13T12:37:30Z</time><name>PT4655</name></trkpt>
<trkpt lat="52.098023" lon="05.646923"><ele>45.2</ele><time>2022-04-13T12:37:31Z</time><name>PT4656</name></trkpt>
<trkpt lat="52.098015" lon="05.646924"><ele>45.2</ele><time>2022-04-13T12:37:32Z</time><name>PT4657</name></trkpt>
<trkpt lat="52.097991" lon="05.646939"><ele>45</ele><time>2022-04-13T12:37:33Z</time><name>PT4658</name></trkpt>
<trkpt lat="52.097977" lon="05.646939"><ele>45.1</ele><time>2022-04-13T12:37:34Z</time><name>PT4659</name></trkpt>
<trkpt lat="52.097967" lon="05.646939"><ele>45.1</ele><time>2022-04-13T12:37:35Z</time><name>PT4660</name></trkpt>
<trkpt lat="52.097961" lon="05.646941"><ele>45.2</ele><time>2022-04-13T12:37:36Z</time><name>PT4661</name></trkpt>
<trkpt lat="52.097950" lon="05.646943"><ele>45.2</ele><time>2022-04-13T12:37:37Z</time><name>PT4662</name></trkpt>
<trkpt lat="52.097943" lon="05.646944"><ele>45.2</ele><time>2022-04-13T12:37:38Z</time><name>PT4663</name></trkpt>
<trkpt lat="52.097934" lon="05.646947"><ele>45.3</ele><time>2022-04-13T12:37:39Z</time><name>PT4664</name></trkpt>
<trkpt lat="52.097926" lon="05.646948"><ele>45.4</ele><time>2022-04-13T12:37:40Z</time><name>PT4665</name></trkpt>
<trkpt lat="52.097917" lon="05.646953"><ele>45.2</ele><time>2022-04-13T12:37:41Z</time><name>PT4666</name></trkpt>
<trkpt lat="52.097910" lon="05.646956"><ele>45.2</ele><time>2022-04-13T12:37:42Z</time><name>PT4667</name></trkpt>
<trkpt lat="52.097900" lon="05.646959"><ele>45.2</ele><time>2022-04-13T12:37:43Z</time><name>PT4668</name></trkpt>
<trkpt lat="52.097891" lon="05.646959"><ele>45.2</ele><time>2022-04-13T12:37:44Z</time><name>PT4669</name></trkpt>
<trkpt lat="52.097880" lon="05.646960"><ele>45.2</ele><time>2022-04-13T12:37:45Z</time><name>PT4670</name></trkpt>
<trkpt lat="52.097856" lon="05.646964"><ele>45.3</ele><time>2022-04-13T12:37:46Z</time><name>PT4671</name></trkpt>
<trkpt lat="52.097844" lon="05.646962"><ele>45.3</ele><time>2022-04-13T12:37:47Z</time><name>PT4672</name></trkpt>
<trkpt lat="52.097840" lon="05.646960"><ele>45.4</ele><time>2022-04-13T12:37:48Z</time><name>PT4673</name></trkpt>
<trkpt lat="52.097831" lon="05.646960"><ele>45.4</ele><time>2022-04-13T12:37:49Z</time><name>PT4674</name></trkpt>
<trkpt lat="52.097823" lon="05.646956"><ele>45.4</ele><time>2022-04-13T12:37:50Z</time><name>PT4675</name></trkpt>
<trkpt lat="52.097819" lon="05.646960"><ele>45.5</ele><time>2022-04-13T12:37:51Z</time><name>PT4676</name></trkpt>
<trkpt lat="52.097812" lon="05.646957"><ele>45.4</ele><time>2022-04-13T12:37:52Z</time><name>PT4677</name></trkpt>
<trkpt lat="52.097803" lon="05.646961"><ele>45.5</ele><time>2022-04-13T12:37:53Z</time><name>PT4678</name></trkpt>
<trkpt lat="52.097800" lon="05.646962"><ele>45.6</ele><time>2022-04-13T12:37:54Z</time><name>PT4679</name></trkpt>
<trkpt lat="52.097796" lon="05.646966"><ele>45.7</ele><time>2022-04-13T12:37:55Z</time><name>PT4680</name></trkpt>
<trkpt lat="52.097788" lon="05.646972"><ele>45.7</ele><time>2022-04-13T12:37:56Z</time><name>PT4681</name></trkpt>
<trkpt lat="52.097781" lon="05.646980"><ele>46</ele><time>2022-04-13T12:37:57Z</time><name>PT4682</name></trkpt>
<trkpt lat="52.097774" lon="05.646984"><ele>46.1</ele><time>2022-04-13T12:37:58Z</time><name>PT4683</name></trkpt>
<trkpt lat="52.097764" lon="05.646987"><ele>46.1</ele><time>2022-04-13T12:37:59Z</time><name>PT4684</name></trkpt>
<trkpt lat="52.097752" lon="05.646995"><ele>46.1</ele><time>2022-04-13T12:38:00Z</time><name>PT4685</name></trkpt>
<trkpt lat="52.097742" lon="05.647003"><ele>46.1</ele><time>2022-04-13T12:38:01Z</time><name>PT4686</name></trkpt>
<trkpt lat="52.097731" lon="05.647010"><ele>45.9</ele><time>2022-04-13T12:38:02Z</time><name>PT4687</name></trkpt>
<trkpt lat="52.097722" lon="05.647016"><ele>45.7</ele><time>2022-04-13T12:38:03Z</time><name>PT4688</name></trkpt>
<trkpt lat="52.097712" lon="05.647020"><ele>45.7</ele><time>2022-04-13T12:38:04Z</time><name>PT4689</name></trkpt>
<trkpt lat="52.097703" lon="05.647028"><ele>45.7</ele><time>2022-04-13T12:38:05Z</time><name>PT4690</name></trkpt>
<trkpt lat="52.097695" lon="05.647033"><ele>45.6</ele><time>2022-04-13T12:38:06Z</time><name>PT4691</name></trkpt>
<trkpt lat="52.097687" lon="05.647035"><ele>45.6</ele><time>2022-04-13T12:38:07Z</time><name>PT4692</name></trkpt>
<trkpt lat="52.097678" lon="05.647041"><ele>45.6</ele><time>2022-04-13T12:38:08Z</time><name>PT4693</name></trkpt>
<trkpt lat="52.097660" lon="05.647041"><ele>45.6</ele><time>2022-04-13T12:38:09Z</time><name>PT4694</name></trkpt>
<trkpt lat="52.097648" lon="05.647044"><ele>45.6</ele><time>2022-04-13T12:38:10Z</time><name>PT4695</name></trkpt>
<trkpt lat="52.097639" lon="05.647048"><ele>45.7</ele><time>2022-04-13T12:38:11Z</time><name>PT4696</name></trkpt>
<trkpt lat="52.097633" lon="05.647050"><ele>45.7</ele><time>2022-04-13T12:38:12Z</time><name>PT4697</name></trkpt>
<trkpt lat="52.097626" lon="05.647054"><ele>45.8</ele><time>2022-04-13T12:38:13Z</time><name>PT4698</name></trkpt>
<trkpt lat="52.097620" lon="05.647060"><ele>45.7</ele><time>2022-04-13T12:38:14Z</time><name>PT4699</name></trkpt>
<trkpt lat="52.097611" lon="05.647063"><ele>46</ele><time>2022-04-13T12:38:15Z</time><name>PT4700</name></trkpt>
<trkpt lat="52.097601" lon="05.647067"><ele>46</ele><time>2022-04-13T12:38:16Z</time><name>PT4701</name></trkpt>
<trkpt lat="52.097590" lon="05.647074"><ele>46</ele><time>2022-04-13T12:38:17Z</time><name>PT4702</name></trkpt>
<trkpt lat="52.097581" lon="05.647079"><ele>46.1</ele><time>2022-04-13T12:38:18Z</time><name>PT4703</name></trkpt>
<trkpt lat="52.097571" lon="05.647083"><ele>46.2</ele><time>2022-04-13T12:38:19Z</time><name>PT4704</name></trkpt>
<trkpt lat="52.097561" lon="05.647083"><ele>46</ele><time>2022-04-13T12:38:20Z</time><name>PT4705</name></trkpt>
<trkpt lat="52.097552" lon="05.647083"><ele>46</ele><time>2022-04-13T12:38:21Z</time><name>PT4706</name></trkpt>
<trkpt lat="52.097536" lon="05.647093"><ele>46</ele><time>2022-04-13T12:38:22Z</time><name>PT4707</name></trkpt>
<trkpt lat="52.097517" lon="05.647099"><ele>45.9</ele><time>2022-04-13T12:38:23Z</time><name>PT4708</name></trkpt>
<trkpt lat="52.097504" lon="05.647094"><ele>45.9</ele><time>2022-04-13T12:38:24Z</time><name>PT4709</name></trkpt>
<trkpt lat="52.097495" lon="05.647086"><ele>45.9</ele><time>2022-04-13T12:38:25Z</time><name>PT4710</name></trkpt>
<trkpt lat="52.097491" lon="05.647085"><ele>46.1</ele><time>2022-04-13T12:38:26Z</time><name>PT4711</name></trkpt>
<trkpt lat="52.097484" lon="05.647081"><ele>46.2</ele><time>2022-04-13T12:38:27Z</time><name>PT4712</name></trkpt>
<trkpt lat="52.097470" lon="05.647080"><ele>46</ele><time>2022-04-13T12:38:28Z</time><name>PT4713</name></trkpt>
<trkpt lat="52.097457" lon="05.647081"><ele>46</ele><time>2022-04-13T12:38:29Z</time><name>PT4714</name></trkpt>
<trkpt lat="52.097448" lon="05.647085"><ele>46.1</ele><time>2022-04-13T12:38:30Z</time><name>PT4715</name></trkpt>
<trkpt lat="52.097442" lon="05.647089"><ele>46.2</ele><time>2022-04-13T12:38:31Z</time><name>PT4716</name></trkpt>
<trkpt lat="52.097433" lon="05.647097"><ele>46.2</ele><time>2022-04-13T12:38:32Z</time><name>PT4717</name></trkpt>
<trkpt lat="52.097424" lon="05.647101"><ele>46.4</ele><time>2022-04-13T12:38:33Z</time><name>PT4718</name></trkpt>
<trkpt lat="52.097419" lon="05.647112"><ele>46.3</ele><time>2022-04-13T12:38:34Z</time><name>PT4719</name></trkpt>
<trkpt lat="52.097413" lon="05.647123"><ele>46.3</ele><time>2022-04-13T12:38:35Z</time><name>PT4720</name></trkpt>
<trkpt lat="52.097406" lon="05.647132"><ele>46.2</ele><time>2022-04-13T12:38:36Z</time><name>PT4721</name></trkpt>
<trkpt lat="52.097403" lon="05.647142"><ele>46.1</ele><time>2022-04-13T12:38:37Z</time><name>PT4722</name></trkpt>
<trkpt lat="52.097403" lon="05.647155"><ele>46.1</ele><time>2022-04-13T12:38:38Z</time><name>PT4723</name></trkpt>
<trkpt lat="52.097402" lon="05.647167"><ele>45.9</ele><time>2022-04-13T12:38:39Z</time><name>PT4724</name></trkpt>
<trkpt lat="52.097399" lon="05.647176"><ele>45.9</ele><time>2022-04-13T12:38:40Z</time><name>PT4725</name></trkpt>
<trkpt lat="52.097391" lon="05.647183"><ele>45.8</ele><time>2022-04-13T12:38:41Z</time><name>PT4726</name></trkpt>
<trkpt lat="52.097384" lon="05.647188"><ele>45.6</ele><time>2022-04-13T12:38:42Z</time><name>PT4727</name></trkpt>
<trkpt lat="52.097375" lon="05.647196"><ele>45.7</ele><time>2022-04-13T12:38:43Z</time><name>PT4728</name></trkpt>
<trkpt lat="52.097364" lon="05.647201"><ele>45.7</ele><time>2022-04-13T12:38:44Z</time><name>PT4729</name></trkpt>
<trkpt lat="52.097353" lon="05.647212"><ele>45.6</ele><time>2022-04-13T12:38:45Z</time><name>PT4730</name></trkpt>
<trkpt lat="52.097343" lon="05.647220"><ele>45.5</ele><time>2022-04-13T12:38:46Z</time><name>PT4731</name></trkpt>
<trkpt lat="52.097335" lon="05.647229"><ele>45.4</ele><time>2022-04-13T12:38:47Z</time><name>PT4732</name></trkpt>
<trkpt lat="52.097329" lon="05.647236"><ele>45.4</ele><time>2022-04-13T12:38:48Z</time><name>PT4733</name></trkpt>
<trkpt lat="52.097321" lon="05.647243"><ele>45.3</ele><time>2022-04-13T12:38:49Z</time><name>PT4734</name></trkpt>
<trkpt lat="52.097312" lon="05.647254"><ele>45.5</ele><time>2022-04-13T12:38:50Z</time><name>PT4735</name></trkpt>
<trkpt lat="52.097294" lon="05.647272"><ele>45.6</ele><time>2022-04-13T12:38:51Z</time><name>PT4736</name></trkpt>
<trkpt lat="52.097289" lon="05.647280"><ele>45.7</ele><time>2022-04-13T12:38:52Z</time><name>PT4737</name></trkpt>
<trkpt lat="52.097285" lon="05.647290"><ele>45.5</ele><time>2022-04-13T12:38:53Z</time><name>PT4738</name></trkpt>
<trkpt lat="52.097278" lon="05.647300"><ele>45.4</ele><time>2022-04-13T12:38:54Z</time><name>PT4739</name></trkpt>
<trkpt lat="52.097270" lon="05.647306"><ele>45.4</ele><time>2022-04-13T12:38:55Z</time><name>PT4740</name></trkpt>
<trkpt lat="52.097260" lon="05.647320"><ele>45.3</ele><time>2022-04-13T12:38:56Z</time><name>PT4741</name></trkpt>
<trkpt lat="52.097252" lon="05.647329"><ele>45.5</ele><time>2022-04-13T12:38:57Z</time><name>PT4742</name></trkpt>
<trkpt lat="52.097242" lon="05.647342"><ele>45.6</ele><time>2022-04-13T12:38:58Z</time><name>PT4743</name></trkpt>
<trkpt lat="52.097237" lon="05.647350"><ele>45.5</ele><time>2022-04-13T12:38:59Z</time><name>PT4744</name></trkpt>
<trkpt lat="52.097234" lon="05.647357"><ele>45.4</ele><time>2022-04-13T12:39:00Z</time><name>PT4745</name></trkpt>
<trkpt lat="52.097226" lon="05.647362"><ele>45.2</ele><time>2022-04-13T12:39:01Z</time><name>PT4746</name></trkpt>
<trkpt lat="52.097219" lon="05.647375"><ele>45.1</ele><time>2022-04-13T12:39:02Z</time><name>PT4747</name></trkpt>
<trkpt lat="52.097213" lon="05.647384"><ele>44.9</ele><time>2022-04-13T12:39:03Z</time><name>PT4748</name></trkpt>
<trkpt lat="52.097213" lon="05.647395"><ele>44.7</ele><time>2022-04-13T12:39:04Z</time><name>PT4749</name></trkpt>
<trkpt lat="52.097208" lon="05.647405"><ele>44.5</ele><time>2022-04-13T12:39:05Z</time><name>PT4750</name></trkpt>
<trkpt lat="52.097204" lon="05.647416"><ele>44.3</ele><time>2022-04-13T12:39:06Z</time><name>PT4751</name></trkpt>
<trkpt lat="52.097199" lon="05.647428"><ele>44.2</ele><time>2022-04-13T12:39:07Z</time><name>PT4752</name></trkpt>
<trkpt lat="52.097193" lon="05.647444"><ele>44.1</ele><time>2022-04-13T12:39:08Z</time><name>PT4753</name></trkpt>
<trkpt lat="52.097192" lon="05.647454"><ele>43.8</ele><time>2022-04-13T12:39:09Z</time><name>PT4754</name></trkpt>
<trkpt lat="52.097185" lon="05.647464"><ele>43.8</ele><time>2022-04-13T12:39:10Z</time><name>PT4755</name></trkpt>
<trkpt lat="52.097179" lon="05.647479"><ele>43.8</ele><time>2022-04-13T12:39:11Z</time><name>PT4756</name></trkpt>
<trkpt lat="52.097174" lon="05.647490"><ele>43.6</ele><time>2022-04-13T12:39:12Z</time><name>PT4757</name></trkpt>
<trkpt lat="52.097167" lon="05.647497"><ele>43.7</ele><time>2022-04-13T12:39:13Z</time><name>PT4758</name></trkpt>
<trkpt lat="52.097166" lon="05.647498"><ele>43.8</ele><time>2022-04-13T12:39:14Z</time><name>PT4759</name></trkpt>
<trkpt lat="52.097164" lon="05.647507"><ele>43.8</ele><time>2022-04-13T12:39:15Z</time><name>PT4760</name></trkpt>
<trkpt lat="52.097168" lon="05.647521"><ele>43.6</ele><time>2022-04-13T12:39:16Z</time><name>PT4761</name></trkpt>
<trkpt lat="52.097172" lon="05.647526"><ele>43.8</ele><time>2022-04-13T12:39:17Z</time><name>PT4762</name></trkpt>
<trkpt lat="52.097166" lon="05.647537"><ele>43.8</ele><time>2022-04-13T12:39:18Z</time><name>PT4763</name></trkpt>
<trkpt lat="52.097156" lon="05.647554"><ele>43.8</ele><time>2022-04-13T12:39:19Z</time><name>PT4764</name></trkpt>
<trkpt lat="52.097147" lon="05.647569"><ele>44</ele><time>2022-04-13T12:39:20Z</time><name>PT4765</name></trkpt>
<trkpt lat="52.097138" lon="05.647577"><ele>44</ele><time>2022-04-13T12:39:21Z</time><name>PT4766</name></trkpt>
<trkpt lat="52.097130" lon="05.647584"><ele>44.3</ele><time>2022-04-13T12:39:22Z</time><name>PT4767</name></trkpt>
<trkpt lat="52.097122" lon="05.647590"><ele>44.3</ele><time>2022-04-13T12:39:23Z</time><name>PT4768</name></trkpt>
<trkpt lat="52.097117" lon="05.647598"><ele>44.3</ele><time>2022-04-13T12:39:24Z</time><name>PT4769</name></trkpt>
<trkpt lat="52.097112" lon="05.647610"><ele>44.5</ele><time>2022-04-13T12:39:25Z</time><name>PT4770</name></trkpt>
<trkpt lat="52.097106" lon="05.647623"><ele>44.6</ele><time>2022-04-13T12:39:26Z</time><name>PT4771</name></trkpt>
<trkpt lat="52.097102" lon="05.647629"><ele>44.7</ele><time>2022-04-13T12:39:27Z</time><name>PT4772</name></trkpt>
<trkpt lat="52.097097" lon="05.647639"><ele>45.2</ele><time>2022-04-13T12:39:28Z</time><name>PT4773</name></trkpt>
<trkpt lat="52.097093" lon="05.647651"><ele>45.1</ele><time>2022-04-13T12:39:29Z</time><name>PT4774</name></trkpt>
<trkpt lat="52.097086" lon="05.647659"><ele>45.1</ele><time>2022-04-13T12:39:30Z</time><name>PT4775</name></trkpt>
<trkpt lat="52.097080" lon="05.647673"><ele>44.9</ele><time>2022-04-13T12:39:31Z</time><name>PT4776</name></trkpt>
<trkpt lat="52.097069" lon="05.647692"><ele>44.8</ele><time>2022-04-13T12:39:32Z</time><name>PT4777</name></trkpt>
<trkpt lat="52.097061" lon="05.647706"><ele>44.9</ele><time>2022-04-13T12:39:33Z</time><name>PT4778</name></trkpt>
<trkpt lat="52.097055" lon="05.647725"><ele>44.9</ele><time>2022-04-13T12:39:34Z</time><name>PT4779</name></trkpt>
<trkpt lat="52.097047" lon="05.647742"><ele>44.9</ele><time>2022-04-13T12:39:35Z</time><name>PT4780</name></trkpt>
<trkpt lat="52.097040" lon="05.647755"><ele>44.9</ele><time>2022-04-13T12:39:36Z</time><name>PT4781</name></trkpt>
<trkpt lat="52.097034" lon="05.647764"><ele>44.9</ele><time>2022-04-13T12:39:37Z</time><name>PT4782</name></trkpt>
<trkpt lat="52.097026" lon="05.647775"><ele>44.8</ele><time>2022-04-13T12:39:38Z</time><name>PT4783</name></trkpt>
<trkpt lat="52.097020" lon="05.647787"><ele>45</ele><time>2022-04-13T12:39:39Z</time><name>PT4784</name></trkpt>
<trkpt lat="52.097014" lon="05.647800"><ele>45.1</ele><time>2022-04-13T12:39:40Z</time><name>PT4785</name></trkpt>
<trkpt lat="52.097010" lon="05.647809"><ele>45</ele><time>2022-04-13T12:39:41Z</time><name>PT4786</name></trkpt>
<trkpt lat="52.097003" lon="05.647825"><ele>45.5</ele><time>2022-04-13T12:39:46Z</time><name>PT4787</name></trkpt>
<trkpt lat="52.096988" lon="05.647861"><ele>45.6</ele><time>2022-04-13T12:39:47Z</time><name>PT4788</name></trkpt>
<trkpt lat="52.096985" lon="05.647885"><ele>45.6</ele><time>2022-04-13T12:39:48Z</time><name>PT4789</name></trkpt>
<trkpt lat="52.096996" lon="05.647926"><ele>45.7</ele><time>2022-04-13T12:39:49Z</time><name>PT4790</name></trkpt>
<trkpt lat="52.096985" lon="05.647943"><ele>45.6</ele><time>2022-04-13T12:39:50Z</time><name>PT4791</name></trkpt>
<trkpt lat="52.096982" lon="05.647966"><ele>45.6</ele><time>2022-04-13T12:39:51Z</time><name>PT4792</name></trkpt>
<trkpt lat="52.096980" lon="05.647993"><ele>45.6</ele><time>2022-04-13T12:39:52Z</time><name>PT4793</name></trkpt>
<trkpt lat="52.096978" lon="05.648012"><ele>45.7</ele><time>2022-04-13T12:39:53Z</time><name>PT4794</name></trkpt>
<trkpt lat="52.096980" lon="05.648033"><ele>45.6</ele><time>2022-04-13T12:39:54Z</time><name>PT4795</name></trkpt>
<trkpt lat="52.096982" lon="05.648056"><ele>45.7</ele><time>2022-04-13T12:39:55Z</time><name>PT4796</name></trkpt>
<trkpt lat="52.096983" lon="05.648065"><ele>45.8</ele><time>2022-04-13T12:39:56Z</time><name>PT4797</name></trkpt>
<trkpt lat="52.096990" lon="05.648081"><ele>45.9</ele><time>2022-04-13T12:39:57Z</time><name>PT4798</name></trkpt>
<trkpt lat="52.096994" lon="05.648093"><ele>45.9</ele><time>2022-04-13T12:39:58Z</time><name>PT4799</name></trkpt>
<trkpt lat="52.096992" lon="05.648115"><ele>45.9</ele><time>2022-04-13T12:39:59Z</time><name>PT4800</name></trkpt>
<trkpt lat="52.096984" lon="05.648127"><ele>45.9</ele><time>2022-04-13T12:40:00Z</time><name>PT4801</name></trkpt>
<trkpt lat="52.096977" lon="05.648143"><ele>45.8</ele><time>2022-04-13T12:40:01Z</time><name>PT4802</name></trkpt>
<trkpt lat="52.096974" lon="05.648164"><ele>45.9</ele><time>2022-04-13T12:40:02Z</time><name>PT4803</name></trkpt>
<trkpt lat="52.096966" lon="05.648180"><ele>45.9</ele><time>2022-04-13T12:40:03Z</time><name>PT4804</name></trkpt>
<trkpt lat="52.096966" lon="05.648200"><ele>46.1</ele><time>2022-04-13T12:40:04Z</time><name>PT4805</name></trkpt>
<trkpt lat="52.096963" lon="05.648213"><ele>46.1</ele><time>2022-04-13T12:40:05Z</time><name>PT4806</name></trkpt>
<trkpt lat="52.096963" lon="05.648230"><ele>46</ele><time>2022-04-13T12:40:06Z</time><name>PT4807</name></trkpt>
<trkpt lat="52.096959" lon="05.648250"><ele>46.2</ele><time>2022-04-13T12:40:07Z</time><name>PT4808</name></trkpt>
<trkpt lat="52.096954" lon="05.648270"><ele>46.2</ele><time>2022-04-13T12:40:08Z</time><name>PT4809</name></trkpt>
<trkpt lat="52.096951" lon="05.648288"><ele>46.2</ele><time>2022-04-13T12:40:09Z</time><name>PT4810</name></trkpt>
<trkpt lat="52.096947" lon="05.648302"><ele>46.4</ele><time>2022-04-13T12:40:10Z</time><name>PT4811</name></trkpt>
<trkpt lat="52.096945" lon="05.648321"><ele>46.4</ele><time>2022-04-13T12:40:11Z</time><name>PT4812</name></trkpt>
<trkpt lat="52.096941" lon="05.648344"><ele>46.5</ele><time>2022-04-13T12:40:12Z</time><name>PT4813</name></trkpt>
<trkpt lat="52.096936" lon="05.648367"><ele>46.4</ele><time>2022-04-13T12:40:13Z</time><name>PT4814</name></trkpt>
<trkpt lat="52.096935" lon="05.648386"><ele>46.3</ele><time>2022-04-13T12:40:14Z</time><name>PT4815</name></trkpt>
<trkpt lat="52.096933" lon="05.648403"><ele>46.2</ele><time>2022-04-13T12:40:15Z</time><name>PT4816</name></trkpt>
<trkpt lat="52.096930" lon="05.648422"><ele>46.3</ele><time>2022-04-13T12:40:16Z</time><name>PT4817</name></trkpt>
<trkpt lat="52.096931" lon="05.648437"><ele>46.3</ele><time>2022-04-13T12:40:17Z</time><name>PT4818</name></trkpt>
<trkpt lat="52.096929" lon="05.648451"><ele>46.4</ele><time>2022-04-13T12:40:18Z</time><name>PT4819</name></trkpt>
<trkpt lat="52.096924" lon="05.648466"><ele>46.7</ele><time>2022-04-13T12:40:19Z</time><name>PT4820</name></trkpt>
<trkpt lat="52.096922" lon="05.648483"><ele>46.7</ele><time>2022-04-13T12:40:20Z</time><name>PT4821</name></trkpt>
<trkpt lat="52.096921" lon="05.648499"><ele>46.6</ele><time>2022-04-13T12:40:21Z</time><name>PT4822</name></trkpt>
<trkpt lat="52.096922" lon="05.648516"><ele>46.6</ele><time>2022-04-13T12:40:22Z</time><name>PT4823</name></trkpt>
<trkpt lat="52.096924" lon="05.648535"><ele>46.6</ele><time>2022-04-13T12:40:23Z</time><name>PT4824</name></trkpt>
<trkpt lat="52.096921" lon="05.648555"><ele>46.4</ele><time>2022-04-13T12:40:24Z</time><name>PT4825</name></trkpt>
<trkpt lat="52.096916" lon="05.648569"><ele>46.4</ele><time>2022-04-13T12:40:25Z</time><name>PT4826</name></trkpt>
<trkpt lat="52.096916" lon="05.648583"><ele>46.4</ele><time>2022-04-13T12:40:26Z</time><name>PT4827</name></trkpt>
<trkpt lat="52.096913" lon="05.648599"><ele>46.4</ele><time>2022-04-13T12:40:27Z</time><name>PT4828</name></trkpt>
<trkpt lat="52.096912" lon="05.648620"><ele>46.3</ele><time>2022-04-13T12:40:28Z</time><name>PT4829</name></trkpt>
<trkpt lat="52.096912" lon="05.648638"><ele>46.4</ele><time>2022-04-13T12:40:29Z</time><name>PT4830</name></trkpt>
<trkpt lat="52.096909" lon="05.648659"><ele>46.5</ele><time>2022-04-13T12:40:30Z</time><name>PT4831</name></trkpt>
<trkpt lat="52.096902" lon="05.648682"><ele>46.5</ele><time>2022-04-13T12:40:31Z</time><name>PT4832</name></trkpt>
<trkpt lat="52.096893" lon="05.648703"><ele>46.6</ele><time>2022-04-13T12:40:32Z</time><name>PT4833</name></trkpt>
<trkpt lat="52.096885" lon="05.648722"><ele>46.5</ele><time>2022-04-13T12:40:33Z</time><name>PT4834</name></trkpt>
<trkpt lat="52.096880" lon="05.648737"><ele>46.6</ele><time>2022-04-13T12:40:34Z</time><name>PT4835</name></trkpt>
<trkpt lat="52.096872" lon="05.648761"><ele>46.5</ele><time>2022-04-13T12:40:35Z</time><name>PT4836</name></trkpt>
<trkpt lat="52.096866" lon="05.648780"><ele>46.5</ele><time>2022-04-13T12:40:36Z</time><name>PT4837</name></trkpt>
<trkpt lat="52.096860" lon="05.648798"><ele>46.5</ele><time>2022-04-13T12:40:37Z</time><name>PT4838</name></trkpt>
<trkpt lat="52.096853" lon="05.648810"><ele>46.6</ele><time>2022-04-13T12:40:38Z</time><name>PT4839</name></trkpt>
<trkpt lat="52.096849" lon="05.648821"><ele>46.5</ele><time>2022-04-13T12:40:39Z</time><name>PT4840</name></trkpt>
<trkpt lat="52.096843" lon="05.648836"><ele>46.6</ele><time>2022-04-13T12:40:40Z</time><name>PT4841</name></trkpt>
<trkpt lat="52.096835" lon="05.648857"><ele>46.6</ele><time>2022-04-13T12:40:41Z</time><name>PT4842</name></trkpt>
<trkpt lat="52.096830" lon="05.648876"><ele>46.6</ele><time>2022-04-13T12:40:42Z</time><name>PT4843</name></trkpt>
<trkpt lat="52.096823" lon="05.648894"><ele>46.5</ele><time>2022-04-13T12:40:43Z</time><name>PT4844</name></trkpt>
<trkpt lat="52.096816" lon="05.648909"><ele>46.5</ele><time>2022-04-13T12:40:44Z</time><name>PT4845</name></trkpt>
<trkpt lat="52.096812" lon="05.648924"><ele>46.5</ele><time>2022-04-13T12:40:45Z</time><name>PT4846</name></trkpt>
<trkpt lat="52.096807" lon="05.648934"><ele>46.4</ele><time>2022-04-13T12:40:46Z</time><name>PT4847</name></trkpt>
<trkpt lat="52.096801" lon="05.648944"><ele>46.4</ele><time>2022-04-13T12:40:47Z</time><name>PT4848</name></trkpt>
<trkpt lat="52.096793" lon="05.648956"><ele>46.2</ele><time>2022-04-13T12:40:48Z</time><name>PT4849</name></trkpt>
<trkpt lat="52.096780" lon="05.648968"><ele>46.2</ele><time>2022-04-13T12:40:49Z</time><name>PT4850</name></trkpt>
<trkpt lat="52.096769" lon="05.648980"><ele>46.2</ele><time>2022-04-13T12:40:50Z</time><name>PT4851</name></trkpt>
<trkpt lat="52.096759" lon="05.648996"><ele>46.2</ele><time>2022-04-13T12:40:51Z</time><name>PT4852</name></trkpt>
<trkpt lat="52.096747" lon="05.649019"><ele>46.3</ele><time>2022-04-13T12:40:52Z</time><name>PT4853</name></trkpt>
<trkpt lat="52.096734" lon="05.649027"><ele>46.5</ele><time>2022-04-13T12:40:53Z</time><name>PT4854</name></trkpt>
<trkpt lat="52.096721" lon="05.649039"><ele>46.6</ele><time>2022-04-13T12:40:54Z</time><name>PT4855</name></trkpt>
<trkpt lat="52.096715" lon="05.649047"><ele>46.5</ele><time>2022-04-13T12:40:55Z</time><name>PT4856</name></trkpt>
<trkpt lat="52.096707" lon="05.649057"><ele>46.6</ele><time>2022-04-13T12:40:56Z</time><name>PT4857</name></trkpt>
<trkpt lat="52.096695" lon="05.649065"><ele>46.2</ele><time>2022-04-13T12:40:57Z</time><name>PT4858</name></trkpt>
<trkpt lat="52.096688" lon="05.649073"><ele>46.2</ele><time>2022-04-13T12:40:58Z</time><name>PT4859</name></trkpt>
<trkpt lat="52.096678" lon="05.649091"><ele>46.2</ele><time>2022-04-13T12:40:59Z</time><name>PT4860</name></trkpt>
<trkpt lat="52.096667" lon="05.649102"><ele>46.2</ele><time>2022-04-13T12:41:00Z</time><name>PT4861</name></trkpt>
<trkpt lat="52.096660" lon="05.649114"><ele>46.2</ele><time>2022-04-13T12:41:01Z</time><name>PT4862</name></trkpt>
<trkpt lat="52.096652" lon="05.649130"><ele>46.2</ele><time>2022-04-13T12:41:02Z</time><name>PT4863</name></trkpt>
<trkpt lat="52.096642" lon="05.649139"><ele>46.2</ele><time>2022-04-13T12:41:03Z</time><name>PT4864</name></trkpt>
<trkpt lat="52.096629" lon="05.649150"><ele>46.1</ele><time>2022-04-13T12:41:04Z</time><name>PT4865</name></trkpt>
<trkpt lat="52.096618" lon="05.649162"><ele>46.2</ele><time>2022-04-13T12:41:05Z</time><name>PT4866</name></trkpt>
<trkpt lat="52.096612" lon="05.649171"><ele>46.2</ele><time>2022-04-13T12:41:06Z</time><name>PT4867</name></trkpt>
<trkpt lat="52.096603" lon="05.649182"><ele>46.2</ele><time>2022-04-13T12:41:07Z</time><name>PT4868</name></trkpt>
<trkpt lat="52.096595" lon="05.649194"><ele>46.2</ele><time>2022-04-13T12:41:08Z</time><name>PT4869</name></trkpt>
<trkpt lat="52.096588" lon="05.649204"><ele>46.4</ele><time>2022-04-13T12:41:09Z</time><name>PT4870</name></trkpt>
<trkpt lat="52.096580" lon="05.649211"><ele>46.4</ele><time>2022-04-13T12:41:10Z</time><name>PT4871</name></trkpt>
<trkpt lat="52.096571" lon="05.649222"><ele>46.4</ele><time>2022-04-13T12:41:11Z</time><name>PT4872</name></trkpt>
<trkpt lat="52.096565" lon="05.649234"><ele>46.4</ele><time>2022-04-13T12:41:12Z</time><name>PT4873</name></trkpt>
<trkpt lat="52.096557" lon="05.649247"><ele>46.2</ele><time>2022-04-13T12:41:13Z</time><name>PT4874</name></trkpt>
<trkpt lat="52.096547" lon="05.649261"><ele>46.2</ele><time>2022-04-13T12:41:14Z</time><name>PT4875</name></trkpt>
<trkpt lat="52.096539" lon="05.649275"><ele>46.2</ele><time>2022-04-13T12:41:15Z</time><name>PT4876</name></trkpt>
<trkpt lat="52.096537" lon="05.649286"><ele>46.2</ele><time>2022-04-13T12:41:16Z</time><name>PT4877</name></trkpt>
<trkpt lat="52.096530" lon="05.649297"><ele>46.2</ele><time>2022-04-13T12:41:17Z</time><name>PT4878</name></trkpt>
<trkpt lat="52.096522" lon="05.649305"><ele>46.3</ele><time>2022-04-13T12:41:18Z</time><name>PT4879</name></trkpt>
<trkpt lat="52.096519" lon="05.649313"><ele>46.3</ele><time>2022-04-13T12:41:19Z</time><name>PT4880</name></trkpt>
<trkpt lat="52.096516" lon="05.649327"><ele>46.2</ele><time>2022-04-13T12:41:20Z</time><name>PT4881</name></trkpt>
<trkpt lat="52.096507" lon="05.649336"><ele>46.4</ele><time>2022-04-13T12:41:21Z</time><name>PT4882</name></trkpt>
<trkpt lat="52.096502" lon="05.649346"><ele>46.5</ele><time>2022-04-13T12:41:22Z</time><name>PT4883</name></trkpt>
<trkpt lat="52.096493" lon="05.649353"><ele>46.4</ele><time>2022-04-13T12:41:23Z</time><name>PT4884</name></trkpt>
<trkpt lat="52.096486" lon="05.649362"><ele>46.1</ele><time>2022-04-13T12:41:24Z</time><name>PT4885</name></trkpt>
<trkpt lat="52.096476" lon="05.649377"><ele>46.2</ele><time>2022-04-13T12:41:25Z</time><name>PT4886</name></trkpt>
<trkpt lat="52.096466" lon="05.649385"><ele>46</ele><time>2022-04-13T12:41:26Z</time><name>PT4887</name></trkpt>
<trkpt lat="52.096457" lon="05.649392"><ele>45.9</ele><time>2022-04-13T12:41:27Z</time><name>PT4888</name></trkpt>
<trkpt lat="52.096453" lon="05.649400"><ele>46</ele><time>2022-04-13T12:41:28Z</time><name>PT4889</name></trkpt>
<trkpt lat="52.096449" lon="05.649408"><ele>46.2</ele><time>2022-04-13T12:41:29Z</time><name>PT4890</name></trkpt>
<trkpt lat="52.096439" lon="05.649420"><ele>46.2</ele><time>2022-04-13T12:41:30Z</time><name>PT4891</name></trkpt>
<trkpt lat="52.096430" lon="05.649428"><ele>46.2</ele><time>2022-04-13T12:41:31Z</time><name>PT4892</name></trkpt>
<trkpt lat="52.096423" lon="05.649436"><ele>46.1</ele><time>2022-04-13T12:41:32Z</time><name>PT4893</name></trkpt>
<trkpt lat="52.096413" lon="05.649446"><ele>45.9</ele><time>2022-04-13T12:41:33Z</time><name>PT4894</name></trkpt>
<trkpt lat="52.096405" lon="05.649460"><ele>45.8</ele><time>2022-04-13T12:41:34Z</time><name>PT4895</name></trkpt>
<trkpt lat="52.096396" lon="05.649473"><ele>45.7</ele><time>2022-04-13T12:41:35Z</time><name>PT4896</name></trkpt>
<trkpt lat="52.096387" lon="05.649485"><ele>45.7</ele><time>2022-04-13T12:41:36Z</time><name>PT4897</name></trkpt>
<trkpt lat="52.096379" lon="05.649498"><ele>45.8</ele><time>2022-04-13T12:41:37Z</time><name>PT4898</name></trkpt>
<trkpt lat="52.096371" lon="05.649505"><ele>45.9</ele><time>2022-04-13T12:41:38Z</time><name>PT4899</name></trkpt>
<trkpt lat="52.096364" lon="05.649514"><ele>45.9</ele><time>2022-04-13T12:41:39Z</time><name>PT4900</name></trkpt>
<trkpt lat="52.096358" lon="05.649522"><ele>45.9</ele><time>2022-04-13T12:41:40Z</time><name>PT4901</name></trkpt>
<trkpt lat="52.096354" lon="05.649527"><ele>46</ele><time>2022-04-13T12:41:41Z</time><name>PT4902</name></trkpt>
<trkpt lat="52.096346" lon="05.649531"><ele>46.1</ele><time>2022-04-13T12:41:42Z</time><name>PT4903</name></trkpt>
<trkpt lat="52.096341" lon="05.649540"><ele>46.2</ele><time>2022-04-13T12:41:43Z</time><name>PT4904</name></trkpt>
<trkpt lat="52.096332" lon="05.649552"><ele>46.2</ele><time>2022-04-13T12:41:44Z</time><name>PT4905</name></trkpt>
<trkpt lat="52.096327" lon="05.649561"><ele>46.1</ele><time>2022-04-13T12:41:45Z</time><name>PT4906</name></trkpt>
<trkpt lat="52.096321" lon="05.649571"><ele>46.1</ele><time>2022-04-13T12:41:46Z</time><name>PT4907</name></trkpt>
<trkpt lat="52.096311" lon="05.649583"><ele>46.2</ele><time>2022-04-13T12:41:47Z</time><name>PT4908</name></trkpt>
<trkpt lat="52.096305" lon="05.649593"><ele>46.1</ele><time>2022-04-13T12:41:48Z</time><name>PT4909</name></trkpt>
<trkpt lat="52.096297" lon="05.649603"><ele>46.2</ele><time>2022-04-13T12:41:49Z</time><name>PT4910</name></trkpt>
<trkpt lat="52.096290" lon="05.649612"><ele>46.1</ele><time>2022-04-13T12:41:50Z</time><name>PT4911</name></trkpt>
<trkpt lat="52.096283" lon="05.649622"><ele>46.2</ele><time>2022-04-13T12:41:51Z</time><name>PT4912</name></trkpt>
<trkpt lat="52.096278" lon="05.649630"><ele>46.2</ele><time>2022-04-13T12:41:52Z</time><name>PT4913</name></trkpt>
<trkpt lat="52.096269" lon="05.649639"><ele>46.3</ele><time>2022-04-13T12:41:53Z</time><name>PT4914</name></trkpt>
<trkpt lat="52.096262" lon="05.649649"><ele>46.2</ele><time>2022-04-13T12:41:54Z</time><name>PT4915</name></trkpt>
<trkpt lat="52.096254" lon="05.649659"><ele>46.4</ele><time>2022-04-13T12:41:55Z</time><name>PT4916</name></trkpt>
<trkpt lat="52.096245" lon="05.649667"><ele>46.4</ele><time>2022-04-13T12:41:56Z</time><name>PT4917</name></trkpt>
<trkpt lat="52.096238" lon="05.649671"><ele>46.3</ele><time>2022-04-13T12:41:57Z</time><name>PT4918</name></trkpt>
<trkpt lat="52.096230" lon="05.649683"><ele>46.2</ele><time>2022-04-13T12:41:58Z</time><name>PT4919</name></trkpt>
<trkpt lat="52.096224" lon="05.649697"><ele>46.2</ele><time>2022-04-13T12:41:59Z</time><name>PT4920</name></trkpt>
<trkpt lat="52.096221" lon="05.649710"><ele>46.1</ele><time>2022-04-13T12:42:00Z</time><name>PT4921</name></trkpt>
<trkpt lat="52.096216" lon="05.649722"><ele>46</ele><time>2022-04-13T12:42:01Z</time><name>PT4922</name></trkpt>
<trkpt lat="52.096217" lon="05.649733"><ele>46</ele><time>2022-04-13T12:42:02Z</time><name>PT4923</name></trkpt>
<trkpt lat="52.096214" lon="05.649736"><ele>46.1</ele><time>2022-04-13T12:42:03Z</time><name>PT4924</name></trkpt>
<trkpt lat="52.096209" lon="05.649736"><ele>46.2</ele><time>2022-04-13T12:42:04Z</time><name>PT4925</name></trkpt>
<trkpt lat="52.096207" lon="05.649738"><ele>46.2</ele><time>2022-04-13T12:42:05Z</time><name>PT4926</name></trkpt>
<trkpt lat="52.096205" lon="05.649739"><ele>46.2</ele><time>2022-04-13T12:42:06Z</time><name>PT4927</name></trkpt>
<trkpt lat="52.096200" lon="05.649748"><ele>46.2</ele><time>2022-04-13T12:42:12Z</time><name>PT4928</name></trkpt>
<trkpt lat="52.096196" lon="05.649752"><ele>46.2</ele><time>2022-04-13T12:42:13Z</time><name>PT4929</name></trkpt>
<trkpt lat="52.096192" lon="05.649763"><ele>46.2</ele><time>2022-04-13T12:42:14Z</time><name>PT4930</name></trkpt>
<trkpt lat="52.096186" lon="05.649771"><ele>46.2</ele><time>2022-04-13T12:42:15Z</time><name>PT4931</name></trkpt>
<trkpt lat="52.096174" lon="05.649776"><ele>46.3</ele><time>2022-04-13T12:42:16Z</time><name>PT4932</name></trkpt>
<trkpt lat="52.096167" lon="05.649773"><ele>46.2</ele><time>2022-04-13T12:42:17Z</time><name>PT4933</name></trkpt>
<trkpt lat="52.096161" lon="05.649770"><ele>46.2</ele><time>2022-04-13T12:42:18Z</time><name>PT4934</name></trkpt>
<trkpt lat="52.096154" lon="05.649765"><ele>46.1</ele><time>2022-04-13T12:42:19Z</time><name>PT4935</name></trkpt>
<trkpt lat="52.096145" lon="05.649755"><ele>45.9</ele><time>2022-04-13T12:42:20Z</time><name>PT4936</name></trkpt>
<trkpt lat="52.096138" lon="05.649743"><ele>45.9</ele><time>2022-04-13T12:42:21Z</time><name>PT4937</name></trkpt>
<trkpt lat="52.096131" lon="05.649730"><ele>45.7</ele><time>2022-04-13T12:42:22Z</time><name>PT4938</name></trkpt>
<trkpt lat="52.096128" lon="05.649717"><ele>45.7</ele><time>2022-04-13T12:42:23Z</time><name>PT4939</name></trkpt>
<trkpt lat="52.096124" lon="05.649708"><ele>45.8</ele><time>2022-04-13T12:42:24Z</time><name>PT4940</name></trkpt>
<trkpt lat="52.096121" lon="05.649693"><ele>45.8</ele><time>2022-04-13T12:42:25Z</time><name>PT4941</name></trkpt>
<trkpt lat="52.096118" lon="05.649681"><ele>45.7</ele><time>2022-04-13T12:42:26Z</time><name>PT4942</name></trkpt>
<trkpt lat="52.096115" lon="05.649665"><ele>45.7</ele><time>2022-04-13T12:42:27Z</time><name>PT4943</name></trkpt>
<trkpt lat="52.096112" lon="05.649650"><ele>45.6</ele><time>2022-04-13T12:42:28Z</time><name>PT4944</name></trkpt>
<trkpt lat="52.096113" lon="05.649636"><ele>45.5</ele><time>2022-04-13T12:42:29Z</time><name>PT4945</name></trkpt>
<trkpt lat="52.096112" lon="05.649622"><ele>45.6</ele><time>2022-04-13T12:42:30Z</time><name>PT4946</name></trkpt>
<trkpt lat="52.096111" lon="05.649607"><ele>45.7</ele><time>2022-04-13T12:42:31Z</time><name>PT4947</name></trkpt>
<trkpt lat="52.096113" lon="05.649594"><ele>45.9</ele><time>2022-04-13T12:42:32Z</time><name>PT4948</name></trkpt>
<trkpt lat="52.096113" lon="05.649583"><ele>45.8</ele><time>2022-04-13T12:42:33Z</time><name>PT4949</name></trkpt>
<trkpt lat="52.096113" lon="05.649572"><ele>45.8</ele><time>2022-04-13T12:42:34Z</time><name>PT4950</name></trkpt>
<trkpt lat="52.096114" lon="05.649562"><ele>45.8</ele><time>2022-04-13T12:42:35Z</time><name>PT4951</name></trkpt>
<trkpt lat="52.096113" lon="05.649549"><ele>45.7</ele><time>2022-04-13T12:42:36Z</time><name>PT4952</name></trkpt>
<trkpt lat="52.096108" lon="05.649534"><ele>45.7</ele><time>2022-04-13T12:42:37Z</time><name>PT4953</name></trkpt>
<trkpt lat="52.096103" lon="05.649523"><ele>45.7</ele><time>2022-04-13T12:42:38Z</time><name>PT4954</name></trkpt>
<trkpt lat="52.096099" lon="05.649506"><ele>45.7</ele><time>2022-04-13T12:42:39Z</time><name>PT4955</name></trkpt>
<trkpt lat="52.096098" lon="05.649492"><ele>45.7</ele><time>2022-04-13T12:42:40Z</time><name>PT4956</name></trkpt>
<trkpt lat="52.096096" lon="05.649481"><ele>45.7</ele><time>2022-04-13T12:42:41Z</time><name>PT4957</name></trkpt>
<trkpt lat="52.096093" lon="05.649464"><ele>45.7</ele><time>2022-04-13T12:42:42Z</time><name>PT4958</name></trkpt>
<trkpt lat="52.096089" lon="05.649449"><ele>45.7</ele><time>2022-04-13T12:42:43Z</time><name>PT4959</name></trkpt>
<trkpt lat="52.096085" lon="05.649437"><ele>45.6</ele><time>2022-04-13T12:42:44Z</time><name>PT4960</name></trkpt>
<trkpt lat="52.096082" lon="05.649429"><ele>45.7</ele><time>2022-04-13T12:42:45Z</time><name>PT4961</name></trkpt>
<trkpt lat="52.096077" lon="05.649422"><ele>45.7</ele><time>2022-04-13T12:42:46Z</time><name>PT4962</name></trkpt>
<trkpt lat="52.096076" lon="05.649411"><ele>45.7</ele><time>2022-04-13T12:42:47Z</time><name>PT4963</name></trkpt>
<trkpt lat="52.096073" lon="05.649400"><ele>45.7</ele><time>2022-04-13T12:42:48Z</time><name>PT4964</name></trkpt>
<trkpt lat="52.096071" lon="05.649385"><ele>45.7</ele><time>2022-04-13T12:42:49Z</time><name>PT4965</name></trkpt>
<trkpt lat="52.096068" lon="05.649372"><ele>45.5</ele><time>2022-04-13T12:42:50Z</time><name>PT4966</name></trkpt>
<trkpt lat="52.096068" lon="05.649355"><ele>45.4</ele><time>2022-04-13T12:42:51Z</time><name>PT4967</name></trkpt>
<trkpt lat="52.096068" lon="05.649339"><ele>45.3</ele><time>2022-04-13T12:42:52Z</time><name>PT4968</name></trkpt>
<trkpt lat="52.096067" lon="05.649328"><ele>45.4</ele><time>2022-04-13T12:42:53Z</time><name>PT4969</name></trkpt>
<trkpt lat="52.096067" lon="05.649316"><ele>45.5</ele><time>2022-04-13T12:42:54Z</time><name>PT4970</name></trkpt>
<trkpt lat="52.096065" lon="05.649298"><ele>45.4</ele><time>2022-04-13T12:42:55Z</time><name>PT4971</name></trkpt>
<trkpt lat="52.096063" lon="05.649285"><ele>45.4</ele><time>2022-04-13T12:42:56Z</time><name>PT4972</name></trkpt>
<trkpt lat="52.096065" lon="05.649273"><ele>45.5</ele><time>2022-04-13T12:42:57Z</time><name>PT4973</name></trkpt>
<trkpt lat="52.096071" lon="05.649257"><ele>45.6</ele><time>2022-04-13T12:42:58Z</time><name>PT4974</name></trkpt>
<trkpt lat="52.096071" lon="05.649244"><ele>45.7</ele><time>2022-04-13T12:42:59Z</time><name>PT4975</name></trkpt>
<trkpt lat="52.096067" lon="05.649236"><ele>45.7</ele><time>2022-04-13T12:43:00Z</time><name>PT4976</name></trkpt>
<trkpt lat="52.096067" lon="05.649228"><ele>45.7</ele><time>2022-04-13T12:43:01Z</time><name>PT4977</name></trkpt>
<trkpt lat="52.096065" lon="05.649216"><ele>45.7</ele><time>2022-04-13T12:43:02Z</time><name>PT4978</name></trkpt>
<trkpt lat="52.096067" lon="05.649204"><ele>45.7</ele><time>2022-04-13T12:43:03Z</time><name>PT4979</name></trkpt>
<trkpt lat="52.096063" lon="05.649192"><ele>45.7</ele><time>2022-04-13T12:43:04Z</time><name>PT4980</name></trkpt>
<trkpt lat="52.096059" lon="05.649177"><ele>45.7</ele><time>2022-04-13T12:43:05Z</time><name>PT4981</name></trkpt>
<trkpt lat="52.096055" lon="05.649165"><ele>45.7</ele><time>2022-04-13T12:43:06Z</time><name>PT4982</name></trkpt>
<trkpt lat="52.096056" lon="05.649153"><ele>45.8</ele><time>2022-04-13T12:43:07Z</time><name>PT4983</name></trkpt>
<trkpt lat="52.096050" lon="05.649135"><ele>45.8</ele><time>2022-04-13T12:43:08Z</time><name>PT4984</name></trkpt>
<trkpt lat="52.096041" lon="05.649121"><ele>45.8</ele><time>2022-04-13T12:43:09Z</time><name>PT4985</name></trkpt>
<trkpt lat="52.096043" lon="05.649105"><ele>45.7</ele><time>2022-04-13T12:43:10Z</time><name>PT4986</name></trkpt>
<trkpt lat="52.096044" lon="05.649096"><ele>45.7</ele><time>2022-04-13T12:43:11Z</time><name>PT4987</name></trkpt>
<trkpt lat="52.096044" lon="05.649088"><ele>45.6</ele><time>2022-04-13T12:43:12Z</time><name>PT4988</name></trkpt>
<trkpt lat="52.096044" lon="05.649071"><ele>45.3</ele><time>2022-04-13T12:43:13Z</time><name>PT4989</name></trkpt>
<trkpt lat="52.096041" lon="05.649055"><ele>45.2</ele><time>2022-04-13T12:43:14Z</time><name>PT4990</name></trkpt>
<trkpt lat="52.096041" lon="05.649039"><ele>45.2</ele><time>2022-04-13T12:43:15Z</time><name>PT4991</name></trkpt>
<trkpt lat="52.096041" lon="05.649027"><ele>45.2</ele><time>2022-04-13T12:43:16Z</time><name>PT4992</name></trkpt>
<trkpt lat="52.096041" lon="05.649009"><ele>45.2</ele><time>2022-04-13T12:43:17Z</time><name>PT4993</name></trkpt>
<trkpt lat="52.096045" lon="05.648995"><ele>45.4</ele><time>2022-04-13T12:43:18Z</time><name>PT4994</name></trkpt>
<trkpt lat="52.096046" lon="05.648974"><ele>45.5</ele><time>2022-04-13T12:43:19Z</time><name>PT4995</name></trkpt>
<trkpt lat="52.096043" lon="05.648955"><ele>45.5</ele><time>2022-04-13T12:43:20Z</time><name>PT4996</name></trkpt>
<trkpt lat="52.096041" lon="05.648946"><ele>45.6</ele><time>2022-04-13T12:43:21Z</time><name>PT4997</name></trkpt>
<trkpt lat="52.096040" lon="05.648930"><ele>45.7</ele><time>2022-04-13T12:43:22Z</time><name>PT4998</name></trkpt>
<trkpt lat="52.096034" lon="05.648909"><ele>45.9</ele><time>2022-04-13T12:43:23Z</time><name>PT4999</name></trkpt>
<trkpt lat="52.096030" lon="05.648893"><ele>45.9</ele><time>2022-04-13T12:43:24Z</time><name>PT5000</name></trkpt>
<trkpt lat="52.096021" lon="05.648877"><ele>45.9</ele><time>2022-04-13T12:43:25Z</time><name>PT5001</name></trkpt>
<trkpt lat="52.096015" lon="05.648862"><ele>45.8</ele><time>2022-04-13T12:43:26Z</time><name>PT5002</name></trkpt>
<trkpt lat="52.096013" lon="05.648847"><ele>45.7</ele><time>2022-04-13T12:43:27Z</time><name>PT5003</name></trkpt>
<trkpt lat="52.096005" lon="05.648829"><ele>45.7</ele><time>2022-04-13T12:43:28Z</time><name>PT5004</name></trkpt>
<trkpt lat="52.095998" lon="05.648815"><ele>45.7</ele><time>2022-04-13T12:43:29Z</time><name>PT5005</name></trkpt>
<trkpt lat="52.095992" lon="05.648803"><ele>45.7</ele><time>2022-04-13T12:43:30Z</time><name>PT5006</name></trkpt>
<trkpt lat="52.095986" lon="05.648785"><ele>45.5</ele><time>2022-04-13T12:43:31Z</time><name>PT5007</name></trkpt>
<trkpt lat="52.095982" lon="05.648770"><ele>45.5</ele><time>2022-04-13T12:43:32Z</time><name>PT5008</name></trkpt>
<trkpt lat="52.095976" lon="05.648755"><ele>45.3</ele><time>2022-04-13T12:43:33Z</time><name>PT5009</name></trkpt>
<trkpt lat="52.095972" lon="05.648745"><ele>45.5</ele><time>2022-04-13T12:43:34Z</time><name>PT5010</name></trkpt>
<trkpt lat="52.095968" lon="05.648734"><ele>45.6</ele><time>2022-04-13T12:43:35Z</time><name>PT5011</name></trkpt>
<trkpt lat="52.095962" lon="05.648720"><ele>45.6</ele><time>2022-04-13T12:43:36Z</time><name>PT5012</name></trkpt>
<trkpt lat="52.095958" lon="05.648704"><ele>45.8</ele><time>2022-04-13T12:43:37Z</time><name>PT5013</name></trkpt>
<trkpt lat="52.095957" lon="05.648685"><ele>45.9</ele><time>2022-04-13T12:43:38Z</time><name>PT5014</name></trkpt>
<trkpt lat="52.095955" lon="05.648666"><ele>45.8</ele><time>2022-04-13T12:43:39Z</time><name>PT5015</name></trkpt>
<trkpt lat="52.095952" lon="05.648653"><ele>46.1</ele><time>2022-04-13T12:43:40Z</time><name>PT5016</name></trkpt>
<trkpt lat="52.095950" lon="05.648635"><ele>45.9</ele><time>2022-04-13T12:43:41Z</time><name>PT5017</name></trkpt>
<trkpt lat="52.095953" lon="05.648616"><ele>45.8</ele><time>2022-04-13T12:43:42Z</time><name>PT5018</name></trkpt>
<trkpt lat="52.095954" lon="05.648605"><ele>45.7</ele><time>2022-04-13T12:43:43Z</time><name>PT5019</name></trkpt>
<trkpt lat="52.095954" lon="05.648583"><ele>45.7</ele><time>2022-04-13T12:43:44Z</time><name>PT5020</name></trkpt>
<trkpt lat="52.095954" lon="05.648571"><ele>45.7</ele><time>2022-04-13T12:43:45Z</time><name>PT5021</name></trkpt>
<trkpt lat="52.095952" lon="05.648556"><ele>45.8</ele><time>2022-04-13T12:43:46Z</time><name>PT5022</name></trkpt>
<trkpt lat="52.095954" lon="05.648541"><ele>46</ele><time>2022-04-13T12:43:47Z</time><name>PT5023</name></trkpt>
<trkpt lat="52.095955" lon="05.648526"><ele>46.1</ele><time>2022-04-13T12:43:48Z</time><name>PT5024</name></trkpt>
<trkpt lat="52.095957" lon="05.648512"><ele>46.1</ele><time>2022-04-13T12:43:49Z</time><name>PT5025</name></trkpt>
<trkpt lat="52.095960" lon="05.648495"><ele>46.1</ele><time>2022-04-13T12:43:50Z</time><name>PT5026</name></trkpt>
<trkpt lat="52.095964" lon="05.648480"><ele>46</ele><time>2022-04-13T12:43:51Z</time><name>PT5027</name></trkpt>
<trkpt lat="52.095967" lon="05.648464"><ele>45.8</ele><time>2022-04-13T12:43:52Z</time><name>PT5028</name></trkpt>
<trkpt lat="52.095972" lon="05.648444"><ele>45.8</ele><time>2022-04-13T12:43:53Z</time><name>PT5029</name></trkpt>
<trkpt lat="52.095974" lon="05.648422"><ele>45.7</ele><time>2022-04-13T12:43:54Z</time><name>PT5030</name></trkpt>
<trkpt lat="52.095977" lon="05.648407"><ele>45.6</ele><time>2022-04-13T12:43:55Z</time><name>PT5031</name></trkpt>
<trkpt lat="52.095979" lon="05.648389"><ele>45.3</ele><time>2022-04-13T12:43:56Z</time><name>PT5032</name></trkpt>
<trkpt lat="52.095984" lon="05.648371"><ele>45.2</ele><time>2022-04-13T12:43:57Z</time><name>PT5033</name></trkpt>
<trkpt lat="52.095988" lon="05.648353"><ele>45.1</ele><time>2022-04-13T12:43:58Z</time><name>PT5034</name></trkpt>
<trkpt lat="52.095994" lon="05.648339"><ele>45.1</ele><time>2022-04-13T12:43:59Z</time><name>PT5035</name></trkpt>
<trkpt lat="52.096000" lon="05.648324"><ele>45.2</ele><time>2022-04-13T12:44:00Z</time><name>PT5036</name></trkpt>
<trkpt lat="52.096001" lon="05.648299"><ele>45.2</ele><time>2022-04-13T12:44:01Z</time><name>PT5037</name></trkpt>
<trkpt lat="52.096006" lon="05.648280"><ele>45.2</ele><time>2022-04-13T12:44:02Z</time><name>PT5038</name></trkpt>
<trkpt lat="52.096010" lon="05.648260"><ele>45.2</ele><time>2022-04-13T12:44:03Z</time><name>PT5039</name></trkpt>
<trkpt lat="52.096018" lon="05.648242"><ele>45.2</ele><time>2022-04-13T12:44:04Z</time><name>PT5040</name></trkpt>
<trkpt lat="52.096026" lon="05.648222"><ele>45.2</ele><time>2022-04-13T12:44:05Z</time><name>PT5041</name></trkpt>
<trkpt lat="52.096030" lon="05.648204"><ele>45.2</ele><time>2022-04-13T12:44:06Z</time><name>PT5042</name></trkpt>
<trkpt lat="52.096037" lon="05.648188"><ele>45.2</ele><time>2022-04-13T12:44:07Z</time><name>PT5043</name></trkpt>
<trkpt lat="52.096044" lon="05.648173"><ele>45.2</ele><time>2022-04-13T12:44:08Z</time><name>PT5044</name></trkpt>
<trkpt lat="52.096053" lon="05.648160"><ele>45</ele><time>2022-04-13T12:44:09Z</time><name>PT5045</name></trkpt>
<trkpt lat="52.096060" lon="05.648146"><ele>45</ele><time>2022-04-13T12:44:10Z</time><name>PT5046</name></trkpt>
<trkpt lat="52.096066" lon="05.648129"><ele>45</ele><time>2022-04-13T12:44:11Z</time><name>PT5047</name></trkpt>
<trkpt lat="52.096073" lon="05.648115"><ele>45.2</ele><time>2022-04-13T12:44:12Z</time><name>PT5048</name></trkpt>
<trkpt lat="52.096077" lon="05.648099"><ele>45.2</ele><time>2022-04-13T12:44:13Z</time><name>PT5049</name></trkpt>
<trkpt lat="52.096084" lon="05.648081"><ele>45.3</ele><time>2022-04-13T12:44:14Z</time><name>PT5050</name></trkpt>
<trkpt lat="52.096094" lon="05.648067"><ele>45.2</ele><time>2022-04-13T12:44:15Z</time><name>PT5051</name></trkpt>
<trkpt lat="52.096101" lon="05.648052"><ele>45.3</ele><time>2022-04-13T12:44:16Z</time><name>PT5052</name></trkpt>
<trkpt lat="52.096109" lon="05.648036"><ele>45.3</ele><time>2022-04-13T12:44:17Z</time><name>PT5053</name></trkpt>
<trkpt lat="52.096118" lon="05.648023"><ele>45.2</ele><time>2022-04-13T12:44:18Z</time><name>PT5054</name></trkpt>
<trkpt lat="52.096127" lon="05.648012"><ele>45.4</ele><time>2022-04-13T12:44:19Z</time><name>PT5055</name></trkpt>
<trkpt lat="52.096136" lon="05.648002"><ele>45.5</ele><time>2022-04-13T12:44:20Z</time><name>PT5056</name></trkpt>
<trkpt lat="52.096144" lon="05.647992"><ele>45.3</ele><time>2022-04-13T12:44:21Z</time><name>PT5057</name></trkpt>
<trkpt lat="52.096155" lon="05.647983"><ele>45.2</ele><time>2022-04-13T12:44:22Z</time><name>PT5058</name></trkpt>
<trkpt lat="52.096165" lon="05.647976"><ele>45.2</ele><time>2022-04-13T12:44:23Z</time><name>PT5059</name></trkpt>
<trkpt lat="52.096176" lon="05.647969"><ele>45</ele><time>2022-04-13T12:44:24Z</time><name>PT5060</name></trkpt>
<trkpt lat="52.096186" lon="05.647963"><ele>45</ele><time>2022-04-13T12:44:25Z</time><name>PT5061</name></trkpt>
<trkpt lat="52.096197" lon="05.647960"><ele>44.9</ele><time>2022-04-13T12:44:26Z</time><name>PT5062</name></trkpt>
<trkpt lat="52.096207" lon="05.647959"><ele>45</ele><time>2022-04-13T12:44:27Z</time><name>PT5063</name></trkpt>
<trkpt lat="52.096217" lon="05.647956"><ele>45.1</ele><time>2022-04-13T12:44:28Z</time><name>PT5064</name></trkpt>
<trkpt lat="52.096228" lon="05.647954"><ele>45.2</ele><time>2022-04-13T12:44:29Z</time><name>PT5065</name></trkpt>
<trkpt lat="52.096236" lon="05.647954"><ele>45.4</ele><time>2022-04-13T12:44:30Z</time><name>PT5066</name></trkpt>
<trkpt lat="52.096245" lon="05.647955"><ele>45.5</ele><time>2022-04-13T12:44:31Z</time><name>PT5067</name></trkpt>
<trkpt lat="52.096255" lon="05.647955"><ele>45.5</ele><time>2022-04-13T12:44:32Z</time><name>PT5068</name></trkpt>
<trkpt lat="52.096263" lon="05.647955"><ele>45.6</ele><time>2022-04-13T12:44:33Z</time><name>PT5069</name></trkpt>
<trkpt lat="52.096270" lon="05.647954"><ele>45.4</ele><time>2022-04-13T12:44:34Z</time><name>PT5070</name></trkpt>
<trkpt lat="52.096278" lon="05.647955"><ele>45.3</ele><time>2022-04-13T12:44:35Z</time><name>PT5071</name></trkpt>
<trkpt lat="52.096289" lon="05.647957"><ele>45.5</ele><time>2022-04-13T12:44:36Z</time><name>PT5072</name></trkpt>
<trkpt lat="52.096300" lon="05.647956"><ele>45.7</ele><time>2022-04-13T12:44:37Z</time><name>PT5073</name></trkpt>
<trkpt lat="52.096309" lon="05.647956"><ele>45.9</ele><time>2022-04-13T12:44:38Z</time><name>PT5074</name></trkpt>
<trkpt lat="52.096321" lon="05.647955"><ele>46</ele><time>2022-04-13T12:44:39Z</time><name>PT5075</name></trkpt>
<trkpt lat="52.096330" lon="05.647953"><ele>46</ele><time>2022-04-13T12:44:40Z</time><name>PT5076</name></trkpt>
<trkpt lat="52.096338" lon="05.647950"><ele>45.8</ele><time>2022-04-13T12:44:41Z</time><name>PT5077</name></trkpt>
<trkpt lat="52.096345" lon="05.647944"><ele>45.7</ele><time>2022-04-13T12:44:42Z</time><name>PT5078</name></trkpt>
<trkpt lat="52.096352" lon="05.647943"><ele>45.7</ele><time>2022-04-13T12:44:43Z</time><name>PT5079</name></trkpt>
<trkpt lat="52.096356" lon="05.647937"><ele>45.7</ele><time>2022-04-13T12:44:44Z</time><name>PT5080</name></trkpt>
<trkpt lat="52.096364" lon="05.647928"><ele>45.7</ele><time>2022-04-13T12:44:45Z</time><name>PT5081</name></trkpt>
<trkpt lat="52.096371" lon="05.647919"><ele>45.7</ele><time>2022-04-13T12:44:46Z</time><name>PT5082</name></trkpt>
<trkpt lat="52.096381" lon="05.647907"><ele>45.7</ele><time>2022-04-13T12:44:47Z</time><name>PT5083</name></trkpt>
<trkpt lat="52.096390" lon="05.647897"><ele>45.6</ele><time>2022-04-13T12:44:48Z</time><name>PT5084</name></trkpt>
<trkpt lat="52.096398" lon="05.647885"><ele>45.6</ele><time>2022-04-13T12:44:49Z</time><name>PT5085</name></trkpt>
<trkpt lat="52.096405" lon="05.647876"><ele>45.5</ele><time>2022-04-13T12:44:50Z</time><name>PT5086</name></trkpt>
<trkpt lat="52.096415" lon="05.647868"><ele>45.5</ele><time>2022-04-13T12:44:51Z</time><name>PT5087</name></trkpt>
<trkpt lat="52.096429" lon="05.647856"><ele>45.7</ele><time>2022-04-13T12:44:52Z</time><name>PT5088</name></trkpt>
<trkpt lat="52.096443" lon="05.647845"><ele>45.6</ele><time>2022-04-13T12:44:53Z</time><name>PT5089</name></trkpt>
<trkpt lat="52.096450" lon="05.647834"><ele>45.7</ele><time>2022-04-13T12:44:54Z</time><name>PT5090</name></trkpt>
<trkpt lat="52.096455" lon="05.647819"><ele>45.8</ele><time>2022-04-13T12:44:55Z</time><name>PT5091</name></trkpt>
<trkpt lat="52.096468" lon="05.647805"><ele>45.7</ele><time>2022-04-13T12:44:56Z</time><name>PT5092</name></trkpt>
<trkpt lat="52.096475" lon="05.647793"><ele>45.6</ele><time>2022-04-13T12:44:57Z</time><name>PT5093</name></trkpt>
<trkpt lat="52.096482" lon="05.647779"><ele>45.4</ele><time>2022-04-13T12:44:58Z</time><name>PT5094</name></trkpt>
<trkpt lat="52.096490" lon="05.647767"><ele>45.4</ele><time>2022-04-13T12:44:59Z</time><name>PT5095</name></trkpt>
<trkpt lat="52.096497" lon="05.647751"><ele>45.3</ele><time>2022-04-13T12:45:00Z</time><name>PT5096</name></trkpt>
<trkpt lat="52.096506" lon="05.647740"><ele>45.5</ele><time>2022-04-13T12:45:01Z</time><name>PT5097</name></trkpt>
<trkpt lat="52.096515" lon="05.647725"><ele>45.4</ele><time>2022-04-13T12:45:02Z</time><name>PT5098</name></trkpt>
<trkpt lat="52.096524" lon="05.647713"><ele>45.6</ele><time>2022-04-13T12:45:03Z</time><name>PT5099</name></trkpt>
<trkpt lat="52.096534" lon="05.647700"><ele>45.8</ele><time>2022-04-13T12:45:04Z</time><name>PT5100</name></trkpt>
<trkpt lat="52.096541" lon="05.647689"><ele>45.8</ele><time>2022-04-13T12:45:05Z</time><name>PT5101</name></trkpt>
<trkpt lat="52.096551" lon="05.647674"><ele>45.8</ele><time>2022-04-13T12:45:06Z</time><name>PT5102</name></trkpt>
<trkpt lat="52.096559" lon="05.647660"><ele>45.7</ele><time>2022-04-13T12:45:07Z</time><name>PT5103</name></trkpt>
<trkpt lat="52.096565" lon="05.647652"><ele>45.6</ele><time>2022-04-13T12:45:08Z</time><name>PT5104</name></trkpt>
<trkpt lat="52.096574" lon="05.647642"><ele>45.6</ele><time>2022-04-13T12:45:09Z</time><name>PT5105</name></trkpt>
<trkpt lat="52.096579" lon="05.647630"><ele>45.8</ele><time>2022-04-13T12:45:10Z</time><name>PT5106</name></trkpt>
<trkpt lat="52.096585" lon="05.647617"><ele>45.7</ele><time>2022-04-13T12:45:11Z</time><name>PT5107</name></trkpt>
<trkpt lat="52.096593" lon="05.647606"><ele>45.7</ele><time>2022-04-13T12:45:12Z</time><name>PT5108</name></trkpt>
<trkpt lat="52.096600" lon="05.647594"><ele>45.9</ele><time>2022-04-13T12:45:13Z</time><name>PT5109</name></trkpt>
<trkpt lat="52.096604" lon="05.647578"><ele>45.8</ele><time>2022-04-13T12:45:14Z</time><name>PT5110</name></trkpt>
<trkpt lat="52.096607" lon="05.647561"><ele>45.7</ele><time>2022-04-13T12:45:15Z</time><name>PT5111</name></trkpt>
<trkpt lat="52.096615" lon="05.647543"><ele>45.9</ele><time>2022-04-13T12:45:16Z</time><name>PT5112</name></trkpt>
<trkpt lat="52.096620" lon="05.647533"><ele>45.6</ele><time>2022-04-13T12:45:17Z</time><name>PT5113</name></trkpt>
<trkpt lat="52.096626" lon="05.647520"><ele>45.7</ele><time>2022-04-13T12:45:18Z</time><name>PT5114</name></trkpt>
<trkpt lat="52.096635" lon="05.647506"><ele>45.7</ele><time>2022-04-13T12:45:19Z</time><name>PT5115</name></trkpt>
<trkpt lat="52.096645" lon="05.647490"><ele>45.7</ele><time>2022-04-13T12:45:20Z</time><name>PT5116</name></trkpt>
<trkpt lat="52.096652" lon="05.647477"><ele>45.7</ele><time>2022-04-13T12:45:21Z</time><name>PT5117</name></trkpt>
<trkpt lat="52.096662" lon="05.647462"><ele>45.4</ele><time>2022-04-13T12:45:22Z</time><name>PT5118</name></trkpt>
<trkpt lat="52.096670" lon="05.647448"><ele>45.4</ele><time>2022-04-13T12:45:23Z</time><name>PT5119</name></trkpt>
<trkpt lat="52.096683" lon="05.647436"><ele>45.1</ele><time>2022-04-13T12:45:24Z</time><name>PT5120</name></trkpt>
<trkpt lat="52.096692" lon="05.647423"><ele>44.9</ele><time>2022-04-13T12:45:25Z</time><name>PT5121</name></trkpt>
<trkpt lat="52.096702" lon="05.647405"><ele>45</ele><time>2022-04-13T12:45:26Z</time><name>PT5122</name></trkpt>
<trkpt lat="52.096707" lon="05.647388"><ele>45</ele><time>2022-04-13T12:45:27Z</time><name>PT5123</name></trkpt>
<trkpt lat="52.096715" lon="05.647372"><ele>45</ele><time>2022-04-13T12:45:28Z</time><name>PT5124</name></trkpt>
<trkpt lat="52.096724" lon="05.647357"><ele>45.2</ele><time>2022-04-13T12:45:29Z</time><name>PT5125</name></trkpt>
<trkpt lat="52.096733" lon="05.647343"><ele>45.2</ele><time>2022-04-13T12:45:30Z</time><name>PT5126</name></trkpt>
<trkpt lat="52.096744" lon="05.647331"><ele>45.1</ele><time>2022-04-13T12:45:31Z</time><name>PT5127</name></trkpt>
<trkpt lat="52.096753" lon="05.647320"><ele>45.2</ele><time>2022-04-13T12:45:32Z</time><name>PT5128</name></trkpt>
<trkpt lat="52.096765" lon="05.647304"><ele>45.2</ele><time>2022-04-13T12:45:33Z</time><name>PT5129</name></trkpt>
<trkpt lat="52.096770" lon="05.647290"><ele>45.1</ele><time>2022-04-13T12:45:34Z</time><name>PT5130</name></trkpt>
<trkpt lat="52.096778" lon="05.647276"><ele>45.1</ele><time>2022-04-13T12:45:35Z</time><name>PT5131</name></trkpt>
<trkpt lat="52.096783" lon="05.647265"><ele>45.1</ele><time>2022-04-13T12:45:36Z</time><name>PT5132</name></trkpt>
<trkpt lat="52.096791" lon="05.647253"><ele>45</ele><time>2022-04-13T12:45:37Z</time><name>PT5133</name></trkpt>
<trkpt lat="52.096799" lon="05.647241"><ele>44.9</ele><time>2022-04-13T12:45:38Z</time><name>PT5134</name></trkpt>
<trkpt lat="52.096803" lon="05.647231"><ele>44.8</ele><time>2022-04-13T12:45:39Z</time><name>PT5135</name></trkpt>
<trkpt lat="52.096812" lon="05.647224"><ele>44.8</ele><time>2022-04-13T12:45:40Z</time><name>PT5136</name></trkpt>
<trkpt lat="52.096817" lon="05.647209"><ele>44.7</ele><time>2022-04-13T12:45:41Z</time><name>PT5137</name></trkpt>
<trkpt lat="52.096821" lon="05.647193"><ele>44.8</ele><time>2022-04-13T12:45:42Z</time><name>PT5138</name></trkpt>
<trkpt lat="52.096827" lon="05.647172"><ele>44.8</ele><time>2022-04-13T12:45:43Z</time><name>PT5139</name></trkpt>
<trkpt lat="52.096840" lon="05.647159"><ele>44.9</ele><time>2022-04-13T12:45:44Z</time><name>PT5140</name></trkpt>
<trkpt lat="52.096853" lon="05.647154"><ele>44.8</ele><time>2022-04-13T12:45:45Z</time><name>PT5141</name></trkpt>
<trkpt lat="52.096863" lon="05.647139"><ele>44.9</ele><time>2022-04-13T12:45:46Z</time><name>PT5142</name></trkpt>
<trkpt lat="52.096872" lon="05.647125"><ele>44.9</ele><time>2022-04-13T12:45:47Z</time><name>PT5143</name></trkpt>
<trkpt lat="52.096880" lon="05.647110"><ele>44.8</ele><time>2022-04-13T12:45:48Z</time><name>PT5144</name></trkpt>
<trkpt lat="52.096888" lon="05.647095"><ele>44.9</ele><time>2022-04-13T12:45:49Z</time><name>PT5145</name></trkpt>
<trkpt lat="52.096895" lon="05.647080"><ele>44.9</ele><time>2022-04-13T12:45:50Z</time><name>PT5146</name></trkpt>
<trkpt lat="52.096909" lon="05.647058"><ele>44.9</ele><time>2022-04-13T12:45:51Z</time><name>PT5147</name></trkpt>
<trkpt lat="52.096915" lon="05.647038"><ele>44.9</ele><time>2022-04-13T12:45:52Z</time><name>PT5148</name></trkpt>
<trkpt lat="52.096923" lon="05.647020"><ele>44.8</ele><time>2022-04-13T12:45:53Z</time><name>PT5149</name></trkpt>
<trkpt lat="52.096935" lon="05.647003"><ele>44.7</ele><time>2022-04-13T12:45:54Z</time><name>PT5150</name></trkpt>
<trkpt lat="52.096943" lon="05.646990"><ele>44.7</ele><time>2022-04-13T12:45:55Z</time><name>PT5151</name></trkpt>
<trkpt lat="52.096952" lon="05.646974"><ele>44.7</ele><time>2022-04-13T12:45:56Z</time><name>PT5152</name></trkpt>
<trkpt lat="52.096960" lon="05.646956"><ele>44.7</ele><time>2022-04-13T12:45:57Z</time><name>PT5153</name></trkpt>
<trkpt lat="52.096967" lon="05.646938"><ele>44.7</ele><time>2022-04-13T12:45:58Z</time><name>PT5154</name></trkpt>
<trkpt lat="52.096975" lon="05.646920"><ele>44.7</ele><time>2022-04-13T12:45:59Z</time><name>PT5155</name></trkpt>
<trkpt lat="52.096985" lon="05.646902"><ele>44.6</ele><time>2022-04-13T12:46:00Z</time><name>PT5156</name></trkpt>
<trkpt lat="52.096992" lon="05.646884"><ele>44.3</ele><time>2022-04-13T12:46:01Z</time><name>PT5157</name></trkpt>
<trkpt lat="52.097002" lon="05.646868"><ele>44.3</ele><time>2022-04-13T12:46:02Z</time><name>PT5158</name></trkpt>
<trkpt lat="52.097011" lon="05.646854"><ele>43.8</ele><time>2022-04-13T12:46:03Z</time><name>PT5159</name></trkpt>
<trkpt lat="52.097021" lon="05.646840"><ele>43.8</ele><time>2022-04-13T12:46:04Z</time><name>PT5160</name></trkpt>
<trkpt lat="52.097032" lon="05.646824"><ele>43.8</ele><time>2022-04-13T12:46:05Z</time><name>PT5161</name></trkpt>
<trkpt lat="52.097040" lon="05.646812"><ele>44.1</ele><time>2022-04-13T12:46:06Z</time><name>PT5162</name></trkpt>
<trkpt lat="52.097047" lon="05.646797"><ele>44.2</ele><time>2022-04-13T12:46:07Z</time><name>PT5163</name></trkpt>
<trkpt lat="52.097053" lon="05.646780"><ele>44.3</ele><time>2022-04-13T12:46:08Z</time><name>PT5164</name></trkpt>
<trkpt lat="52.097053" lon="05.646766"><ele>44.1</ele><time>2022-04-13T12:46:09Z</time><name>PT5165</name></trkpt>
<trkpt lat="52.097060" lon="05.646753"><ele>44.1</ele><time>2022-04-13T12:46:10Z</time><name>PT5166</name></trkpt>
<trkpt lat="52.097069" lon="05.646738"><ele>44</ele><time>2022-04-13T12:46:11Z</time><name>PT5167</name></trkpt>
<trkpt lat="52.097069" lon="05.646721"><ele>44.2</ele><time>2022-04-13T12:46:12Z</time><name>PT5168</name></trkpt>
<trkpt lat="52.097073" lon="05.646707"><ele>44.2</ele><time>2022-04-13T12:46:13Z</time><name>PT5169</name></trkpt>
<trkpt lat="52.097082" lon="05.646694"><ele>44.1</ele><time>2022-04-13T12:46:14Z</time><name>PT5170</name></trkpt>
<trkpt lat="52.097091" lon="05.646676"><ele>44</ele><time>2022-04-13T12:46:15Z</time><name>PT5171</name></trkpt>
<trkpt lat="52.097096" lon="05.646660"><ele>43.8</ele><time>2022-04-13T12:46:16Z</time><name>PT5172</name></trkpt>
<trkpt lat="52.097107" lon="05.646645"><ele>43.8</ele><time>2022-04-13T12:46:17Z</time><name>PT5173</name></trkpt>
<trkpt lat="52.097112" lon="05.646633"><ele>43.9</ele><time>2022-04-13T12:46:18Z</time><name>PT5174</name></trkpt>
<trkpt lat="52.097124" lon="05.646619"><ele>43.9</ele><time>2022-04-13T12:46:19Z</time><name>PT5175</name></trkpt>
<trkpt lat="52.097132" lon="05.646605"><ele>43.9</ele><time>2022-04-13T12:46:20Z</time><name>PT5176</name></trkpt>
<trkpt lat="52.097141" lon="05.646593"><ele>44</ele><time>2022-04-13T12:46:21Z</time><name>PT5177</name></trkpt>
<trkpt lat="52.097148" lon="05.646579"><ele>44</ele><time>2022-04-13T12:46:22Z</time><name>PT5178</name></trkpt>
<trkpt lat="52.097151" lon="05.646572"><ele>44</ele><time>2022-04-13T12:46:23Z</time><name>PT5179</name></trkpt>
<trkpt lat="52.097156" lon="05.646562"><ele>43.8</ele><time>2022-04-13T12:46:24Z</time><name>PT5180</name></trkpt>
<trkpt lat="52.097163" lon="05.646550"><ele>43.8</ele><time>2022-04-13T12:46:25Z</time><name>PT5181</name></trkpt>
<trkpt lat="52.097173" lon="05.646537"><ele>43.6</ele><time>2022-04-13T12:46:26Z</time><name>PT5182</name></trkpt>
<trkpt lat="52.097180" lon="05.646523"><ele>43.5</ele><time>2022-04-13T12:46:27Z</time><name>PT5183</name></trkpt>
<trkpt lat="52.097188" lon="05.646512"><ele>43.4</ele><time>2022-04-13T12:46:28Z</time><name>PT5184</name></trkpt>
<trkpt lat="52.097196" lon="05.646495"><ele>43.6</ele><time>2022-04-13T12:46:29Z</time><name>PT5185</name></trkpt>
<trkpt lat="52.097206" lon="05.646480"><ele>43.7</ele><time>2022-04-13T12:46:30Z</time><name>PT5186</name></trkpt>
<trkpt lat="52.097216" lon="05.646466"><ele>43.8</ele><time>2022-04-13T12:46:31Z</time><name>PT5187</name></trkpt>
<trkpt lat="52.097221" lon="05.646453"><ele>43.7</ele><time>2022-04-13T12:46:32Z</time><name>PT5188</name></trkpt>
<trkpt lat="52.097228" lon="05.646440"><ele>43.8</ele><time>2022-04-13T12:46:33Z</time><name>PT5189</name></trkpt>
<trkpt lat="52.097233" lon="05.646429"><ele>43.7</ele><time>2022-04-13T12:46:34Z</time><name>PT5190</name></trkpt>
<trkpt lat="52.097239" lon="05.646414"><ele>43.6</ele><time>2022-04-13T12:46:35Z</time><name>PT5191</name></trkpt>
<trkpt lat="52.097247" lon="05.646403"><ele>43.7</ele><time>2022-04-13T12:46:36Z</time><name>PT5192</name></trkpt>
<trkpt lat="52.097251" lon="05.646394"><ele>43.8</ele><time>2022-04-13T12:46:37Z</time><name>PT5193</name></trkpt>
<trkpt lat="52.097258" lon="05.646380"><ele>43.7</ele><time>2022-04-13T12:46:38Z</time><name>PT5194</name></trkpt>
<trkpt lat="52.097271" lon="05.646367"><ele>43.7</ele><time>2022-04-13T12:46:39Z</time><name>PT5195</name></trkpt>
<trkpt lat="52.097277" lon="05.646358"><ele>43.7</ele><time>2022-04-13T12:46:40Z</time><name>PT5196</name></trkpt>
<trkpt lat="52.097284" lon="05.646344"><ele>43.6</ele><time>2022-04-13T12:46:41Z</time><name>PT5197</name></trkpt>
<trkpt lat="52.097289" lon="05.646330"><ele>43.7</ele><time>2022-04-13T12:46:42Z</time><name>PT5198</name></trkpt>
<trkpt lat="52.097298" lon="05.646319"><ele>43.7</ele><time>2022-04-13T12:46:43Z</time><name>PT5199</name></trkpt>
<trkpt lat="52.097300" lon="05.646307"><ele>43.5</ele><time>2022-04-13T12:46:44Z</time><name>PT5200</name></trkpt>
<trkpt lat="52.097298" lon="05.646298"><ele>43.6</ele><time>2022-04-13T12:46:45Z</time><name>PT5201</name></trkpt>
<trkpt lat="52.097299" lon="05.646282"><ele>43.3</ele><time>2022-04-13T12:46:46Z</time><name>PT5202</name></trkpt>
<trkpt lat="52.097297" lon="05.646269"><ele>43.3</ele><time>2022-04-13T12:46:47Z</time><name>PT5203</name></trkpt>
<trkpt lat="52.097293" lon="05.646258"><ele>43.3</ele><time>2022-04-13T12:46:48Z</time><name>PT5204</name></trkpt>
<trkpt lat="52.097286" lon="05.646248"><ele>43.3</ele><time>2022-04-13T12:46:49Z</time><name>PT5205</name></trkpt>
<trkpt lat="52.097281" lon="05.646233"><ele>43.3</ele><time>2022-04-13T12:46:50Z</time><name>PT5206</name></trkpt>
<trkpt lat="52.097276" lon="05.646220"><ele>43.5</ele><time>2022-04-13T12:46:51Z</time><name>PT5207</name></trkpt>
<trkpt lat="52.097274" lon="05.646203"><ele>43.7</ele><time>2022-04-13T12:46:52Z</time><name>PT5208</name></trkpt>
<trkpt lat="52.097270" lon="05.646187"><ele>43.8</ele><time>2022-04-13T12:46:53Z</time><name>PT5209</name></trkpt>
<trkpt lat="52.097268" lon="05.646182"><ele>43.9</ele><time>2022-04-13T12:46:54Z</time><name>PT5210</name></trkpt>
<trkpt lat="52.097261" lon="05.646170"><ele>44</ele><time>2022-04-13T12:46:55Z</time><name>PT5211</name></trkpt>
<trkpt lat="52.097254" lon="05.646158"><ele>44.1</ele><time>2022-04-13T12:46:56Z</time><name>PT5212</name></trkpt>
<trkpt lat="52.097250" lon="05.646147"><ele>44.2</ele><time>2022-04-13T12:46:57Z</time><name>PT5213</name></trkpt>
<trkpt lat="52.097246" lon="05.646142"><ele>44.3</ele><time>2022-04-13T12:46:58Z</time><name>PT5214</name></trkpt>
<trkpt lat="52.097240" lon="05.646131"><ele>44.3</ele><time>2022-04-13T12:46:59Z</time><name>PT5215</name></trkpt>
<trkpt lat="52.097235" lon="05.646118"><ele>44.6</ele><time>2022-04-13T12:47:00Z</time><name>PT5216</name></trkpt>
<trkpt lat="52.097226" lon="05.646106"><ele>44.7</ele><time>2022-04-13T12:47:01Z</time><name>PT5217</name></trkpt>
<trkpt lat="52.097216" lon="05.646092"><ele>44.7</ele><time>2022-04-13T12:47:02Z</time><name>PT5218</name></trkpt>
<trkpt lat="52.097206" lon="05.646082"><ele>44.9</ele><time>2022-04-13T12:47:03Z</time><name>PT5219</name></trkpt>
<trkpt lat="52.097198" lon="05.646070"><ele>45.1</ele><time>2022-04-13T12:47:04Z</time><name>PT5220</name></trkpt>
<trkpt lat="52.097190" lon="05.646055"><ele>45.1</ele><time>2022-04-13T12:47:05Z</time><name>PT5221</name></trkpt>
<trkpt lat="52.097182" lon="05.646040"><ele>45.2</ele><time>2022-04-13T12:47:06Z</time><name>PT5222</name></trkpt>
<trkpt lat="52.097172" lon="05.646029"><ele>45.2</ele><time>2022-04-13T12:47:07Z</time><name>PT5223</name></trkpt>
<trkpt lat="52.097163" lon="05.646013"><ele>45.2</ele><time>2022-04-13T12:47:08Z</time><name>PT5224</name></trkpt>
<trkpt lat="52.097151" lon="05.646001"><ele>45.2</ele><time>2022-04-13T12:47:09Z</time><name>PT5225</name></trkpt>
<trkpt lat="52.097142" lon="05.645991"><ele>45.3</ele><time>2022-04-13T12:47:10Z</time><name>PT5226</name></trkpt>
<trkpt lat="52.097131" lon="05.645985"><ele>45.2</ele><time>2022-04-13T12:47:11Z</time><name>PT5227</name></trkpt>
<trkpt lat="52.097118" lon="05.645980"><ele>45.2</ele><time>2022-04-13T12:47:12Z</time><name>PT5228</name></trkpt>
<trkpt lat="52.097108" lon="05.645979"><ele>45.2</ele><time>2022-04-13T12:47:13Z</time><name>PT5229</name></trkpt>
<trkpt lat="52.097098" lon="05.645977"><ele>45</ele><time>2022-04-13T12:47:14Z</time><name>PT5230</name></trkpt>
<trkpt lat="52.097088" lon="05.645974"><ele>45.1</ele><time>2022-04-13T12:47:15Z</time><name>PT5231</name></trkpt>
<trkpt lat="52.097078" lon="05.645973"><ele>45.2</ele><time>2022-04-13T12:47:16Z</time><name>PT5232</name></trkpt>
<trkpt lat="52.097068" lon="05.645970"><ele>45.2</ele><time>2022-04-13T12:47:17Z</time><name>PT5233</name></trkpt>
<trkpt lat="52.097059" lon="05.645970"><ele>45.1</ele><time>2022-04-13T12:47:18Z</time><name>PT5234</name></trkpt>
<trkpt lat="52.097050" lon="05.645969"><ele>45.1</ele><time>2022-04-13T12:47:19Z</time><name>PT5235</name></trkpt>
<trkpt lat="52.097040" lon="05.645967"><ele>44.9</ele><time>2022-04-13T12:47:20Z</time><name>PT5236</name></trkpt>
<trkpt lat="52.097028" lon="05.645965"><ele>45</ele><time>2022-04-13T12:47:21Z</time><name>PT5237</name></trkpt>
<trkpt lat="52.097019" lon="05.645965"><ele>45.2</ele><time>2022-04-13T12:47:22Z</time><name>PT5238</name></trkpt>
<trkpt lat="52.097008" lon="05.645966"><ele>45.2</ele><time>2022-04-13T12:47:23Z</time><name>PT5239</name></trkpt>
<trkpt lat="52.096997" lon="05.645969"><ele>45.2</ele><time>2022-04-13T12:47:24Z</time><name>PT5240</name></trkpt>
<trkpt lat="52.096988" lon="05.645973"><ele>45.2</ele><time>2022-04-13T12:47:25Z</time><name>PT5241</name></trkpt>
<trkpt lat="52.096978" lon="05.645974"><ele>45</ele><time>2022-04-13T12:47:26Z</time><name>PT5242</name></trkpt>
<trkpt lat="52.096967" lon="05.645973"><ele>44.6</ele><time>2022-04-13T12:47:27Z</time><name>PT5243</name></trkpt>
<trkpt lat="52.096957" lon="05.645973"><ele>44.6</ele><time>2022-04-13T12:47:28Z</time><name>PT5244</name></trkpt>
<trkpt lat="52.096947" lon="05.645971"><ele>44.4</ele><time>2022-04-13T12:47:29Z</time><name>PT5245</name></trkpt>
<trkpt lat="52.096936" lon="05.645971"><ele>44.3</ele><time>2022-04-13T12:47:30Z</time><name>PT5246</name></trkpt>
<trkpt lat="52.096926" lon="05.645973"><ele>44.5</ele><time>2022-04-13T12:47:31Z</time><name>PT5247</name></trkpt>
<trkpt lat="52.096917" lon="05.645976"><ele>44.6</ele><time>2022-04-13T12:47:32Z</time><name>PT5248</name></trkpt>
<trkpt lat="52.096907" lon="05.645980"><ele>44.6</ele><time>2022-04-13T12:47:33Z</time><name>PT5249</name></trkpt>
<trkpt lat="52.096897" lon="05.645989"><ele>44.6</ele><time>2022-04-13T12:47:34Z</time><name>PT5250</name></trkpt>
<trkpt lat="52.096892" lon="05.646002"><ele>44.3</ele><time>2022-04-13T12:47:35Z</time><name>PT5251</name></trkpt>
<trkpt lat="52.096887" lon="05.646020"><ele>44.3</ele><time>2022-04-13T12:47:36Z</time><name>PT5252</name></trkpt>
<trkpt lat="52.096882" lon="05.646037"><ele>44.1</ele><time>2022-04-13T12:47:37Z</time><name>PT5253</name></trkpt>
<trkpt lat="52.096879" lon="05.646049"><ele>44.2</ele><time>2022-04-13T12:47:38Z</time><name>PT5254</name></trkpt>
<trkpt lat="52.096876" lon="05.646066"><ele>44.3</ele><time>2022-04-13T12:47:39Z</time><name>PT5255</name></trkpt>
<trkpt lat="52.096874" lon="05.646083"><ele>44.2</ele><time>2022-04-13T12:47:40Z</time><name>PT5256</name></trkpt>
<trkpt lat="52.096871" lon="05.646099"><ele>44.2</ele><time>2022-04-13T12:47:41Z</time><name>PT5257</name></trkpt>
<trkpt lat="52.096868" lon="05.646116"><ele>44.2</ele><time>2022-04-13T12:47:42Z</time><name>PT5258</name></trkpt>
<trkpt lat="52.096864" lon="05.646132"><ele>44</ele><time>2022-04-13T12:47:43Z</time><name>PT5259</name></trkpt>
<trkpt lat="52.096860" lon="05.646147"><ele>44.1</ele><time>2022-04-13T12:47:44Z</time><name>PT5260</name></trkpt>
<trkpt lat="52.096855" lon="05.646164"><ele>44.1</ele><time>2022-04-13T12:47:45Z</time><name>PT5261</name></trkpt>
<trkpt lat="52.096849" lon="05.646179"><ele>44.1</ele><time>2022-04-13T12:47:46Z</time><name>PT5262</name></trkpt>
<trkpt lat="52.096844" lon="05.646197"><ele>44.1</ele><time>2022-04-13T12:47:47Z</time><name>PT5263</name></trkpt>
<trkpt lat="52.096840" lon="05.646214"><ele>44.1</ele><time>2022-04-13T12:47:48Z</time><name>PT5264</name></trkpt>
<trkpt lat="52.096835" lon="05.646229"><ele>44.2</ele><time>2022-04-13T12:47:49Z</time><name>PT5265</name></trkpt>
<trkpt lat="52.096831" lon="05.646243"><ele>44</ele><time>2022-04-13T12:47:50Z</time><name>PT5266</name></trkpt>
<trkpt lat="52.096825" lon="05.646258"><ele>44</ele><time>2022-04-13T12:47:51Z</time><name>PT5267</name></trkpt>
<trkpt lat="52.096820" lon="05.646272"><ele>44.1</ele><time>2022-04-13T12:47:52Z</time><name>PT5268</name></trkpt>
<trkpt lat="52.096814" lon="05.646286"><ele>44</ele><time>2022-04-13T12:47:53Z</time><name>PT5269</name></trkpt>
<trkpt lat="52.096809" lon="05.646302"><ele>44</ele><time>2022-04-13T12:47:54Z</time><name>PT5270</name></trkpt>
<trkpt lat="52.096804" lon="05.646318"><ele>44.2</ele><time>2022-04-13T12:47:55Z</time><name>PT5271</name></trkpt>
<trkpt lat="52.096797" lon="05.646332"><ele>44.1</ele><time>2022-04-13T12:47:56Z</time><name>PT5272</name></trkpt>
<trkpt lat="52.096789" lon="05.646343"><ele>44</ele><time>2022-04-13T12:47:57Z</time><name>PT5273</name></trkpt>
<trkpt lat="52.096779" lon="05.646356"><ele>44.1</ele><time>2022-04-13T12:47:58Z</time><name>PT5274</name></trkpt>
<trkpt lat="52.096769" lon="05.646366"><ele>44.1</ele><time>2022-04-13T12:47:59Z</time><name>PT5275</name></trkpt>
<trkpt lat="52.096761" lon="05.646378"><ele>44.1</ele><time>2022-04-13T12:48:00Z</time><name>PT5276</name></trkpt>
<trkpt lat="52.096752" lon="05.646391"><ele>44.2</ele><time>2022-04-13T12:48:01Z</time><name>PT5277</name></trkpt>
<trkpt lat="52.096743" lon="05.646404"><ele>44.2</ele><time>2022-04-13T12:48:02Z</time><name>PT5278</name></trkpt>
<trkpt lat="52.096735" lon="05.646417"><ele>44</ele><time>2022-04-13T12:48:03Z</time><name>PT5279</name></trkpt>
<trkpt lat="52.096725" lon="05.646427"><ele>43.9</ele><time>2022-04-13T12:48:04Z</time><name>PT5280</name></trkpt>
<trkpt lat="52.096716" lon="05.646439"><ele>43.8</ele><time>2022-04-13T12:48:05Z</time><name>PT5281</name></trkpt>
<trkpt lat="52.096708" lon="05.646449"><ele>43.7</ele><time>2022-04-13T12:48:06Z</time><name>PT5282</name></trkpt>
<trkpt lat="52.096701" lon="05.646460"><ele>43.8</ele><time>2022-04-13T12:48:07Z</time><name>PT5283</name></trkpt>
<trkpt lat="52.096691" lon="05.646473"><ele>43.7</ele><time>2022-04-13T12:48:08Z</time><name>PT5284</name></trkpt>
<trkpt lat="52.096682" lon="05.646482"><ele>43.8</ele><time>2022-04-13T12:48:09Z</time><name>PT5285</name></trkpt>
<trkpt lat="52.096675" lon="05.646493"><ele>43.8</ele><time>2022-04-13T12:48:10Z</time><name>PT5286</name></trkpt>
<trkpt lat="52.096665" lon="05.646502"><ele>43.9</ele><time>2022-04-13T12:48:11Z</time><name>PT5287</name></trkpt>
<trkpt lat="52.096654" lon="05.646511"><ele>43.9</ele><time>2022-04-13T12:48:12Z</time><name>PT5288</name></trkpt>
<trkpt lat="52.096645" lon="05.646521"><ele>43.8</ele><time>2022-04-13T12:48:13Z</time><name>PT5289</name></trkpt>
<trkpt lat="52.096636" lon="05.646532"><ele>43.8</ele><time>2022-04-13T12:48:14Z</time><name>PT5290</name></trkpt>
<trkpt lat="52.096625" lon="05.646543"><ele>43.8</ele><time>2022-04-13T12:48:15Z</time><name>PT5291</name></trkpt>
<trkpt lat="52.096615" lon="05.646551"><ele>43.8</ele><time>2022-04-13T12:48:16Z</time><name>PT5292</name></trkpt>
<trkpt lat="52.096604" lon="05.646557"><ele>43.7</ele><time>2022-04-13T12:48:17Z</time><name>PT5293</name></trkpt>
<trkpt lat="52.096595" lon="05.646563"><ele>43.7</ele><time>2022-04-13T12:48:18Z</time><name>PT5294</name></trkpt>
<trkpt lat="52.096586" lon="05.646570"><ele>43.4</ele><time>2022-04-13T12:48:19Z</time><name>PT5295</name></trkpt>
<trkpt lat="52.096579" lon="05.646576"><ele>43.3</ele><time>2022-04-13T12:48:20Z</time><name>PT5296</name></trkpt>
<trkpt lat="52.096569" lon="05.646582"><ele>43.3</ele><time>2022-04-13T12:48:21Z</time><name>PT5297</name></trkpt>
<trkpt lat="52.096558" lon="05.646589"><ele>43.3</ele><time>2022-04-13T12:48:22Z</time><name>PT5298</name></trkpt>
<trkpt lat="52.096548" lon="05.646593"><ele>43.3</ele><time>2022-04-13T12:48:23Z</time><name>PT5299</name></trkpt>
<trkpt lat="52.096537" lon="05.646599"><ele>43.4</ele><time>2022-04-13T12:48:24Z</time><name>PT5300</name></trkpt>
<trkpt lat="52.096528" lon="05.646606"><ele>43.3</ele><time>2022-04-13T12:48:25Z</time><name>PT5301</name></trkpt>
<trkpt lat="52.096518" lon="05.646612"><ele>43.1</ele><time>2022-04-13T12:48:26Z</time><name>PT5302</name></trkpt>
<trkpt lat="52.096508" lon="05.646614"><ele>42.8</ele><time>2022-04-13T12:48:27Z</time><name>PT5303</name></trkpt>
<trkpt lat="52.096498" lon="05.646615"><ele>42.8</ele><time>2022-04-13T12:48:28Z</time><name>PT5304</name></trkpt>
<trkpt lat="52.096490" lon="05.646616"><ele>42.5</ele><time>2022-04-13T12:48:29Z</time><name>PT5305</name></trkpt>
<trkpt lat="52.096480" lon="05.646619"><ele>42.4</ele><time>2022-04-13T12:48:30Z</time><name>PT5306</name></trkpt>
<trkpt lat="52.096469" lon="05.646624"><ele>42.3</ele><time>2022-04-13T12:48:31Z</time><name>PT5307</name></trkpt>
<trkpt lat="52.096460" lon="05.646628"><ele>42.2</ele><time>2022-04-13T12:48:32Z</time><name>PT5308</name></trkpt>
<trkpt lat="52.096451" lon="05.646628"><ele>42</ele><time>2022-04-13T12:48:33Z</time><name>PT5309</name></trkpt>
<trkpt lat="52.096440" lon="05.646626"><ele>42</ele><time>2022-04-13T12:48:34Z</time><name>PT5310</name></trkpt>
<trkpt lat="52.096432" lon="05.646626"><ele>42</ele><time>2022-04-13T12:48:35Z</time><name>PT5311</name></trkpt>
<trkpt lat="52.096420" lon="05.646630"><ele>42</ele><time>2022-04-13T12:48:36Z</time><name>PT5312</name></trkpt>
<trkpt lat="52.096408" lon="05.646630"><ele>41.9</ele><time>2022-04-13T12:48:37Z</time><name>PT5313</name></trkpt>
<trkpt lat="52.096397" lon="05.646631"><ele>41.9</ele><time>2022-04-13T12:48:38Z</time><name>PT5314</name></trkpt>
<trkpt lat="52.096387" lon="05.646631"><ele>41.7</ele><time>2022-04-13T12:48:39Z</time><name>PT5315</name></trkpt>
<trkpt lat="52.096380" lon="05.646629"><ele>41.6</ele><time>2022-04-13T12:48:40Z</time><name>PT5316</name></trkpt>
<trkpt lat="52.096372" lon="05.646627"><ele>41.7</ele><time>2022-04-13T12:48:41Z</time><name>PT5317</name></trkpt>
<trkpt lat="52.096364" lon="05.646624"><ele>41.4</ele><time>2022-04-13T12:48:42Z</time><name>PT5318</name></trkpt>
<trkpt lat="52.096354" lon="05.646624"><ele>41.4</ele><time>2022-04-13T12:48:43Z</time><name>PT5319</name></trkpt>
<trkpt lat="52.096345" lon="05.646624"><ele>41.4</ele><time>2022-04-13T12:48:44Z</time><name>PT5320</name></trkpt>
<trkpt lat="52.096339" lon="05.646619"><ele>41.5</ele><time>2022-04-13T12:48:45Z</time><name>PT5321</name></trkpt>
<trkpt lat="52.096334" lon="05.646610"><ele>41.6</ele><time>2022-04-13T12:48:46Z</time><name>PT5322</name></trkpt>
<trkpt lat="52.096328" lon="05.646596"><ele>41.6</ele><time>2022-04-13T12:48:47Z</time><name>PT5323</name></trkpt>
<trkpt lat="52.096322" lon="05.646585"><ele>41.4</ele><time>2022-04-13T12:48:48Z</time><name>PT5324</name></trkpt>
<trkpt lat="52.096314" lon="05.646577"><ele>41.2</ele><time>2022-04-13T12:48:49Z</time><name>PT5325</name></trkpt>
<trkpt lat="52.096307" lon="05.646571"><ele>40.9</ele><time>2022-04-13T12:48:50Z</time><name>PT5326</name></trkpt>
<trkpt lat="52.096302" lon="05.646561"><ele>40.8</ele><time>2022-04-13T12:48:51Z</time><name>PT5327</name></trkpt>
<trkpt lat="52.096297" lon="05.646550"><ele>40.9</ele><time>2022-04-13T12:48:52Z</time><name>PT5328</name></trkpt>
<trkpt lat="52.096290" lon="05.646540"><ele>40.9</ele><time>2022-04-13T12:48:53Z</time><name>PT5329</name></trkpt>
<trkpt lat="52.096283" lon="05.646533"><ele>40.9</ele><time>2022-04-13T12:48:54Z</time><name>PT5330</name></trkpt>
<trkpt lat="52.096277" lon="05.646523"><ele>41</ele><time>2022-04-13T12:48:55Z</time><name>PT5331</name></trkpt>
<trkpt lat="52.096270" lon="05.646512"><ele>40.8</ele><time>2022-04-13T12:48:56Z</time><name>PT5332</name></trkpt>
<trkpt lat="52.096266" lon="05.646498"><ele>40.8</ele><time>2022-04-13T12:48:57Z</time><name>PT5333</name></trkpt>
<trkpt lat="52.096261" lon="05.646484"><ele>40.8</ele><time>2022-04-13T12:48:58Z</time><name>PT5334</name></trkpt>
<trkpt lat="52.096255" lon="05.646469"><ele>40.7</ele><time>2022-04-13T12:48:59Z</time><name>PT5335</name></trkpt>
<trkpt lat="52.096250" lon="05.646454"><ele>40.6</ele><time>2022-04-13T12:49:00Z</time><name>PT5336</name></trkpt>
<trkpt lat="52.096246" lon="05.646441"><ele>40.8</ele><time>2022-04-13T12:49:01Z</time><name>PT5337</name></trkpt>
<trkpt lat="52.096242" lon="05.646426"><ele>40.6</ele><time>2022-04-13T12:49:02Z</time><name>PT5338</name></trkpt>
<trkpt lat="52.096235" lon="05.646412"><ele>40.8</ele><time>2022-04-13T12:49:03Z</time><name>PT5339</name></trkpt>
<trkpt lat="52.096228" lon="05.646399"><ele>40.8</ele><time>2022-04-13T12:49:04Z</time><name>PT5340</name></trkpt>
<trkpt lat="52.096220" lon="05.646385"><ele>40.7</ele><time>2022-04-13T12:49:05Z</time><name>PT5341</name></trkpt>
<trkpt lat="52.096215" lon="05.646371"><ele>40.9</ele><time>2022-04-13T12:49:06Z</time><name>PT5342</name></trkpt>
<trkpt lat="52.096210" lon="05.646354"><ele>40.7</ele><time>2022-04-13T12:49:07Z</time><name>PT5343</name></trkpt>
<trkpt lat="52.096206" lon="05.646338"><ele>40.8</ele><time>2022-04-13T12:49:08Z</time><name>PT5344</name></trkpt>
<trkpt lat="52.096202" lon="05.646323"><ele>40.9</ele><time>2022-04-13T12:49:09Z</time><name>PT5345</name></trkpt>
<trkpt lat="52.096196" lon="05.646309"><ele>40.8</ele><time>2022-04-13T12:49:10Z</time><name>PT5346</name></trkpt>
<trkpt lat="52.096188" lon="05.646299"><ele>40.8</ele><time>2022-04-13T12:49:11Z</time><name>PT5347</name></trkpt>
<trkpt lat="52.096180" lon="05.646285"><ele>40.9</ele><time>2022-04-13T12:49:12Z</time><name>PT5348</name></trkpt>
<trkpt lat="52.096176" lon="05.646270"><ele>41</ele><time>2022-04-13T12:49:13Z</time><name>PT5349</name></trkpt>
<trkpt lat="52.096172" lon="05.646257"><ele>41.1</ele><time>2022-04-13T12:49:14Z</time><name>PT5350</name></trkpt>
<trkpt lat="52.096163" lon="05.646247"><ele>41.3</ele><time>2022-04-13T12:49:15Z</time><name>PT5351</name></trkpt>
<trkpt lat="52.096158" lon="05.646239"><ele>41.3</ele><time>2022-04-13T12:49:16Z</time><name>PT5352</name></trkpt>
<trkpt lat="52.096152" lon="05.646232"><ele>41.1</ele><time>2022-04-13T12:49:17Z</time><name>PT5353</name></trkpt>
<trkpt lat="52.096148" lon="05.646228"><ele>41.2</ele><time>2022-04-13T12:49:18Z</time><name>PT5354</name></trkpt>
<trkpt lat="52.096147" lon="05.646222"><ele>41.1</ele><time>2022-04-13T12:49:19Z</time><name>PT5355</name></trkpt>
<trkpt lat="52.096144" lon="05.646216"><ele>41</ele><time>2022-04-13T12:49:20Z</time><name>PT5356</name></trkpt>
<trkpt lat="52.096140" lon="05.646208"><ele>41</ele><time>2022-04-13T12:49:21Z</time><name>PT5357</name></trkpt>
<trkpt lat="52.096136" lon="05.646197"><ele>40.9</ele><time>2022-04-13T12:49:22Z</time><name>PT5358</name></trkpt>
<trkpt lat="52.096131" lon="05.646188"><ele>40.9</ele><time>2022-04-13T12:49:23Z</time><name>PT5359</name></trkpt>
<trkpt lat="52.096126" lon="05.646178"><ele>40.9</ele><time>2022-04-13T12:49:24Z</time><name>PT5360</name></trkpt>
<trkpt lat="52.096120" lon="05.646167"><ele>41</ele><time>2022-04-13T12:49:25Z</time><name>PT5361</name></trkpt>
<trkpt lat="52.096114" lon="05.646158"><ele>41.1</ele><time>2022-04-13T12:49:26Z</time><name>PT5362</name></trkpt>
<trkpt lat="52.096109" lon="05.646151"><ele>41.2</ele><time>2022-04-13T12:49:27Z</time><name>PT5363</name></trkpt>
<trkpt lat="52.096106" lon="05.646143"><ele>41.2</ele><time>2022-04-13T12:49:28Z</time><name>PT5364</name></trkpt>
<trkpt lat="52.096101" lon="05.646136"><ele>41.3</ele><time>2022-04-13T12:49:29Z</time><name>PT5365</name></trkpt>
<trkpt lat="52.096096" lon="05.646128"><ele>41.4</ele><time>2022-04-13T12:49:30Z</time><name>PT5366</name></trkpt>
<trkpt lat="52.096093" lon="05.646123"><ele>41.3</ele><time>2022-04-13T12:49:31Z</time><name>PT5367</name></trkpt>
<trkpt lat="52.096089" lon="05.646121"><ele>41.4</ele><time>2022-04-13T12:49:32Z</time><name>PT5368</name></trkpt>
<trkpt lat="52.096088" lon="05.646118"><ele>41.3</ele><time>2022-04-13T12:49:33Z</time><name>PT5369</name></trkpt>
<trkpt lat="52.096088" lon="05.646117"><ele>41.2</ele><time>2022-04-13T12:49:34Z</time><name>PT5370</name></trkpt>
<trkpt lat="52.096088" lon="05.646117"><ele>41.2</ele><time>2022-04-13T12:49:35Z</time><name>PT5371</name></trkpt>
<trkpt lat="52.096090" lon="05.646117"><ele>40.9</ele><time>2022-04-13T12:49:40Z</time><name>PT5372</name></trkpt>
<trkpt lat="52.096086" lon="05.646115"><ele>40.9</ele><time>2022-04-13T12:49:41Z</time><name>PT5373</name></trkpt>
<trkpt lat="52.096081" lon="05.646107"><ele>40.9</ele><time>2022-04-13T12:49:42Z</time><name>PT5374</name></trkpt>
<trkpt lat="52.096075" lon="05.646096"><ele>40.8</ele><time>2022-04-13T12:49:43Z</time><name>PT5375</name></trkpt>
<trkpt lat="52.096069" lon="05.646083"><ele>40.8</ele><time>2022-04-13T12:49:44Z</time><name>PT5376</name></trkpt>
<trkpt lat="52.096062" lon="05.646069"><ele>40.8</ele><time>2022-04-13T12:49:45Z</time><name>PT5377</name></trkpt>
<trkpt lat="52.096053" lon="05.646057"><ele>40.9</ele><time>2022-04-13T12:49:46Z</time><name>PT5378</name></trkpt>
<trkpt lat="52.096044" lon="05.646046"><ele>40.9</ele><time>2022-04-13T12:49:47Z</time><name>PT5379</name></trkpt>
<trkpt lat="52.096034" lon="05.646036"><ele>40.8</ele><time>2022-04-13T12:49:48Z</time><name>PT5380</name></trkpt>
<trkpt lat="52.096027" lon="05.646026"><ele>40.8</ele><time>2022-04-13T12:49:49Z</time><name>PT5381</name></trkpt>
<trkpt lat="52.096018" lon="05.646015"><ele>40.8</ele><time>2022-04-13T12:49:50Z</time><name>PT5382</name></trkpt>
<trkpt lat="52.096011" lon="05.646003"><ele>40.9</ele><time>2022-04-13T12:49:51Z</time><name>PT5383</name></trkpt>
<trkpt lat="52.096005" lon="05.645991"><ele>40.9</ele><time>2022-04-13T12:49:52Z</time><name>PT5384</name></trkpt>
<trkpt lat="52.095998" lon="05.645979"><ele>40.9</ele><time>2022-04-13T12:49:53Z</time><name>PT5385</name></trkpt>
<trkpt lat="52.095992" lon="05.645967"><ele>40.9</ele><time>2022-04-13T12:49:54Z</time><name>PT5386</name></trkpt>
<trkpt lat="52.095984" lon="05.645952"><ele>41.1</ele><time>2022-04-13T12:49:55Z</time><name>PT5387</name></trkpt>
<trkpt lat="52.095977" lon="05.645941"><ele>41.1</ele><time>2022-04-13T12:49:56Z</time><name>PT5388</name></trkpt>
<trkpt lat="52.095969" lon="05.645932"><ele>41.2</ele><time>2022-04-13T12:49:57Z</time><name>PT5389</name></trkpt>
<trkpt lat="52.095960" lon="05.645924"><ele>41.3</ele><time>2022-04-13T12:49:58Z</time><name>PT5390</name></trkpt>
<trkpt lat="52.095954" lon="05.645913"><ele>41.2</ele><time>2022-04-13T12:49:59Z</time><name>PT5391</name></trkpt>
<trkpt lat="52.095948" lon="05.645900"><ele>41.1</ele><time>2022-04-13T12:50:00Z</time><name>PT5392</name></trkpt>
<trkpt lat="52.095942" lon="05.645888"><ele>41.2</ele><time>2022-04-13T12:50:01Z</time><name>PT5393</name></trkpt>
<trkpt lat="52.095937" lon="05.645878"><ele>41</ele><time>2022-04-13T12:50:02Z</time><name>PT5394</name></trkpt>
<trkpt lat="52.095927" lon="05.645866"><ele>41.2</ele><time>2022-04-13T12:50:03Z</time><name>PT5395</name></trkpt>
<trkpt lat="52.095919" lon="05.645855"><ele>41.1</ele><time>2022-04-13T12:50:04Z</time><name>PT5396</name></trkpt>
<trkpt lat="52.095911" lon="05.645844"><ele>41</ele><time>2022-04-13T12:50:05Z</time><name>PT5397</name></trkpt>
<trkpt lat="52.095907" lon="05.645834"><ele>41</ele><time>2022-04-13T12:50:06Z</time><name>PT5398</name></trkpt>
<trkpt lat="52.095903" lon="05.645823"><ele>40.9</ele><time>2022-04-13T12:50:07Z</time><name>PT5399</name></trkpt>
<trkpt lat="52.095898" lon="05.645815"><ele>40.9</ele><time>2022-04-13T12:50:08Z</time><name>PT5400</name></trkpt>
<trkpt lat="52.095891" lon="05.645805"><ele>41</ele><time>2022-04-13T12:50:09Z</time><name>PT5401</name></trkpt>
<trkpt lat="52.095887" lon="05.645794"><ele>41</ele><time>2022-04-13T12:50:10Z</time><name>PT5402</name></trkpt>
<trkpt lat="52.095883" lon="05.645782"><ele>41.3</ele><time>2022-04-13T12:50:11Z</time><name>PT5403</name></trkpt>
<trkpt lat="52.095878" lon="05.645769"><ele>41.4</ele><time>2022-04-13T12:50:12Z</time><name>PT5404</name></trkpt>
<trkpt lat="52.095874" lon="05.645756"><ele>41.6</ele><time>2022-04-13T12:50:13Z</time><name>PT5405</name></trkpt>
<trkpt lat="52.095874" lon="05.645742"><ele>41.8</ele><time>2022-04-13T12:50:14Z</time><name>PT5406</name></trkpt>
<trkpt lat="52.095875" lon="05.645728"><ele>41.8</ele><time>2022-04-13T12:50:15Z</time><name>PT5407</name></trkpt>
<trkpt lat="52.095876" lon="05.645710"><ele>42</ele><time>2022-04-13T12:50:16Z</time><name>PT5408</name></trkpt>
<trkpt lat="52.095877" lon="05.645692"><ele>42.2</ele><time>2022-04-13T12:50:17Z</time><name>PT5409</name></trkpt>
<trkpt lat="52.095877" lon="05.645675"><ele>42.3</ele><time>2022-04-13T12:50:18Z</time><name>PT5410</name></trkpt>
<trkpt lat="52.095879" lon="05.645661"><ele>42.5</ele><time>2022-04-13T12:50:19Z</time><name>PT5411</name></trkpt>
<trkpt lat="52.095883" lon="05.645645"><ele>42.6</ele><time>2022-04-13T12:50:20Z</time><name>PT5412</name></trkpt>
<trkpt lat="52.095887" lon="05.645629"><ele>42.8</ele><time>2022-04-13T12:50:21Z</time><name>PT5413</name></trkpt>
<trkpt lat="52.095894" lon="05.645616"><ele>42.8</ele><time>2022-04-13T12:50:22Z</time><name>PT5414</name></trkpt>
<trkpt lat="52.095899" lon="05.645601"><ele>42.8</ele><time>2022-04-13T12:50:23Z</time><name>PT5415</name></trkpt>
<trkpt lat="52.095904" lon="05.645585"><ele>42.8</ele><time>2022-04-13T12:50:24Z</time><name>PT5416</name></trkpt>
<trkpt lat="52.095908" lon="05.645572"><ele>42.9</ele><time>2022-04-13T12:50:25Z</time><name>PT5417</name></trkpt>
<trkpt lat="52.095914" lon="05.645559"><ele>43</ele><time>2022-04-13T12:50:26Z</time><name>PT5418</name></trkpt>
<trkpt lat="52.095921" lon="05.645545"><ele>42.9</ele><time>2022-04-13T12:50:27Z</time><name>PT5419</name></trkpt>
<trkpt lat="52.095924" lon="05.645532"><ele>43</ele><time>2022-04-13T12:50:28Z</time><name>PT5420</name></trkpt>
<trkpt lat="52.095930" lon="05.645517"><ele>43</ele><time>2022-04-13T12:50:29Z</time><name>PT5421</name></trkpt>
<trkpt lat="52.095937" lon="05.645504"><ele>43.1</ele><time>2022-04-13T12:50:30Z</time><name>PT5422</name></trkpt>
<trkpt lat="52.095943" lon="05.645493"><ele>43.2</ele><time>2022-04-13T12:50:31Z</time><name>PT5423</name></trkpt>
<trkpt lat="52.095949" lon="05.645479"><ele>43.3</ele><time>2022-04-13T12:50:32Z</time><name>PT5424</name></trkpt>
<trkpt lat="52.095957" lon="05.645467"><ele>43.3</ele><time>2022-04-13T12:50:33Z</time><name>PT5425</name></trkpt>
<trkpt lat="52.095964" lon="05.645453"><ele>43.3</ele><time>2022-04-13T12:50:34Z</time><name>PT5426</name></trkpt>
<trkpt lat="52.095970" lon="05.645440"><ele>43.2</ele><time>2022-04-13T12:50:35Z</time><name>PT5427</name></trkpt>
<trkpt lat="52.095976" lon="05.645426"><ele>43.2</ele><time>2022-04-13T12:50:36Z</time><name>PT5428</name></trkpt>
<trkpt lat="52.095981" lon="05.645413"><ele>43.3</ele><time>2022-04-13T12:50:37Z</time><name>PT5429</name></trkpt>
<trkpt lat="52.095988" lon="05.645400"><ele>43.3</ele><time>2022-04-13T12:50:38Z</time><name>PT5430</name></trkpt>
<trkpt lat="52.095998" lon="05.645388"><ele>43.3</ele><time>2022-04-13T12:50:39Z</time><name>PT5431</name></trkpt>
<trkpt lat="52.096006" lon="05.645376"><ele>43.4</ele><time>2022-04-13T12:50:40Z</time><name>PT5432</name></trkpt>
<trkpt lat="52.096014" lon="05.645362"><ele>43.5</ele><time>2022-04-13T12:50:41Z</time><name>PT5433</name></trkpt>
<trkpt lat="52.096023" lon="05.645349"><ele>43.5</ele><time>2022-04-13T12:50:42Z</time><name>PT5434</name></trkpt>
<trkpt lat="52.096031" lon="05.645336"><ele>43.5</ele><time>2022-04-13T12:50:43Z</time><name>PT5435</name></trkpt>
<trkpt lat="52.096041" lon="05.645325"><ele>43.4</ele><time>2022-04-13T12:50:44Z</time><name>PT5436</name></trkpt>
<trkpt lat="52.096050" lon="05.645314"><ele>43.2</ele><time>2022-04-13T12:50:45Z</time><name>PT5437</name></trkpt>
<trkpt lat="52.096060" lon="05.645303"><ele>43.1</ele><time>2022-04-13T12:50:46Z</time><name>PT5438</name></trkpt>
<trkpt lat="52.096066" lon="05.645291"><ele>43.1</ele><time>2022-04-13T12:50:47Z</time><name>PT5439</name></trkpt>
<trkpt lat="52.096074" lon="05.645280"><ele>43.3</ele><time>2022-04-13T12:50:48Z</time><name>PT5440</name></trkpt>
<trkpt lat="52.096082" lon="05.645269"><ele>43.3</ele><time>2022-04-13T12:50:49Z</time><name>PT5441</name></trkpt>
<trkpt lat="52.096089" lon="05.645258"><ele>43.3</ele><time>2022-04-13T12:50:50Z</time><name>PT5442</name></trkpt>
<trkpt lat="52.096099" lon="05.645248"><ele>43.3</ele><time>2022-04-13T12:50:51Z</time><name>PT5443</name></trkpt>
<trkpt lat="52.096107" lon="05.645238"><ele>43.3</ele><time>2022-04-13T12:50:52Z</time><name>PT5444</name></trkpt>
<trkpt lat="52.096116" lon="05.645227"><ele>43.4</ele><time>2022-04-13T12:50:53Z</time><name>PT5445</name></trkpt>
<trkpt lat="52.096125" lon="05.645217"><ele>43.6</ele><time>2022-04-13T12:50:54Z</time><name>PT5446</name></trkpt>
<trkpt lat="52.096135" lon="05.645208"><ele>43.8</ele><time>2022-04-13T12:50:55Z</time><name>PT5447</name></trkpt>
<trkpt lat="52.096147" lon="05.645201"><ele>44</ele><time>2022-04-13T12:50:56Z</time><name>PT5448</name></trkpt>
<trkpt lat="52.096157" lon="05.645195"><ele>44</ele><time>2022-04-13T12:50:57Z</time><name>PT5449</name></trkpt>
<trkpt lat="52.096165" lon="05.645186"><ele>44</ele><time>2022-04-13T12:50:58Z</time><name>PT5450</name></trkpt>
<trkpt lat="52.096174" lon="05.645178"><ele>44.1</ele><time>2022-04-13T12:50:59Z</time><name>PT5451</name></trkpt>
<trkpt lat="52.096182" lon="05.645170"><ele>44</ele><time>2022-04-13T12:51:00Z</time><name>PT5452</name></trkpt>
<trkpt lat="52.096192" lon="05.645162"><ele>44</ele><time>2022-04-13T12:51:01Z</time><name>PT5453</name></trkpt>
<trkpt lat="52.096200" lon="05.645153"><ele>43.8</ele><time>2022-04-13T12:51:02Z</time><name>PT5454</name></trkpt>
<trkpt lat="52.096209" lon="05.645149"><ele>44</ele><time>2022-04-13T12:51:03Z</time><name>PT5455</name></trkpt>
<trkpt lat="52.096217" lon="05.645141"><ele>43.9</ele><time>2022-04-13T12:51:04Z</time><name>PT5456</name></trkpt>
<trkpt lat="52.096226" lon="05.645133"><ele>44.1</ele><time>2022-04-13T12:51:05Z</time><name>PT5457</name></trkpt>
<trkpt lat="52.096236" lon="05.645127"><ele>44.3</ele><time>2022-04-13T12:51:06Z</time><name>PT5458</name></trkpt>
<trkpt lat="52.096244" lon="05.645122"><ele>44.1</ele><time>2022-04-13T12:51:07Z</time><name>PT5459</name></trkpt>
<trkpt lat="52.096254" lon="05.645116"><ele>44.1</ele><time>2022-04-13T12:51:08Z</time><name>PT5460</name></trkpt>
<trkpt lat="52.096265" lon="05.645112"><ele>44</ele><time>2022-04-13T12:51:09Z</time><name>PT5461</name></trkpt>
<trkpt lat="52.096276" lon="05.645107"><ele>44</ele><time>2022-04-13T12:51:10Z</time><name>PT5462</name></trkpt>
<trkpt lat="52.096285" lon="05.645100"><ele>44</ele><time>2022-04-13T12:51:11Z</time><name>PT5463</name></trkpt>
<trkpt lat="52.096294" lon="05.645095"><ele>43.9</ele><time>2022-04-13T12:51:12Z</time><name>PT5464</name></trkpt>
<trkpt lat="52.096304" lon="05.645094"><ele>44</ele><time>2022-04-13T12:51:13Z</time><name>PT5465</name></trkpt>
<trkpt lat="52.096313" lon="05.645093"><ele>43.8</ele><time>2022-04-13T12:51:14Z</time><name>PT5466</name></trkpt>
<trkpt lat="52.096324" lon="05.645091"><ele>44</ele><time>2022-04-13T12:51:15Z</time><name>PT5467</name></trkpt>
<trkpt lat="52.096336" lon="05.645088"><ele>44.3</ele><time>2022-04-13T12:51:16Z</time><name>PT5468</name></trkpt>
<trkpt lat="52.096345" lon="05.645084"><ele>44.2</ele><time>2022-04-13T12:51:17Z</time><name>PT5469</name></trkpt>
<trkpt lat="52.096355" lon="05.645082"><ele>44.3</ele><time>2022-04-13T12:51:18Z</time><name>PT5470</name></trkpt>
<trkpt lat="52.096365" lon="05.645080"><ele>44.2</ele><time>2022-04-13T12:51:19Z</time><name>PT5471</name></trkpt>
<trkpt lat="52.096374" lon="05.645081"><ele>44.2</ele><time>2022-04-13T12:51:20Z</time><name>PT5472</name></trkpt>
<trkpt lat="52.096387" lon="05.645082"><ele>44.2</ele><time>2022-04-13T12:51:21Z</time><name>PT5473</name></trkpt>
<trkpt lat="52.096399" lon="05.645081"><ele>44.3</ele><time>2022-04-13T12:51:22Z</time><name>PT5474</name></trkpt>
<trkpt lat="52.096410" lon="05.645078"><ele>44.3</ele><time>2022-04-13T12:51:23Z</time><name>PT5475</name></trkpt>
<trkpt lat="52.096420" lon="05.645075"><ele>44.3</ele><time>2022-04-13T12:51:24Z</time><name>PT5476</name></trkpt>
<trkpt lat="52.096430" lon="05.645074"><ele>44.3</ele><time>2022-04-13T12:51:25Z</time><name>PT5477</name></trkpt>
<trkpt lat="52.096440" lon="05.645073"><ele>44.3</ele><time>2022-04-13T12:51:26Z</time><name>PT5478</name></trkpt>
<trkpt lat="52.096451" lon="05.645073"><ele>44.3</ele><time>2022-04-13T12:51:27Z</time><name>PT5479</name></trkpt>
<trkpt lat="52.096461" lon="05.645072"><ele>44.2</ele><time>2022-04-13T12:51:28Z</time><name>PT5480</name></trkpt>
<trkpt lat="52.096471" lon="05.645072"><ele>44.2</ele><time>2022-04-13T12:51:29Z</time><name>PT5481</name></trkpt>
<trkpt lat="52.096481" lon="05.645074"><ele>44.2</ele><time>2022-04-13T12:51:30Z</time><name>PT5482</name></trkpt>
<trkpt lat="52.096492" lon="05.645076"><ele>44.1</ele><time>2022-04-13T12:51:31Z</time><name>PT5483</name></trkpt>
<trkpt lat="52.096502" lon="05.645079"><ele>44.2</ele><time>2022-04-13T12:51:32Z</time><name>PT5484</name></trkpt>
<trkpt lat="52.096512" lon="05.645080"><ele>44.3</ele><time>2022-04-13T12:51:33Z</time><name>PT5485</name></trkpt>
<trkpt lat="52.096521" lon="05.645080"><ele>44.1</ele><time>2022-04-13T12:51:34Z</time><name>PT5486</name></trkpt>
<trkpt lat="52.096529" lon="05.645082"><ele>44.2</ele><time>2022-04-13T12:51:35Z</time><name>PT5487</name></trkpt>
<trkpt lat="52.096538" lon="05.645086"><ele>44.1</ele><time>2022-04-13T12:51:36Z</time><name>PT5488</name></trkpt>
<trkpt lat="52.096545" lon="05.645089"><ele>44</ele><time>2022-04-13T12:51:37Z</time><name>PT5489</name></trkpt>
<trkpt lat="52.096554" lon="05.645092"><ele>44</ele><time>2022-04-13T12:51:38Z</time><name>PT5490</name></trkpt>
<trkpt lat="52.096562" lon="05.645095"><ele>43.9</ele><time>2022-04-13T12:51:39Z</time><name>PT5491</name></trkpt>
<trkpt lat="52.096570" lon="05.645098"><ele>44</ele><time>2022-04-13T12:51:40Z</time><name>PT5492</name></trkpt>
<trkpt lat="52.096579" lon="05.645100"><ele>44</ele><time>2022-04-13T12:51:41Z</time><name>PT5493</name></trkpt>
<trkpt lat="52.096586" lon="05.645103"><ele>44.1</ele><time>2022-04-13T12:51:42Z</time><name>PT5494</name></trkpt>
<trkpt lat="52.096594" lon="05.645107"><ele>44.2</ele><time>2022-04-13T12:51:43Z</time><name>PT5495</name></trkpt>
<trkpt lat="52.096602" lon="05.645113"><ele>44</ele><time>2022-04-13T12:51:44Z</time><name>PT5496</name></trkpt>
<trkpt lat="52.096611" lon="05.645117"><ele>44.1</ele><time>2022-04-13T12:51:45Z</time><name>PT5497</name></trkpt>
<trkpt lat="52.096619" lon="05.645126"><ele>44.1</ele><time>2022-04-13T12:51:46Z</time><name>PT5498</name></trkpt>
<trkpt lat="52.096626" lon="05.645132"><ele>44.1</ele><time>2022-04-13T12:51:47Z</time><name>PT5499</name></trkpt>
<trkpt lat="52.096633" lon="05.645139"><ele>44.1</ele><time>2022-04-13T12:51:48Z</time><name>PT5500</name></trkpt>
<trkpt lat="52.096641" lon="05.645145"><ele>44</ele><time>2022-04-13T12:51:49Z</time><name>PT5501</name></trkpt>
<trkpt lat="52.096649" lon="05.645151"><ele>44</ele><time>2022-04-13T12:51:50Z</time><name>PT5502</name></trkpt>
<trkpt lat="52.096658" lon="05.645156"><ele>44</ele><time>2022-04-13T12:51:51Z</time><name>PT5503</name></trkpt>
<trkpt lat="52.096666" lon="05.645165"><ele>43.8</ele><time>2022-04-13T12:51:52Z</time><name>PT5504</name></trkpt>
<trkpt lat="52.096675" lon="05.645172"><ele>43.9</ele><time>2022-04-13T12:51:53Z</time><name>PT5505</name></trkpt>
<trkpt lat="52.096683" lon="05.645178"><ele>43.9</ele><time>2022-04-13T12:51:54Z</time><name>PT5506</name></trkpt>
<trkpt lat="52.096691" lon="05.645186"><ele>43.8</ele><time>2022-04-13T12:51:55Z</time><name>PT5507</name></trkpt>
<trkpt lat="52.096700" lon="05.645197"><ele>43.8</ele><time>2022-04-13T12:51:56Z</time><name>PT5508</name></trkpt>
<trkpt lat="52.096709" lon="05.645208"><ele>43.9</ele><time>2022-04-13T12:51:57Z</time><name>PT5509</name></trkpt>
<trkpt lat="52.096718" lon="05.645216"><ele>43.8</ele><time>2022-04-13T12:51:58Z</time><name>PT5510</name></trkpt>
<trkpt lat="52.096727" lon="05.645226"><ele>43.8</ele><time>2022-04-13T12:51:59Z</time><name>PT5511</name></trkpt>
<trkpt lat="52.096737" lon="05.645235"><ele>43.8</ele><time>2022-04-13T12:52:00Z</time><name>PT5512</name></trkpt>
<trkpt lat="52.096748" lon="05.645244"><ele>43.8</ele><time>2022-04-13T12:52:01Z</time><name>PT5513</name></trkpt>
<trkpt lat="52.096757" lon="05.645252"><ele>43.9</ele><time>2022-04-13T12:52:02Z</time><name>PT5514</name></trkpt>
<trkpt lat="52.096765" lon="05.645260"><ele>44</ele><time>2022-04-13T12:52:03Z</time><name>PT5515</name></trkpt>
<trkpt lat="52.096774" lon="05.645269"><ele>44</ele><time>2022-04-13T12:52:04Z</time><name>PT5516</name></trkpt>
<trkpt lat="52.096782" lon="05.645273"><ele>44</ele><time>2022-04-13T12:52:05Z</time><name>PT5517</name></trkpt>
<trkpt lat="52.096789" lon="05.645278"><ele>43.8</ele><time>2022-04-13T12:52:06Z</time><name>PT5518</name></trkpt>
<trkpt lat="52.096795" lon="05.645281"><ele>43.8</ele><time>2022-04-13T12:52:07Z</time><name>PT5519</name></trkpt>
<trkpt lat="52.096798" lon="05.645281"><ele>43.9</ele><time>2022-04-13T12:52:08Z</time><name>PT5520</name></trkpt>
<trkpt lat="52.096800" lon="05.645281"><ele>43.8</ele><time>2022-04-13T12:52:09Z</time><name>PT5521</name></trkpt>
<trkpt lat="52.096801" lon="05.645282"><ele>43.8</ele><time>2022-04-13T12:52:10Z</time><name>PT5522</name></trkpt>
<trkpt lat="52.096802" lon="05.645283"><ele>43.9</ele><time>2022-04-13T12:52:11Z</time><name>PT5523</name></trkpt>
<trkpt lat="52.096802" lon="05.645284"><ele>43.7</ele><time>2022-04-13T12:52:12Z</time><name>PT5524</name></trkpt>
<trkpt lat="52.096802" lon="05.645281"><ele>43.7</ele><time>2022-04-13T12:52:13Z</time><name>PT5525</name></trkpt>
<trkpt lat="52.096802" lon="05.645281"><ele>43.5</ele><time>2022-04-13T12:52:14Z</time><name>PT5526</name></trkpt>
<trkpt lat="52.096802" lon="05.645281"><ele>43.8</ele><time>2022-04-13T12:52:15Z</time><name>PT5527</name></trkpt>
<trkpt lat="52.096804" lon="05.645283"><ele>43.8</ele><time>2022-04-13T12:52:16Z</time><name>PT5528</name></trkpt>
<trkpt lat="52.096808" lon="05.645283"><ele>43.8</ele><time>2022-04-13T12:52:17Z</time><name>PT5529</name></trkpt>
<trkpt lat="52.096811" lon="05.645282"><ele>44.1</ele><time>2022-04-13T12:52:18Z</time><name>PT5530</name></trkpt>
<trkpt lat="52.096816" lon="05.645279"><ele>44.1</ele><time>2022-04-13T12:52:19Z</time><name>PT5531</name></trkpt>
<trkpt lat="52.096822" lon="05.645274"><ele>44.1</ele><time>2022-04-13T12:52:20Z</time><name>PT5532</name></trkpt>
<trkpt lat="52.096828" lon="05.645270"><ele>44.1</ele><time>2022-04-13T12:52:21Z</time><name>PT5533</name></trkpt>
<trkpt lat="52.096836" lon="05.645267"><ele>44</ele><time>2022-04-13T12:52:22Z</time><name>PT5534</name></trkpt>
<trkpt lat="52.096842" lon="05.645267"><ele>43.8</ele><time>2022-04-13T12:52:23Z</time><name>PT5535</name></trkpt>
<trkpt lat="52.096845" lon="05.645269"><ele>44.1</ele><time>2022-04-13T12:52:24Z</time><name>PT5536</name></trkpt>
<trkpt lat="52.096850" lon="05.645265"><ele>44.1</ele><time>2022-04-13T12:52:25Z</time><name>PT5537</name></trkpt>
<trkpt lat="52.096855" lon="05.645257"><ele>44.1</ele><time>2022-04-13T12:52:26Z</time><name>PT5538</name></trkpt>
<trkpt lat="52.096859" lon="05.645247"><ele>44.1</ele><time>2022-04-13T12:52:27Z</time><name>PT5539</name></trkpt>
<trkpt lat="52.096863" lon="05.645238"><ele>43.9</ele><time>2022-04-13T12:52:28Z</time><name>PT5540</name></trkpt>
<trkpt lat="52.096869" lon="05.645229"><ele>43.9</ele><time>2022-04-13T12:52:29Z</time><name>PT5541</name></trkpt>
<trkpt lat="52.096875" lon="05.645223"><ele>43.8</ele><time>2022-04-13T12:52:30Z</time><name>PT5542</name></trkpt>
<trkpt lat="52.096879" lon="05.645216"><ele>43.9</ele><time>2022-04-13T12:52:31Z</time><name>PT5543</name></trkpt>
<trkpt lat="52.096881" lon="05.645214"><ele>43.9</ele><time>2022-04-13T12:52:32Z</time><name>PT5544</name></trkpt>
<trkpt lat="52.096881" lon="05.645216"><ele>44</ele><time>2022-04-13T12:52:33Z</time><name>PT5545</name></trkpt>
<trkpt lat="52.096883" lon="05.645217"><ele>43.9</ele><time>2022-04-13T12:52:34Z</time><name>PT5546</name></trkpt>
<trkpt lat="52.096882" lon="05.645212"><ele>43.9</ele><time>2022-04-13T12:52:44Z</time><name>PT5547</name></trkpt>
<trkpt lat="52.096886" lon="05.645205"><ele>44</ele><time>2022-04-13T12:52:45Z</time><name>PT5548</name></trkpt>
<trkpt lat="52.096894" lon="05.645193"><ele>43.9</ele><time>2022-04-13T12:52:46Z</time><name>PT5549</name></trkpt>
<trkpt lat="52.096902" lon="05.645184"><ele>43.8</ele><time>2022-04-13T12:52:47Z</time><name>PT5550</name></trkpt>
<trkpt lat="52.096909" lon="05.645177"><ele>43.6</ele><time>2022-04-13T12:52:48Z</time><name>PT5551</name></trkpt>
<trkpt lat="52.096915" lon="05.645167"><ele>43.3</ele><time>2022-04-13T12:52:49Z</time><name>PT5552</name></trkpt>
<trkpt lat="52.096921" lon="05.645157"><ele>42.9</ele><time>2022-04-13T12:52:50Z</time><name>PT5553</name></trkpt>
<trkpt lat="52.096926" lon="05.645143"><ele>43</ele><time>2022-04-13T12:52:51Z</time><name>PT5554</name></trkpt>
<trkpt lat="52.096932" lon="05.645134"><ele>42.8</ele><time>2022-04-13T12:52:52Z</time><name>PT5555</name></trkpt>
<trkpt lat="52.096940" lon="05.645127"><ele>42.8</ele><time>2022-04-13T12:52:53Z</time><name>PT5556</name></trkpt>
<trkpt lat="52.096945" lon="05.645120"><ele>42.7</ele><time>2022-04-13T12:52:54Z</time><name>PT5557</name></trkpt>
<trkpt lat="52.096951" lon="05.645110"><ele>42.6</ele><time>2022-04-13T12:52:55Z</time><name>PT5558</name></trkpt>
<trkpt lat="52.096960" lon="05.645100"><ele>42.3</ele><time>2022-04-13T12:52:56Z</time><name>PT5559</name></trkpt>
<trkpt lat="52.096967" lon="05.645089"><ele>42.3</ele><time>2022-04-13T12:52:57Z</time><name>PT5560</name></trkpt>
<trkpt lat="52.096974" lon="05.645079"><ele>42.1</ele><time>2022-04-13T12:52:58Z</time><name>PT5561</name></trkpt>
<trkpt lat="52.096978" lon="05.645066"><ele>42</ele><time>2022-04-13T12:52:59Z</time><name>PT5562</name></trkpt>
<trkpt lat="52.096985" lon="05.645054"><ele>41.9</ele><time>2022-04-13T12:53:00Z</time><name>PT5563</name></trkpt>
<trkpt lat="52.096990" lon="05.645041"><ele>41.9</ele><time>2022-04-13T12:53:01Z</time><name>PT5564</name></trkpt>
<trkpt lat="52.096992" lon="05.645029"><ele>41.8</ele><time>2022-04-13T12:53:02Z</time><name>PT5565</name></trkpt>
<trkpt lat="52.097006" lon="05.645021"><ele>41.8</ele><time>2022-04-13T12:53:03Z</time><name>PT5566</name></trkpt>
<trkpt lat="52.097014" lon="05.645007"><ele>41.8</ele><time>2022-04-13T12:53:04Z</time><name>PT5567</name></trkpt>
<trkpt lat="52.097021" lon="05.644990"><ele>41.8</ele><time>2022-04-13T12:53:05Z</time><name>PT5568</name></trkpt>
<trkpt lat="52.097029" lon="05.644976"><ele>41.8</ele><time>2022-04-13T12:53:06Z</time><name>PT5569</name></trkpt>
<trkpt lat="52.097040" lon="05.644962"><ele>41.8</ele><time>2022-04-13T12:53:07Z</time><name>PT5570</name></trkpt>
<trkpt lat="52.097049" lon="05.644951"><ele>41.7</ele><time>2022-04-13T12:53:08Z</time><name>PT5571</name></trkpt>
<trkpt lat="52.097057" lon="05.644940"><ele>41.5</ele><time>2022-04-13T12:53:09Z</time><name>PT5572</name></trkpt>
<trkpt lat="52.097065" lon="05.644928"><ele>41.5</ele><time>2022-04-13T12:53:10Z</time><name>PT5573</name></trkpt>
<trkpt lat="52.097076" lon="05.644915"><ele>41.5</ele><time>2022-04-13T12:53:11Z</time><name>PT5574</name></trkpt>
<trkpt lat="52.097088" lon="05.644903"><ele>41.4</ele><time>2022-04-13T12:53:12Z</time><name>PT5575</name></trkpt>
<trkpt lat="52.097098" lon="05.644892"><ele>41.4</ele><time>2022-04-13T12:53:13Z</time><name>PT5576</name></trkpt>
<trkpt lat="52.097110" lon="05.644883"><ele>41.4</ele><time>2022-04-13T12:53:14Z</time><name>PT5577</name></trkpt>
<trkpt lat="52.097119" lon="05.644872"><ele>41.4</ele><time>2022-04-13T12:53:15Z</time><name>PT5578</name></trkpt>
<trkpt lat="52.097131" lon="05.644862"><ele>41.5</ele><time>2022-04-13T12:53:16Z</time><name>PT5579</name></trkpt>
<trkpt lat="52.097140" lon="05.644850"><ele>41.3</ele><time>2022-04-13T12:53:17Z</time><name>PT5580</name></trkpt>
<trkpt lat="52.097149" lon="05.644836"><ele>41.3</ele><time>2022-04-13T12:53:18Z</time><name>PT5581</name></trkpt>
<trkpt lat="52.097158" lon="05.644822"><ele>41.2</ele><time>2022-04-13T12:53:19Z</time><name>PT5582</name></trkpt>
<trkpt lat="52.097166" lon="05.644809"><ele>41</ele><time>2022-04-13T12:53:20Z</time><name>PT5583</name></trkpt>
<trkpt lat="52.097173" lon="05.644799"><ele>40.9</ele><time>2022-04-13T12:53:21Z</time><name>PT5584</name></trkpt>
<trkpt lat="52.097183" lon="05.644791"><ele>40.9</ele><time>2022-04-13T12:53:22Z</time><name>PT5585</name></trkpt>
<trkpt lat="52.097191" lon="05.644780"><ele>40.7</ele><time>2022-04-13T12:53:23Z</time><name>PT5586</name></trkpt>
<trkpt lat="52.097202" lon="05.644768"><ele>40.7</ele><time>2022-04-13T12:53:24Z</time><name>PT5587</name></trkpt>
<trkpt lat="52.097210" lon="05.644754"><ele>40.6</ele><time>2022-04-13T12:53:25Z</time><name>PT5588</name></trkpt>
<trkpt lat="52.097214" lon="05.644741"><ele>40.7</ele><time>2022-04-13T12:53:26Z</time><name>PT5589</name></trkpt>
<trkpt lat="52.097221" lon="05.644733"><ele>40.6</ele><time>2022-04-13T12:53:27Z</time><name>PT5590</name></trkpt>
<trkpt lat="52.097229" lon="05.644724"><ele>40.8</ele><time>2022-04-13T12:53:28Z</time><name>PT5591</name></trkpt>
<trkpt lat="52.097236" lon="05.644716"><ele>40.9</ele><time>2022-04-13T12:53:29Z</time><name>PT5592</name></trkpt>
<trkpt lat="52.097239" lon="05.644707"><ele>40.9</ele><time>2022-04-13T12:53:30Z</time><name>PT5593</name></trkpt>
<trkpt lat="52.097245" lon="05.644696"><ele>41</ele><time>2022-04-13T12:53:31Z</time><name>PT5594</name></trkpt>
<trkpt lat="52.097251" lon="05.644683"><ele>40.8</ele><time>2022-04-13T12:53:32Z</time><name>PT5595</name></trkpt>
<trkpt lat="52.097258" lon="05.644671"><ele>40.7</ele><time>2022-04-13T12:53:33Z</time><name>PT5596</name></trkpt>
<trkpt lat="52.097268" lon="05.644660"><ele>40.5</ele><time>2022-04-13T12:53:34Z</time><name>PT5597</name></trkpt>
<trkpt lat="52.097278" lon="05.644648"><ele>40.4</ele><time>2022-04-13T12:53:35Z</time><name>PT5598</name></trkpt>
<trkpt lat="52.097287" lon="05.644633"><ele>40.4</ele><time>2022-04-13T12:53:36Z</time><name>PT5599</name></trkpt>
<trkpt lat="52.097295" lon="05.644621"><ele>40.4</ele><time>2022-04-13T12:53:37Z</time><name>PT5600</name></trkpt>
<trkpt lat="52.097304" lon="05.644610"><ele>40.4</ele><time>2022-04-13T12:53:38Z</time><name>PT5601</name></trkpt>
<trkpt lat="52.097314" lon="05.644596"><ele>40.3</ele><time>2022-04-13T12:53:39Z</time><name>PT5602</name></trkpt>
<trkpt lat="52.097323" lon="05.644584"><ele>40.4</ele><time>2022-04-13T12:53:40Z</time><name>PT5603</name></trkpt>
<trkpt lat="52.097332" lon="05.644574"><ele>40.4</ele><time>2022-04-13T12:53:41Z</time><name>PT5604</name></trkpt>
<trkpt lat="52.097338" lon="05.644561"><ele>40.4</ele><time>2022-04-13T12:53:42Z</time><name>PT5605</name></trkpt>
<trkpt lat="52.097343" lon="05.644548"><ele>40.4</ele><time>2022-04-13T12:53:43Z</time><name>PT5606</name></trkpt>
<trkpt lat="52.097351" lon="05.644535"><ele>40.3</ele><time>2022-04-13T12:53:44Z</time><name>PT5607</name></trkpt>
<trkpt lat="52.097360" lon="05.644522"><ele>40.4</ele><time>2022-04-13T12:53:45Z</time><name>PT5608</name></trkpt>
<trkpt lat="52.097371" lon="05.644508"><ele>40.3</ele><time>2022-04-13T12:53:46Z</time><name>PT5609</name></trkpt>
<trkpt lat="52.097380" lon="05.644494"><ele>40.2</ele><time>2022-04-13T12:53:47Z</time><name>PT5610</name></trkpt>
<trkpt lat="52.097390" lon="05.644481"><ele>40</ele><time>2022-04-13T12:53:48Z</time><name>PT5611</name></trkpt>
<trkpt lat="52.097397" lon="05.644467"><ele>40</ele><time>2022-04-13T12:53:49Z</time><name>PT5612</name></trkpt>
<trkpt lat="52.097405" lon="05.644457"><ele>40.1</ele><time>2022-04-13T12:53:50Z</time><name>PT5613</name></trkpt>
<trkpt lat="52.097415" lon="05.644447"><ele>40.1</ele><time>2022-04-13T12:53:51Z</time><name>PT5614</name></trkpt>
<trkpt lat="52.097426" lon="05.644437"><ele>40.1</ele><time>2022-04-13T12:53:52Z</time><name>PT5615</name></trkpt>
<trkpt lat="52.097433" lon="05.644428"><ele>40.2</ele><time>2022-04-13T12:53:53Z</time><name>PT5616</name></trkpt>
<trkpt lat="52.097443" lon="05.644414"><ele>40.1</ele><time>2022-04-13T12:53:54Z</time><name>PT5617</name></trkpt>
<trkpt lat="52.097451" lon="05.644399"><ele>40.1</ele><time>2022-04-13T12:53:55Z</time><name>PT5618</name></trkpt>
<trkpt lat="52.097459" lon="05.644389"><ele>40.3</ele><time>2022-04-13T12:53:56Z</time><name>PT5619</name></trkpt>
<trkpt lat="52.097467" lon="05.644378"><ele>40.1</ele><time>2022-04-13T12:53:57Z</time><name>PT5620</name></trkpt>
<trkpt lat="52.097477" lon="05.644364"><ele>40.1</ele><time>2022-04-13T12:53:58Z</time><name>PT5621</name></trkpt>
<trkpt lat="52.097486" lon="05.644353"><ele>40</ele><time>2022-04-13T12:53:59Z</time><name>PT5622</name></trkpt>
<trkpt lat="52.097493" lon="05.644343"><ele>39.9</ele><time>2022-04-13T12:54:00Z</time><name>PT5623</name></trkpt>
<trkpt lat="52.097500" lon="05.644332"><ele>39.9</ele><time>2022-04-13T12:54:01Z</time><name>PT5624</name></trkpt>
<trkpt lat="52.097508" lon="05.644321"><ele>39.9</ele><time>2022-04-13T12:54:02Z</time><name>PT5625</name></trkpt>
<trkpt lat="52.097515" lon="05.644309"><ele>39.9</ele><time>2022-04-13T12:54:03Z</time><name>PT5626</name></trkpt>
<trkpt lat="52.097523" lon="05.644298"><ele>39.9</ele><time>2022-04-13T12:54:04Z</time><name>PT5627</name></trkpt>
<trkpt lat="52.097531" lon="05.644290"><ele>39.9</ele><time>2022-04-13T12:54:05Z</time><name>PT5628</name></trkpt>
<trkpt lat="52.097541" lon="05.644281"><ele>40</ele><time>2022-04-13T12:54:06Z</time><name>PT5629</name></trkpt>
<trkpt lat="52.097550" lon="05.644272"><ele>39.9</ele><time>2022-04-13T12:54:07Z</time><name>PT5630</name></trkpt>
<trkpt lat="52.097560" lon="05.644261"><ele>39.9</ele><time>2022-04-13T12:54:08Z</time><name>PT5631</name></trkpt>
<trkpt lat="52.097568" lon="05.644249"><ele>39.8</ele><time>2022-04-13T12:54:09Z</time><name>PT5632</name></trkpt>
<trkpt lat="52.097576" lon="05.644236"><ele>39.7</ele><time>2022-04-13T12:54:10Z</time><name>PT5633</name></trkpt>
<trkpt lat="52.097584" lon="05.644223"><ele>39.6</ele><time>2022-04-13T12:54:11Z</time><name>PT5634</name></trkpt>
<trkpt lat="52.097590" lon="05.644213"><ele>39.7</ele><time>2022-04-13T12:54:12Z</time><name>PT5635</name></trkpt>
<trkpt lat="52.097597" lon="05.644202"><ele>39.7</ele><time>2022-04-13T12:54:13Z</time><name>PT5636</name></trkpt>
<trkpt lat="52.097605" lon="05.644190"><ele>39.8</ele><time>2022-04-13T12:54:14Z</time><name>PT5637</name></trkpt>
<trkpt lat="52.097613" lon="05.644177"><ele>40.1</ele><time>2022-04-13T12:54:15Z</time><name>PT5638</name></trkpt>
<trkpt lat="52.097619" lon="05.644163"><ele>40.1</ele><time>2022-04-13T12:54:16Z</time><name>PT5639</name></trkpt>
<trkpt lat="52.097624" lon="05.644151"><ele>40.2</ele><time>2022-04-13T12:54:17Z</time><name>PT5640</name></trkpt>
<trkpt lat="52.097630" lon="05.644144"><ele>40.2</ele><time>2022-04-13T12:54:18Z</time><name>PT5641</name></trkpt>
<trkpt lat="52.097637" lon="05.644136"><ele>39.9</ele><time>2022-04-13T12:54:19Z</time><name>PT5642</name></trkpt>
<trkpt lat="52.097644" lon="05.644126"><ele>39.8</ele><time>2022-04-13T12:54:20Z</time><name>PT5643</name></trkpt>
<trkpt lat="52.097650" lon="05.644116"><ele>39.7</ele><time>2022-04-13T12:54:21Z</time><name>PT5644</name></trkpt>
<trkpt lat="52.097655" lon="05.644108"><ele>39.6</ele><time>2022-04-13T12:54:22Z</time><name>PT5645</name></trkpt>
<trkpt lat="52.097660" lon="05.644101"><ele>39.7</ele><time>2022-04-13T12:54:23Z</time><name>PT5646</name></trkpt>
<trkpt lat="52.097665" lon="05.644093"><ele>39.9</ele><time>2022-04-13T12:54:24Z</time><name>PT5647</name></trkpt>
<trkpt lat="52.097670" lon="05.644083"><ele>39.6</ele><time>2022-04-13T12:54:25Z</time><name>PT5648</name></trkpt>
<trkpt lat="52.097675" lon="05.644074"><ele>39.5</ele><time>2022-04-13T12:54:26Z</time><name>PT5649</name></trkpt>
<trkpt lat="52.097681" lon="05.644066"><ele>39.4</ele><time>2022-04-13T12:54:27Z</time><name>PT5650</name></trkpt>
<trkpt lat="52.097688" lon="05.644058"><ele>39.3</ele><time>2022-04-13T12:54:28Z</time><name>PT5651</name></trkpt>
<trkpt lat="52.097695" lon="05.644051"><ele>39.4</ele><time>2022-04-13T12:54:29Z</time><name>PT5652</name></trkpt>
<trkpt lat="52.097699" lon="05.644045"><ele>39.4</ele><time>2022-04-13T12:54:30Z</time><name>PT5653</name></trkpt>
<trkpt lat="52.097702" lon="05.644041"><ele>39.4</ele><time>2022-04-13T12:54:31Z</time><name>PT5654</name></trkpt>
<trkpt lat="52.097707" lon="05.644035"><ele>39.4</ele><time>2022-04-13T12:54:32Z</time><name>PT5655</name></trkpt>
<trkpt lat="52.097711" lon="05.644028"><ele>39.4</ele><time>2022-04-13T12:54:33Z</time><name>PT5656</name></trkpt>
<trkpt lat="52.097714" lon="05.644022"><ele>39.4</ele><time>2022-04-13T12:54:34Z</time><name>PT5657</name></trkpt>
<trkpt lat="52.097718" lon="05.644013"><ele>39.2</ele><time>2022-04-13T12:54:35Z</time><name>PT5658</name></trkpt>
<trkpt lat="52.097722" lon="05.644008"><ele>39.2</ele><time>2022-04-13T12:54:36Z</time><name>PT5659</name></trkpt>
<trkpt lat="52.097728" lon="05.644003"><ele>39.1</ele><time>2022-04-13T12:54:37Z</time><name>PT5660</name></trkpt>
<trkpt lat="52.097732" lon="05.643997"><ele>39.1</ele><time>2022-04-13T12:54:38Z</time><name>PT5661</name></trkpt>
<trkpt lat="52.097737" lon="05.643991"><ele>39.3</ele><time>2022-04-13T12:54:39Z</time><name>PT5662</name></trkpt>
<trkpt lat="52.097742" lon="05.643990"><ele>39.2</ele><time>2022-04-13T12:54:40Z</time><name>PT5663</name></trkpt>
<trkpt lat="52.097741" lon="05.643989"><ele>39.3</ele><time>2022-04-13T12:54:41Z</time><name>PT5664</name></trkpt>
<trkpt lat="52.097744" lon="05.643988"><ele>39.3</ele><time>2022-04-13T12:54:42Z</time><name>PT5665</name></trkpt>
<trkpt lat="52.097748" lon="05.643984"><ele>39.2</ele><time>2022-04-13T12:54:43Z</time><name>PT5666</name></trkpt>
<trkpt lat="52.097752" lon="05.643977"><ele>39.3</ele><time>2022-04-13T12:54:44Z</time><name>PT5667</name></trkpt>
<trkpt lat="52.097757" lon="05.643970"><ele>39.1</ele><time>2022-04-13T12:54:45Z</time><name>PT5668</name></trkpt>
<trkpt lat="52.097765" lon="05.643962"><ele>39.3</ele><time>2022-04-13T12:54:46Z</time><name>PT5669</name></trkpt>
<trkpt lat="52.097769" lon="05.643953"><ele>39.4</ele><time>2022-04-13T12:54:47Z</time><name>PT5670</name></trkpt>
<trkpt lat="52.097772" lon="05.643946"><ele>39.4</ele><time>2022-04-13T12:54:48Z</time><name>PT5671</name></trkpt>
<trkpt lat="52.097778" lon="05.643932"><ele>39.6</ele><time>2022-04-13T12:54:49Z</time><name>PT5672</name></trkpt>
<trkpt lat="52.097781" lon="05.643921"><ele>39.4</ele><time>2022-04-13T12:54:50Z</time><name>PT5673</name></trkpt>
<trkpt lat="52.097781" lon="05.643917"><ele>39.4</ele><time>2022-04-13T12:54:51Z</time><name>PT5674</name></trkpt>
<trkpt lat="52.097782" lon="05.643915"><ele>39.4</ele><time>2022-04-13T12:54:52Z</time><name>PT5675</name></trkpt>
<trkpt lat="52.097784" lon="05.643916"><ele>39.3</ele><time>2022-04-13T12:54:53Z</time><name>PT5676</name></trkpt>
<trkpt lat="52.097786" lon="05.643915"><ele>39.2</ele><time>2022-04-13T12:54:54Z</time><name>PT5677</name></trkpt>
<trkpt lat="52.097782" lon="05.643903"><ele>39.4</ele><time>2022-04-13T12:55:09Z</time><name>PT5678</name></trkpt>
<trkpt lat="52.097772" lon="05.643890"><ele>39.3</ele><time>2022-04-13T12:55:10Z</time><name>PT5679</name></trkpt>
<trkpt lat="52.097763" lon="05.643875"><ele>39.4</ele><time>2022-04-13T12:55:11Z</time><name>PT5680</name></trkpt>
<trkpt lat="52.097759" lon="05.643862"><ele>39.5</ele><time>2022-04-13T12:55:12Z</time><name>PT5681</name></trkpt>
<trkpt lat="52.097751" lon="05.643850"><ele>39.3</ele><time>2022-04-13T12:55:13Z</time><name>PT5682</name></trkpt>
<trkpt lat="52.097743" lon="05.643834"><ele>39.3</ele><time>2022-04-13T12:55:14Z</time><name>PT5683</name></trkpt>
<trkpt lat="52.097736" lon="05.643817"><ele>39.3</ele><time>2022-04-13T12:55:15Z</time><name>PT5684</name></trkpt>
<trkpt lat="52.097726" lon="05.643802"><ele>39.1</ele><time>2022-04-13T12:55:16Z</time><name>PT5685</name></trkpt>
<trkpt lat="52.097718" lon="05.643787"><ele>39.1</ele><time>2022-04-13T12:55:17Z</time><name>PT5686</name></trkpt>
<trkpt lat="52.097710" lon="05.643775"><ele>39.2</ele><time>2022-04-13T12:55:18Z</time><name>PT5687</name></trkpt>
<trkpt lat="52.097704" lon="05.643764"><ele>39.1</ele><time>2022-04-13T12:55:19Z</time><name>PT5688</name></trkpt>
<trkpt lat="52.097698" lon="05.643749"><ele>39.1</ele><time>2022-04-13T12:55:20Z</time><name>PT5689</name></trkpt>
<trkpt lat="52.097689" lon="05.643737"><ele>38.9</ele><time>2022-04-13T12:55:21Z</time><name>PT5690</name></trkpt>
<trkpt lat="52.097683" lon="05.643726"><ele>38.8</ele><time>2022-04-13T12:55:22Z</time><name>PT5691</name></trkpt>
<trkpt lat="52.097679" lon="05.643716"><ele>38.8</ele><time>2022-04-13T12:55:23Z</time><name>PT5692</name></trkpt>
<trkpt lat="52.097669" lon="05.643702"><ele>38.9</ele><time>2022-04-13T12:55:24Z</time><name>PT5693</name></trkpt>
<trkpt lat="52.097660" lon="05.643688"><ele>38.8</ele><time>2022-04-13T12:55:25Z</time><name>PT5694</name></trkpt>
<trkpt lat="52.097649" lon="05.643673"><ele>38.7</ele><time>2022-04-13T12:55:26Z</time><name>PT5695</name></trkpt>
<trkpt lat="52.097643" lon="05.643660"><ele>38.7</ele><time>2022-04-13T12:55:27Z</time><name>PT5696</name></trkpt>
<trkpt lat="52.097639" lon="05.643640"><ele>38.5</ele><time>2022-04-13T12:55:28Z</time><name>PT5697</name></trkpt>
<trkpt lat="52.097632" lon="05.643620"><ele>38.6</ele><time>2022-04-13T12:55:29Z</time><name>PT5698</name></trkpt>
<trkpt lat="52.097625" lon="05.643602"><ele>38.6</ele><time>2022-04-13T12:55:30Z</time><name>PT5699</name></trkpt>
<trkpt lat="52.097619" lon="05.643585"><ele>38.5</ele><time>2022-04-13T12:55:31Z</time><name>PT5700</name></trkpt>
<trkpt lat="52.097610" lon="05.643565"><ele>38.4</ele><time>2022-04-13T12:55:32Z</time><name>PT5701</name></trkpt>
<trkpt lat="52.097602" lon="05.643548"><ele>38.3</ele><time>2022-04-13T12:55:33Z</time><name>PT5702</name></trkpt>
<trkpt lat="52.097596" lon="05.643532"><ele>38.3</ele><time>2022-04-13T12:55:34Z</time><name>PT5703</name></trkpt>
<trkpt lat="52.097589" lon="05.643516"><ele>38.2</ele><time>2022-04-13T12:55:35Z</time><name>PT5704</name></trkpt>
<trkpt lat="52.097585" lon="05.643499"><ele>38.2</ele><time>2022-04-13T12:55:36Z</time><name>PT5705</name></trkpt>
<trkpt lat="52.097578" lon="05.643486"><ele>38.3</ele><time>2022-04-13T12:55:37Z</time><name>PT5706</name></trkpt>
<trkpt lat="52.097570" lon="05.643472"><ele>38.1</ele><time>2022-04-13T12:55:38Z</time><name>PT5707</name></trkpt>
<trkpt lat="52.097563" lon="05.643457"><ele>38</ele><time>2022-04-13T12:55:39Z</time><name>PT5708</name></trkpt>
<trkpt lat="52.097555" lon="05.643445"><ele>38</ele><time>2022-04-13T12:55:40Z</time><name>PT5709</name></trkpt>
<trkpt lat="52.097550" lon="05.643431"><ele>38</ele><time>2022-04-13T12:55:41Z</time><name>PT5710</name></trkpt>
<trkpt lat="52.097545" lon="05.643417"><ele>37.9</ele><time>2022-04-13T12:55:42Z</time><name>PT5711</name></trkpt>
<trkpt lat="52.097538" lon="05.643403"><ele>37.9</ele><time>2022-04-13T12:55:43Z</time><name>PT5712</name></trkpt>
<trkpt lat="52.097531" lon="05.643390"><ele>37.6</ele><time>2022-04-13T12:55:44Z</time><name>PT5713</name></trkpt>
<trkpt lat="52.097525" lon="05.643377"><ele>37.5</ele><time>2022-04-13T12:55:45Z</time><name>PT5714</name></trkpt>
<trkpt lat="52.097515" lon="05.643364"><ele>37.5</ele><time>2022-04-13T12:55:46Z</time><name>PT5715</name></trkpt>
<trkpt lat="52.097507" lon="05.643352"><ele>37.6</ele><time>2022-04-13T12:55:47Z</time><name>PT5716</name></trkpt>
<trkpt lat="52.097500" lon="05.643340"><ele>38</ele><time>2022-04-13T12:55:48Z</time><name>PT5717</name></trkpt>
<trkpt lat="52.097491" lon="05.643328"><ele>38</ele><time>2022-04-13T12:55:49Z</time><name>PT5718</name></trkpt>
<trkpt lat="52.097485" lon="05.643311"><ele>38.2</ele><time>2022-04-13T12:55:50Z</time><name>PT5719</name></trkpt>
<trkpt lat="52.097476" lon="05.643298"><ele>38.3</ele><time>2022-04-13T12:55:51Z</time><name>PT5720</name></trkpt>
<trkpt lat="52.097465" lon="05.643289"><ele>38.4</ele><time>2022-04-13T12:55:52Z</time><name>PT5721</name></trkpt>
<trkpt lat="52.097453" lon="05.643281"><ele>38.4</ele><time>2022-04-13T12:55:53Z</time><name>PT5722</name></trkpt>
<trkpt lat="52.097444" lon="05.643274"><ele>38.4</ele><time>2022-04-13T12:55:54Z</time><name>PT5723</name></trkpt>
<trkpt lat="52.097434" lon="05.643267"><ele>38.2</ele><time>2022-04-13T12:55:55Z</time><name>PT5724</name></trkpt>
<trkpt lat="52.097424" lon="05.643258"><ele>38</ele><time>2022-04-13T12:55:56Z</time><name>PT5725</name></trkpt>
<trkpt lat="52.097414" lon="05.643248"><ele>37.9</ele><time>2022-04-13T12:55:57Z</time><name>PT5726</name></trkpt>
<trkpt lat="52.097400" lon="05.643239"><ele>37.8</ele><time>2022-04-13T12:55:58Z</time><name>PT5727</name></trkpt>
<trkpt lat="52.097387" lon="05.643234"><ele>37.7</ele><time>2022-04-13T12:55:59Z</time><name>PT5728</name></trkpt>
<trkpt lat="52.097376" lon="05.643230"><ele>37.8</ele><time>2022-04-13T12:56:00Z</time><name>PT5729</name></trkpt>
<trkpt lat="52.097364" lon="05.643227"><ele>37.8</ele><time>2022-04-13T12:56:01Z</time><name>PT5730</name></trkpt>
<trkpt lat="52.097352" lon="05.643223"><ele>38</ele><time>2022-04-13T12:56:02Z</time><name>PT5731</name></trkpt>
<trkpt lat="52.097339" lon="05.643218"><ele>38</ele><time>2022-04-13T12:56:03Z</time><name>PT5732</name></trkpt>
<trkpt lat="52.097329" lon="05.643215"><ele>38</ele><time>2022-04-13T12:56:04Z</time><name>PT5733</name></trkpt>
<trkpt lat="52.097319" lon="05.643214"><ele>37.9</ele><time>2022-04-13T12:56:05Z</time><name>PT5734</name></trkpt>
<trkpt lat="52.097307" lon="05.643214"><ele>38</ele><time>2022-04-13T12:56:06Z</time><name>PT5735</name></trkpt>
<trkpt lat="52.097295" lon="05.643214"><ele>38.2</ele><time>2022-04-13T12:56:07Z</time><name>PT5736</name></trkpt>
<trkpt lat="52.097284" lon="05.643215"><ele>38.1</ele><time>2022-04-13T12:56:08Z</time><name>PT5737</name></trkpt>
<trkpt lat="52.097272" lon="05.643215"><ele>38.2</ele><time>2022-04-13T12:56:09Z</time><name>PT5738</name></trkpt>
<trkpt lat="52.097262" lon="05.643216"><ele>38.1</ele><time>2022-04-13T12:56:10Z</time><name>PT5739</name></trkpt>
<trkpt lat="52.097252" lon="05.643215"><ele>38</ele><time>2022-04-13T12:56:11Z</time><name>PT5740</name></trkpt>
<trkpt lat="52.097242" lon="05.643216"><ele>38</ele><time>2022-04-13T12:56:12Z</time><name>PT5741</name></trkpt>
<trkpt lat="52.097233" lon="05.643218"><ele>38.1</ele><time>2022-04-13T12:56:13Z</time><name>PT5742</name></trkpt>
<trkpt lat="52.097224" lon="05.643219"><ele>38</ele><time>2022-04-13T12:56:14Z</time><name>PT5743</name></trkpt>
<trkpt lat="52.097213" lon="05.643220"><ele>38</ele><time>2022-04-13T12:56:15Z</time><name>PT5744</name></trkpt>
<trkpt lat="52.097202" lon="05.643224"><ele>38</ele><time>2022-04-13T12:56:16Z</time><name>PT5745</name></trkpt>
<trkpt lat="52.097192" lon="05.643230"><ele>38</ele><time>2022-04-13T12:56:17Z</time><name>PT5746</name></trkpt>
<trkpt lat="52.097185" lon="05.643236"><ele>38</ele><time>2022-04-13T12:56:18Z</time><name>PT5747</name></trkpt>
<trkpt lat="52.097176" lon="05.643240"><ele>38</ele><time>2022-04-13T12:56:19Z</time><name>PT5748</name></trkpt>
<trkpt lat="52.097171" lon="05.643251"><ele>38</ele><time>2022-04-13T12:56:20Z</time><name>PT5749</name></trkpt>
<trkpt lat="52.097163" lon="05.643258"><ele>38</ele><time>2022-04-13T12:56:21Z</time><name>PT5750</name></trkpt>
<trkpt lat="52.097159" lon="05.643271"><ele>38</ele><time>2022-04-13T12:56:22Z</time><name>PT5751</name></trkpt>
<trkpt lat="52.097151" lon="05.643281"><ele>38.3</ele><time>2022-04-13T12:56:23Z</time><name>PT5752</name></trkpt>
<trkpt lat="52.097144" lon="05.643287"><ele>38.2</ele><time>2022-04-13T12:56:24Z</time><name>PT5753</name></trkpt>
<trkpt lat="52.097133" lon="05.643300"><ele>38</ele><time>2022-04-13T12:56:25Z</time><name>PT5754</name></trkpt>
<trkpt lat="52.097134" lon="05.643309"><ele>38.1</ele><time>2022-04-13T12:56:26Z</time><name>PT5755</name></trkpt>
<trkpt lat="52.097128" lon="05.643313"><ele>37.9</ele><time>2022-04-13T12:56:27Z</time><name>PT5756</name></trkpt>
<trkpt lat="52.097116" lon="05.643317"><ele>37.9</ele><time>2022-04-13T12:56:28Z</time><name>PT5757</name></trkpt>
<trkpt lat="52.097105" lon="05.643323"><ele>37.9</ele><time>2022-04-13T12:56:29Z</time><name>PT5758</name></trkpt>
<trkpt lat="52.097095" lon="05.643331"><ele>37.6</ele><time>2022-04-13T12:56:30Z</time><name>PT5759</name></trkpt>
<trkpt lat="52.097084" lon="05.643339"><ele>37.7</ele><time>2022-04-13T12:56:31Z</time><name>PT5760</name></trkpt>
<trkpt lat="52.097074" lon="05.643344"><ele>37.6</ele><time>2022-04-13T12:56:32Z</time><name>PT5761</name></trkpt>
<trkpt lat="52.097061" lon="05.643347"><ele>37.7</ele><time>2022-04-13T12:56:33Z</time><name>PT5762</name></trkpt>
<trkpt lat="52.097050" lon="05.643350"><ele>37.8</ele><time>2022-04-13T12:56:34Z</time><name>PT5763</name></trkpt>
<trkpt lat="52.097038" lon="05.643356"><ele>38</ele><time>2022-04-13T12:56:35Z</time><name>PT5764</name></trkpt>
<trkpt lat="52.097027" lon="05.643364"><ele>38.3</ele><time>2022-04-13T12:56:36Z</time><name>PT5765</name></trkpt>
<trkpt lat="52.097018" lon="05.643372"><ele>38.4</ele><time>2022-04-13T12:56:37Z</time><name>PT5766</name></trkpt>
<trkpt lat="52.097006" lon="05.643382"><ele>38.7</ele><time>2022-04-13T12:56:38Z</time><name>PT5767</name></trkpt>
<trkpt lat="52.096995" lon="05.643391"><ele>38.7</ele><time>2022-04-13T12:56:39Z</time><name>PT5768</name></trkpt>
<trkpt lat="52.096985" lon="05.643398"><ele>38.8</ele><time>2022-04-13T12:56:40Z</time><name>PT5769</name></trkpt>
<trkpt lat="52.096975" lon="05.643404"><ele>38.6</ele><time>2022-04-13T12:56:41Z</time><name>PT5770</name></trkpt>
<trkpt lat="52.096963" lon="05.643410"><ele>38.4</ele><time>2022-04-13T12:56:42Z</time><name>PT5771</name></trkpt>
<trkpt lat="52.096953" lon="05.643414"><ele>38.5</ele><time>2022-04-13T12:56:43Z</time><name>PT5772</name></trkpt>
<trkpt lat="52.096943" lon="05.643422"><ele>38.6</ele><time>2022-04-13T12:56:44Z</time><name>PT5773</name></trkpt>
<trkpt lat="52.096934" lon="05.643429"><ele>38.6</ele><time>2022-04-13T12:56:45Z</time><name>PT5774</name></trkpt>
<trkpt lat="52.096925" lon="05.643439"><ele>38.6</ele><time>2022-04-13T12:56:46Z</time><name>PT5775</name></trkpt>
<trkpt lat="52.096917" lon="05.643444"><ele>38.5</ele><time>2022-04-13T12:56:47Z</time><name>PT5776</name></trkpt>
<trkpt lat="52.096904" lon="05.643449"><ele>38.3</ele><time>2022-04-13T12:56:48Z</time><name>PT5777</name></trkpt>
<trkpt lat="52.096893" lon="05.643458"><ele>38.3</ele><time>2022-04-13T12:56:49Z</time><name>PT5778</name></trkpt>
<trkpt lat="52.096884" lon="05.643465"><ele>38.2</ele><time>2022-04-13T12:56:50Z</time><name>PT5779</name></trkpt>
<trkpt lat="52.096875" lon="05.643475"><ele>38.2</ele><time>2022-04-13T12:56:51Z</time><name>PT5780</name></trkpt>
<trkpt lat="52.096866" lon="05.643483"><ele>38.2</ele><time>2022-04-13T12:56:52Z</time><name>PT5781</name></trkpt>
<trkpt lat="52.096856" lon="05.643489"><ele>38.2</ele><time>2022-04-13T12:56:53Z</time><name>PT5782</name></trkpt>
<trkpt lat="52.096847" lon="05.643496"><ele>38.3</ele><time>2022-04-13T12:56:54Z</time><name>PT5783</name></trkpt>
<trkpt lat="52.096836" lon="05.643501"><ele>38.2</ele><time>2022-04-13T12:56:55Z</time><name>PT5784</name></trkpt>
<trkpt lat="52.096825" lon="05.643509"><ele>38.3</ele><time>2022-04-13T12:56:56Z</time><name>PT5785</name></trkpt>
<trkpt lat="52.096814" lon="05.643518"><ele>38.4</ele><time>2022-04-13T12:56:57Z</time><name>PT5786</name></trkpt>
<trkpt lat="52.096805" lon="05.643526"><ele>38.4</ele><time>2022-04-13T12:56:58Z</time><name>PT5787</name></trkpt>
<trkpt lat="52.096796" lon="05.643533"><ele>38.4</ele><time>2022-04-13T12:56:59Z</time><name>PT5788</name></trkpt>
<trkpt lat="52.096786" lon="05.643540"><ele>38.4</ele><time>2022-04-13T12:57:00Z</time><name>PT5789</name></trkpt>
<trkpt lat="52.096776" lon="05.643545"><ele>38.6</ele><time>2022-04-13T12:57:01Z</time><name>PT5790</name></trkpt>
<trkpt lat="52.096767" lon="05.643554"><ele>38.6</ele><time>2022-04-13T12:57:02Z</time><name>PT5791</name></trkpt>
<trkpt lat="52.096760" lon="05.643564"><ele>38.5</ele><time>2022-04-13T12:57:03Z</time><name>PT5792</name></trkpt>
<trkpt lat="52.096753" lon="05.643574"><ele>38.4</ele><time>2022-04-13T12:57:04Z</time><name>PT5793</name></trkpt>
<trkpt lat="52.096747" lon="05.643583"><ele>38.4</ele><time>2022-04-13T12:57:05Z</time><name>PT5794</name></trkpt>
<trkpt lat="52.096740" lon="05.643589"><ele>38.4</ele><time>2022-04-13T12:57:06Z</time><name>PT5795</name></trkpt>
<trkpt lat="52.096731" lon="05.643597"><ele>38.5</ele><time>2022-04-13T12:57:07Z</time><name>PT5796</name></trkpt>
<trkpt lat="52.096721" lon="05.643606"><ele>38.6</ele><time>2022-04-13T12:57:08Z</time><name>PT5797</name></trkpt>
<trkpt lat="52.096711" lon="05.643615"><ele>38.6</ele><time>2022-04-13T12:57:09Z</time><name>PT5798</name></trkpt>
<trkpt lat="52.096697" lon="05.643624"><ele>39</ele><time>2022-04-13T12:57:10Z</time><name>PT5799</name></trkpt>
<trkpt lat="52.096688" lon="05.643629"><ele>39.2</ele><time>2022-04-13T12:57:11Z</time><name>PT5800</name></trkpt>
<trkpt lat="52.096680" lon="05.643635"><ele>39.4</ele><time>2022-04-13T12:57:12Z</time><name>PT5801</name></trkpt>
<trkpt lat="52.096672" lon="05.643642"><ele>39.9</ele><time>2022-04-13T12:57:13Z</time><name>PT5802</name></trkpt>
<trkpt lat="52.096664" lon="05.643649"><ele>39.9</ele><time>2022-04-13T12:57:14Z</time><name>PT5803</name></trkpt>
<trkpt lat="52.096658" lon="05.643659"><ele>40</ele><time>2022-04-13T12:57:15Z</time><name>PT5804</name></trkpt>
<trkpt lat="52.096652" lon="05.643667"><ele>40</ele><time>2022-04-13T12:57:16Z</time><name>PT5805</name></trkpt>
<trkpt lat="52.096640" lon="05.643673"><ele>39.8</ele><time>2022-04-13T12:57:17Z</time><name>PT5806</name></trkpt>
<trkpt lat="52.096630" lon="05.643681"><ele>39.5</ele><time>2022-04-13T12:57:18Z</time><name>PT5807</name></trkpt>
<trkpt lat="52.096620" lon="05.643691"><ele>39.6</ele><time>2022-04-13T12:57:19Z</time><name>PT5808</name></trkpt>
<trkpt lat="52.096610" lon="05.643699"><ele>39.5</ele><time>2022-04-13T12:57:20Z</time><name>PT5809</name></trkpt>
<trkpt lat="52.096600" lon="05.643702"><ele>39.6</ele><time>2022-04-13T12:57:21Z</time><name>PT5810</name></trkpt>
<trkpt lat="52.096586" lon="05.643708"><ele>39.9</ele><time>2022-04-13T12:57:22Z</time><name>PT5811</name></trkpt>
<trkpt lat="52.096576" lon="05.643715"><ele>40.2</ele><time>2022-04-13T12:57:23Z</time><name>PT5812</name></trkpt>
<trkpt lat="52.096567" lon="05.643723"><ele>40.3</ele><time>2022-04-13T12:57:24Z</time><name>PT5813</name></trkpt>
<trkpt lat="52.096559" lon="05.643730"><ele>40.1</ele><time>2022-04-13T12:57:25Z</time><name>PT5814</name></trkpt>
<trkpt lat="52.096550" lon="05.643740"><ele>40.1</ele><time>2022-04-13T12:57:26Z</time><name>PT5815</name></trkpt>
<trkpt lat="52.096541" lon="05.643751"><ele>40</ele><time>2022-04-13T12:57:27Z</time><name>PT5816</name></trkpt>
<trkpt lat="52.096531" lon="05.643764"><ele>40.1</ele><time>2022-04-13T12:57:28Z</time><name>PT5817</name></trkpt>
<trkpt lat="52.096522" lon="05.643773"><ele>40.3</ele><time>2022-04-13T12:57:29Z</time><name>PT5818</name></trkpt>
<trkpt lat="52.096513" lon="05.643780"><ele>40.6</ele><time>2022-04-13T12:57:30Z</time><name>PT5819</name></trkpt>
<trkpt lat="52.096503" lon="05.643788"><ele>40.7</ele><time>2022-04-13T12:57:31Z</time><name>PT5820</name></trkpt>
<trkpt lat="52.096492" lon="05.643797"><ele>40.8</ele><time>2022-04-13T12:57:32Z</time><name>PT5821</name></trkpt>
<trkpt lat="52.096482" lon="05.643807"><ele>40.8</ele><time>2022-04-13T12:57:33Z</time><name>PT5822</name></trkpt>
<trkpt lat="52.096474" lon="05.643819"><ele>40.7</ele><time>2022-04-13T12:57:34Z</time><name>PT5823</name></trkpt>
<trkpt lat="52.096464" lon="05.643830"><ele>40.6</ele><time>2022-04-13T12:57:35Z</time><name>PT5824</name></trkpt>
<trkpt lat="52.096451" lon="05.643838"><ele>40.5</ele><time>2022-04-13T12:57:36Z</time><name>PT5825</name></trkpt>
<trkpt lat="52.096441" lon="05.643849"><ele>40.4</ele><time>2022-04-13T12:57:37Z</time><name>PT5826</name></trkpt>
<trkpt lat="52.096433" lon="05.643861"><ele>40.3</ele><time>2022-04-13T12:57:38Z</time><name>PT5827</name></trkpt>
<trkpt lat="52.096423" lon="05.643871"><ele>40.1</ele><time>2022-04-13T12:57:39Z</time><name>PT5828</name></trkpt>
<trkpt lat="52.096412" lon="05.643882"><ele>40.1</ele><time>2022-04-13T12:57:40Z</time><name>PT5829</name></trkpt>
<trkpt lat="52.096401" lon="05.643894"><ele>40.2</ele><time>2022-04-13T12:57:41Z</time><name>PT5830</name></trkpt>
<trkpt lat="52.096393" lon="05.643905"><ele>40.1</ele><time>2022-04-13T12:57:42Z</time><name>PT5831</name></trkpt>
<trkpt lat="52.096385" lon="05.643916"><ele>40.2</ele><time>2022-04-13T12:57:43Z</time><name>PT5832</name></trkpt>
<trkpt lat="52.096374" lon="05.643929"><ele>40.1</ele><time>2022-04-13T12:57:44Z</time><name>PT5833</name></trkpt>
<trkpt lat="52.096366" lon="05.643940"><ele>40.2</ele><time>2022-04-13T12:57:45Z</time><name>PT5834</name></trkpt>
<trkpt lat="52.096357" lon="05.643950"><ele>40.3</ele><time>2022-04-13T12:57:46Z</time><name>PT5835</name></trkpt>
<trkpt lat="52.096346" lon="05.643961"><ele>40.4</ele><time>2022-04-13T12:57:47Z</time><name>PT5836</name></trkpt>
<trkpt lat="52.096335" lon="05.643971"><ele>40.5</ele><time>2022-04-13T12:57:48Z</time><name>PT5837</name></trkpt>
<trkpt lat="52.096325" lon="05.643979"><ele>40.5</ele><time>2022-04-13T12:57:49Z</time><name>PT5838</name></trkpt>
<trkpt lat="52.096315" lon="05.643988"><ele>40.5</ele><time>2022-04-13T12:57:50Z</time><name>PT5839</name></trkpt>
<trkpt lat="52.096308" lon="05.644000"><ele>40.6</ele><time>2022-04-13T12:57:51Z</time><name>PT5840</name></trkpt>
<trkpt lat="52.096298" lon="05.644011"><ele>40.8</ele><time>2022-04-13T12:57:52Z</time><name>PT5841</name></trkpt>
<trkpt lat="52.096290" lon="05.644021"><ele>40.6</ele><time>2022-04-13T12:57:53Z</time><name>PT5842</name></trkpt>
<trkpt lat="52.096281" lon="05.644028"><ele>40.6</ele><time>2022-04-13T12:57:54Z</time><name>PT5843</name></trkpt>
<trkpt lat="52.096270" lon="05.644037"><ele>40.5</ele><time>2022-04-13T12:57:55Z</time><name>PT5844</name></trkpt>
<trkpt lat="52.096259" lon="05.644045"><ele>40.4</ele><time>2022-04-13T12:57:56Z</time><name>PT5845</name></trkpt>
<trkpt lat="52.096248" lon="05.644054"><ele>40.4</ele><time>2022-04-13T12:57:57Z</time><name>PT5846</name></trkpt>
<trkpt lat="52.096237" lon="05.644063"><ele>40.4</ele><time>2022-04-13T12:57:58Z</time><name>PT5847</name></trkpt>
<trkpt lat="52.096227" lon="05.644074"><ele>40.4</ele><time>2022-04-13T12:57:59Z</time><name>PT5848</name></trkpt>
<trkpt lat="52.096216" lon="05.644085"><ele>40.3</ele><time>2022-04-13T12:58:00Z</time><name>PT5849</name></trkpt>
<trkpt lat="52.096205" lon="05.644092"><ele>40.3</ele><time>2022-04-13T12:58:01Z</time><name>PT5850</name></trkpt>
<trkpt lat="52.096196" lon="05.644099"><ele>40.4</ele><time>2022-04-13T12:58:02Z</time><name>PT5851</name></trkpt>
<trkpt lat="52.096184" lon="05.644109"><ele>40.6</ele><time>2022-04-13T12:58:03Z</time><name>PT5852</name></trkpt>
<trkpt lat="52.096173" lon="05.644117"><ele>40.7</ele><time>2022-04-13T12:58:04Z</time><name>PT5853</name></trkpt>
<trkpt lat="52.096162" lon="05.644125"><ele>40.5</ele><time>2022-04-13T12:58:05Z</time><name>PT5854</name></trkpt>
<trkpt lat="52.096151" lon="05.644135"><ele>40.4</ele><time>2022-04-13T12:58:06Z</time><name>PT5855</name></trkpt>
<trkpt lat="52.096141" lon="05.644143"><ele>40.4</ele><time>2022-04-13T12:58:07Z</time><name>PT5856</name></trkpt>
<trkpt lat="52.096131" lon="05.644150"><ele>40.4</ele><time>2022-04-13T12:58:08Z</time><name>PT5857</name></trkpt>
<trkpt lat="52.096121" lon="05.644157"><ele>40.5</ele><time>2022-04-13T12:58:09Z</time><name>PT5858</name></trkpt>
<trkpt lat="52.096108" lon="05.644164"><ele>40.6</ele><time>2022-04-13T12:58:10Z</time><name>PT5859</name></trkpt>
<trkpt lat="52.096099" lon="05.644168"><ele>40.4</ele><time>2022-04-13T12:58:11Z</time><name>PT5860</name></trkpt>
<trkpt lat="52.096090" lon="05.644172"><ele>40.6</ele><time>2022-04-13T12:58:12Z</time><name>PT5861</name></trkpt>
<trkpt lat="52.096083" lon="05.644180"><ele>40.5</ele><time>2022-04-13T12:58:13Z</time><name>PT5862</name></trkpt>
<trkpt lat="52.096073" lon="05.644190"><ele>40.4</ele><time>2022-04-13T12:58:14Z</time><name>PT5863</name></trkpt>
<trkpt lat="52.096065" lon="05.644198"><ele>40.5</ele><time>2022-04-13T12:58:15Z</time><name>PT5864</name></trkpt>
<trkpt lat="52.096055" lon="05.644205"><ele>40.3</ele><time>2022-04-13T12:58:16Z</time><name>PT5865</name></trkpt>
<trkpt lat="52.096044" lon="05.644210"><ele>40.3</ele><time>2022-04-13T12:58:17Z</time><name>PT5866</name></trkpt>
<trkpt lat="52.096036" lon="05.644220"><ele>40.4</ele><time>2022-04-13T12:58:18Z</time><name>PT5867</name></trkpt>
<trkpt lat="52.096027" lon="05.644230"><ele>40.4</ele><time>2022-04-13T12:58:19Z</time><name>PT5868</name></trkpt>
<trkpt lat="52.096019" lon="05.644242"><ele>40.4</ele><time>2022-04-13T12:58:20Z</time><name>PT5869</name></trkpt>
<trkpt lat="52.096008" lon="05.644250"><ele>40.6</ele><time>2022-04-13T12:58:21Z</time><name>PT5870</name></trkpt>
<trkpt lat="52.095996" lon="05.644256"><ele>40.5</ele><time>2022-04-13T12:58:22Z</time><name>PT5871</name></trkpt>
<trkpt lat="52.095986" lon="05.644261"><ele>40.5</ele><time>2022-04-13T12:58:23Z</time><name>PT5872</name></trkpt>
<trkpt lat="52.095974" lon="05.644269"><ele>40.6</ele><time>2022-04-13T12:58:24Z</time><name>PT5873</name></trkpt>
<trkpt lat="52.095962" lon="05.644279"><ele>40.7</ele><time>2022-04-13T12:58:25Z</time><name>PT5874</name></trkpt>
<trkpt lat="52.095950" lon="05.644292"><ele>40.5</ele><time>2022-04-13T12:58:26Z</time><name>PT5875</name></trkpt>
<trkpt lat="52.095940" lon="05.644305"><ele>40.4</ele><time>2022-04-13T12:58:27Z</time><name>PT5876</name></trkpt>
<trkpt lat="52.095930" lon="05.644315"><ele>40.4</ele><time>2022-04-13T12:58:28Z</time><name>PT5877</name></trkpt>
<trkpt lat="52.095919" lon="05.644324"><ele>40.4</ele><time>2022-04-13T12:58:29Z</time><name>PT5878</name></trkpt>
<trkpt lat="52.095909" lon="05.644328"><ele>40.4</ele><time>2022-04-13T12:58:30Z</time><name>PT5879</name></trkpt>
<trkpt lat="52.095897" lon="05.644333"><ele>40.4</ele><time>2022-04-13T12:58:31Z</time><name>PT5880</name></trkpt>
<trkpt lat="52.095887" lon="05.644340"><ele>40.4</ele><time>2022-04-13T12:58:32Z</time><name>PT5881</name></trkpt>
<trkpt lat="52.095878" lon="05.644351"><ele>40.5</ele><time>2022-04-13T12:58:33Z</time><name>PT5882</name></trkpt>
<trkpt lat="52.095867" lon="05.644361"><ele>40.6</ele><time>2022-04-13T12:58:34Z</time><name>PT5883</name></trkpt>
<trkpt lat="52.095856" lon="05.644369"><ele>40.7</ele><time>2022-04-13T12:58:35Z</time><name>PT5884</name></trkpt>
<trkpt lat="52.095847" lon="05.644377"><ele>40.8</ele><time>2022-04-13T12:58:36Z</time><name>PT5885</name></trkpt>
<trkpt lat="52.095838" lon="05.644383"><ele>40.7</ele><time>2022-04-13T12:58:37Z</time><name>PT5886</name></trkpt>
<trkpt lat="52.095826" lon="05.644390"><ele>40.6</ele><time>2022-04-13T12:58:38Z</time><name>PT5887</name></trkpt>
<trkpt lat="52.095815" lon="05.644395"><ele>40.9</ele><time>2022-04-13T12:58:39Z</time><name>PT5888</name></trkpt>
<trkpt lat="52.095803" lon="05.644401"><ele>40.9</ele><time>2022-04-13T12:58:40Z</time><name>PT5889</name></trkpt>
<trkpt lat="52.095794" lon="05.644406"><ele>40.9</ele><time>2022-04-13T12:58:41Z</time><name>PT5890</name></trkpt>
<trkpt lat="52.095783" lon="05.644414"><ele>41</ele><time>2022-04-13T12:58:42Z</time><name>PT5891</name></trkpt>
<trkpt lat="52.095775" lon="05.644423"><ele>40.9</ele><time>2022-04-13T12:58:43Z</time><name>PT5892</name></trkpt>
<trkpt lat="52.095764" lon="05.644433"><ele>40.9</ele><time>2022-04-13T12:58:44Z</time><name>PT5893</name></trkpt>
<trkpt lat="52.095754" lon="05.644442"><ele>40.9</ele><time>2022-04-13T12:58:45Z</time><name>PT5894</name></trkpt>
<trkpt lat="52.095743" lon="05.644449"><ele>40.9</ele><time>2022-04-13T12:58:46Z</time><name>PT5895</name></trkpt>
<trkpt lat="52.095733" lon="05.644454"><ele>41</ele><time>2022-04-13T12:58:47Z</time><name>PT5896</name></trkpt>
<trkpt lat="52.095722" lon="05.644462"><ele>41.1</ele><time>2022-04-13T12:58:48Z</time><name>PT5897</name></trkpt>
<trkpt lat="52.095713" lon="05.644471"><ele>41.3</ele><time>2022-04-13T12:58:49Z</time><name>PT5898</name></trkpt>
<trkpt lat="52.095704" lon="05.644480"><ele>41.3</ele><time>2022-04-13T12:58:50Z</time><name>PT5899</name></trkpt>
<trkpt lat="52.095695" lon="05.644492"><ele>41.5</ele><time>2022-04-13T12:58:51Z</time><name>PT5900</name></trkpt>
<trkpt lat="52.095683" lon="05.644501"><ele>41.6</ele><time>2022-04-13T12:58:52Z</time><name>PT5901</name></trkpt>
<trkpt lat="52.095674" lon="05.644509"><ele>41.6</ele><time>2022-04-13T12:58:53Z</time><name>PT5902</name></trkpt>
<trkpt lat="52.095666" lon="05.644517"><ele>41.7</ele><time>2022-04-13T12:58:54Z</time><name>PT5903</name></trkpt>
<trkpt lat="52.095656" lon="05.644525"><ele>41.7</ele><time>2022-04-13T12:58:55Z</time><name>PT5904</name></trkpt>
<trkpt lat="52.095643" lon="05.644535"><ele>41.7</ele><time>2022-04-13T12:58:56Z</time><name>PT5905</name></trkpt>
<trkpt lat="52.095632" lon="05.644545"><ele>41.7</ele><time>2022-04-13T12:58:57Z</time><name>PT5906</name></trkpt>
<trkpt lat="52.095622" lon="05.644556"><ele>41.5</ele><time>2022-04-13T12:58:58Z</time><name>PT5907</name></trkpt>
<trkpt lat="52.095615" lon="05.644564"><ele>41.7</ele><time>2022-04-13T12:58:59Z</time><name>PT5908</name></trkpt>
<trkpt lat="52.095607" lon="05.644571"><ele>41.8</ele><time>2022-04-13T12:59:00Z</time><name>PT5909</name></trkpt>
<trkpt lat="52.095596" lon="05.644580"><ele>41.8</ele><time>2022-04-13T12:59:01Z</time><name>PT5910</name></trkpt>
<trkpt lat="52.095589" lon="05.644591"><ele>42</ele><time>2022-04-13T12:59:02Z</time><name>PT5911</name></trkpt>
<trkpt lat="52.095581" lon="05.644603"><ele>42</ele><time>2022-04-13T12:59:03Z</time><name>PT5912</name></trkpt>
<trkpt lat="52.095571" lon="05.644615"><ele>42</ele><time>2022-04-13T12:59:04Z</time><name>PT5913</name></trkpt>
<trkpt lat="52.095564" lon="05.644625"><ele>42</ele><time>2022-04-13T12:59:05Z</time><name>PT5914</name></trkpt>
<trkpt lat="52.095553" lon="05.644635"><ele>41.9</ele><time>2022-04-13T12:59:06Z</time><name>PT5915</name></trkpt>
<trkpt lat="52.095542" lon="05.644644"><ele>42</ele><time>2022-04-13T12:59:07Z</time><name>PT5916</name></trkpt>
<trkpt lat="52.095532" lon="05.644653"><ele>42</ele><time>2022-04-13T12:59:08Z</time><name>PT5917</name></trkpt>
<trkpt lat="52.095524" lon="05.644663"><ele>42</ele><time>2022-04-13T12:59:09Z</time><name>PT5918</name></trkpt>
<trkpt lat="52.095516" lon="05.644674"><ele>42.2</ele><time>2022-04-13T12:59:10Z</time><name>PT5919</name></trkpt>
<trkpt lat="52.095508" lon="05.644686"><ele>42.1</ele><time>2022-04-13T12:59:11Z</time><name>PT5920</name></trkpt>
<trkpt lat="52.095504" lon="05.644701"><ele>42.2</ele><time>2022-04-13T12:59:12Z</time><name>PT5921</name></trkpt>
<trkpt lat="52.095496" lon="05.644711"><ele>42.3</ele><time>2022-04-13T12:59:13Z</time><name>PT5922</name></trkpt>
<trkpt lat="52.095485" lon="05.644721"><ele>42.2</ele><time>2022-04-13T12:59:14Z</time><name>PT5923</name></trkpt>
<trkpt lat="52.095472" lon="05.644729"><ele>42.3</ele><time>2022-04-13T12:59:15Z</time><name>PT5924</name></trkpt>
<trkpt lat="52.095460" lon="05.644738"><ele>42.3</ele><time>2022-04-13T12:59:16Z</time><name>PT5925</name></trkpt>
<trkpt lat="52.095453" lon="05.644749"><ele>42.3</ele><time>2022-04-13T12:59:17Z</time><name>PT5926</name></trkpt>
<trkpt lat="52.095441" lon="05.644755"><ele>42.3</ele><time>2022-04-13T12:59:18Z</time><name>PT5927</name></trkpt>
<trkpt lat="52.095432" lon="05.644765"><ele>42.5</ele><time>2022-04-13T12:59:19Z</time><name>PT5928</name></trkpt>
<trkpt lat="52.095425" lon="05.644779"><ele>42.7</ele><time>2022-04-13T12:59:20Z</time><name>PT5929</name></trkpt>
<trkpt lat="52.095416" lon="05.644788"><ele>42.5</ele><time>2022-04-13T12:59:21Z</time><name>PT5930</name></trkpt>
<trkpt lat="52.095407" lon="05.644797"><ele>42.5</ele><time>2022-04-13T12:59:22Z</time><name>PT5931</name></trkpt>
<trkpt lat="52.095400" lon="05.644808"><ele>42.6</ele><time>2022-04-13T12:59:23Z</time><name>PT5932</name></trkpt>
<trkpt lat="52.095394" lon="05.644821"><ele>42.3</ele><time>2022-04-13T12:59:24Z</time><name>PT5933</name></trkpt>
<trkpt lat="52.095387" lon="05.644833"><ele>42.3</ele><time>2022-04-13T12:59:25Z</time><name>PT5934</name></trkpt>
<trkpt lat="52.095375" lon="05.644844"><ele>42.5</ele><time>2022-04-13T12:59:26Z</time><name>PT5935</name></trkpt>
<trkpt lat="52.095367" lon="05.644855"><ele>42.8</ele><time>2022-04-13T12:59:27Z</time><name>PT5936</name></trkpt>
<trkpt lat="52.095358" lon="05.644863"><ele>42.8</ele><time>2022-04-13T12:59:28Z</time><name>PT5937</name></trkpt>
<trkpt lat="52.095349" lon="05.644870"><ele>43</ele><time>2022-04-13T12:59:29Z</time><name>PT5938</name></trkpt>
<trkpt lat="52.095339" lon="05.644878"><ele>42.8</ele><time>2022-04-13T12:59:30Z</time><name>PT5939</name></trkpt>
<trkpt lat="52.095331" lon="05.644886"><ele>42.8</ele><time>2022-04-13T12:59:31Z</time><name>PT5940</name></trkpt>
<trkpt lat="52.095323" lon="05.644893"><ele>42.8</ele><time>2022-04-13T12:59:32Z</time><name>PT5941</name></trkpt>
<trkpt lat="52.095314" lon="05.644903"><ele>42.8</ele><time>2022-04-13T12:59:33Z</time><name>PT5942</name></trkpt>
<trkpt lat="52.095305" lon="05.644911"><ele>42.9</ele><time>2022-04-13T12:59:34Z</time><name>PT5943</name></trkpt>
<trkpt lat="52.095296" lon="05.644920"><ele>42.9</ele><time>2022-04-13T12:59:35Z</time><name>PT5944</name></trkpt>
<trkpt lat="52.095283" lon="05.644926"><ele>42.9</ele><time>2022-04-13T12:59:36Z</time><name>PT5945</name></trkpt>
<trkpt lat="52.095276" lon="05.644934"><ele>43</ele><time>2022-04-13T12:59:37Z</time><name>PT5946</name></trkpt>
<trkpt lat="52.095267" lon="05.644942"><ele>43.1</ele><time>2022-04-13T12:59:38Z</time><name>PT5947</name></trkpt>
<trkpt lat="52.095261" lon="05.644948"><ele>43.1</ele><time>2022-04-13T12:59:39Z</time><name>PT5948</name></trkpt>
<trkpt lat="52.095254" lon="05.644954"><ele>43</ele><time>2022-04-13T12:59:40Z</time><name>PT5949</name></trkpt>
<trkpt lat="52.095244" lon="05.644958"><ele>43</ele><time>2022-04-13T12:59:41Z</time><name>PT5950</name></trkpt>
<trkpt lat="52.095236" lon="05.644962"><ele>42.9</ele><time>2022-04-13T12:59:42Z</time><name>PT5951</name></trkpt>
<trkpt lat="52.095224" lon="05.644968"><ele>43</ele><time>2022-04-13T12:59:43Z</time><name>PT5952</name></trkpt>
<trkpt lat="52.095215" lon="05.644979"><ele>43.1</ele><time>2022-04-13T12:59:44Z</time><name>PT5953</name></trkpt>
<trkpt lat="52.095210" lon="05.644989"><ele>43.2</ele><time>2022-04-13T12:59:45Z</time><name>PT5954</name></trkpt>
<trkpt lat="52.095199" lon="05.645002"><ele>42.9</ele><time>2022-04-13T12:59:46Z</time><name>PT5955</name></trkpt>
<trkpt lat="52.095184" lon="05.645015"><ele>42.9</ele><time>2022-04-13T12:59:47Z</time><name>PT5956</name></trkpt>
<trkpt lat="52.095175" lon="05.645024"><ele>42.9</ele><time>2022-04-13T12:59:48Z</time><name>PT5957</name></trkpt>
<trkpt lat="52.095166" lon="05.645032"><ele>43.1</ele><time>2022-04-13T12:59:49Z</time><name>PT5958</name></trkpt>
<trkpt lat="52.095156" lon="05.645042"><ele>43</ele><time>2022-04-13T12:59:50Z</time><name>PT5959</name></trkpt>
<trkpt lat="52.095145" lon="05.645053"><ele>42.9</ele><time>2022-04-13T12:59:51Z</time><name>PT5960</name></trkpt>
<trkpt lat="52.095136" lon="05.645063"><ele>42.7</ele><time>2022-04-13T12:59:52Z</time><name>PT5961</name></trkpt>
<trkpt lat="52.095126" lon="05.645069"><ele>42.5</ele><time>2022-04-13T12:59:53Z</time><name>PT5962</name></trkpt>
<trkpt lat="52.095115" lon="05.645080"><ele>42.3</ele><time>2022-04-13T12:59:54Z</time><name>PT5963</name></trkpt>
<trkpt lat="52.095107" lon="05.645094"><ele>42.2</ele><time>2022-04-13T12:59:55Z</time><name>PT5964</name></trkpt>
<trkpt lat="52.095097" lon="05.645107"><ele>42.2</ele><time>2022-04-13T12:59:56Z</time><name>PT5965</name></trkpt>
<trkpt lat="52.095089" lon="05.645119"><ele>41.9</ele><time>2022-04-13T12:59:57Z</time><name>PT5966</name></trkpt>
<trkpt lat="52.095082" lon="05.645130"><ele>41.8</ele><time>2022-04-13T12:59:58Z</time><name>PT5967</name></trkpt>
<trkpt lat="52.095076" lon="05.645141"><ele>41.8</ele><time>2022-04-13T12:59:59Z</time><name>PT5968</name></trkpt>
<trkpt lat="52.095067" lon="05.645151"><ele>41.8</ele><time>2022-04-13T13:00:00Z</time><name>PT5969</name></trkpt>
<trkpt lat="52.095061" lon="05.645161"><ele>41.8</ele><time>2022-04-13T13:00:01Z</time><name>PT5970</name></trkpt>
<trkpt lat="52.095054" lon="05.645172"><ele>41.8</ele><time>2022-04-13T13:00:02Z</time><name>PT5971</name></trkpt>
<trkpt lat="52.095049" lon="05.645183"><ele>41.7</ele><time>2022-04-13T13:00:03Z</time><name>PT5972</name></trkpt>
<trkpt lat="52.095042" lon="05.645195"><ele>41.8</ele><time>2022-04-13T13:00:04Z</time><name>PT5973</name></trkpt>
<trkpt lat="52.095037" lon="05.645206"><ele>41.6</ele><time>2022-04-13T13:00:05Z</time><name>PT5974</name></trkpt>
<trkpt lat="52.095033" lon="05.645211"><ele>41.5</ele><time>2022-04-13T13:00:06Z</time><name>PT5975</name></trkpt>
<trkpt lat="52.095028" lon="05.645222"><ele>41.5</ele><time>2022-04-13T13:00:07Z</time><name>PT5976</name></trkpt>
<trkpt lat="52.095029" lon="05.645223"><ele>41.5</ele><time>2022-04-13T13:00:08Z</time><name>PT5977</name></trkpt>
<trkpt lat="52.095029" lon="05.645222"><ele>41.4</ele><time>2022-04-13T13:00:09Z</time><name>PT5978</name></trkpt>
<trkpt lat="52.095030" lon="05.645224"><ele>41.2</ele><time>2022-04-13T13:00:13Z</time><name>PT5979</name></trkpt>
<trkpt lat="52.095026" lon="05.645224"><ele>41.2</ele><time>2022-04-13T13:00:14Z</time><name>PT5980</name></trkpt>
<trkpt lat="52.095022" lon="05.645224"><ele>41.2</ele><time>2022-04-13T13:00:15Z</time><name>PT5981</name></trkpt>
<trkpt lat="52.095021" lon="05.645226"><ele>41.3</ele><time>2022-04-13T13:00:16Z</time><name>PT5982</name></trkpt>
<trkpt lat="52.095020" lon="05.645227"><ele>41.2</ele><time>2022-04-13T13:00:17Z</time><name>PT5983</name></trkpt>
<trkpt lat="52.095018" lon="05.645229"><ele>41.3</ele><time>2022-04-13T13:00:18Z</time><name>PT5984</name></trkpt>
<trkpt lat="52.095015" lon="05.645229"><ele>40.7</ele><time>2022-04-13T13:00:48Z</time><name>PT5985</name></trkpt>
<trkpt lat="52.095003" lon="05.645238"><ele>40.5</ele><time>2022-04-13T13:00:49Z</time><name>PT5986</name></trkpt>
<trkpt lat="52.094998" lon="05.645237"><ele>40.5</ele><time>2022-04-13T13:00:50Z</time><name>PT5987</name></trkpt>
<trkpt lat="52.094994" lon="05.645240"><ele>40.4</ele><time>2022-04-13T13:00:51Z</time><name>PT5988</name></trkpt>
<trkpt lat="52.094990" lon="05.645241"><ele>40.3</ele><time>2022-04-13T13:00:52Z</time><name>PT5989</name></trkpt>
<trkpt lat="52.094980" lon="05.645227"><ele>40.5</ele><time>2022-04-13T13:00:55Z</time><name>PT5990</name></trkpt>
<trkpt lat="52.094965" lon="05.645222"><ele>40.4</ele><time>2022-04-13T13:00:56Z</time><name>PT5991</name></trkpt>
<trkpt lat="52.094950" lon="05.645223"><ele>40.5</ele><time>2022-04-13T13:00:57Z</time><name>PT5992</name></trkpt>
<trkpt lat="52.094941" lon="05.645219"><ele>40.4</ele><time>2022-04-13T13:00:58Z</time><name>PT5993</name></trkpt>
<trkpt lat="52.094938" lon="05.645215"><ele>40.7</ele><time>2022-04-13T13:00:59Z</time><name>PT5994</name></trkpt>
<trkpt lat="52.094936" lon="05.645211"><ele>40.9</ele><time>2022-04-13T13:01:00Z</time><name>PT5995</name></trkpt>
<trkpt lat="52.094934" lon="05.645210"><ele>40.9</ele><time>2022-04-13T13:01:01Z</time><name>PT5996</name></trkpt>
<trkpt lat="52.094931" lon="05.645205"><ele>40.7</ele><time>2022-04-13T13:01:04Z</time><name>PT5997</name></trkpt>
<trkpt lat="52.094917" lon="05.645202"><ele>40.4</ele><time>2022-04-13T13:01:05Z</time><name>PT5998</name></trkpt>
<trkpt lat="52.094908" lon="05.645194"><ele>40.5</ele><time>2022-04-13T13:01:06Z</time><name>PT5999</name></trkpt>
<trkpt lat="52.094897" lon="05.645183"><ele>40.4</ele><time>2022-04-13T13:01:07Z</time><name>PT6000</name></trkpt>
<trkpt lat="52.094885" lon="05.645176"><ele>40.3</ele><time>2022-04-13T13:01:08Z</time><name>PT6001</name></trkpt>
<trkpt lat="52.094874" lon="05.645171"><ele>40.6</ele><time>2022-04-13T13:01:09Z</time><name>PT6002</name></trkpt>
<trkpt lat="52.094864" lon="05.645164"><ele>40.5</ele><time>2022-04-13T13:01:10Z</time><name>PT6003</name></trkpt>
<trkpt lat="52.094854" lon="05.645154"><ele>40.7</ele><time>2022-04-13T13:01:11Z</time><name>PT6004</name></trkpt>
<trkpt lat="52.094846" lon="05.645144"><ele>40.7</ele><time>2022-04-13T13:01:12Z</time><name>PT6005</name></trkpt>
<trkpt lat="52.094837" lon="05.645132"><ele>40.8</ele><time>2022-04-13T13:01:13Z</time><name>PT6006</name></trkpt>
<trkpt lat="52.094828" lon="05.645123"><ele>40.9</ele><time>2022-04-13T13:01:14Z</time><name>PT6007</name></trkpt>
<trkpt lat="52.094818" lon="05.645118"><ele>40.9</ele><time>2022-04-13T13:01:15Z</time><name>PT6008</name></trkpt>
<trkpt lat="52.094807" lon="05.645113"><ele>41.2</ele><time>2022-04-13T13:01:16Z</time><name>PT6009</name></trkpt>
<trkpt lat="52.094799" lon="05.645107"><ele>41.3</ele><time>2022-04-13T13:01:17Z</time><name>PT6010</name></trkpt>
<trkpt lat="52.094789" lon="05.645100"><ele>41.4</ele><time>2022-04-13T13:01:18Z</time><name>PT6011</name></trkpt>
<trkpt lat="52.094779" lon="05.645091"><ele>41.6</ele><time>2022-04-13T13:01:19Z</time><name>PT6012</name></trkpt>
<trkpt lat="52.094771" lon="05.645080"><ele>41.6</ele><time>2022-04-13T13:01:20Z</time><name>PT6013</name></trkpt>
<trkpt lat="52.094763" lon="05.645068"><ele>41.6</ele><time>2022-04-13T13:01:21Z</time><name>PT6014</name></trkpt>
<trkpt lat="52.094753" lon="05.645056"><ele>41.7</ele><time>2022-04-13T13:01:22Z</time><name>PT6015</name></trkpt>
<trkpt lat="52.094743" lon="05.645047"><ele>41.8</ele><time>2022-04-13T13:01:23Z</time><name>PT6016</name></trkpt>
<trkpt lat="52.094733" lon="05.645036"><ele>41.8</ele><time>2022-04-13T13:01:24Z</time><name>PT6017</name></trkpt>
<trkpt lat="52.094720" lon="05.645030"><ele>41.8</ele><time>2022-04-13T13:01:25Z</time><name>PT6018</name></trkpt>
<trkpt lat="52.094709" lon="05.645020"><ele>41.8</ele><time>2022-04-13T13:01:26Z</time><name>PT6019</name></trkpt>
<trkpt lat="52.094698" lon="05.645010"><ele>41.9</ele><time>2022-04-13T13:01:27Z</time><name>PT6020</name></trkpt>
<trkpt lat="52.094691" lon="05.644998"><ele>41.9</ele><time>2022-04-13T13:01:28Z</time><name>PT6021</name></trkpt>
<trkpt lat="52.094682" lon="05.644986"><ele>41.8</ele><time>2022-04-13T13:01:29Z</time><name>PT6022</name></trkpt>
<trkpt lat="52.094672" lon="05.644975"><ele>41.9</ele><time>2022-04-13T13:01:30Z</time><name>PT6023</name></trkpt>
<trkpt lat="52.094662" lon="05.644968"><ele>41.8</ele><time>2022-04-13T13:01:31Z</time><name>PT6024</name></trkpt>
<trkpt lat="52.094651" lon="05.644960"><ele>41.7</ele><time>2022-04-13T13:01:32Z</time><name>PT6025</name></trkpt>
<trkpt lat="52.094640" lon="05.644952"><ele>41.6</ele><time>2022-04-13T13:01:33Z</time><name>PT6026</name></trkpt>
<trkpt lat="52.094631" lon="05.644943"><ele>41.7</ele><time>2022-04-13T13:01:34Z</time><name>PT6027</name></trkpt>
<trkpt lat="52.094621" lon="05.644935"><ele>41.6</ele><time>2022-04-13T13:01:35Z</time><name>PT6028</name></trkpt>
<trkpt lat="52.094610" lon="05.644925"><ele>41.6</ele><time>2022-04-13T13:01:36Z</time><name>PT6029</name></trkpt>
<trkpt lat="52.094599" lon="05.644919"><ele>41.8</ele><time>2022-04-13T13:01:37Z</time><name>PT6030</name></trkpt>
<trkpt lat="52.094588" lon="05.644915"><ele>41.8</ele><time>2022-04-13T13:01:38Z</time><name>PT6031</name></trkpt>
<trkpt lat="52.094576" lon="05.644915"><ele>41.7</ele><time>2022-04-13T13:01:39Z</time><name>PT6032</name></trkpt>
<trkpt lat="52.094566" lon="05.644917"><ele>41.7</ele><time>2022-04-13T13:01:40Z</time><name>PT6033</name></trkpt>
<trkpt lat="52.094557" lon="05.644917"><ele>41.5</ele><time>2022-04-13T13:01:41Z</time><name>PT6034</name></trkpt>
<trkpt lat="52.094546" lon="05.644917"><ele>41.4</ele><time>2022-04-13T13:01:42Z</time><name>PT6035</name></trkpt>
<trkpt lat="52.094535" lon="05.644916"><ele>41.5</ele><time>2022-04-13T13:01:43Z</time><name>PT6036</name></trkpt>
<trkpt lat="52.094525" lon="05.644919"><ele>41.4</ele><time>2022-04-13T13:01:44Z</time><name>PT6037</name></trkpt>
<trkpt lat="52.094515" lon="05.644924"><ele>41.5</ele><time>2022-04-13T13:01:45Z</time><name>PT6038</name></trkpt>
<trkpt lat="52.094503" lon="05.644931"><ele>41.5</ele><time>2022-04-13T13:01:46Z</time><name>PT6039</name></trkpt>
<trkpt lat="52.094492" lon="05.644937"><ele>41.4</ele><time>2022-04-13T13:01:47Z</time><name>PT6040</name></trkpt>
<trkpt lat="52.094483" lon="05.644943"><ele>41.3</ele><time>2022-04-13T13:01:48Z</time><name>PT6041</name></trkpt>
<trkpt lat="52.094475" lon="05.644951"><ele>41.3</ele><time>2022-04-13T13:01:49Z</time><name>PT6042</name></trkpt>
<trkpt lat="52.094466" lon="05.644956"><ele>41.3</ele><time>2022-04-13T13:01:50Z</time><name>PT6043</name></trkpt>
<trkpt lat="52.094458" lon="05.644962"><ele>41.3</ele><time>2022-04-13T13:01:51Z</time><name>PT6044</name></trkpt>
<trkpt lat="52.094449" lon="05.644965"><ele>41.3</ele><time>2022-04-13T13:01:52Z</time><name>PT6045</name></trkpt>
<trkpt lat="52.094440" lon="05.644969"><ele>41.5</ele><time>2022-04-13T13:01:53Z</time><name>PT6046</name></trkpt>
<trkpt lat="52.094432" lon="05.644971"><ele>41.3</ele><time>2022-04-13T13:01:54Z</time><name>PT6047</name></trkpt>
<trkpt lat="52.094422" lon="05.644974"><ele>41.4</ele><time>2022-04-13T13:01:55Z</time><name>PT6048</name></trkpt>
<trkpt lat="52.094410" lon="05.644979"><ele>41.3</ele><time>2022-04-13T13:01:56Z</time><name>PT6049</name></trkpt>
<trkpt lat="52.094398" lon="05.644984"><ele>41.3</ele><time>2022-04-13T13:01:57Z</time><name>PT6050</name></trkpt>
<trkpt lat="52.094387" lon="05.644992"><ele>41.3</ele><time>2022-04-13T13:01:58Z</time><name>PT6051</name></trkpt>
<trkpt lat="52.094378" lon="05.644997"><ele>41.2</ele><time>2022-04-13T13:01:59Z</time><name>PT6052</name></trkpt>
<trkpt lat="52.094368" lon="05.645000"><ele>41.3</ele><time>2022-04-13T13:02:00Z</time><name>PT6053</name></trkpt>
<trkpt lat="52.094356" lon="05.645005"><ele>41.5</ele><time>2022-04-13T13:02:01Z</time><name>PT6054</name></trkpt>
<trkpt lat="52.094346" lon="05.645011"><ele>41.5</ele><time>2022-04-13T13:02:02Z</time><name>PT6055</name></trkpt>
<trkpt lat="52.094337" lon="05.645019"><ele>41.5</ele><time>2022-04-13T13:02:03Z</time><name>PT6056</name></trkpt>
<trkpt lat="52.094325" lon="05.645021"><ele>41.4</ele><time>2022-04-13T13:02:04Z</time><name>PT6057</name></trkpt>
<trkpt lat="52.094314" lon="05.645026"><ele>41.3</ele><time>2022-04-13T13:02:05Z</time><name>PT6058</name></trkpt>
<trkpt lat="52.094304" lon="05.645029"><ele>41.2</ele><time>2022-04-13T13:02:06Z</time><name>PT6059</name></trkpt>
<trkpt lat="52.094293" lon="05.645030"><ele>41.2</ele><time>2022-04-13T13:02:07Z</time><name>PT6060</name></trkpt>
<trkpt lat="52.094282" lon="05.645034"><ele>41.1</ele><time>2022-04-13T13:02:08Z</time><name>PT6061</name></trkpt>
<trkpt lat="52.094271" lon="05.645038"><ele>41.2</ele><time>2022-04-13T13:02:09Z</time><name>PT6062</name></trkpt>
<trkpt lat="52.094262" lon="05.645041"><ele>41.1</ele><time>2022-04-13T13:02:10Z</time><name>PT6063</name></trkpt>
<trkpt lat="52.094251" lon="05.645046"><ele>41.1</ele><time>2022-04-13T13:02:11Z</time><name>PT6064</name></trkpt>
<trkpt lat="52.094239" lon="05.645051"><ele>41</ele><time>2022-04-13T13:02:12Z</time><name>PT6065</name></trkpt>
<trkpt lat="52.094230" lon="05.645054"><ele>40.9</ele><time>2022-04-13T13:02:13Z</time><name>PT6066</name></trkpt>
<trkpt lat="52.094220" lon="05.645055"><ele>41.1</ele><time>2022-04-13T13:02:14Z</time><name>PT6067</name></trkpt>
<trkpt lat="52.094208" lon="05.645055"><ele>41.1</ele><time>2022-04-13T13:02:15Z</time><name>PT6068</name></trkpt>
<trkpt lat="52.094197" lon="05.645055"><ele>41.2</ele><time>2022-04-13T13:02:16Z</time><name>PT6069</name></trkpt>
<trkpt lat="52.094187" lon="05.645059"><ele>41.4</ele><time>2022-04-13T13:02:17Z</time><name>PT6070</name></trkpt>
<trkpt lat="52.094177" lon="05.645062"><ele>41.5</ele><time>2022-04-13T13:02:18Z</time><name>PT6071</name></trkpt>
<trkpt lat="52.094167" lon="05.645069"><ele>41.6</ele><time>2022-04-13T13:02:19Z</time><name>PT6072</name></trkpt>
<trkpt lat="52.094156" lon="05.645073"><ele>41.7</ele><time>2022-04-13T13:02:20Z</time><name>PT6073</name></trkpt>
<trkpt lat="52.094148" lon="05.645076"><ele>41.6</ele><time>2022-04-13T13:02:21Z</time><name>PT6074</name></trkpt>
<trkpt lat="52.094140" lon="05.645078"><ele>41.7</ele><time>2022-04-13T13:02:22Z</time><name>PT6075</name></trkpt>
<trkpt lat="52.094131" lon="05.645082"><ele>41.8</ele><time>2022-04-13T13:02:23Z</time><name>PT6076</name></trkpt>
<trkpt lat="52.094120" lon="05.645084"><ele>41.8</ele><time>2022-04-13T13:02:24Z</time><name>PT6077</name></trkpt>
<trkpt lat="52.094107" lon="05.645081"><ele>41.9</ele><time>2022-04-13T13:02:25Z</time><name>PT6078</name></trkpt>
<trkpt lat="52.094098" lon="05.645083"><ele>42.1</ele><time>2022-04-13T13:02:26Z</time><name>PT6079</name></trkpt>
<trkpt lat="52.094087" lon="05.645088"><ele>42.1</ele><time>2022-04-13T13:02:27Z</time><name>PT6080</name></trkpt>
<trkpt lat="52.094078" lon="05.645089"><ele>42.2</ele><time>2022-04-13T13:02:28Z</time><name>PT6081</name></trkpt>
<trkpt lat="52.094070" lon="05.645096"><ele>42.2</ele><time>2022-04-13T13:02:29Z</time><name>PT6082</name></trkpt>
<trkpt lat="52.094057" lon="05.645100"><ele>42.2</ele><time>2022-04-13T13:02:30Z</time><name>PT6083</name></trkpt>
<trkpt lat="52.094047" lon="05.645107"><ele>42.4</ele><time>2022-04-13T13:02:31Z</time><name>PT6084</name></trkpt>
<trkpt lat="52.094040" lon="05.645113"><ele>42.5</ele><time>2022-04-13T13:02:32Z</time><name>PT6085</name></trkpt>
<trkpt lat="52.094036" lon="05.645122"><ele>42.4</ele><time>2022-04-13T13:02:33Z</time><name>PT6086</name></trkpt>
<trkpt lat="52.094032" lon="05.645127"><ele>42.3</ele><time>2022-04-13T13:02:34Z</time><name>PT6087</name></trkpt>
<trkpt lat="52.094029" lon="05.645129"><ele>42.3</ele><time>2022-04-13T13:02:35Z</time><name>PT6088</name></trkpt>
<trkpt lat="52.094031" lon="05.645133"><ele>42.2</ele><time>2022-04-13T13:02:36Z</time><name>PT6089</name></trkpt>
<trkpt lat="52.094031" lon="05.645138"><ele>42.2</ele><time>2022-04-13T13:02:37Z</time><name>PT6090</name></trkpt>
<trkpt lat="52.094030" lon="05.645142"><ele>42.3</ele><time>2022-04-13T13:02:38Z</time><name>PT6091</name></trkpt>
<trkpt lat="52.094029" lon="05.645143"><ele>42.3</ele><time>2022-04-13T13:02:39Z</time><name>PT6092</name></trkpt>
<trkpt lat="52.094028" lon="05.645144"><ele>42.4</ele><time>2022-04-13T13:02:42Z</time><name>PT6093</name></trkpt>
<trkpt lat="52.094026" lon="05.645134"><ele>42.3</ele><time>2022-04-13T13:02:43Z</time><name>PT6094</name></trkpt>
<trkpt lat="52.094027" lon="05.645118"><ele>42.1</ele><time>2022-04-13T13:02:44Z</time><name>PT6095</name></trkpt>
<trkpt lat="52.094027" lon="05.645111"><ele>42.3</ele><time>2022-04-13T13:02:45Z</time><name>PT6096</name></trkpt>
<trkpt lat="52.094028" lon="05.645101"><ele>42.2</ele><time>2022-04-13T13:02:46Z</time><name>PT6097</name></trkpt>
<trkpt lat="52.094024" lon="05.645089"><ele>41.9</ele><time>2022-04-13T13:02:49Z</time><name>PT6098</name></trkpt>
<trkpt lat="52.094022" lon="05.645076"><ele>41.8</ele><time>2022-04-13T13:02:50Z</time><name>PT6099</name></trkpt>
<trkpt lat="52.094018" lon="05.645066"><ele>42</ele><time>2022-04-13T13:02:51Z</time><name>PT6100</name></trkpt>
<trkpt lat="52.094008" lon="05.645057"><ele>41.9</ele><time>2022-04-13T13:02:52Z</time><name>PT6101</name></trkpt>
<trkpt lat="52.093996" lon="05.645048"><ele>42</ele><time>2022-04-13T13:02:53Z</time><name>PT6102</name></trkpt>
<trkpt lat="52.093993" lon="05.645040"><ele>42.3</ele><time>2022-04-13T13:02:54Z</time><name>PT6103</name></trkpt>
<trkpt lat="52.093986" lon="05.645022"><ele>42.2</ele><time>2022-04-13T13:02:55Z</time><name>PT6104</name></trkpt>
<trkpt lat="52.093984" lon="05.645011"><ele>42.2</ele><time>2022-04-13T13:02:56Z</time><name>PT6105</name></trkpt>
<trkpt lat="52.093981" lon="05.645001"><ele>42.1</ele><time>2022-04-13T13:02:57Z</time><name>PT6106</name></trkpt>
<trkpt lat="52.093977" lon="05.644992"><ele>41.9</ele><time>2022-04-13T13:02:58Z</time><name>PT6107</name></trkpt>
<trkpt lat="52.093971" lon="05.644982"><ele>41.8</ele><time>2022-04-13T13:02:59Z</time><name>PT6108</name></trkpt>
<trkpt lat="52.093967" lon="05.644978"><ele>41.8</ele><time>2022-04-13T13:03:00Z</time><name>PT6109</name></trkpt>
<trkpt lat="52.093958" lon="05.644979"><ele>41.8</ele><time>2022-04-13T13:03:01Z</time><name>PT6110</name></trkpt>
<trkpt lat="52.093951" lon="05.644976"><ele>41.7</ele><time>2022-04-13T13:03:02Z</time><name>PT6111</name></trkpt>
<trkpt lat="52.093944" lon="05.644963"><ele>41.6</ele><time>2022-04-13T13:03:03Z</time><name>PT6112</name></trkpt>
<trkpt lat="52.093935" lon="05.644956"><ele>41.7</ele><time>2022-04-13T13:03:04Z</time><name>PT6113</name></trkpt>
<trkpt lat="52.093928" lon="05.644956"><ele>41.8</ele><time>2022-04-13T13:03:05Z</time><name>PT6114</name></trkpt>
<trkpt lat="52.093920" lon="05.644959"><ele>42</ele><time>2022-04-13T13:03:06Z</time><name>PT6115</name></trkpt>
<trkpt lat="52.093914" lon="05.644955"><ele>41.9</ele><time>2022-04-13T13:03:07Z</time><name>PT6116</name></trkpt>
<trkpt lat="52.093906" lon="05.644956"><ele>42.1</ele><time>2022-04-13T13:03:08Z</time><name>PT6117</name></trkpt>
<trkpt lat="52.093899" lon="05.644956"><ele>42</ele><time>2022-04-13T13:03:09Z</time><name>PT6118</name></trkpt>
<trkpt lat="52.093894" lon="05.644956"><ele>41.9</ele><time>2022-04-13T13:03:10Z</time><name>PT6119</name></trkpt>
<trkpt lat="52.093891" lon="05.644959"><ele>42.2</ele><time>2022-04-13T13:03:11Z</time><name>PT6120</name></trkpt>
<trkpt lat="52.093887" lon="05.644964"><ele>42</ele><time>2022-04-13T13:03:12Z</time><name>PT6121</name></trkpt>
<trkpt lat="52.093882" lon="05.644967"><ele>41.9</ele><time>2022-04-13T13:03:13Z</time><name>PT6122</name></trkpt>
<trkpt lat="52.093878" lon="05.644971"><ele>41.8</ele><time>2022-04-13T13:03:14Z</time><name>PT6123</name></trkpt>
<trkpt lat="52.093872" lon="05.644975"><ele>41.5</ele><time>2022-04-13T13:03:15Z</time><name>PT6124</name></trkpt>
<trkpt lat="52.093867" lon="05.644972"><ele>41.7</ele><time>2022-04-13T13:03:16Z</time><name>PT6125</name></trkpt>
<trkpt lat="52.093861" lon="05.644969"><ele>41.6</ele><time>2022-04-13T13:03:17Z</time><name>PT6126</name></trkpt>
<trkpt lat="52.093855" lon="05.644972"><ele>41.6</ele><time>2022-04-13T13:03:18Z</time><name>PT6127</name></trkpt>
<trkpt lat="52.093841" lon="05.644974"><ele>41.5</ele><time>2022-04-13T13:03:19Z</time><name>PT6128</name></trkpt>
<trkpt lat="52.093839" lon="05.644975"><ele>41.3</ele><time>2022-04-13T13:03:20Z</time><name>PT6129</name></trkpt>
<trkpt lat="52.093839" lon="05.644975"><ele>41.3</ele><time>2022-04-13T13:03:21Z</time><name>PT6130</name></trkpt>
<trkpt lat="52.093840" lon="05.644976"><ele>41.1</ele><time>2022-04-13T13:03:22Z</time><name>PT6131</name></trkpt>
<trkpt lat="52.093828" lon="05.644980"><ele>41.2</ele><time>2022-04-13T13:03:26Z</time><name>PT6132</name></trkpt>
<trkpt lat="52.093817" lon="05.644990"><ele>40.9</ele><time>2022-04-13T13:03:27Z</time><name>PT6133</name></trkpt>
<trkpt lat="52.093807" lon="05.644999"><ele>40.9</ele><time>2022-04-13T13:03:28Z</time><name>PT6134</name></trkpt>
<trkpt lat="52.093803" lon="05.645009"><ele>40.8</ele><time>2022-04-13T13:03:29Z</time><name>PT6135</name></trkpt>
<trkpt lat="52.093801" lon="05.645007"><ele>40.6</ele><time>2022-04-13T13:03:30Z</time><name>PT6136</name></trkpt>
<trkpt lat="52.093798" lon="05.645014"><ele>40.6</ele><time>2022-04-13T13:03:31Z</time><name>PT6137</name></trkpt>
<trkpt lat="52.093794" lon="05.645023"><ele>40.4</ele><time>2022-04-13T13:03:32Z</time><name>PT6138</name></trkpt>
<trkpt lat="52.093789" lon="05.645035"><ele>40.3</ele><time>2022-04-13T13:03:33Z</time><name>PT6139</name></trkpt>
<trkpt lat="52.093779" lon="05.645044"><ele>40.2</ele><time>2022-04-13T13:03:34Z</time><name>PT6140</name></trkpt>
<trkpt lat="52.093773" lon="05.645053"><ele>40.1</ele><time>2022-04-13T13:03:35Z</time><name>PT6141</name></trkpt>
<trkpt lat="52.093760" lon="05.645058"><ele>40</ele><time>2022-04-13T13:03:36Z</time><name>PT6142</name></trkpt>
<trkpt lat="52.093752" lon="05.645068"><ele>40</ele><time>2022-04-13T13:03:37Z</time><name>PT6143</name></trkpt>
<trkpt lat="52.093745" lon="05.645078"><ele>40.1</ele><time>2022-04-13T13:03:38Z</time><name>PT6144</name></trkpt>
<trkpt lat="52.093735" lon="05.645082"><ele>40.1</ele><time>2022-04-13T13:03:39Z</time><name>PT6145</name></trkpt>
<trkpt lat="52.093728" lon="05.645087"><ele>40.1</ele><time>2022-04-13T13:03:40Z</time><name>PT6146</name></trkpt>
<trkpt lat="52.093720" lon="05.645092"><ele>40</ele><time>2022-04-13T13:03:41Z</time><name>PT6147</name></trkpt>
<trkpt lat="52.093711" lon="05.645101"><ele>40</ele><time>2022-04-13T13:03:42Z</time><name>PT6148</name></trkpt>
<trkpt lat="52.093702" lon="05.645105"><ele>40</ele><time>2022-04-13T13:03:43Z</time><name>PT6149</name></trkpt>
<trkpt lat="52.093693" lon="05.645110"><ele>39.9</ele><time>2022-04-13T13:03:44Z</time><name>PT6150</name></trkpt>
<trkpt lat="52.093684" lon="05.645110"><ele>40</ele><time>2022-04-13T13:03:45Z</time><name>PT6151</name></trkpt>
<trkpt lat="52.093675" lon="05.645108"><ele>40.1</ele><time>2022-04-13T13:03:46Z</time><name>PT6152</name></trkpt>
<trkpt lat="52.093666" lon="05.645104"><ele>40.3</ele><time>2022-04-13T13:03:47Z</time><name>PT6153</name></trkpt>
<trkpt lat="52.093658" lon="05.645105"><ele>40.4</ele><time>2022-04-13T13:03:48Z</time><name>PT6154</name></trkpt>
<trkpt lat="52.093653" lon="05.645106"><ele>40.4</ele><time>2022-04-13T13:03:49Z</time><name>PT6155</name></trkpt>
<trkpt lat="52.093643" lon="05.645107"><ele>40.5</ele><time>2022-04-13T13:03:50Z</time><name>PT6156</name></trkpt>
<trkpt lat="52.093636" lon="05.645110"><ele>40.4</ele><time>2022-04-13T13:03:51Z</time><name>PT6157</name></trkpt>
<trkpt lat="52.093627" lon="05.645108"><ele>40.4</ele><time>2022-04-13T13:03:52Z</time><name>PT6158</name></trkpt>
<trkpt lat="52.093616" lon="05.645109"><ele>40.4</ele><time>2022-04-13T13:03:53Z</time><name>PT6159</name></trkpt>
<trkpt lat="52.093604" lon="05.645107"><ele>40.3</ele><time>2022-04-13T13:03:54Z</time><name>PT6160</name></trkpt>
<trkpt lat="52.093594" lon="05.645098"><ele>40.2</ele><time>2022-04-13T13:03:55Z</time><name>PT6161</name></trkpt>
<trkpt lat="52.093577" lon="05.645099"><ele>40.1</ele><time>2022-04-13T13:03:56Z</time><name>PT6162</name></trkpt>
<trkpt lat="52.093568" lon="05.645099"><ele>40.1</ele><time>2022-04-13T13:03:57Z</time><name>PT6163</name></trkpt>
<trkpt lat="52.093560" lon="05.645103"><ele>40.1</ele><time>2022-04-13T13:03:58Z</time><name>PT6164</name></trkpt>
<trkpt lat="52.093550" lon="05.645100"><ele>40.1</ele><time>2022-04-13T13:03:59Z</time><name>PT6165</name></trkpt>
<trkpt lat="52.093541" lon="05.645097"><ele>40</ele><time>2022-04-13T13:04:00Z</time><name>PT6166</name></trkpt>
<trkpt lat="52.093526" lon="05.645096"><ele>39.9</ele><time>2022-04-13T13:04:01Z</time><name>PT6167</name></trkpt>
<trkpt lat="52.093516" lon="05.645098"><ele>39.8</ele><time>2022-04-13T13:04:02Z</time><name>PT6168</name></trkpt>
<trkpt lat="52.093507" lon="05.645097"><ele>39.7</ele><time>2022-04-13T13:04:03Z</time><name>PT6169</name></trkpt>
<trkpt lat="52.093502" lon="05.645098"><ele>39.5</ele><time>2022-04-13T13:04:04Z</time><name>PT6170</name></trkpt>
<trkpt lat="52.093496" lon="05.645095"><ele>39.5</ele><time>2022-04-13T13:04:05Z</time><name>PT6171</name></trkpt>
<trkpt lat="52.093485" lon="05.645089"><ele>39.7</ele><time>2022-04-13T13:04:06Z</time><name>PT6172</name></trkpt>
<trkpt lat="52.093484" lon="05.645089"><ele>39.8</ele><time>2022-04-13T13:04:07Z</time><name>PT6173</name></trkpt>
<trkpt lat="52.093481" lon="05.645088"><ele>39.6</ele><time>2022-04-13T13:04:08Z</time><name>PT6174</name></trkpt>
<trkpt lat="52.093477" lon="05.645089"><ele>39.6</ele><time>2022-04-13T13:04:09Z</time><name>PT6175</name></trkpt>
<trkpt lat="52.093472" lon="05.645089"><ele>39.7</ele><time>2022-04-13T13:04:10Z</time><name>PT6176</name></trkpt>
<trkpt lat="52.093469" lon="05.645081"><ele>39.5</ele><time>2022-04-13T13:04:11Z</time><name>PT6177</name></trkpt>
<trkpt lat="52.093466" lon="05.645071"><ele>39.5</ele><time>2022-04-13T13:04:12Z</time><name>PT6178</name></trkpt>
<trkpt lat="52.093453" lon="05.645062"><ele>39.5</ele><time>2022-04-13T13:04:13Z</time><name>PT6179</name></trkpt>
<trkpt lat="52.093444" lon="05.645058"><ele>39.5</ele><time>2022-04-13T13:04:14Z</time><name>PT6180</name></trkpt>
<trkpt lat="52.093442" lon="05.645060"><ele>39.6</ele><time>2022-04-13T13:04:15Z</time><name>PT6181</name></trkpt>
<trkpt lat="52.093446" lon="05.645061"><ele>39.6</ele><time>2022-04-13T13:04:16Z</time><name>PT6182</name></trkpt>
<trkpt lat="52.093442" lon="05.645062"><ele>39.5</ele><time>2022-04-13T13:04:20Z</time><name>PT6183</name></trkpt>
<trkpt lat="52.093442" lon="05.645069"><ele>39.6</ele><time>2022-04-13T13:04:21Z</time><name>PT6184</name></trkpt>
<trkpt lat="52.093441" lon="05.645076"><ele>39.5</ele><time>2022-04-13T13:04:22Z</time><name>PT6185</name></trkpt>
<trkpt lat="52.093439" lon="05.645069"><ele>39.5</ele><time>2022-04-13T13:05:07Z</time><name>PT6186</name></trkpt>
<trkpt lat="52.093437" lon="05.645063"><ele>39.5</ele><time>2022-04-13T13:05:08Z</time><name>PT6187</name></trkpt>
<trkpt lat="52.093433" lon="05.645063"><ele>39.5</ele><time>2022-04-13T13:05:11Z</time><name>PT6188</name></trkpt>
<trkpt lat="52.093430" lon="05.645065"><ele>39.5</ele><time>2022-04-13T13:05:12Z</time><name>PT6189</name></trkpt>
<trkpt lat="52.093430" lon="05.645066"><ele>39.9</ele><time>2022-04-13T13:05:13Z</time><name>PT6190</name></trkpt>
<trkpt lat="52.093429" lon="05.645063"><ele>39.7</ele><time>2022-04-13T13:05:14Z</time><name>PT6191</name></trkpt>
<trkpt lat="52.093426" lon="05.645062"><ele>39.9</ele><time>2022-04-13T13:05:20Z</time><name>PT6192</name></trkpt>
<trkpt lat="52.093429" lon="05.645070"><ele>39.9</ele><time>2022-04-13T13:05:21Z</time><name>PT6193</name></trkpt>
<trkpt lat="52.093430" lon="05.645077"><ele>39.7</ele><time>2022-04-13T13:05:22Z</time><name>PT6194</name></trkpt>
<trkpt lat="52.093428" lon="05.645072"><ele>39.5</ele><time>2022-04-13T13:05:34Z</time><name>PT6195</name></trkpt>
<trkpt lat="52.093421" lon="05.645067"><ele>39.4</ele><time>2022-04-13T13:05:35Z</time><name>PT6196</name></trkpt>
<trkpt lat="52.093419" lon="05.645066"><ele>39.5</ele><time>2022-04-13T13:05:36Z</time><name>PT6197</name></trkpt>
<trkpt lat="52.093416" lon="05.645065"><ele>39.5</ele><time>2022-04-13T13:06:30Z</time><name>PT6198</name></trkpt>
<trkpt lat="52.093416" lon="05.645084"><ele>39.6</ele><time>2022-04-13T13:06:31Z</time><name>PT6199</name></trkpt>
<trkpt lat="52.093417" lon="05.645096"><ele>39.7</ele><time>2022-04-13T13:06:32Z</time><name>PT6200</name></trkpt>
<trkpt lat="52.093417" lon="05.645101"><ele>39.6</ele><time>2022-04-13T13:06:33Z</time><name>PT6201</name></trkpt>
<trkpt lat="52.093416" lon="05.645111"><ele>39.5</ele><time>2022-04-13T13:06:34Z</time><name>PT6202</name></trkpt>
<trkpt lat="52.093414" lon="05.645115"><ele>39.5</ele><time>2022-04-13T13:06:35Z</time><name>PT6203</name></trkpt>
<trkpt lat="52.093416" lon="05.645116"><ele>39.4</ele><time>2022-04-13T13:06:36Z</time><name>PT6204</name></trkpt>
<trkpt lat="52.093418" lon="05.645117"><ele>39</ele><time>2022-04-13T13:06:37Z</time><name>PT6205</name></trkpt>
<trkpt lat="52.093419" lon="05.645122"><ele>38.9</ele><time>2022-04-13T13:06:38Z</time><name>PT6206</name></trkpt>
<trkpt lat="52.093425" lon="05.645125"><ele>38.7</ele><time>2022-04-13T13:06:39Z</time><name>PT6207</name></trkpt>
<trkpt lat="52.093430" lon="05.645121"><ele>38.7</ele><time>2022-04-13T13:06:40Z</time><name>PT6208</name></trkpt>
<trkpt lat="52.093423" lon="05.645144"><ele>38.6</ele><time>2022-04-13T13:08:39Z</time><name>PT6209</name></trkpt>
<trkpt lat="52.093423" lon="05.645136"><ele>38.9</ele><time>2022-04-13T13:08:40Z</time><name>PT6210</name></trkpt>
<trkpt lat="52.093417" lon="05.645137"><ele>39.4</ele><time>2022-04-13T13:08:41Z</time><name>PT6211</name></trkpt>
<trkpt lat="52.093420" lon="05.645136"><ele>39.7</ele><time>2022-04-13T13:08:42Z</time><name>PT6212</name></trkpt>
<trkpt lat="52.093424" lon="05.645128"><ele>39.5</ele><time>2022-04-13T13:08:43Z</time><name>PT6213</name></trkpt>
<trkpt lat="52.093422" lon="05.645129"><ele>39.4</ele><time>2022-04-13T13:08:44Z</time><name>PT6214</name></trkpt>
<trkpt lat="52.093420" lon="05.645127"><ele>39</ele><time>2022-04-13T13:08:45Z</time><name>PT6215</name></trkpt>
<trkpt lat="52.093422" lon="05.645122"><ele>38.9</ele><time>2022-04-13T13:08:46Z</time><name>PT6216</name></trkpt>
<trkpt lat="52.093423" lon="05.645115"><ele>38.9</ele><time>2022-04-13T13:08:47Z</time><name>PT6217</name></trkpt>
<trkpt lat="52.093425" lon="05.645114"><ele>38.9</ele><time>2022-04-13T13:08:48Z</time><name>PT6218</name></trkpt>
<trkpt lat="52.093421" lon="05.645116"><ele>39</ele><time>2022-04-13T13:08:49Z</time><name>PT6219</name></trkpt>
<trkpt lat="52.093416" lon="05.645113"><ele>38.9</ele><time>2022-04-13T13:08:50Z</time><name>PT6220</name></trkpt>
<trkpt lat="52.093413" lon="05.645119"><ele>38.8</ele><time>2022-04-13T13:08:51Z</time><name>PT6221</name></trkpt>
<trkpt lat="52.093414" lon="05.645116"><ele>38.5</ele><time>2022-04-13T13:08:52Z</time><name>PT6222</name></trkpt>
<trkpt lat="52.093413" lon="05.645120"><ele>38.4</ele><time>2022-04-13T13:08:53Z</time><name>PT6223</name></trkpt>
<trkpt lat="52.093411" lon="05.645119"><ele>38.3</ele><time>2022-04-13T13:08:54Z</time><name>PT6224</name></trkpt>
<trkpt lat="52.093411" lon="05.645122"><ele>38.3</ele><time>2022-04-13T13:08:55Z</time><name>PT6225</name></trkpt>
<trkpt lat="52.093408" lon="05.645117"><ele>38.4</ele><time>2022-04-13T13:08:56Z</time><name>PT6226</name></trkpt>
<trkpt lat="52.093405" lon="05.645115"><ele>38.3</ele><time>2022-04-13T13:08:57Z</time><name>PT6227</name></trkpt>
<trkpt lat="52.093404" lon="05.645117"><ele>38.3</ele><time>2022-04-13T13:08:58Z</time><name>PT6228</name></trkpt>
<trkpt lat="52.093405" lon="05.645117"><ele>38.3</ele><time>2022-04-13T13:08:59Z</time><name>PT6229</name></trkpt>
<trkpt lat="52.093404" lon="05.645118"><ele>38.2</ele><time>2022-04-13T13:09:00Z</time><name>PT6230</name></trkpt>
<trkpt lat="52.093404" lon="05.645121"><ele>38.4</ele><time>2022-04-13T13:09:01Z</time><name>PT6231</name></trkpt>
<trkpt lat="52.093402" lon="05.645116"><ele>38.4</ele><time>2022-04-13T13:09:05Z</time><name>PT6232</name></trkpt>
<trkpt lat="52.093401" lon="05.645117"><ele>38.2</ele><time>2022-04-13T13:09:06Z</time><name>PT6233</name></trkpt>
<trkpt lat="52.093400" lon="05.645120"><ele>38.2</ele><time>2022-04-13T13:09:07Z</time><name>PT6234</name></trkpt>
<trkpt lat="52.093388" lon="05.645121"><ele>38.4</ele><time>2022-04-13T13:09:08Z</time><name>PT6235</name></trkpt>
<trkpt lat="52.093386" lon="05.645127"><ele>38.4</ele><time>2022-04-13T13:09:09Z</time><name>PT6236</name></trkpt>
<trkpt lat="52.093383" lon="05.645128"><ele>38.4</ele><time>2022-04-13T13:09:10Z</time><name>PT6237</name></trkpt>
<trkpt lat="52.093370" lon="05.645133"><ele>38.5</ele><time>2022-04-13T13:09:11Z</time><name>PT6238</name></trkpt>
<trkpt lat="52.093359" lon="05.645135"><ele>38.5</ele><time>2022-04-13T13:09:12Z</time><name>PT6239</name></trkpt>
<trkpt lat="52.093354" lon="05.645141"><ele>38.7</ele><time>2022-04-13T13:09:13Z</time><name>PT6240</name></trkpt>
<trkpt lat="52.093348" lon="05.645145"><ele>38.9</ele><time>2022-04-13T13:09:14Z</time><name>PT6241</name></trkpt>
<trkpt lat="52.093338" lon="05.645144"><ele>39.1</ele><time>2022-04-13T13:09:15Z</time><name>PT6242</name></trkpt>
<trkpt lat="52.093330" lon="05.645149"><ele>39.2</ele><time>2022-04-13T13:09:16Z</time><name>PT6243</name></trkpt>
<trkpt lat="52.093316" lon="05.645158"><ele>39.1</ele><time>2022-04-13T13:09:17Z</time><name>PT6244</name></trkpt>
<trkpt lat="52.093309" lon="05.645166"><ele>39.1</ele><time>2022-04-13T13:09:18Z</time><name>PT6245</name></trkpt>
<trkpt lat="52.093301" lon="05.645181"><ele>38.9</ele><time>2022-04-13T13:09:19Z</time><name>PT6246</name></trkpt>
<trkpt lat="52.093296" lon="05.645198"><ele>38.7</ele><time>2022-04-13T13:09:20Z</time><name>PT6247</name></trkpt>
<trkpt lat="52.093289" lon="05.645207"><ele>38.6</ele><time>2022-04-13T13:09:21Z</time><name>PT6248</name></trkpt>
<trkpt lat="52.093283" lon="05.645218"><ele>38.6</ele><time>2022-04-13T13:09:22Z</time><name>PT6249</name></trkpt>
<trkpt lat="52.093277" lon="05.645226"><ele>38.8</ele><time>2022-04-13T13:09:23Z</time><name>PT6250</name></trkpt>
<trkpt lat="52.093276" lon="05.645235"><ele>38.9</ele><time>2022-04-13T13:09:24Z</time><name>PT6251</name></trkpt>
<trkpt lat="52.093275" lon="05.645242"><ele>38.9</ele><time>2022-04-13T13:09:25Z</time><name>PT6252</name></trkpt>
<trkpt lat="52.093272" lon="05.645248"><ele>39</ele><time>2022-04-13T13:09:26Z</time><name>PT6253</name></trkpt>
<trkpt lat="52.093265" lon="05.645258"><ele>38.9</ele><time>2022-04-13T13:09:27Z</time><name>PT6254</name></trkpt>
<trkpt lat="52.093257" lon="05.645270"><ele>38.8</ele><time>2022-04-13T13:09:28Z</time><name>PT6255</name></trkpt>
<trkpt lat="52.093249" lon="05.645279"><ele>38.8</ele><time>2022-04-13T13:09:29Z</time><name>PT6256</name></trkpt>
<trkpt lat="52.093244" lon="05.645287"><ele>38.7</ele><time>2022-04-13T13:09:30Z</time><name>PT6257</name></trkpt>
<trkpt lat="52.093238" lon="05.645292"><ele>38.7</ele><time>2022-04-13T13:09:31Z</time><name>PT6258</name></trkpt>
<trkpt lat="52.093230" lon="05.645297"><ele>38.7</ele><time>2022-04-13T13:09:32Z</time><name>PT6259</name></trkpt>
<trkpt lat="52.093226" lon="05.645308"><ele>38.7</ele><time>2022-04-13T13:09:33Z</time><name>PT6260</name></trkpt>
<trkpt lat="52.093220" lon="05.645319"><ele>38.9</ele><time>2022-04-13T13:09:34Z</time><name>PT6261</name></trkpt>
<trkpt lat="52.093212" lon="05.645329"><ele>38.9</ele><time>2022-04-13T13:09:35Z</time><name>PT6262</name></trkpt>
<trkpt lat="52.093204" lon="05.645339"><ele>38.9</ele><time>2022-04-13T13:09:36Z</time><name>PT6263</name></trkpt>
<trkpt lat="52.093195" lon="05.645349"><ele>38.9</ele><time>2022-04-13T13:09:37Z</time><name>PT6264</name></trkpt>
<trkpt lat="52.093191" lon="05.645362"><ele>38.8</ele><time>2022-04-13T13:09:38Z</time><name>PT6265</name></trkpt>
<trkpt lat="52.093187" lon="05.645379"><ele>38.6</ele><time>2022-04-13T13:09:39Z</time><name>PT6266</name></trkpt>
<trkpt lat="52.093180" lon="05.645391"><ele>38.7</ele><time>2022-04-13T13:09:40Z</time><name>PT6267</name></trkpt>
<trkpt lat="52.093179" lon="05.645407"><ele>38.7</ele><time>2022-04-13T13:09:41Z</time><name>PT6268</name></trkpt>
<trkpt lat="52.093175" lon="05.645422"><ele>38.5</ele><time>2022-04-13T13:09:42Z</time><name>PT6269</name></trkpt>
<trkpt lat="52.093172" lon="05.645438"><ele>38.7</ele><time>2022-04-13T13:09:43Z</time><name>PT6270</name></trkpt>
<trkpt lat="52.093167" lon="05.645448"><ele>38.6</ele><time>2022-04-13T13:09:44Z</time><name>PT6271</name></trkpt>
<trkpt lat="52.093168" lon="05.645461"><ele>38.4</ele><time>2022-04-13T13:09:45Z</time><name>PT6272</name></trkpt>
<trkpt lat="52.093162" lon="05.645471"><ele>38.6</ele><time>2022-04-13T13:09:46Z</time><name>PT6273</name></trkpt>
<trkpt lat="52.093159" lon="05.645483"><ele>38.6</ele><time>2022-04-13T13:09:47Z</time><name>PT6274</name></trkpt>
<trkpt lat="52.093156" lon="05.645496"><ele>38.6</ele><time>2022-04-13T13:09:48Z</time><name>PT6275</name></trkpt>
<trkpt lat="52.093155" lon="05.645506"><ele>38.6</ele><time>2022-04-13T13:09:49Z</time><name>PT6276</name></trkpt>
<trkpt lat="52.093156" lon="05.645527"><ele>38.4</ele><time>2022-04-13T13:09:50Z</time><name>PT6277</name></trkpt>
<trkpt lat="52.093154" lon="05.645540"><ele>38.2</ele><time>2022-04-13T13:09:51Z</time><name>PT6278</name></trkpt>
<trkpt lat="52.093151" lon="05.645554"><ele>38.1</ele><time>2022-04-13T13:09:52Z</time><name>PT6279</name></trkpt>
<trkpt lat="52.093149" lon="05.645570"><ele>38</ele><time>2022-04-13T13:09:53Z</time><name>PT6280</name></trkpt>
<trkpt lat="52.093148" lon="05.645586"><ele>38.2</ele><time>2022-04-13T13:09:54Z</time><name>PT6281</name></trkpt>
<trkpt lat="52.093147" lon="05.645601"><ele>38.2</ele><time>2022-04-13T13:09:55Z</time><name>PT6282</name></trkpt>
<trkpt lat="52.093146" lon="05.645614"><ele>38.4</ele><time>2022-04-13T13:09:56Z</time><name>PT6283</name></trkpt>
<trkpt lat="52.093145" lon="05.645623"><ele>38.4</ele><time>2022-04-13T13:09:57Z</time><name>PT6284</name></trkpt>
<trkpt lat="52.093143" lon="05.645630"><ele>38.4</ele><time>2022-04-13T13:09:58Z</time><name>PT6285</name></trkpt>
<trkpt lat="52.093139" lon="05.645640"><ele>38.4</ele><time>2022-04-13T13:09:59Z</time><name>PT6286</name></trkpt>
<trkpt lat="52.093133" lon="05.645653"><ele>38.4</ele><time>2022-04-13T13:10:00Z</time><name>PT6287</name></trkpt>
<trkpt lat="52.093129" lon="05.645673"><ele>38.3</ele><time>2022-04-13T13:10:01Z</time><name>PT6288</name></trkpt>
<trkpt lat="52.093127" lon="05.645687"><ele>38.3</ele><time>2022-04-13T13:10:02Z</time><name>PT6289</name></trkpt>
<trkpt lat="52.093125" lon="05.645699"><ele>38.2</ele><time>2022-04-13T13:10:03Z</time><name>PT6290</name></trkpt>
<trkpt lat="52.093121" lon="05.645707"><ele>38.2</ele><time>2022-04-13T13:10:04Z</time><name>PT6291</name></trkpt>
<trkpt lat="52.093117" lon="05.645714"><ele>38.3</ele><time>2022-04-13T13:10:05Z</time><name>PT6292</name></trkpt>
<trkpt lat="52.093115" lon="05.645722"><ele>38.3</ele><time>2022-04-13T13:10:06Z</time><name>PT6293</name></trkpt>
<trkpt lat="52.093112" lon="05.645745"><ele>38.4</ele><time>2022-04-13T13:10:07Z</time><name>PT6294</name></trkpt>
<trkpt lat="52.093110" lon="05.645756"><ele>38.2</ele><time>2022-04-13T13:10:08Z</time><name>PT6295</name></trkpt>
<trkpt lat="52.093107" lon="05.645772"><ele>38</ele><time>2022-04-13T13:10:09Z</time><name>PT6296</name></trkpt>
<trkpt lat="52.093101" lon="05.645791"><ele>38</ele><time>2022-04-13T13:10:10Z</time><name>PT6297</name></trkpt>
<trkpt lat="52.093097" lon="05.645803"><ele>37.9</ele><time>2022-04-13T13:10:11Z</time><name>PT6298</name></trkpt>
<trkpt lat="52.093086" lon="05.645816"><ele>38</ele><time>2022-04-13T13:10:12Z</time><name>PT6299</name></trkpt>
<trkpt lat="52.093084" lon="05.645830"><ele>38</ele><time>2022-04-13T13:10:13Z</time><name>PT6300</name></trkpt>
<trkpt lat="52.093083" lon="05.645846"><ele>38</ele><time>2022-04-13T13:10:14Z</time><name>PT6301</name></trkpt>
<trkpt lat="52.093079" lon="05.645861"><ele>38.2</ele><time>2022-04-13T13:10:15Z</time><name>PT6302</name></trkpt>
<trkpt lat="52.093071" lon="05.645881"><ele>38.2</ele><time>2022-04-13T13:10:16Z</time><name>PT6303</name></trkpt>
<trkpt lat="52.093063" lon="05.645889"><ele>38.4</ele><time>2022-04-13T13:10:17Z</time><name>PT6304</name></trkpt>
<trkpt lat="52.093057" lon="05.645902"><ele>38.3</ele><time>2022-04-13T13:10:18Z</time><name>PT6305</name></trkpt>
<trkpt lat="52.093055" lon="05.645914"><ele>38</ele><time>2022-04-13T13:10:19Z</time><name>PT6306</name></trkpt>
<trkpt lat="52.093049" lon="05.645932"><ele>38</ele><time>2022-04-13T13:10:20Z</time><name>PT6307</name></trkpt>
<trkpt lat="52.093046" lon="05.645949"><ele>38</ele><time>2022-04-13T13:10:21Z</time><name>PT6308</name></trkpt>
<trkpt lat="52.093038" lon="05.645961"><ele>38</ele><time>2022-04-13T13:10:22Z</time><name>PT6309</name></trkpt>
<trkpt lat="52.093033" lon="05.645967"><ele>38</ele><time>2022-04-13T13:10:23Z</time><name>PT6310</name></trkpt>
<trkpt lat="52.093027" lon="05.645982"><ele>38.2</ele><time>2022-04-13T13:10:24Z</time><name>PT6311</name></trkpt>
<trkpt lat="52.093021" lon="05.646001"><ele>38.4</ele><time>2022-04-13T13:10:25Z</time><name>PT6312</name></trkpt>
<trkpt lat="52.093017" lon="05.646029"><ele>38.3</ele><time>2022-04-13T13:10:26Z</time><name>PT6313</name></trkpt>
<trkpt lat="52.093008" lon="05.646041"><ele>38.2</ele><time>2022-04-13T13:10:27Z</time><name>PT6314</name></trkpt>
<trkpt lat="52.093001" lon="05.646059"><ele>38.1</ele><time>2022-04-13T13:10:28Z</time><name>PT6315</name></trkpt>
<trkpt lat="52.092997" lon="05.646078"><ele>38.3</ele><time>2022-04-13T13:10:29Z</time><name>PT6316</name></trkpt>
<trkpt lat="52.092992" lon="05.646098"><ele>38.2</ele><time>2022-04-13T13:10:30Z</time><name>PT6317</name></trkpt>
<trkpt lat="52.092988" lon="05.646111"><ele>38.4</ele><time>2022-04-13T13:10:31Z</time><name>PT6318</name></trkpt>
<trkpt lat="52.092981" lon="05.646131"><ele>38.4</ele><time>2022-04-13T13:10:32Z</time><name>PT6319</name></trkpt>
<trkpt lat="52.092973" lon="05.646146"><ele>38.4</ele><time>2022-04-13T13:10:33Z</time><name>PT6320</name></trkpt>
<trkpt lat="52.092966" lon="05.646160"><ele>38.4</ele><time>2022-04-13T13:10:34Z</time><name>PT6321</name></trkpt>
<trkpt lat="52.092959" lon="05.646174"><ele>38.4</ele><time>2022-04-13T13:10:35Z</time><name>PT6322</name></trkpt>
<trkpt lat="52.092952" lon="05.646191"><ele>38.4</ele><time>2022-04-13T13:10:36Z</time><name>PT6323</name></trkpt>
<trkpt lat="52.092947" lon="05.646206"><ele>38.4</ele><time>2022-04-13T13:10:37Z</time><name>PT6324</name></trkpt>
<trkpt lat="52.092940" lon="05.646217"><ele>38.4</ele><time>2022-04-13T13:10:38Z</time><name>PT6325</name></trkpt>
<trkpt lat="52.092934" lon="05.646236"><ele>38.4</ele><time>2022-04-13T13:10:39Z</time><name>PT6326</name></trkpt>
<trkpt lat="52.092929" lon="05.646244"><ele>38.4</ele><time>2022-04-13T13:10:40Z</time><name>PT6327</name></trkpt>
<trkpt lat="52.092924" lon="05.646256"><ele>38.3</ele><time>2022-04-13T13:10:41Z</time><name>PT6328</name></trkpt>
<trkpt lat="52.092919" lon="05.646271"><ele>38.3</ele><time>2022-04-13T13:10:42Z</time><name>PT6329</name></trkpt>
<trkpt lat="52.092916" lon="05.646284"><ele>38.2</ele><time>2022-04-13T13:10:43Z</time><name>PT6330</name></trkpt>
<trkpt lat="52.092913" lon="05.646306"><ele>38.2</ele><time>2022-04-13T13:10:44Z</time><name>PT6331</name></trkpt>
<trkpt lat="52.092907" lon="05.646335"><ele>38.3</ele><time>2022-04-13T13:10:45Z</time><name>PT6332</name></trkpt>
<trkpt lat="52.092903" lon="05.646348"><ele>38.3</ele><time>2022-04-13T13:10:46Z</time><name>PT6333</name></trkpt>
<trkpt lat="52.092895" lon="05.646365"><ele>38.1</ele><time>2022-04-13T13:10:47Z</time><name>PT6334</name></trkpt>
<trkpt lat="52.092887" lon="05.646376"><ele>38.1</ele><time>2022-04-13T13:10:48Z</time><name>PT6335</name></trkpt>
<trkpt lat="52.092880" lon="05.646379"><ele>38.1</ele><time>2022-04-13T13:10:49Z</time><name>PT6336</name></trkpt>
<trkpt lat="52.092874" lon="05.646390"><ele>38.2</ele><time>2022-04-13T13:10:50Z</time><name>PT6337</name></trkpt>
<trkpt lat="52.092864" lon="05.646397"><ele>38.2</ele><time>2022-04-13T13:10:51Z</time><name>PT6338</name></trkpt>
<trkpt lat="52.092856" lon="05.646412"><ele>38.3</ele><time>2022-04-13T13:10:52Z</time><name>PT6339</name></trkpt>
<trkpt lat="52.092849" lon="05.646424"><ele>38.3</ele><time>2022-04-13T13:10:53Z</time><name>PT6340</name></trkpt>
<trkpt lat="52.092839" lon="05.646443"><ele>38.2</ele><time>2022-04-13T13:10:54Z</time><name>PT6341</name></trkpt>
<trkpt lat="52.092828" lon="05.646459"><ele>38.4</ele><time>2022-04-13T13:10:55Z</time><name>PT6342</name></trkpt>
<trkpt lat="52.092818" lon="05.646488"><ele>38.4</ele><time>2022-04-13T13:10:56Z</time><name>PT6343</name></trkpt>
<trkpt lat="52.092806" lon="05.646519"><ele>38.3</ele><time>2022-04-13T13:10:57Z</time><name>PT6344</name></trkpt>
<trkpt lat="52.092800" lon="05.646531"><ele>38.4</ele><time>2022-04-13T13:10:58Z</time><name>PT6345</name></trkpt>
<trkpt lat="52.092790" lon="05.646539"><ele>38.4</ele><time>2022-04-13T13:10:59Z</time><name>PT6346</name></trkpt>
<trkpt lat="52.092778" lon="05.646549"><ele>38.3</ele><time>2022-04-13T13:11:00Z</time><name>PT6347</name></trkpt>
<trkpt lat="52.092770" lon="05.646558"><ele>38.3</ele><time>2022-04-13T13:11:01Z</time><name>PT6348</name></trkpt>
<trkpt lat="52.092767" lon="05.646565"><ele>38</ele><time>2022-04-13T13:11:02Z</time><name>PT6349</name></trkpt>
<trkpt lat="52.092758" lon="05.646574"><ele>38</ele><time>2022-04-13T13:11:03Z</time><name>PT6350</name></trkpt>
<trkpt lat="52.092751" lon="05.646578"><ele>37.9</ele><time>2022-04-13T13:11:04Z</time><name>PT6351</name></trkpt>
<trkpt lat="52.092743" lon="05.646588"><ele>37.9</ele><time>2022-04-13T13:11:05Z</time><name>PT6352</name></trkpt>
<trkpt lat="52.092737" lon="05.646591"><ele>37.9</ele><time>2022-04-13T13:11:06Z</time><name>PT6353</name></trkpt>
<trkpt lat="52.092730" lon="05.646590"><ele>37.9</ele><time>2022-04-13T13:11:07Z</time><name>PT6354</name></trkpt>
<trkpt lat="52.092721" lon="05.646590"><ele>37.9</ele><time>2022-04-13T13:11:08Z</time><name>PT6355</name></trkpt>
<trkpt lat="52.092712" lon="05.646590"><ele>37.9</ele><time>2022-04-13T13:11:09Z</time><name>PT6356</name></trkpt>
<trkpt lat="52.092702" lon="05.646596"><ele>37.8</ele><time>2022-04-13T13:11:10Z</time><name>PT6357</name></trkpt>
<trkpt lat="52.092692" lon="05.646604"><ele>37.7</ele><time>2022-04-13T13:11:11Z</time><name>PT6358</name></trkpt>
<trkpt lat="52.092683" lon="05.646611"><ele>37.8</ele><time>2022-04-13T13:11:12Z</time><name>PT6359</name></trkpt>
<trkpt lat="52.092672" lon="05.646621"><ele>37.9</ele><time>2022-04-13T13:11:13Z</time><name>PT6360</name></trkpt>
<trkpt lat="52.092663" lon="05.646623"><ele>37.8</ele><time>2022-04-13T13:11:14Z</time><name>PT6361</name></trkpt>
<trkpt lat="52.092652" lon="05.646631"><ele>37.9</ele><time>2022-04-13T13:11:15Z</time><name>PT6362</name></trkpt>
<trkpt lat="52.092642" lon="05.646636"><ele>37.8</ele><time>2022-04-13T13:11:16Z</time><name>PT6363</name></trkpt>
<trkpt lat="52.092631" lon="05.646645"><ele>37.8</ele><time>2022-04-13T13:11:17Z</time><name>PT6364</name></trkpt>
<trkpt lat="52.092621" lon="05.646655"><ele>37.8</ele><time>2022-04-13T13:11:18Z</time><name>PT6365</name></trkpt>
<trkpt lat="52.092607" lon="05.646664"><ele>37.8</ele><time>2022-04-13T13:11:19Z</time><name>PT6366</name></trkpt>
<trkpt lat="52.092594" lon="05.646671"><ele>37.7</ele><time>2022-04-13T13:11:20Z</time><name>PT6367</name></trkpt>
<trkpt lat="52.092584" lon="05.646680"><ele>37.6</ele><time>2022-04-13T13:11:21Z</time><name>PT6368</name></trkpt>
<trkpt lat="52.092572" lon="05.646690"><ele>37.5</ele><time>2022-04-13T13:11:22Z</time><name>PT6369</name></trkpt>
<trkpt lat="52.092566" lon="05.646698"><ele>37.5</ele><time>2022-04-13T13:11:23Z</time><name>PT6370</name></trkpt>
<trkpt lat="52.092559" lon="05.646703"><ele>37.7</ele><time>2022-04-13T13:11:24Z</time><name>PT6371</name></trkpt>
<trkpt lat="52.092548" lon="05.646711"><ele>37.8</ele><time>2022-04-13T13:11:25Z</time><name>PT6372</name></trkpt>
<trkpt lat="52.092537" lon="05.646716"><ele>37.9</ele><time>2022-04-13T13:11:26Z</time><name>PT6373</name></trkpt>
<trkpt lat="52.092528" lon="05.646723"><ele>37.6</ele><time>2022-04-13T13:11:27Z</time><name>PT6374</name></trkpt>
<trkpt lat="52.092517" lon="05.646727"><ele>37.5</ele><time>2022-04-13T13:11:28Z</time><name>PT6375</name></trkpt>
<trkpt lat="52.092507" lon="05.646735"><ele>37.2</ele><time>2022-04-13T13:11:29Z</time><name>PT6376</name></trkpt>
<trkpt lat="52.092497" lon="05.646739"><ele>37.3</ele><time>2022-04-13T13:11:30Z</time><name>PT6377</name></trkpt>
<trkpt lat="52.092490" lon="05.646740"><ele>37.4</ele><time>2022-04-13T13:11:31Z</time><name>PT6378</name></trkpt>
<trkpt lat="52.092482" lon="05.646741"><ele>37.3</ele><time>2022-04-13T13:11:32Z</time><name>PT6379</name></trkpt>
<trkpt lat="52.092473" lon="05.646746"><ele>37.4</ele><time>2022-04-13T13:11:33Z</time><name>PT6380</name></trkpt>
<trkpt lat="52.092462" lon="05.646744"><ele>37.4</ele><time>2022-04-13T13:11:34Z</time><name>PT6381</name></trkpt>
<trkpt lat="52.092454" lon="05.646751"><ele>37.3</ele><time>2022-04-13T13:11:35Z</time><name>PT6382</name></trkpt>
<trkpt lat="52.092446" lon="05.646751"><ele>37.5</ele><time>2022-04-13T13:11:36Z</time><name>PT6383</name></trkpt>
<trkpt lat="52.092441" lon="05.646754"><ele>37.3</ele><time>2022-04-13T13:11:37Z</time><name>PT6384</name></trkpt>
<trkpt lat="52.092432" lon="05.646752"><ele>37.1</ele><time>2022-04-13T13:11:38Z</time><name>PT6385</name></trkpt>
<trkpt lat="52.092426" lon="05.646751"><ele>37.2</ele><time>2022-04-13T13:11:39Z</time><name>PT6386</name></trkpt>
<trkpt lat="52.092422" lon="05.646750"><ele>37.2</ele><time>2022-04-13T13:11:40Z</time><name>PT6387</name></trkpt>
<trkpt lat="52.092421" lon="05.646751"><ele>37.3</ele><time>2022-04-13T13:11:41Z</time><name>PT6388</name></trkpt>
<trkpt lat="52.092418" lon="05.646753"><ele>37.4</ele><time>2022-04-13T13:11:42Z</time><name>PT6389</name></trkpt>
<trkpt lat="52.092414" lon="05.646750"><ele>37.2</ele><time>2022-04-13T13:11:53Z</time><name>PT6390</name></trkpt>
<trkpt lat="52.092405" lon="05.646750"><ele>37</ele><time>2022-04-13T13:11:54Z</time><name>PT6391</name></trkpt>
<trkpt lat="52.092395" lon="05.646736"><ele>37</ele><time>2022-04-13T13:11:55Z</time><name>PT6392</name></trkpt>
<trkpt lat="52.092379" lon="05.646737"><ele>37</ele><time>2022-04-13T13:11:56Z</time><name>PT6393</name></trkpt>
<trkpt lat="52.092364" lon="05.646741"><ele>36.9</ele><time>2022-04-13T13:11:57Z</time><name>PT6394</name></trkpt>
<trkpt lat="52.092356" lon="05.646744"><ele>37</ele><time>2022-04-13T13:11:58Z</time><name>PT6395</name></trkpt>
<trkpt lat="52.092348" lon="05.646745"><ele>37</ele><time>2022-04-13T13:11:59Z</time><name>PT6396</name></trkpt>
<trkpt lat="52.092341" lon="05.646751"><ele>37.2</ele><time>2022-04-13T13:12:00Z</time><name>PT6397</name></trkpt>
<trkpt lat="52.092336" lon="05.646755"><ele>37.2</ele><time>2022-04-13T13:12:01Z</time><name>PT6398</name></trkpt>
<trkpt lat="52.092329" lon="05.646751"><ele>37.2</ele><time>2022-04-13T13:12:02Z</time><name>PT6399</name></trkpt>
<trkpt lat="52.092324" lon="05.646743"><ele>37.1</ele><time>2022-04-13T13:12:03Z</time><name>PT6400</name></trkpt>
<trkpt lat="52.092317" lon="05.646736"><ele>37</ele><time>2022-04-13T13:12:04Z</time><name>PT6401</name></trkpt>
<trkpt lat="52.092311" lon="05.646726"><ele>37.1</ele><time>2022-04-13T13:12:05Z</time><name>PT6402</name></trkpt>
<trkpt lat="52.092303" lon="05.646716"><ele>37</ele><time>2022-04-13T13:12:06Z</time><name>PT6403</name></trkpt>
<trkpt lat="52.092299" lon="05.646711"><ele>37</ele><time>2022-04-13T13:12:07Z</time><name>PT6404</name></trkpt>
<trkpt lat="52.092299" lon="05.646708"><ele>37</ele><time>2022-04-13T13:12:08Z</time><name>PT6405</name></trkpt>
<trkpt lat="52.092294" lon="05.646702"><ele>37</ele><time>2022-04-13T13:12:09Z</time><name>PT6406</name></trkpt>
<trkpt lat="52.092287" lon="05.646692"><ele>37</ele><time>2022-04-13T13:12:10Z</time><name>PT6407</name></trkpt>
<trkpt lat="52.092279" lon="05.646690"><ele>37</ele><time>2022-04-13T13:12:11Z</time><name>PT6408</name></trkpt>
<trkpt lat="52.092273" lon="05.646688"><ele>37</ele><time>2022-04-13T13:12:12Z</time><name>PT6409</name></trkpt>
<trkpt lat="52.092264" lon="05.646684"><ele>37.1</ele><time>2022-04-13T13:12:13Z</time><name>PT6410</name></trkpt>
<trkpt lat="52.092260" lon="05.646681"><ele>37</ele><time>2022-04-13T13:12:14Z</time><name>PT6411</name></trkpt>
<trkpt lat="52.092255" lon="05.646677"><ele>37.1</ele><time>2022-04-13T13:12:15Z</time><name>PT6412</name></trkpt>
<trkpt lat="52.092250" lon="05.646675"><ele>37.3</ele><time>2022-04-13T13:12:16Z</time><name>PT6413</name></trkpt>
<trkpt lat="52.092245" lon="05.646670"><ele>37.2</ele><time>2022-04-13T13:12:17Z</time><name>PT6414</name></trkpt>
<trkpt lat="52.092237" lon="05.646665"><ele>37.1</ele><time>2022-04-13T13:12:18Z</time><name>PT6415</name></trkpt>
<trkpt lat="52.092229" lon="05.646662"><ele>37.1</ele><time>2022-04-13T13:12:19Z</time><name>PT6416</name></trkpt>
<trkpt lat="52.092219" lon="05.646657"><ele>37.1</ele><time>2022-04-13T13:12:20Z</time><name>PT6417</name></trkpt>
<trkpt lat="52.092214" lon="05.646655"><ele>37</ele><time>2022-04-13T13:12:21Z</time><name>PT6418</name></trkpt>
<trkpt lat="52.092208" lon="05.646656"><ele>36.9</ele><time>2022-04-13T13:12:22Z</time><name>PT6419</name></trkpt>
<trkpt lat="52.092200" lon="05.646653"><ele>36.8</ele><time>2022-04-13T13:12:23Z</time><name>PT6420</name></trkpt>
<trkpt lat="52.092191" lon="05.646654"><ele>36.6</ele><time>2022-04-13T13:12:24Z</time><name>PT6421</name></trkpt>
<trkpt lat="52.092183" lon="05.646652"><ele>36.5</ele><time>2022-04-13T13:12:25Z</time><name>PT6422</name></trkpt>
<trkpt lat="52.092173" lon="05.646651"><ele>36.7</ele><time>2022-04-13T13:12:26Z</time><name>PT6423</name></trkpt>
<trkpt lat="52.092164" lon="05.646648"><ele>36.7</ele><time>2022-04-13T13:12:27Z</time><name>PT6424</name></trkpt>
<trkpt lat="52.092156" lon="05.646646"><ele>36.7</ele><time>2022-04-13T13:12:28Z</time><name>PT6425</name></trkpt>
<trkpt lat="52.092146" lon="05.646641"><ele>36.7</ele><time>2022-04-13T13:12:29Z</time><name>PT6426</name></trkpt>
<trkpt lat="52.092139" lon="05.646640"><ele>36.7</ele><time>2022-04-13T13:12:30Z</time><name>PT6427</name></trkpt>
<trkpt lat="52.092130" lon="05.646635"><ele>36.6</ele><time>2022-04-13T13:12:31Z</time><name>PT6428</name></trkpt>
<trkpt lat="52.092122" lon="05.646631"><ele>36.5</ele><time>2022-04-13T13:12:32Z</time><name>PT6429</name></trkpt>
<trkpt lat="52.092114" lon="05.646632"><ele>36.5</ele><time>2022-04-13T13:12:33Z</time><name>PT6430</name></trkpt>
<trkpt lat="52.092104" lon="05.646632"><ele>36.6</ele><time>2022-04-13T13:12:34Z</time><name>PT6431</name></trkpt>
<trkpt lat="52.092093" lon="05.646627"><ele>36.7</ele><time>2022-04-13T13:12:35Z</time><name>PT6432</name></trkpt>
<trkpt lat="52.092078" lon="05.646619"><ele>37</ele><time>2022-04-13T13:12:36Z</time><name>PT6433</name></trkpt>
<trkpt lat="52.092065" lon="05.646615"><ele>37.1</ele><time>2022-04-13T13:12:37Z</time><name>PT6434</name></trkpt>
<trkpt lat="52.092055" lon="05.646610"><ele>37</ele><time>2022-04-13T13:12:38Z</time><name>PT6435</name></trkpt>
<trkpt lat="52.092045" lon="05.646607"><ele>36.9</ele><time>2022-04-13T13:12:39Z</time><name>PT6436</name></trkpt>
<trkpt lat="52.092035" lon="05.646602"><ele>36.8</ele><time>2022-04-13T13:12:40Z</time><name>PT6437</name></trkpt>
<trkpt lat="52.092027" lon="05.646601"><ele>36.5</ele><time>2022-04-13T13:12:41Z</time><name>PT6438</name></trkpt>
<trkpt lat="52.092017" lon="05.646597"><ele>36.4</ele><time>2022-04-13T13:12:42Z</time><name>PT6439</name></trkpt>
<trkpt lat="52.092004" lon="05.646596"><ele>36.4</ele><time>2022-04-13T13:12:43Z</time><name>PT6440</name></trkpt>
<trkpt lat="52.091994" lon="05.646593"><ele>36.4</ele><time>2022-04-13T13:12:44Z</time><name>PT6441</name></trkpt>
<trkpt lat="52.091985" lon="05.646591"><ele>36.4</ele><time>2022-04-13T13:12:45Z</time><name>PT6442</name></trkpt>
<trkpt lat="52.091976" lon="05.646587"><ele>36.5</ele><time>2022-04-13T13:12:46Z</time><name>PT6443</name></trkpt>
<trkpt lat="52.091963" lon="05.646587"><ele>36.5</ele><time>2022-04-13T13:12:47Z</time><name>PT6444</name></trkpt>
<trkpt lat="52.091955" lon="05.646585"><ele>36.5</ele><time>2022-04-13T13:12:48Z</time><name>PT6445</name></trkpt>
<trkpt lat="52.091945" lon="05.646583"><ele>36.5</ele><time>2022-04-13T13:12:49Z</time><name>PT6446</name></trkpt>
<trkpt lat="52.091935" lon="05.646577"><ele>36.4</ele><time>2022-04-13T13:12:50Z</time><name>PT6447</name></trkpt>
<trkpt lat="52.091926" lon="05.646572"><ele>36.4</ele><time>2022-04-13T13:12:51Z</time><name>PT6448</name></trkpt>
<trkpt lat="52.091918" lon="05.646566"><ele>36.5</ele><time>2022-04-13T13:12:52Z</time><name>PT6449</name></trkpt>
<trkpt lat="52.091913" lon="05.646566"><ele>36.6</ele><time>2022-04-13T13:12:53Z</time><name>PT6450</name></trkpt>
<trkpt lat="52.091906" lon="05.646565"><ele>36.7</ele><time>2022-04-13T13:12:54Z</time><name>PT6451</name></trkpt>
<trkpt lat="52.091902" lon="05.646570"><ele>36.7</ele><time>2022-04-13T13:12:55Z</time><name>PT6452</name></trkpt>
<trkpt lat="52.091895" lon="05.646571"><ele>36.8</ele><time>2022-04-13T13:12:56Z</time><name>PT6453</name></trkpt>
<trkpt lat="52.091884" lon="05.646574"><ele>36.6</ele><time>2022-04-13T13:12:57Z</time><name>PT6454</name></trkpt>
<trkpt lat="52.091875" lon="05.646575"><ele>36.7</ele><time>2022-04-13T13:12:58Z</time><name>PT6455</name></trkpt>
<trkpt lat="52.091866" lon="05.646572"><ele>36.8</ele><time>2022-04-13T13:12:59Z</time><name>PT6456</name></trkpt>
<trkpt lat="52.091858" lon="05.646568"><ele>37</ele><time>2022-04-13T13:13:00Z</time><name>PT6457</name></trkpt>
<trkpt lat="52.091849" lon="05.646564"><ele>37</ele><time>2022-04-13T13:13:01Z</time><name>PT6458</name></trkpt>
<trkpt lat="52.091837" lon="05.646565"><ele>37</ele><time>2022-04-13T13:13:02Z</time><name>PT6459</name></trkpt>
<trkpt lat="52.091826" lon="05.646567"><ele>37</ele><time>2022-04-13T13:13:03Z</time><name>PT6460</name></trkpt>
<trkpt lat="52.091812" lon="05.646573"><ele>37</ele><time>2022-04-13T13:13:04Z</time><name>PT6461</name></trkpt>
<trkpt lat="52.091804" lon="05.646578"><ele>37</ele><time>2022-04-13T13:13:05Z</time><name>PT6462</name></trkpt>
<trkpt lat="52.091793" lon="05.646577"><ele>36.9</ele><time>2022-04-13T13:13:06Z</time><name>PT6463</name></trkpt>
<trkpt lat="52.091784" lon="05.646581"><ele>36.8</ele><time>2022-04-13T13:13:07Z</time><name>PT6464</name></trkpt>
<trkpt lat="52.091770" lon="05.646586"><ele>36.7</ele><time>2022-04-13T13:13:08Z</time><name>PT6465</name></trkpt>
<trkpt lat="52.091762" lon="05.646587"><ele>36.7</ele><time>2022-04-13T13:13:09Z</time><name>PT6466</name></trkpt>
<trkpt lat="52.091753" lon="05.646588"><ele>36.5</ele><time>2022-04-13T13:13:10Z</time><name>PT6467</name></trkpt>
<trkpt lat="52.091745" lon="05.646592"><ele>36.6</ele><time>2022-04-13T13:13:11Z</time><name>PT6468</name></trkpt>
<trkpt lat="52.091737" lon="05.646598"><ele>36.5</ele><time>2022-04-13T13:13:12Z</time><name>PT6469</name></trkpt>
<trkpt lat="52.091728" lon="05.646601"><ele>36.5</ele><time>2022-04-13T13:13:13Z</time><name>PT6470</name></trkpt>
<trkpt lat="52.091717" lon="05.646605"><ele>36.5</ele><time>2022-04-13T13:13:14Z</time><name>PT6471</name></trkpt>
<trkpt lat="52.091703" lon="05.646606"><ele>36.4</ele><time>2022-04-13T13:13:15Z</time><name>PT6472</name></trkpt>
<trkpt lat="52.091690" lon="05.646608"><ele>36.5</ele><time>2022-04-13T13:13:16Z</time><name>PT6473</name></trkpt>
<trkpt lat="52.091681" lon="05.646614"><ele>36.3</ele><time>2022-04-13T13:13:17Z</time><name>PT6474</name></trkpt>
<trkpt lat="52.091669" lon="05.646618"><ele>36.3</ele><time>2022-04-13T13:13:18Z</time><name>PT6475</name></trkpt>
<trkpt lat="52.091656" lon="05.646618"><ele>36.3</ele><time>2022-04-13T13:13:19Z</time><name>PT6476</name></trkpt>
<trkpt lat="52.091642" lon="05.646622"><ele>36.2</ele><time>2022-04-13T13:13:20Z</time><name>PT6477</name></trkpt>
<trkpt lat="52.091631" lon="05.646620"><ele>36.3</ele><time>2022-04-13T13:13:21Z</time><name>PT6478</name></trkpt>
<trkpt lat="52.091618" lon="05.646620"><ele>36.2</ele><time>2022-04-13T13:13:22Z</time><name>PT6479</name></trkpt>
<trkpt lat="52.091608" lon="05.646623"><ele>36.1</ele><time>2022-04-13T13:13:23Z</time><name>PT6480</name></trkpt>
<trkpt lat="52.091595" lon="05.646624"><ele>36</ele><time>2022-04-13T13:13:24Z</time><name>PT6481</name></trkpt>
<trkpt lat="52.091585" lon="05.646624"><ele>35.9</ele><time>2022-04-13T13:13:25Z</time><name>PT6482</name></trkpt>
<trkpt lat="52.091574" lon="05.646626"><ele>35.8</ele><time>2022-04-13T13:13:26Z</time><name>PT6483</name></trkpt>
<trkpt lat="52.091563" lon="05.646627"><ele>35.7</ele><time>2022-04-13T13:13:27Z</time><name>PT6484</name></trkpt>
<trkpt lat="52.091555" lon="05.646630"><ele>35.5</ele><time>2022-04-13T13:13:28Z</time><name>PT6485</name></trkpt>
<trkpt lat="52.091544" lon="05.646632"><ele>35.7</ele><time>2022-04-13T13:13:29Z</time><name>PT6486</name></trkpt>
<trkpt lat="52.091532" lon="05.646636"><ele>35.5</ele><time>2022-04-13T13:13:30Z</time><name>PT6487</name></trkpt>
<trkpt lat="52.091522" lon="05.646637"><ele>35.5</ele><time>2022-04-13T13:13:31Z</time><name>PT6488</name></trkpt>
<trkpt lat="52.091513" lon="05.646638"><ele>35.6</ele><time>2022-04-13T13:13:32Z</time><name>PT6489</name></trkpt>
<trkpt lat="52.091502" lon="05.646637"><ele>35.5</ele><time>2022-04-13T13:13:33Z</time><name>PT6490</name></trkpt>
<trkpt lat="52.091497" lon="05.646640"><ele>35.4</ele><time>2022-04-13T13:13:34Z</time><name>PT6491</name></trkpt>
<trkpt lat="52.091492" lon="05.646639"><ele>35.5</ele><time>2022-04-13T13:13:35Z</time><name>PT6492</name></trkpt>
<trkpt lat="52.091481" lon="05.646635"><ele>35.4</ele><time>2022-04-13T13:13:36Z</time><name>PT6493</name></trkpt>
<trkpt lat="52.091472" lon="05.646632"><ele>35.5</ele><time>2022-04-13T13:13:37Z</time><name>PT6494</name></trkpt>
<trkpt lat="52.091463" lon="05.646621"><ele>35.6</ele><time>2022-04-13T13:13:38Z</time><name>PT6495</name></trkpt>
<trkpt lat="52.091454" lon="05.646614"><ele>35.6</ele><time>2022-04-13T13:13:39Z</time><name>PT6496</name></trkpt>
<trkpt lat="52.091445" lon="05.646604"><ele>35.8</ele><time>2022-04-13T13:13:40Z</time><name>PT6497</name></trkpt>
<trkpt lat="52.091436" lon="05.646596"><ele>35.6</ele><time>2022-04-13T13:13:41Z</time><name>PT6498</name></trkpt>
<trkpt lat="52.091427" lon="05.646592"><ele>35.6</ele><time>2022-04-13T13:13:42Z</time><name>PT6499</name></trkpt>
<trkpt lat="52.091419" lon="05.646586"><ele>35.5</ele><time>2022-04-13T13:13:43Z</time><name>PT6500</name></trkpt>
<trkpt lat="52.091410" lon="05.646578"><ele>35.4</ele><time>2022-04-13T13:13:44Z</time><name>PT6501</name></trkpt>
<trkpt lat="52.091395" lon="05.646576"><ele>35.5</ele><time>2022-04-13T13:13:45Z</time><name>PT6502</name></trkpt>
<trkpt lat="52.091387" lon="05.646571"><ele>35.5</ele><time>2022-04-13T13:13:46Z</time><name>PT6503</name></trkpt>
<trkpt lat="52.091379" lon="05.646569"><ele>35.5</ele><time>2022-04-13T13:13:47Z</time><name>PT6504</name></trkpt>
<trkpt lat="52.091370" lon="05.646566"><ele>35.5</ele><time>2022-04-13T13:13:48Z</time><name>PT6505</name></trkpt>
<trkpt lat="52.091362" lon="05.646559"><ele>35.4</ele><time>2022-04-13T13:13:49Z</time><name>PT6506</name></trkpt>
<trkpt lat="52.091354" lon="05.646551"><ele>35.2</ele><time>2022-04-13T13:13:50Z</time><name>PT6507</name></trkpt>
<trkpt lat="52.091345" lon="05.646544"><ele>35.1</ele><time>2022-04-13T13:13:51Z</time><name>PT6508</name></trkpt>
<trkpt lat="52.091337" lon="05.646540"><ele>35</ele><time>2022-04-13T13:13:52Z</time><name>PT6509</name></trkpt>
<trkpt lat="52.091328" lon="05.646539"><ele>35</ele><time>2022-04-13T13:13:53Z</time><name>PT6510</name></trkpt>
<trkpt lat="52.091317" lon="05.646533"><ele>35</ele><time>2022-04-13T13:13:54Z</time><name>PT6511</name></trkpt>
<trkpt lat="52.091306" lon="05.646525"><ele>35</ele><time>2022-04-13T13:13:55Z</time><name>PT6512</name></trkpt>
<trkpt lat="52.091295" lon="05.646518"><ele>35</ele><time>2022-04-13T13:13:56Z</time><name>PT6513</name></trkpt>
<trkpt lat="52.091287" lon="05.646517"><ele>35</ele><time>2022-04-13T13:13:57Z</time><name>PT6514</name></trkpt>
<trkpt lat="52.091278" lon="05.646513"><ele>35</ele><time>2022-04-13T13:13:58Z</time><name>PT6515</name></trkpt>
<trkpt lat="52.091268" lon="05.646509"><ele>35.2</ele><time>2022-04-13T13:13:59Z</time><name>PT6516</name></trkpt>
<trkpt lat="52.091258" lon="05.646496"><ele>35.3</ele><time>2022-04-13T13:14:00Z</time><name>PT6517</name></trkpt>
<trkpt lat="52.091248" lon="05.646487"><ele>35.5</ele><time>2022-04-13T13:14:01Z</time><name>PT6518</name></trkpt>
<trkpt lat="52.091239" lon="05.646480"><ele>35.5</ele><time>2022-04-13T13:14:02Z</time><name>PT6519</name></trkpt>
<trkpt lat="52.091226" lon="05.646480"><ele>35.3</ele><time>2022-04-13T13:14:03Z</time><name>PT6520</name></trkpt>
<trkpt lat="52.091216" lon="05.646478"><ele>35.2</ele><time>2022-04-13T13:14:04Z</time><name>PT6521</name></trkpt>
<trkpt lat="52.091206" lon="05.646475"><ele>35.2</ele><time>2022-04-13T13:14:05Z</time><name>PT6522</name></trkpt>
<trkpt lat="52.091202" lon="05.646475"><ele>35.1</ele><time>2022-04-13T13:14:06Z</time><name>PT6523</name></trkpt>
<trkpt lat="52.091199" lon="05.646474"><ele>35.3</ele><time>2022-04-13T13:14:07Z</time><name>PT6524</name></trkpt>
<trkpt lat="52.091193" lon="05.646471"><ele>35.3</ele><time>2022-04-13T13:14:08Z</time><name>PT6525</name></trkpt>
<trkpt lat="52.091196" lon="05.646468"><ele>35.2</ele><time>2022-04-13T13:15:40Z</time><name>PT6526</name></trkpt>
<trkpt lat="52.091187" lon="05.646474"><ele>35</ele><time>2022-04-13T13:15:41Z</time><name>PT6527</name></trkpt>
<trkpt lat="52.091176" lon="05.646481"><ele>35</ele><time>2022-04-13T13:15:42Z</time><name>PT6528</name></trkpt>
<trkpt lat="52.091168" lon="05.646489"><ele>35</ele><time>2022-04-13T13:15:43Z</time><name>PT6529</name></trkpt>
<trkpt lat="52.091163" lon="05.646495"><ele>35</ele><time>2022-04-13T13:15:44Z</time><name>PT6530</name></trkpt>
<trkpt lat="52.091158" lon="05.646502"><ele>35.1</ele><time>2022-04-13T13:15:45Z</time><name>PT6531</name></trkpt>
<trkpt lat="52.091151" lon="05.646510"><ele>35.1</ele><time>2022-04-13T13:15:46Z</time><name>PT6532</name></trkpt>
<trkpt lat="52.091147" lon="05.646520"><ele>35.4</ele><time>2022-04-13T13:15:47Z</time><name>PT6533</name></trkpt>
<trkpt lat="52.091145" lon="05.646535"><ele>35.4</ele><time>2022-04-13T13:15:48Z</time><name>PT6534</name></trkpt>
<trkpt lat="52.091143" lon="05.646543"><ele>35.2</ele><time>2022-04-13T13:15:49Z</time><name>PT6535</name></trkpt>
<trkpt lat="52.091144" lon="05.646549"><ele>35.1</ele><time>2022-04-13T13:15:50Z</time><name>PT6536</name></trkpt>
<trkpt lat="52.091142" lon="05.646554"><ele>35</ele><time>2022-04-13T13:15:51Z</time><name>PT6537</name></trkpt>
<trkpt lat="52.091141" lon="05.646562"><ele>35</ele><time>2022-04-13T13:15:52Z</time><name>PT6538</name></trkpt>
<trkpt lat="52.091141" lon="05.646571"><ele>35.3</ele><time>2022-04-13T13:15:53Z</time><name>PT6539</name></trkpt>
<trkpt lat="52.091143" lon="05.646578"><ele>35.4</ele><time>2022-04-13T13:15:54Z</time><name>PT6540</name></trkpt>
<trkpt lat="52.091141" lon="05.646590"><ele>35.5</ele><time>2022-04-13T13:15:55Z</time><name>PT6541</name></trkpt>
<trkpt lat="52.091143" lon="05.646597"><ele>35.3</ele><time>2022-04-13T13:15:56Z</time><name>PT6542</name></trkpt>
<trkpt lat="52.091145" lon="05.646607"><ele>35.3</ele><time>2022-04-13T13:15:57Z</time><name>PT6543</name></trkpt>
<trkpt lat="52.091143" lon="05.646621"><ele>35.3</ele><time>2022-04-13T13:15:58Z</time><name>PT6544</name></trkpt>
<trkpt lat="52.091143" lon="05.646630"><ele>35.4</ele><time>2022-04-13T13:15:59Z</time><name>PT6545</name></trkpt>
<trkpt lat="52.091140" lon="05.646637"><ele>35.5</ele><time>2022-04-13T13:16:00Z</time><name>PT6546</name></trkpt>
<trkpt lat="52.091137" lon="05.646656"><ele>35.6</ele><time>2022-04-13T13:16:01Z</time><name>PT6547</name></trkpt>
<trkpt lat="52.091135" lon="05.646676"><ele>35.4</ele><time>2022-04-13T13:16:02Z</time><name>PT6548</name></trkpt>
<trkpt lat="52.091137" lon="05.646697"><ele>35.5</ele><time>2022-04-13T13:16:03Z</time><name>PT6549</name></trkpt>
<trkpt lat="52.091140" lon="05.646711"><ele>35.2</ele><time>2022-04-13T13:16:04Z</time><name>PT6550</name></trkpt>
<trkpt lat="52.091143" lon="05.646723"><ele>35</ele><time>2022-04-13T13:16:05Z</time><name>PT6551</name></trkpt>
<trkpt lat="52.091143" lon="05.646733"><ele>35</ele><time>2022-04-13T13:16:06Z</time><name>PT6552</name></trkpt>
<trkpt lat="52.091142" lon="05.646749"><ele>35.2</ele><time>2022-04-13T13:16:07Z</time><name>PT6553</name></trkpt>
<trkpt lat="52.091142" lon="05.646764"><ele>35.3</ele><time>2022-04-13T13:16:08Z</time><name>PT6554</name></trkpt>
<trkpt lat="52.091143" lon="05.646781"><ele>35.4</ele><time>2022-04-13T13:16:09Z</time><name>PT6555</name></trkpt>
<trkpt lat="52.091146" lon="05.646801"><ele>35.5</ele><time>2022-04-13T13:16:10Z</time><name>PT6556</name></trkpt>
<trkpt lat="52.091149" lon="05.646821"><ele>35.5</ele><time>2022-04-13T13:16:11Z</time><name>PT6557</name></trkpt>
<trkpt lat="52.091152" lon="05.646838"><ele>35.5</ele><time>2022-04-13T13:16:12Z</time><name>PT6558</name></trkpt>
<trkpt lat="52.091155" lon="05.646854"><ele>35.3</ele><time>2022-04-13T13:16:13Z</time><name>PT6559</name></trkpt>
<trkpt lat="52.091158" lon="05.646867"><ele>35.3</ele><time>2022-04-13T13:16:14Z</time><name>PT6560</name></trkpt>
<trkpt lat="52.091157" lon="05.646886"><ele>35.4</ele><time>2022-04-13T13:16:15Z</time><name>PT6561</name></trkpt>
<trkpt lat="52.091158" lon="05.646903"><ele>35.4</ele><time>2022-04-13T13:16:16Z</time><name>PT6562</name></trkpt>
<trkpt lat="52.091160" lon="05.646912"><ele>35.4</ele><time>2022-04-13T13:16:17Z</time><name>PT6563</name></trkpt>
<trkpt lat="52.091163" lon="05.646919"><ele>35.4</ele><time>2022-04-13T13:16:18Z</time><name>PT6564</name></trkpt>
<trkpt lat="52.091164" lon="05.646930"><ele>35.5</ele><time>2022-04-13T13:16:19Z</time><name>PT6565</name></trkpt>
<trkpt lat="52.091165" lon="05.646940"><ele>35.3</ele><time>2022-04-13T13:16:20Z</time><name>PT6566</name></trkpt>
<trkpt lat="52.091169" lon="05.646949"><ele>35.2</ele><time>2022-04-13T13:16:21Z</time><name>PT6567</name></trkpt>
<trkpt lat="52.091173" lon="05.646950"><ele>35.1</ele><time>2022-04-13T13:16:22Z</time><name>PT6568</name></trkpt>
<trkpt lat="52.091175" lon="05.646963"><ele>35</ele><time>2022-04-13T13:16:23Z</time><name>PT6569</name></trkpt>
<trkpt lat="52.091174" lon="05.646977"><ele>35</ele><time>2022-04-13T13:16:24Z</time><name>PT6570</name></trkpt>
<trkpt lat="52.091177" lon="05.646987"><ele>35.1</ele><time>2022-04-13T13:16:25Z</time><name>PT6571</name></trkpt>
<trkpt lat="52.091182" lon="05.646997"><ele>35.2</ele><time>2022-04-13T13:16:26Z</time><name>PT6572</name></trkpt>
<trkpt lat="52.091187" lon="05.647008"><ele>35.3</ele><time>2022-04-13T13:16:27Z</time><name>PT6573</name></trkpt>
<trkpt lat="52.091189" lon="05.647016"><ele>35.5</ele><time>2022-04-13T13:16:28Z</time><name>PT6574</name></trkpt>
<trkpt lat="52.091192" lon="05.647026"><ele>35.5</ele><time>2022-04-13T13:16:29Z</time><name>PT6575</name></trkpt>
<trkpt lat="52.091192" lon="05.647037"><ele>35.5</ele><time>2022-04-13T13:16:30Z</time><name>PT6576</name></trkpt>
<trkpt lat="52.091193" lon="05.647047"><ele>35.5</ele><time>2022-04-13T13:16:31Z</time><name>PT6577</name></trkpt>
<trkpt lat="52.091194" lon="05.647062"><ele>35.5</ele><time>2022-04-13T13:16:32Z</time><name>PT6578</name></trkpt>
<trkpt lat="52.091197" lon="05.647068"><ele>35.5</ele><time>2022-04-13T13:16:33Z</time><name>PT6579</name></trkpt>
<trkpt lat="52.091201" lon="05.647075"><ele>35.6</ele><time>2022-04-13T13:16:34Z</time><name>PT6580</name></trkpt>
<trkpt lat="52.091201" lon="05.647093"><ele>35.8</ele><time>2022-04-13T13:16:35Z</time><name>PT6581</name></trkpt>
<trkpt lat="52.091201" lon="05.647110"><ele>35.9</ele><time>2022-04-13T13:16:36Z</time><name>PT6582</name></trkpt>
<trkpt lat="52.091203" lon="05.647113"><ele>35.7</ele><time>2022-04-13T13:16:37Z</time><name>PT6583</name></trkpt>
<trkpt lat="52.091207" lon="05.647121"><ele>35.8</ele><time>2022-04-13T13:16:38Z</time><name>PT6584</name></trkpt>
<trkpt lat="52.091209" lon="05.647135"><ele>35.6</ele><time>2022-04-13T13:16:39Z</time><name>PT6585</name></trkpt>
<trkpt lat="52.091210" lon="05.647150"><ele>35.6</ele><time>2022-04-13T13:16:40Z</time><name>PT6586</name></trkpt>
<trkpt lat="52.091214" lon="05.647157"><ele>35.5</ele><time>2022-04-13T13:16:41Z</time><name>PT6587</name></trkpt>
<trkpt lat="52.091217" lon="05.647171"><ele>35.5</ele><time>2022-04-13T13:16:42Z</time><name>PT6588</name></trkpt>
<trkpt lat="52.091217" lon="05.647185"><ele>35.6</ele><time>2022-04-13T13:16:43Z</time><name>PT6589</name></trkpt>
<trkpt lat="52.091216" lon="05.647201"><ele>35.6</ele><time>2022-04-13T13:16:44Z</time><name>PT6590</name></trkpt>
<trkpt lat="52.091215" lon="05.647211"><ele>35.8</ele><time>2022-04-13T13:16:45Z</time><name>PT6591</name></trkpt>
<trkpt lat="52.091215" lon="05.647219"><ele>35.9</ele><time>2022-04-13T13:16:46Z</time><name>PT6592</name></trkpt>
<trkpt lat="52.091214" lon="05.647229"><ele>35.9</ele><time>2022-04-13T13:16:47Z</time><name>PT6593</name></trkpt>
<trkpt lat="52.091213" lon="05.647231"><ele>36</ele><time>2022-04-13T13:16:48Z</time><name>PT6594</name></trkpt>
<trkpt lat="52.091213" lon="05.647234"><ele>36</ele><time>2022-04-13T13:16:49Z</time><name>PT6595</name></trkpt>
<trkpt lat="52.091213" lon="05.647236"><ele>36</ele><time>2022-04-13T13:16:50Z</time><name>PT6596</name></trkpt>
<trkpt lat="52.091202" lon="05.647278"><ele>35.6</ele><time>2022-04-13T13:17:29Z</time><name>PT6597</name></trkpt>
<trkpt lat="52.091197" lon="05.647300"><ele>35.7</ele><time>2022-04-13T13:17:30Z</time><name>PT6598</name></trkpt>
<trkpt lat="52.091206" lon="05.647314"><ele>36</ele><time>2022-04-13T13:17:31Z</time><name>PT6599</name></trkpt>
<trkpt lat="52.091210" lon="05.647326"><ele>36</ele><time>2022-04-13T13:17:32Z</time><name>PT6600</name></trkpt>
<trkpt lat="52.091214" lon="05.647335"><ele>36.2</ele><time>2022-04-13T13:17:33Z</time><name>PT6601</name></trkpt>
<trkpt lat="52.091234" lon="05.647358"><ele>36.2</ele><time>2022-04-13T13:17:35Z</time><name>PT6602</name></trkpt>
<trkpt lat="52.091238" lon="05.647391"><ele>36.2</ele><time>2022-04-13T13:17:36Z</time><name>PT6603</name></trkpt>
<trkpt lat="52.091242" lon="05.647409"><ele>36</ele><time>2022-04-13T13:17:37Z</time><name>PT6604</name></trkpt>
<trkpt lat="52.091245" lon="05.647430"><ele>36.1</ele><time>2022-04-13T13:17:38Z</time><name>PT6605</name></trkpt>
<trkpt lat="52.091252" lon="05.647449"><ele>36.1</ele><time>2022-04-13T13:17:39Z</time><name>PT6606</name></trkpt>
<trkpt lat="52.091256" lon="05.647468"><ele>36.1</ele><time>2022-04-13T13:17:40Z</time><name>PT6607</name></trkpt>
<trkpt lat="52.091259" lon="05.647486"><ele>36.1</ele><time>2022-04-13T13:17:41Z</time><name>PT6608</name></trkpt>
<trkpt lat="52.091261" lon="05.647504"><ele>36.2</ele><time>2022-04-13T13:17:42Z</time><name>PT6609</name></trkpt>
<trkpt lat="52.091262" lon="05.647521"><ele>36.2</ele><time>2022-04-13T13:17:43Z</time><name>PT6610</name></trkpt>
<trkpt lat="52.091265" lon="05.647541"><ele>36</ele><time>2022-04-13T13:17:44Z</time><name>PT6611</name></trkpt>
<trkpt lat="52.091271" lon="05.647556"><ele>35.8</ele><time>2022-04-13T13:17:45Z</time><name>PT6612</name></trkpt>
<trkpt lat="52.091273" lon="05.647574"><ele>35.7</ele><time>2022-04-13T13:17:46Z</time><name>PT6613</name></trkpt>
<trkpt lat="52.091278" lon="05.647586"><ele>35.8</ele><time>2022-04-13T13:17:47Z</time><name>PT6614</name></trkpt>
<trkpt lat="52.091286" lon="05.647601"><ele>35.8</ele><time>2022-04-13T13:17:48Z</time><name>PT6615</name></trkpt>
<trkpt lat="52.091288" lon="05.647617"><ele>35.9</ele><time>2022-04-13T13:17:49Z</time><name>PT6616</name></trkpt>
<trkpt lat="52.091294" lon="05.647625"><ele>35.8</ele><time>2022-04-13T13:17:50Z</time><name>PT6617</name></trkpt>
<trkpt lat="52.091299" lon="05.647642"><ele>35.9</ele><time>2022-04-13T13:17:51Z</time><name>PT6618</name></trkpt>
<trkpt lat="52.091300" lon="05.647652"><ele>36</ele><time>2022-04-13T13:17:52Z</time><name>PT6619</name></trkpt>
<trkpt lat="52.091301" lon="05.647669"><ele>36.1</ele><time>2022-04-13T13:17:53Z</time><name>PT6620</name></trkpt>
<trkpt lat="52.091302" lon="05.647687"><ele>36.3</ele><time>2022-04-13T13:17:54Z</time><name>PT6621</name></trkpt>
<trkpt lat="52.091303" lon="05.647697"><ele>36.3</ele><time>2022-04-13T13:17:55Z</time><name>PT6622</name></trkpt>
<trkpt lat="52.091306" lon="05.647717"><ele>36.3</ele><time>2022-04-13T13:17:56Z</time><name>PT6623</name></trkpt>
<trkpt lat="52.091312" lon="05.647735"><ele>36.4</ele><time>2022-04-13T13:17:57Z</time><name>PT6624</name></trkpt>
<trkpt lat="52.091316" lon="05.647747"><ele>36.5</ele><time>2022-04-13T13:17:58Z</time><name>PT6625</name></trkpt>
<trkpt lat="52.091321" lon="05.647762"><ele>36.5</ele><time>2022-04-13T13:17:59Z</time><name>PT6626</name></trkpt>
<trkpt lat="52.091323" lon="05.647778"><ele>36.5</ele><time>2022-04-13T13:18:00Z</time><name>PT6627</name></trkpt>
<trkpt lat="52.091324" lon="05.647791"><ele>36.5</ele><time>2022-04-13T13:18:01Z</time><name>PT6628</name></trkpt>
<trkpt lat="52.091327" lon="05.647806"><ele>36.4</ele><time>2022-04-13T13:18:02Z</time><name>PT6629</name></trkpt>
<trkpt lat="52.091327" lon="05.647825"><ele>36.3</ele><time>2022-04-13T13:18:03Z</time><name>PT6630</name></trkpt>
<trkpt lat="52.091330" lon="05.647842"><ele>36.4</ele><time>2022-04-13T13:18:04Z</time><name>PT6631</name></trkpt>
<trkpt lat="52.091332" lon="05.647863"><ele>36.5</ele><time>2022-04-13T13:18:05Z</time><name>PT6632</name></trkpt>
<trkpt lat="52.091335" lon="05.647873"><ele>36.5</ele><time>2022-04-13T13:18:06Z</time><name>PT6633</name></trkpt>
<trkpt lat="52.091339" lon="05.647881"><ele>36.5</ele><time>2022-04-13T13:18:07Z</time><name>PT6634</name></trkpt>
<trkpt lat="52.091341" lon="05.647891"><ele>36.5</ele><time>2022-04-13T13:18:08Z</time><name>PT6635</name></trkpt>
<trkpt lat="52.091340" lon="05.647895"><ele>36.3</ele><time>2022-04-13T13:18:09Z</time><name>PT6636</name></trkpt>
<trkpt lat="52.091339" lon="05.647910"><ele>36.2</ele><time>2022-04-13T13:18:10Z</time><name>PT6637</name></trkpt>
<trkpt lat="52.091341" lon="05.647926"><ele>36.1</ele><time>2022-04-13T13:18:11Z</time><name>PT6638</name></trkpt>
<trkpt lat="52.091340" lon="05.647948"><ele>36.2</ele><time>2022-04-13T13:18:12Z</time><name>PT6639</name></trkpt>
<trkpt lat="52.091341" lon="05.647973"><ele>36.4</ele><time>2022-04-13T13:18:13Z</time><name>PT6640</name></trkpt>
<trkpt lat="52.091347" lon="05.647991"><ele>36.4</ele><time>2022-04-13T13:18:14Z</time><name>PT6641</name></trkpt>
<trkpt lat="52.091354" lon="05.648005"><ele>36.5</ele><time>2022-04-13T13:18:15Z</time><name>PT6642</name></trkpt>
<trkpt lat="52.091361" lon="05.648016"><ele>36.6</ele><time>2022-04-13T13:18:16Z</time><name>PT6643</name></trkpt>
<trkpt lat="52.091367" lon="05.648027"><ele>36.5</ele><time>2022-04-13T13:18:17Z</time><name>PT6644</name></trkpt>
<trkpt lat="52.091370" lon="05.648042"><ele>36.4</ele><time>2022-04-13T13:18:18Z</time><name>PT6645</name></trkpt>
<trkpt lat="52.091369" lon="05.648063"><ele>36.3</ele><time>2022-04-13T13:18:19Z</time><name>PT6646</name></trkpt>
<trkpt lat="52.091371" lon="05.648077"><ele>36.4</ele><time>2022-04-13T13:18:20Z</time><name>PT6647</name></trkpt>
<trkpt lat="52.091374" lon="05.648092"><ele>36.5</ele><time>2022-04-13T13:18:21Z</time><name>PT6648</name></trkpt>
<trkpt lat="52.091375" lon="05.648108"><ele>36.8</ele><time>2022-04-13T13:18:22Z</time><name>PT6649</name></trkpt>
<trkpt lat="52.091381" lon="05.648121"><ele>36.9</ele><time>2022-04-13T13:18:23Z</time><name>PT6650</name></trkpt>
<trkpt lat="52.091388" lon="05.648143"><ele>36.9</ele><time>2022-04-13T13:18:24Z</time><name>PT6651</name></trkpt>
<trkpt lat="52.091389" lon="05.648154"><ele>36.8</ele><time>2022-04-13T13:18:25Z</time><name>PT6652</name></trkpt>
<trkpt lat="52.091389" lon="05.648166"><ele>36.5</ele><time>2022-04-13T13:18:26Z</time><name>PT6653</name></trkpt>
<trkpt lat="52.091392" lon="05.648191"><ele>36.4</ele><time>2022-04-13T13:18:27Z</time><name>PT6654</name></trkpt>
<trkpt lat="52.091393" lon="05.648217"><ele>36.5</ele><time>2022-04-13T13:18:28Z</time><name>PT6655</name></trkpt>
<trkpt lat="52.091395" lon="05.648241"><ele>36.5</ele><time>2022-04-13T13:18:29Z</time><name>PT6656</name></trkpt>
<trkpt lat="52.091400" lon="05.648264"><ele>36.7</ele><time>2022-04-13T13:18:30Z</time><name>PT6657</name></trkpt>
<trkpt lat="52.091404" lon="05.648286"><ele>36.7</ele><time>2022-04-13T13:18:31Z</time><name>PT6658</name></trkpt>
<trkpt lat="52.091406" lon="05.648307"><ele>36.8</ele><time>2022-04-13T13:18:32Z</time><name>PT6659</name></trkpt>
<trkpt lat="52.091409" lon="05.648327"><ele>36.7</ele><time>2022-04-13T13:18:33Z</time><name>PT6660</name></trkpt>
<trkpt lat="52.091413" lon="05.648346"><ele>36.7</ele><time>2022-04-13T13:18:34Z</time><name>PT6661</name></trkpt>
<trkpt lat="52.091415" lon="05.648368"><ele>36.8</ele><time>2022-04-13T13:18:35Z</time><name>PT6662</name></trkpt>
<trkpt lat="52.091418" lon="05.648383"><ele>36.8</ele><time>2022-04-13T13:18:36Z</time><name>PT6663</name></trkpt>
<trkpt lat="52.091423" lon="05.648393"><ele>36.6</ele><time>2022-04-13T13:18:37Z</time><name>PT6664</name></trkpt>
<trkpt lat="52.091427" lon="05.648406"><ele>36.7</ele><time>2022-04-13T13:18:38Z</time><name>PT6665</name></trkpt>
<trkpt lat="52.091430" lon="05.648440"><ele>36.7</ele><time>2022-04-13T13:18:39Z</time><name>PT6666</name></trkpt>
<trkpt lat="52.091432" lon="05.648464"><ele>36.8</ele><time>2022-04-13T13:18:40Z</time><name>PT6667</name></trkpt>
<trkpt lat="52.091434" lon="05.648481"><ele>36.7</ele><time>2022-04-13T13:18:41Z</time><name>PT6668</name></trkpt>
<trkpt lat="52.091433" lon="05.648495"><ele>36.5</ele><time>2022-04-13T13:18:42Z</time><name>PT6669</name></trkpt>
<trkpt lat="52.091435" lon="05.648497"><ele>36.5</ele><time>2022-04-13T13:18:43Z</time><name>PT6670</name></trkpt>
<trkpt lat="52.091436" lon="05.648513"><ele>36.2</ele><time>2022-04-13T13:18:44Z</time><name>PT6671</name></trkpt>
<trkpt lat="52.091437" lon="05.648538"><ele>36.4</ele><time>2022-04-13T13:18:45Z</time><name>PT6672</name></trkpt>
<trkpt lat="52.091440" lon="05.648560"><ele>36.4</ele><time>2022-04-13T13:18:46Z</time><name>PT6673</name></trkpt>
<trkpt lat="52.091442" lon="05.648589"><ele>36.4</ele><time>2022-04-13T13:18:47Z</time><name>PT6674</name></trkpt>
<trkpt lat="52.091446" lon="05.648616"><ele>36.5</ele><time>2022-04-13T13:18:48Z</time><name>PT6675</name></trkpt>
<trkpt lat="52.091448" lon="05.648633"><ele>36.4</ele><time>2022-04-13T13:18:49Z</time><name>PT6676</name></trkpt>
<trkpt lat="52.091450" lon="05.648648"><ele>36.5</ele><time>2022-04-13T13:18:50Z</time><name>PT6677</name></trkpt>
<trkpt lat="52.091455" lon="05.648664"><ele>36.6</ele><time>2022-04-13T13:18:51Z</time><name>PT6678</name></trkpt>
<trkpt lat="52.091459" lon="05.648680"><ele>36.5</ele><time>2022-04-13T13:18:52Z</time><name>PT6679</name></trkpt>
<trkpt lat="52.091460" lon="05.648690"><ele>36.2</ele><time>2022-04-13T13:18:53Z</time><name>PT6680</name></trkpt>
<trkpt lat="52.091464" lon="05.648704"><ele>36.2</ele><time>2022-04-13T13:18:54Z</time><name>PT6681</name></trkpt>
<trkpt lat="52.091474" lon="05.648730"><ele>36.1</ele><time>2022-04-13T13:18:55Z</time><name>PT6682</name></trkpt>
<trkpt lat="52.091478" lon="05.648747"><ele>35.9</ele><time>2022-04-13T13:18:56Z</time><name>PT6683</name></trkpt>
<trkpt lat="52.091478" lon="05.648762"><ele>36</ele><time>2022-04-13T13:18:57Z</time><name>PT6684</name></trkpt>
<trkpt lat="52.091477" lon="05.648774"><ele>36</ele><time>2022-04-13T13:18:58Z</time><name>PT6685</name></trkpt>
<trkpt lat="52.091479" lon="05.648788"><ele>36</ele><time>2022-04-13T13:18:59Z</time><name>PT6686</name></trkpt>
<trkpt lat="52.091481" lon="05.648802"><ele>36</ele><time>2022-04-13T13:19:00Z</time><name>PT6687</name></trkpt>
<trkpt lat="52.091485" lon="05.648819"><ele>36.2</ele><time>2022-04-13T13:19:01Z</time><name>PT6688</name></trkpt>
<trkpt lat="52.091491" lon="05.648834"><ele>36.2</ele><time>2022-04-13T13:19:02Z</time><name>PT6689</name></trkpt>
<trkpt lat="52.091498" lon="05.648853"><ele>36.3</ele><time>2022-04-13T13:19:03Z</time><name>PT6690</name></trkpt>
<trkpt lat="52.091501" lon="05.648865"><ele>36.3</ele><time>2022-04-13T13:19:04Z</time><name>PT6691</name></trkpt>
<trkpt lat="52.091504" lon="05.648886"><ele>36.4</ele><time>2022-04-13T13:19:05Z</time><name>PT6692</name></trkpt>
<trkpt lat="52.091504" lon="05.648898"><ele>36.4</ele><time>2022-04-13T13:19:06Z</time><name>PT6693</name></trkpt>
<trkpt lat="52.091505" lon="05.648907"><ele>36.4</ele><time>2022-04-13T13:19:07Z</time><name>PT6694</name></trkpt>
<trkpt lat="52.091505" lon="05.648928"><ele>36.3</ele><time>2022-04-13T13:19:08Z</time><name>PT6695</name></trkpt>
<trkpt lat="52.091505" lon="05.648936"><ele>36.3</ele><time>2022-04-13T13:19:09Z</time><name>PT6696</name></trkpt>
<trkpt lat="52.091506" lon="05.648942"><ele>36.2</ele><time>2022-04-13T13:19:10Z</time><name>PT6697</name></trkpt>
<trkpt lat="52.091509" lon="05.648957"><ele>36.4</ele><time>2022-04-13T13:19:11Z</time><name>PT6698</name></trkpt>
<trkpt lat="52.091511" lon="05.648973"><ele>36.3</ele><time>2022-04-13T13:19:12Z</time><name>PT6699</name></trkpt>
<trkpt lat="52.091513" lon="05.648986"><ele>36.3</ele><time>2022-04-13T13:19:13Z</time><name>PT6700</name></trkpt>
<trkpt lat="52.091518" lon="05.649003"><ele>36.5</ele><time>2022-04-13T13:19:14Z</time><name>PT6701</name></trkpt>
<trkpt lat="52.091521" lon="05.649017"><ele>36.5</ele><time>2022-04-13T13:19:15Z</time><name>PT6702</name></trkpt>
<trkpt lat="52.091522" lon="05.649029"><ele>36.4</ele><time>2022-04-13T13:19:16Z</time><name>PT6703</name></trkpt>
<trkpt lat="52.091520" lon="05.649042"><ele>36.4</ele><time>2022-04-13T13:19:17Z</time><name>PT6704</name></trkpt>
<trkpt lat="52.091512" lon="05.649053"><ele>36.3</ele><time>2022-04-13T13:19:18Z</time><name>PT6705</name></trkpt>
<trkpt lat="52.091509" lon="05.649064"><ele>36.1</ele><time>2022-04-13T13:19:19Z</time><name>PT6706</name></trkpt>
<trkpt lat="52.091511" lon="05.649079"><ele>36.3</ele><time>2022-04-13T13:19:20Z</time><name>PT6707</name></trkpt>
<trkpt lat="52.091513" lon="05.649085"><ele>36.2</ele><time>2022-04-13T13:19:21Z</time><name>PT6708</name></trkpt>
<trkpt lat="52.091515" lon="05.649092"><ele>36.2</ele><time>2022-04-13T13:19:22Z</time><name>PT6709</name></trkpt>
<trkpt lat="52.091516" lon="05.649098"><ele>36.4</ele><time>2022-04-13T13:19:23Z</time><name>PT6710</name></trkpt>
<trkpt lat="52.091512" lon="05.649119"><ele>36.2</ele><time>2022-04-13T13:19:27Z</time><name>PT6711</name></trkpt>
<trkpt lat="52.091510" lon="05.649140"><ele>36</ele><time>2022-04-13T13:19:28Z</time><name>PT6712</name></trkpt>
<trkpt lat="52.091508" lon="05.649160"><ele>36</ele><time>2022-04-13T13:19:29Z</time><name>PT6713</name></trkpt>
<trkpt lat="52.091512" lon="05.649175"><ele>35.9</ele><time>2022-04-13T13:19:30Z</time><name>PT6714</name></trkpt>
<trkpt lat="52.091515" lon="05.649194"><ele>35.8</ele><time>2022-04-13T13:19:31Z</time><name>PT6715</name></trkpt>
<trkpt lat="52.091517" lon="05.649211"><ele>35.7</ele><time>2022-04-13T13:19:32Z</time><name>PT6716</name></trkpt>
<trkpt lat="52.091519" lon="05.649227"><ele>35.9</ele><time>2022-04-13T13:19:33Z</time><name>PT6717</name></trkpt>
<trkpt lat="52.091524" lon="05.649240"><ele>35.8</ele><time>2022-04-13T13:19:34Z</time><name>PT6718</name></trkpt>
<trkpt lat="52.091525" lon="05.649253"><ele>35.9</ele><time>2022-04-13T13:19:35Z</time><name>PT6719</name></trkpt>
<trkpt lat="52.091525" lon="05.649261"><ele>36</ele><time>2022-04-13T13:19:36Z</time><name>PT6720</name></trkpt>
<trkpt lat="52.091530" lon="05.649273"><ele>36</ele><time>2022-04-13T13:19:37Z</time><name>PT6721</name></trkpt>
<trkpt lat="52.091531" lon="05.649282"><ele>35.9</ele><time>2022-04-13T13:19:38Z</time><name>PT6722</name></trkpt>
<trkpt lat="52.091537" lon="05.649296"><ele>35.9</ele><time>2022-04-13T13:19:39Z</time><name>PT6723</name></trkpt>
<trkpt lat="52.091545" lon="05.649312"><ele>35.9</ele><time>2022-04-13T13:19:40Z</time><name>PT6724</name></trkpt>
<trkpt lat="52.091548" lon="05.649324"><ele>35.8</ele><time>2022-04-13T13:19:41Z</time><name>PT6725</name></trkpt>
<trkpt lat="52.091554" lon="05.649328"><ele>35.7</ele><time>2022-04-13T13:19:42Z</time><name>PT6726</name></trkpt>
<trkpt lat="52.091557" lon="05.649336"><ele>35.8</ele><time>2022-04-13T13:19:43Z</time><name>PT6727</name></trkpt>
<trkpt lat="52.091559" lon="05.649345"><ele>35.8</ele><time>2022-04-13T13:19:44Z</time><name>PT6728</name></trkpt>
<trkpt lat="52.091560" lon="05.649358"><ele>35.8</ele><time>2022-04-13T13:19:45Z</time><name>PT6729</name></trkpt>
<trkpt lat="52.091562" lon="05.649371"><ele>35.9</ele><time>2022-04-13T13:19:46Z</time><name>PT6730</name></trkpt>
<trkpt lat="52.091566" lon="05.649389"><ele>35.9</ele><time>2022-04-13T13:19:47Z</time><name>PT6731</name></trkpt>
<trkpt lat="52.091567" lon="05.649400"><ele>35.7</ele><time>2022-04-13T13:19:48Z</time><name>PT6732</name></trkpt>
<trkpt lat="52.091570" lon="05.649412"><ele>35.7</ele><time>2022-04-13T13:19:49Z</time><name>PT6733</name></trkpt>
<trkpt lat="52.091572" lon="05.649422"><ele>35.7</ele><time>2022-04-13T13:19:50Z</time><name>PT6734</name></trkpt>
<trkpt lat="52.091574" lon="05.649436"><ele>35.6</ele><time>2022-04-13T13:19:51Z</time><name>PT6735</name></trkpt>
<trkpt lat="52.091580" lon="05.649453"><ele>35.5</ele><time>2022-04-13T13:19:52Z</time><name>PT6736</name></trkpt>
<trkpt lat="52.091580" lon="05.649467"><ele>35.5</ele><time>2022-04-13T13:19:53Z</time><name>PT6737</name></trkpt>
<trkpt lat="52.091584" lon="05.649477"><ele>35.5</ele><time>2022-04-13T13:19:54Z</time><name>PT6738</name></trkpt>
<trkpt lat="52.091591" lon="05.649484"><ele>35.4</ele><time>2022-04-13T13:19:55Z</time><name>PT6739</name></trkpt>
<trkpt lat="52.091596" lon="05.649488"><ele>35.4</ele><time>2022-04-13T13:19:56Z</time><name>PT6740</name></trkpt>
<trkpt lat="52.091602" lon="05.649498"><ele>35.4</ele><time>2022-04-13T13:19:57Z</time><name>PT6741</name></trkpt>
<trkpt lat="52.091611" lon="05.649524"><ele>35.3</ele><time>2022-04-13T13:19:58Z</time><name>PT6742</name></trkpt>
<trkpt lat="52.091620" lon="05.649545"><ele>35.4</ele><time>2022-04-13T13:19:59Z</time><name>PT6743</name></trkpt>
<trkpt lat="52.091623" lon="05.649561"><ele>35.4</ele><time>2022-04-13T13:20:00Z</time><name>PT6744</name></trkpt>
<trkpt lat="52.091624" lon="05.649569"><ele>35.5</ele><time>2022-04-13T13:20:01Z</time><name>PT6745</name></trkpt>
<trkpt lat="52.091626" lon="05.649571"><ele>35.5</ele><time>2022-04-13T13:20:02Z</time><name>PT6746</name></trkpt>
<trkpt lat="52.091633" lon="05.649585"><ele>35.5</ele><time>2022-04-13T13:20:03Z</time><name>PT6747</name></trkpt>
<trkpt lat="52.091635" lon="05.649601"><ele>35.5</ele><time>2022-04-13T13:20:04Z</time><name>PT6748</name></trkpt>
<trkpt lat="52.091634" lon="05.649607"><ele>35.7</ele><time>2022-04-13T13:20:05Z</time><name>PT6749</name></trkpt>
<trkpt lat="52.091632" lon="05.649609"><ele>35.7</ele><time>2022-04-13T13:20:06Z</time><name>PT6750</name></trkpt>
<trkpt lat="52.091633" lon="05.649618"><ele>35.7</ele><time>2022-04-13T13:20:07Z</time><name>PT6751</name></trkpt>
<trkpt lat="52.091632" lon="05.649625"><ele>35.7</ele><time>2022-04-13T13:20:09Z</time><name>PT6752</name></trkpt>
<trkpt lat="52.091627" lon="05.649656"><ele>35.7</ele><time>2022-04-13T13:20:10Z</time><name>PT6753</name></trkpt>
<trkpt lat="52.091628" lon="05.649679"><ele>35.7</ele><time>2022-04-13T13:20:11Z</time><name>PT6754</name></trkpt>
<trkpt lat="52.091624" lon="05.649701"><ele>35.7</ele><time>2022-04-13T13:20:12Z</time><name>PT6755</name></trkpt>
<trkpt lat="52.091624" lon="05.649721"><ele>35.7</ele><time>2022-04-13T13:20:13Z</time><name>PT6756</name></trkpt>
<trkpt lat="52.091624" lon="05.649742"><ele>36</ele><time>2022-04-13T13:20:14Z</time><name>PT6757</name></trkpt>
<trkpt lat="52.091621" lon="05.649756"><ele>36</ele><time>2022-04-13T13:20:15Z</time><name>PT6758</name></trkpt>
<trkpt lat="52.091625" lon="05.649758"><ele>36</ele><time>2022-04-13T13:20:16Z</time><name>PT6759</name></trkpt>
<trkpt lat="52.091625" lon="05.649767"><ele>36.1</ele><time>2022-04-13T13:20:17Z</time><name>PT6760</name></trkpt>
<trkpt lat="52.091626" lon="05.649776"><ele>36.3</ele><time>2022-04-13T13:20:18Z</time><name>PT6761</name></trkpt>
<trkpt lat="52.091630" lon="05.649782"><ele>36.3</ele><time>2022-04-13T13:20:19Z</time><name>PT6762</name></trkpt>
<trkpt lat="52.091627" lon="05.649788"><ele>36.4</ele><time>2022-04-13T13:20:21Z</time><name>PT6763</name></trkpt>
<trkpt lat="52.091627" lon="05.649796"><ele>36.4</ele><time>2022-04-13T13:20:22Z</time><name>PT6764</name></trkpt>
<trkpt lat="52.091626" lon="05.649819"><ele>36.2</ele><time>2022-04-13T13:20:23Z</time><name>PT6765</name></trkpt>
<trkpt lat="52.091624" lon="05.649838"><ele>36.2</ele><time>2022-04-13T13:20:24Z</time><name>PT6766</name></trkpt>
<trkpt lat="52.091620" lon="05.649853"><ele>36.1</ele><time>2022-04-13T13:20:25Z</time><name>PT6767</name></trkpt>
<trkpt lat="52.091622" lon="05.649861"><ele>36.2</ele><time>2022-04-13T13:20:26Z</time><name>PT6768</name></trkpt>
<trkpt lat="52.091623" lon="05.649874"><ele>36.2</ele><time>2022-04-13T13:20:27Z</time><name>PT6769</name></trkpt>
<trkpt lat="52.091624" lon="05.649885"><ele>36.2</ele><time>2022-04-13T13:20:28Z</time><name>PT6770</name></trkpt>
<trkpt lat="52.091623" lon="05.649893"><ele>36.2</ele><time>2022-04-13T13:20:29Z</time><name>PT6771</name></trkpt>
<trkpt lat="52.091618" lon="05.649903"><ele>36.2</ele><time>2022-04-13T13:20:30Z</time><name>PT6772</name></trkpt>
<trkpt lat="52.091614" lon="05.649921"><ele>36.1</ele><time>2022-04-13T13:20:31Z</time><name>PT6773</name></trkpt>
<trkpt lat="52.091607" lon="05.649943"><ele>36</ele><time>2022-04-13T13:20:32Z</time><name>PT6774</name></trkpt>
<trkpt lat="52.091606" lon="05.649944"><ele>36.2</ele><time>2022-04-13T13:20:33Z</time><name>PT6775</name></trkpt>
<trkpt lat="52.091602" lon="05.649955"><ele>36.1</ele><time>2022-04-13T13:20:34Z</time><name>PT6776</name></trkpt>
<trkpt lat="52.091600" lon="05.649962"><ele>35.9</ele><time>2022-04-13T13:20:35Z</time><name>PT6777</name></trkpt>
<trkpt lat="52.091594" lon="05.649972"><ele>35.8</ele><time>2022-04-13T13:20:36Z</time><name>PT6778</name></trkpt>
<trkpt lat="52.091588" lon="05.649977"><ele>35.7</ele><time>2022-04-13T13:20:37Z</time><name>PT6779</name></trkpt>
<trkpt lat="52.091588" lon="05.649980"><ele>35.5</ele><time>2022-04-13T13:20:38Z</time><name>PT6780</name></trkpt>
<trkpt lat="52.091589" lon="05.649985"><ele>35.5</ele><time>2022-04-13T13:20:39Z</time><name>PT6781</name></trkpt>
<trkpt lat="52.091587" lon="05.649987"><ele>35.3</ele><time>2022-04-13T13:20:40Z</time><name>PT6782</name></trkpt>
<trkpt lat="52.091578" lon="05.649991"><ele>35.4</ele><time>2022-04-13T13:20:41Z</time><name>PT6783</name></trkpt>
<trkpt lat="52.091565" lon="05.649998"><ele>35.3</ele><time>2022-04-13T13:20:42Z</time><name>PT6784</name></trkpt>
<trkpt lat="52.091557" lon="05.650011"><ele>35.2</ele><time>2022-04-13T13:20:43Z</time><name>PT6785</name></trkpt>
<trkpt lat="52.091551" lon="05.650018"><ele>35.1</ele><time>2022-04-13T13:20:44Z</time><name>PT6786</name></trkpt>
<trkpt lat="52.091543" lon="05.650021"><ele>35.2</ele><time>2022-04-13T13:20:45Z</time><name>PT6787</name></trkpt>
<trkpt lat="52.091536" lon="05.650029"><ele>35.2</ele><time>2022-04-13T13:20:46Z</time><name>PT6788</name></trkpt>
<trkpt lat="52.091526" lon="05.650040"><ele>35.3</ele><time>2022-04-13T13:20:47Z</time><name>PT6789</name></trkpt>
<trkpt lat="52.091519" lon="05.650052"><ele>35.3</ele><time>2022-04-13T13:20:48Z</time><name>PT6790</name></trkpt>
<trkpt lat="52.091514" lon="05.650065"><ele>35.2</ele><time>2022-04-13T13:20:49Z</time><name>PT6791</name></trkpt>
<trkpt lat="52.091509" lon="05.650075"><ele>35.1</ele><time>2022-04-13T13:20:50Z</time><name>PT6792</name></trkpt>
<trkpt lat="52.091504" lon="05.650077"><ele>35</ele><time>2022-04-13T13:20:51Z</time><name>PT6793</name></trkpt>
<trkpt lat="52.091492" lon="05.650089"><ele>35</ele><time>2022-04-13T13:20:52Z</time><name>PT6794</name></trkpt>
<trkpt lat="52.091480" lon="05.650107"><ele>34.9</ele><time>2022-04-13T13:20:53Z</time><name>PT6795</name></trkpt>
<trkpt lat="52.091468" lon="05.650126"><ele>35</ele><time>2022-04-13T13:20:54Z</time><name>PT6796</name></trkpt>
<trkpt lat="52.091461" lon="05.650132"><ele>34.9</ele><time>2022-04-13T13:20:55Z</time><name>PT6797</name></trkpt>
<trkpt lat="52.091456" lon="05.650142"><ele>34.7</ele><time>2022-04-13T13:20:56Z</time><name>PT6798</name></trkpt>
<trkpt lat="52.091444" lon="05.650151"><ele>34.7</ele><time>2022-04-13T13:20:57Z</time><name>PT6799</name></trkpt>
<trkpt lat="52.091430" lon="05.650164"><ele>34.6</ele><time>2022-04-13T13:20:58Z</time><name>PT6800</name></trkpt>
<trkpt lat="52.091415" lon="05.650174"><ele>34.6</ele><time>2022-04-13T13:20:59Z</time><name>PT6801</name></trkpt>
<trkpt lat="52.091406" lon="05.650184"><ele>34.6</ele><time>2022-04-13T13:21:00Z</time><name>PT6802</name></trkpt>
<trkpt lat="52.091400" lon="05.650195"><ele>34.6</ele><time>2022-04-13T13:21:01Z</time><name>PT6803</name></trkpt>
<trkpt lat="52.091399" lon="05.650208"><ele>34.7</ele><time>2022-04-13T13:21:02Z</time><name>PT6804</name></trkpt>
<trkpt lat="52.091390" lon="05.650217"><ele>34.6</ele><time>2022-04-13T13:21:03Z</time><name>PT6805</name></trkpt>
<trkpt lat="52.091382" lon="05.650229"><ele>34.5</ele><time>2022-04-13T13:21:04Z</time><name>PT6806</name></trkpt>
<trkpt lat="52.091375" lon="05.650239"><ele>34.5</ele><time>2022-04-13T13:21:05Z</time><name>PT6807</name></trkpt>
<trkpt lat="52.091364" lon="05.650245"><ele>34.6</ele><time>2022-04-13T13:21:06Z</time><name>PT6808</name></trkpt>
<trkpt lat="52.091355" lon="05.650249"><ele>34.2</ele><time>2022-04-13T13:21:07Z</time><name>PT6809</name></trkpt>
<trkpt lat="52.091346" lon="05.650252"><ele>34.1</ele><time>2022-04-13T13:21:08Z</time><name>PT6810</name></trkpt>
<trkpt lat="52.091339" lon="05.650265"><ele>34.1</ele><time>2022-04-13T13:21:09Z</time><name>PT6811</name></trkpt>
<trkpt lat="52.091334" lon="05.650273"><ele>34.1</ele><time>2022-04-13T13:21:10Z</time><name>PT6812</name></trkpt>
<trkpt lat="52.091329" lon="05.650281"><ele>34.1</ele><time>2022-04-13T13:21:11Z</time><name>PT6813</name></trkpt>
<trkpt lat="52.091325" lon="05.650285"><ele>34.1</ele><time>2022-04-13T13:21:12Z</time><name>PT6814</name></trkpt>
<trkpt lat="52.091316" lon="05.650292"><ele>34.1</ele><time>2022-04-13T13:21:13Z</time><name>PT6815</name></trkpt>
<trkpt lat="52.091308" lon="05.650300"><ele>34</ele><time>2022-04-13T13:21:14Z</time><name>PT6816</name></trkpt>
<trkpt lat="52.091297" lon="05.650307"><ele>34</ele><time>2022-04-13T13:21:15Z</time><name>PT6817</name></trkpt>
<trkpt lat="52.091293" lon="05.650312"><ele>34</ele><time>2022-04-13T13:21:16Z</time><name>PT6818</name></trkpt>
<trkpt lat="52.091284" lon="05.650317"><ele>34</ele><time>2022-04-13T13:21:17Z</time><name>PT6819</name></trkpt>
<trkpt lat="52.091273" lon="05.650323"><ele>33.9</ele><time>2022-04-13T13:21:18Z</time><name>PT6820</name></trkpt>
<trkpt lat="52.091262" lon="05.650332"><ele>33.9</ele><time>2022-04-13T13:21:19Z</time><name>PT6821</name></trkpt>
<trkpt lat="52.091256" lon="05.650337"><ele>33.9</ele><time>2022-04-13T13:21:20Z</time><name>PT6822</name></trkpt>
<trkpt lat="52.091249" lon="05.650340"><ele>33.9</ele><time>2022-04-13T13:21:21Z</time><name>PT6823</name></trkpt>
<trkpt lat="52.091241" lon="05.650345"><ele>33.8</ele><time>2022-04-13T13:21:22Z</time><name>PT6824</name></trkpt>
<trkpt lat="52.091228" lon="05.650354"><ele>33.7</ele><time>2022-04-13T13:21:23Z</time><name>PT6825</name></trkpt>
<trkpt lat="52.091216" lon="05.650361"><ele>33.6</ele><time>2022-04-13T13:21:24Z</time><name>PT6826</name></trkpt>
<trkpt lat="52.091205" lon="05.650368"><ele>33.4</ele><time>2022-04-13T13:21:25Z</time><name>PT6827</name></trkpt>
<trkpt lat="52.091198" lon="05.650376"><ele>33.3</ele><time>2022-04-13T13:21:26Z</time><name>PT6828</name></trkpt>
<trkpt lat="52.091187" lon="05.650382"><ele>33.3</ele><time>2022-04-13T13:21:27Z</time><name>PT6829</name></trkpt>
<trkpt lat="52.091180" lon="05.650384"><ele>33.4</ele><time>2022-04-13T13:21:28Z</time><name>PT6830</name></trkpt>
<trkpt lat="52.091171" lon="05.650392"><ele>33.6</ele><time>2022-04-13T13:21:29Z</time><name>PT6831</name></trkpt>
<trkpt lat="52.091156" lon="05.650405"><ele>33.6</ele><time>2022-04-13T13:21:30Z</time><name>PT6832</name></trkpt>
<trkpt lat="52.091145" lon="05.650411"><ele>33.5</ele><time>2022-04-13T13:21:31Z</time><name>PT6833</name></trkpt>
<trkpt lat="52.091139" lon="05.650410"><ele>33.6</ele><time>2022-04-13T13:21:32Z</time><name>PT6834</name></trkpt>
<trkpt lat="52.091133" lon="05.650414"><ele>33.6</ele><time>2022-04-13T13:21:33Z</time><name>PT6835</name></trkpt>
<trkpt lat="52.091124" lon="05.650418"><ele>33.4</ele><time>2022-04-13T13:21:34Z</time><name>PT6836</name></trkpt>
<trkpt lat="52.091114" lon="05.650429"><ele>33.5</ele><time>2022-04-13T13:21:35Z</time><name>PT6837</name></trkpt>
<trkpt lat="52.091106" lon="05.650438"><ele>33.5</ele><time>2022-04-13T13:21:36Z</time><name>PT6838</name></trkpt>
<trkpt lat="52.091101" lon="05.650444"><ele>33.4</ele><time>2022-04-13T13:21:37Z</time><name>PT6839</name></trkpt>
<trkpt lat="52.091093" lon="05.650448"><ele>33.2</ele><time>2022-04-13T13:21:38Z</time><name>PT6840</name></trkpt>
<trkpt lat="52.091082" lon="05.650453"><ele>33.3</ele><time>2022-04-13T13:21:39Z</time><name>PT6841</name></trkpt>
<trkpt lat="52.091070" lon="05.650455"><ele>33.2</ele><time>2022-04-13T13:21:40Z</time><name>PT6842</name></trkpt>
<trkpt lat="52.091059" lon="05.650460"><ele>33.1</ele><time>2022-04-13T13:21:41Z</time><name>PT6843</name></trkpt>
<trkpt lat="52.091051" lon="05.650464"><ele>33.1</ele><time>2022-04-13T13:21:42Z</time><name>PT6844</name></trkpt>
<trkpt lat="52.091045" lon="05.650468"><ele>33.1</ele><time>2022-04-13T13:21:43Z</time><name>PT6845</name></trkpt>
<trkpt lat="52.091041" lon="05.650469"><ele>33</ele><time>2022-04-13T13:21:44Z</time><name>PT6846</name></trkpt>
<trkpt lat="52.091037" lon="05.650475"><ele>32.9</ele><time>2022-04-13T13:21:45Z</time><name>PT6847</name></trkpt>
<trkpt lat="52.091024" lon="05.650484"><ele>32.9</ele><time>2022-04-13T13:21:46Z</time><name>PT6848</name></trkpt>
<trkpt lat="52.091012" lon="05.650492"><ele>32.9</ele><time>2022-04-13T13:21:47Z</time><name>PT6849</name></trkpt>
<trkpt lat="52.091008" lon="05.650498"><ele>32.9</ele><time>2022-04-13T13:21:48Z</time><name>PT6850</name></trkpt>
<trkpt lat="52.091004" lon="05.650498"><ele>32.6</ele><time>2022-04-13T13:21:49Z</time><name>PT6851</name></trkpt>
<trkpt lat="52.090992" lon="05.650499"><ele>32.6</ele><time>2022-04-13T13:21:50Z</time><name>PT6852</name></trkpt>
<trkpt lat="52.090976" lon="05.650501"><ele>32.6</ele><time>2022-04-13T13:21:51Z</time><name>PT6853</name></trkpt>
<trkpt lat="52.090969" lon="05.650505"><ele>32.6</ele><time>2022-04-13T13:21:52Z</time><name>PT6854</name></trkpt>
<trkpt lat="52.090964" lon="05.650510"><ele>32.7</ele><time>2022-04-13T13:21:53Z</time><name>PT6855</name></trkpt>
<trkpt lat="52.090954" lon="05.650511"><ele>32.7</ele><time>2022-04-13T13:21:54Z</time><name>PT6856</name></trkpt>
<trkpt lat="52.090944" lon="05.650509"><ele>32.7</ele><time>2022-04-13T13:21:55Z</time><name>PT6857</name></trkpt>
<trkpt lat="52.090934" lon="05.650510"><ele>32.7</ele><time>2022-04-13T13:21:56Z</time><name>PT6858</name></trkpt>
<trkpt lat="52.090932" lon="05.650519"><ele>32.6</ele><time>2022-04-13T13:21:57Z</time><name>PT6859</name></trkpt>
<trkpt lat="52.090928" lon="05.650527"><ele>32.5</ele><time>2022-04-13T13:21:58Z</time><name>PT6860</name></trkpt>
<trkpt lat="52.090925" lon="05.650530"><ele>32.5</ele><time>2022-04-13T13:21:59Z</time><name>PT6861</name></trkpt>
<trkpt lat="52.090918" lon="05.650531"><ele>32.5</ele><time>2022-04-13T13:22:00Z</time><name>PT6862</name></trkpt>
<trkpt lat="52.090908" lon="05.650531"><ele>32.5</ele><time>2022-04-13T13:22:01Z</time><name>PT6863</name></trkpt>
<trkpt lat="52.090893" lon="05.650540"><ele>32.6</ele><time>2022-04-13T13:22:02Z</time><name>PT6864</name></trkpt>
<trkpt lat="52.090881" lon="05.650549"><ele>32.6</ele><time>2022-04-13T13:22:03Z</time><name>PT6865</name></trkpt>
<trkpt lat="52.090866" lon="05.650552"><ele>32.7</ele><time>2022-04-13T13:22:04Z</time><name>PT6866</name></trkpt>
<trkpt lat="52.090857" lon="05.650557"><ele>32.7</ele><time>2022-04-13T13:22:05Z</time><name>PT6867</name></trkpt>
<trkpt lat="52.090842" lon="05.650555"><ele>32.6</ele><time>2022-04-13T13:22:06Z</time><name>PT6868</name></trkpt>
<trkpt lat="52.090832" lon="05.650562"><ele>32.6</ele><time>2022-04-13T13:22:07Z</time><name>PT6869</name></trkpt>
<trkpt lat="52.090821" lon="05.650565"><ele>32.5</ele><time>2022-04-13T13:22:08Z</time><name>PT6870</name></trkpt>
<trkpt lat="52.090808" lon="05.650564"><ele>32.3</ele><time>2022-04-13T13:22:09Z</time><name>PT6871</name></trkpt>
<trkpt lat="52.090794" lon="05.650563"><ele>32.2</ele><time>2022-04-13T13:22:10Z</time><name>PT6872</name></trkpt>
<trkpt lat="52.090778" lon="05.650563"><ele>32.1</ele><time>2022-04-13T13:22:11Z</time><name>PT6873</name></trkpt>
<trkpt lat="52.090767" lon="05.650566"><ele>32.1</ele><time>2022-04-13T13:22:12Z</time><name>PT6874</name></trkpt>
<trkpt lat="52.090751" lon="05.650568"><ele>32</ele><time>2022-04-13T13:22:13Z</time><name>PT6875</name></trkpt>
<trkpt lat="52.090739" lon="05.650573"><ele>31.9</ele><time>2022-04-13T13:22:14Z</time><name>PT6876</name></trkpt>
<trkpt lat="52.090732" lon="05.650581"><ele>31.9</ele><time>2022-04-13T13:22:15Z</time><name>PT6877</name></trkpt>
<trkpt lat="52.090723" lon="05.650574"><ele>31.9</ele><time>2022-04-13T13:22:16Z</time><name>PT6878</name></trkpt>
<trkpt lat="52.090712" lon="05.650567"><ele>31.8</ele><time>2022-04-13T13:22:17Z</time><name>PT6879</name></trkpt>
<trkpt lat="52.090701" lon="05.650563"><ele>31.8</ele><time>2022-04-13T13:22:18Z</time><name>PT6880</name></trkpt>
<trkpt lat="52.090692" lon="05.650564"><ele>32.1</ele><time>2022-04-13T13:22:19Z</time><name>PT6881</name></trkpt>
<trkpt lat="52.090686" lon="05.650571"><ele>32.1</ele><time>2022-04-13T13:22:20Z</time><name>PT6882</name></trkpt>
<trkpt lat="52.090675" lon="05.650576"><ele>31.8</ele><time>2022-04-13T13:22:21Z</time><name>PT6883</name></trkpt>
<trkpt lat="52.090665" lon="05.650574"><ele>31.7</ele><time>2022-04-13T13:22:22Z</time><name>PT6884</name></trkpt>
<trkpt lat="52.090651" lon="05.650574"><ele>31.7</ele><time>2022-04-13T13:22:23Z</time><name>PT6885</name></trkpt>
<trkpt lat="52.090638" lon="05.650580"><ele>31.7</ele><time>2022-04-13T13:22:24Z</time><name>PT6886</name></trkpt>
<trkpt lat="52.090628" lon="05.650582"><ele>31.7</ele><time>2022-04-13T13:22:25Z</time><name>PT6887</name></trkpt>
<trkpt lat="52.090615" lon="05.650582"><ele>31.9</ele><time>2022-04-13T13:22:26Z</time><name>PT6888</name></trkpt>
<trkpt lat="52.090602" lon="05.650583"><ele>31.9</ele><time>2022-04-13T13:22:27Z</time><name>PT6889</name></trkpt>
<trkpt lat="52.090587" lon="05.650582"><ele>31.8</ele><time>2022-04-13T13:22:28Z</time><name>PT6890</name></trkpt>
<trkpt lat="52.090576" lon="05.650578"><ele>31.7</ele><time>2022-04-13T13:22:29Z</time><name>PT6891</name></trkpt>
<trkpt lat="52.090569" lon="05.650579"><ele>31.6</ele><time>2022-04-13T13:22:30Z</time><name>PT6892</name></trkpt>
<trkpt lat="52.090561" lon="05.650581"><ele>31.4</ele><time>2022-04-13T13:22:31Z</time><name>PT6893</name></trkpt>
<trkpt lat="52.090554" lon="05.650585"><ele>31.5</ele><time>2022-04-13T13:22:32Z</time><name>PT6894</name></trkpt>
<trkpt lat="52.090535" lon="05.650587"><ele>31.5</ele><time>2022-04-13T13:22:33Z</time><name>PT6895</name></trkpt>
<trkpt lat="52.090525" lon="05.650590"><ele>31.6</ele><time>2022-04-13T13:22:34Z</time><name>PT6896</name></trkpt>
<trkpt lat="52.090516" lon="05.650592"><ele>31.7</ele><time>2022-04-13T13:22:35Z</time><name>PT6897</name></trkpt>
<trkpt lat="52.090506" lon="05.650589"><ele>31.8</ele><time>2022-04-13T13:22:36Z</time><name>PT6898</name></trkpt>
<trkpt lat="52.090501" lon="05.650592"><ele>31.7</ele><time>2022-04-13T13:22:37Z</time><name>PT6899</name></trkpt>
<trkpt lat="52.090495" lon="05.650597"><ele>31.7</ele><time>2022-04-13T13:22:38Z</time><name>PT6900</name></trkpt>
<trkpt lat="52.090488" lon="05.650604"><ele>31.6</ele><time>2022-04-13T13:22:39Z</time><name>PT6901</name></trkpt>
<trkpt lat="52.090481" lon="05.650606"><ele>31.5</ele><time>2022-04-13T13:22:40Z</time><name>PT6902</name></trkpt>
<trkpt lat="52.090470" lon="05.650602"><ele>31.5</ele><time>2022-04-13T13:22:41Z</time><name>PT6903</name></trkpt>
<trkpt lat="52.090456" lon="05.650602"><ele>31.5</ele><time>2022-04-13T13:22:42Z</time><name>PT6904</name></trkpt>
<trkpt lat="52.090444" lon="05.650604"><ele>31.4</ele><time>2022-04-13T13:22:43Z</time><name>PT6905</name></trkpt>
<trkpt lat="52.090436" lon="05.650604"><ele>31.5</ele><time>2022-04-13T13:22:44Z</time><name>PT6906</name></trkpt>
<trkpt lat="52.090431" lon="05.650605"><ele>31.3</ele><time>2022-04-13T13:22:45Z</time><name>PT6907</name></trkpt>
<trkpt lat="52.090426" lon="05.650606"><ele>31.2</ele><time>2022-04-13T13:22:46Z</time><name>PT6908</name></trkpt>
<trkpt lat="52.090430" lon="05.650587"><ele>31.2</ele><time>2022-04-13T13:22:47Z</time><name>PT6909</name></trkpt>
<trkpt lat="52.090434" lon="05.650585"><ele>31.2</ele><time>2022-04-13T13:22:48Z</time><name>PT6910</name></trkpt>
<trkpt lat="52.090440" lon="05.650585"><ele>31.2</ele><time>2022-04-13T13:22:49Z</time><name>PT6911</name></trkpt>
<trkpt lat="52.090441" lon="05.650593"><ele>31.4</ele><time>2022-04-13T13:22:54Z</time><name>PT6912</name></trkpt>
<trkpt lat="52.090438" lon="05.650593"><ele>31.2</ele><time>2022-04-13T13:22:55Z</time><name>PT6913</name></trkpt>
<trkpt lat="52.090429" lon="05.650597"><ele>31.2</ele><time>2022-04-13T13:22:56Z</time><name>PT6914</name></trkpt>
<trkpt lat="52.090420" lon="05.650596"><ele>31.3</ele><time>2022-04-13T13:22:57Z</time><name>PT6915</name></trkpt>
<trkpt lat="52.090412" lon="05.650596"><ele>31.4</ele><time>2022-04-13T13:22:58Z</time><name>PT6916</name></trkpt>
<trkpt lat="52.090398" lon="05.650598"><ele>31.4</ele><time>2022-04-13T13:22:59Z</time><name>PT6917</name></trkpt>
<trkpt lat="52.090384" lon="05.650598"><ele>31.3</ele><time>2022-04-13T13:23:00Z</time><name>PT6918</name></trkpt>
<trkpt lat="52.090375" lon="05.650599"><ele>31.4</ele><time>2022-04-13T13:23:01Z</time><name>PT6919</name></trkpt>
<trkpt lat="52.090365" lon="05.650596"><ele>31.4</ele><time>2022-04-13T13:23:02Z</time><name>PT6920</name></trkpt>
<trkpt lat="52.090354" lon="05.650598"><ele>31.4</ele><time>2022-04-13T13:23:03Z</time><name>PT6921</name></trkpt>
<trkpt lat="52.090342" lon="05.650604"><ele>31.4</ele><time>2022-04-13T13:23:04Z</time><name>PT6922</name></trkpt>
<trkpt lat="52.090337" lon="05.650602"><ele>31.4</ele><time>2022-04-13T13:23:05Z</time><name>PT6923</name></trkpt>
<trkpt lat="52.090337" lon="05.650605"><ele>31.3</ele><time>2022-04-13T13:23:06Z</time><name>PT6924</name></trkpt>
<trkpt lat="52.090333" lon="05.650602"><ele>31.3</ele><time>2022-04-13T13:23:07Z</time><name>PT6925</name></trkpt>
<trkpt lat="52.090325" lon="05.650604"><ele>31.3</ele><time>2022-04-13T13:23:08Z</time><name>PT6926</name></trkpt>
<trkpt lat="52.090321" lon="05.650603"><ele>31.2</ele><time>2022-04-13T13:23:09Z</time><name>PT6927</name></trkpt>
<trkpt lat="52.090319" lon="05.650599"><ele>31.2</ele><time>2022-04-13T13:23:10Z</time><name>PT6928</name></trkpt>
<trkpt lat="52.090317" lon="05.650601"><ele>31.2</ele><time>2022-04-13T13:23:11Z</time><name>PT6929</name></trkpt>
<trkpt lat="52.090313" lon="05.650603"><ele>31.1</ele><time>2022-04-13T13:23:12Z</time><name>PT6930</name></trkpt>
<trkpt lat="52.090309" lon="05.650607"><ele>31</ele><time>2022-04-13T13:23:13Z</time><name>PT6931</name></trkpt>
<trkpt lat="52.090301" lon="05.650604"><ele>31.2</ele><time>2022-04-13T13:23:14Z</time><name>PT6932</name></trkpt>
<trkpt lat="52.090288" lon="05.650612"><ele>31.2</ele><time>2022-04-13T13:23:15Z</time><name>PT6933</name></trkpt>
<trkpt lat="52.090276" lon="05.650617"><ele>31.4</ele><time>2022-04-13T13:23:16Z</time><name>PT6934</name></trkpt>
<trkpt lat="52.090266" lon="05.650619"><ele>31.5</ele><time>2022-04-13T13:23:17Z</time><name>PT6935</name></trkpt>
<trkpt lat="52.090255" lon="05.650617"><ele>31.5</ele><time>2022-04-13T13:23:18Z</time><name>PT6936</name></trkpt>
<trkpt lat="52.090244" lon="05.650615"><ele>31.4</ele><time>2022-04-13T13:23:19Z</time><name>PT6937</name></trkpt>
<trkpt lat="52.090232" lon="05.650607"><ele>31.4</ele><time>2022-04-13T13:23:20Z</time><name>PT6938</name></trkpt>
<trkpt lat="52.090223" lon="05.650604"><ele>31.5</ele><time>2022-04-13T13:23:21Z</time><name>PT6939</name></trkpt>
<trkpt lat="52.090218" lon="05.650600"><ele>31.3</ele><time>2022-04-13T13:23:22Z</time><name>PT6940</name></trkpt>
<trkpt lat="52.090214" lon="05.650596"><ele>31.4</ele><time>2022-04-13T13:23:23Z</time><name>PT6941</name></trkpt>
<trkpt lat="52.090205" lon="05.650588"><ele>31.5</ele><time>2022-04-13T13:23:24Z</time><name>PT6942</name></trkpt>
<trkpt lat="52.090194" lon="05.650586"><ele>31.4</ele><time>2022-04-13T13:23:25Z</time><name>PT6943</name></trkpt>
<trkpt lat="52.090185" lon="05.650585"><ele>31.3</ele><time>2022-04-13T13:23:26Z</time><name>PT6944</name></trkpt>
<trkpt lat="52.090175" lon="05.650584"><ele>31.2</ele><time>2022-04-13T13:23:27Z</time><name>PT6945</name></trkpt>
<trkpt lat="52.090163" lon="05.650585"><ele>31.1</ele><time>2022-04-13T13:23:28Z</time><name>PT6946</name></trkpt>
<trkpt lat="52.090151" lon="05.650586"><ele>31.1</ele><time>2022-04-13T13:23:29Z</time><name>PT6947</name></trkpt>
<trkpt lat="52.090140" lon="05.650588"><ele>31.1</ele><time>2022-04-13T13:23:30Z</time><name>PT6948</name></trkpt>
<trkpt lat="52.090133" lon="05.650588"><ele>31.1</ele><time>2022-04-13T13:23:31Z</time><name>PT6949</name></trkpt>
<trkpt lat="52.090119" lon="05.650588"><ele>31.2</ele><time>2022-04-13T13:23:32Z</time><name>PT6950</name></trkpt>
<trkpt lat="52.090109" lon="05.650591"><ele>31.2</ele><time>2022-04-13T13:23:33Z</time><name>PT6951</name></trkpt>
<trkpt lat="52.090102" lon="05.650594"><ele>31.4</ele><time>2022-04-13T13:23:34Z</time><name>PT6952</name></trkpt>
<trkpt lat="52.090095" lon="05.650598"><ele>31.4</ele><time>2022-04-13T13:23:35Z</time><name>PT6953</name></trkpt>
<trkpt lat="52.090086" lon="05.650598"><ele>31.4</ele><time>2022-04-13T13:23:36Z</time><name>PT6954</name></trkpt>
<trkpt lat="52.090074" lon="05.650599"><ele>31.4</ele><time>2022-04-13T13:23:37Z</time><name>PT6955</name></trkpt>
<trkpt lat="52.090067" lon="05.650597"><ele>31.3</ele><time>2022-04-13T13:23:38Z</time><name>PT6956</name></trkpt>
<trkpt lat="52.090056" lon="05.650594"><ele>31.4</ele><time>2022-04-13T13:23:39Z</time><name>PT6957</name></trkpt>
<trkpt lat="52.090042" lon="05.650595"><ele>31.6</ele><time>2022-04-13T13:23:40Z</time><name>PT6958</name></trkpt>
<trkpt lat="52.090031" lon="05.650597"><ele>31.6</ele><time>2022-04-13T13:23:41Z</time><name>PT6959</name></trkpt>
<trkpt lat="52.090027" lon="05.650600"><ele>31.6</ele><time>2022-04-13T13:23:42Z</time><name>PT6960</name></trkpt>
<trkpt lat="52.090017" lon="05.650601"><ele>31.7</ele><time>2022-04-13T13:23:43Z</time><name>PT6961</name></trkpt>
<trkpt lat="52.090009" lon="05.650602"><ele>31.6</ele><time>2022-04-13T13:23:44Z</time><name>PT6962</name></trkpt>
<trkpt lat="52.090001" lon="05.650603"><ele>31.4</ele><time>2022-04-13T13:23:45Z</time><name>PT6963</name></trkpt>
<trkpt lat="52.089994" lon="05.650601"><ele>31.3</ele><time>2022-04-13T13:23:46Z</time><name>PT6964</name></trkpt>
<trkpt lat="52.089987" lon="05.650602"><ele>31.4</ele><time>2022-04-13T13:23:47Z</time><name>PT6965</name></trkpt>
<trkpt lat="52.089982" lon="05.650599"><ele>31.4</ele><time>2022-04-13T13:23:48Z</time><name>PT6966</name></trkpt>
<trkpt lat="52.089972" lon="05.650594"><ele>31.6</ele><time>2022-04-13T13:23:49Z</time><name>PT6967</name></trkpt>
<trkpt lat="52.089971" lon="05.650593"><ele>31.7</ele><time>2022-04-13T13:23:50Z</time><name>PT6968</name></trkpt>
<trkpt lat="52.089963" lon="05.650592"><ele>31.7</ele><time>2022-04-13T13:23:51Z</time><name>PT6969</name></trkpt>
<trkpt lat="52.089957" lon="05.650593"><ele>31.7</ele><time>2022-04-13T13:23:52Z</time><name>PT6970</name></trkpt>
<trkpt lat="52.089947" lon="05.650594"><ele>31.7</ele><time>2022-04-13T13:23:53Z</time><name>PT6971</name></trkpt>
<trkpt lat="52.089938" lon="05.650595"><ele>31.6</ele><time>2022-04-13T13:23:54Z</time><name>PT6972</name></trkpt>
<trkpt lat="52.089930" lon="05.650600"><ele>31.6</ele><time>2022-04-13T13:23:55Z</time><name>PT6973</name></trkpt>
<trkpt lat="52.089922" lon="05.650600"><ele>31.6</ele><time>2022-04-13T13:23:56Z</time><name>PT6974</name></trkpt>
<trkpt lat="52.089914" lon="05.650600"><ele>31.6</ele><time>2022-04-13T13:23:57Z</time><name>PT6975</name></trkpt>
<trkpt lat="52.089905" lon="05.650600"><ele>31.6</ele><time>2022-04-13T13:23:58Z</time><name>PT6976</name></trkpt>
<trkpt lat="52.089893" lon="05.650600"><ele>31.5</ele><time>2022-04-13T13:23:59Z</time><name>PT6977</name></trkpt>
<trkpt lat="52.089886" lon="05.650602"><ele>31.6</ele><time>2022-04-13T13:24:00Z</time><name>PT6978</name></trkpt>
<trkpt lat="52.089878" lon="05.650601"><ele>31.7</ele><time>2022-04-13T13:24:01Z</time><name>PT6979</name></trkpt>
<trkpt lat="52.089871" lon="05.650594"><ele>31.7</ele><time>2022-04-13T13:24:02Z</time><name>PT6980</name></trkpt>
<trkpt lat="52.089861" lon="05.650592"><ele>31.7</ele><time>2022-04-13T13:24:03Z</time><name>PT6981</name></trkpt>
<trkpt lat="52.089845" lon="05.650596"><ele>31.5</ele><time>2022-04-13T13:24:04Z</time><name>PT6982</name></trkpt>
<trkpt lat="52.089834" lon="05.650602"><ele>31.4</ele><time>2022-04-13T13:24:05Z</time><name>PT6983</name></trkpt>
<trkpt lat="52.089825" lon="05.650602"><ele>31.4</ele><time>2022-04-13T13:24:06Z</time><name>PT6984</name></trkpt>
<trkpt lat="52.089817" lon="05.650606"><ele>31.3</ele><time>2022-04-13T13:24:07Z</time><name>PT6985</name></trkpt>
<trkpt lat="52.089804" lon="05.650612"><ele>31.3</ele><time>2022-04-13T13:24:08Z</time><name>PT6986</name></trkpt>
<trkpt lat="52.089788" lon="05.650620"><ele>31.2</ele><time>2022-04-13T13:24:09Z</time><name>PT6987</name></trkpt>
<trkpt lat="52.089777" lon="05.650629"><ele>31.2</ele><time>2022-04-13T13:24:10Z</time><name>PT6988</name></trkpt>
<trkpt lat="52.089769" lon="05.650633"><ele>31.2</ele><time>2022-04-13T13:24:11Z</time><name>PT6989</name></trkpt>
<trkpt lat="52.089761" lon="05.650632"><ele>31</ele><time>2022-04-13T13:24:12Z</time><name>PT6990</name></trkpt>
<trkpt lat="52.089748" lon="05.650628"><ele>31</ele><time>2022-04-13T13:24:13Z</time><name>PT6991</name></trkpt>
<trkpt lat="52.089728" lon="05.650629"><ele>31</ele><time>2022-04-13T13:24:14Z</time><name>PT6992</name></trkpt>
<trkpt lat="52.089713" lon="05.650628"><ele>31.1</ele><time>2022-04-13T13:24:15Z</time><name>PT6993</name></trkpt>
<trkpt lat="52.089703" lon="05.650630"><ele>31.2</ele><time>2022-04-13T13:24:16Z</time><name>PT6994</name></trkpt>
<trkpt lat="52.089689" lon="05.650630"><ele>31.2</ele><time>2022-04-13T13:24:17Z</time><name>PT6995</name></trkpt>
<trkpt lat="52.089683" lon="05.650629"><ele>31.2</ele><time>2022-04-13T13:24:18Z</time><name>PT6996</name></trkpt>
<trkpt lat="52.089668" lon="05.650630"><ele>31.1</ele><time>2022-04-13T13:24:19Z</time><name>PT6997</name></trkpt>
<trkpt lat="52.089652" lon="05.650634"><ele>30.7</ele><time>2022-04-13T13:24:20Z</time><name>PT6998</name></trkpt>
<trkpt lat="52.089644" lon="05.650633"><ele>30.8</ele><time>2022-04-13T13:24:21Z</time><name>PT6999</name></trkpt>
<trkpt lat="52.089638" lon="05.650632"><ele>30.7</ele><time>2022-04-13T13:24:22Z</time><name>PT7000</name></trkpt>
<trkpt lat="52.089626" lon="05.650630"><ele>30.7</ele><time>2022-04-13T13:24:23Z</time><name>PT7001</name></trkpt>
<trkpt lat="52.089612" lon="05.650629"><ele>30.7</ele><time>2022-04-13T13:24:24Z</time><name>PT7002</name></trkpt>
<trkpt lat="52.089597" lon="05.650630"><ele>30.7</ele><time>2022-04-13T13:24:25Z</time><name>PT7003</name></trkpt>
<trkpt lat="52.089584" lon="05.650634"><ele>30.7</ele><time>2022-04-13T13:24:26Z</time><name>PT7004</name></trkpt>
<trkpt lat="52.089574" lon="05.650632"><ele>30.6</ele><time>2022-04-13T13:24:27Z</time><name>PT7005</name></trkpt>
<trkpt lat="52.089565" lon="05.650630"><ele>30.5</ele><time>2022-04-13T13:24:28Z</time><name>PT7006</name></trkpt>
<trkpt lat="52.089555" lon="05.650633"><ele>30.4</ele><time>2022-04-13T13:24:29Z</time><name>PT7007</name></trkpt>
<trkpt lat="52.089542" lon="05.650633"><ele>30.4</ele><time>2022-04-13T13:24:30Z</time><name>PT7008</name></trkpt>
<trkpt lat="52.089530" lon="05.650638"><ele>30.4</ele><time>2022-04-13T13:24:31Z</time><name>PT7009</name></trkpt>
<trkpt lat="52.089522" lon="05.650644"><ele>30.4</ele><time>2022-04-13T13:24:32Z</time><name>PT7010</name></trkpt>
<trkpt lat="52.089510" lon="05.650650"><ele>30.4</ele><time>2022-04-13T13:24:33Z</time><name>PT7011</name></trkpt>
<trkpt lat="52.089500" lon="05.650649"><ele>30.3</ele><time>2022-04-13T13:24:34Z</time><name>PT7012</name></trkpt>
<trkpt lat="52.089486" lon="05.650652"><ele>30.4</ele><time>2022-04-13T13:24:35Z</time><name>PT7013</name></trkpt>
<trkpt lat="52.089480" lon="05.650658"><ele>30.3</ele><time>2022-04-13T13:24:36Z</time><name>PT7014</name></trkpt>
<trkpt lat="52.089470" lon="05.650659"><ele>30.2</ele><time>2022-04-13T13:24:37Z</time><name>PT7015</name></trkpt>
<trkpt lat="52.089463" lon="05.650664"><ele>30.1</ele><time>2022-04-13T13:24:38Z</time><name>PT7016</name></trkpt>
<trkpt lat="52.089457" lon="05.650664"><ele>29.9</ele><time>2022-04-13T13:24:39Z</time><name>PT7017</name></trkpt>
<trkpt lat="52.089447" lon="05.650670"><ele>29.7</ele><time>2022-04-13T13:24:40Z</time><name>PT7018</name></trkpt>
<trkpt lat="52.089436" lon="05.650677"><ele>29.7</ele><time>2022-04-13T13:24:41Z</time><name>PT7019</name></trkpt>
<trkpt lat="52.089432" lon="05.650681"><ele>29.5</ele><time>2022-04-13T13:24:42Z</time><name>PT7020</name></trkpt>
<trkpt lat="52.089427" lon="05.650683"><ele>29.6</ele><time>2022-04-13T13:24:43Z</time><name>PT7021</name></trkpt>
<trkpt lat="52.089420" lon="05.650687"><ele>29.6</ele><time>2022-04-13T13:24:44Z</time><name>PT7022</name></trkpt>
<trkpt lat="52.089414" lon="05.650686"><ele>29.4</ele><time>2022-04-13T13:24:45Z</time><name>PT7023</name></trkpt>
<trkpt lat="52.089403" lon="05.650689"><ele>29.3</ele><time>2022-04-13T13:24:46Z</time><name>PT7024</name></trkpt>
<trkpt lat="52.089395" lon="05.650693"><ele>29.3</ele><time>2022-04-13T13:24:47Z</time><name>PT7025</name></trkpt>
<trkpt lat="52.089388" lon="05.650698"><ele>29.3</ele><time>2022-04-13T13:24:48Z</time><name>PT7026</name></trkpt>
<trkpt lat="52.089381" lon="05.650703"><ele>29.1</ele><time>2022-04-13T13:24:49Z</time><name>PT7027</name></trkpt>
<trkpt lat="52.089375" lon="05.650703"><ele>29.2</ele><time>2022-04-13T13:24:50Z</time><name>PT7028</name></trkpt>
<trkpt lat="52.089368" lon="05.650706"><ele>29.2</ele><time>2022-04-13T13:24:51Z</time><name>PT7029</name></trkpt>
<trkpt lat="52.089358" lon="05.650709"><ele>29.2</ele><time>2022-04-13T13:24:52Z</time><name>PT7030</name></trkpt>
<trkpt lat="52.089353" lon="05.650710"><ele>29.2</ele><time>2022-04-13T13:24:53Z</time><name>PT7031</name></trkpt>
<trkpt lat="52.089342" lon="05.650715"><ele>29.3</ele><time>2022-04-13T13:24:54Z</time><name>PT7032</name></trkpt>
<trkpt lat="52.089333" lon="05.650721"><ele>29.1</ele><time>2022-04-13T13:24:55Z</time><name>PT7033</name></trkpt>
<trkpt lat="52.089328" lon="05.650728"><ele>29.1</ele><time>2022-04-13T13:24:56Z</time><name>PT7034</name></trkpt>
<trkpt lat="52.089320" lon="05.650736"><ele>28.9</ele><time>2022-04-13T13:24:57Z</time><name>PT7035</name></trkpt>
<trkpt lat="52.089311" lon="05.650737"><ele>28.9</ele><time>2022-04-13T13:24:58Z</time><name>PT7036</name></trkpt>
<trkpt lat="52.089301" lon="05.650742"><ele>28.7</ele><time>2022-04-13T13:24:59Z</time><name>PT7037</name></trkpt>
<trkpt lat="52.089289" lon="05.650748"><ele>28.6</ele><time>2022-04-13T13:25:00Z</time><name>PT7038</name></trkpt>
<trkpt lat="52.089283" lon="05.650755"><ele>28.5</ele><time>2022-04-13T13:25:01Z</time><name>PT7039</name></trkpt>
<trkpt lat="52.089273" lon="05.650763"><ele>28.6</ele><time>2022-04-13T13:25:02Z</time><name>PT7040</name></trkpt>
<trkpt lat="52.089263" lon="05.650768"><ele>28.6</ele><time>2022-04-13T13:25:03Z</time><name>PT7041</name></trkpt>
<trkpt lat="52.089249" lon="05.650775"><ele>28.7</ele><time>2022-04-13T13:25:04Z</time><name>PT7042</name></trkpt>
<trkpt lat="52.089239" lon="05.650782"><ele>28.5</ele><time>2022-04-13T13:25:05Z</time><name>PT7043</name></trkpt>
<trkpt lat="52.089229" lon="05.650790"><ele>28.4</ele><time>2022-04-13T13:25:06Z</time><name>PT7044</name></trkpt>
<trkpt lat="52.089223" lon="05.650797"><ele>28.3</ele><time>2022-04-13T13:25:07Z</time><name>PT7045</name></trkpt>
<trkpt lat="52.089214" lon="05.650801"><ele>28.3</ele><time>2022-04-13T13:25:08Z</time><name>PT7046</name></trkpt>
<trkpt lat="52.089203" lon="05.650802"><ele>28.1</ele><time>2022-04-13T13:25:09Z</time><name>PT7047</name></trkpt>
<trkpt lat="52.089196" lon="05.650804"><ele>28.1</ele><time>2022-04-13T13:25:10Z</time><name>PT7048</name></trkpt>
<trkpt lat="52.089190" lon="05.650807"><ele>28</ele><time>2022-04-13T13:25:11Z</time><name>PT7049</name></trkpt>
<trkpt lat="52.089184" lon="05.650810"><ele>27.9</ele><time>2022-04-13T13:25:12Z</time><name>PT7050</name></trkpt>
<trkpt lat="52.089175" lon="05.650813"><ele>27.8</ele><time>2022-04-13T13:25:13Z</time><name>PT7051</name></trkpt>
<trkpt lat="52.089165" lon="05.650821"><ele>27.6</ele><time>2022-04-13T13:25:14Z</time><name>PT7052</name></trkpt>
<trkpt lat="52.089157" lon="05.650826"><ele>27.6</ele><time>2022-04-13T13:25:15Z</time><name>PT7053</name></trkpt>
<trkpt lat="52.089153" lon="05.650836"><ele>27.7</ele><time>2022-04-13T13:25:16Z</time><name>PT7054</name></trkpt>
<trkpt lat="52.089146" lon="05.650842"><ele>27.6</ele><time>2022-04-13T13:25:17Z</time><name>PT7055</name></trkpt>
<trkpt lat="52.089136" lon="05.650843"><ele>27.6</ele><time>2022-04-13T13:25:18Z</time><name>PT7056</name></trkpt>
<trkpt lat="52.089131" lon="05.650846"><ele>27.7</ele><time>2022-04-13T13:25:19Z</time><name>PT7057</name></trkpt>
<trkpt lat="52.089125" lon="05.650852"><ele>27.6</ele><time>2022-04-13T13:25:20Z</time><name>PT7058</name></trkpt>
<trkpt lat="52.089117" lon="05.650856"><ele>27.4</ele><time>2022-04-13T13:25:21Z</time><name>PT7059</name></trkpt>
<trkpt lat="52.089109" lon="05.650862"><ele>27.3</ele><time>2022-04-13T13:25:22Z</time><name>PT7060</name></trkpt>
<trkpt lat="52.089099" lon="05.650869"><ele>27.1</ele><time>2022-04-13T13:25:23Z</time><name>PT7061</name></trkpt>
<trkpt lat="52.089088" lon="05.650877"><ele>27</ele><time>2022-04-13T13:25:24Z</time><name>PT7062</name></trkpt>
<trkpt lat="52.089079" lon="05.650880"><ele>26.9</ele><time>2022-04-13T13:25:25Z</time><name>PT7063</name></trkpt>
<trkpt lat="52.089073" lon="05.650887"><ele>26.9</ele><time>2022-04-13T13:25:26Z</time><name>PT7064</name></trkpt>
<trkpt lat="52.089066" lon="05.650897"><ele>26.9</ele><time>2022-04-13T13:25:27Z</time><name>PT7065</name></trkpt>
<trkpt lat="52.089056" lon="05.650905"><ele>26.9</ele><time>2022-04-13T13:25:28Z</time><name>PT7066</name></trkpt>
<trkpt lat="52.089052" lon="05.650915"><ele>26.7</ele><time>2022-04-13T13:25:29Z</time><name>PT7067</name></trkpt>
<trkpt lat="52.089047" lon="05.650920"><ele>26.6</ele><time>2022-04-13T13:25:30Z</time><name>PT7068</name></trkpt>
<trkpt lat="52.089032" lon="05.650937"><ele>26.7</ele><time>2022-04-13T13:25:31Z</time><name>PT7069</name></trkpt>
<trkpt lat="52.089017" lon="05.650947"><ele>26.7</ele><time>2022-04-13T13:25:32Z</time><name>PT7070</name></trkpt>
<trkpt lat="52.089010" lon="05.650959"><ele>26.7</ele><time>2022-04-13T13:25:33Z</time><name>PT7071</name></trkpt>
<trkpt lat="52.089006" lon="05.650970"><ele>26.7</ele><time>2022-04-13T13:25:34Z</time><name>PT7072</name></trkpt>
<trkpt lat="52.088996" lon="05.650983"><ele>26.9</ele><time>2022-04-13T13:25:35Z</time><name>PT7073</name></trkpt>
<trkpt lat="52.088981" lon="05.650992"><ele>26.5</ele><time>2022-04-13T13:25:36Z</time><name>PT7074</name></trkpt>
<trkpt lat="52.088978" lon="05.650995"><ele>26.4</ele><time>2022-04-13T13:25:37Z</time><name>PT7075</name></trkpt>
<trkpt lat="52.088973" lon="05.650998"><ele>26.3</ele><time>2022-04-13T13:25:38Z</time><name>PT7076</name></trkpt>
<trkpt lat="52.088970" lon="05.651003"><ele>26.2</ele><time>2022-04-13T13:25:39Z</time><name>PT7077</name></trkpt>
<trkpt lat="52.088956" lon="05.651009"><ele>26.2</ele><time>2022-04-13T13:25:40Z</time><name>PT7078</name></trkpt>
<trkpt lat="52.088939" lon="05.651020"><ele>26.3</ele><time>2022-04-13T13:25:41Z</time><name>PT7079</name></trkpt>
<trkpt lat="52.088925" lon="05.651030"><ele>26.3</ele><time>2022-04-13T13:25:42Z</time><name>PT7080</name></trkpt>
<trkpt lat="52.088917" lon="05.651035"><ele>26.4</ele><time>2022-04-13T13:25:43Z</time><name>PT7081</name></trkpt>
<trkpt lat="52.088913" lon="05.651040"><ele>26.4</ele><time>2022-04-13T13:25:44Z</time><name>PT7082</name></trkpt>
<trkpt lat="52.088911" lon="05.651038"><ele>26.4</ele><time>2022-04-13T13:25:45Z</time><name>PT7083</name></trkpt>
<trkpt lat="52.088894" lon="05.651038"><ele>26.3</ele><time>2022-04-13T13:25:46Z</time><name>PT7084</name></trkpt>
<trkpt lat="52.088877" lon="05.651047"><ele>26</ele><time>2022-04-13T13:25:47Z</time><name>PT7085</name></trkpt>
<trkpt lat="52.088862" lon="05.651055"><ele>25.9</ele><time>2022-04-13T13:25:48Z</time><name>PT7086</name></trkpt>
<trkpt lat="52.088854" lon="05.651060"><ele>25.7</ele><time>2022-04-13T13:25:49Z</time><name>PT7087</name></trkpt>
<trkpt lat="52.088844" lon="05.651064"><ele>25.7</ele><time>2022-04-13T13:25:50Z</time><name>PT7088</name></trkpt>
<trkpt lat="52.088835" lon="05.651065"><ele>25.4</ele><time>2022-04-13T13:25:51Z</time><name>PT7089</name></trkpt>
<trkpt lat="52.088826" lon="05.651069"><ele>25.4</ele><time>2022-04-13T13:25:52Z</time><name>PT7090</name></trkpt>
<trkpt lat="52.088815" lon="05.651075"><ele>25.4</ele><time>2022-04-13T13:25:53Z</time><name>PT7091</name></trkpt>
<trkpt lat="52.088812" lon="05.651077"><ele>25.4</ele><time>2022-04-13T13:25:54Z</time><name>PT7092</name></trkpt>
<trkpt lat="52.088805" lon="05.651082"><ele>25.4</ele><time>2022-04-13T13:25:55Z</time><name>PT7093</name></trkpt>
<trkpt lat="52.088798" lon="05.651090"><ele>25.5</ele><time>2022-04-13T13:25:56Z</time><name>PT7094</name></trkpt>
<trkpt lat="52.088788" lon="05.651103"><ele>25.6</ele><time>2022-04-13T13:25:57Z</time><name>PT7095</name></trkpt>
<trkpt lat="52.088779" lon="05.651117"><ele>25.5</ele><time>2022-04-13T13:25:58Z</time><name>PT7096</name></trkpt>
<trkpt lat="52.088772" lon="05.651124"><ele>25.4</ele><time>2022-04-13T13:25:59Z</time><name>PT7097</name></trkpt>
<trkpt lat="52.088768" lon="05.651129"><ele>25.3</ele><time>2022-04-13T13:26:00Z</time><name>PT7098</name></trkpt>
<trkpt lat="52.088762" lon="05.651130"><ele>25</ele><time>2022-04-13T13:26:01Z</time><name>PT7099</name></trkpt>
<trkpt lat="52.088754" lon="05.651134"><ele>25</ele><time>2022-04-13T13:26:02Z</time><name>PT7100</name></trkpt>
<trkpt lat="52.088741" lon="05.651151"><ele>25</ele><time>2022-04-13T13:26:03Z</time><name>PT7101</name></trkpt>
<trkpt lat="52.088732" lon="05.651164"><ele>24.9</ele><time>2022-04-13T13:26:04Z</time><name>PT7102</name></trkpt>
<trkpt lat="52.088727" lon="05.651168"><ele>24.9</ele><time>2022-04-13T13:26:05Z</time><name>PT7103</name></trkpt>
<trkpt lat="52.088722" lon="05.651175"><ele>25</ele><time>2022-04-13T13:26:06Z</time><name>PT7104</name></trkpt>
<trkpt lat="52.088712" lon="05.651181"><ele>24.9</ele><time>2022-04-13T13:26:07Z</time><name>PT7105</name></trkpt>
<trkpt lat="52.088695" lon="05.651192"><ele>24.9</ele><time>2022-04-13T13:26:08Z</time><name>PT7106</name></trkpt>
<trkpt lat="52.088686" lon="05.651203"><ele>24.9</ele><time>2022-04-13T13:26:09Z</time><name>PT7107</name></trkpt>
<trkpt lat="52.088678" lon="05.651208"><ele>25</ele><time>2022-04-13T13:26:10Z</time><name>PT7108</name></trkpt>
<trkpt lat="52.088674" lon="05.651219"><ele>24.9</ele><time>2022-04-13T13:26:11Z</time><name>PT7109</name></trkpt>
<trkpt lat="52.088666" lon="05.651229"><ele>24.9</ele><time>2022-04-13T13:26:12Z</time><name>PT7110</name></trkpt>
<trkpt lat="52.088656" lon="05.651241"><ele>24.8</ele><time>2022-04-13T13:26:13Z</time><name>PT7111</name></trkpt>
<trkpt lat="52.088647" lon="05.651248"><ele>24.9</ele><time>2022-04-13T13:26:14Z</time><name>PT7112</name></trkpt>
<trkpt lat="52.088643" lon="05.651253"><ele>24.8</ele><time>2022-04-13T13:26:15Z</time><name>PT7113</name></trkpt>
<trkpt lat="52.088641" lon="05.651262"><ele>24.7</ele><time>2022-04-13T13:26:16Z</time><name>PT7114</name></trkpt>
<trkpt lat="52.088632" lon="05.651270"><ele>24.6</ele><time>2022-04-13T13:26:17Z</time><name>PT7115</name></trkpt>
<trkpt lat="52.088621" lon="05.651277"><ele>24.6</ele><time>2022-04-13T13:26:18Z</time><name>PT7116</name></trkpt>
<trkpt lat="52.088607" lon="05.651284"><ele>24.5</ele><time>2022-04-13T13:26:19Z</time><name>PT7117</name></trkpt>
<trkpt lat="52.088600" lon="05.651287"><ele>24.5</ele><time>2022-04-13T13:26:20Z</time><name>PT7118</name></trkpt>
<trkpt lat="52.088599" lon="05.651291"><ele>24.5</ele><time>2022-04-13T13:26:21Z</time><name>PT7119</name></trkpt>
<trkpt lat="52.088595" lon="05.651298"><ele>24.4</ele><time>2022-04-13T13:26:22Z</time><name>PT7120</name></trkpt>
<trkpt lat="52.088583" lon="05.651311"><ele>24.2</ele><time>2022-04-13T13:26:23Z</time><name>PT7121</name></trkpt>
<trkpt lat="52.088567" lon="05.651319"><ele>24.2</ele><time>2022-04-13T13:26:24Z</time><name>PT7122</name></trkpt>
<trkpt lat="52.088556" lon="05.651326"><ele>24</ele><time>2022-04-13T13:26:25Z</time><name>PT7123</name></trkpt>
<trkpt lat="52.088549" lon="05.651336"><ele>24</ele><time>2022-04-13T13:26:26Z</time><name>PT7124</name></trkpt>
<trkpt lat="52.088539" lon="05.651336"><ele>23.9</ele><time>2022-04-13T13:26:27Z</time><name>PT7125</name></trkpt>
<trkpt lat="52.088532" lon="05.651335"><ele>23.8</ele><time>2022-04-13T13:26:28Z</time><name>PT7126</name></trkpt>
<trkpt lat="52.088520" lon="05.651343"><ele>23.9</ele><time>2022-04-13T13:26:29Z</time><name>PT7127</name></trkpt>
<trkpt lat="52.088512" lon="05.651353"><ele>23.8</ele><time>2022-04-13T13:26:30Z</time><name>PT7128</name></trkpt>
<trkpt lat="52.088505" lon="05.651356"><ele>23.6</ele><time>2022-04-13T13:26:31Z</time><name>PT7129</name></trkpt>
<trkpt lat="52.088503" lon="05.651355"><ele>23.5</ele><time>2022-04-13T13:26:32Z</time><name>PT7130</name></trkpt>
<trkpt lat="52.088495" lon="05.651357"><ele>23.5</ele><time>2022-04-13T13:26:33Z</time><name>PT7131</name></trkpt>
<trkpt lat="52.088493" lon="05.651364"><ele>23.4</ele><time>2022-04-13T13:26:34Z</time><name>PT7132</name></trkpt>
<trkpt lat="52.088490" lon="05.651367"><ele>23.4</ele><time>2022-04-13T13:26:35Z</time><name>PT7133</name></trkpt>
<trkpt lat="52.088487" lon="05.651373"><ele>23.3</ele><time>2022-04-13T13:26:36Z</time><name>PT7134</name></trkpt>
<trkpt lat="52.088482" lon="05.651384"><ele>23.1</ele><time>2022-04-13T13:26:37Z</time><name>PT7135</name></trkpt>
<trkpt lat="52.088474" lon="05.651402"><ele>23.2</ele><time>2022-04-13T13:26:38Z</time><name>PT7136</name></trkpt>
<trkpt lat="52.088464" lon="05.651418"><ele>23.2</ele><time>2022-04-13T13:26:39Z</time><name>PT7137</name></trkpt>
<trkpt lat="52.088456" lon="05.651427"><ele>23</ele><time>2022-04-13T13:26:40Z</time><name>PT7138</name></trkpt>
<trkpt lat="52.088452" lon="05.651434"><ele>23</ele><time>2022-04-13T13:26:41Z</time><name>PT7139</name></trkpt>
<trkpt lat="52.088437" lon="05.651441"><ele>23.1</ele><time>2022-04-13T13:26:42Z</time><name>PT7140</name></trkpt>
<trkpt lat="52.088428" lon="05.651452"><ele>23</ele><time>2022-04-13T13:26:43Z</time><name>PT7141</name></trkpt>
<trkpt lat="52.088423" lon="05.651461"><ele>22.9</ele><time>2022-04-13T13:26:44Z</time><name>PT7142</name></trkpt>
<trkpt lat="52.088419" lon="05.651466"><ele>23</ele><time>2022-04-13T13:26:45Z</time><name>PT7143</name></trkpt>
<trkpt lat="52.088413" lon="05.651474"><ele>23</ele><time>2022-04-13T13:26:46Z</time><name>PT7144</name></trkpt>
<trkpt lat="52.088407" lon="05.651489"><ele>22.8</ele><time>2022-04-13T13:26:47Z</time><name>PT7145</name></trkpt>
<trkpt lat="52.088403" lon="05.651504"><ele>22.8</ele><time>2022-04-13T13:26:48Z</time><name>PT7146</name></trkpt>
<trkpt lat="52.088395" lon="05.651514"><ele>22.9</ele><time>2022-04-13T13:26:49Z</time><name>PT7147</name></trkpt>
<trkpt lat="52.088383" lon="05.651525"><ele>22.9</ele><time>2022-04-13T13:26:50Z</time><name>PT7148</name></trkpt>
<trkpt lat="52.088377" lon="05.651538"><ele>22.9</ele><time>2022-04-13T13:26:51Z</time><name>PT7149</name></trkpt>
<trkpt lat="52.088370" lon="05.651549"><ele>23</ele><time>2022-04-13T13:26:52Z</time><name>PT7150</name></trkpt>
<trkpt lat="52.088362" lon="05.651557"><ele>23</ele><time>2022-04-13T13:26:53Z</time><name>PT7151</name></trkpt>
<trkpt lat="52.088350" lon="05.651560"><ele>23.2</ele><time>2022-04-13T13:26:54Z</time><name>PT7152</name></trkpt>
<trkpt lat="52.088343" lon="05.651566"><ele>23.3</ele><time>2022-04-13T13:26:55Z</time><name>PT7153</name></trkpt>
<trkpt lat="52.088338" lon="05.651569"><ele>23.3</ele><time>2022-04-13T13:26:56Z</time><name>PT7154</name></trkpt>
<trkpt lat="52.088340" lon="05.651562"><ele>23.3</ele><time>2022-04-13T13:26:57Z</time><name>PT7155</name></trkpt>
<trkpt lat="52.088338" lon="05.651557"><ele>23.5</ele><time>2022-04-13T13:26:58Z</time><name>PT7156</name></trkpt>
<trkpt lat="52.088335" lon="05.651555"><ele>23.4</ele><time>2022-04-13T13:26:59Z</time><name>PT7157</name></trkpt>
<trkpt lat="52.088332" lon="05.651552"><ele>23.5</ele><time>2022-04-13T13:27:00Z</time><name>PT7158</name></trkpt>
<trkpt lat="52.088330" lon="05.651556"><ele>23.6</ele><time>2022-04-13T13:27:06Z</time><name>PT7159</name></trkpt>
<trkpt lat="52.088323" lon="05.651562"><ele>23.5</ele><time>2022-04-13T13:27:07Z</time><name>PT7160</name></trkpt>
<trkpt lat="52.088319" lon="05.651567"><ele>23.5</ele><time>2022-04-13T13:27:08Z</time><name>PT7161</name></trkpt>
<trkpt lat="52.088315" lon="05.651566"><ele>23.5</ele><time>2022-04-13T13:27:09Z</time><name>PT7162</name></trkpt>
<trkpt lat="52.088311" lon="05.651567"><ele>23.5</ele><time>2022-04-13T13:27:10Z</time><name>PT7163</name></trkpt>
<trkpt lat="52.088309" lon="05.651573"><ele>23.7</ele><time>2022-04-13T13:27:14Z</time><name>PT7164</name></trkpt>
<trkpt lat="52.088304" lon="05.651580"><ele>23.6</ele><time>2022-04-13T13:27:15Z</time><name>PT7165</name></trkpt>
<trkpt lat="52.088294" lon="05.651583"><ele>23.5</ele><time>2022-04-13T13:27:16Z</time><name>PT7166</name></trkpt>
<trkpt lat="52.088282" lon="05.651585"><ele>23.5</ele><time>2022-04-13T13:27:17Z</time><name>PT7167</name></trkpt>
<trkpt lat="52.088273" lon="05.651590"><ele>23.5</ele><time>2022-04-13T13:27:18Z</time><name>PT7168</name></trkpt>
<trkpt lat="52.088268" lon="05.651593"><ele>23.5</ele><time>2022-04-13T13:27:19Z</time><name>PT7169</name></trkpt>
<trkpt lat="52.088263" lon="05.651596"><ele>23.5</ele><time>2022-04-13T13:27:20Z</time><name>PT7170</name></trkpt>
<trkpt lat="52.088258" lon="05.651609"><ele>23.7</ele><time>2022-04-13T13:27:21Z</time><name>PT7171</name></trkpt>
<trkpt lat="52.088255" lon="05.651621"><ele>23.9</ele><time>2022-04-13T13:27:22Z</time><name>PT7172</name></trkpt>
<trkpt lat="52.088250" lon="05.651639"><ele>24</ele><time>2022-04-13T13:27:23Z</time><name>PT7173</name></trkpt>
<trkpt lat="52.088242" lon="05.651653"><ele>24</ele><time>2022-04-13T13:27:24Z</time><name>PT7174</name></trkpt>
<trkpt lat="52.088239" lon="05.651669"><ele>24</ele><time>2022-04-13T13:27:25Z</time><name>PT7175</name></trkpt>
<trkpt lat="52.088233" lon="05.651683"><ele>24</ele><time>2022-04-13T13:27:26Z</time><name>PT7176</name></trkpt>
<trkpt lat="52.088227" lon="05.651690"><ele>24</ele><time>2022-04-13T13:27:27Z</time><name>PT7177</name></trkpt>
<trkpt lat="52.088217" lon="05.651700"><ele>23.9</ele><time>2022-04-13T13:27:28Z</time><name>PT7178</name></trkpt>
<trkpt lat="52.088206" lon="05.651707"><ele>24</ele><time>2022-04-13T13:27:29Z</time><name>PT7179</name></trkpt>
<trkpt lat="52.088198" lon="05.651716"><ele>24.1</ele><time>2022-04-13T13:27:30Z</time><name>PT7180</name></trkpt>
<trkpt lat="52.088190" lon="05.651732"><ele>24.3</ele><time>2022-04-13T13:27:31Z</time><name>PT7181</name></trkpt>
<trkpt lat="52.088183" lon="05.651742"><ele>24.5</ele><time>2022-04-13T13:27:32Z</time><name>PT7182</name></trkpt>
<trkpt lat="52.088179" lon="05.651752"><ele>24.7</ele><time>2022-04-13T13:27:33Z</time><name>PT7183</name></trkpt>
<trkpt lat="52.088175" lon="05.651757"><ele>24.7</ele><time>2022-04-13T13:27:34Z</time><name>PT7184</name></trkpt>
<trkpt lat="52.088172" lon="05.651760"><ele>24.7</ele><time>2022-04-13T13:27:35Z</time><name>PT7185</name></trkpt>
<trkpt lat="52.088167" lon="05.651769"><ele>24.9</ele><time>2022-04-13T13:27:36Z</time><name>PT7186</name></trkpt>
<trkpt lat="52.088161" lon="05.651776"><ele>25</ele><time>2022-04-13T13:27:37Z</time><name>PT7187</name></trkpt>
<trkpt lat="52.088157" lon="05.651781"><ele>25</ele><time>2022-04-13T13:27:38Z</time><name>PT7188</name></trkpt>
<trkpt lat="52.088154" lon="05.651789"><ele>25.1</ele><time>2022-04-13T13:27:39Z</time><name>PT7189</name></trkpt>
<trkpt lat="52.088152" lon="05.651794"><ele>25.1</ele><time>2022-04-13T13:27:40Z</time><name>PT7190</name></trkpt>
<trkpt lat="52.088149" lon="05.651793"><ele>25</ele><time>2022-04-13T13:27:41Z</time><name>PT7191</name></trkpt>
<trkpt lat="52.088147" lon="05.651797"><ele>24.9</ele><time>2022-04-13T13:27:43Z</time><name>PT7192</name></trkpt>
<trkpt lat="52.088144" lon="05.651811"><ele>24.9</ele><time>2022-04-13T13:27:44Z</time><name>PT7193</name></trkpt>
<trkpt lat="52.088139" lon="05.651824"><ele>25</ele><time>2022-04-13T13:27:45Z</time><name>PT7194</name></trkpt>
<trkpt lat="52.088128" lon="05.651833"><ele>25</ele><time>2022-04-13T13:27:46Z</time><name>PT7195</name></trkpt>
<trkpt lat="52.088118" lon="05.651842"><ele>24.9</ele><time>2022-04-13T13:27:47Z</time><name>PT7196</name></trkpt>
<trkpt lat="52.088111" lon="05.651854"><ele>25</ele><time>2022-04-13T13:27:48Z</time><name>PT7197</name></trkpt>
<trkpt lat="52.088106" lon="05.651856"><ele>25.2</ele><time>2022-04-13T13:27:49Z</time><name>PT7198</name></trkpt>
<trkpt lat="52.088104" lon="05.651860"><ele>25.2</ele><time>2022-04-13T13:27:50Z</time><name>PT7199</name></trkpt>
<trkpt lat="52.088103" lon="05.651862"><ele>25.2</ele><time>2022-04-13T13:27:51Z</time><name>PT7200</name></trkpt>
<trkpt lat="52.088102" lon="05.651864"><ele>25.3</ele><time>2022-04-13T13:27:52Z</time><name>PT7201</name></trkpt>
<trkpt lat="52.088102" lon="05.651866"><ele>25.3</ele><time>2022-04-13T13:27:53Z</time><name>PT7202</name></trkpt>
<trkpt lat="52.088096" lon="05.651875"><ele>25.4</ele><time>2022-04-13T13:28:01Z</time><name>PT7203</name></trkpt>
<trkpt lat="52.088086" lon="05.651891"><ele>25.4</ele><time>2022-04-13T13:28:02Z</time><name>PT7204</name></trkpt>
<trkpt lat="52.088079" lon="05.651909"><ele>25.4</ele><time>2022-04-13T13:28:03Z</time><name>PT7205</name></trkpt>
<trkpt lat="52.088076" lon="05.651917"><ele>25.4</ele><time>2022-04-13T13:28:04Z</time><name>PT7206</name></trkpt>
<trkpt lat="52.088069" lon="05.651926"><ele>25.5</ele><time>2022-04-13T13:28:05Z</time><name>PT7207</name></trkpt>
<trkpt lat="52.088056" lon="05.651938"><ele>25.7</ele><time>2022-04-13T13:28:06Z</time><name>PT7208</name></trkpt>
<trkpt lat="52.088045" lon="05.651946"><ele>25.8</ele><time>2022-04-13T13:28:07Z</time><name>PT7209</name></trkpt>
<trkpt lat="52.088036" lon="05.651960"><ele>25.7</ele><time>2022-04-13T13:28:08Z</time><name>PT7210</name></trkpt>
<trkpt lat="52.088029" lon="05.651976"><ele>25.8</ele><time>2022-04-13T13:28:09Z</time><name>PT7211</name></trkpt>
<trkpt lat="52.088025" lon="05.651986"><ele>25.8</ele><time>2022-04-13T13:28:10Z</time><name>PT7212</name></trkpt>
<trkpt lat="52.088016" lon="05.651995"><ele>25.9</ele><time>2022-04-13T13:28:11Z</time><name>PT7213</name></trkpt>
<trkpt lat="52.088006" lon="05.652007"><ele>25.9</ele><time>2022-04-13T13:28:12Z</time><name>PT7214</name></trkpt>
<trkpt lat="52.087997" lon="05.652017"><ele>25.9</ele><time>2022-04-13T13:28:13Z</time><name>PT7215</name></trkpt>
<trkpt lat="52.087987" lon="05.652025"><ele>25.9</ele><time>2022-04-13T13:28:14Z</time><name>PT7216</name></trkpt>
<trkpt lat="52.087976" lon="05.652033"><ele>25.9</ele><time>2022-04-13T13:28:15Z</time><name>PT7217</name></trkpt>
<trkpt lat="52.087971" lon="05.652041"><ele>26</ele><time>2022-04-13T13:28:16Z</time><name>PT7218</name></trkpt>
<trkpt lat="52.087966" lon="05.652047"><ele>26</ele><time>2022-04-13T13:28:17Z</time><name>PT7219</name></trkpt>
<trkpt lat="52.087954" lon="05.652064"><ele>26.1</ele><time>2022-04-13T13:28:18Z</time><name>PT7220</name></trkpt>
<trkpt lat="52.087948" lon="05.652072"><ele>26.2</ele><time>2022-04-13T13:28:19Z</time><name>PT7221</name></trkpt>
<trkpt lat="52.087934" lon="05.652085"><ele>26.1</ele><time>2022-04-13T13:28:20Z</time><name>PT7222</name></trkpt>
<trkpt lat="52.087920" lon="05.652102"><ele>25.9</ele><time>2022-04-13T13:28:21Z</time><name>PT7223</name></trkpt>
<trkpt lat="52.087909" lon="05.652114"><ele>25.9</ele><time>2022-04-13T13:28:22Z</time><name>PT7224</name></trkpt>
<trkpt lat="52.087901" lon="05.652124"><ele>25.9</ele><time>2022-04-13T13:28:23Z</time><name>PT7225</name></trkpt>
<trkpt lat="52.087894" lon="05.652132"><ele>25.9</ele><time>2022-04-13T13:28:24Z</time><name>PT7226</name></trkpt>
<trkpt lat="52.087887" lon="05.652137"><ele>25.8</ele><time>2022-04-13T13:28:25Z</time><name>PT7227</name></trkpt>
<trkpt lat="52.087877" lon="05.652146"><ele>25.9</ele><time>2022-04-13T13:28:26Z</time><name>PT7228</name></trkpt>
<trkpt lat="52.087866" lon="05.652159"><ele>26</ele><time>2022-04-13T13:28:27Z</time><name>PT7229</name></trkpt>
<trkpt lat="52.087858" lon="05.652169"><ele>26.1</ele><time>2022-04-13T13:28:28Z</time><name>PT7230</name></trkpt>
<trkpt lat="52.087850" lon="05.652173"><ele>26.2</ele><time>2022-04-13T13:28:29Z</time><name>PT7231</name></trkpt>
<trkpt lat="52.087846" lon="05.652181"><ele>26.2</ele><time>2022-04-13T13:28:30Z</time><name>PT7232</name></trkpt>
<trkpt lat="52.087834" lon="05.652187"><ele>26.3</ele><time>2022-04-13T13:28:31Z</time><name>PT7233</name></trkpt>
<trkpt lat="52.087822" lon="05.652193"><ele>26.3</ele><time>2022-04-13T13:28:32Z</time><name>PT7234</name></trkpt>
<trkpt lat="52.087815" lon="05.652197"><ele>26.3</ele><time>2022-04-13T13:28:33Z</time><name>PT7235</name></trkpt>
<trkpt lat="52.087806" lon="05.652209"><ele>26.4</ele><time>2022-04-13T13:28:34Z</time><name>PT7236</name></trkpt>
<trkpt lat="52.087797" lon="05.652220"><ele>26.4</ele><time>2022-04-13T13:28:35Z</time><name>PT7237</name></trkpt>
<trkpt lat="52.087787" lon="05.652229"><ele>26.4</ele><time>2022-04-13T13:28:36Z</time><name>PT7238</name></trkpt>
<trkpt lat="52.087780" lon="05.652239"><ele>26.4</ele><time>2022-04-13T13:28:37Z</time><name>PT7239</name></trkpt>
<trkpt lat="52.087769" lon="05.652251"><ele>26.4</ele><time>2022-04-13T13:28:38Z</time><name>PT7240</name></trkpt>
<trkpt lat="52.087763" lon="05.652266"><ele>26.4</ele><time>2022-04-13T13:28:39Z</time><name>PT7241</name></trkpt>
<trkpt lat="52.087757" lon="05.652274"><ele>26.5</ele><time>2022-04-13T13:28:40Z</time><name>PT7242</name></trkpt>
<trkpt lat="52.087749" lon="05.652287"><ele>26.5</ele><time>2022-04-13T13:28:41Z</time><name>PT7243</name></trkpt>
<trkpt lat="52.087740" lon="05.652296"><ele>26.6</ele><time>2022-04-13T13:28:42Z</time><name>PT7244</name></trkpt>
<trkpt lat="52.087729" lon="05.652305"><ele>26.7</ele><time>2022-04-13T13:28:43Z</time><name>PT7245</name></trkpt>
<trkpt lat="52.087717" lon="05.652319"><ele>26.8</ele><time>2022-04-13T13:28:44Z</time><name>PT7246</name></trkpt>
<trkpt lat="52.087711" lon="05.652336"><ele>26.7</ele><time>2022-04-13T13:28:45Z</time><name>PT7247</name></trkpt>
<trkpt lat="52.087706" lon="05.652345"><ele>26.7</ele><time>2022-04-13T13:28:46Z</time><name>PT7248</name></trkpt>
<trkpt lat="52.087699" lon="05.652353"><ele>26.8</ele><time>2022-04-13T13:28:47Z</time><name>PT7249</name></trkpt>
<trkpt lat="52.087689" lon="05.652363"><ele>26.9</ele><time>2022-04-13T13:28:48Z</time><name>PT7250</name></trkpt>
<trkpt lat="52.087683" lon="05.652378"><ele>26.9</ele><time>2022-04-13T13:28:49Z</time><name>PT7251</name></trkpt>
<trkpt lat="52.087667" lon="05.652397"><ele>27</ele><time>2022-04-13T13:28:50Z</time><name>PT7252</name></trkpt>
<trkpt lat="52.087656" lon="05.652411"><ele>27</ele><time>2022-04-13T13:28:51Z</time><name>PT7253</name></trkpt>
<trkpt lat="52.087649" lon="05.652419"><ele>27</ele><time>2022-04-13T13:28:52Z</time><name>PT7254</name></trkpt>
<trkpt lat="52.087642" lon="05.652426"><ele>27.1</ele><time>2022-04-13T13:28:53Z</time><name>PT7255</name></trkpt>
<trkpt lat="52.087633" lon="05.652438"><ele>27.1</ele><time>2022-04-13T13:28:54Z</time><name>PT7256</name></trkpt>
<trkpt lat="52.087616" lon="05.652446"><ele>27.2</ele><time>2022-04-13T13:28:55Z</time><name>PT7257</name></trkpt>
<trkpt lat="52.087603" lon="05.652461"><ele>27.2</ele><time>2022-04-13T13:28:56Z</time><name>PT7258</name></trkpt>
<trkpt lat="52.087593" lon="05.652476"><ele>27.3</ele><time>2022-04-13T13:28:57Z</time><name>PT7259</name></trkpt>
<trkpt lat="52.087589" lon="05.652487"><ele>27.3</ele><time>2022-04-13T13:28:58Z</time><name>PT7260</name></trkpt>
<trkpt lat="52.087586" lon="05.652495"><ele>27.3</ele><time>2022-04-13T13:28:59Z</time><name>PT7261</name></trkpt>
<trkpt lat="52.087581" lon="05.652501"><ele>27.3</ele><time>2022-04-13T13:29:00Z</time><name>PT7262</name></trkpt>
<trkpt lat="52.087574" lon="05.652515"><ele>27.4</ele><time>2022-04-13T13:29:01Z</time><name>PT7263</name></trkpt>
<trkpt lat="52.087565" lon="05.652531"><ele>27.3</ele><time>2022-04-13T13:29:02Z</time><name>PT7264</name></trkpt>
<trkpt lat="52.087557" lon="05.652543"><ele>27.3</ele><time>2022-04-13T13:29:03Z</time><name>PT7265</name></trkpt>
<trkpt lat="52.087553" lon="05.652549"><ele>27.4</ele><time>2022-04-13T13:29:04Z</time><name>PT7266</name></trkpt>
<trkpt lat="52.087547" lon="05.652556"><ele>27.4</ele><time>2022-04-13T13:29:05Z</time><name>PT7267</name></trkpt>
<trkpt lat="52.087540" lon="05.652561"><ele>27.3</ele><time>2022-04-13T13:29:06Z</time><name>PT7268</name></trkpt>
<trkpt lat="52.087532" lon="05.652564"><ele>27.4</ele><time>2022-04-13T13:29:07Z</time><name>PT7269</name></trkpt>
<trkpt lat="52.087519" lon="05.652571"><ele>27.3</ele><time>2022-04-13T13:29:08Z</time><name>PT7270</name></trkpt>
<trkpt lat="52.087509" lon="05.652585"><ele>27.3</ele><time>2022-04-13T13:29:09Z</time><name>PT7271</name></trkpt>
<trkpt lat="52.087503" lon="05.652597"><ele>27.3</ele><time>2022-04-13T13:29:10Z</time><name>PT7272</name></trkpt>
<trkpt lat="52.087497" lon="05.652608"><ele>27.2</ele><time>2022-04-13T13:29:11Z</time><name>PT7273</name></trkpt>
<trkpt lat="52.087491" lon="05.652623"><ele>27.3</ele><time>2022-04-13T13:29:12Z</time><name>PT7274</name></trkpt>
<trkpt lat="52.087483" lon="05.652636"><ele>27.3</ele><time>2022-04-13T13:29:13Z</time><name>PT7275</name></trkpt>
<trkpt lat="52.087475" lon="05.652647"><ele>27.4</ele><time>2022-04-13T13:29:14Z</time><name>PT7276</name></trkpt>
<trkpt lat="52.087465" lon="05.652658"><ele>27.3</ele><time>2022-04-13T13:29:15Z</time><name>PT7277</name></trkpt>
<trkpt lat="52.087459" lon="05.652668"><ele>27.3</ele><time>2022-04-13T13:29:16Z</time><name>PT7278</name></trkpt>
<trkpt lat="52.087451" lon="05.652679"><ele>27.3</ele><time>2022-04-13T13:29:17Z</time><name>PT7279</name></trkpt>
<trkpt lat="52.087443" lon="05.652684"><ele>27.4</ele><time>2022-04-13T13:29:18Z</time><name>PT7280</name></trkpt>
<trkpt lat="52.087432" lon="05.652696"><ele>27.4</ele><time>2022-04-13T13:29:19Z</time><name>PT7281</name></trkpt>
<trkpt lat="52.087420" lon="05.652707"><ele>27.6</ele><time>2022-04-13T13:29:20Z</time><name>PT7282</name></trkpt>
<trkpt lat="52.087410" lon="05.652725"><ele>27.7</ele><time>2022-04-13T13:29:21Z</time><name>PT7283</name></trkpt>
<trkpt lat="52.087403" lon="05.652737"><ele>27.7</ele><time>2022-04-13T13:29:22Z</time><name>PT7284</name></trkpt>
<trkpt lat="52.087397" lon="05.652747"><ele>27.5</ele><time>2022-04-13T13:29:23Z</time><name>PT7285</name></trkpt>
<trkpt lat="52.087387" lon="05.652752"><ele>27.4</ele><time>2022-04-13T13:29:24Z</time><name>PT7286</name></trkpt>
<trkpt lat="52.087376" lon="05.652762"><ele>27.5</ele><time>2022-04-13T13:29:25Z</time><name>PT7287</name></trkpt>
<trkpt lat="52.087363" lon="05.652778"><ele>27.5</ele><time>2022-04-13T13:29:26Z</time><name>PT7288</name></trkpt>
<trkpt lat="52.087351" lon="05.652791"><ele>27.4</ele><time>2022-04-13T13:29:27Z</time><name>PT7289</name></trkpt>
<trkpt lat="52.087342" lon="05.652801"><ele>27.6</ele><time>2022-04-13T13:29:28Z</time><name>PT7290</name></trkpt>
<trkpt lat="52.087332" lon="05.652812"><ele>27.6</ele><time>2022-04-13T13:29:29Z</time><name>PT7291</name></trkpt>
<trkpt lat="52.087320" lon="05.652825"><ele>27.5</ele><time>2022-04-13T13:29:30Z</time><name>PT7292</name></trkpt>
<trkpt lat="52.087311" lon="05.652834"><ele>27.3</ele><time>2022-04-13T13:29:31Z</time><name>PT7293</name></trkpt>
<trkpt lat="52.087300" lon="05.652853"><ele>27.3</ele><time>2022-04-13T13:29:32Z</time><name>PT7294</name></trkpt>
<trkpt lat="52.087293" lon="05.652871"><ele>27.3</ele><time>2022-04-13T13:29:33Z</time><name>PT7295</name></trkpt>
<trkpt lat="52.087285" lon="05.652878"><ele>27.2</ele><time>2022-04-13T13:29:34Z</time><name>PT7296</name></trkpt>
<trkpt lat="52.087279" lon="05.652883"><ele>27.3</ele><time>2022-04-13T13:29:35Z</time><name>PT7297</name></trkpt>
<trkpt lat="52.087271" lon="05.652887"><ele>27.3</ele><time>2022-04-13T13:29:36Z</time><name>PT7298</name></trkpt>
<trkpt lat="52.087264" lon="05.652892"><ele>27.4</ele><time>2022-04-13T13:29:37Z</time><name>PT7299</name></trkpt>
<trkpt lat="52.087254" lon="05.652902"><ele>27.4</ele><time>2022-04-13T13:29:38Z</time><name>PT7300</name></trkpt>
<trkpt lat="52.087246" lon="05.652915"><ele>27.7</ele><time>2022-04-13T13:29:39Z</time><name>PT7301</name></trkpt>
<trkpt lat="52.087241" lon="05.652926"><ele>27.8</ele><time>2022-04-13T13:29:40Z</time><name>PT7302</name></trkpt>
<trkpt lat="52.087236" lon="05.652933"><ele>27.8</ele><time>2022-04-13T13:29:41Z</time><name>PT7303</name></trkpt>
<trkpt lat="52.087230" lon="05.652941"><ele>27.8</ele><time>2022-04-13T13:29:42Z</time><name>PT7304</name></trkpt>
<trkpt lat="52.087224" lon="05.652950"><ele>27.8</ele><time>2022-04-13T13:29:43Z</time><name>PT7305</name></trkpt>
<trkpt lat="52.087221" lon="05.652958"><ele>27.8</ele><time>2022-04-13T13:29:44Z</time><name>PT7306</name></trkpt>
<trkpt lat="52.087217" lon="05.652964"><ele>27.8</ele><time>2022-04-13T13:29:45Z</time><name>PT7307</name></trkpt>
<trkpt lat="52.087211" lon="05.652973"><ele>27.8</ele><time>2022-04-13T13:29:46Z</time><name>PT7308</name></trkpt>
<trkpt lat="52.087209" lon="05.652980"><ele>27.8</ele><time>2022-04-13T13:29:47Z</time><name>PT7309</name></trkpt>
<trkpt lat="52.087201" lon="05.652992"><ele>27.8</ele><time>2022-04-13T13:29:48Z</time><name>PT7310</name></trkpt>
<trkpt lat="52.087188" lon="05.653010"><ele>28</ele><time>2022-04-13T13:29:49Z</time><name>PT7311</name></trkpt>
<trkpt lat="52.087179" lon="05.653026"><ele>27.9</ele><time>2022-04-13T13:29:50Z</time><name>PT7312</name></trkpt>
<trkpt lat="52.087176" lon="05.653034"><ele>28</ele><time>2022-04-13T13:29:51Z</time><name>PT7313</name></trkpt>
<trkpt lat="52.087171" lon="05.653042"><ele>28</ele><time>2022-04-13T13:29:52Z</time><name>PT7314</name></trkpt>
<trkpt lat="52.087162" lon="05.653051"><ele>27.9</ele><time>2022-04-13T13:29:53Z</time><name>PT7315</name></trkpt>
<trkpt lat="52.087156" lon="05.653061"><ele>28</ele><time>2022-04-13T13:29:54Z</time><name>PT7316</name></trkpt>
<trkpt lat="52.087146" lon="05.653074"><ele>27.8</ele><time>2022-04-13T13:29:55Z</time><name>PT7317</name></trkpt>
<trkpt lat="52.087136" lon="05.653084"><ele>27.9</ele><time>2022-04-13T13:29:56Z</time><name>PT7318</name></trkpt>
<trkpt lat="52.087127" lon="05.653095"><ele>27.9</ele><time>2022-04-13T13:29:57Z</time><name>PT7319</name></trkpt>
<trkpt lat="52.087116" lon="05.653105"><ele>28.1</ele><time>2022-04-13T13:29:58Z</time><name>PT7320</name></trkpt>
<trkpt lat="52.087110" lon="05.653119"><ele>28.1</ele><time>2022-04-13T13:29:59Z</time><name>PT7321</name></trkpt>
<trkpt lat="52.087104" lon="05.653132"><ele>28.2</ele><time>2022-04-13T13:30:00Z</time><name>PT7322</name></trkpt>
<trkpt lat="52.087102" lon="05.653143"><ele>28.1</ele><time>2022-04-13T13:30:01Z</time><name>PT7323</name></trkpt>
<trkpt lat="52.087098" lon="05.653152"><ele>28.1</ele><time>2022-04-13T13:30:02Z</time><name>PT7324</name></trkpt>
<trkpt lat="52.087091" lon="05.653161"><ele>28.1</ele><time>2022-04-13T13:30:03Z</time><name>PT7325</name></trkpt>
<trkpt lat="52.087085" lon="05.653173"><ele>28.3</ele><time>2022-04-13T13:30:04Z</time><name>PT7326</name></trkpt>
<trkpt lat="52.087079" lon="05.653186"><ele>28.3</ele><time>2022-04-13T13:30:05Z</time><name>PT7327</name></trkpt>
<trkpt lat="52.087071" lon="05.653197"><ele>28.5</ele><time>2022-04-13T13:30:06Z</time><name>PT7328</name></trkpt>
<trkpt lat="52.087064" lon="05.653203"><ele>28.6</ele><time>2022-04-13T13:30:07Z</time><name>PT7329</name></trkpt>
<trkpt lat="52.087057" lon="05.653210"><ele>28.5</ele><time>2022-04-13T13:30:08Z</time><name>PT7330</name></trkpt>
<trkpt lat="52.087046" lon="05.653224"><ele>28.4</ele><time>2022-04-13T13:30:09Z</time><name>PT7331</name></trkpt>
<trkpt lat="52.087033" lon="05.653237"><ele>28.4</ele><time>2022-04-13T13:30:10Z</time><name>PT7332</name></trkpt>
<trkpt lat="52.087022" lon="05.653247"><ele>28.4</ele><time>2022-04-13T13:30:11Z</time><name>PT7333</name></trkpt>
<trkpt lat="52.087017" lon="05.653253"><ele>28.5</ele><time>2022-04-13T13:30:12Z</time><name>PT7334</name></trkpt>
<trkpt lat="52.087009" lon="05.653257"><ele>28.8</ele><time>2022-04-13T13:30:13Z</time><name>PT7335</name></trkpt>
<trkpt lat="52.087000" lon="05.653268"><ele>28.7</ele><time>2022-04-13T13:30:14Z</time><name>PT7336</name></trkpt>
<trkpt lat="52.086991" lon="05.653284"><ele>28.6</ele><time>2022-04-13T13:30:15Z</time><name>PT7337</name></trkpt>
<trkpt lat="52.086980" lon="05.653298"><ele>28.8</ele><time>2022-04-13T13:30:16Z</time><name>PT7338</name></trkpt>
<trkpt lat="52.086974" lon="05.653304"><ele>28.8</ele><time>2022-04-13T13:30:17Z</time><name>PT7339</name></trkpt>
<trkpt lat="52.086968" lon="05.653309"><ele>28.8</ele><time>2022-04-13T13:30:18Z</time><name>PT7340</name></trkpt>
<trkpt lat="52.086964" lon="05.653318"><ele>28.8</ele><time>2022-04-13T13:30:19Z</time><name>PT7341</name></trkpt>
<trkpt lat="52.086958" lon="05.653330"><ele>28.8</ele><time>2022-04-13T13:30:20Z</time><name>PT7342</name></trkpt>
<trkpt lat="52.086952" lon="05.653341"><ele>28.9</ele><time>2022-04-13T13:30:21Z</time><name>PT7343</name></trkpt>
<trkpt lat="52.086943" lon="05.653350"><ele>28.8</ele><time>2022-04-13T13:30:22Z</time><name>PT7344</name></trkpt>
<trkpt lat="52.086936" lon="05.653354"><ele>28.7</ele><time>2022-04-13T13:30:23Z</time><name>PT7345</name></trkpt>
<trkpt lat="52.086927" lon="05.653358"><ele>28.7</ele><time>2022-04-13T13:30:24Z</time><name>PT7346</name></trkpt>
<trkpt lat="52.086919" lon="05.653366"><ele>28.8</ele><time>2022-04-13T13:30:25Z</time><name>PT7347</name></trkpt>
<trkpt lat="52.086907" lon="05.653380"><ele>28.8</ele><time>2022-04-13T13:30:26Z</time><name>PT7348</name></trkpt>
<trkpt lat="52.086896" lon="05.653393"><ele>29</ele><time>2022-04-13T13:30:27Z</time><name>PT7349</name></trkpt>
<trkpt lat="52.086890" lon="05.653402"><ele>29.1</ele><time>2022-04-13T13:30:28Z</time><name>PT7350</name></trkpt>
<trkpt lat="52.086882" lon="05.653412"><ele>29.3</ele><time>2022-04-13T13:30:29Z</time><name>PT7351</name></trkpt>
<trkpt lat="52.086870" lon="05.653429"><ele>29.4</ele><time>2022-04-13T13:30:30Z</time><name>PT7352</name></trkpt>
<trkpt lat="52.086851" lon="05.653447"><ele>29.5</ele><time>2022-04-13T13:30:31Z</time><name>PT7353</name></trkpt>
<trkpt lat="52.086843" lon="05.653459"><ele>29.3</ele><time>2022-04-13T13:30:32Z</time><name>PT7354</name></trkpt>
<trkpt lat="52.086835" lon="05.653465"><ele>29.3</ele><time>2022-04-13T13:30:33Z</time><name>PT7355</name></trkpt>
<trkpt lat="52.086828" lon="05.653473"><ele>29.3</ele><time>2022-04-13T13:30:34Z</time><name>PT7356</name></trkpt>
<trkpt lat="52.086817" lon="05.653483"><ele>29.3</ele><time>2022-04-13T13:30:35Z</time><name>PT7357</name></trkpt>
<trkpt lat="52.086804" lon="05.653495"><ele>29.2</ele><time>2022-04-13T13:30:36Z</time><name>PT7358</name></trkpt>
<trkpt lat="52.086796" lon="05.653500"><ele>29.3</ele><time>2022-04-13T13:30:37Z</time><name>PT7359</name></trkpt>
<trkpt lat="52.086792" lon="05.653507"><ele>29.2</ele><time>2022-04-13T13:30:38Z</time><name>PT7360</name></trkpt>
<trkpt lat="52.086785" lon="05.653512"><ele>29.3</ele><time>2022-04-13T13:30:39Z</time><name>PT7361</name></trkpt>
<trkpt lat="52.086775" lon="05.653523"><ele>29.1</ele><time>2022-04-13T13:30:40Z</time><name>PT7362</name></trkpt>
<trkpt lat="52.086763" lon="05.653539"><ele>29.3</ele><time>2022-04-13T13:30:41Z</time><name>PT7363</name></trkpt>
<trkpt lat="52.086755" lon="05.653558"><ele>29.3</ele><time>2022-04-13T13:30:42Z</time><name>PT7364</name></trkpt>
<trkpt lat="52.086749" lon="05.653569"><ele>29.5</ele><time>2022-04-13T13:30:43Z</time><name>PT7365</name></trkpt>
<trkpt lat="52.086743" lon="05.653573"><ele>29.5</ele><time>2022-04-13T13:30:44Z</time><name>PT7366</name></trkpt>
<trkpt lat="52.086736" lon="05.653576"><ele>29.5</ele><time>2022-04-13T13:30:45Z</time><name>PT7367</name></trkpt>
<trkpt lat="52.086728" lon="05.653590"><ele>29.4</ele><time>2022-04-13T13:30:46Z</time><name>PT7368</name></trkpt>
<trkpt lat="52.086722" lon="05.653604"><ele>29.3</ele><time>2022-04-13T13:30:47Z</time><name>PT7369</name></trkpt>
<trkpt lat="52.086717" lon="05.653614"><ele>29.3</ele><time>2022-04-13T13:30:48Z</time><name>PT7370</name></trkpt>
<trkpt lat="52.086710" lon="05.653621"><ele>29.1</ele><time>2022-04-13T13:30:49Z</time><name>PT7371</name></trkpt>
<trkpt lat="52.086699" lon="05.653635"><ele>29.3</ele><time>2022-04-13T13:30:50Z</time><name>PT7372</name></trkpt>
<trkpt lat="52.086688" lon="05.653650"><ele>29.4</ele><time>2022-04-13T13:30:51Z</time><name>PT7373</name></trkpt>
<trkpt lat="52.086677" lon="05.653671"><ele>29.5</ele><time>2022-04-13T13:30:52Z</time><name>PT7374</name></trkpt>
<trkpt lat="52.086671" lon="05.653686"><ele>29.7</ele><time>2022-04-13T13:30:53Z</time><name>PT7375</name></trkpt>
<trkpt lat="52.086665" lon="05.653694"><ele>29.7</ele><time>2022-04-13T13:30:54Z</time><name>PT7376</name></trkpt>
<trkpt lat="52.086659" lon="05.653698"><ele>29.7</ele><time>2022-04-13T13:30:55Z</time><name>PT7377</name></trkpt>
<trkpt lat="52.086648" lon="05.653708"><ele>29.6</ele><time>2022-04-13T13:30:56Z</time><name>PT7378</name></trkpt>
<trkpt lat="52.086638" lon="05.653716"><ele>29.6</ele><time>2022-04-13T13:30:57Z</time><name>PT7379</name></trkpt>
<trkpt lat="52.086630" lon="05.653723"><ele>29.4</ele><time>2022-04-13T13:30:58Z</time><name>PT7380</name></trkpt>
<trkpt lat="52.086621" lon="05.653730"><ele>29.3</ele><time>2022-04-13T13:30:59Z</time><name>PT7381</name></trkpt>
<trkpt lat="52.086614" lon="05.653738"><ele>29.4</ele><time>2022-04-13T13:31:00Z</time><name>PT7382</name></trkpt>
<trkpt lat="52.086608" lon="05.653745"><ele>29.4</ele><time>2022-04-13T13:31:01Z</time><name>PT7383</name></trkpt>
<trkpt lat="52.086599" lon="05.653755"><ele>29.5</ele><time>2022-04-13T13:31:02Z</time><name>PT7384</name></trkpt>
<trkpt lat="52.086593" lon="05.653771"><ele>29.5</ele><time>2022-04-13T13:31:04Z</time><name>PT7385</name></trkpt>
<trkpt lat="52.086587" lon="05.653778"><ele>29.4</ele><time>2022-04-13T13:31:05Z</time><name>PT7386</name></trkpt>
<trkpt lat="52.086578" lon="05.653785"><ele>29.5</ele><time>2022-04-13T13:31:06Z</time><name>PT7387</name></trkpt>
<trkpt lat="52.086567" lon="05.653794"><ele>29.4</ele><time>2022-04-13T13:31:07Z</time><name>PT7388</name></trkpt>
<trkpt lat="52.086564" lon="05.653793"><ele>29.5</ele><time>2022-04-13T13:31:08Z</time><name>PT7389</name></trkpt>
<trkpt lat="52.086561" lon="05.653800"><ele>29.6</ele><time>2022-04-13T13:31:09Z</time><name>PT7390</name></trkpt>
<trkpt lat="52.086561" lon="05.653801"><ele>29.7</ele><time>2022-04-13T13:31:10Z</time><name>PT7391</name></trkpt>
<trkpt lat="52.086562" lon="05.653800"><ele>29.6</ele><time>2022-04-13T13:31:11Z</time><name>PT7392</name></trkpt>
<trkpt lat="52.086563" lon="05.653802"><ele>29.4</ele><time>2022-04-13T13:31:12Z</time><name>PT7393</name></trkpt>
<trkpt lat="52.086562" lon="05.653803"><ele>29.4</ele><time>2022-04-13T13:31:13Z</time><name>PT7394</name></trkpt>
<trkpt lat="52.086560" lon="05.653810"><ele>29.4</ele><time>2022-04-13T13:31:14Z</time><name>PT7395</name></trkpt>
<trkpt lat="52.086552" lon="05.653819"><ele>29.3</ele><time>2022-04-13T13:31:15Z</time><name>PT7396</name></trkpt>
<trkpt lat="52.086547" lon="05.653824"><ele>29.4</ele><time>2022-04-13T13:31:16Z</time><name>PT7397</name></trkpt>
<trkpt lat="52.086541" lon="05.653827"><ele>29.5</ele><time>2022-04-13T13:31:17Z</time><name>PT7398</name></trkpt>
<trkpt lat="52.086535" lon="05.653837"><ele>29.7</ele><time>2022-04-13T13:31:18Z</time><name>PT7399</name></trkpt>
<trkpt lat="52.086526" lon="05.653852"><ele>29.7</ele><time>2022-04-13T13:31:19Z</time><name>PT7400</name></trkpt>
<trkpt lat="52.086518" lon="05.653854"><ele>30.2</ele><time>2022-04-13T13:31:20Z</time><name>PT7401</name></trkpt>
<trkpt lat="52.086508" lon="05.653864"><ele>30.3</ele><time>2022-04-13T13:31:21Z</time><name>PT7402</name></trkpt>
<trkpt lat="52.086498" lon="05.653878"><ele>30.3</ele><time>2022-04-13T13:31:22Z</time><name>PT7403</name></trkpt>
<trkpt lat="52.086490" lon="05.653886"><ele>30.4</ele><time>2022-04-13T13:31:23Z</time><name>PT7404</name></trkpt>
<trkpt lat="52.086483" lon="05.653894"><ele>30.4</ele><time>2022-04-13T13:31:24Z</time><name>PT7405</name></trkpt>
<trkpt lat="52.086474" lon="05.653900"><ele>30.2</ele><time>2022-04-13T13:31:25Z</time><name>PT7406</name></trkpt>
<trkpt lat="52.086471" lon="05.653908"><ele>30.2</ele><time>2022-04-13T13:31:26Z</time><name>PT7407</name></trkpt>
<trkpt lat="52.086466" lon="05.653917"><ele>30.2</ele><time>2022-04-13T13:31:27Z</time><name>PT7408</name></trkpt>
<trkpt lat="52.086461" lon="05.653924"><ele>30.2</ele><time>2022-04-13T13:31:28Z</time><name>PT7409</name></trkpt>
<trkpt lat="52.086458" lon="05.653931"><ele>30.2</ele><time>2022-04-13T13:31:29Z</time><name>PT7410</name></trkpt>
<trkpt lat="52.086452" lon="05.653934"><ele>30.3</ele><time>2022-04-13T13:31:30Z</time><name>PT7411</name></trkpt>
<trkpt lat="52.086451" lon="05.653934"><ele>30.4</ele><time>2022-04-13T13:31:31Z</time><name>PT7412</name></trkpt>
<trkpt lat="52.086456" lon="05.653942"><ele>30.5</ele><time>2022-04-13T13:31:35Z</time><name>PT7413</name></trkpt>
<trkpt lat="52.086455" lon="05.653947"><ele>30.4</ele><time>2022-04-13T13:31:36Z</time><name>PT7414</name></trkpt>
<trkpt lat="52.086456" lon="05.653953"><ele>30.4</ele><time>2022-04-13T13:31:37Z</time><name>PT7415</name></trkpt>
<trkpt lat="52.086449" lon="05.653953"><ele>30.5</ele><time>2022-04-13T13:31:39Z</time><name>PT7416</name></trkpt>
<trkpt lat="52.086447" lon="05.653960"><ele>30.3</ele><time>2022-04-13T13:31:40Z</time><name>PT7417</name></trkpt>
<trkpt lat="52.086444" lon="05.653964"><ele>30.2</ele><time>2022-04-13T13:31:41Z</time><name>PT7418</name></trkpt>
<trkpt lat="52.086439" lon="05.653969"><ele>30.2</ele><time>2022-04-13T13:31:42Z</time><name>PT7419</name></trkpt>
<trkpt lat="52.086435" lon="05.653976"><ele>30.1</ele><time>2022-04-13T13:31:43Z</time><name>PT7420</name></trkpt>
<trkpt lat="52.086432" lon="05.653980"><ele>30</ele><time>2022-04-13T13:31:44Z</time><name>PT7421</name></trkpt>
<trkpt lat="52.086429" lon="05.653985"><ele>30</ele><time>2022-04-13T13:31:45Z</time><name>PT7422</name></trkpt>
<trkpt lat="52.086423" lon="05.653990"><ele>30</ele><time>2022-04-13T13:31:46Z</time><name>PT7423</name></trkpt>
<trkpt lat="52.086414" lon="05.653999"><ele>29.9</ele><time>2022-04-13T13:31:47Z</time><name>PT7424</name></trkpt>
<trkpt lat="52.086410" lon="05.654004"><ele>29.8</ele><time>2022-04-13T13:31:48Z</time><name>PT7425</name></trkpt>
<trkpt lat="52.086408" lon="05.654007"><ele>29.8</ele><time>2022-04-13T13:31:49Z</time><name>PT7426</name></trkpt>
<trkpt lat="52.086398" lon="05.654019"><ele>29.9</ele><time>2022-04-13T13:31:50Z</time><name>PT7427</name></trkpt>
<trkpt lat="52.086391" lon="05.654033"><ele>29.8</ele><time>2022-04-13T13:31:51Z</time><name>PT7428</name></trkpt>
<trkpt lat="52.086385" lon="05.654039"><ele>29.8</ele><time>2022-04-13T13:31:52Z</time><name>PT7429</name></trkpt>
<trkpt lat="52.086377" lon="05.654045"><ele>29.9</ele><time>2022-04-13T13:31:53Z</time><name>PT7430</name></trkpt>
<trkpt lat="52.086369" lon="05.654057"><ele>29.8</ele><time>2022-04-13T13:31:54Z</time><name>PT7431</name></trkpt>
<trkpt lat="52.086363" lon="05.654065"><ele>29.7</ele><time>2022-04-13T13:31:55Z</time><name>PT7432</name></trkpt>
<trkpt lat="52.086356" lon="05.654074"><ele>29.8</ele><time>2022-04-13T13:31:56Z</time><name>PT7433</name></trkpt>
<trkpt lat="52.086346" lon="05.654084"><ele>29.9</ele><time>2022-04-13T13:31:57Z</time><name>PT7434</name></trkpt>
<trkpt lat="52.086340" lon="05.654093"><ele>29.8</ele><time>2022-04-13T13:31:58Z</time><name>PT7435</name></trkpt>
<trkpt lat="52.086333" lon="05.654098"><ele>29.9</ele><time>2022-04-13T13:31:59Z</time><name>PT7436</name></trkpt>
<trkpt lat="52.086324" lon="05.654103"><ele>30</ele><time>2022-04-13T13:32:00Z</time><name>PT7437</name></trkpt>
<trkpt lat="52.086316" lon="05.654117"><ele>29.8</ele><time>2022-04-13T13:32:01Z</time><name>PT7438</name></trkpt>
<trkpt lat="52.086311" lon="05.654125"><ele>30</ele><time>2022-04-13T13:32:02Z</time><name>PT7439</name></trkpt>
<trkpt lat="52.086306" lon="05.654130"><ele>29.9</ele><time>2022-04-13T13:32:03Z</time><name>PT7440</name></trkpt>
<trkpt lat="52.086297" lon="05.654143"><ele>29.9</ele><time>2022-04-13T13:32:04Z</time><name>PT7441</name></trkpt>
<trkpt lat="52.086286" lon="05.654155"><ele>29.9</ele><time>2022-04-13T13:32:05Z</time><name>PT7442</name></trkpt>
<trkpt lat="52.086279" lon="05.654166"><ele>29.9</ele><time>2022-04-13T13:32:06Z</time><name>PT7443</name></trkpt>
<trkpt lat="52.086271" lon="05.654171"><ele>29.9</ele><time>2022-04-13T13:32:07Z</time><name>PT7444</name></trkpt>
<trkpt lat="52.086262" lon="05.654180"><ele>30</ele><time>2022-04-13T13:32:08Z</time><name>PT7445</name></trkpt>
<trkpt lat="52.086255" lon="05.654189"><ele>30</ele><time>2022-04-13T13:32:09Z</time><name>PT7446</name></trkpt>
<trkpt lat="52.086248" lon="05.654195"><ele>30</ele><time>2022-04-13T13:32:10Z</time><name>PT7447</name></trkpt>
<trkpt lat="52.086239" lon="05.654203"><ele>30</ele><time>2022-04-13T13:32:11Z</time><name>PT7448</name></trkpt>
<trkpt lat="52.086231" lon="05.654213"><ele>29.9</ele><time>2022-04-13T13:32:12Z</time><name>PT7449</name></trkpt>
<trkpt lat="52.086221" lon="05.654222"><ele>30</ele><time>2022-04-13T13:32:13Z</time><name>PT7450</name></trkpt>
<trkpt lat="52.086216" lon="05.654230"><ele>30</ele><time>2022-04-13T13:32:14Z</time><name>PT7451</name></trkpt>
<trkpt lat="52.086209" lon="05.654242"><ele>30</ele><time>2022-04-13T13:32:15Z</time><name>PT7452</name></trkpt>
<trkpt lat="52.086203" lon="05.654253"><ele>30.2</ele><time>2022-04-13T13:32:16Z</time><name>PT7453</name></trkpt>
<trkpt lat="52.086200" lon="05.654264"><ele>30.3</ele><time>2022-04-13T13:32:17Z</time><name>PT7454</name></trkpt>
<trkpt lat="52.086192" lon="05.654270"><ele>30.3</ele><time>2022-04-13T13:32:18Z</time><name>PT7455</name></trkpt>
<trkpt lat="52.086185" lon="05.654277"><ele>30.3</ele><time>2022-04-13T13:32:19Z</time><name>PT7456</name></trkpt>
<trkpt lat="52.086180" lon="05.654284"><ele>30.2</ele><time>2022-04-13T13:32:20Z</time><name>PT7457</name></trkpt>
<trkpt lat="52.086176" lon="05.654291"><ele>30.1</ele><time>2022-04-13T13:32:21Z</time><name>PT7458</name></trkpt>
<trkpt lat="52.086170" lon="05.654304"><ele>30</ele><time>2022-04-13T13:32:22Z</time><name>PT7459</name></trkpt>
<trkpt lat="52.086166" lon="05.654309"><ele>29.8</ele><time>2022-04-13T13:32:23Z</time><name>PT7460</name></trkpt>
<trkpt lat="52.086164" lon="05.654322"><ele>29.7</ele><time>2022-04-13T13:32:24Z</time><name>PT7461</name></trkpt>
<trkpt lat="52.086161" lon="05.654332"><ele>30</ele><time>2022-04-13T13:32:25Z</time><name>PT7462</name></trkpt>
<trkpt lat="52.086158" lon="05.654338"><ele>29.9</ele><time>2022-04-13T13:32:26Z</time><name>PT7463</name></trkpt>
<trkpt lat="52.086152" lon="05.654343"><ele>30</ele><time>2022-04-13T13:32:27Z</time><name>PT7464</name></trkpt>
<trkpt lat="52.086140" lon="05.654356"><ele>30</ele><time>2022-04-13T13:32:28Z</time><name>PT7465</name></trkpt>
<trkpt lat="52.086133" lon="05.654367"><ele>29.9</ele><time>2022-04-13T13:32:29Z</time><name>PT7466</name></trkpt>
<trkpt lat="52.086127" lon="05.654371"><ele>30</ele><time>2022-04-13T13:32:30Z</time><name>PT7467</name></trkpt>
<trkpt lat="52.086121" lon="05.654380"><ele>30</ele><time>2022-04-13T13:32:31Z</time><name>PT7468</name></trkpt>
<trkpt lat="52.086115" lon="05.654390"><ele>29.8</ele><time>2022-04-13T13:32:32Z</time><name>PT7469</name></trkpt>
<trkpt lat="52.086104" lon="05.654396"><ele>29.9</ele><time>2022-04-13T13:32:33Z</time><name>PT7470</name></trkpt>
<trkpt lat="52.086090" lon="05.654409"><ele>29.9</ele><time>2022-04-13T13:32:34Z</time><name>PT7471</name></trkpt>
<trkpt lat="52.086081" lon="05.654421"><ele>29.8</ele><time>2022-04-13T13:32:35Z</time><name>PT7472</name></trkpt>
<trkpt lat="52.086072" lon="05.654433"><ele>29.8</ele><time>2022-04-13T13:32:36Z</time><name>PT7473</name></trkpt>
<trkpt lat="52.086063" lon="05.654445"><ele>29.9</ele><time>2022-04-13T13:32:37Z</time><name>PT7474</name></trkpt>
<trkpt lat="52.086055" lon="05.654451"><ele>30</ele><time>2022-04-13T13:32:38Z</time><name>PT7475</name></trkpt>
<trkpt lat="52.086044" lon="05.654462"><ele>30.2</ele><time>2022-04-13T13:32:39Z</time><name>PT7476</name></trkpt>
<trkpt lat="52.086029" lon="05.654476"><ele>30.2</ele><time>2022-04-13T13:32:40Z</time><name>PT7477</name></trkpt>
<trkpt lat="52.086021" lon="05.654490"><ele>30.3</ele><time>2022-04-13T13:32:41Z</time><name>PT7478</name></trkpt>
<trkpt lat="52.086015" lon="05.654497"><ele>30.3</ele><time>2022-04-13T13:32:42Z</time><name>PT7479</name></trkpt>
<trkpt lat="52.086008" lon="05.654506"><ele>30.3</ele><time>2022-04-13T13:32:43Z</time><name>PT7480</name></trkpt>
<trkpt lat="52.085997" lon="05.654514"><ele>30.2</ele><time>2022-04-13T13:32:44Z</time><name>PT7481</name></trkpt>
<trkpt lat="52.085988" lon="05.654520"><ele>30.1</ele><time>2022-04-13T13:32:45Z</time><name>PT7482</name></trkpt>
<trkpt lat="52.085979" lon="05.654534"><ele>30</ele><time>2022-04-13T13:32:46Z</time><name>PT7483</name></trkpt>
<trkpt lat="52.085972" lon="05.654549"><ele>30</ele><time>2022-04-13T13:32:47Z</time><name>PT7484</name></trkpt>
<trkpt lat="52.085966" lon="05.654556"><ele>30</ele><time>2022-04-13T13:32:48Z</time><name>PT7485</name></trkpt>
<trkpt lat="52.085958" lon="05.654567"><ele>29.8</ele><time>2022-04-13T13:32:49Z</time><name>PT7486</name></trkpt>
<trkpt lat="52.085952" lon="05.654577"><ele>29.8</ele><time>2022-04-13T13:32:50Z</time><name>PT7487</name></trkpt>
<trkpt lat="52.085942" lon="05.654587"><ele>30</ele><time>2022-04-13T13:32:51Z</time><name>PT7488</name></trkpt>
<trkpt lat="52.085929" lon="05.654600"><ele>30</ele><time>2022-04-13T13:32:52Z</time><name>PT7489</name></trkpt>
<trkpt lat="52.085922" lon="05.654608"><ele>30</ele><time>2022-04-13T13:32:53Z</time><name>PT7490</name></trkpt>
<trkpt lat="52.085917" lon="05.654617"><ele>30.2</ele><time>2022-04-13T13:32:54Z</time><name>PT7491</name></trkpt>
<trkpt lat="52.085910" lon="05.654627"><ele>30.2</ele><time>2022-04-13T13:32:55Z</time><name>PT7492</name></trkpt>
<trkpt lat="52.085902" lon="05.654636"><ele>30.3</ele><time>2022-04-13T13:32:56Z</time><name>PT7493</name></trkpt>
<trkpt lat="52.085892" lon="05.654653"><ele>30.4</ele><time>2022-04-13T13:32:57Z</time><name>PT7494</name></trkpt>
<trkpt lat="52.085878" lon="05.654671"><ele>30.4</ele><time>2022-04-13T13:32:58Z</time><name>PT7495</name></trkpt>
<trkpt lat="52.085869" lon="05.654686"><ele>30.3</ele><time>2022-04-13T13:32:59Z</time><name>PT7496</name></trkpt>
<trkpt lat="52.085864" lon="05.654695"><ele>30.4</ele><time>2022-04-13T13:33:00Z</time><name>PT7497</name></trkpt>
<trkpt lat="52.085857" lon="05.654704"><ele>30.2</ele><time>2022-04-13T13:33:01Z</time><name>PT7498</name></trkpt>
<trkpt lat="52.085848" lon="05.654711"><ele>30.2</ele><time>2022-04-13T13:33:02Z</time><name>PT7499</name></trkpt>
<trkpt lat="52.085838" lon="05.654720"><ele>30.2</ele><time>2022-04-13T13:33:03Z</time><name>PT7500</name></trkpt>
<trkpt lat="52.085833" lon="05.654735"><ele>30.2</ele><time>2022-04-13T13:33:04Z</time><name>PT7501</name></trkpt>
<trkpt lat="52.085825" lon="05.654747"><ele>30.1</ele><time>2022-04-13T13:33:05Z</time><name>PT7502</name></trkpt>
<trkpt lat="52.085815" lon="05.654753"><ele>30.2</ele><time>2022-04-13T13:33:06Z</time><name>PT7503</name></trkpt>
<trkpt lat="52.085803" lon="05.654760"><ele>30.3</ele><time>2022-04-13T13:33:07Z</time><name>PT7504</name></trkpt>
<trkpt lat="52.085793" lon="05.654767"><ele>30.3</ele><time>2022-04-13T13:33:08Z</time><name>PT7505</name></trkpt>
<trkpt lat="52.085782" lon="05.654781"><ele>30.6</ele><time>2022-04-13T13:33:09Z</time><name>PT7506</name></trkpt>
<trkpt lat="52.085775" lon="05.654797"><ele>30.6</ele><time>2022-04-13T13:33:10Z</time><name>PT7507</name></trkpt>
<trkpt lat="52.085768" lon="05.654806"><ele>30.7</ele><time>2022-04-13T13:33:11Z</time><name>PT7508</name></trkpt>
<trkpt lat="52.085761" lon="05.654817"><ele>30.6</ele><time>2022-04-13T13:33:12Z</time><name>PT7509</name></trkpt>
<trkpt lat="52.085752" lon="05.654828"><ele>30.7</ele><time>2022-04-13T13:33:13Z</time><name>PT7510</name></trkpt>
<trkpt lat="52.085745" lon="05.654841"><ele>30.6</ele><time>2022-04-13T13:33:14Z</time><name>PT7511</name></trkpt>
<trkpt lat="52.085736" lon="05.654853"><ele>30.6</ele><time>2022-04-13T13:33:15Z</time><name>PT7512</name></trkpt>
<trkpt lat="52.085728" lon="05.654863"><ele>30.7</ele><time>2022-04-13T13:33:16Z</time><name>PT7513</name></trkpt>
<trkpt lat="52.085721" lon="05.654872"><ele>30.7</ele><time>2022-04-13T13:33:17Z</time><name>PT7514</name></trkpt>
<trkpt lat="52.085715" lon="05.654876"><ele>30.7</ele><time>2022-04-13T13:33:18Z</time><name>PT7515</name></trkpt>
<trkpt lat="52.085706" lon="05.654882"><ele>30.6</ele><time>2022-04-13T13:33:19Z</time><name>PT7516</name></trkpt>
<trkpt lat="52.085694" lon="05.654890"><ele>30.6</ele><time>2022-04-13T13:33:20Z</time><name>PT7517</name></trkpt>
<trkpt lat="52.085684" lon="05.654903"><ele>30.4</ele><time>2022-04-13T13:33:21Z</time><name>PT7518</name></trkpt>
<trkpt lat="52.085676" lon="05.654914"><ele>30.4</ele><time>2022-04-13T13:33:22Z</time><name>PT7519</name></trkpt>
<trkpt lat="52.085670" lon="05.654922"><ele>30.4</ele><time>2022-04-13T13:33:23Z</time><name>PT7520</name></trkpt>
<trkpt lat="52.085668" lon="05.654945"><ele>30.6</ele><time>2022-04-13T13:33:24Z</time><name>PT7521</name></trkpt>
<trkpt lat="52.085663" lon="05.654951"><ele>30.5</ele><time>2022-04-13T13:33:25Z</time><name>PT7522</name></trkpt>
<trkpt lat="52.085655" lon="05.654964"><ele>30.7</ele><time>2022-04-13T13:33:26Z</time><name>PT7523</name></trkpt>
<trkpt lat="52.085648" lon="05.654975"><ele>30.7</ele><time>2022-04-13T13:33:27Z</time><name>PT7524</name></trkpt>
<trkpt lat="52.085639" lon="05.654982"><ele>30.7</ele><time>2022-04-13T13:33:28Z</time><name>PT7525</name></trkpt>
<trkpt lat="52.085628" lon="05.654990"><ele>30.6</ele><time>2022-04-13T13:33:29Z</time><name>PT7526</name></trkpt>
<trkpt lat="52.085623" lon="05.654997"><ele>30.6</ele><time>2022-04-13T13:33:30Z</time><name>PT7527</name></trkpt>
<trkpt lat="52.085615" lon="05.655005"><ele>30.6</ele><time>2022-04-13T13:33:31Z</time><name>PT7528</name></trkpt>
<trkpt lat="52.085606" lon="05.655016"><ele>30.6</ele><time>2022-04-13T13:33:32Z</time><name>PT7529</name></trkpt>
<trkpt lat="52.085596" lon="05.655026"><ele>30.7</ele><time>2022-04-13T13:33:33Z</time><name>PT7530</name></trkpt>
<trkpt lat="52.085587" lon="05.655034"><ele>30.6</ele><time>2022-04-13T13:33:34Z</time><name>PT7531</name></trkpt>
<trkpt lat="52.085581" lon="05.655048"><ele>30.5</ele><time>2022-04-13T13:33:35Z</time><name>PT7532</name></trkpt>
<trkpt lat="52.085571" lon="05.655059"><ele>30.6</ele><time>2022-04-13T13:33:36Z</time><name>PT7533</name></trkpt>
<trkpt lat="52.085562" lon="05.655076"><ele>30.7</ele><time>2022-04-13T13:33:37Z</time><name>PT7534</name></trkpt>
<trkpt lat="52.085552" lon="05.655092"><ele>30.6</ele><time>2022-04-13T13:33:38Z</time><name>PT7535</name></trkpt>
<trkpt lat="52.085546" lon="05.655108"><ele>30.6</ele><time>2022-04-13T13:33:39Z</time><name>PT7536</name></trkpt>
<trkpt lat="52.085539" lon="05.655116"><ele>30.7</ele><time>2022-04-13T13:33:40Z</time><name>PT7537</name></trkpt>
<trkpt lat="52.085530" lon="05.655125"><ele>30.7</ele><time>2022-04-13T13:33:41Z</time><name>PT7538</name></trkpt>
<trkpt lat="52.085521" lon="05.655135"><ele>30.7</ele><time>2022-04-13T13:33:42Z</time><name>PT7539</name></trkpt>
<trkpt lat="52.085513" lon="05.655149"><ele>30.6</ele><time>2022-04-13T13:33:43Z</time><name>PT7540</name></trkpt>
<trkpt lat="52.085505" lon="05.655166"><ele>30.7</ele><time>2022-04-13T13:33:44Z</time><name>PT7541</name></trkpt>
<trkpt lat="52.085498" lon="05.655182"><ele>30.8</ele><time>2022-04-13T13:33:45Z</time><name>PT7542</name></trkpt>
<trkpt lat="52.085488" lon="05.655202"><ele>31</ele><time>2022-04-13T13:33:46Z</time><name>PT7543</name></trkpt>
<trkpt lat="52.085481" lon="05.655213"><ele>31</ele><time>2022-04-13T13:33:47Z</time><name>PT7544</name></trkpt>
<trkpt lat="52.085472" lon="05.655220"><ele>31.2</ele><time>2022-04-13T13:33:48Z</time><name>PT7545</name></trkpt>
<trkpt lat="52.085461" lon="05.655233"><ele>30.9</ele><time>2022-04-13T13:33:49Z</time><name>PT7546</name></trkpt>
<trkpt lat="52.085455" lon="05.655242"><ele>30.8</ele><time>2022-04-13T13:33:50Z</time><name>PT7547</name></trkpt>
<trkpt lat="52.085448" lon="05.655255"><ele>30.8</ele><time>2022-04-13T13:33:51Z</time><name>PT7548</name></trkpt>
<trkpt lat="52.085443" lon="05.655265"><ele>30.8</ele><time>2022-04-13T13:33:52Z</time><name>PT7549</name></trkpt>
<trkpt lat="52.085433" lon="05.655277"><ele>30.9</ele><time>2022-04-13T13:33:53Z</time><name>PT7550</name></trkpt>
<trkpt lat="52.085422" lon="05.655290"><ele>31.1</ele><time>2022-04-13T13:33:54Z</time><name>PT7551</name></trkpt>
<trkpt lat="52.085416" lon="05.655301"><ele>31</ele><time>2022-04-13T13:33:55Z</time><name>PT7552</name></trkpt>
<trkpt lat="52.085408" lon="05.655308"><ele>30.9</ele><time>2022-04-13T13:33:56Z</time><name>PT7553</name></trkpt>
<trkpt lat="52.085402" lon="05.655325"><ele>30.9</ele><time>2022-04-13T13:33:57Z</time><name>PT7554</name></trkpt>
<trkpt lat="52.085392" lon="05.655332"><ele>30.8</ele><time>2022-04-13T13:33:58Z</time><name>PT7555</name></trkpt>
<trkpt lat="52.085381" lon="05.655344"><ele>30.8</ele><time>2022-04-13T13:33:59Z</time><name>PT7556</name></trkpt>
<trkpt lat="52.085366" lon="05.655352"><ele>30.7</ele><time>2022-04-13T13:34:00Z</time><name>PT7557</name></trkpt>
<trkpt lat="52.085358" lon="05.655355"><ele>30.7</ele><time>2022-04-13T13:34:01Z</time><name>PT7558</name></trkpt>
<trkpt lat="52.085350" lon="05.655367"><ele>30.6</ele><time>2022-04-13T13:34:02Z</time><name>PT7559</name></trkpt>
<trkpt lat="52.085343" lon="05.655373"><ele>30.7</ele><time>2022-04-13T13:34:03Z</time><name>PT7560</name></trkpt>
<trkpt lat="52.085335" lon="05.655375"><ele>30.6</ele><time>2022-04-13T13:34:04Z</time><name>PT7561</name></trkpt>
<trkpt lat="52.085324" lon="05.655385"><ele>30.7</ele><time>2022-04-13T13:34:05Z</time><name>PT7562</name></trkpt>
<trkpt lat="52.085317" lon="05.655396"><ele>30.8</ele><time>2022-04-13T13:34:06Z</time><name>PT7563</name></trkpt>
<trkpt lat="52.085310" lon="05.655407"><ele>30.8</ele><time>2022-04-13T13:34:07Z</time><name>PT7564</name></trkpt>
<trkpt lat="52.085303" lon="05.655420"><ele>30.7</ele><time>2022-04-13T13:34:08Z</time><name>PT7565</name></trkpt>
<trkpt lat="52.085292" lon="05.655429"><ele>30.7</ele><time>2022-04-13T13:34:09Z</time><name>PT7566</name></trkpt>
<trkpt lat="52.085283" lon="05.655442"><ele>30.7</ele><time>2022-04-13T13:34:10Z</time><name>PT7567</name></trkpt>
<trkpt lat="52.085278" lon="05.655451"><ele>30.7</ele><time>2022-04-13T13:34:11Z</time><name>PT7568</name></trkpt>
<trkpt lat="52.085271" lon="05.655451"><ele>30.7</ele><time>2022-04-13T13:34:12Z</time><name>PT7569</name></trkpt>
<trkpt lat="52.085262" lon="05.655460"><ele>30.7</ele><time>2022-04-13T13:34:13Z</time><name>PT7570</name></trkpt>
<trkpt lat="52.085252" lon="05.655466"><ele>30.7</ele><time>2022-04-13T13:34:14Z</time><name>PT7571</name></trkpt>
<trkpt lat="52.085238" lon="05.655475"><ele>30.7</ele><time>2022-04-13T13:34:15Z</time><name>PT7572</name></trkpt>
<trkpt lat="52.085229" lon="05.655486"><ele>30.8</ele><time>2022-04-13T13:34:16Z</time><name>PT7573</name></trkpt>
<trkpt lat="52.085223" lon="05.655489"><ele>30.9</ele><time>2022-04-13T13:34:17Z</time><name>PT7574</name></trkpt>
<trkpt lat="52.085215" lon="05.655495"><ele>30.9</ele><time>2022-04-13T13:34:18Z</time><name>PT7575</name></trkpt>
<trkpt lat="52.085206" lon="05.655499"><ele>30.8</ele><time>2022-04-13T13:34:19Z</time><name>PT7576</name></trkpt>
<trkpt lat="52.085194" lon="05.655509"><ele>30.9</ele><time>2022-04-13T13:34:20Z</time><name>PT7577</name></trkpt>
<trkpt lat="52.085187" lon="05.655530"><ele>31</ele><time>2022-04-13T13:34:21Z</time><name>PT7578</name></trkpt>
<trkpt lat="52.085179" lon="05.655541"><ele>31</ele><time>2022-04-13T13:34:22Z</time><name>PT7579</name></trkpt>
<trkpt lat="52.085172" lon="05.655550"><ele>31.1</ele><time>2022-04-13T13:34:23Z</time><name>PT7580</name></trkpt>
<trkpt lat="52.085160" lon="05.655563"><ele>31.1</ele><time>2022-04-13T13:34:24Z</time><name>PT7581</name></trkpt>
<trkpt lat="52.085152" lon="05.655578"><ele>31.2</ele><time>2022-04-13T13:34:25Z</time><name>PT7582</name></trkpt>
<trkpt lat="52.085143" lon="05.655590"><ele>31.3</ele><time>2022-04-13T13:34:26Z</time><name>PT7583</name></trkpt>
<trkpt lat="52.085137" lon="05.655598"><ele>31.5</ele><time>2022-04-13T13:34:27Z</time><name>PT7584</name></trkpt>
<trkpt lat="52.085130" lon="05.655605"><ele>31.6</ele><time>2022-04-13T13:34:28Z</time><name>PT7585</name></trkpt>
<trkpt lat="52.085119" lon="05.655612"><ele>31.7</ele><time>2022-04-13T13:34:29Z</time><name>PT7586</name></trkpt>
<trkpt lat="52.085111" lon="05.655621"><ele>31.8</ele><time>2022-04-13T13:34:30Z</time><name>PT7587</name></trkpt>
<trkpt lat="52.085099" lon="05.655634"><ele>31.9</ele><time>2022-04-13T13:34:31Z</time><name>PT7588</name></trkpt>
<trkpt lat="52.085091" lon="05.655646"><ele>31.9</ele><time>2022-04-13T13:34:32Z</time><name>PT7589</name></trkpt>
<trkpt lat="52.085086" lon="05.655654"><ele>32.1</ele><time>2022-04-13T13:34:33Z</time><name>PT7590</name></trkpt>
<trkpt lat="52.085080" lon="05.655666"><ele>32.1</ele><time>2022-04-13T13:34:34Z</time><name>PT7591</name></trkpt>
<trkpt lat="52.085072" lon="05.655675"><ele>32</ele><time>2022-04-13T13:34:35Z</time><name>PT7592</name></trkpt>
<trkpt lat="52.085067" lon="05.655688"><ele>32</ele><time>2022-04-13T13:34:36Z</time><name>PT7593</name></trkpt>
<trkpt lat="52.085063" lon="05.655696"><ele>31.9</ele><time>2022-04-13T13:34:37Z</time><name>PT7594</name></trkpt>
<trkpt lat="52.085059" lon="05.655708"><ele>32</ele><time>2022-04-13T13:34:38Z</time><name>PT7595</name></trkpt>
<trkpt lat="52.085050" lon="05.655716"><ele>32.2</ele><time>2022-04-13T13:34:39Z</time><name>PT7596</name></trkpt>
<trkpt lat="52.085040" lon="05.655721"><ele>32.1</ele><time>2022-04-13T13:34:40Z</time><name>PT7597</name></trkpt>
<trkpt lat="52.085031" lon="05.655736"><ele>32</ele><time>2022-04-13T13:34:41Z</time><name>PT7598</name></trkpt>
<trkpt lat="52.085026" lon="05.655749"><ele>31.7</ele><time>2022-04-13T13:34:42Z</time><name>PT7599</name></trkpt>
<trkpt lat="52.085021" lon="05.655760"><ele>31.5</ele><time>2022-04-13T13:34:43Z</time><name>PT7600</name></trkpt>
<trkpt lat="52.085015" lon="05.655770"><ele>31.4</ele><time>2022-04-13T13:34:44Z</time><name>PT7601</name></trkpt>
<trkpt lat="52.085007" lon="05.655784"><ele>31.4</ele><time>2022-04-13T13:34:45Z</time><name>PT7602</name></trkpt>
<trkpt lat="52.084996" lon="05.655793"><ele>31.5</ele><time>2022-04-13T13:34:46Z</time><name>PT7603</name></trkpt>
<trkpt lat="52.084988" lon="05.655802"><ele>31.5</ele><time>2022-04-13T13:34:47Z</time><name>PT7604</name></trkpt>
<trkpt lat="52.084981" lon="05.655816"><ele>31.6</ele><time>2022-04-13T13:34:48Z</time><name>PT7605</name></trkpt>
<trkpt lat="52.084976" lon="05.655824"><ele>31.4</ele><time>2022-04-13T13:34:49Z</time><name>PT7606</name></trkpt>
<trkpt lat="52.084969" lon="05.655827"><ele>31.3</ele><time>2022-04-13T13:34:50Z</time><name>PT7607</name></trkpt>
<trkpt lat="52.084960" lon="05.655840"><ele>31.2</ele><time>2022-04-13T13:34:51Z</time><name>PT7608</name></trkpt>
<trkpt lat="52.084949" lon="05.655850"><ele>31.2</ele><time>2022-04-13T13:34:52Z</time><name>PT7609</name></trkpt>
<trkpt lat="52.084941" lon="05.655859"><ele>30.9</ele><time>2022-04-13T13:34:53Z</time><name>PT7610</name></trkpt>
<trkpt lat="52.084934" lon="05.655868"><ele>30.8</ele><time>2022-04-13T13:34:54Z</time><name>PT7611</name></trkpt>
<trkpt lat="52.084919" lon="05.655874"><ele>30.8</ele><time>2022-04-13T13:34:55Z</time><name>PT7612</name></trkpt>
<trkpt lat="52.084910" lon="05.655879"><ele>30.7</ele><time>2022-04-13T13:34:56Z</time><name>PT7613</name></trkpt>
<trkpt lat="52.084905" lon="05.655885"><ele>30.7</ele><time>2022-04-13T13:34:57Z</time><name>PT7614</name></trkpt>
<trkpt lat="52.084901" lon="05.655896"><ele>30.7</ele><time>2022-04-13T13:34:58Z</time><name>PT7615</name></trkpt>
<trkpt lat="52.084896" lon="05.655903"><ele>30.5</ele><time>2022-04-13T13:34:59Z</time><name>PT7616</name></trkpt>
<trkpt lat="52.084892" lon="05.655916"><ele>30.4</ele><time>2022-04-13T13:35:00Z</time><name>PT7617</name></trkpt>
<trkpt lat="52.084883" lon="05.655933"><ele>30.6</ele><time>2022-04-13T13:35:01Z</time><name>PT7618</name></trkpt>
<trkpt lat="52.084872" lon="05.655947"><ele>30.6</ele><time>2022-04-13T13:35:02Z</time><name>PT7619</name></trkpt>
<trkpt lat="52.084871" lon="05.655957"><ele>30.5</ele><time>2022-04-13T13:35:03Z</time><name>PT7620</name></trkpt>
<trkpt lat="52.084863" lon="05.655964"><ele>30.6</ele><time>2022-04-13T13:35:04Z</time><name>PT7621</name></trkpt>
<trkpt lat="52.084858" lon="05.655972"><ele>30.6</ele><time>2022-04-13T13:35:05Z</time><name>PT7622</name></trkpt>
<trkpt lat="52.084853" lon="05.655977"><ele>30.5</ele><time>2022-04-13T13:35:06Z</time><name>PT7623</name></trkpt>
<trkpt lat="52.084848" lon="05.655983"><ele>30.4</ele><time>2022-04-13T13:35:07Z</time><name>PT7624</name></trkpt>
<trkpt lat="52.084840" lon="05.655989"><ele>30.2</ele><time>2022-04-13T13:35:08Z</time><name>PT7625</name></trkpt>
<trkpt lat="52.084830" lon="05.655999"><ele>30.2</ele><time>2022-04-13T13:35:09Z</time><name>PT7626</name></trkpt>
<trkpt lat="52.084819" lon="05.656010"><ele>30.2</ele><time>2022-04-13T13:35:10Z</time><name>PT7627</name></trkpt>
<trkpt lat="52.084813" lon="05.656020"><ele>30.2</ele><time>2022-04-13T13:35:11Z</time><name>PT7628</name></trkpt>
<trkpt lat="52.084805" lon="05.656031"><ele>30.2</ele><time>2022-04-13T13:35:12Z</time><name>PT7629</name></trkpt>
<trkpt lat="52.084798" lon="05.656039"><ele>30.4</ele><time>2022-04-13T13:35:13Z</time><name>PT7630</name></trkpt>
<trkpt lat="52.084787" lon="05.656050"><ele>30.4</ele><time>2022-04-13T13:35:14Z</time><name>PT7631</name></trkpt>
<trkpt lat="52.084776" lon="05.656065"><ele>30.4</ele><time>2022-04-13T13:35:15Z</time><name>PT7632</name></trkpt>
<trkpt lat="52.084767" lon="05.656075"><ele>30.3</ele><time>2022-04-13T13:35:16Z</time><name>PT7633</name></trkpt>
<trkpt lat="52.084760" lon="05.656080"><ele>30.4</ele><time>2022-04-13T13:35:17Z</time><name>PT7634</name></trkpt>
<trkpt lat="52.084755" lon="05.656082"><ele>30.3</ele><time>2022-04-13T13:35:18Z</time><name>PT7635</name></trkpt>
<trkpt lat="52.084746" lon="05.656088"><ele>30.3</ele><time>2022-04-13T13:35:19Z</time><name>PT7636</name></trkpt>
<trkpt lat="52.084740" lon="05.656094"><ele>30.4</ele><time>2022-04-13T13:35:20Z</time><name>PT7637</name></trkpt>
<trkpt lat="52.084731" lon="05.656103"><ele>30.5</ele><time>2022-04-13T13:35:21Z</time><name>PT7638</name></trkpt>
<trkpt lat="52.084726" lon="05.656114"><ele>30.4</ele><time>2022-04-13T13:35:22Z</time><name>PT7639</name></trkpt>
<trkpt lat="52.084722" lon="05.656122"><ele>30.3</ele><time>2022-04-13T13:35:23Z</time><name>PT7640</name></trkpt>
<trkpt lat="52.084714" lon="05.656129"><ele>30.3</ele><time>2022-04-13T13:35:24Z</time><name>PT7641</name></trkpt>
<trkpt lat="52.084707" lon="05.656134"><ele>30.2</ele><time>2022-04-13T13:35:25Z</time><name>PT7642</name></trkpt>
<trkpt lat="52.084696" lon="05.656141"><ele>30.2</ele><time>2022-04-13T13:35:26Z</time><name>PT7643</name></trkpt>
<trkpt lat="52.084687" lon="05.656141"><ele>30.2</ele><time>2022-04-13T13:35:27Z</time><name>PT7644</name></trkpt>
<trkpt lat="52.084679" lon="05.656147"><ele>30.2</ele><time>2022-04-13T13:35:28Z</time><name>PT7645</name></trkpt>
<trkpt lat="52.084673" lon="05.656156"><ele>30.3</ele><time>2022-04-13T13:35:29Z</time><name>PT7646</name></trkpt>
<trkpt lat="52.084663" lon="05.656165"><ele>30.6</ele><time>2022-04-13T13:35:30Z</time><name>PT7647</name></trkpt>
<trkpt lat="52.084655" lon="05.656171"><ele>30.6</ele><time>2022-04-13T13:35:31Z</time><name>PT7648</name></trkpt>
<trkpt lat="52.084649" lon="05.656177"><ele>30.6</ele><time>2022-04-13T13:35:32Z</time><name>PT7649</name></trkpt>
<trkpt lat="52.084643" lon="05.656188"><ele>30.7</ele><time>2022-04-13T13:35:33Z</time><name>PT7650</name></trkpt>
<trkpt lat="52.084633" lon="05.656200"><ele>30.7</ele><time>2022-04-13T13:35:34Z</time><name>PT7651</name></trkpt>
<trkpt lat="52.084624" lon="05.656212"><ele>30.7</ele><time>2022-04-13T13:35:35Z</time><name>PT7652</name></trkpt>
<trkpt lat="52.084614" lon="05.656221"><ele>30.8</ele><time>2022-04-13T13:35:36Z</time><name>PT7653</name></trkpt>
<trkpt lat="52.084607" lon="05.656229"><ele>30.7</ele><time>2022-04-13T13:35:37Z</time><name>PT7654</name></trkpt>
<trkpt lat="52.084597" lon="05.656242"><ele>30.7</ele><time>2022-04-13T13:35:38Z</time><name>PT7655</name></trkpt>
<trkpt lat="52.084586" lon="05.656256"><ele>30.7</ele><time>2022-04-13T13:35:39Z</time><name>PT7656</name></trkpt>
<trkpt lat="52.084580" lon="05.656261"><ele>30.9</ele><time>2022-04-13T13:35:40Z</time><name>PT7657</name></trkpt>
<trkpt lat="52.084577" lon="05.656272"><ele>30.8</ele><time>2022-04-13T13:35:41Z</time><name>PT7658</name></trkpt>
<trkpt lat="52.084572" lon="05.656273"><ele>30.9</ele><time>2022-04-13T13:35:42Z</time><name>PT7659</name></trkpt>
<trkpt lat="52.084563" lon="05.656289"><ele>30.8</ele><time>2022-04-13T13:35:43Z</time><name>PT7660</name></trkpt>
<trkpt lat="52.084558" lon="05.656299"><ele>30.8</ele><time>2022-04-13T13:35:44Z</time><name>PT7661</name></trkpt>
<trkpt lat="52.084553" lon="05.656303"><ele>31</ele><time>2022-04-13T13:35:45Z</time><name>PT7662</name></trkpt>
<trkpt lat="52.084554" lon="05.656315"><ele>30.9</ele><time>2022-04-13T13:35:46Z</time><name>PT7663</name></trkpt>
<trkpt lat="52.084548" lon="05.656324"><ele>30.9</ele><time>2022-04-13T13:35:47Z</time><name>PT7664</name></trkpt>
<trkpt lat="52.084545" lon="05.656329"><ele>31.2</ele><time>2022-04-13T13:35:48Z</time><name>PT7665</name></trkpt>
<trkpt lat="52.084538" lon="05.656338"><ele>31</ele><time>2022-04-13T13:35:49Z</time><name>PT7666</name></trkpt>
<trkpt lat="52.084531" lon="05.656350"><ele>31</ele><time>2022-04-13T13:35:50Z</time><name>PT7667</name></trkpt>
<trkpt lat="52.084523" lon="05.656359"><ele>31</ele><time>2022-04-13T13:35:51Z</time><name>PT7668</name></trkpt>
<trkpt lat="52.084515" lon="05.656361"><ele>31</ele><time>2022-04-13T13:35:52Z</time><name>PT7669</name></trkpt>
<trkpt lat="52.084509" lon="05.656369"><ele>30.9</ele><time>2022-04-13T13:35:53Z</time><name>PT7670</name></trkpt>
<trkpt lat="52.084499" lon="05.656384"><ele>31</ele><time>2022-04-13T13:35:54Z</time><name>PT7671</name></trkpt>
<trkpt lat="52.084487" lon="05.656396"><ele>31</ele><time>2022-04-13T13:35:55Z</time><name>PT7672</name></trkpt>
<trkpt lat="52.084481" lon="05.656407"><ele>30.8</ele><time>2022-04-13T13:35:56Z</time><name>PT7673</name></trkpt>
<trkpt lat="52.084473" lon="05.656415"><ele>30.7</ele><time>2022-04-13T13:35:57Z</time><name>PT7674</name></trkpt>
<trkpt lat="52.084464" lon="05.656420"><ele>30.5</ele><time>2022-04-13T13:35:58Z</time><name>PT7675</name></trkpt>
<trkpt lat="52.084455" lon="05.656425"><ele>30.5</ele><time>2022-04-13T13:35:59Z</time><name>PT7676</name></trkpt>
<trkpt lat="52.084442" lon="05.656433"><ele>30.4</ele><time>2022-04-13T13:36:00Z</time><name>PT7677</name></trkpt>
<trkpt lat="52.084434" lon="05.656446"><ele>30.3</ele><time>2022-04-13T13:36:01Z</time><name>PT7678</name></trkpt>
<trkpt lat="52.084429" lon="05.656457"><ele>30.2</ele><time>2022-04-13T13:36:02Z</time><name>PT7679</name></trkpt>
<trkpt lat="52.084423" lon="05.656467"><ele>30.3</ele><time>2022-04-13T13:36:03Z</time><name>PT7680</name></trkpt>
<trkpt lat="52.084416" lon="05.656476"><ele>30.2</ele><time>2022-04-13T13:36:04Z</time><name>PT7681</name></trkpt>
<trkpt lat="52.084405" lon="05.656491"><ele>30.2</ele><time>2022-04-13T13:36:05Z</time><name>PT7682</name></trkpt>
<trkpt lat="52.084395" lon="05.656502"><ele>30.1</ele><time>2022-04-13T13:36:06Z</time><name>PT7683</name></trkpt>
<trkpt lat="52.084390" lon="05.656512"><ele>30.1</ele><time>2022-04-13T13:36:07Z</time><name>PT7684</name></trkpt>
<trkpt lat="52.084383" lon="05.656520"><ele>30</ele><time>2022-04-13T13:36:08Z</time><name>PT7685</name></trkpt>
<trkpt lat="52.084379" lon="05.656533"><ele>29.9</ele><time>2022-04-13T13:36:09Z</time><name>PT7686</name></trkpt>
<trkpt lat="52.084369" lon="05.656551"><ele>29.7</ele><time>2022-04-13T13:36:10Z</time><name>PT7687</name></trkpt>
<trkpt lat="52.084358" lon="05.656561"><ele>29.8</ele><time>2022-04-13T13:36:11Z</time><name>PT7688</name></trkpt>
<trkpt lat="52.084352" lon="05.656578"><ele>29.8</ele><time>2022-04-13T13:36:12Z</time><name>PT7689</name></trkpt>
<trkpt lat="52.084344" lon="05.656588"><ele>29.7</ele><time>2022-04-13T13:36:13Z</time><name>PT7690</name></trkpt>
<trkpt lat="52.084340" lon="05.656594"><ele>29.6</ele><time>2022-04-13T13:36:14Z</time><name>PT7691</name></trkpt>
<trkpt lat="52.084332" lon="05.656598"><ele>29.7</ele><time>2022-04-13T13:36:15Z</time><name>PT7692</name></trkpt>
<trkpt lat="52.084322" lon="05.656607"><ele>29.7</ele><time>2022-04-13T13:36:16Z</time><name>PT7693</name></trkpt>
<trkpt lat="52.084315" lon="05.656625"><ele>29.8</ele><time>2022-04-13T13:36:17Z</time><name>PT7694</name></trkpt>
<trkpt lat="52.084309" lon="05.656639"><ele>30</ele><time>2022-04-13T13:36:18Z</time><name>PT7695</name></trkpt>
<trkpt lat="52.084305" lon="05.656649"><ele>30.1</ele><time>2022-04-13T13:36:19Z</time><name>PT7696</name></trkpt>
<trkpt lat="52.084298" lon="05.656661"><ele>30.2</ele><time>2022-04-13T13:36:20Z</time><name>PT7697</name></trkpt>
<trkpt lat="52.084289" lon="05.656677"><ele>30.1</ele><time>2022-04-13T13:36:21Z</time><name>PT7698</name></trkpt>
<trkpt lat="52.084277" lon="05.656690"><ele>29.9</ele><time>2022-04-13T13:36:22Z</time><name>PT7699</name></trkpt>
<trkpt lat="52.084271" lon="05.656702"><ele>29.7</ele><time>2022-04-13T13:36:23Z</time><name>PT7700</name></trkpt>
<trkpt lat="52.084261" lon="05.656706"><ele>29.6</ele><time>2022-04-13T13:36:24Z</time><name>PT7701</name></trkpt>
<trkpt lat="52.084256" lon="05.656715"><ele>29.4</ele><time>2022-04-13T13:36:25Z</time><name>PT7702</name></trkpt>
<trkpt lat="52.084248" lon="05.656722"><ele>29.4</ele><time>2022-04-13T13:36:26Z</time><name>PT7703</name></trkpt>
<trkpt lat="52.084237" lon="05.656736"><ele>29.4</ele><time>2022-04-13T13:36:27Z</time><name>PT7704</name></trkpt>
<trkpt lat="52.084229" lon="05.656747"><ele>29.5</ele><time>2022-04-13T13:36:28Z</time><name>PT7705</name></trkpt>
<trkpt lat="52.084222" lon="05.656759"><ele>29.7</ele><time>2022-04-13T13:36:29Z</time><name>PT7706</name></trkpt>
<trkpt lat="52.084214" lon="05.656769"><ele>29.8</ele><time>2022-04-13T13:36:30Z</time><name>PT7707</name></trkpt>
<trkpt lat="52.084206" lon="05.656783"><ele>29.9</ele><time>2022-04-13T13:36:31Z</time><name>PT7708</name></trkpt>
<trkpt lat="52.084196" lon="05.656798"><ele>29.7</ele><time>2022-04-13T13:36:32Z</time><name>PT7709</name></trkpt>
<trkpt lat="52.084187" lon="05.656812"><ele>29.6</ele><time>2022-04-13T13:36:33Z</time><name>PT7710</name></trkpt>
<trkpt lat="52.084182" lon="05.656820"><ele>29.4</ele><time>2022-04-13T13:36:34Z</time><name>PT7711</name></trkpt>
<trkpt lat="52.084174" lon="05.656830"><ele>29.3</ele><time>2022-04-13T13:36:35Z</time><name>PT7712</name></trkpt>
<trkpt lat="52.084166" lon="05.656838"><ele>29.3</ele><time>2022-04-13T13:36:36Z</time><name>PT7713</name></trkpt>
<trkpt lat="52.084155" lon="05.656843"><ele>29.2</ele><time>2022-04-13T13:36:37Z</time><name>PT7714</name></trkpt>
<trkpt lat="52.084143" lon="05.656855"><ele>29.3</ele><time>2022-04-13T13:36:38Z</time><name>PT7715</name></trkpt>
<trkpt lat="52.084133" lon="05.656864"><ele>29.3</ele><time>2022-04-13T13:36:39Z</time><name>PT7716</name></trkpt>
<trkpt lat="52.084128" lon="05.656872"><ele>29.4</ele><time>2022-04-13T13:36:40Z</time><name>PT7717</name></trkpt>
<trkpt lat="52.084125" lon="05.656875"><ele>29.4</ele><time>2022-04-13T13:36:41Z</time><name>PT7718</name></trkpt>
<trkpt lat="52.084119" lon="05.656878"><ele>29.4</ele><time>2022-04-13T13:36:42Z</time><name>PT7719</name></trkpt>
<trkpt lat="52.084110" lon="05.656887"><ele>29.4</ele><time>2022-04-13T13:36:43Z</time><name>PT7720</name></trkpt>
<trkpt lat="52.084104" lon="05.656896"><ele>29.3</ele><time>2022-04-13T13:36:44Z</time><name>PT7721</name></trkpt>
<trkpt lat="52.084097" lon="05.656906"><ele>29.3</ele><time>2022-04-13T13:36:45Z</time><name>PT7722</name></trkpt>
<trkpt lat="52.084092" lon="05.656911"><ele>29.3</ele><time>2022-04-13T13:36:46Z</time><name>PT7723</name></trkpt>
<trkpt lat="52.084083" lon="05.656915"><ele>29.3</ele><time>2022-04-13T13:36:47Z</time><name>PT7724</name></trkpt>
<trkpt lat="52.084073" lon="05.656928"><ele>29.2</ele><time>2022-04-13T13:36:48Z</time><name>PT7725</name></trkpt>
<trkpt lat="52.084065" lon="05.656941"><ele>29.3</ele><time>2022-04-13T13:36:49Z</time><name>PT7726</name></trkpt>
<trkpt lat="52.084058" lon="05.656948"><ele>29.2</ele><time>2022-04-13T13:36:50Z</time><name>PT7727</name></trkpt>
<trkpt lat="52.084052" lon="05.656956"><ele>29.2</ele><time>2022-04-13T13:36:51Z</time><name>PT7728</name></trkpt>
<trkpt lat="52.084046" lon="05.656970"><ele>29.2</ele><time>2022-04-13T13:36:52Z</time><name>PT7729</name></trkpt>
<trkpt lat="52.084037" lon="05.656980"><ele>29.1</ele><time>2022-04-13T13:36:53Z</time><name>PT7730</name></trkpt>
<trkpt lat="52.084028" lon="05.656992"><ele>29.1</ele><time>2022-04-13T13:36:54Z</time><name>PT7731</name></trkpt>
<trkpt lat="52.084019" lon="05.657005"><ele>29</ele><time>2022-04-13T13:36:55Z</time><name>PT7732</name></trkpt>
<trkpt lat="52.084014" lon="05.657018"><ele>29</ele><time>2022-04-13T13:36:56Z</time><name>PT7733</name></trkpt>
<trkpt lat="52.084014" lon="05.657022"><ele>28.9</ele><time>2022-04-13T13:36:57Z</time><name>PT7734</name></trkpt>
<trkpt lat="52.084012" lon="05.657034"><ele>29</ele><time>2022-04-13T13:36:58Z</time><name>PT7735</name></trkpt>
<trkpt lat="52.084006" lon="05.657041"><ele>29</ele><time>2022-04-13T13:36:59Z</time><name>PT7736</name></trkpt>
<trkpt lat="52.084004" lon="05.657043"><ele>29.1</ele><time>2022-04-13T13:37:00Z</time><name>PT7737</name></trkpt>
<trkpt lat="52.084003" lon="05.657045"><ele>29.2</ele><time>2022-04-13T13:37:01Z</time><name>PT7738</name></trkpt>
<trkpt lat="52.084001" lon="05.657049"><ele>29.1</ele><time>2022-04-13T13:37:02Z</time><name>PT7739</name></trkpt>
<trkpt lat="52.084002" lon="05.657053"><ele>29.1</ele><time>2022-04-13T13:37:03Z</time><name>PT7740</name></trkpt>
<trkpt lat="52.084001" lon="05.657056"><ele>29.1</ele><time>2022-04-13T13:37:04Z</time><name>PT7741</name></trkpt>
<trkpt lat="52.084002" lon="05.657057"><ele>29.2</ele><time>2022-04-13T13:37:05Z</time><name>PT7742</name></trkpt>
<trkpt lat="52.084002" lon="05.657059"><ele>29.1</ele><time>2022-04-13T13:37:06Z</time><name>PT7743</name></trkpt>
<trkpt lat="52.084001" lon="05.657061"><ele>29.3</ele><time>2022-04-13T13:37:07Z</time><name>PT7744</name></trkpt>
<trkpt lat="52.084000" lon="05.657063"><ele>29.3</ele><time>2022-04-13T13:37:08Z</time><name>PT7745</name></trkpt>
<trkpt lat="52.084004" lon="05.657051"><ele>29.2</ele><time>2022-04-13T13:37:10Z</time><name>PT7746</name></trkpt>
<trkpt lat="52.084002" lon="05.657041"><ele>29.3</ele><time>2022-04-13T13:37:11Z</time><name>PT7747</name></trkpt>
<trkpt lat="52.083999" lon="05.657019"><ele>29.2</ele><time>2022-04-13T13:37:12Z</time><name>PT7748</name></trkpt>
<trkpt lat="52.083994" lon="05.657000"><ele>29.3</ele><time>2022-04-13T13:37:13Z</time><name>PT7749</name></trkpt>
<trkpt lat="52.083994" lon="05.656978"><ele>29.3</ele><time>2022-04-13T13:37:14Z</time><name>PT7750</name></trkpt>
<trkpt lat="52.083992" lon="05.656971"><ele>29.3</ele><time>2022-04-13T13:37:15Z</time><name>PT7751</name></trkpt>
<trkpt lat="52.083988" lon="05.656955"><ele>29.3</ele><time>2022-04-13T13:37:16Z</time><name>PT7752</name></trkpt>
<trkpt lat="52.083984" lon="05.656941"><ele>29.3</ele><time>2022-04-13T13:37:17Z</time><name>PT7753</name></trkpt>
<trkpt lat="52.083981" lon="05.656924"><ele>29.2</ele><time>2022-04-13T13:37:18Z</time><name>PT7754</name></trkpt>
<trkpt lat="52.083981" lon="05.656898"><ele>29.3</ele><time>2022-04-13T13:37:19Z</time><name>PT7755</name></trkpt>
<trkpt lat="52.083978" lon="05.656881"><ele>29.3</ele><time>2022-04-13T13:37:20Z</time><name>PT7756</name></trkpt>
<trkpt lat="52.083975" lon="05.656866"><ele>29.3</ele><time>2022-04-13T13:37:21Z</time><name>PT7757</name></trkpt>
<trkpt lat="52.083970" lon="05.656856"><ele>29.4</ele><time>2022-04-13T13:37:22Z</time><name>PT7758</name></trkpt>
<trkpt lat="52.083966" lon="05.656847"><ele>29.5</ele><time>2022-04-13T13:37:23Z</time><name>PT7759</name></trkpt>
<trkpt lat="52.083966" lon="05.656829"><ele>29.7</ele><time>2022-04-13T13:37:24Z</time><name>PT7760</name></trkpt>
<trkpt lat="52.083962" lon="05.656813"><ele>29.7</ele><time>2022-04-13T13:37:25Z</time><name>PT7761</name></trkpt>
<trkpt lat="52.083957" lon="05.656802"><ele>29.6</ele><time>2022-04-13T13:37:26Z</time><name>PT7762</name></trkpt>
<trkpt lat="52.083954" lon="05.656789"><ele>29.5</ele><time>2022-04-13T13:37:27Z</time><name>PT7763</name></trkpt>
<trkpt lat="52.083947" lon="05.656770"><ele>29.3</ele><time>2022-04-13T13:37:28Z</time><name>PT7764</name></trkpt>
<trkpt lat="52.083935" lon="05.656751"><ele>29.2</ele><time>2022-04-13T13:37:29Z</time><name>PT7765</name></trkpt>
<trkpt lat="52.083932" lon="05.656742"><ele>29.2</ele><time>2022-04-13T13:37:30Z</time><name>PT7766</name></trkpt>
<trkpt lat="52.083928" lon="05.656730"><ele>29.3</ele><time>2022-04-13T13:37:31Z</time><name>PT7767</name></trkpt>
<trkpt lat="52.083923" lon="05.656717"><ele>29.3</ele><time>2022-04-13T13:37:32Z</time><name>PT7768</name></trkpt>
<trkpt lat="52.083911" lon="05.656694"><ele>29.3</ele><time>2022-04-13T13:37:33Z</time><name>PT7769</name></trkpt>
<trkpt lat="52.083902" lon="05.656677"><ele>29.2</ele><time>2022-04-13T13:37:34Z</time><name>PT7770</name></trkpt>
<trkpt lat="52.083898" lon="05.656665"><ele>29.1</ele><time>2022-04-13T13:37:35Z</time><name>PT7771</name></trkpt>
<trkpt lat="52.083898" lon="05.656647"><ele>29.1</ele><time>2022-04-13T13:37:36Z</time><name>PT7772</name></trkpt>
<trkpt lat="52.083894" lon="05.656634"><ele>29.1</ele><time>2022-04-13T13:37:37Z</time><name>PT7773</name></trkpt>
<trkpt lat="52.083889" lon="05.656622"><ele>29.1</ele><time>2022-04-13T13:37:38Z</time><name>PT7774</name></trkpt>
<trkpt lat="52.083885" lon="05.656611"><ele>29.3</ele><time>2022-04-13T13:37:39Z</time><name>PT7775</name></trkpt>
<trkpt lat="52.083884" lon="05.656600"><ele>29.3</ele><time>2022-04-13T13:37:40Z</time><name>PT7776</name></trkpt>
<trkpt lat="52.083879" lon="05.656581"><ele>29.3</ele><time>2022-04-13T13:37:41Z</time><name>PT7777</name></trkpt>
<trkpt lat="52.083876" lon="05.656568"><ele>29.3</ele><time>2022-04-13T13:37:42Z</time><name>PT7778</name></trkpt>
<trkpt lat="52.083874" lon="05.656559"><ele>29.3</ele><time>2022-04-13T13:37:43Z</time><name>PT7779</name></trkpt>
<trkpt lat="52.083868" lon="05.656544"><ele>29.2</ele><time>2022-04-13T13:37:44Z</time><name>PT7780</name></trkpt>
<trkpt lat="52.083865" lon="05.656523"><ele>29.3</ele><time>2022-04-13T13:37:45Z</time><name>PT7781</name></trkpt>
<trkpt lat="52.083859" lon="05.656503"><ele>29.2</ele><time>2022-04-13T13:37:46Z</time><name>PT7782</name></trkpt>
<trkpt lat="52.083858" lon="05.656494"><ele>29.3</ele><time>2022-04-13T13:37:47Z</time><name>PT7783</name></trkpt>
<trkpt lat="52.083864" lon="05.656492"><ele>29.3</ele><time>2022-04-13T13:37:48Z</time><name>PT7784</name></trkpt>
<trkpt lat="52.083866" lon="05.656484"><ele>29.2</ele><time>2022-04-13T13:37:49Z</time><name>PT7785</name></trkpt>
<trkpt lat="52.083861" lon="05.656465"><ele>29.3</ele><time>2022-04-13T13:37:50Z</time><name>PT7786</name></trkpt>
<trkpt lat="52.083851" lon="05.656454"><ele>29.3</ele><time>2022-04-13T13:37:51Z</time><name>PT7787</name></trkpt>
<trkpt lat="52.083845" lon="05.656444"><ele>29.3</ele><time>2022-04-13T13:37:52Z</time><name>PT7788</name></trkpt>
<trkpt lat="52.083838" lon="05.656434"><ele>29.4</ele><time>2022-04-13T13:37:53Z</time><name>PT7789</name></trkpt>
<trkpt lat="52.083833" lon="05.656417"><ele>29.3</ele><time>2022-04-13T13:37:54Z</time><name>PT7790</name></trkpt>
<trkpt lat="52.083826" lon="05.656400"><ele>29.1</ele><time>2022-04-13T13:37:55Z</time><name>PT7791</name></trkpt>
<trkpt lat="52.083819" lon="05.656384"><ele>29.1</ele><time>2022-04-13T13:37:56Z</time><name>PT7792</name></trkpt>
<trkpt lat="52.083814" lon="05.656373"><ele>29.1</ele><time>2022-04-13T13:37:57Z</time><name>PT7793</name></trkpt>
<trkpt lat="52.083810" lon="05.656357"><ele>29.3</ele><time>2022-04-13T13:37:58Z</time><name>PT7794</name></trkpt>
<trkpt lat="52.083801" lon="05.656338"><ele>29.3</ele><time>2022-04-13T13:37:59Z</time><name>PT7795</name></trkpt>
<trkpt lat="52.083798" lon="05.656323"><ele>29.4</ele><time>2022-04-13T13:38:00Z</time><name>PT7796</name></trkpt>
<trkpt lat="52.083793" lon="05.656313"><ele>29.7</ele><time>2022-04-13T13:38:01Z</time><name>PT7797</name></trkpt>
<trkpt lat="52.083788" lon="05.656302"><ele>29.8</ele><time>2022-04-13T13:38:02Z</time><name>PT7798</name></trkpt>
<trkpt lat="52.083785" lon="05.656293"><ele>29.8</ele><time>2022-04-13T13:38:03Z</time><name>PT7799</name></trkpt>
<trkpt lat="52.083777" lon="05.656273"><ele>30</ele><time>2022-04-13T13:38:04Z</time><name>PT7800</name></trkpt>
<trkpt lat="52.083768" lon="05.656256"><ele>29.9</ele><time>2022-04-13T13:38:05Z</time><name>PT7801</name></trkpt>
<trkpt lat="52.083762" lon="05.656243"><ele>29.9</ele><time>2022-04-13T13:38:06Z</time><name>PT7802</name></trkpt>
<trkpt lat="52.083753" lon="05.656229"><ele>29.7</ele><time>2022-04-13T13:38:07Z</time><name>PT7803</name></trkpt>
<trkpt lat="52.083750" lon="05.656210"><ele>29.7</ele><time>2022-04-13T13:38:08Z</time><name>PT7804</name></trkpt>
<trkpt lat="52.083744" lon="05.656190"><ele>29.7</ele><time>2022-04-13T13:38:09Z</time><name>PT7805</name></trkpt>
<trkpt lat="52.083741" lon="05.656180"><ele>29.7</ele><time>2022-04-13T13:38:10Z</time><name>PT7806</name></trkpt>
<trkpt lat="52.083737" lon="05.656172"><ele>29.7</ele><time>2022-04-13T13:38:11Z</time><name>PT7807</name></trkpt>
<trkpt lat="52.083733" lon="05.656163"><ele>29.8</ele><time>2022-04-13T13:38:12Z</time><name>PT7808</name></trkpt>
<trkpt lat="52.083726" lon="05.656150"><ele>29.7</ele><time>2022-04-13T13:38:13Z</time><name>PT7809</name></trkpt>
<trkpt lat="52.083717" lon="05.656135"><ele>29.7</ele><time>2022-04-13T13:38:14Z</time><name>PT7810</name></trkpt>
<trkpt lat="52.083708" lon="05.656120"><ele>29.6</ele><time>2022-04-13T13:38:15Z</time><name>PT7811</name></trkpt>
<trkpt lat="52.083703" lon="05.656109"><ele>29.6</ele><time>2022-04-13T13:38:16Z</time><name>PT7812</name></trkpt>
<trkpt lat="52.083696" lon="05.656097"><ele>29.5</ele><time>2022-04-13T13:38:17Z</time><name>PT7813</name></trkpt>
<trkpt lat="52.083689" lon="05.656080"><ele>29.6</ele><time>2022-04-13T13:38:18Z</time><name>PT7814</name></trkpt>
<trkpt lat="52.083682" lon="05.656059"><ele>29.7</ele><time>2022-04-13T13:38:19Z</time><name>PT7815</name></trkpt>
<trkpt lat="52.083678" lon="05.656039"><ele>29.7</ele><time>2022-04-13T13:38:20Z</time><name>PT7816</name></trkpt>
<trkpt lat="52.083673" lon="05.656027"><ele>29.8</ele><time>2022-04-13T13:38:21Z</time><name>PT7817</name></trkpt>
<trkpt lat="52.083672" lon="05.656015"><ele>29.7</ele><time>2022-04-13T13:38:22Z</time><name>PT7818</name></trkpt>
<trkpt lat="52.083663" lon="05.656007"><ele>29.8</ele><time>2022-04-13T13:38:23Z</time><name>PT7819</name></trkpt>
<trkpt lat="52.083659" lon="05.655985"><ele>29.8</ele><time>2022-04-13T13:38:24Z</time><name>PT7820</name></trkpt>
<trkpt lat="52.083651" lon="05.655964"><ele>29.8</ele><time>2022-04-13T13:38:25Z</time><name>PT7821</name></trkpt>
<trkpt lat="52.083646" lon="05.655951"><ele>29.8</ele><time>2022-04-13T13:38:26Z</time><name>PT7822</name></trkpt>
<trkpt lat="52.083638" lon="05.655944"><ele>29.8</ele><time>2022-04-13T13:38:27Z</time><name>PT7823</name></trkpt>
<trkpt lat="52.083634" lon="05.655933"><ele>29.6</ele><time>2022-04-13T13:38:28Z</time><name>PT7824</name></trkpt>
<trkpt lat="52.083632" lon="05.655917"><ele>29.5</ele><time>2022-04-13T13:38:29Z</time><name>PT7825</name></trkpt>
<trkpt lat="52.083627" lon="05.655900"><ele>29.5</ele><time>2022-04-13T13:38:30Z</time><name>PT7826</name></trkpt>
<trkpt lat="52.083621" lon="05.655881"><ele>29.5</ele><time>2022-04-13T13:38:31Z</time><name>PT7827</name></trkpt>
<trkpt lat="52.083614" lon="05.655864"><ele>29.5</ele><time>2022-04-13T13:38:32Z</time><name>PT7828</name></trkpt>
<trkpt lat="52.083611" lon="05.655853"><ele>29.7</ele><time>2022-04-13T13:38:33Z</time><name>PT7829</name></trkpt>
<trkpt lat="52.083609" lon="05.655841"><ele>29.7</ele><time>2022-04-13T13:38:34Z</time><name>PT7830</name></trkpt>
<trkpt lat="52.083604" lon="05.655826"><ele>29.8</ele><time>2022-04-13T13:38:35Z</time><name>PT7831</name></trkpt>
<trkpt lat="52.083601" lon="05.655810"><ele>29.9</ele><time>2022-04-13T13:38:36Z</time><name>PT7832</name></trkpt>
<trkpt lat="52.083598" lon="05.655795"><ele>29.7</ele><time>2022-04-13T13:38:37Z</time><name>PT7833</name></trkpt>
<trkpt lat="52.083593" lon="05.655782"><ele>29.9</ele><time>2022-04-13T13:38:38Z</time><name>PT7834</name></trkpt>
<trkpt lat="52.083590" lon="05.655773"><ele>30</ele><time>2022-04-13T13:38:39Z</time><name>PT7835</name></trkpt>
<trkpt lat="52.083583" lon="05.655760"><ele>30.2</ele><time>2022-04-13T13:38:40Z</time><name>PT7836</name></trkpt>
<trkpt lat="52.083577" lon="05.655743"><ele>30.2</ele><time>2022-04-13T13:38:41Z</time><name>PT7837</name></trkpt>
<trkpt lat="52.083568" lon="05.655727"><ele>30.6</ele><time>2022-04-13T13:38:42Z</time><name>PT7838</name></trkpt>
<trkpt lat="52.083563" lon="05.655717"><ele>30.5</ele><time>2022-04-13T13:38:43Z</time><name>PT7839</name></trkpt>
<trkpt lat="52.083555" lon="05.655702"><ele>30.5</ele><time>2022-04-13T13:38:44Z</time><name>PT7840</name></trkpt>
<trkpt lat="52.083552" lon="05.655681"><ele>30.5</ele><time>2022-04-13T13:38:45Z</time><name>PT7841</name></trkpt>
<trkpt lat="52.083542" lon="05.655657"><ele>30.5</ele><time>2022-04-13T13:38:46Z</time><name>PT7842</name></trkpt>
<trkpt lat="52.083537" lon="05.655633"><ele>30.6</ele><time>2022-04-13T13:38:47Z</time><name>PT7843</name></trkpt>
<trkpt lat="52.083533" lon="05.655620"><ele>30.6</ele><time>2022-04-13T13:38:48Z</time><name>PT7844</name></trkpt>
<trkpt lat="52.083532" lon="05.655608"><ele>30.5</ele><time>2022-04-13T13:38:49Z</time><name>PT7845</name></trkpt>
<trkpt lat="52.083529" lon="05.655594"><ele>30.4</ele><time>2022-04-13T13:38:50Z</time><name>PT7846</name></trkpt>
<trkpt lat="52.083526" lon="05.655582"><ele>30.4</ele><time>2022-04-13T13:38:51Z</time><name>PT7847</name></trkpt>
<trkpt lat="52.083518" lon="05.655566"><ele>30.5</ele><time>2022-04-13T13:38:52Z</time><name>PT7848</name></trkpt>
<trkpt lat="52.083513" lon="05.655551"><ele>30.6</ele><time>2022-04-13T13:38:53Z</time><name>PT7849</name></trkpt>
<trkpt lat="52.083504" lon="05.655532"><ele>30.7</ele><time>2022-04-13T13:38:54Z</time><name>PT7850</name></trkpt>
<trkpt lat="52.083498" lon="05.655519"><ele>30.7</ele><time>2022-04-13T13:38:55Z</time><name>PT7851</name></trkpt>
<trkpt lat="52.083494" lon="05.655512"><ele>30.5</ele><time>2022-04-13T13:38:56Z</time><name>PT7852</name></trkpt>
<trkpt lat="52.083488" lon="05.655500"><ele>30.4</ele><time>2022-04-13T13:38:57Z</time><name>PT7853</name></trkpt>
<trkpt lat="52.083481" lon="05.655481"><ele>30.5</ele><time>2022-04-13T13:38:58Z</time><name>PT7854</name></trkpt>
<trkpt lat="52.083471" lon="05.655467"><ele>30.5</ele><time>2022-04-13T13:38:59Z</time><name>PT7855</name></trkpt>
<trkpt lat="52.083467" lon="05.655456"><ele>30.6</ele><time>2022-04-13T13:39:00Z</time><name>PT7856</name></trkpt>
<trkpt lat="52.083463" lon="05.655440"><ele>30.7</ele><time>2022-04-13T13:39:01Z</time><name>PT7857</name></trkpt>
<trkpt lat="52.083462" lon="05.655434"><ele>30.7</ele><time>2022-04-13T13:39:02Z</time><name>PT7858</name></trkpt>
<trkpt lat="52.083456" lon="05.655423"><ele>30.6</ele><time>2022-04-13T13:39:03Z</time><name>PT7859</name></trkpt>
<trkpt lat="52.083448" lon="05.655408"><ele>30.6</ele><time>2022-04-13T13:39:04Z</time><name>PT7860</name></trkpt>
<trkpt lat="52.083446" lon="05.655397"><ele>30.6</ele><time>2022-04-13T13:39:05Z</time><name>PT7861</name></trkpt>
<trkpt lat="52.083440" lon="05.655382"><ele>30.6</ele><time>2022-04-13T13:39:06Z</time><name>PT7862</name></trkpt>
<trkpt lat="52.083435" lon="05.655369"><ele>30.7</ele><time>2022-04-13T13:39:07Z</time><name>PT7863</name></trkpt>
<trkpt lat="52.083433" lon="05.655360"><ele>30.7</ele><time>2022-04-13T13:39:08Z</time><name>PT7864</name></trkpt>
<trkpt lat="52.083426" lon="05.655347"><ele>30.6</ele><time>2022-04-13T13:39:09Z</time><name>PT7865</name></trkpt>
<trkpt lat="52.083421" lon="05.655328"><ele>30.7</ele><time>2022-04-13T13:39:10Z</time><name>PT7866</name></trkpt>
<trkpt lat="52.083420" lon="05.655314"><ele>30.7</ele><time>2022-04-13T13:39:11Z</time><name>PT7867</name></trkpt>
<trkpt lat="52.083416" lon="05.655304"><ele>30.7</ele><time>2022-04-13T13:39:12Z</time><name>PT7868</name></trkpt>
<trkpt lat="52.083413" lon="05.655292"><ele>30.6</ele><time>2022-04-13T13:39:13Z</time><name>PT7869</name></trkpt>
<trkpt lat="52.083407" lon="05.655276"><ele>30.8</ele><time>2022-04-13T13:39:14Z</time><name>PT7870</name></trkpt>
<trkpt lat="52.083403" lon="05.655259"><ele>30.8</ele><time>2022-04-13T13:39:15Z</time><name>PT7871</name></trkpt>
<trkpt lat="52.083401" lon="05.655249"><ele>30.9</ele><time>2022-04-13T13:39:16Z</time><name>PT7872</name></trkpt>
<trkpt lat="52.083399" lon="05.655239"><ele>30.9</ele><time>2022-04-13T13:39:17Z</time><name>PT7873</name></trkpt>
<trkpt lat="52.083396" lon="05.655222"><ele>30.9</ele><time>2022-04-13T13:39:18Z</time><name>PT7874</name></trkpt>
<trkpt lat="52.083391" lon="05.655208"><ele>30.9</ele><time>2022-04-13T13:39:19Z</time><name>PT7875</name></trkpt>
<trkpt lat="52.083385" lon="05.655196"><ele>31</ele><time>2022-04-13T13:39:20Z</time><name>PT7876</name></trkpt>
<trkpt lat="52.083385" lon="05.655188"><ele>31.1</ele><time>2022-04-13T13:39:21Z</time><name>PT7877</name></trkpt>
<trkpt lat="52.083379" lon="05.655181"><ele>31</ele><time>2022-04-13T13:39:22Z</time><name>PT7878</name></trkpt>
<trkpt lat="52.083373" lon="05.655166"><ele>30.9</ele><time>2022-04-13T13:39:23Z</time><name>PT7879</name></trkpt>
<trkpt lat="52.083369" lon="05.655153"><ele>30.7</ele><time>2022-04-13T13:39:24Z</time><name>PT7880</name></trkpt>
<trkpt lat="52.083366" lon="05.655145"><ele>30.7</ele><time>2022-04-13T13:39:25Z</time><name>PT7881</name></trkpt>
<trkpt lat="52.083360" lon="05.655133"><ele>30.7</ele><time>2022-04-13T13:39:26Z</time><name>PT7882</name></trkpt>
<trkpt lat="52.083353" lon="05.655113"><ele>30.7</ele><time>2022-04-13T13:39:27Z</time><name>PT7883</name></trkpt>
<trkpt lat="52.083349" lon="05.655093"><ele>30.8</ele><time>2022-04-13T13:39:28Z</time><name>PT7884</name></trkpt>
<trkpt lat="52.083346" lon="05.655081"><ele>31</ele><time>2022-04-13T13:39:29Z</time><name>PT7885</name></trkpt>
<trkpt lat="52.083342" lon="05.655070"><ele>31</ele><time>2022-04-13T13:39:30Z</time><name>PT7886</name></trkpt>
<trkpt lat="52.083333" lon="05.655054"><ele>31</ele><time>2022-04-13T13:39:31Z</time><name>PT7887</name></trkpt>
<trkpt lat="52.083328" lon="05.655037"><ele>31.1</ele><time>2022-04-13T13:39:32Z</time><name>PT7888</name></trkpt>
<trkpt lat="52.083323" lon="05.655025"><ele>31.1</ele><time>2022-04-13T13:39:33Z</time><name>PT7889</name></trkpt>
<trkpt lat="52.083322" lon="05.655012"><ele>31.2</ele><time>2022-04-13T13:39:34Z</time><name>PT7890</name></trkpt>
<trkpt lat="52.083318" lon="05.654997"><ele>31.3</ele><time>2022-04-13T13:39:35Z</time><name>PT7891</name></trkpt>
<trkpt lat="52.083312" lon="05.654986"><ele>31.4</ele><time>2022-04-13T13:39:36Z</time><name>PT7892</name></trkpt>
<trkpt lat="52.083308" lon="05.654979"><ele>31.5</ele><time>2022-04-13T13:39:37Z</time><name>PT7893</name></trkpt>
<trkpt lat="52.083306" lon="05.654968"><ele>31.3</ele><time>2022-04-13T13:39:38Z</time><name>PT7894</name></trkpt>
<trkpt lat="52.083300" lon="05.654952"><ele>31.2</ele><time>2022-04-13T13:39:39Z</time><name>PT7895</name></trkpt>
<trkpt lat="52.083294" lon="05.654933"><ele>31.2</ele><time>2022-04-13T13:39:40Z</time><name>PT7896</name></trkpt>
<trkpt lat="52.083294" lon="05.654921"><ele>31</ele><time>2022-04-13T13:39:41Z</time><name>PT7897</name></trkpt>
<trkpt lat="52.083283" lon="05.654917"><ele>31.1</ele><time>2022-04-13T13:39:42Z</time><name>PT7898</name></trkpt>
<trkpt lat="52.083279" lon="05.654896"><ele>31.2</ele><time>2022-04-13T13:39:43Z</time><name>PT7899</name></trkpt>
<trkpt lat="52.083279" lon="05.654882"><ele>31.3</ele><time>2022-04-13T13:39:44Z</time><name>PT7900</name></trkpt>
<trkpt lat="52.083276" lon="05.654873"><ele>31.2</ele><time>2022-04-13T13:39:45Z</time><name>PT7901</name></trkpt>
<trkpt lat="52.083271" lon="05.654862"><ele>31</ele><time>2022-04-13T13:39:46Z</time><name>PT7902</name></trkpt>
<trkpt lat="52.083261" lon="05.654846"><ele>31.1</ele><time>2022-04-13T13:39:47Z</time><name>PT7903</name></trkpt>
<trkpt lat="52.083255" lon="05.654827"><ele>31</ele><time>2022-04-13T13:39:48Z</time><name>PT7904</name></trkpt>
<trkpt lat="52.083248" lon="05.654806"><ele>31.2</ele><time>2022-04-13T13:39:49Z</time><name>PT7905</name></trkpt>
<trkpt lat="52.083245" lon="05.654799"><ele>31.2</ele><time>2022-04-13T13:39:50Z</time><name>PT7906</name></trkpt>
<trkpt lat="52.083239" lon="05.654785"><ele>31.3</ele><time>2022-04-13T13:39:51Z</time><name>PT7907</name></trkpt>
<trkpt lat="52.083231" lon="05.654765"><ele>31.5</ele><time>2022-04-13T13:39:52Z</time><name>PT7908</name></trkpt>
<trkpt lat="52.083224" lon="05.654754"><ele>31.7</ele><time>2022-04-13T13:39:53Z</time><name>PT7909</name></trkpt>
<trkpt lat="52.083219" lon="05.654743"><ele>31.7</ele><time>2022-04-13T13:39:54Z</time><name>PT7910</name></trkpt>
<trkpt lat="52.083219" lon="05.654730"><ele>31.7</ele><time>2022-04-13T13:39:55Z</time><name>PT7911</name></trkpt>
<trkpt lat="52.083218" lon="05.654711"><ele>31.6</ele><time>2022-04-13T13:39:56Z</time><name>PT7912</name></trkpt>
<trkpt lat="52.083212" lon="05.654695"><ele>31.4</ele><time>2022-04-13T13:39:57Z</time><name>PT7913</name></trkpt>
<trkpt lat="52.083208" lon="05.654680"><ele>31.2</ele><time>2022-04-13T13:39:58Z</time><name>PT7914</name></trkpt>
<trkpt lat="52.083205" lon="05.654669"><ele>31.2</ele><time>2022-04-13T13:39:59Z</time><name>PT7915</name></trkpt>
<trkpt lat="52.083203" lon="05.654661"><ele>31.2</ele><time>2022-04-13T13:40:00Z</time><name>PT7916</name></trkpt>
<trkpt lat="52.083201" lon="05.654652"><ele>31.3</ele><time>2022-04-13T13:40:01Z</time><name>PT7917</name></trkpt>
<trkpt lat="52.083197" lon="05.654637"><ele>31.4</ele><time>2022-04-13T13:40:02Z</time><name>PT7918</name></trkpt>
<trkpt lat="52.083193" lon="05.654622"><ele>31.3</ele><time>2022-04-13T13:40:03Z</time><name>PT7919</name></trkpt>
<trkpt lat="52.083188" lon="05.654613"><ele>31.6</ele><time>2022-04-13T13:40:04Z</time><name>PT7920</name></trkpt>
<trkpt lat="52.083184" lon="05.654605"><ele>31.6</ele><time>2022-04-13T13:40:05Z</time><name>PT7921</name></trkpt>
<trkpt lat="52.083180" lon="05.654596"><ele>31.5</ele><time>2022-04-13T13:40:06Z</time><name>PT7922</name></trkpt>
<trkpt lat="52.083175" lon="05.654575"><ele>31.5</ele><time>2022-04-13T13:40:07Z</time><name>PT7923</name></trkpt>
<trkpt lat="52.083167" lon="05.654555"><ele>31.5</ele><time>2022-04-13T13:40:08Z</time><name>PT7924</name></trkpt>
<trkpt lat="52.083159" lon="05.654539"><ele>31.2</ele><time>2022-04-13T13:40:09Z</time><name>PT7925</name></trkpt>
<trkpt lat="52.083155" lon="05.654527"><ele>31.2</ele><time>2022-04-13T13:40:10Z</time><name>PT7926</name></trkpt>
<trkpt lat="52.083152" lon="05.654513"><ele>31.2</ele><time>2022-04-13T13:40:11Z</time><name>PT7927</name></trkpt>
<trkpt lat="52.083149" lon="05.654487"><ele>31.1</ele><time>2022-04-13T13:40:12Z</time><name>PT7928</name></trkpt>
<trkpt lat="52.083145" lon="05.654466"><ele>31</ele><time>2022-04-13T13:40:13Z</time><name>PT7929</name></trkpt>
<trkpt lat="52.083143" lon="05.654451"><ele>31.1</ele><time>2022-04-13T13:40:14Z</time><name>PT7930</name></trkpt>
<trkpt lat="52.083138" lon="05.654443"><ele>31.1</ele><time>2022-04-13T13:40:15Z</time><name>PT7931</name></trkpt>
<trkpt lat="52.083133" lon="05.654435"><ele>31.2</ele><time>2022-04-13T13:40:16Z</time><name>PT7932</name></trkpt>
<trkpt lat="52.083129" lon="05.654415"><ele>31.2</ele><time>2022-04-13T13:40:17Z</time><name>PT7933</name></trkpt>
<trkpt lat="52.083119" lon="05.654393"><ele>31.3</ele><time>2022-04-13T13:40:18Z</time><name>PT7934</name></trkpt>
<trkpt lat="52.083115" lon="05.654376"><ele>31.6</ele><time>2022-04-13T13:40:19Z</time><name>PT7935</name></trkpt>
<trkpt lat="52.083110" lon="05.654361"><ele>31.4</ele><time>2022-04-13T13:40:20Z</time><name>PT7936</name></trkpt>
<trkpt lat="52.083106" lon="05.654349"><ele>31.5</ele><time>2022-04-13T13:40:21Z</time><name>PT7937</name></trkpt>
<trkpt lat="52.083102" lon="05.654333"><ele>31.7</ele><time>2022-04-13T13:40:22Z</time><name>PT7938</name></trkpt>
<trkpt lat="52.083095" lon="05.654312"><ele>31.7</ele><time>2022-04-13T13:40:23Z</time><name>PT7939</name></trkpt>
<trkpt lat="52.083088" lon="05.654289"><ele>31.7</ele><time>2022-04-13T13:40:24Z</time><name>PT7940</name></trkpt>
<trkpt lat="52.083085" lon="05.654276"><ele>31.7</ele><time>2022-04-13T13:40:25Z</time><name>PT7941</name></trkpt>
<trkpt lat="52.083086" lon="05.654267"><ele>31.6</ele><time>2022-04-13T13:40:26Z</time><name>PT7942</name></trkpt>
<trkpt lat="52.083085" lon="05.654257"><ele>31.3</ele><time>2022-04-13T13:40:27Z</time><name>PT7943</name></trkpt>
<trkpt lat="52.083075" lon="05.654247"><ele>31.4</ele><time>2022-04-13T13:40:28Z</time><name>PT7944</name></trkpt>
<trkpt lat="52.083067" lon="05.654227"><ele>31.4</ele><time>2022-04-13T13:40:29Z</time><name>PT7945</name></trkpt>
<trkpt lat="52.083065" lon="05.654208"><ele>31.6</ele><time>2022-04-13T13:40:30Z</time><name>PT7946</name></trkpt>
<trkpt lat="52.083058" lon="05.654196"><ele>31.7</ele><time>2022-04-13T13:40:31Z</time><name>PT7947</name></trkpt>
<trkpt lat="52.083049" lon="05.654182"><ele>31.8</ele><time>2022-04-13T13:40:32Z</time><name>PT7948</name></trkpt>
<trkpt lat="52.083042" lon="05.654161"><ele>31.8</ele><time>2022-04-13T13:40:33Z</time><name>PT7949</name></trkpt>
<trkpt lat="52.083035" lon="05.654143"><ele>31.6</ele><time>2022-04-13T13:40:34Z</time><name>PT7950</name></trkpt>
<trkpt lat="52.083026" lon="05.654124"><ele>31.5</ele><time>2022-04-13T13:40:35Z</time><name>PT7951</name></trkpt>
<trkpt lat="52.083020" lon="05.654108"><ele>31.5</ele><time>2022-04-13T13:40:36Z</time><name>PT7952</name></trkpt>
<trkpt lat="52.083013" lon="05.654092"><ele>31.3</ele><time>2022-04-13T13:40:37Z</time><name>PT7953</name></trkpt>
<trkpt lat="52.083007" lon="05.654075"><ele>31.3</ele><time>2022-04-13T13:40:38Z</time><name>PT7954</name></trkpt>
<trkpt lat="52.082996" lon="05.654052"><ele>31.6</ele><time>2022-04-13T13:40:39Z</time><name>PT7955</name></trkpt>
<trkpt lat="52.082985" lon="05.654036"><ele>31.6</ele><time>2022-04-13T13:40:40Z</time><name>PT7956</name></trkpt>
<trkpt lat="52.082978" lon="05.654024"><ele>31.6</ele><time>2022-04-13T13:40:41Z</time><name>PT7957</name></trkpt>
<trkpt lat="52.082976" lon="05.654014"><ele>31.7</ele><time>2022-04-13T13:40:42Z</time><name>PT7958</name></trkpt>
<trkpt lat="52.082968" lon="05.653998"><ele>31.8</ele><time>2022-04-13T13:40:43Z</time><name>PT7959</name></trkpt>
<trkpt lat="52.082963" lon="05.653976"><ele>31.7</ele><time>2022-04-13T13:40:44Z</time><name>PT7960</name></trkpt>
<trkpt lat="52.082959" lon="05.653958"><ele>31.6</ele><time>2022-04-13T13:40:45Z</time><name>PT7961</name></trkpt>
<trkpt lat="52.082953" lon="05.653947"><ele>31.7</ele><time>2022-04-13T13:40:46Z</time><name>PT7962</name></trkpt>
<trkpt lat="52.082949" lon="05.653938"><ele>31.6</ele><time>2022-04-13T13:40:47Z</time><name>PT7963</name></trkpt>
<trkpt lat="52.082947" lon="05.653929"><ele>31.7</ele><time>2022-04-13T13:40:48Z</time><name>PT7964</name></trkpt>
<trkpt lat="52.082939" lon="05.653913"><ele>31.5</ele><time>2022-04-13T13:40:49Z</time><name>PT7965</name></trkpt>
<trkpt lat="52.082936" lon="05.653893"><ele>31.6</ele><time>2022-04-13T13:40:50Z</time><name>PT7966</name></trkpt>
<trkpt lat="52.082933" lon="05.653883"><ele>31.5</ele><time>2022-04-13T13:40:51Z</time><name>PT7967</name></trkpt>
<trkpt lat="52.082930" lon="05.653874"><ele>31.4</ele><time>2022-04-13T13:40:52Z</time><name>PT7968</name></trkpt>
<trkpt lat="52.082925" lon="05.653859"><ele>31.2</ele><time>2022-04-13T13:40:53Z</time><name>PT7969</name></trkpt>
<trkpt lat="52.082920" lon="05.653840"><ele>31.3</ele><time>2022-04-13T13:40:54Z</time><name>PT7970</name></trkpt>
<trkpt lat="52.082914" lon="05.653827"><ele>31.5</ele><time>2022-04-13T13:40:55Z</time><name>PT7971</name></trkpt>
<trkpt lat="52.082911" lon="05.653814"><ele>31.5</ele><time>2022-04-13T13:40:56Z</time><name>PT7972</name></trkpt>
<trkpt lat="52.082907" lon="05.653804"><ele>31.5</ele><time>2022-04-13T13:40:57Z</time><name>PT7973</name></trkpt>
<trkpt lat="52.082904" lon="05.653795"><ele>31.6</ele><time>2022-04-13T13:40:58Z</time><name>PT7974</name></trkpt>
<trkpt lat="52.082892" lon="05.653782"><ele>31.6</ele><time>2022-04-13T13:40:59Z</time><name>PT7975</name></trkpt>
<trkpt lat="52.082881" lon="05.653769"><ele>31.6</ele><time>2022-04-13T13:41:00Z</time><name>PT7976</name></trkpt>
<trkpt lat="52.082874" lon="05.653757"><ele>31.6</ele><time>2022-04-13T13:41:01Z</time><name>PT7977</name></trkpt>
<trkpt lat="52.082870" lon="05.653747"><ele>31.6</ele><time>2022-04-13T13:41:02Z</time><name>PT7978</name></trkpt>
<trkpt lat="52.082867" lon="05.653737"><ele>31.5</ele><time>2022-04-13T13:41:03Z</time><name>PT7979</name></trkpt>
<trkpt lat="52.082865" lon="05.653714"><ele>31.4</ele><time>2022-04-13T13:41:04Z</time><name>PT7980</name></trkpt>
<trkpt lat="52.082862" lon="05.653688"><ele>31.4</ele><time>2022-04-13T13:41:05Z</time><name>PT7981</name></trkpt>
<trkpt lat="52.082858" lon="05.653669"><ele>31.4</ele><time>2022-04-13T13:41:06Z</time><name>PT7982</name></trkpt>
<trkpt lat="52.082858" lon="05.653660"><ele>31.5</ele><time>2022-04-13T13:41:07Z</time><name>PT7983</name></trkpt>
<trkpt lat="52.082857" lon="05.653647"><ele>31.5</ele><time>2022-04-13T13:41:08Z</time><name>PT7984</name></trkpt>
<trkpt lat="52.082854" lon="05.653634"><ele>31.5</ele><time>2022-04-13T13:41:09Z</time><name>PT7985</name></trkpt>
<trkpt lat="52.082849" lon="05.653626"><ele>31.6</ele><time>2022-04-13T13:41:10Z</time><name>PT7986</name></trkpt>
<trkpt lat="52.082842" lon="05.653615"><ele>31.5</ele><time>2022-04-13T13:41:11Z</time><name>PT7987</name></trkpt>
<trkpt lat="52.082837" lon="05.653602"><ele>31.5</ele><time>2022-04-13T13:41:12Z</time><name>PT7988</name></trkpt>
<trkpt lat="52.082833" lon="05.653587"><ele>31.5</ele><time>2022-04-13T13:41:13Z</time><name>PT7989</name></trkpt>
<trkpt lat="52.082829" lon="05.653567"><ele>31.7</ele><time>2022-04-13T13:41:14Z</time><name>PT7990</name></trkpt>
<trkpt lat="52.082823" lon="05.653554"><ele>31.6</ele><time>2022-04-13T13:41:15Z</time><name>PT7991</name></trkpt>
<trkpt lat="52.082815" lon="05.653546"><ele>31.6</ele><time>2022-04-13T13:41:16Z</time><name>PT7992</name></trkpt>
<trkpt lat="52.082808" lon="05.653535"><ele>31.7</ele><time>2022-04-13T13:41:17Z</time><name>PT7993</name></trkpt>
<trkpt lat="52.082801" lon="05.653523"><ele>31.7</ele><time>2022-04-13T13:41:18Z</time><name>PT7994</name></trkpt>
<trkpt lat="52.082796" lon="05.653506"><ele>31.7</ele><time>2022-04-13T13:41:19Z</time><name>PT7995</name></trkpt>
<trkpt lat="52.082793" lon="05.653487"><ele>31.6</ele><time>2022-04-13T13:41:20Z</time><name>PT7996</name></trkpt>
<trkpt lat="52.082789" lon="05.653479"><ele>31.5</ele><time>2022-04-13T13:41:21Z</time><name>PT7997</name></trkpt>
<trkpt lat="52.082783" lon="05.653463"><ele>31.5</ele><time>2022-04-13T13:41:22Z</time><name>PT7998</name></trkpt>
<trkpt lat="52.082778" lon="05.653448"><ele>31.4</ele><time>2022-04-13T13:41:23Z</time><name>PT7999</name></trkpt>
<trkpt lat="52.082775" lon="05.653435"><ele>31.5</ele><time>2022-04-13T13:41:24Z</time><name>PT8000</name></trkpt>
<trkpt lat="52.082769" lon="05.653428"><ele>31.7</ele><time>2022-04-13T13:41:25Z</time><name>PT8001</name></trkpt>
<trkpt lat="52.082768" lon="05.653412"><ele>31.7</ele><time>2022-04-13T13:41:26Z</time><name>PT8002</name></trkpt>
<trkpt lat="52.082768" lon="05.653394"><ele>31.7</ele><time>2022-04-13T13:41:27Z</time><name>PT8003</name></trkpt>
<trkpt lat="52.082767" lon="05.653383"><ele>31.6</ele><time>2022-04-13T13:41:28Z</time><name>PT8004</name></trkpt>
<trkpt lat="52.082772" lon="05.653374"><ele>31.7</ele><time>2022-04-13T13:41:29Z</time><name>PT8005</name></trkpt>
<trkpt lat="52.082773" lon="05.653368"><ele>31.7</ele><time>2022-04-13T13:41:30Z</time><name>PT8006</name></trkpt>
<trkpt lat="52.082767" lon="05.653356"><ele>31.7</ele><time>2022-04-13T13:41:31Z</time><name>PT8007</name></trkpt>
<trkpt lat="52.082763" lon="05.653339"><ele>31.7</ele><time>2022-04-13T13:41:32Z</time><name>PT8008</name></trkpt>
<trkpt lat="52.082757" lon="05.653322"><ele>31.8</ele><time>2022-04-13T13:41:33Z</time><name>PT8009</name></trkpt>
<trkpt lat="52.082754" lon="05.653310"><ele>31.8</ele><time>2022-04-13T13:41:34Z</time><name>PT8010</name></trkpt>
<trkpt lat="52.082746" lon="05.653308"><ele>31.7</ele><time>2022-04-13T13:41:35Z</time><name>PT8011</name></trkpt>
<trkpt lat="52.082745" lon="05.653299"><ele>31.7</ele><time>2022-04-13T13:41:36Z</time><name>PT8012</name></trkpt>
<trkpt lat="52.082742" lon="05.653292"><ele>31.6</ele><time>2022-04-13T13:41:37Z</time><name>PT8013</name></trkpt>
<trkpt lat="52.082741" lon="05.653289"><ele>31.6</ele><time>2022-04-13T13:41:38Z</time><name>PT8014</name></trkpt>
<trkpt lat="52.082742" lon="05.653283"><ele>31.5</ele><time>2022-04-13T13:41:39Z</time><name>PT8015</name></trkpt>
<trkpt lat="52.082739" lon="05.653271"><ele>31.6</ele><time>2022-04-13T13:41:41Z</time><name>PT8016</name></trkpt>
<trkpt lat="52.082742" lon="05.653248"><ele>31.7</ele><time>2022-04-13T13:41:42Z</time><name>PT8017</name></trkpt>
<trkpt lat="52.082739" lon="05.653236"><ele>31.7</ele><time>2022-04-13T13:41:43Z</time><name>PT8018</name></trkpt>
<trkpt lat="52.082738" lon="05.653219"><ele>31.7</ele><time>2022-04-13T13:41:44Z</time><name>PT8019</name></trkpt>
<trkpt lat="52.082735" lon="05.653205"><ele>31.7</ele><time>2022-04-13T13:41:45Z</time><name>PT8020</name></trkpt>
<trkpt lat="52.082731" lon="05.653193"><ele>31.7</ele><time>2022-04-13T13:41:46Z</time><name>PT8021</name></trkpt>
<trkpt lat="52.082727" lon="05.653187"><ele>31.6</ele><time>2022-04-13T13:41:47Z</time><name>PT8022</name></trkpt>
<trkpt lat="52.082724" lon="05.653185"><ele>31.7</ele><time>2022-04-13T13:41:48Z</time><name>PT8023</name></trkpt>
<trkpt lat="52.082725" lon="05.653187"><ele>31.7</ele><time>2022-04-13T13:41:49Z</time><name>PT8024</name></trkpt>
<trkpt lat="52.082722" lon="05.653170"><ele>31.7</ele><time>2022-04-13T13:41:50Z</time><name>PT8025</name></trkpt>
<trkpt lat="52.082716" lon="05.653165"><ele>31.9</ele><time>2022-04-13T13:41:51Z</time><name>PT8026</name></trkpt>
<trkpt lat="52.082710" lon="05.653189"><ele>32.1</ele><time>2022-04-13T13:41:52Z</time><name>PT8027</name></trkpt>
<trkpt lat="52.082710" lon="05.653190"><ele>32.1</ele><time>2022-04-13T13:41:53Z</time><name>PT8028</name></trkpt>
<trkpt lat="52.082709" lon="05.653197"><ele>32.2</ele><time>2022-04-13T13:41:54Z</time><name>PT8029</name></trkpt>
<trkpt lat="52.082706" lon="05.653213"><ele>32.1</ele><time>2022-04-13T13:41:55Z</time><name>PT8030</name></trkpt>
<trkpt lat="52.082701" lon="05.653224"><ele>32</ele><time>2022-04-13T13:41:56Z</time><name>PT8031</name></trkpt>
<trkpt lat="52.082698" lon="05.653231"><ele>32.1</ele><time>2022-04-13T13:41:57Z</time><name>PT8032</name></trkpt>
<trkpt lat="52.082691" lon="05.653239"><ele>32.1</ele><time>2022-04-13T13:41:58Z</time><name>PT8033</name></trkpt>
<trkpt lat="52.082692" lon="05.653245"><ele>32.1</ele><time>2022-04-13T13:41:59Z</time><name>PT8034</name></trkpt>
<trkpt lat="52.082681" lon="05.653252"><ele>32.1</ele><time>2022-04-13T13:42:00Z</time><name>PT8035</name></trkpt>
<trkpt lat="52.082668" lon="05.653261"><ele>32.2</ele><time>2022-04-13T13:42:01Z</time><name>PT8036</name></trkpt>
<trkpt lat="52.082660" lon="05.653270"><ele>32.4</ele><time>2022-04-13T13:42:02Z</time><name>PT8037</name></trkpt>
<trkpt lat="52.082652" lon="05.653278"><ele>32.4</ele><time>2022-04-13T13:42:03Z</time><name>PT8038</name></trkpt>
<trkpt lat="52.082645" lon="05.653284"><ele>32.5</ele><time>2022-04-13T13:42:04Z</time><name>PT8039</name></trkpt>
<trkpt lat="52.082636" lon="05.653291"><ele>32.4</ele><time>2022-04-13T13:42:05Z</time><name>PT8040</name></trkpt>
<trkpt lat="52.082629" lon="05.653299"><ele>32.4</ele><time>2022-04-13T13:42:06Z</time><name>PT8041</name></trkpt>
<trkpt lat="52.082622" lon="05.653313"><ele>32.4</ele><time>2022-04-13T13:42:07Z</time><name>PT8042</name></trkpt>
<trkpt lat="52.082613" lon="05.653324"><ele>32.5</ele><time>2022-04-13T13:42:08Z</time><name>PT8043</name></trkpt>
<trkpt lat="52.082604" lon="05.653329"><ele>32.4</ele><time>2022-04-13T13:42:09Z</time><name>PT8044</name></trkpt>
<trkpt lat="52.082594" lon="05.653345"><ele>32.5</ele><time>2022-04-13T13:42:10Z</time><name>PT8045</name></trkpt>
<trkpt lat="52.082587" lon="05.653358"><ele>32.5</ele><time>2022-04-13T13:42:11Z</time><name>PT8046</name></trkpt>
<trkpt lat="52.082581" lon="05.653364"><ele>32.5</ele><time>2022-04-13T13:42:12Z</time><name>PT8047</name></trkpt>
<trkpt lat="52.082576" lon="05.653376"><ele>32.4</ele><time>2022-04-13T13:42:13Z</time><name>PT8048</name></trkpt>
<trkpt lat="52.082568" lon="05.653389"><ele>32.3</ele><time>2022-04-13T13:42:14Z</time><name>PT8049</name></trkpt>
<trkpt lat="52.082565" lon="05.653391"><ele>32.4</ele><time>2022-04-13T13:42:15Z</time><name>PT8050</name></trkpt>
<trkpt lat="52.082559" lon="05.653397"><ele>32.4</ele><time>2022-04-13T13:42:16Z</time><name>PT8051</name></trkpt>
<trkpt lat="52.082554" lon="05.653407"><ele>32.4</ele><time>2022-04-13T13:42:17Z</time><name>PT8052</name></trkpt>
<trkpt lat="52.082551" lon="05.653413"><ele>32.2</ele><time>2022-04-13T13:42:18Z</time><name>PT8053</name></trkpt>
<trkpt lat="52.082541" lon="05.653420"><ele>32.1</ele><time>2022-04-13T13:42:19Z</time><name>PT8054</name></trkpt>
<trkpt lat="52.082537" lon="05.653421"><ele>32</ele><time>2022-04-13T13:42:20Z</time><name>PT8055</name></trkpt>
<trkpt lat="52.082535" lon="05.653434"><ele>31.8</ele><time>2022-04-13T13:42:21Z</time><name>PT8056</name></trkpt>
<trkpt lat="52.082535" lon="05.653432"><ele>31.9</ele><time>2022-04-13T13:42:22Z</time><name>PT8057</name></trkpt>
<trkpt lat="52.082532" lon="05.653432"><ele>31.8</ele><time>2022-04-13T13:42:23Z</time><name>PT8058</name></trkpt>
<trkpt lat="52.082530" lon="05.653429"><ele>31.8</ele><time>2022-04-13T13:42:24Z</time><name>PT8059</name></trkpt>
<trkpt lat="52.082528" lon="05.653440"><ele>31.7</ele><time>2022-04-13T13:42:25Z</time><name>PT8060</name></trkpt>
<trkpt lat="52.082528" lon="05.653440"><ele>31.8</ele><time>2022-04-13T13:42:26Z</time><name>PT8061</name></trkpt>
<trkpt lat="52.082520" lon="05.653452"><ele>31.7</ele><time>2022-04-13T13:42:37Z</time><name>PT8062</name></trkpt>
<trkpt lat="52.082521" lon="05.653453"><ele>31.7</ele><time>2022-04-13T13:42:38Z</time><name>PT8063</name></trkpt>
<trkpt lat="52.082517" lon="05.653459"><ele>31.8</ele><time>2022-04-13T13:42:39Z</time><name>PT8064</name></trkpt>
<trkpt lat="52.082520" lon="05.653455"><ele>32</ele><time>2022-04-13T13:42:40Z</time><name>PT8065</name></trkpt>
<trkpt lat="52.082518" lon="05.653455"><ele>32.2</ele><time>2022-04-13T13:42:41Z</time><name>PT8066</name></trkpt>
<trkpt lat="52.082516" lon="05.653457"><ele>32.3</ele><time>2022-04-13T13:42:42Z</time><name>PT8067</name></trkpt>
<trkpt lat="52.082513" lon="05.653455"><ele>32.2</ele><time>2022-04-13T13:42:43Z</time><name>PT8068</name></trkpt>
<trkpt lat="52.082509" lon="05.653454"><ele>32.2</ele><time>2022-04-13T13:42:44Z</time><name>PT8069</name></trkpt>
<trkpt lat="52.082504" lon="05.653455"><ele>31.8</ele><time>2022-04-13T13:42:47Z</time><name>PT8070</name></trkpt>
<trkpt lat="52.082496" lon="05.653436"><ele>31.9</ele><time>2022-04-13T13:42:48Z</time><name>PT8071</name></trkpt>
<trkpt lat="52.082490" lon="05.653427"><ele>32</ele><time>2022-04-13T13:42:49Z</time><name>PT8072</name></trkpt>
<trkpt lat="52.082488" lon="05.653431"><ele>32.1</ele><time>2022-04-13T13:42:50Z</time><name>PT8073</name></trkpt>
<trkpt lat="52.082483" lon="05.653435"><ele>32.1</ele><time>2022-04-13T13:42:51Z</time><name>PT8074</name></trkpt>
<trkpt lat="52.082473" lon="05.653424"><ele>32.2</ele><time>2022-04-13T13:42:52Z</time><name>PT8075</name></trkpt>
<trkpt lat="52.082462" lon="05.653419"><ele>32.2</ele><time>2022-04-13T13:42:53Z</time><name>PT8076</name></trkpt>
<trkpt lat="52.082453" lon="05.653413"><ele>32.1</ele><time>2022-04-13T13:42:54Z</time><name>PT8077</name></trkpt>
<trkpt lat="52.082446" lon="05.653404"><ele>32.1</ele><time>2022-04-13T13:42:55Z</time><name>PT8078</name></trkpt>
<trkpt lat="52.082436" lon="05.653394"><ele>31.8</ele><time>2022-04-13T13:42:56Z</time><name>PT8079</name></trkpt>
<trkpt lat="52.082430" lon="05.653374"><ele>31.7</ele><time>2022-04-13T13:42:57Z</time><name>PT8080</name></trkpt>
<trkpt lat="52.082428" lon="05.653364"><ele>31.7</ele><time>2022-04-13T13:42:58Z</time><name>PT8081</name></trkpt>
<trkpt lat="52.082417" lon="05.653355"><ele>31.8</ele><time>2022-04-13T13:42:59Z</time><name>PT8082</name></trkpt>
<trkpt lat="52.082407" lon="05.653336"><ele>31.6</ele><time>2022-04-13T13:43:00Z</time><name>PT8083</name></trkpt>
<trkpt lat="52.082400" lon="05.653323"><ele>31.6</ele><time>2022-04-13T13:43:01Z</time><name>PT8084</name></trkpt>
<trkpt lat="52.082393" lon="05.653312"><ele>31.6</ele><time>2022-04-13T13:43:02Z</time><name>PT8085</name></trkpt>
<trkpt lat="52.082386" lon="05.653301"><ele>31.6</ele><time>2022-04-13T13:43:03Z</time><name>PT8086</name></trkpt>
<trkpt lat="52.082377" lon="05.653291"><ele>31.7</ele><time>2022-04-13T13:43:04Z</time><name>PT8087</name></trkpt>
<trkpt lat="52.082367" lon="05.653274"><ele>31.7</ele><time>2022-04-13T13:43:05Z</time><name>PT8088</name></trkpt>
<trkpt lat="52.082358" lon="05.653268"><ele>31.8</ele><time>2022-04-13T13:43:06Z</time><name>PT8089</name></trkpt>
<trkpt lat="52.082353" lon="05.653261"><ele>32</ele><time>2022-04-13T13:43:07Z</time><name>PT8090</name></trkpt>
<trkpt lat="52.082350" lon="05.653254"><ele>32.2</ele><time>2022-04-13T13:43:08Z</time><name>PT8091</name></trkpt>
<trkpt lat="52.082345" lon="05.653249"><ele>32.2</ele><time>2022-04-13T13:43:09Z</time><name>PT8092</name></trkpt>
<trkpt lat="52.082340" lon="05.653242"><ele>32.2</ele><time>2022-04-13T13:43:10Z</time><name>PT8093</name></trkpt>
<trkpt lat="52.082333" lon="05.653233"><ele>32.1</ele><time>2022-04-13T13:43:11Z</time><name>PT8094</name></trkpt>
<trkpt lat="52.082321" lon="05.653220"><ele>32</ele><time>2022-04-13T13:43:12Z</time><name>PT8095</name></trkpt>
<trkpt lat="52.082315" lon="05.653214"><ele>32</ele><time>2022-04-13T13:43:13Z</time><name>PT8096</name></trkpt>
<trkpt lat="52.082307" lon="05.653206"><ele>31.9</ele><time>2022-04-13T13:43:14Z</time><name>PT8097</name></trkpt>
<trkpt lat="52.082299" lon="05.653194"><ele>32</ele><time>2022-04-13T13:43:15Z</time><name>PT8098</name></trkpt>
<trkpt lat="52.082292" lon="05.653187"><ele>32.3</ele><time>2022-04-13T13:43:16Z</time><name>PT8099</name></trkpt>
<trkpt lat="52.082286" lon="05.653181"><ele>32.4</ele><time>2022-04-13T13:43:17Z</time><name>PT8100</name></trkpt>
<trkpt lat="52.082280" lon="05.653176"><ele>32.4</ele><time>2022-04-13T13:43:18Z</time><name>PT8101</name></trkpt>
<trkpt lat="52.082272" lon="05.653160"><ele>32.4</ele><time>2022-04-13T13:43:19Z</time><name>PT8102</name></trkpt>
<trkpt lat="52.082268" lon="05.653144"><ele>32.3</ele><time>2022-04-13T13:43:20Z</time><name>PT8103</name></trkpt>
<trkpt lat="52.082261" lon="05.653135"><ele>32.2</ele><time>2022-04-13T13:43:21Z</time><name>PT8104</name></trkpt>
<trkpt lat="52.082255" lon="05.653122"><ele>32.1</ele><time>2022-04-13T13:43:22Z</time><name>PT8105</name></trkpt>
<trkpt lat="52.082246" lon="05.653108"><ele>32.2</ele><time>2022-04-13T13:43:23Z</time><name>PT8106</name></trkpt>
<trkpt lat="52.082246" lon="05.653100"><ele>32.2</ele><time>2022-04-13T13:43:24Z</time><name>PT8107</name></trkpt>
<trkpt lat="52.082243" lon="05.653094"><ele>32.3</ele><time>2022-04-13T13:43:25Z</time><name>PT8108</name></trkpt>
<trkpt lat="52.082236" lon="05.653092"><ele>32.3</ele><time>2022-04-13T13:43:26Z</time><name>PT8109</name></trkpt>
<trkpt lat="52.082230" lon="05.653084"><ele>32.4</ele><time>2022-04-13T13:43:27Z</time><name>PT8110</name></trkpt>
<trkpt lat="52.082225" lon="05.653080"><ele>32.6</ele><time>2022-04-13T13:43:28Z</time><name>PT8111</name></trkpt>
<trkpt lat="52.082216" lon="05.653078"><ele>32.6</ele><time>2022-04-13T13:43:29Z</time><name>PT8112</name></trkpt>
<trkpt lat="52.082208" lon="05.653077"><ele>32.7</ele><time>2022-04-13T13:43:30Z</time><name>PT8113</name></trkpt>
<trkpt lat="52.082201" lon="05.653060"><ele>32.8</ele><time>2022-04-13T13:43:31Z</time><name>PT8114</name></trkpt>
<trkpt lat="52.082196" lon="05.653057"><ele>32.9</ele><time>2022-04-13T13:43:32Z</time><name>PT8115</name></trkpt>
<trkpt lat="52.082185" lon="05.653044"><ele>32.8</ele><time>2022-04-13T13:43:33Z</time><name>PT8116</name></trkpt>
<trkpt lat="52.082177" lon="05.653032"><ele>32.7</ele><time>2022-04-13T13:43:34Z</time><name>PT8117</name></trkpt>
<trkpt lat="52.082174" lon="05.653027"><ele>32.6</ele><time>2022-04-13T13:43:35Z</time><name>PT8118</name></trkpt>
<trkpt lat="52.082166" lon="05.653016"><ele>32.6</ele><time>2022-04-13T13:43:36Z</time><name>PT8119</name></trkpt>
<trkpt lat="52.082156" lon="05.653007"><ele>32.6</ele><time>2022-04-13T13:43:37Z</time><name>PT8120</name></trkpt>
<trkpt lat="52.082150" lon="05.653001"><ele>32.6</ele><time>2022-04-13T13:43:38Z</time><name>PT8121</name></trkpt>
<trkpt lat="52.082143" lon="05.652989"><ele>32.6</ele><time>2022-04-13T13:43:39Z</time><name>PT8122</name></trkpt>
<trkpt lat="52.082133" lon="05.652977"><ele>32.7</ele><time>2022-04-13T13:43:40Z</time><name>PT8123</name></trkpt>
<trkpt lat="52.082124" lon="05.652967"><ele>33</ele><time>2022-04-13T13:43:41Z</time><name>PT8124</name></trkpt>
<trkpt lat="52.082122" lon="05.652965"><ele>32.8</ele><time>2022-04-13T13:43:42Z</time><name>PT8125</name></trkpt>
<trkpt lat="52.082119" lon="05.652960"><ele>32.9</ele><time>2022-04-13T13:43:43Z</time><name>PT8126</name></trkpt>
<trkpt lat="52.082112" lon="05.652956"><ele>33</ele><time>2022-04-13T13:43:44Z</time><name>PT8127</name></trkpt>
<trkpt lat="52.082104" lon="05.652949"><ele>33.1</ele><time>2022-04-13T13:43:45Z</time><name>PT8128</name></trkpt>
<trkpt lat="52.082099" lon="05.652945"><ele>33.1</ele><time>2022-04-13T13:43:46Z</time><name>PT8129</name></trkpt>
<trkpt lat="52.082090" lon="05.652938"><ele>33.2</ele><time>2022-04-13T13:43:47Z</time><name>PT8130</name></trkpt>
<trkpt lat="52.082079" lon="05.652933"><ele>33.1</ele><time>2022-04-13T13:43:48Z</time><name>PT8131</name></trkpt>
<trkpt lat="52.082074" lon="05.652930"><ele>33</ele><time>2022-04-13T13:43:49Z</time><name>PT8132</name></trkpt>
<trkpt lat="52.082067" lon="05.652922"><ele>33</ele><time>2022-04-13T13:43:50Z</time><name>PT8133</name></trkpt>
<trkpt lat="52.082059" lon="05.652913"><ele>33</ele><time>2022-04-13T13:43:51Z</time><name>PT8134</name></trkpt>
<trkpt lat="52.082052" lon="05.652900"><ele>33.1</ele><time>2022-04-13T13:43:52Z</time><name>PT8135</name></trkpt>
<trkpt lat="52.082047" lon="05.652896"><ele>33.1</ele><time>2022-04-13T13:43:53Z</time><name>PT8136</name></trkpt>
<trkpt lat="52.082041" lon="05.652886"><ele>33.2</ele><time>2022-04-13T13:43:54Z</time><name>PT8137</name></trkpt>
<trkpt lat="52.082032" lon="05.652877"><ele>33</ele><time>2022-04-13T13:43:55Z</time><name>PT8138</name></trkpt>
<trkpt lat="52.082026" lon="05.652869"><ele>32.8</ele><time>2022-04-13T13:43:56Z</time><name>PT8139</name></trkpt>
<trkpt lat="52.082020" lon="05.652860"><ele>32.9</ele><time>2022-04-13T13:43:57Z</time><name>PT8140</name></trkpt>
<trkpt lat="52.082012" lon="05.652846"><ele>32.8</ele><time>2022-04-13T13:43:58Z</time><name>PT8141</name></trkpt>
<trkpt lat="52.082008" lon="05.652832"><ele>32.9</ele><time>2022-04-13T13:43:59Z</time><name>PT8142</name></trkpt>
<trkpt lat="52.082004" lon="05.652825"><ele>33.1</ele><time>2022-04-13T13:44:00Z</time><name>PT8143</name></trkpt>
<trkpt lat="52.082001" lon="05.652816"><ele>33.1</ele><time>2022-04-13T13:44:01Z</time><name>PT8144</name></trkpt>
<trkpt lat="52.081997" lon="05.652801"><ele>33.2</ele><time>2022-04-13T13:44:02Z</time><name>PT8145</name></trkpt>
<trkpt lat="52.081995" lon="05.652788"><ele>33.1</ele><time>2022-04-13T13:44:03Z</time><name>PT8146</name></trkpt>
<trkpt lat="52.081992" lon="05.652778"><ele>33.2</ele><time>2022-04-13T13:44:04Z</time><name>PT8147</name></trkpt>
<trkpt lat="52.081987" lon="05.652758"><ele>33.2</ele><time>2022-04-13T13:44:05Z</time><name>PT8148</name></trkpt>
<trkpt lat="52.081988" lon="05.652745"><ele>33.4</ele><time>2022-04-13T13:44:06Z</time><name>PT8149</name></trkpt>
<trkpt lat="52.081986" lon="05.652739"><ele>33.3</ele><time>2022-04-13T13:44:07Z</time><name>PT8150</name></trkpt>
<trkpt lat="52.081984" lon="05.652733"><ele>33.2</ele><time>2022-04-13T13:44:08Z</time><name>PT8151</name></trkpt>
<trkpt lat="52.081984" lon="05.652722"><ele>33.1</ele><time>2022-04-13T13:44:09Z</time><name>PT8152</name></trkpt>
<trkpt lat="52.081982" lon="05.652717"><ele>33.1</ele><time>2022-04-13T13:44:10Z</time><name>PT8153</name></trkpt>
<trkpt lat="52.081980" lon="05.652708"><ele>33.1</ele><time>2022-04-13T13:44:11Z</time><name>PT8154</name></trkpt>
<trkpt lat="52.081978" lon="05.652696"><ele>33.1</ele><time>2022-04-13T13:44:12Z</time><name>PT8155</name></trkpt>
<trkpt lat="52.081974" lon="05.652684"><ele>33.3</ele><time>2022-04-13T13:44:13Z</time><name>PT8156</name></trkpt>
<trkpt lat="52.081964" lon="05.652674"><ele>33.2</ele><time>2022-04-13T13:44:14Z</time><name>PT8157</name></trkpt>
<trkpt lat="52.081955" lon="05.652665"><ele>33.3</ele><time>2022-04-13T13:44:15Z</time><name>PT8158</name></trkpt>
<trkpt lat="52.081944" lon="05.652652"><ele>33.3</ele><time>2022-04-13T13:44:16Z</time><name>PT8159</name></trkpt>
<trkpt lat="52.081940" lon="05.652639"><ele>33.4</ele><time>2022-04-13T13:44:17Z</time><name>PT8160</name></trkpt>
<trkpt lat="52.081931" lon="05.652629"><ele>33.4</ele><time>2022-04-13T13:44:18Z</time><name>PT8161</name></trkpt>
<trkpt lat="52.081921" lon="05.652618"><ele>33.5</ele><time>2022-04-13T13:44:19Z</time><name>PT8162</name></trkpt>
<trkpt lat="52.081917" lon="05.652610"><ele>33.4</ele><time>2022-04-13T13:44:20Z</time><name>PT8163</name></trkpt>
<trkpt lat="52.081902" lon="05.652604"><ele>33.4</ele><time>2022-04-13T13:44:21Z</time><name>PT8164</name></trkpt>
<trkpt lat="52.081891" lon="05.652594"><ele>33.6</ele><time>2022-04-13T13:44:22Z</time><name>PT8165</name></trkpt>
<trkpt lat="52.081883" lon="05.652584"><ele>33.6</ele><time>2022-04-13T13:44:23Z</time><name>PT8166</name></trkpt>
<trkpt lat="52.081879" lon="05.652568"><ele>33.9</ele><time>2022-04-13T13:44:24Z</time><name>PT8167</name></trkpt>
<trkpt lat="52.081875" lon="05.652562"><ele>34.1</ele><time>2022-04-13T13:44:25Z</time><name>PT8168</name></trkpt>
<trkpt lat="52.081870" lon="05.652552"><ele>34.3</ele><time>2022-04-13T13:44:26Z</time><name>PT8169</name></trkpt>
<trkpt lat="52.081861" lon="05.652536"><ele>34.3</ele><time>2022-04-13T13:44:27Z</time><name>PT8170</name></trkpt>
<trkpt lat="52.081855" lon="05.652524"><ele>34.1</ele><time>2022-04-13T13:44:28Z</time><name>PT8171</name></trkpt>
<trkpt lat="52.081855" lon="05.652517"><ele>34.1</ele><time>2022-04-13T13:44:29Z</time><name>PT8172</name></trkpt>
<trkpt lat="52.081846" lon="05.652513"><ele>34.1</ele><time>2022-04-13T13:44:30Z</time><name>PT8173</name></trkpt>
<trkpt lat="52.081839" lon="05.652500"><ele>34.1</ele><time>2022-04-13T13:44:31Z</time><name>PT8174</name></trkpt>
<trkpt lat="52.081839" lon="05.652486"><ele>34.2</ele><time>2022-04-13T13:44:32Z</time><name>PT8175</name></trkpt>
<trkpt lat="52.081834" lon="05.652480"><ele>34.4</ele><time>2022-04-13T13:44:33Z</time><name>PT8176</name></trkpt>
<trkpt lat="52.081825" lon="05.652473"><ele>34.3</ele><time>2022-04-13T13:44:34Z</time><name>PT8177</name></trkpt>
<trkpt lat="52.081818" lon="05.652458"><ele>34.4</ele><time>2022-04-13T13:44:35Z</time><name>PT8178</name></trkpt>
<trkpt lat="52.081813" lon="05.652451"><ele>34.5</ele><time>2022-04-13T13:44:36Z</time><name>PT8179</name></trkpt>
<trkpt lat="52.081804" lon="05.652436"><ele>34.5</ele><time>2022-04-13T13:44:37Z</time><name>PT8180</name></trkpt>
<trkpt lat="52.081791" lon="05.652419"><ele>34.4</ele><time>2022-04-13T13:44:38Z</time><name>PT8181</name></trkpt>
<trkpt lat="52.081783" lon="05.652403"><ele>34.6</ele><time>2022-04-13T13:44:39Z</time><name>PT8182</name></trkpt>
<trkpt lat="52.081776" lon="05.652389"><ele>34.6</ele><time>2022-04-13T13:44:40Z</time><name>PT8183</name></trkpt>
<trkpt lat="52.081774" lon="05.652383"><ele>34.6</ele><time>2022-04-13T13:44:41Z</time><name>PT8184</name></trkpt>
<trkpt lat="52.081770" lon="05.652378"><ele>34.6</ele><time>2022-04-13T13:44:42Z</time><name>PT8185</name></trkpt>
<trkpt lat="52.081763" lon="05.652367"><ele>34.5</ele><time>2022-04-13T13:44:43Z</time><name>PT8186</name></trkpt>
<trkpt lat="52.081753" lon="05.652357"><ele>34.3</ele><time>2022-04-13T13:44:44Z</time><name>PT8187</name></trkpt>
<trkpt lat="52.081746" lon="05.652343"><ele>34.3</ele><time>2022-04-13T13:44:45Z</time><name>PT8188</name></trkpt>
<trkpt lat="52.081742" lon="05.652334"><ele>34</ele><time>2022-04-13T13:44:46Z</time><name>PT8189</name></trkpt>
<trkpt lat="52.081734" lon="05.652332"><ele>33.7</ele><time>2022-04-13T13:44:47Z</time><name>PT8190</name></trkpt>
<trkpt lat="52.081729" lon="05.652330"><ele>33.5</ele><time>2022-04-13T13:44:48Z</time><name>PT8191</name></trkpt>
<trkpt lat="52.081716" lon="05.652328"><ele>33.4</ele><time>2022-04-13T13:44:49Z</time><name>PT8192</name></trkpt>
<trkpt lat="52.081707" lon="05.652314"><ele>33.3</ele><time>2022-04-13T13:44:50Z</time><name>PT8193</name></trkpt>
<trkpt lat="52.081699" lon="05.652307"><ele>33.2</ele><time>2022-04-13T13:44:51Z</time><name>PT8194</name></trkpt>
<trkpt lat="52.081693" lon="05.652303"><ele>33.2</ele><time>2022-04-13T13:44:52Z</time><name>PT8195</name></trkpt>
<trkpt lat="52.081687" lon="05.652298"><ele>33.3</ele><time>2022-04-13T13:44:53Z</time><name>PT8196</name></trkpt>
<trkpt lat="52.081673" lon="05.652291"><ele>33.1</ele><time>2022-04-13T13:44:54Z</time><name>PT8197</name></trkpt>
<trkpt lat="52.081660" lon="05.652276"><ele>33.3</ele><time>2022-04-13T13:44:55Z</time><name>PT8198</name></trkpt>
<trkpt lat="52.081648" lon="05.652260"><ele>33.3</ele><time>2022-04-13T13:44:56Z</time><name>PT8199</name></trkpt>
<trkpt lat="52.081642" lon="05.652250"><ele>33.1</ele><time>2022-04-13T13:44:57Z</time><name>PT8200</name></trkpt>
<trkpt lat="52.081637" lon="05.652244"><ele>33.3</ele><time>2022-04-13T13:44:58Z</time><name>PT8201</name></trkpt>
<trkpt lat="52.081629" lon="05.652243"><ele>33.4</ele><time>2022-04-13T13:44:59Z</time><name>PT8202</name></trkpt>
<trkpt lat="52.081616" lon="05.652239"><ele>33.2</ele><time>2022-04-13T13:45:00Z</time><name>PT8203</name></trkpt>
<trkpt lat="52.081602" lon="05.652231"><ele>33.1</ele><time>2022-04-13T13:45:01Z</time><name>PT8204</name></trkpt>
<trkpt lat="52.081595" lon="05.652225"><ele>33.1</ele><time>2022-04-13T13:45:02Z</time><name>PT8205</name></trkpt>
<trkpt lat="52.081592" lon="05.652225"><ele>33</ele><time>2022-04-13T13:45:03Z</time><name>PT8206</name></trkpt>
<trkpt lat="52.081587" lon="05.652221"><ele>33.1</ele><time>2022-04-13T13:45:04Z</time><name>PT8207</name></trkpt>
<trkpt lat="52.081576" lon="05.652223"><ele>33.1</ele><time>2022-04-13T13:45:05Z</time><name>PT8208</name></trkpt>
<trkpt lat="52.081567" lon="05.652230"><ele>33.2</ele><time>2022-04-13T13:45:06Z</time><name>PT8209</name></trkpt>
<trkpt lat="52.081557" lon="05.652235"><ele>33.2</ele><time>2022-04-13T13:45:07Z</time><name>PT8210</name></trkpt>
<trkpt lat="52.081547" lon="05.652237"><ele>33.4</ele><time>2022-04-13T13:45:08Z</time><name>PT8211</name></trkpt>
<trkpt lat="52.081538" lon="05.652236"><ele>33.4</ele><time>2022-04-13T13:45:09Z</time><name>PT8212</name></trkpt>
<trkpt lat="52.081531" lon="05.652238"><ele>33.4</ele><time>2022-04-13T13:45:10Z</time><name>PT8213</name></trkpt>
<trkpt lat="52.081525" lon="05.652241"><ele>33.3</ele><time>2022-04-13T13:45:11Z</time><name>PT8214</name></trkpt>
<trkpt lat="52.081521" lon="05.652242"><ele>33.2</ele><time>2022-04-13T13:45:12Z</time><name>PT8215</name></trkpt>
<trkpt lat="52.081521" lon="05.652239"><ele>33.1</ele><time>2022-04-13T13:45:13Z</time><name>PT8216</name></trkpt>
<trkpt lat="52.081511" lon="05.652234"><ele>33.1</ele><time>2022-04-13T13:45:14Z</time><name>PT8217</name></trkpt>
<trkpt lat="52.081499" lon="05.652231"><ele>33.2</ele><time>2022-04-13T13:45:15Z</time><name>PT8218</name></trkpt>
<trkpt lat="52.081496" lon="05.652236"><ele>33.2</ele><time>2022-04-13T13:45:16Z</time><name>PT8219</name></trkpt>
<trkpt lat="52.081489" lon="05.652232"><ele>33.4</ele><time>2022-04-13T13:45:17Z</time><name>PT8220</name></trkpt>
<trkpt lat="52.081476" lon="05.652230"><ele>33.6</ele><time>2022-04-13T13:45:18Z</time><name>PT8221</name></trkpt>
<trkpt lat="52.081466" lon="05.652219"><ele>33.6</ele><time>2022-04-13T13:45:19Z</time><name>PT8222</name></trkpt>
<trkpt lat="52.081456" lon="05.652214"><ele>33.6</ele><time>2022-04-13T13:45:20Z</time><name>PT8223</name></trkpt>
<trkpt lat="52.081448" lon="05.652211"><ele>33.7</ele><time>2022-04-13T13:45:21Z</time><name>PT8224</name></trkpt>
<trkpt lat="52.081444" lon="05.652210"><ele>33.8</ele><time>2022-04-13T13:45:22Z</time><name>PT8225</name></trkpt>
<trkpt lat="52.081436" lon="05.652210"><ele>34.1</ele><time>2022-04-13T13:45:23Z</time><name>PT8226</name></trkpt>
<trkpt lat="52.081423" lon="05.652211"><ele>34.2</ele><time>2022-04-13T13:45:24Z</time><name>PT8227</name></trkpt>
<trkpt lat="52.081407" lon="05.652202"><ele>34.2</ele><time>2022-04-13T13:45:25Z</time><name>PT8228</name></trkpt>
<trkpt lat="52.081391" lon="05.652190"><ele>34.3</ele><time>2022-04-13T13:45:26Z</time><name>PT8229</name></trkpt>
<trkpt lat="52.081380" lon="05.652180"><ele>34.4</ele><time>2022-04-13T13:45:27Z</time><name>PT8230</name></trkpt>
<trkpt lat="52.081371" lon="05.652184"><ele>34.5</ele><time>2022-04-13T13:45:28Z</time><name>PT8231</name></trkpt>
<trkpt lat="52.081360" lon="05.652187"><ele>34.5</ele><time>2022-04-13T13:45:29Z</time><name>PT8232</name></trkpt>
<trkpt lat="52.081352" lon="05.652184"><ele>34.6</ele><time>2022-04-13T13:45:30Z</time><name>PT8233</name></trkpt>
<trkpt lat="52.081343" lon="05.652182"><ele>34.6</ele><time>2022-04-13T13:45:31Z</time><name>PT8234</name></trkpt>
<trkpt lat="52.081330" lon="05.652186"><ele>34.6</ele><time>2022-04-13T13:45:32Z</time><name>PT8235</name></trkpt>
<trkpt lat="52.081317" lon="05.652187"><ele>34.6</ele><time>2022-04-13T13:45:33Z</time><name>PT8236</name></trkpt>
<trkpt lat="52.081305" lon="05.652186"><ele>34.6</ele><time>2022-04-13T13:45:34Z</time><name>PT8237</name></trkpt>
<trkpt lat="52.081296" lon="05.652193"><ele>34.5</ele><time>2022-04-13T13:45:35Z</time><name>PT8238</name></trkpt>
<trkpt lat="52.081291" lon="05.652198"><ele>34.6</ele><time>2022-04-13T13:45:36Z</time><name>PT8239</name></trkpt>
<trkpt lat="52.081285" lon="05.652204"><ele>34.6</ele><time>2022-04-13T13:45:37Z</time><name>PT8240</name></trkpt>
<trkpt lat="52.081268" lon="05.652208"><ele>34.6</ele><time>2022-04-13T13:45:38Z</time><name>PT8241</name></trkpt>
<trkpt lat="52.081250" lon="05.652203"><ele>34.6</ele><time>2022-04-13T13:45:39Z</time><name>PT8242</name></trkpt>
<trkpt lat="52.081234" lon="05.652200"><ele>34.6</ele><time>2022-04-13T13:45:40Z</time><name>PT8243</name></trkpt>
<trkpt lat="52.081226" lon="05.652201"><ele>34.6</ele><time>2022-04-13T13:45:41Z</time><name>PT8244</name></trkpt>
<trkpt lat="52.081215" lon="05.652206"><ele>34.7</ele><time>2022-04-13T13:45:42Z</time><name>PT8245</name></trkpt>
<trkpt lat="52.081195" lon="05.652205"><ele>34.8</ele><time>2022-04-13T13:45:43Z</time><name>PT8246</name></trkpt>
<trkpt lat="52.081181" lon="05.652203"><ele>34.9</ele><time>2022-04-13T13:45:44Z</time><name>PT8247</name></trkpt>
<trkpt lat="52.081168" lon="05.652203"><ele>34.8</ele><time>2022-04-13T13:45:45Z</time><name>PT8248</name></trkpt>
<trkpt lat="52.081162" lon="05.652207"><ele>34.8</ele><time>2022-04-13T13:45:46Z</time><name>PT8249</name></trkpt>
<trkpt lat="52.081155" lon="05.652212"><ele>34.7</ele><time>2022-04-13T13:45:47Z</time><name>PT8250</name></trkpt>
<trkpt lat="52.081143" lon="05.652218"><ele>34.7</ele><time>2022-04-13T13:45:48Z</time><name>PT8251</name></trkpt>
<trkpt lat="52.081135" lon="05.652222"><ele>34.6</ele><time>2022-04-13T13:45:49Z</time><name>PT8252</name></trkpt>
<trkpt lat="52.081129" lon="05.652227"><ele>34.6</ele><time>2022-04-13T13:45:50Z</time><name>PT8253</name></trkpt>
<trkpt lat="52.081121" lon="05.652236"><ele>34.6</ele><time>2022-04-13T13:45:51Z</time><name>PT8254</name></trkpt>
<trkpt lat="52.081105" lon="05.652238"><ele>34.7</ele><time>2022-04-13T13:45:52Z</time><name>PT8255</name></trkpt>
<trkpt lat="52.081093" lon="05.652241"><ele>34.7</ele><time>2022-04-13T13:45:53Z</time><name>PT8256</name></trkpt>
<trkpt lat="52.081089" lon="05.652246"><ele>35</ele><time>2022-04-13T13:45:54Z</time><name>PT8257</name></trkpt>
<trkpt lat="52.081085" lon="05.652246"><ele>35</ele><time>2022-04-13T13:45:55Z</time><name>PT8258</name></trkpt>
<trkpt lat="52.081077" lon="05.652257"><ele>35</ele><time>2022-04-13T13:45:56Z</time><name>PT8259</name></trkpt>
<trkpt lat="52.081065" lon="05.652261"><ele>35</ele><time>2022-04-13T13:45:57Z</time><name>PT8260</name></trkpt>
<trkpt lat="52.081057" lon="05.652265"><ele>35</ele><time>2022-04-13T13:45:58Z</time><name>PT8261</name></trkpt>
<trkpt lat="52.081051" lon="05.652267"><ele>35</ele><time>2022-04-13T13:45:59Z</time><name>PT8262</name></trkpt>
<trkpt lat="52.081043" lon="05.652275"><ele>35</ele><time>2022-04-13T13:46:00Z</time><name>PT8263</name></trkpt>
<trkpt lat="52.081028" lon="05.652282"><ele>34.8</ele><time>2022-04-13T13:46:01Z</time><name>PT8264</name></trkpt>
<trkpt lat="52.081016" lon="05.652285"><ele>34.9</ele><time>2022-04-13T13:46:02Z</time><name>PT8265</name></trkpt>
<trkpt lat="52.081013" lon="05.652288"><ele>34.9</ele><time>2022-04-13T13:46:03Z</time><name>PT8266</name></trkpt>
<trkpt lat="52.081009" lon="05.652298"><ele>34.8</ele><time>2022-04-13T13:46:04Z</time><name>PT8267</name></trkpt>
<trkpt lat="52.081003" lon="05.652307"><ele>34.8</ele><time>2022-04-13T13:46:05Z</time><name>PT8268</name></trkpt>
<trkpt lat="52.080996" lon="05.652325"><ele>34.7</ele><time>2022-04-13T13:46:06Z</time><name>PT8269</name></trkpt>
<trkpt lat="52.080988" lon="05.652343"><ele>34.6</ele><time>2022-04-13T13:46:07Z</time><name>PT8270</name></trkpt>
<trkpt lat="52.080978" lon="05.652352"><ele>34.6</ele><time>2022-04-13T13:46:08Z</time><name>PT8271</name></trkpt>
<trkpt lat="52.080972" lon="05.652356"><ele>34.3</ele><time>2022-04-13T13:46:09Z</time><name>PT8272</name></trkpt>
<trkpt lat="52.080971" lon="05.652356"><ele>34.1</ele><time>2022-04-13T13:46:10Z</time><name>PT8273</name></trkpt>
<trkpt lat="52.080966" lon="05.652360"><ele>34.1</ele><time>2022-04-13T13:46:11Z</time><name>PT8274</name></trkpt>
<trkpt lat="52.080962" lon="05.652370"><ele>33.9</ele><time>2022-04-13T13:46:12Z</time><name>PT8275</name></trkpt>
<trkpt lat="52.080951" lon="05.652377"><ele>33.9</ele><time>2022-04-13T13:46:13Z</time><name>PT8276</name></trkpt>
<trkpt lat="52.080942" lon="05.652385"><ele>33.9</ele><time>2022-04-13T13:46:14Z</time><name>PT8277</name></trkpt>
<trkpt lat="52.080934" lon="05.652393"><ele>33.7</ele><time>2022-04-13T13:46:15Z</time><name>PT8278</name></trkpt>
<trkpt lat="52.080931" lon="05.652402"><ele>33.8</ele><time>2022-04-13T13:46:16Z</time><name>PT8279</name></trkpt>
<trkpt lat="52.080929" lon="05.652415"><ele>33.7</ele><time>2022-04-13T13:46:17Z</time><name>PT8280</name></trkpt>
<trkpt lat="52.080923" lon="05.652427"><ele>33.7</ele><time>2022-04-13T13:46:18Z</time><name>PT8281</name></trkpt>
<trkpt lat="52.080912" lon="05.652434"><ele>33.6</ele><time>2022-04-13T13:46:19Z</time><name>PT8282</name></trkpt>
<trkpt lat="52.080905" lon="05.652433"><ele>33.6</ele><time>2022-04-13T13:46:20Z</time><name>PT8283</name></trkpt>
<trkpt lat="52.080896" lon="05.652434"><ele>33.5</ele><time>2022-04-13T13:46:21Z</time><name>PT8284</name></trkpt>
<trkpt lat="52.080892" lon="05.652442"><ele>33.3</ele><time>2022-04-13T13:46:22Z</time><name>PT8285</name></trkpt>
<trkpt lat="52.080885" lon="05.652447"><ele>33.3</ele><time>2022-04-13T13:46:23Z</time><name>PT8286</name></trkpt>
<trkpt lat="52.080873" lon="05.652455"><ele>33.3</ele><time>2022-04-13T13:46:24Z</time><name>PT8287</name></trkpt>
<trkpt lat="52.080863" lon="05.652456"><ele>33.5</ele><time>2022-04-13T13:46:25Z</time><name>PT8288</name></trkpt>
<trkpt lat="52.080854" lon="05.652455"><ele>33.3</ele><time>2022-04-13T13:46:26Z</time><name>PT8289</name></trkpt>
<trkpt lat="52.080844" lon="05.652467"><ele>33.3</ele><time>2022-04-13T13:46:27Z</time><name>PT8290</name></trkpt>
<trkpt lat="52.080834" lon="05.652474"><ele>33.2</ele><time>2022-04-13T13:46:28Z</time><name>PT8291</name></trkpt>
<trkpt lat="52.080831" lon="05.652480"><ele>33.1</ele><time>2022-04-13T13:46:29Z</time><name>PT8292</name></trkpt>
<trkpt lat="52.080830" lon="05.652488"><ele>33.1</ele><time>2022-04-13T13:46:30Z</time><name>PT8293</name></trkpt>
<trkpt lat="52.080826" lon="05.652487"><ele>33.1</ele><time>2022-04-13T13:46:31Z</time><name>PT8294</name></trkpt>
<trkpt lat="52.080823" lon="05.652487"><ele>33.1</ele><time>2022-04-13T13:46:32Z</time><name>PT8295</name></trkpt>
<trkpt lat="52.080813" lon="05.652498"><ele>33.1</ele><time>2022-04-13T13:46:40Z</time><name>PT8296</name></trkpt>
<trkpt lat="52.080805" lon="05.652508"><ele>33.1</ele><time>2022-04-13T13:46:41Z</time><name>PT8297</name></trkpt>
<trkpt lat="52.080796" lon="05.652515"><ele>32.9</ele><time>2022-04-13T13:46:42Z</time><name>PT8298</name></trkpt>
<trkpt lat="52.080793" lon="05.652520"><ele>32.9</ele><time>2022-04-13T13:46:43Z</time><name>PT8299</name></trkpt>
<trkpt lat="52.080785" lon="05.652531"><ele>32.9</ele><time>2022-04-13T13:46:44Z</time><name>PT8300</name></trkpt>
<trkpt lat="52.080780" lon="05.652537"><ele>33</ele><time>2022-04-13T13:46:45Z</time><name>PT8301</name></trkpt>
<trkpt lat="52.080775" lon="05.652560"><ele>33.1</ele><time>2022-04-13T13:46:46Z</time><name>PT8302</name></trkpt>
<trkpt lat="52.080769" lon="05.652573"><ele>32.9</ele><time>2022-04-13T13:46:47Z</time><name>PT8303</name></trkpt>
<trkpt lat="52.080764" lon="05.652584"><ele>32.9</ele><time>2022-04-13T13:46:48Z</time><name>PT8304</name></trkpt>
<trkpt lat="52.080753" lon="05.652607"><ele>32.9</ele><time>2022-04-13T13:46:49Z</time><name>PT8305</name></trkpt>
<trkpt lat="52.080744" lon="05.652621"><ele>32.8</ele><time>2022-04-13T13:46:50Z</time><name>PT8306</name></trkpt>
<trkpt lat="52.080735" lon="05.652631"><ele>32.8</ele><time>2022-04-13T13:46:51Z</time><name>PT8307</name></trkpt>
<trkpt lat="52.080725" lon="05.652655"><ele>32.8</ele><time>2022-04-13T13:46:52Z</time><name>PT8308</name></trkpt>
<trkpt lat="52.080718" lon="05.652671"><ele>32.7</ele><time>2022-04-13T13:46:53Z</time><name>PT8309</name></trkpt>
<trkpt lat="52.080711" lon="05.652681"><ele>32.6</ele><time>2022-04-13T13:46:54Z</time><name>PT8310</name></trkpt>
<trkpt lat="52.080699" lon="05.652693"><ele>32.5</ele><time>2022-04-13T13:46:55Z</time><name>PT8311</name></trkpt>
<trkpt lat="52.080689" lon="05.652707"><ele>32.4</ele><time>2022-04-13T13:46:56Z</time><name>PT8312</name></trkpt>
<trkpt lat="52.080686" lon="05.652725"><ele>32.4</ele><time>2022-04-13T13:46:57Z</time><name>PT8313</name></trkpt>
<trkpt lat="52.080684" lon="05.652735"><ele>32.5</ele><time>2022-04-13T13:46:58Z</time><name>PT8314</name></trkpt>
<trkpt lat="52.080681" lon="05.652745"><ele>32.5</ele><time>2022-04-13T13:46:59Z</time><name>PT8315</name></trkpt>
<trkpt lat="52.080672" lon="05.652756"><ele>32.6</ele><time>2022-04-13T13:47:00Z</time><name>PT8316</name></trkpt>
<trkpt lat="52.080666" lon="05.652768"><ele>32.4</ele><time>2022-04-13T13:47:01Z</time><name>PT8317</name></trkpt>
<trkpt lat="52.080662" lon="05.652778"><ele>32.3</ele><time>2022-04-13T13:47:02Z</time><name>PT8318</name></trkpt>
<trkpt lat="52.080660" lon="05.652788"><ele>32.1</ele><time>2022-04-13T13:47:03Z</time><name>PT8319</name></trkpt>
<trkpt lat="52.080660" lon="05.652802"><ele>31.8</ele><time>2022-04-13T13:47:04Z</time><name>PT8320</name></trkpt>
<trkpt lat="52.080656" lon="05.652812"><ele>31.8</ele><time>2022-04-13T13:47:05Z</time><name>PT8321</name></trkpt>
<trkpt lat="52.080651" lon="05.652823"><ele>31.7</ele><time>2022-04-13T13:47:06Z</time><name>PT8322</name></trkpt>
<trkpt lat="52.080647" lon="05.652836"><ele>31.7</ele><time>2022-04-13T13:47:07Z</time><name>PT8323</name></trkpt>
<trkpt lat="52.080645" lon="05.652846"><ele>31.7</ele><time>2022-04-13T13:47:08Z</time><name>PT8324</name></trkpt>
<trkpt lat="52.080640" lon="05.652862"><ele>31.6</ele><time>2022-04-13T13:47:09Z</time><name>PT8325</name></trkpt>
<trkpt lat="52.080637" lon="05.652874"><ele>31.6</ele><time>2022-04-13T13:47:10Z</time><name>PT8326</name></trkpt>
<trkpt lat="52.080635" lon="05.652885"><ele>31.5</ele><time>2022-04-13T13:47:11Z</time><name>PT8327</name></trkpt>
<trkpt lat="52.080631" lon="05.652895"><ele>31.5</ele><time>2022-04-13T13:47:12Z</time><name>PT8328</name></trkpt>
<trkpt lat="52.080627" lon="05.652907"><ele>31.3</ele><time>2022-04-13T13:47:13Z</time><name>PT8329</name></trkpt>
<trkpt lat="52.080624" lon="05.652920"><ele>31.3</ele><time>2022-04-13T13:47:14Z</time><name>PT8330</name></trkpt>
<trkpt lat="52.080622" lon="05.652934"><ele>31.4</ele><time>2022-04-13T13:47:15Z</time><name>PT8331</name></trkpt>
<trkpt lat="52.080619" lon="05.652953"><ele>31.5</ele><time>2022-04-13T13:47:16Z</time><name>PT8332</name></trkpt>
<trkpt lat="52.080610" lon="05.652974"><ele>31.4</ele><time>2022-04-13T13:47:17Z</time><name>PT8333</name></trkpt>
<trkpt lat="52.080603" lon="05.652981"><ele>31.3</ele><time>2022-04-13T13:47:18Z</time><name>PT8334</name></trkpt>
<trkpt lat="52.080597" lon="05.652991"><ele>31.3</ele><time>2022-04-13T13:47:19Z</time><name>PT8335</name></trkpt>
<trkpt lat="52.080593" lon="05.653002"><ele>31.1</ele><time>2022-04-13T13:47:20Z</time><name>PT8336</name></trkpt>
<trkpt lat="52.080587" lon="05.653017"><ele>31</ele><time>2022-04-13T13:47:21Z</time><name>PT8337</name></trkpt>
<trkpt lat="52.080582" lon="05.653028"><ele>30.9</ele><time>2022-04-13T13:47:22Z</time><name>PT8338</name></trkpt>
<trkpt lat="52.080577" lon="05.653038"><ele>31</ele><time>2022-04-13T13:47:23Z</time><name>PT8339</name></trkpt>
<trkpt lat="52.080571" lon="05.653046"><ele>31</ele><time>2022-04-13T13:47:24Z</time><name>PT8340</name></trkpt>
<trkpt lat="52.080566" lon="05.653055"><ele>30.9</ele><time>2022-04-13T13:47:25Z</time><name>PT8341</name></trkpt>
<trkpt lat="52.080561" lon="05.653068"><ele>31.1</ele><time>2022-04-13T13:47:26Z</time><name>PT8342</name></trkpt>
<trkpt lat="52.080558" lon="05.653079"><ele>31</ele><time>2022-04-13T13:47:27Z</time><name>PT8343</name></trkpt>
<trkpt lat="52.080554" lon="05.653093"><ele>30.9</ele><time>2022-04-13T13:47:28Z</time><name>PT8344</name></trkpt>
<trkpt lat="52.080547" lon="05.653112"><ele>30.7</ele><time>2022-04-13T13:47:29Z</time><name>PT8345</name></trkpt>
<trkpt lat="52.080542" lon="05.653129"><ele>30.7</ele><time>2022-04-13T13:47:30Z</time><name>PT8346</name></trkpt>
<trkpt lat="52.080537" lon="05.653145"><ele>30.7</ele><time>2022-04-13T13:47:31Z</time><name>PT8347</name></trkpt>
<trkpt lat="52.080534" lon="05.653158"><ele>30.9</ele><time>2022-04-13T13:47:32Z</time><name>PT8348</name></trkpt>
<trkpt lat="52.080536" lon="05.653175"><ele>30.7</ele><time>2022-04-13T13:47:33Z</time><name>PT8349</name></trkpt>
<trkpt lat="52.080528" lon="05.653193"><ele>30.7</ele><time>2022-04-13T13:47:34Z</time><name>PT8350</name></trkpt>
<trkpt lat="52.080529" lon="05.653211"><ele>30.7</ele><time>2022-04-13T13:47:35Z</time><name>PT8351</name></trkpt>
<trkpt lat="52.080526" lon="05.653225"><ele>30.7</ele><time>2022-04-13T13:47:36Z</time><name>PT8352</name></trkpt>
<trkpt lat="52.080522" lon="05.653234"><ele>30.4</ele><time>2022-04-13T13:47:37Z</time><name>PT8353</name></trkpt>
<trkpt lat="52.080518" lon="05.653248"><ele>30.5</ele><time>2022-04-13T13:47:38Z</time><name>PT8354</name></trkpt>
<trkpt lat="52.080512" lon="05.653263"><ele>30.6</ele><time>2022-04-13T13:47:39Z</time><name>PT8355</name></trkpt>
<trkpt lat="52.080509" lon="05.653276"><ele>30.4</ele><time>2022-04-13T13:47:40Z</time><name>PT8356</name></trkpt>
<trkpt lat="52.080503" lon="05.653287"><ele>30.4</ele><time>2022-04-13T13:47:41Z</time><name>PT8357</name></trkpt>
<trkpt lat="52.080497" lon="05.653300"><ele>30.5</ele><time>2022-04-13T13:47:42Z</time><name>PT8358</name></trkpt>
<trkpt lat="52.080491" lon="05.653315"><ele>30.3</ele><time>2022-04-13T13:47:43Z</time><name>PT8359</name></trkpt>
<trkpt lat="52.080488" lon="05.653331"><ele>30.2</ele><time>2022-04-13T13:47:44Z</time><name>PT8360</name></trkpt>
<trkpt lat="52.080483" lon="05.653345"><ele>30.2</ele><time>2022-04-13T13:47:45Z</time><name>PT8361</name></trkpt>
<trkpt lat="52.080480" lon="05.653357"><ele>30.2</ele><time>2022-04-13T13:47:46Z</time><name>PT8362</name></trkpt>
<trkpt lat="52.080475" lon="05.653371"><ele>30.2</ele><time>2022-04-13T13:47:47Z</time><name>PT8363</name></trkpt>
<trkpt lat="52.080472" lon="05.653389"><ele>30.1</ele><time>2022-04-13T13:47:48Z</time><name>PT8364</name></trkpt>
<trkpt lat="52.080468" lon="05.653402"><ele>30.2</ele><time>2022-04-13T13:47:49Z</time><name>PT8365</name></trkpt>
<trkpt lat="52.080467" lon="05.653415"><ele>30.2</ele><time>2022-04-13T13:47:50Z</time><name>PT8366</name></trkpt>
<trkpt lat="52.080467" lon="05.653427"><ele>30.2</ele><time>2022-04-13T13:47:51Z</time><name>PT8367</name></trkpt>
<trkpt lat="52.080468" lon="05.653433"><ele>30.2</ele><time>2022-04-13T13:47:52Z</time><name>PT8368</name></trkpt>
<trkpt lat="52.080467" lon="05.653442"><ele>30.2</ele><time>2022-04-13T13:47:53Z</time><name>PT8369</name></trkpt>
<trkpt lat="52.080471" lon="05.653445"><ele>30.2</ele><time>2022-04-13T13:47:54Z</time><name>PT8370</name></trkpt>
<trkpt lat="52.080474" lon="05.653452"><ele>30</ele><time>2022-04-13T13:47:55Z</time><name>PT8371</name></trkpt>
<trkpt lat="52.080473" lon="05.653461"><ele>30</ele><time>2022-04-13T13:47:56Z</time><name>PT8372</name></trkpt>
<trkpt lat="52.080471" lon="05.653466"><ele>30</ele><time>2022-04-13T13:47:57Z</time><name>PT8373</name></trkpt>
<trkpt lat="52.080469" lon="05.653474"><ele>29.9</ele><time>2022-04-13T13:47:58Z</time><name>PT8374</name></trkpt>
<trkpt lat="52.080465" lon="05.653492"><ele>29.9</ele><time>2022-04-13T13:47:59Z</time><name>PT8375</name></trkpt>
<trkpt lat="52.080463" lon="05.653510"><ele>30</ele><time>2022-04-13T13:48:00Z</time><name>PT8376</name></trkpt>
<trkpt lat="52.080458" lon="05.653522"><ele>30</ele><time>2022-04-13T13:48:01Z</time><name>PT8377</name></trkpt>
<trkpt lat="52.080457" lon="05.653532"><ele>29.9</ele><time>2022-04-13T13:48:02Z</time><name>PT8378</name></trkpt>
<trkpt lat="52.080455" lon="05.653544"><ele>29.9</ele><time>2022-04-13T13:48:03Z</time><name>PT8379</name></trkpt>
<trkpt lat="52.080451" lon="05.653557"><ele>30</ele><time>2022-04-13T13:48:04Z</time><name>PT8380</name></trkpt>
<trkpt lat="52.080445" lon="05.653567"><ele>29.8</ele><time>2022-04-13T13:48:05Z</time><name>PT8381</name></trkpt>
<trkpt lat="52.080441" lon="05.653577"><ele>29.6</ele><time>2022-04-13T13:48:06Z</time><name>PT8382</name></trkpt>
<trkpt lat="52.080434" lon="05.653586"><ele>29.5</ele><time>2022-04-13T13:48:07Z</time><name>PT8383</name></trkpt>
<trkpt lat="52.080424" lon="05.653590"><ele>29.3</ele><time>2022-04-13T13:48:08Z</time><name>PT8384</name></trkpt>
<trkpt lat="52.080419" lon="05.653597"><ele>29.3</ele><time>2022-04-13T13:48:09Z</time><name>PT8385</name></trkpt>
<trkpt lat="52.080415" lon="05.653608"><ele>29.3</ele><time>2022-04-13T13:48:10Z</time><name>PT8386</name></trkpt>
<trkpt lat="52.080405" lon="05.653621"><ele>29.3</ele><time>2022-04-13T13:48:11Z</time><name>PT8387</name></trkpt>
<trkpt lat="52.080396" lon="05.653633"><ele>29.5</ele><time>2022-04-13T13:48:12Z</time><name>PT8388</name></trkpt>
<trkpt lat="52.080394" lon="05.653641"><ele>29.4</ele><time>2022-04-13T13:48:13Z</time><name>PT8389</name></trkpt>
<trkpt lat="52.080392" lon="05.653652"><ele>29.3</ele><time>2022-04-13T13:48:14Z</time><name>PT8390</name></trkpt>
<trkpt lat="52.080385" lon="05.653665"><ele>29.1</ele><time>2022-04-13T13:48:15Z</time><name>PT8391</name></trkpt>
<trkpt lat="52.080382" lon="05.653670"><ele>29.2</ele><time>2022-04-13T13:48:16Z</time><name>PT8392</name></trkpt>
<trkpt lat="52.080380" lon="05.653680"><ele>29.1</ele><time>2022-04-13T13:48:17Z</time><name>PT8393</name></trkpt>
<trkpt lat="52.080376" lon="05.653689"><ele>29.1</ele><time>2022-04-13T13:48:18Z</time><name>PT8394</name></trkpt>
<trkpt lat="52.080373" lon="05.653704"><ele>29.1</ele><time>2022-04-13T13:48:19Z</time><name>PT8395</name></trkpt>
<trkpt lat="52.080366" lon="05.653720"><ele>29.2</ele><time>2022-04-13T13:48:20Z</time><name>PT8396</name></trkpt>
<trkpt lat="52.080356" lon="05.653736"><ele>29</ele><time>2022-04-13T13:48:21Z</time><name>PT8397</name></trkpt>
<trkpt lat="52.080349" lon="05.653746"><ele>28.9</ele><time>2022-04-13T13:48:22Z</time><name>PT8398</name></trkpt>
<trkpt lat="52.080348" lon="05.653757"><ele>29</ele><time>2022-04-13T13:48:23Z</time><name>PT8399</name></trkpt>
<trkpt lat="52.080343" lon="05.653776"><ele>29</ele><time>2022-04-13T13:48:24Z</time><name>PT8400</name></trkpt>
<trkpt lat="52.080336" lon="05.653791"><ele>29</ele><time>2022-04-13T13:48:25Z</time><name>PT8401</name></trkpt>
<trkpt lat="52.080327" lon="05.653804"><ele>29.2</ele><time>2022-04-13T13:48:26Z</time><name>PT8402</name></trkpt>
<trkpt lat="52.080317" lon="05.653811"><ele>29.3</ele><time>2022-04-13T13:48:27Z</time><name>PT8403</name></trkpt>
<trkpt lat="52.080316" lon="05.653821"><ele>29.2</ele><time>2022-04-13T13:48:28Z</time><name>PT8404</name></trkpt>
<trkpt lat="52.080316" lon="05.653836"><ele>29.1</ele><time>2022-04-13T13:48:29Z</time><name>PT8405</name></trkpt>
<trkpt lat="52.080315" lon="05.653855"><ele>28.9</ele><time>2022-04-13T13:48:30Z</time><name>PT8406</name></trkpt>
<trkpt lat="52.080311" lon="05.653872"><ele>28.9</ele><time>2022-04-13T13:48:31Z</time><name>PT8407</name></trkpt>
<trkpt lat="52.080311" lon="05.653886"><ele>28.8</ele><time>2022-04-13T13:48:32Z</time><name>PT8408</name></trkpt>
<trkpt lat="52.080316" lon="05.653904"><ele>28.8</ele><time>2022-04-13T13:48:33Z</time><name>PT8409</name></trkpt>
<trkpt lat="52.080313" lon="05.653920"><ele>28.8</ele><time>2022-04-13T13:48:34Z</time><name>PT8410</name></trkpt>
<trkpt lat="52.080308" lon="05.653936"><ele>28.8</ele><time>2022-04-13T13:48:35Z</time><name>PT8411</name></trkpt>
<trkpt lat="52.080307" lon="05.653942"><ele>28.7</ele><time>2022-04-13T13:48:36Z</time><name>PT8412</name></trkpt>
<trkpt lat="52.080310" lon="05.653954"><ele>28.7</ele><time>2022-04-13T13:48:37Z</time><name>PT8413</name></trkpt>
<trkpt lat="52.080306" lon="05.653967"><ele>28.8</ele><time>2022-04-13T13:48:38Z</time><name>PT8414</name></trkpt>
<trkpt lat="52.080301" lon="05.653972"><ele>28.8</ele><time>2022-04-13T13:48:39Z</time><name>PT8415</name></trkpt>
<trkpt lat="52.080300" lon="05.653976"><ele>28.8</ele><time>2022-04-13T13:48:40Z</time><name>PT8416</name></trkpt>
<trkpt lat="52.080298" lon="05.653984"><ele>28.9</ele><time>2022-04-13T13:48:41Z</time><name>PT8417</name></trkpt>
<trkpt lat="52.080294" lon="05.654002"><ele>28.8</ele><time>2022-04-13T13:48:46Z</time><name>PT8418</name></trkpt>
<trkpt lat="52.080287" lon="05.654024"><ele>28.7</ele><time>2022-04-13T13:48:47Z</time><name>PT8419</name></trkpt>
<trkpt lat="52.080282" lon="05.654048"><ele>28.6</ele><time>2022-04-13T13:48:48Z</time><name>PT8420</name></trkpt>
<trkpt lat="52.080271" lon="05.654069"><ele>28.7</ele><time>2022-04-13T13:48:49Z</time><name>PT8421</name></trkpt>
<trkpt lat="52.080264" lon="05.654085"><ele>28.5</ele><time>2022-04-13T13:48:50Z</time><name>PT8422</name></trkpt>
<trkpt lat="52.080260" lon="05.654108"><ele>28.3</ele><time>2022-04-13T13:48:51Z</time><name>PT8423</name></trkpt>
<trkpt lat="52.080258" lon="05.654120"><ele>28.3</ele><time>2022-04-13T13:48:52Z</time><name>PT8424</name></trkpt>
<trkpt lat="52.080260" lon="05.654137"><ele>28.4</ele><time>2022-04-13T13:48:53Z</time><name>PT8425</name></trkpt>
<trkpt lat="52.080256" lon="05.654160"><ele>28.3</ele><time>2022-04-13T13:48:54Z</time><name>PT8426</name></trkpt>
<trkpt lat="52.080253" lon="05.654183"><ele>28.4</ele><time>2022-04-13T13:48:55Z</time><name>PT8427</name></trkpt>
<trkpt lat="52.080249" lon="05.654196"><ele>28.7</ele><time>2022-04-13T13:48:56Z</time><name>PT8428</name></trkpt>
<trkpt lat="52.080242" lon="05.654213"><ele>28.7</ele><time>2022-04-13T13:48:57Z</time><name>PT8429</name></trkpt>
<trkpt lat="52.080237" lon="05.654230"><ele>28.6</ele><time>2022-04-13T13:48:58Z</time><name>PT8430</name></trkpt>
<trkpt lat="52.080229" lon="05.654247"><ele>28.7</ele><time>2022-04-13T13:48:59Z</time><name>PT8431</name></trkpt>
<trkpt lat="52.080224" lon="05.654256"><ele>28.6</ele><time>2022-04-13T13:49:00Z</time><name>PT8432</name></trkpt>
<trkpt lat="52.080222" lon="05.654264"><ele>28.4</ele><time>2022-04-13T13:49:01Z</time><name>PT8433</name></trkpt>
<trkpt lat="52.080216" lon="05.654277"><ele>28.4</ele><time>2022-04-13T13:49:02Z</time><name>PT8434</name></trkpt>
<trkpt lat="52.080212" lon="05.654291"><ele>28.4</ele><time>2022-04-13T13:49:03Z</time><name>PT8435</name></trkpt>
<trkpt lat="52.080205" lon="05.654307"><ele>28.3</ele><time>2022-04-13T13:49:04Z</time><name>PT8436</name></trkpt>
<trkpt lat="52.080200" lon="05.654315"><ele>28.3</ele><time>2022-04-13T13:49:05Z</time><name>PT8437</name></trkpt>
<trkpt lat="52.080197" lon="05.654331"><ele>28.3</ele><time>2022-04-13T13:49:06Z</time><name>PT8438</name></trkpt>
<trkpt lat="52.080192" lon="05.654345"><ele>28.3</ele><time>2022-04-13T13:49:07Z</time><name>PT8439</name></trkpt>
<trkpt lat="52.080188" lon="05.654357"><ele>28.3</ele><time>2022-04-13T13:49:08Z</time><name>PT8440</name></trkpt>
<trkpt lat="52.080180" lon="05.654367"><ele>28.3</ele><time>2022-04-13T13:49:09Z</time><name>PT8441</name></trkpt>
<trkpt lat="52.080173" lon="05.654386"><ele>28.4</ele><time>2022-04-13T13:49:10Z</time><name>PT8442</name></trkpt>
<trkpt lat="52.080164" lon="05.654397"><ele>28.4</ele><time>2022-04-13T13:49:11Z</time><name>PT8443</name></trkpt>
<trkpt lat="52.080157" lon="05.654404"><ele>28.3</ele><time>2022-04-13T13:49:12Z</time><name>PT8444</name></trkpt>
<trkpt lat="52.080154" lon="05.654417"><ele>28.3</ele><time>2022-04-13T13:49:13Z</time><name>PT8445</name></trkpt>
<trkpt lat="52.080157" lon="05.654415"><ele>28.3</ele><time>2022-04-13T13:49:14Z</time><name>PT8446</name></trkpt>
<trkpt lat="52.080157" lon="05.654419"><ele>28</ele><time>2022-04-13T13:49:15Z</time><name>PT8447</name></trkpt>
<trkpt lat="52.080154" lon="05.654420"><ele>28</ele><time>2022-04-13T13:49:16Z</time><name>PT8448</name></trkpt>
<trkpt lat="52.080153" lon="05.654416"><ele>28.1</ele><time>2022-04-13T13:49:17Z</time><name>PT8449</name></trkpt>
<trkpt lat="52.080148" lon="05.654431"><ele>28.2</ele><time>2022-04-13T13:49:18Z</time><name>PT8450</name></trkpt>
<trkpt lat="52.080143" lon="05.654447"><ele>28.1</ele><time>2022-04-13T13:49:19Z</time><name>PT8451</name></trkpt>
<trkpt lat="52.080143" lon="05.654458"><ele>28</ele><time>2022-04-13T13:49:20Z</time><name>PT8452</name></trkpt>
<trkpt lat="52.080140" lon="05.654465"><ele>28.1</ele><time>2022-04-13T13:49:21Z</time><name>PT8453</name></trkpt>
<trkpt lat="52.080136" lon="05.654476"><ele>27.8</ele><time>2022-04-13T13:49:22Z</time><name>PT8454</name></trkpt>
<trkpt lat="52.080128" lon="05.654486"><ele>27.8</ele><time>2022-04-13T13:49:23Z</time><name>PT8455</name></trkpt>
<trkpt lat="52.080125" lon="05.654499"><ele>27.8</ele><time>2022-04-13T13:49:24Z</time><name>PT8456</name></trkpt>
<trkpt lat="52.080121" lon="05.654508"><ele>27.8</ele><time>2022-04-13T13:49:25Z</time><name>PT8457</name></trkpt>
<trkpt lat="52.080118" lon="05.654514"><ele>27.9</ele><time>2022-04-13T13:49:26Z</time><name>PT8458</name></trkpt>
<trkpt lat="52.080112" lon="05.654526"><ele>28.1</ele><time>2022-04-13T13:49:27Z</time><name>PT8459</name></trkpt>
<trkpt lat="52.080108" lon="05.654530"><ele>28</ele><time>2022-04-13T13:49:28Z</time><name>PT8460</name></trkpt>
<trkpt lat="52.080098" lon="05.654536"><ele>27.9</ele><time>2022-04-13T13:49:29Z</time><name>PT8461</name></trkpt>
<trkpt lat="52.080092" lon="05.654545"><ele>28</ele><time>2022-04-13T13:49:30Z</time><name>PT8462</name></trkpt>
<trkpt lat="52.080085" lon="05.654551"><ele>27.8</ele><time>2022-04-13T13:49:31Z</time><name>PT8463</name></trkpt>
<trkpt lat="52.080082" lon="05.654566"><ele>27.6</ele><time>2022-04-13T13:49:32Z</time><name>PT8464</name></trkpt>
<trkpt lat="52.080074" lon="05.654572"><ele>27.5</ele><time>2022-04-13T13:49:33Z</time><name>PT8465</name></trkpt>
<trkpt lat="52.080061" lon="05.654584"><ele>27.4</ele><time>2022-04-13T13:49:34Z</time><name>PT8466</name></trkpt>
<trkpt lat="52.080054" lon="05.654595"><ele>27.3</ele><time>2022-04-13T13:49:35Z</time><name>PT8467</name></trkpt>
<trkpt lat="52.080049" lon="05.654609"><ele>27.1</ele><time>2022-04-13T13:49:36Z</time><name>PT8468</name></trkpt>
<trkpt lat="52.080043" lon="05.654613"><ele>27.2</ele><time>2022-04-13T13:49:37Z</time><name>PT8469</name></trkpt>
<trkpt lat="52.080036" lon="05.654619"><ele>27.2</ele><time>2022-04-13T13:49:38Z</time><name>PT8470</name></trkpt>
<trkpt lat="52.080025" lon="05.654633"><ele>27.2</ele><time>2022-04-13T13:49:39Z</time><name>PT8471</name></trkpt>
<trkpt lat="52.080014" lon="05.654653"><ele>27.3</ele><time>2022-04-13T13:49:40Z</time><name>PT8472</name></trkpt>
<trkpt lat="52.080006" lon="05.654668"><ele>27.2</ele><time>2022-04-13T13:49:41Z</time><name>PT8473</name></trkpt>
<trkpt lat="52.079999" lon="05.654680"><ele>27.2</ele><time>2022-04-13T13:49:42Z</time><name>PT8474</name></trkpt>
<trkpt lat="52.079993" lon="05.654688"><ele>27</ele><time>2022-04-13T13:49:43Z</time><name>PT8475</name></trkpt>
<trkpt lat="52.079992" lon="05.654704"><ele>27</ele><time>2022-04-13T13:49:44Z</time><name>PT8476</name></trkpt>
<trkpt lat="52.079980" lon="05.654724"><ele>26.9</ele><time>2022-04-13T13:49:45Z</time><name>PT8477</name></trkpt>
<trkpt lat="52.079972" lon="05.654740"><ele>27</ele><time>2022-04-13T13:49:46Z</time><name>PT8478</name></trkpt>
<trkpt lat="52.079966" lon="05.654754"><ele>26.9</ele><time>2022-04-13T13:49:47Z</time><name>PT8479</name></trkpt>
<trkpt lat="52.079961" lon="05.654764"><ele>26.9</ele><time>2022-04-13T13:49:48Z</time><name>PT8480</name></trkpt>
<trkpt lat="52.079957" lon="05.654775"><ele>26.8</ele><time>2022-04-13T13:49:49Z</time><name>PT8481</name></trkpt>
<trkpt lat="52.079951" lon="05.654784"><ele>26.6</ele><time>2022-04-13T13:49:50Z</time><name>PT8482</name></trkpt>
<trkpt lat="52.079946" lon="05.654805"><ele>26.6</ele><time>2022-04-13T13:49:51Z</time><name>PT8483</name></trkpt>
<trkpt lat="52.079935" lon="05.654823"><ele>26.5</ele><time>2022-04-13T13:49:52Z</time><name>PT8484</name></trkpt>
<trkpt lat="52.079933" lon="05.654834"><ele>26.4</ele><time>2022-04-13T13:49:53Z</time><name>PT8485</name></trkpt>
<trkpt lat="52.079931" lon="05.654844"><ele>26.4</ele><time>2022-04-13T13:49:54Z</time><name>PT8486</name></trkpt>
<trkpt lat="52.079928" lon="05.654849"><ele>26.3</ele><time>2022-04-13T13:49:55Z</time><name>PT8487</name></trkpt>
<trkpt lat="52.079921" lon="05.654859"><ele>26.1</ele><time>2022-04-13T13:49:56Z</time><name>PT8488</name></trkpt>
<trkpt lat="52.079913" lon="05.654873"><ele>26</ele><time>2022-04-13T13:49:57Z</time><name>PT8489</name></trkpt>
<trkpt lat="52.079907" lon="05.654884"><ele>26</ele><time>2022-04-13T13:49:58Z</time><name>PT8490</name></trkpt>
<trkpt lat="52.079905" lon="05.654894"><ele>26</ele><time>2022-04-13T13:49:59Z</time><name>PT8491</name></trkpt>
<trkpt lat="52.079899" lon="05.654900"><ele>25.9</ele><time>2022-04-13T13:50:00Z</time><name>PT8492</name></trkpt>
<trkpt lat="52.079884" lon="05.654909"><ele>26</ele><time>2022-04-13T13:50:01Z</time><name>PT8493</name></trkpt>
<trkpt lat="52.079868" lon="05.654927"><ele>25.8</ele><time>2022-04-13T13:50:02Z</time><name>PT8494</name></trkpt>
<trkpt lat="52.079857" lon="05.654937"><ele>25.7</ele><time>2022-04-13T13:50:03Z</time><name>PT8495</name></trkpt>
<trkpt lat="52.079852" lon="05.654950"><ele>25.7</ele><time>2022-04-13T13:50:04Z</time><name>PT8496</name></trkpt>
<trkpt lat="52.079849" lon="05.654965"><ele>25.8</ele><time>2022-04-13T13:50:05Z</time><name>PT8497</name></trkpt>
<trkpt lat="52.079841" lon="05.654981"><ele>25.7</ele><time>2022-04-13T13:50:06Z</time><name>PT8498</name></trkpt>
<trkpt lat="52.079839" lon="05.654995"><ele>25.7</ele><time>2022-04-13T13:50:07Z</time><name>PT8499</name></trkpt>
<trkpt lat="52.079838" lon="05.655006"><ele>25.9</ele><time>2022-04-13T13:50:08Z</time><name>PT8500</name></trkpt>
<trkpt lat="52.079835" lon="05.655014"><ele>26</ele><time>2022-04-13T13:50:09Z</time><name>PT8501</name></trkpt>
<trkpt lat="52.079829" lon="05.655027"><ele>25.9</ele><time>2022-04-13T13:50:11Z</time><name>PT8502</name></trkpt>
<trkpt lat="52.079818" lon="05.655038"><ele>25.9</ele><time>2022-04-13T13:50:12Z</time><name>PT8503</name></trkpt>
<trkpt lat="52.079811" lon="05.655046"><ele>25.9</ele><time>2022-04-13T13:50:13Z</time><name>PT8504</name></trkpt>
<trkpt lat="52.079803" lon="05.655064"><ele>25.8</ele><time>2022-04-13T13:50:14Z</time><name>PT8505</name></trkpt>
<trkpt lat="52.079797" lon="05.655095"><ele>25.8</ele><time>2022-04-13T13:50:15Z</time><name>PT8506</name></trkpt>
<trkpt lat="52.079788" lon="05.655120"><ele>25.8</ele><time>2022-04-13T13:50:16Z</time><name>PT8507</name></trkpt>
<trkpt lat="52.079782" lon="05.655132"><ele>25.9</ele><time>2022-04-13T13:50:17Z</time><name>PT8508</name></trkpt>
<trkpt lat="52.079779" lon="05.655139"><ele>25.9</ele><time>2022-04-13T13:50:18Z</time><name>PT8509</name></trkpt>
<trkpt lat="52.079777" lon="05.655153"><ele>25.9</ele><time>2022-04-13T13:50:19Z</time><name>PT8510</name></trkpt>
<trkpt lat="52.079768" lon="05.655171"><ele>25.7</ele><time>2022-04-13T13:50:20Z</time><name>PT8511</name></trkpt>
<trkpt lat="52.079758" lon="05.655178"><ele>25.4</ele><time>2022-04-13T13:50:21Z</time><name>PT8512</name></trkpt>
<trkpt lat="52.079750" lon="05.655181"><ele>25.4</ele><time>2022-04-13T13:50:22Z</time><name>PT8513</name></trkpt>
<trkpt lat="52.079747" lon="05.655185"><ele>25.4</ele><time>2022-04-13T13:50:23Z</time><name>PT8514</name></trkpt>
<trkpt lat="52.079741" lon="05.655186"><ele>25.4</ele><time>2022-04-13T13:50:24Z</time><name>PT8515</name></trkpt>
<trkpt lat="52.079732" lon="05.655182"><ele>25.3</ele><time>2022-04-13T13:50:25Z</time><name>PT8516</name></trkpt>
<trkpt lat="52.079726" lon="05.655178"><ele>25.3</ele><time>2022-04-13T13:50:26Z</time><name>PT8517</name></trkpt>
<trkpt lat="52.079720" lon="05.655178"><ele>25.4</ele><time>2022-04-13T13:50:27Z</time><name>PT8518</name></trkpt>
<trkpt lat="52.079713" lon="05.655180"><ele>25.3</ele><time>2022-04-13T13:50:28Z</time><name>PT8519</name></trkpt>
<trkpt lat="52.079706" lon="05.655179"><ele>25.3</ele><time>2022-04-13T13:50:29Z</time><name>PT8520</name></trkpt>
<trkpt lat="52.079698" lon="05.655178"><ele>25.4</ele><time>2022-04-13T13:50:30Z</time><name>PT8521</name></trkpt>
<trkpt lat="52.079691" lon="05.655175"><ele>25.4</ele><time>2022-04-13T13:50:31Z</time><name>PT8522</name></trkpt>
<trkpt lat="52.079689" lon="05.655179"><ele>25.4</ele><time>2022-04-13T13:50:32Z</time><name>PT8523</name></trkpt>
<trkpt lat="52.079685" lon="05.655180"><ele>25.4</ele><time>2022-04-13T13:50:33Z</time><name>PT8524</name></trkpt>
<trkpt lat="52.079676" lon="05.655172"><ele>25.3</ele><time>2022-04-13T13:50:34Z</time><name>PT8525</name></trkpt>
<trkpt lat="52.079672" lon="05.655166"><ele>25</ele><time>2022-04-13T13:50:35Z</time><name>PT8526</name></trkpt>
<trkpt lat="52.079670" lon="05.655161"><ele>25</ele><time>2022-04-13T13:50:36Z</time><name>PT8527</name></trkpt>
<trkpt lat="52.079668" lon="05.655158"><ele>25.1</ele><time>2022-04-13T13:50:37Z</time><name>PT8528</name></trkpt>
<trkpt lat="52.079662" lon="05.655158"><ele>24.9</ele><time>2022-04-13T13:50:38Z</time><name>PT8529</name></trkpt>
<trkpt lat="52.079655" lon="05.655160"><ele>24.9</ele><time>2022-04-13T13:50:39Z</time><name>PT8530</name></trkpt>
<trkpt lat="52.079647" lon="05.655165"><ele>24.8</ele><time>2022-04-13T13:50:40Z</time><name>PT8531</name></trkpt>
<trkpt lat="52.079645" lon="05.655180"><ele>24.7</ele><time>2022-04-13T13:50:41Z</time><name>PT8532</name></trkpt>
<trkpt lat="52.079648" lon="05.655200"><ele>24.8</ele><time>2022-04-13T13:50:42Z</time><name>PT8533</name></trkpt>
<trkpt lat="52.079644" lon="05.655217"><ele>24.8</ele><time>2022-04-13T13:50:43Z</time><name>PT8534</name></trkpt>
<trkpt lat="52.079640" lon="05.655228"><ele>24.9</ele><time>2022-04-13T13:50:44Z</time><name>PT8535</name></trkpt>
<trkpt lat="52.079630" lon="05.655237"><ele>24.9</ele><time>2022-04-13T13:50:45Z</time><name>PT8536</name></trkpt>
<trkpt lat="52.079627" lon="05.655254"><ele>24.8</ele><time>2022-04-13T13:50:46Z</time><name>PT8537</name></trkpt>
<trkpt lat="52.079625" lon="05.655270"><ele>24.7</ele><time>2022-04-13T13:50:47Z</time><name>PT8538</name></trkpt>
<trkpt lat="52.079627" lon="05.655281"><ele>24.7</ele><time>2022-04-13T13:50:48Z</time><name>PT8539</name></trkpt>
<trkpt lat="52.079625" lon="05.655288"><ele>24.7</ele><time>2022-04-13T13:50:49Z</time><name>PT8540</name></trkpt>
<trkpt lat="52.079618" lon="05.655291"><ele>24.6</ele><time>2022-04-13T13:50:50Z</time><name>PT8541</name></trkpt>
<trkpt lat="52.079612" lon="05.655291"><ele>24.7</ele><time>2022-04-13T13:50:51Z</time><name>PT8542</name></trkpt>
<trkpt lat="52.079608" lon="05.655299"><ele>24.8</ele><time>2022-04-13T13:50:52Z</time><name>PT8543</name></trkpt>
<trkpt lat="52.079605" lon="05.655309"><ele>24.8</ele><time>2022-04-13T13:50:53Z</time><name>PT8544</name></trkpt>
<trkpt lat="52.079597" lon="05.655307"><ele>24.8</ele><time>2022-04-13T13:50:54Z</time><name>PT8545</name></trkpt>
<trkpt lat="52.079590" lon="05.655309"><ele>25</ele><time>2022-04-13T13:50:55Z</time><name>PT8546</name></trkpt>
<trkpt lat="52.079580" lon="05.655314"><ele>24.9</ele><time>2022-04-13T13:50:57Z</time><name>PT8547</name></trkpt>
<trkpt lat="52.079569" lon="05.655324"><ele>24.9</ele><time>2022-04-13T13:50:58Z</time><name>PT8548</name></trkpt>
<trkpt lat="52.079568" lon="05.655331"><ele>24.9</ele><time>2022-04-13T13:50:59Z</time><name>PT8549</name></trkpt>
<trkpt lat="52.079566" lon="05.655333"><ele>24.7</ele><time>2022-04-13T13:51:00Z</time><name>PT8550</name></trkpt>
<trkpt lat="52.079565" lon="05.655323"><ele>24.5</ele><time>2022-04-13T13:51:01Z</time><name>PT8551</name></trkpt>
<trkpt lat="52.079563" lon="05.655321"><ele>24.5</ele><time>2022-04-13T13:51:02Z</time><name>PT8552</name></trkpt>
<trkpt lat="52.079561" lon="05.655334"><ele>24.6</ele><time>2022-04-13T13:51:12Z</time><name>PT8553</name></trkpt>
<trkpt lat="52.079559" lon="05.655333"><ele>24.5</ele><time>2022-04-13T13:51:13Z</time><name>PT8554</name></trkpt>
<trkpt lat="52.079554" lon="05.655318"><ele>24.6</ele><time>2022-04-13T13:51:14Z</time><name>PT8555</name></trkpt>
<trkpt lat="52.079547" lon="05.655305"><ele>24.6</ele><time>2022-04-13T13:51:15Z</time><name>PT8556</name></trkpt>
<trkpt lat="52.079543" lon="05.655312"><ele>24.5</ele><time>2022-04-13T13:51:16Z</time><name>PT8557</name></trkpt>
<trkpt lat="52.079545" lon="05.655302"><ele>24.8</ele><time>2022-04-13T13:51:17Z</time><name>PT8558</name></trkpt>
<trkpt lat="52.079553" lon="05.655310"><ele>24.9</ele><time>2022-04-13T13:51:18Z</time><name>PT8559</name></trkpt>
<trkpt lat="52.079557" lon="05.655305"><ele>24.9</ele><time>2022-04-13T13:51:19Z</time><name>PT8560</name></trkpt>
<trkpt lat="52.079557" lon="05.655296"><ele>24.9</ele><time>2022-04-13T13:51:20Z</time><name>PT8561</name></trkpt>
<trkpt lat="52.079551" lon="05.655285"><ele>24.7</ele><time>2022-04-13T13:51:21Z</time><name>PT8562</name></trkpt>
<trkpt lat="52.079547" lon="05.655272"><ele>24.6</ele><time>2022-04-13T13:51:22Z</time><name>PT8563</name></trkpt>
<trkpt lat="52.079548" lon="05.655259"><ele>24.5</ele><time>2022-04-13T13:51:23Z</time><name>PT8564</name></trkpt>
<trkpt lat="52.079539" lon="05.655251"><ele>24.6</ele><time>2022-04-13T13:51:24Z</time><name>PT8565</name></trkpt>
<trkpt lat="52.079531" lon="05.655252"><ele>24.5</ele><time>2022-04-13T13:51:25Z</time><name>PT8566</name></trkpt>
<trkpt lat="52.079532" lon="05.655244"><ele>24.7</ele><time>2022-04-13T13:51:26Z</time><name>PT8567</name></trkpt>
<trkpt lat="52.079528" lon="05.655234"><ele>24.7</ele><time>2022-04-13T13:51:27Z</time><name>PT8568</name></trkpt>
<trkpt lat="52.079528" lon="05.655219"><ele>24.7</ele><time>2022-04-13T13:51:28Z</time><name>PT8569</name></trkpt>
<trkpt lat="52.079522" lon="05.655195"><ele>24.4</ele><time>2022-04-13T13:51:29Z</time><name>PT8570</name></trkpt>
<trkpt lat="52.079519" lon="05.655178"><ele>24.4</ele><time>2022-04-13T13:51:30Z</time><name>PT8571</name></trkpt>
<trkpt lat="52.079515" lon="05.655165"><ele>24.4</ele><time>2022-04-13T13:51:31Z</time><name>PT8572</name></trkpt>
<trkpt lat="52.079510" lon="05.655152"><ele>24.4</ele><time>2022-04-13T13:51:32Z</time><name>PT8573</name></trkpt>
<trkpt lat="52.079506" lon="05.655135"><ele>24.4</ele><time>2022-04-13T13:51:33Z</time><name>PT8574</name></trkpt>
<trkpt lat="52.079501" lon="05.655122"><ele>24.4</ele><time>2022-04-13T13:51:34Z</time><name>PT8575</name></trkpt>
<trkpt lat="52.079499" lon="05.655114"><ele>24.4</ele><time>2022-04-13T13:51:35Z</time><name>PT8576</name></trkpt>
<trkpt lat="52.079492" lon="05.655106"><ele>24.2</ele><time>2022-04-13T13:51:36Z</time><name>PT8577</name></trkpt>
<trkpt lat="52.079484" lon="05.655105"><ele>24.1</ele><time>2022-04-13T13:51:37Z</time><name>PT8578</name></trkpt>
<trkpt lat="52.079478" lon="05.655090"><ele>24.2</ele><time>2022-04-13T13:51:38Z</time><name>PT8579</name></trkpt>
<trkpt lat="52.079467" lon="05.655074"><ele>24.2</ele><time>2022-04-13T13:51:39Z</time><name>PT8580</name></trkpt>
<trkpt lat="52.079455" lon="05.655057"><ele>24.1</ele><time>2022-04-13T13:51:40Z</time><name>PT8581</name></trkpt>
<trkpt lat="52.079449" lon="05.655044"><ele>24.1</ele><time>2022-04-13T13:51:41Z</time><name>PT8582</name></trkpt>
<trkpt lat="52.079445" lon="05.655033"><ele>24.2</ele><time>2022-04-13T13:51:42Z</time><name>PT8583</name></trkpt>
<trkpt lat="52.079442" lon="05.655024"><ele>24.2</ele><time>2022-04-13T13:51:43Z</time><name>PT8584</name></trkpt>
<trkpt lat="52.079437" lon="05.655013"><ele>24.1</ele><time>2022-04-13T13:51:44Z</time><name>PT8585</name></trkpt>
<trkpt lat="52.079429" lon="05.655001"><ele>24</ele><time>2022-04-13T13:51:45Z</time><name>PT8586</name></trkpt>
<trkpt lat="52.079423" lon="05.654992"><ele>24.1</ele><time>2022-04-13T13:51:46Z</time><name>PT8587</name></trkpt>
<trkpt lat="52.079420" lon="05.654983"><ele>24.1</ele><time>2022-04-13T13:51:47Z</time><name>PT8588</name></trkpt>
<trkpt lat="52.079416" lon="05.654973"><ele>24.1</ele><time>2022-04-13T13:51:48Z</time><name>PT8589</name></trkpt>
<trkpt lat="52.079409" lon="05.654954"><ele>24</ele><time>2022-04-13T13:51:49Z</time><name>PT8590</name></trkpt>
<trkpt lat="52.079406" lon="05.654933"><ele>24</ele><time>2022-04-13T13:51:50Z</time><name>PT8591</name></trkpt>
<trkpt lat="52.079404" lon="05.654919"><ele>24</ele><time>2022-04-13T13:51:51Z</time><name>PT8592</name></trkpt>
<trkpt lat="52.079401" lon="05.654910"><ele>24</ele><time>2022-04-13T13:51:52Z</time><name>PT8593</name></trkpt>
<trkpt lat="52.079389" lon="05.654881"><ele>24</ele><time>2022-04-13T13:51:54Z</time><name>PT8594</name></trkpt>
<trkpt lat="52.079379" lon="05.654862"><ele>24</ele><time>2022-04-13T13:51:55Z</time><name>PT8595</name></trkpt>
<trkpt lat="52.079375" lon="05.654848"><ele>24</ele><time>2022-04-13T13:51:56Z</time><name>PT8596</name></trkpt>
<trkpt lat="52.079373" lon="05.654832"><ele>24.1</ele><time>2022-04-13T13:51:57Z</time><name>PT8597</name></trkpt>
<trkpt lat="52.079360" lon="05.654827"><ele>24.1</ele><time>2022-04-13T13:51:58Z</time><name>PT8598</name></trkpt>
<trkpt lat="52.079353" lon="05.654814"><ele>24</ele><time>2022-04-13T13:51:59Z</time><name>PT8599</name></trkpt>
<trkpt lat="52.079342" lon="05.654794"><ele>23.8</ele><time>2022-04-13T13:52:00Z</time><name>PT8600</name></trkpt>
<trkpt lat="52.079336" lon="05.654783"><ele>23.6</ele><time>2022-04-13T13:52:01Z</time><name>PT8601</name></trkpt>
<trkpt lat="52.079332" lon="05.654774"><ele>23.5</ele><time>2022-04-13T13:52:02Z</time><name>PT8602</name></trkpt>
<trkpt lat="52.079324" lon="05.654766"><ele>23.7</ele><time>2022-04-13T13:52:03Z</time><name>PT8603</name></trkpt>
<trkpt lat="52.079319" lon="05.654752"><ele>23.8</ele><time>2022-04-13T13:52:04Z</time><name>PT8604</name></trkpt>
<trkpt lat="52.079315" lon="05.654738"><ele>23.6</ele><time>2022-04-13T13:52:05Z</time><name>PT8605</name></trkpt>
<trkpt lat="52.079312" lon="05.654724"><ele>23.6</ele><time>2022-04-13T13:52:06Z</time><name>PT8606</name></trkpt>
<trkpt lat="52.079305" lon="05.654715"><ele>23.7</ele><time>2022-04-13T13:52:07Z</time><name>PT8607</name></trkpt>
<trkpt lat="52.079298" lon="05.654700"><ele>23.7</ele><time>2022-04-13T13:52:08Z</time><name>PT8608</name></trkpt>
<trkpt lat="52.079294" lon="05.654683"><ele>23.5</ele><time>2022-04-13T13:52:09Z</time><name>PT8609</name></trkpt>
<trkpt lat="52.079287" lon="05.654661"><ele>23.5</ele><time>2022-04-13T13:52:10Z</time><name>PT8610</name></trkpt>
<trkpt lat="52.079283" lon="05.654645"><ele>23.5</ele><time>2022-04-13T13:52:11Z</time><name>PT8611</name></trkpt>
<trkpt lat="52.079282" lon="05.654633"><ele>23.7</ele><time>2022-04-13T13:52:12Z</time><name>PT8612</name></trkpt>
<trkpt lat="52.079278" lon="05.654623"><ele>23.6</ele><time>2022-04-13T13:52:13Z</time><name>PT8613</name></trkpt>
<trkpt lat="52.079273" lon="05.654603"><ele>23.7</ele><time>2022-04-13T13:52:14Z</time><name>PT8614</name></trkpt>
<trkpt lat="52.079267" lon="05.654587"><ele>23.7</ele><time>2022-04-13T13:52:15Z</time><name>PT8615</name></trkpt>
<trkpt lat="52.079264" lon="05.654574"><ele>23.7</ele><time>2022-04-13T13:52:16Z</time><name>PT8616</name></trkpt>
<trkpt lat="52.079261" lon="05.654565"><ele>23.7</ele><time>2022-04-13T13:52:17Z</time><name>PT8617</name></trkpt>
<trkpt lat="52.079256" lon="05.654557"><ele>23.7</ele><time>2022-04-13T13:52:18Z</time><name>PT8618</name></trkpt>
<trkpt lat="52.079254" lon="05.654546"><ele>23.6</ele><time>2022-04-13T13:52:19Z</time><name>PT8619</name></trkpt>
<trkpt lat="52.079245" lon="05.654527"><ele>23.6</ele><time>2022-04-13T13:52:20Z</time><name>PT8620</name></trkpt>
<trkpt lat="52.079243" lon="05.654511"><ele>23.6</ele><time>2022-04-13T13:52:21Z</time><name>PT8621</name></trkpt>
<trkpt lat="52.079242" lon="05.654504"><ele>23.6</ele><time>2022-04-13T13:52:22Z</time><name>PT8622</name></trkpt>
<trkpt lat="52.079239" lon="05.654498"><ele>23.5</ele><time>2022-04-13T13:52:23Z</time><name>PT8623</name></trkpt>
<trkpt lat="52.079234" lon="05.654483"><ele>23.5</ele><time>2022-04-13T13:52:24Z</time><name>PT8624</name></trkpt>
<trkpt lat="52.079229" lon="05.654464"><ele>23.4</ele><time>2022-04-13T13:52:25Z</time><name>PT8625</name></trkpt>
<trkpt lat="52.079225" lon="05.654448"><ele>23.4</ele><time>2022-04-13T13:52:26Z</time><name>PT8626</name></trkpt>
<trkpt lat="52.079230" lon="05.654439"><ele>23.4</ele><time>2022-04-13T13:52:27Z</time><name>PT8627</name></trkpt>
<trkpt lat="52.079228" lon="05.654434"><ele>23.3</ele><time>2022-04-13T13:52:28Z</time><name>PT8628</name></trkpt>
<trkpt lat="52.079222" lon="05.654428"><ele>23.3</ele><time>2022-04-13T13:52:29Z</time><name>PT8629</name></trkpt>
<trkpt lat="52.079212" lon="05.654417"><ele>23.5</ele><time>2022-04-13T13:52:30Z</time><name>PT8630</name></trkpt>
<trkpt lat="52.079203" lon="05.654399"><ele>23.5</ele><time>2022-04-13T13:52:31Z</time><name>PT8631</name></trkpt>
<trkpt lat="52.079200" lon="05.654383"><ele>23.6</ele><time>2022-04-13T13:52:32Z</time><name>PT8632</name></trkpt>
<trkpt lat="52.079197" lon="05.654384"><ele>23.6</ele><time>2022-04-13T13:52:33Z</time><name>PT8633</name></trkpt>
<trkpt lat="52.079194" lon="05.654378"><ele>23.6</ele><time>2022-04-13T13:52:34Z</time><name>PT8634</name></trkpt>
<trkpt lat="52.079189" lon="05.654358"><ele>23.5</ele><time>2022-04-13T13:52:35Z</time><name>PT8635</name></trkpt>
<trkpt lat="52.079181" lon="05.654328"><ele>23.5</ele><time>2022-04-13T13:52:36Z</time><name>PT8636</name></trkpt>
<trkpt lat="52.079175" lon="05.654308"><ele>23.3</ele><time>2022-04-13T13:52:37Z</time><name>PT8637</name></trkpt>
<trkpt lat="52.079172" lon="05.654300"><ele>23.2</ele><time>2022-04-13T13:52:38Z</time><name>PT8638</name></trkpt>
<trkpt lat="52.079170" lon="05.654294"><ele>23.3</ele><time>2022-04-13T13:52:39Z</time><name>PT8639</name></trkpt>
<trkpt lat="52.079158" lon="05.654255"><ele>23.3</ele><time>2022-04-13T13:52:41Z</time><name>PT8640</name></trkpt>
<trkpt lat="52.079147" lon="05.654233"><ele>23.5</ele><time>2022-04-13T13:52:42Z</time><name>PT8641</name></trkpt>
<trkpt lat="52.079132" lon="05.654219"><ele>23.5</ele><time>2022-04-13T13:52:43Z</time><name>PT8642</name></trkpt>
<trkpt lat="52.079126" lon="05.654208"><ele>23.4</ele><time>2022-04-13T13:52:44Z</time><name>PT8643</name></trkpt>
<trkpt lat="52.079118" lon="05.654192"><ele>23.3</ele><time>2022-04-13T13:52:45Z</time><name>PT8644</name></trkpt>
<trkpt lat="52.079109" lon="05.654175"><ele>23.2</ele><time>2022-04-13T13:52:46Z</time><name>PT8645</name></trkpt>
<trkpt lat="52.079100" lon="05.654165"><ele>23.2</ele><time>2022-04-13T13:52:47Z</time><name>PT8646</name></trkpt>
<trkpt lat="52.079093" lon="05.654155"><ele>23</ele><time>2022-04-13T13:52:48Z</time><name>PT8647</name></trkpt>
<trkpt lat="52.079086" lon="05.654145"><ele>23.1</ele><time>2022-04-13T13:52:49Z</time><name>PT8648</name></trkpt>
<trkpt lat="52.079078" lon="05.654130"><ele>23</ele><time>2022-04-13T13:52:50Z</time><name>PT8649</name></trkpt>
<trkpt lat="52.079073" lon="05.654115"><ele>23.1</ele><time>2022-04-13T13:52:51Z</time><name>PT8650</name></trkpt>
<trkpt lat="52.079071" lon="05.654103"><ele>23</ele><time>2022-04-13T13:52:52Z</time><name>PT8651</name></trkpt>
<trkpt lat="52.079065" lon="05.654089"><ele>22.9</ele><time>2022-04-13T13:52:53Z</time><name>PT8652</name></trkpt>
<trkpt lat="52.079055" lon="05.654070"><ele>23</ele><time>2022-04-13T13:52:54Z</time><name>PT8653</name></trkpt>
<trkpt lat="52.079045" lon="05.654046"><ele>22.9</ele><time>2022-04-13T13:52:55Z</time><name>PT8654</name></trkpt>
<trkpt lat="52.079042" lon="05.654036"><ele>22.7</ele><time>2022-04-13T13:52:56Z</time><name>PT8655</name></trkpt>
<trkpt lat="52.079042" lon="05.654021"><ele>22.7</ele><time>2022-04-13T13:52:57Z</time><name>PT8656</name></trkpt>
<trkpt lat="52.079029" lon="05.654001"><ele>22.7</ele><time>2022-04-13T13:52:58Z</time><name>PT8657</name></trkpt>
<trkpt lat="52.079018" lon="05.653983"><ele>22.8</ele><time>2022-04-13T13:52:59Z</time><name>PT8658</name></trkpt>
<trkpt lat="52.079012" lon="05.653965"><ele>22.7</ele><time>2022-04-13T13:53:00Z</time><name>PT8659</name></trkpt>
<trkpt lat="52.079004" lon="05.653954"><ele>22.7</ele><time>2022-04-13T13:53:01Z</time><name>PT8660</name></trkpt>
<trkpt lat="52.078997" lon="05.653942"><ele>22.8</ele><time>2022-04-13T13:53:02Z</time><name>PT8661</name></trkpt>
<trkpt lat="52.078989" lon="05.653926"><ele>22.8</ele><time>2022-04-13T13:53:03Z</time><name>PT8662</name></trkpt>
<trkpt lat="52.078980" lon="05.653912"><ele>22.8</ele><time>2022-04-13T13:53:04Z</time><name>PT8663</name></trkpt>
<trkpt lat="52.078971" lon="05.653890"><ele>22.8</ele><time>2022-04-13T13:53:05Z</time><name>PT8664</name></trkpt>
<trkpt lat="52.078965" lon="05.653873"><ele>22.7</ele><time>2022-04-13T13:53:06Z</time><name>PT8665</name></trkpt>
<trkpt lat="52.078961" lon="05.653863"><ele>22.6</ele><time>2022-04-13T13:53:07Z</time><name>PT8666</name></trkpt>
<trkpt lat="52.078951" lon="05.653854"><ele>22.5</ele><time>2022-04-13T13:53:08Z</time><name>PT8667</name></trkpt>
<trkpt lat="52.078933" lon="05.653837"><ele>22.5</ele><time>2022-04-13T13:53:09Z</time><name>PT8668</name></trkpt>
<trkpt lat="52.078925" lon="05.653821"><ele>22.4</ele><time>2022-04-13T13:53:10Z</time><name>PT8669</name></trkpt>
<trkpt lat="52.078917" lon="05.653806"><ele>22.4</ele><time>2022-04-13T13:53:11Z</time><name>PT8670</name></trkpt>
<trkpt lat="52.078909" lon="05.653793"><ele>22.5</ele><time>2022-04-13T13:53:12Z</time><name>PT8671</name></trkpt>
<trkpt lat="52.078896" lon="05.653786"><ele>22.5</ele><time>2022-04-13T13:53:13Z</time><name>PT8672</name></trkpt>
<trkpt lat="52.078886" lon="05.653770"><ele>22.4</ele><time>2022-04-13T13:53:14Z</time><name>PT8673</name></trkpt>
<trkpt lat="52.078878" lon="05.653749"><ele>22.3</ele><time>2022-04-13T13:53:15Z</time><name>PT8674</name></trkpt>
<trkpt lat="52.078874" lon="05.653736"><ele>22.3</ele><time>2022-04-13T13:53:16Z</time><name>PT8675</name></trkpt>
<trkpt lat="52.078871" lon="05.653724"><ele>22.3</ele><time>2022-04-13T13:53:17Z</time><name>PT8676</name></trkpt>
<trkpt lat="52.078872" lon="05.653716"><ele>22.1</ele><time>2022-04-13T13:53:18Z</time><name>PT8677</name></trkpt>
<trkpt lat="52.078880" lon="05.653691"><ele>22.1</ele><time>2022-04-13T13:53:19Z</time><name>PT8678</name></trkpt>
<trkpt lat="52.078882" lon="05.653678"><ele>22.2</ele><time>2022-04-13T13:53:20Z</time><name>PT8679</name></trkpt>
<trkpt lat="52.078881" lon="05.653665"><ele>22.1</ele><time>2022-04-13T13:53:21Z</time><name>PT8680</name></trkpt>
<trkpt lat="52.078876" lon="05.653651"><ele>22</ele><time>2022-04-13T13:53:22Z</time><name>PT8681</name></trkpt>
<trkpt lat="52.078869" lon="05.653640"><ele>22.1</ele><time>2022-04-13T13:53:23Z</time><name>PT8682</name></trkpt>
<trkpt lat="52.078862" lon="05.653630"><ele>22</ele><time>2022-04-13T13:53:24Z</time><name>PT8683</name></trkpt>
<trkpt lat="52.078855" lon="05.653615"><ele>22</ele><time>2022-04-13T13:53:25Z</time><name>PT8684</name></trkpt>
<trkpt lat="52.078855" lon="05.653596"><ele>22.1</ele><time>2022-04-13T13:53:26Z</time><name>PT8685</name></trkpt>
<trkpt lat="52.078857" lon="05.653583"><ele>22.3</ele><time>2022-04-13T13:53:27Z</time><name>PT8686</name></trkpt>
<trkpt lat="52.078857" lon="05.653572"><ele>22.3</ele><time>2022-04-13T13:53:28Z</time><name>PT8687</name></trkpt>
<trkpt lat="52.078852" lon="05.653565"><ele>22.4</ele><time>2022-04-13T13:53:29Z</time><name>PT8688</name></trkpt>
<trkpt lat="52.078842" lon="05.653553"><ele>22.5</ele><time>2022-04-13T13:53:30Z</time><name>PT8689</name></trkpt>
<trkpt lat="52.078831" lon="05.653532"><ele>22.5</ele><time>2022-04-13T13:53:31Z</time><name>PT8690</name></trkpt>
<trkpt lat="52.078830" lon="05.653519"><ele>22.2</ele><time>2022-04-13T13:53:32Z</time><name>PT8691</name></trkpt>
<trkpt lat="52.078831" lon="05.653504"><ele>22.2</ele><time>2022-04-13T13:53:33Z</time><name>PT8692</name></trkpt>
<trkpt lat="52.078828" lon="05.653498"><ele>22.4</ele><time>2022-04-13T13:53:34Z</time><name>PT8693</name></trkpt>
<trkpt lat="52.078831" lon="05.653479"><ele>22.2</ele><time>2022-04-13T13:53:35Z</time><name>PT8694</name></trkpt>
<trkpt lat="52.078829" lon="05.653456"><ele>22</ele><time>2022-04-13T13:53:36Z</time><name>PT8695</name></trkpt>
<trkpt lat="52.078829" lon="05.653438"><ele>22</ele><time>2022-04-13T13:53:37Z</time><name>PT8696</name></trkpt>
<trkpt lat="52.078828" lon="05.653428"><ele>21.9</ele><time>2022-04-13T13:53:38Z</time><name>PT8697</name></trkpt>
<trkpt lat="52.078827" lon="05.653421"><ele>21.6</ele><time>2022-04-13T13:53:39Z</time><name>PT8698</name></trkpt>
<trkpt lat="52.078819" lon="05.653410"><ele>21.6</ele><time>2022-04-13T13:53:40Z</time><name>PT8699</name></trkpt>
<trkpt lat="52.078814" lon="05.653395"><ele>21.8</ele><time>2022-04-13T13:53:41Z</time><name>PT8700</name></trkpt>
<trkpt lat="52.078808" lon="05.653376"><ele>21.9</ele><time>2022-04-13T13:53:42Z</time><name>PT8701</name></trkpt>
<trkpt lat="52.078806" lon="05.653361"><ele>21.8</ele><time>2022-04-13T13:53:43Z</time><name>PT8702</name></trkpt>
<trkpt lat="52.078805" lon="05.653343"><ele>22</ele><time>2022-04-13T13:53:44Z</time><name>PT8703</name></trkpt>
<trkpt lat="52.078795" lon="05.653327"><ele>21.8</ele><time>2022-04-13T13:53:45Z</time><name>PT8704</name></trkpt>
<trkpt lat="52.078789" lon="05.653302"><ele>21.8</ele><time>2022-04-13T13:53:46Z</time><name>PT8705</name></trkpt>
<trkpt lat="52.078791" lon="05.653282"><ele>21.6</ele><time>2022-04-13T13:53:47Z</time><name>PT8706</name></trkpt>
<trkpt lat="52.078790" lon="05.653267"><ele>21.6</ele><time>2022-04-13T13:53:48Z</time><name>PT8707</name></trkpt>
<trkpt lat="52.078791" lon="05.653257"><ele>21.5</ele><time>2022-04-13T13:53:49Z</time><name>PT8708</name></trkpt>
<trkpt lat="52.078786" lon="05.653245"><ele>21.6</ele><time>2022-04-13T13:53:50Z</time><name>PT8709</name></trkpt>
<trkpt lat="52.078780" lon="05.653229"><ele>21.6</ele><time>2022-04-13T13:53:51Z</time><name>PT8710</name></trkpt>
<trkpt lat="52.078775" lon="05.653207"><ele>21.7</ele><time>2022-04-13T13:53:52Z</time><name>PT8711</name></trkpt>
<trkpt lat="52.078775" lon="05.653191"><ele>21.8</ele><time>2022-04-13T13:53:53Z</time><name>PT8712</name></trkpt>
<trkpt lat="52.078772" lon="05.653180"><ele>21.7</ele><time>2022-04-13T13:53:54Z</time><name>PT8713</name></trkpt>
<trkpt lat="52.078771" lon="05.653169"><ele>21.7</ele><time>2022-04-13T13:53:55Z</time><name>PT8714</name></trkpt>
<trkpt lat="52.078763" lon="05.653150"><ele>21.9</ele><time>2022-04-13T13:53:56Z</time><name>PT8715</name></trkpt>
<trkpt lat="52.078754" lon="05.653130"><ele>21.7</ele><time>2022-04-13T13:53:57Z</time><name>PT8716</name></trkpt>
<trkpt lat="52.078747" lon="05.653112"><ele>21.6</ele><time>2022-04-13T13:53:58Z</time><name>PT8717</name></trkpt>
<trkpt lat="52.078745" lon="05.653097"><ele>21.5</ele><time>2022-04-13T13:53:59Z</time><name>PT8718</name></trkpt>
<trkpt lat="52.078741" lon="05.653086"><ele>21.6</ele><time>2022-04-13T13:54:00Z</time><name>PT8719</name></trkpt>
<trkpt lat="52.078735" lon="05.653079"><ele>21.5</ele><time>2022-04-13T13:54:01Z</time><name>PT8720</name></trkpt>
<trkpt lat="52.078728" lon="05.653068"><ele>21.6</ele><time>2022-04-13T13:54:02Z</time><name>PT8721</name></trkpt>
<trkpt lat="52.078719" lon="05.653048"><ele>21.6</ele><time>2022-04-13T13:54:03Z</time><name>PT8722</name></trkpt>
<trkpt lat="52.078716" lon="05.653029"><ele>21.7</ele><time>2022-04-13T13:54:04Z</time><name>PT8723</name></trkpt>
<trkpt lat="52.078714" lon="05.653012"><ele>21.8</ele><time>2022-04-13T13:54:05Z</time><name>PT8724</name></trkpt>
<trkpt lat="52.078706" lon="05.653001"><ele>21.7</ele><time>2022-04-13T13:54:06Z</time><name>PT8725</name></trkpt>
<trkpt lat="52.078702" lon="05.652993"><ele>21.7</ele><time>2022-04-13T13:54:07Z</time><name>PT8726</name></trkpt>
<trkpt lat="52.078688" lon="05.652977"><ele>21.6</ele><time>2022-04-13T13:54:08Z</time><name>PT8727</name></trkpt>
<trkpt lat="52.078684" lon="05.652949"><ele>21.6</ele><time>2022-04-13T13:54:09Z</time><name>PT8728</name></trkpt>
<trkpt lat="52.078678" lon="05.652929"><ele>21.4</ele><time>2022-04-13T13:54:10Z</time><name>PT8729</name></trkpt>
<trkpt lat="52.078676" lon="05.652920"><ele>21.3</ele><time>2022-04-13T13:54:11Z</time><name>PT8730</name></trkpt>
<trkpt lat="52.078672" lon="05.652913"><ele>21.1</ele><time>2022-04-13T13:54:12Z</time><name>PT8731</name></trkpt>
<trkpt lat="52.078666" lon="05.652902"><ele>21.1</ele><time>2022-04-13T13:54:13Z</time><name>PT8732</name></trkpt>
<trkpt lat="52.078662" lon="05.652887"><ele>21.2</ele><time>2022-04-13T13:54:14Z</time><name>PT8733</name></trkpt>
<trkpt lat="52.078658" lon="05.652873"><ele>21.3</ele><time>2022-04-13T13:54:15Z</time><name>PT8734</name></trkpt>
<trkpt lat="52.078655" lon="05.652869"><ele>21.3</ele><time>2022-04-13T13:54:16Z</time><name>PT8735</name></trkpt>
<trkpt lat="52.078648" lon="05.652861"><ele>21.4</ele><time>2022-04-13T13:54:17Z</time><name>PT8736</name></trkpt>
<trkpt lat="52.078633" lon="05.652843"><ele>21.3</ele><time>2022-04-13T13:54:18Z</time><name>PT8737</name></trkpt>
<trkpt lat="52.078625" lon="05.652817"><ele>21.3</ele><time>2022-04-13T13:54:19Z</time><name>PT8738</name></trkpt>
<trkpt lat="52.078621" lon="05.652789"><ele>21.2</ele><time>2022-04-13T13:54:20Z</time><name>PT8739</name></trkpt>
<trkpt lat="52.078616" lon="05.652775"><ele>21.1</ele><time>2022-04-13T13:54:21Z</time><name>PT8740</name></trkpt>
<trkpt lat="52.078607" lon="05.652763"><ele>21.1</ele><time>2022-04-13T13:54:22Z</time><name>PT8741</name></trkpt>
<trkpt lat="52.078604" lon="05.652755"><ele>21.3</ele><time>2022-04-13T13:54:23Z</time><name>PT8742</name></trkpt>
<trkpt lat="52.078599" lon="05.652733"><ele>21.3</ele><time>2022-04-13T13:54:24Z</time><name>PT8743</name></trkpt>
<trkpt lat="52.078592" lon="05.652714"><ele>21.3</ele><time>2022-04-13T13:54:25Z</time><name>PT8744</name></trkpt>
<trkpt lat="52.078593" lon="05.652701"><ele>21.3</ele><time>2022-04-13T13:54:26Z</time><name>PT8745</name></trkpt>
<trkpt lat="52.078587" lon="05.652686"><ele>21.2</ele><time>2022-04-13T13:54:27Z</time><name>PT8746</name></trkpt>
<trkpt lat="52.078583" lon="05.652676"><ele>21.2</ele><time>2022-04-13T13:54:28Z</time><name>PT8747</name></trkpt>
<trkpt lat="52.078573" lon="05.652658"><ele>21.2</ele><time>2022-04-13T13:54:29Z</time><name>PT8748</name></trkpt>
<trkpt lat="52.078566" lon="05.652636"><ele>21.3</ele><time>2022-04-13T13:54:30Z</time><name>PT8749</name></trkpt>
<trkpt lat="52.078564" lon="05.652620"><ele>21.3</ele><time>2022-04-13T13:54:31Z</time><name>PT8750</name></trkpt>
<trkpt lat="52.078561" lon="05.652602"><ele>21.3</ele><time>2022-04-13T13:54:32Z</time><name>PT8751</name></trkpt>
<trkpt lat="52.078553" lon="05.652591"><ele>21.3</ele><time>2022-04-13T13:54:33Z</time><name>PT8752</name></trkpt>
<trkpt lat="52.078545" lon="05.652582"><ele>21.3</ele><time>2022-04-13T13:54:34Z</time><name>PT8753</name></trkpt>
<trkpt lat="52.078544" lon="05.652560"><ele>21.2</ele><time>2022-04-13T13:54:35Z</time><name>PT8754</name></trkpt>
<trkpt lat="52.078542" lon="05.652539"><ele>21</ele><time>2022-04-13T13:54:36Z</time><name>PT8755</name></trkpt>
<trkpt lat="52.078539" lon="05.652519"><ele>21</ele><time>2022-04-13T13:54:37Z</time><name>PT8756</name></trkpt>
<trkpt lat="52.078536" lon="05.652503"><ele>20.9</ele><time>2022-04-13T13:54:38Z</time><name>PT8757</name></trkpt>
<trkpt lat="52.078533" lon="05.652495"><ele>20.8</ele><time>2022-04-13T13:54:39Z</time><name>PT8758</name></trkpt>
<trkpt lat="52.078532" lon="05.652481"><ele>20.7</ele><time>2022-04-13T13:54:40Z</time><name>PT8759</name></trkpt>
<trkpt lat="52.078531" lon="05.652467"><ele>20.7</ele><time>2022-04-13T13:54:41Z</time><name>PT8760</name></trkpt>
<trkpt lat="52.078526" lon="05.652454"><ele>20.7</ele><time>2022-04-13T13:54:42Z</time><name>PT8761</name></trkpt>
<trkpt lat="52.078518" lon="05.652438"><ele>20.7</ele><time>2022-04-13T13:54:43Z</time><name>PT8762</name></trkpt>
<trkpt lat="52.078514" lon="05.652426"><ele>20.7</ele><time>2022-04-13T13:54:44Z</time><name>PT8763</name></trkpt>
<trkpt lat="52.078511" lon="05.652403"><ele>20.6</ele><time>2022-04-13T13:54:45Z</time><name>PT8764</name></trkpt>
<trkpt lat="52.078508" lon="05.652380"><ele>20.7</ele><time>2022-04-13T13:54:46Z</time><name>PT8765</name></trkpt>
<trkpt lat="52.078504" lon="05.652358"><ele>20.9</ele><time>2022-04-13T13:54:47Z</time><name>PT8766</name></trkpt>
<trkpt lat="52.078499" lon="05.652340"><ele>20.8</ele><time>2022-04-13T13:54:48Z</time><name>PT8767</name></trkpt>
<trkpt lat="52.078498" lon="05.652331"><ele>20.8</ele><time>2022-04-13T13:54:49Z</time><name>PT8768</name></trkpt>
<trkpt lat="52.078480" lon="05.652318"><ele>20.8</ele><time>2022-04-13T13:54:50Z</time><name>PT8769</name></trkpt>
<trkpt lat="52.078470" lon="05.652297"><ele>20.6</ele><time>2022-04-13T13:54:51Z</time><name>PT8770</name></trkpt>
<trkpt lat="52.078463" lon="05.652272"><ele>20.6</ele><time>2022-04-13T13:54:52Z</time><name>PT8771</name></trkpt>
<trkpt lat="52.078463" lon="05.652258"><ele>20.6</ele><time>2022-04-13T13:54:53Z</time><name>PT8772</name></trkpt>
<trkpt lat="52.078465" lon="05.652241"><ele>20.5</ele><time>2022-04-13T13:54:54Z</time><name>PT8773</name></trkpt>
<trkpt lat="52.078462" lon="05.652232"><ele>20.5</ele><time>2022-04-13T13:54:55Z</time><name>PT8774</name></trkpt>
<trkpt lat="52.078454" lon="05.652214"><ele>20.6</ele><time>2022-04-13T13:54:56Z</time><name>PT8775</name></trkpt>
<trkpt lat="52.078447" lon="05.652197"><ele>20.6</ele><time>2022-04-13T13:54:57Z</time><name>PT8776</name></trkpt>
<trkpt lat="52.078442" lon="05.652186"><ele>20.5</ele><time>2022-04-13T13:54:58Z</time><name>PT8777</name></trkpt>
<trkpt lat="52.078441" lon="05.652173"><ele>20.6</ele><time>2022-04-13T13:54:59Z</time><name>PT8778</name></trkpt>
<trkpt lat="52.078435" lon="05.652162"><ele>20.6</ele><time>2022-04-13T13:55:00Z</time><name>PT8779</name></trkpt>
<trkpt lat="52.078430" lon="05.652152"><ele>20.7</ele><time>2022-04-13T13:55:01Z</time><name>PT8780</name></trkpt>
<trkpt lat="52.078424" lon="05.652131"><ele>20.8</ele><time>2022-04-13T13:55:02Z</time><name>PT8781</name></trkpt>
<trkpt lat="52.078422" lon="05.652115"><ele>20.7</ele><time>2022-04-13T13:55:03Z</time><name>PT8782</name></trkpt>
<trkpt lat="52.078417" lon="05.652105"><ele>20.8</ele><time>2022-04-13T13:55:04Z</time><name>PT8783</name></trkpt>
<trkpt lat="52.078416" lon="05.652093"><ele>20.5</ele><time>2022-04-13T13:55:05Z</time><name>PT8784</name></trkpt>
<trkpt lat="52.078411" lon="05.652080"><ele>20.1</ele><time>2022-04-13T13:55:06Z</time><name>PT8785</name></trkpt>
<trkpt lat="52.078410" lon="05.652064"><ele>20.2</ele><time>2022-04-13T13:55:07Z</time><name>PT8786</name></trkpt>
<trkpt lat="52.078405" lon="05.652044"><ele>20.2</ele><time>2022-04-13T13:55:08Z</time><name>PT8787</name></trkpt>
<trkpt lat="52.078401" lon="05.652032"><ele>20.4</ele><time>2022-04-13T13:55:09Z</time><name>PT8788</name></trkpt>
<trkpt lat="52.078401" lon="05.652024"><ele>20.5</ele><time>2022-04-13T13:55:10Z</time><name>PT8789</name></trkpt>
<trkpt lat="52.078396" lon="05.652011"><ele>20.5</ele><time>2022-04-13T13:55:11Z</time><name>PT8790</name></trkpt>
<trkpt lat="52.078393" lon="05.651993"><ele>20.6</ele><time>2022-04-13T13:55:12Z</time><name>PT8791</name></trkpt>
<trkpt lat="52.078393" lon="05.651978"><ele>20.6</ele><time>2022-04-13T13:55:13Z</time><name>PT8792</name></trkpt>
<trkpt lat="52.078388" lon="05.651967"><ele>20.3</ele><time>2022-04-13T13:55:14Z</time><name>PT8793</name></trkpt>
<trkpt lat="52.078384" lon="05.651956"><ele>20.5</ele><time>2022-04-13T13:55:15Z</time><name>PT8794</name></trkpt>
<trkpt lat="52.078378" lon="05.651942"><ele>20.5</ele><time>2022-04-13T13:55:16Z</time><name>PT8795</name></trkpt>
<trkpt lat="52.078380" lon="05.651928"><ele>20.3</ele><time>2022-04-13T13:55:17Z</time><name>PT8796</name></trkpt>
<trkpt lat="52.078381" lon="05.651910"><ele>20.3</ele><time>2022-04-13T13:55:18Z</time><name>PT8797</name></trkpt>
<trkpt lat="52.078374" lon="05.651896"><ele>20.3</ele><time>2022-04-13T13:55:19Z</time><name>PT8798</name></trkpt>
<trkpt lat="52.078367" lon="05.651884"><ele>20.3</ele><time>2022-04-13T13:55:20Z</time><name>PT8799</name></trkpt>
<trkpt lat="52.078359" lon="05.651872"><ele>20.3</ele><time>2022-04-13T13:55:21Z</time><name>PT8800</name></trkpt>
<trkpt lat="52.078352" lon="05.651850"><ele>20.3</ele><time>2022-04-13T13:55:22Z</time><name>PT8801</name></trkpt>
<trkpt lat="52.078347" lon="05.651832"><ele>20.3</ele><time>2022-04-13T13:55:23Z</time><name>PT8802</name></trkpt>
<trkpt lat="52.078336" lon="05.651820"><ele>20.5</ele><time>2022-04-13T13:55:24Z</time><name>PT8803</name></trkpt>
<trkpt lat="52.078327" lon="05.651807"><ele>20.4</ele><time>2022-04-13T13:55:25Z</time><name>PT8804</name></trkpt>
<trkpt lat="52.078316" lon="05.651791"><ele>20.5</ele><time>2022-04-13T13:55:26Z</time><name>PT8805</name></trkpt>
<trkpt lat="52.078312" lon="05.651778"><ele>20.4</ele><time>2022-04-13T13:55:27Z</time><name>PT8806</name></trkpt>
<trkpt lat="52.078305" lon="05.651760"><ele>20.4</ele><time>2022-04-13T13:55:28Z</time><name>PT8807</name></trkpt>
<trkpt lat="52.078302" lon="05.651747"><ele>20.3</ele><time>2022-04-13T13:55:29Z</time><name>PT8808</name></trkpt>
<trkpt lat="52.078297" lon="05.651733"><ele>20.2</ele><time>2022-04-13T13:55:30Z</time><name>PT8809</name></trkpt>
<trkpt lat="52.078295" lon="05.651704"><ele>20.1</ele><time>2022-04-13T13:55:31Z</time><name>PT8810</name></trkpt>
<trkpt lat="52.078302" lon="05.651686"><ele>20.1</ele><time>2022-04-13T13:55:32Z</time><name>PT8811</name></trkpt>
<trkpt lat="52.078300" lon="05.651663"><ele>20</ele><time>2022-04-13T13:55:33Z</time><name>PT8812</name></trkpt>
<trkpt lat="52.078298" lon="05.651652"><ele>20</ele><time>2022-04-13T13:55:34Z</time><name>PT8813</name></trkpt>
<trkpt lat="52.078297" lon="05.651646"><ele>19.9</ele><time>2022-04-13T13:55:35Z</time><name>PT8814</name></trkpt>
<trkpt lat="52.078288" lon="05.651630"><ele>20</ele><time>2022-04-13T13:55:36Z</time><name>PT8815</name></trkpt>
<trkpt lat="52.078268" lon="05.651613"><ele>20.1</ele><time>2022-04-13T13:55:37Z</time><name>PT8816</name></trkpt>
<trkpt lat="52.078252" lon="05.651604"><ele>20.1</ele><time>2022-04-13T13:55:38Z</time><name>PT8817</name></trkpt>
<trkpt lat="52.078247" lon="05.651577"><ele>20.1</ele><time>2022-04-13T13:55:39Z</time><name>PT8818</name></trkpt>
<trkpt lat="52.078235" lon="05.651554"><ele>20.1</ele><time>2022-04-13T13:55:40Z</time><name>PT8819</name></trkpt>
<trkpt lat="52.078229" lon="05.651543"><ele>20</ele><time>2022-04-13T13:55:41Z</time><name>PT8820</name></trkpt>
<trkpt lat="52.078220" lon="05.651528"><ele>19.8</ele><time>2022-04-13T13:55:42Z</time><name>PT8821</name></trkpt>
<trkpt lat="52.078216" lon="05.651506"><ele>19.8</ele><time>2022-04-13T13:55:43Z</time><name>PT8822</name></trkpt>
<trkpt lat="52.078213" lon="05.651484"><ele>20</ele><time>2022-04-13T13:55:44Z</time><name>PT8823</name></trkpt>
<trkpt lat="52.078207" lon="05.651467"><ele>20</ele><time>2022-04-13T13:55:45Z</time><name>PT8824</name></trkpt>
<trkpt lat="52.078204" lon="05.651457"><ele>20</ele><time>2022-04-13T13:55:46Z</time><name>PT8825</name></trkpt>
<trkpt lat="52.078192" lon="05.651442"><ele>19.9</ele><time>2022-04-13T13:55:47Z</time><name>PT8826</name></trkpt>
<trkpt lat="52.078188" lon="05.651432"><ele>19.8</ele><time>2022-04-13T13:55:48Z</time><name>PT8827</name></trkpt>
<trkpt lat="52.078179" lon="05.651410"><ele>19.7</ele><time>2022-04-13T13:55:49Z</time><name>PT8828</name></trkpt>
<trkpt lat="52.078175" lon="05.651390"><ele>19.7</ele><time>2022-04-13T13:55:50Z</time><name>PT8829</name></trkpt>
<trkpt lat="52.078170" lon="05.651371"><ele>19.8</ele><time>2022-04-13T13:55:51Z</time><name>PT8830</name></trkpt>
<trkpt lat="52.078153" lon="05.651367"><ele>20</ele><time>2022-04-13T13:55:52Z</time><name>PT8831</name></trkpt>
<trkpt lat="52.078151" lon="05.651356"><ele>20.1</ele><time>2022-04-13T13:55:53Z</time><name>PT8832</name></trkpt>
<trkpt lat="52.078148" lon="05.651343"><ele>20.1</ele><time>2022-04-13T13:55:54Z</time><name>PT8833</name></trkpt>
<trkpt lat="52.078138" lon="05.651328"><ele>20.1</ele><time>2022-04-13T13:55:55Z</time><name>PT8834</name></trkpt>
<trkpt lat="52.078139" lon="05.651318"><ele>20.1</ele><time>2022-04-13T13:55:56Z</time><name>PT8835</name></trkpt>
<trkpt lat="52.078141" lon="05.651308"><ele>20</ele><time>2022-04-13T13:55:57Z</time><name>PT8836</name></trkpt>
<trkpt lat="52.078139" lon="05.651297"><ele>19.9</ele><time>2022-04-13T13:55:58Z</time><name>PT8837</name></trkpt>
<trkpt lat="52.078132" lon="05.651285"><ele>19.9</ele><time>2022-04-13T13:55:59Z</time><name>PT8838</name></trkpt>
<trkpt lat="52.078128" lon="05.651275"><ele>19.8</ele><time>2022-04-13T13:56:00Z</time><name>PT8839</name></trkpt>
<trkpt lat="52.078121" lon="05.651256"><ele>19.8</ele><time>2022-04-13T13:56:01Z</time><name>PT8840</name></trkpt>
<trkpt lat="52.078110" lon="05.651224"><ele>19.8</ele><time>2022-04-13T13:56:02Z</time><name>PT8841</name></trkpt>
<trkpt lat="52.078095" lon="05.651200"><ele>20</ele><time>2022-04-13T13:56:03Z</time><name>PT8842</name></trkpt>
<trkpt lat="52.078095" lon="05.651184"><ele>20</ele><time>2022-04-13T13:56:04Z</time><name>PT8843</name></trkpt>
<trkpt lat="52.078101" lon="05.651167"><ele>20.1</ele><time>2022-04-13T13:56:05Z</time><name>PT8844</name></trkpt>
<trkpt lat="52.078099" lon="05.651158"><ele>19.9</ele><time>2022-04-13T13:56:06Z</time><name>PT8845</name></trkpt>
<trkpt lat="52.078097" lon="05.651148"><ele>20</ele><time>2022-04-13T13:56:07Z</time><name>PT8846</name></trkpt>
<trkpt lat="52.078095" lon="05.651130"><ele>19.8</ele><time>2022-04-13T13:56:08Z</time><name>PT8847</name></trkpt>
<trkpt lat="52.078093" lon="05.651112"><ele>19.7</ele><time>2022-04-13T13:56:09Z</time><name>PT8848</name></trkpt>
<trkpt lat="52.078091" lon="05.651099"><ele>19.6</ele><time>2022-04-13T13:56:10Z</time><name>PT8849</name></trkpt>
<trkpt lat="52.078092" lon="05.651091"><ele>19.6</ele><time>2022-04-13T13:56:11Z</time><name>PT8850</name></trkpt>
<trkpt lat="52.078092" lon="05.651083"><ele>19.6</ele><time>2022-04-13T13:56:12Z</time><name>PT8851</name></trkpt>
<trkpt lat="52.078084" lon="05.651072"><ele>19.4</ele><time>2022-04-13T13:56:13Z</time><name>PT8852</name></trkpt>
<trkpt lat="52.078082" lon="05.651062"><ele>19.6</ele><time>2022-04-13T13:56:14Z</time><name>PT8853</name></trkpt>
<trkpt lat="52.078080" lon="05.651048"><ele>19.5</ele><time>2022-04-13T13:56:15Z</time><name>PT8854</name></trkpt>
<trkpt lat="52.078079" lon="05.651033"><ele>19.5</ele><time>2022-04-13T13:56:16Z</time><name>PT8855</name></trkpt>
<trkpt lat="52.078076" lon="05.651022"><ele>19.6</ele><time>2022-04-13T13:56:17Z</time><name>PT8856</name></trkpt>
<trkpt lat="52.078072" lon="05.651011"><ele>19.7</ele><time>2022-04-13T13:56:18Z</time><name>PT8857</name></trkpt>
<trkpt lat="52.078067" lon="05.651000"><ele>19.7</ele><time>2022-04-13T13:56:19Z</time><name>PT8858</name></trkpt>
<trkpt lat="52.078059" lon="05.650980"><ele>19.7</ele><time>2022-04-13T13:56:20Z</time><name>PT8859</name></trkpt>
<trkpt lat="52.078054" lon="05.650964"><ele>19.7</ele><time>2022-04-13T13:56:21Z</time><name>PT8860</name></trkpt>
<trkpt lat="52.078050" lon="05.650952"><ele>19.7</ele><time>2022-04-13T13:56:22Z</time><name>PT8861</name></trkpt>
<trkpt lat="52.078045" lon="05.650942"><ele>19.5</ele><time>2022-04-13T13:56:23Z</time><name>PT8862</name></trkpt>
<trkpt lat="52.078034" lon="05.650925"><ele>19.6</ele><time>2022-04-13T13:56:24Z</time><name>PT8863</name></trkpt>
<trkpt lat="52.078027" lon="05.650903"><ele>19.6</ele><time>2022-04-13T13:56:25Z</time><name>PT8864</name></trkpt>
<trkpt lat="52.078018" lon="05.650887"><ele>19.5</ele><time>2022-04-13T13:56:26Z</time><name>PT8865</name></trkpt>
<trkpt lat="52.078016" lon="05.650874"><ele>19.6</ele><time>2022-04-13T13:56:27Z</time><name>PT8866</name></trkpt>
<trkpt lat="52.078011" lon="05.650861"><ele>19.6</ele><time>2022-04-13T13:56:28Z</time><name>PT8867</name></trkpt>
<trkpt lat="52.078001" lon="05.650846"><ele>19.5</ele><time>2022-04-13T13:56:29Z</time><name>PT8868</name></trkpt>
<trkpt lat="52.077989" lon="05.650832"><ele>19.5</ele><time>2022-04-13T13:56:30Z</time><name>PT8869</name></trkpt>
<trkpt lat="52.077980" lon="05.650819"><ele>19.5</ele><time>2022-04-13T13:56:31Z</time><name>PT8870</name></trkpt>
<trkpt lat="52.077973" lon="05.650801"><ele>19.6</ele><time>2022-04-13T13:56:32Z</time><name>PT8871</name></trkpt>
<trkpt lat="52.077966" lon="05.650795"><ele>19.4</ele><time>2022-04-13T13:56:33Z</time><name>PT8872</name></trkpt>
<trkpt lat="52.077953" lon="05.650787"><ele>19.4</ele><time>2022-04-13T13:56:34Z</time><name>PT8873</name></trkpt>
<trkpt lat="52.077948" lon="05.650770"><ele>19.3</ele><time>2022-04-13T13:56:35Z</time><name>PT8874</name></trkpt>
<trkpt lat="52.077943" lon="05.650755"><ele>19.2</ele><time>2022-04-13T13:56:36Z</time><name>PT8875</name></trkpt>
<trkpt lat="52.077938" lon="05.650741"><ele>19.2</ele><time>2022-04-13T13:56:37Z</time><name>PT8876</name></trkpt>
<trkpt lat="52.077936" lon="05.650729"><ele>19.1</ele><time>2022-04-13T13:56:38Z</time><name>PT8877</name></trkpt>
<trkpt lat="52.077932" lon="05.650709"><ele>19.2</ele><time>2022-04-13T13:56:39Z</time><name>PT8878</name></trkpt>
<trkpt lat="52.077917" lon="05.650681"><ele>19.1</ele><time>2022-04-13T13:56:40Z</time><name>PT8879</name></trkpt>
<trkpt lat="52.077906" lon="05.650663"><ele>19.2</ele><time>2022-04-13T13:56:41Z</time><name>PT8880</name></trkpt>
<trkpt lat="52.077900" lon="05.650644"><ele>19.2</ele><time>2022-04-13T13:56:42Z</time><name>PT8881</name></trkpt>
<trkpt lat="52.077892" lon="05.650629"><ele>19.2</ele><time>2022-04-13T13:56:43Z</time><name>PT8882</name></trkpt>
<trkpt lat="52.077883" lon="05.650617"><ele>19.4</ele><time>2022-04-13T13:56:44Z</time><name>PT8883</name></trkpt>
<trkpt lat="52.077875" lon="05.650604"><ele>19.3</ele><time>2022-04-13T13:56:45Z</time><name>PT8884</name></trkpt>
<trkpt lat="52.077863" lon="05.650586"><ele>19.2</ele><time>2022-04-13T13:56:46Z</time><name>PT8885</name></trkpt>
<trkpt lat="52.077855" lon="05.650566"><ele>19.2</ele><time>2022-04-13T13:56:47Z</time><name>PT8886</name></trkpt>
<trkpt lat="52.077847" lon="05.650549"><ele>18.9</ele><time>2022-04-13T13:56:48Z</time><name>PT8887</name></trkpt>
<trkpt lat="52.077839" lon="05.650539"><ele>18.8</ele><time>2022-04-13T13:56:49Z</time><name>PT8888</name></trkpt>
<trkpt lat="52.077836" lon="05.650535"><ele>18.8</ele><time>2022-04-13T13:56:50Z</time><name>PT8889</name></trkpt>
<trkpt lat="52.077822" lon="05.650525"><ele>18.9</ele><time>2022-04-13T13:56:51Z</time><name>PT8890</name></trkpt>
<trkpt lat="52.077811" lon="05.650505"><ele>18.8</ele><time>2022-04-13T13:56:52Z</time><name>PT8891</name></trkpt>
<trkpt lat="52.077805" lon="05.650487"><ele>19</ele><time>2022-04-13T13:56:53Z</time><name>PT8892</name></trkpt>
<trkpt lat="52.077796" lon="05.650470"><ele>19.1</ele><time>2022-04-13T13:56:54Z</time><name>PT8893</name></trkpt>
<trkpt lat="52.077790" lon="05.650459"><ele>19.1</ele><time>2022-04-13T13:56:55Z</time><name>PT8894</name></trkpt>
<trkpt lat="52.077784" lon="05.650447"><ele>19</ele><time>2022-04-13T13:56:56Z</time><name>PT8895</name></trkpt>
<trkpt lat="52.077774" lon="05.650440"><ele>18.8</ele><time>2022-04-13T13:56:57Z</time><name>PT8896</name></trkpt>
<trkpt lat="52.077769" lon="05.650423"><ele>18.7</ele><time>2022-04-13T13:56:58Z</time><name>PT8897</name></trkpt>
<trkpt lat="52.077761" lon="05.650404"><ele>18.7</ele><time>2022-04-13T13:56:59Z</time><name>PT8898</name></trkpt>
<trkpt lat="52.077755" lon="05.650392"><ele>18.6</ele><time>2022-04-13T13:57:00Z</time><name>PT8899</name></trkpt>
<trkpt lat="52.077750" lon="05.650385"><ele>18.5</ele><time>2022-04-13T13:57:01Z</time><name>PT8900</name></trkpt>
<trkpt lat="52.077739" lon="05.650379"><ele>18.6</ele><time>2022-04-13T13:57:02Z</time><name>PT8901</name></trkpt>
<trkpt lat="52.077722" lon="05.650364"><ele>18.7</ele><time>2022-04-13T13:57:03Z</time><name>PT8902</name></trkpt>
<trkpt lat="52.077721" lon="05.650351"><ele>18.7</ele><time>2022-04-13T13:57:04Z</time><name>PT8903</name></trkpt>
<trkpt lat="52.077721" lon="05.650347"><ele>18.7</ele><time>2022-04-13T13:57:05Z</time><name>PT8904</name></trkpt>
<trkpt lat="52.077719" lon="05.650341"><ele>18.8</ele><time>2022-04-13T13:57:06Z</time><name>PT8905</name></trkpt>
<trkpt lat="52.077711" lon="05.650334"><ele>18.8</ele><time>2022-04-13T13:57:07Z</time><name>PT8906</name></trkpt>
<trkpt lat="52.077696" lon="05.650316"><ele>18.7</ele><time>2022-04-13T13:57:08Z</time><name>PT8907</name></trkpt>
<trkpt lat="52.077683" lon="05.650304"><ele>18.7</ele><time>2022-04-13T13:57:09Z</time><name>PT8908</name></trkpt>
<trkpt lat="52.077674" lon="05.650288"><ele>18.5</ele><time>2022-04-13T13:57:10Z</time><name>PT8909</name></trkpt>
<trkpt lat="52.077671" lon="05.650276"><ele>18.8</ele><time>2022-04-13T13:57:11Z</time><name>PT8910</name></trkpt>
<trkpt lat="52.077667" lon="05.650270"><ele>18.7</ele><time>2022-04-13T13:57:12Z</time><name>PT8911</name></trkpt>
<trkpt lat="52.077660" lon="05.650257"><ele>18.7</ele><time>2022-04-13T13:57:13Z</time><name>PT8912</name></trkpt>
<trkpt lat="52.077649" lon="05.650242"><ele>18.7</ele><time>2022-04-13T13:57:14Z</time><name>PT8913</name></trkpt>
<trkpt lat="52.077641" lon="05.650225"><ele>18.7</ele><time>2022-04-13T13:57:15Z</time><name>PT8914</name></trkpt>
<trkpt lat="52.077635" lon="05.650211"><ele>18.6</ele><time>2022-04-13T13:57:16Z</time><name>PT8915</name></trkpt>
<trkpt lat="52.077627" lon="05.650204"><ele>18.7</ele><time>2022-04-13T13:57:17Z</time><name>PT8916</name></trkpt>
<trkpt lat="52.077620" lon="05.650201"><ele>18.6</ele><time>2022-04-13T13:57:18Z</time><name>PT8917</name></trkpt>
<trkpt lat="52.077610" lon="05.650187"><ele>18.6</ele><time>2022-04-13T13:57:19Z</time><name>PT8918</name></trkpt>
<trkpt lat="52.077606" lon="05.650169"><ele>18.6</ele><time>2022-04-13T13:57:20Z</time><name>PT8919</name></trkpt>
<trkpt lat="52.077603" lon="05.650149"><ele>18.7</ele><time>2022-04-13T13:57:21Z</time><name>PT8920</name></trkpt>
<trkpt lat="52.077594" lon="05.650139"><ele>18.6</ele><time>2022-04-13T13:57:22Z</time><name>PT8921</name></trkpt>
<trkpt lat="52.077586" lon="05.650127"><ele>18.5</ele><time>2022-04-13T13:57:23Z</time><name>PT8922</name></trkpt>
<trkpt lat="52.077579" lon="05.650122"><ele>18.4</ele><time>2022-04-13T13:57:24Z</time><name>PT8923</name></trkpt>
<trkpt lat="52.077570" lon="05.650111"><ele>18.4</ele><time>2022-04-13T13:57:25Z</time><name>PT8924</name></trkpt>
<trkpt lat="52.077561" lon="05.650094"><ele>18.4</ele><time>2022-04-13T13:57:26Z</time><name>PT8925</name></trkpt>
<trkpt lat="52.077550" lon="05.650074"><ele>18.3</ele><time>2022-04-13T13:57:27Z</time><name>PT8926</name></trkpt>
<trkpt lat="52.077545" lon="05.650058"><ele>18.3</ele><time>2022-04-13T13:57:28Z</time><name>PT8927</name></trkpt>
<trkpt lat="52.077542" lon="05.650047"><ele>18.2</ele><time>2022-04-13T13:57:29Z</time><name>PT8928</name></trkpt>
<trkpt lat="52.077536" lon="05.650042"><ele>18.3</ele><time>2022-04-13T13:57:30Z</time><name>PT8929</name></trkpt>
<trkpt lat="52.077519" lon="05.650039"><ele>18.2</ele><time>2022-04-13T13:57:31Z</time><name>PT8930</name></trkpt>
<trkpt lat="52.077510" lon="05.650020"><ele>18.2</ele><time>2022-04-13T13:57:32Z</time><name>PT8931</name></trkpt>
<trkpt lat="52.077509" lon="05.650002"><ele>18.3</ele><time>2022-04-13T13:57:33Z</time><name>PT8932</name></trkpt>
<trkpt lat="52.077503" lon="05.649987"><ele>18.2</ele><time>2022-04-13T13:57:34Z</time><name>PT8933</name></trkpt>
<trkpt lat="52.077495" lon="05.649979"><ele>18.1</ele><time>2022-04-13T13:57:35Z</time><name>PT8934</name></trkpt>
<trkpt lat="52.077477" lon="05.649971"><ele>18.2</ele><time>2022-04-13T13:57:36Z</time><name>PT8935</name></trkpt>
<trkpt lat="52.077469" lon="05.649952"><ele>18.1</ele><time>2022-04-13T13:57:37Z</time><name>PT8936</name></trkpt>
<trkpt lat="52.077469" lon="05.649943"><ele>18</ele><time>2022-04-13T13:57:38Z</time><name>PT8937</name></trkpt>
<trkpt lat="52.077464" lon="05.649933"><ele>18.1</ele><time>2022-04-13T13:57:39Z</time><name>PT8938</name></trkpt>
<trkpt lat="52.077460" lon="05.649929"><ele>18.2</ele><time>2022-04-13T13:57:40Z</time><name>PT8939</name></trkpt>
<trkpt lat="52.077455" lon="05.649914"><ele>18.1</ele><time>2022-04-13T13:57:41Z</time><name>PT8940</name></trkpt>
<trkpt lat="52.077450" lon="05.649903"><ele>18</ele><time>2022-04-13T13:57:42Z</time><name>PT8941</name></trkpt>
<trkpt lat="52.077445" lon="05.649885"><ele>18.1</ele><time>2022-04-13T13:57:43Z</time><name>PT8942</name></trkpt>
<trkpt lat="52.077441" lon="05.649875"><ele>18.1</ele><time>2022-04-13T13:57:44Z</time><name>PT8943</name></trkpt>
<trkpt lat="52.077436" lon="05.649869"><ele>18.1</ele><time>2022-04-13T13:57:45Z</time><name>PT8944</name></trkpt>
<trkpt lat="52.077431" lon="05.649863"><ele>18.2</ele><time>2022-04-13T13:57:46Z</time><name>PT8945</name></trkpt>
<trkpt lat="52.077421" lon="05.649847"><ele>18.2</ele><time>2022-04-13T13:57:47Z</time><name>PT8946</name></trkpt>
<trkpt lat="52.077411" lon="05.649833"><ele>18.2</ele><time>2022-04-13T13:57:48Z</time><name>PT8947</name></trkpt>
<trkpt lat="52.077404" lon="05.649815"><ele>18.2</ele><time>2022-04-13T13:57:49Z</time><name>PT8948</name></trkpt>
<trkpt lat="52.077402" lon="05.649805"><ele>18.2</ele><time>2022-04-13T13:57:50Z</time><name>PT8949</name></trkpt>
<trkpt lat="52.077395" lon="05.649798"><ele>18</ele><time>2022-04-13T13:57:51Z</time><name>PT8950</name></trkpt>
<trkpt lat="52.077390" lon="05.649795"><ele>18</ele><time>2022-04-13T13:57:52Z</time><name>PT8951</name></trkpt>
<trkpt lat="52.077386" lon="05.649779"><ele>18</ele><time>2022-04-13T13:57:53Z</time><name>PT8952</name></trkpt>
<trkpt lat="52.077379" lon="05.649765"><ele>18</ele><time>2022-04-13T13:57:54Z</time><name>PT8953</name></trkpt>
<trkpt lat="52.077374" lon="05.649760"><ele>18</ele><time>2022-04-13T13:57:55Z</time><name>PT8954</name></trkpt>
<trkpt lat="52.077370" lon="05.649757"><ele>18.1</ele><time>2022-04-13T13:57:56Z</time><name>PT8955</name></trkpt>
<trkpt lat="52.077360" lon="05.649747"><ele>18.1</ele><time>2022-04-13T13:57:57Z</time><name>PT8956</name></trkpt>
<trkpt lat="52.077355" lon="05.649737"><ele>18</ele><time>2022-04-13T13:57:58Z</time><name>PT8957</name></trkpt>
<trkpt lat="52.077350" lon="05.649728"><ele>18</ele><time>2022-04-13T13:57:59Z</time><name>PT8958</name></trkpt>
<trkpt lat="52.077344" lon="05.649718"><ele>17.8</ele><time>2022-04-13T13:58:00Z</time><name>PT8959</name></trkpt>
<trkpt lat="52.077335" lon="05.649713"><ele>17.7</ele><time>2022-04-13T13:58:01Z</time><name>PT8960</name></trkpt>
<trkpt lat="52.077317" lon="05.649701"><ele>17.7</ele><time>2022-04-13T13:58:02Z</time><name>PT8961</name></trkpt>
<trkpt lat="52.077302" lon="05.649681"><ele>17.8</ele><time>2022-04-13T13:58:03Z</time><name>PT8962</name></trkpt>
<trkpt lat="52.077300" lon="05.649664"><ele>17.9</ele><time>2022-04-13T13:58:04Z</time><name>PT8963</name></trkpt>
<trkpt lat="52.077291" lon="05.649651"><ele>18</ele><time>2022-04-13T13:58:05Z</time><name>PT8964</name></trkpt>
<trkpt lat="52.077283" lon="05.649639"><ele>18</ele><time>2022-04-13T13:58:06Z</time><name>PT8965</name></trkpt>
<trkpt lat="52.077267" lon="05.649651"><ele>17.9</ele><time>2022-04-13T13:58:07Z</time><name>PT8966</name></trkpt>
<trkpt lat="52.077261" lon="05.649648"><ele>17.7</ele><time>2022-04-13T13:58:08Z</time><name>PT8967</name></trkpt>
<trkpt lat="52.077256" lon="05.649633"><ele>17.4</ele><time>2022-04-13T13:58:09Z</time><name>PT8968</name></trkpt>
<trkpt lat="52.077247" lon="05.649621"><ele>17.4</ele><time>2022-04-13T13:58:10Z</time><name>PT8969</name></trkpt>
<trkpt lat="52.077240" lon="05.649611"><ele>17.5</ele><time>2022-04-13T13:58:11Z</time><name>PT8970</name></trkpt>
<trkpt lat="52.077229" lon="05.649609"><ele>17.6</ele><time>2022-04-13T13:58:12Z</time><name>PT8971</name></trkpt>
<trkpt lat="52.077219" lon="05.649593"><ele>17.7</ele><time>2022-04-13T13:58:13Z</time><name>PT8972</name></trkpt>
<trkpt lat="52.077216" lon="05.649578"><ele>17.8</ele><time>2022-04-13T13:58:14Z</time><name>PT8973</name></trkpt>
<trkpt lat="52.077211" lon="05.649567"><ele>17.8</ele><time>2022-04-13T13:58:15Z</time><name>PT8974</name></trkpt>
<trkpt lat="52.077209" lon="05.649560"><ele>17.8</ele><time>2022-04-13T13:58:16Z</time><name>PT8975</name></trkpt>
<trkpt lat="52.077199" lon="05.649548"><ele>17.7</ele><time>2022-04-13T13:58:17Z</time><name>PT8976</name></trkpt>
<trkpt lat="52.077190" lon="05.649530"><ele>17.6</ele><time>2022-04-13T13:58:18Z</time><name>PT8977</name></trkpt>
<trkpt lat="52.077188" lon="05.649513"><ele>17.6</ele><time>2022-04-13T13:58:19Z</time><name>PT8978</name></trkpt>
<trkpt lat="52.077183" lon="05.649496"><ele>17.5</ele><time>2022-04-13T13:58:20Z</time><name>PT8979</name></trkpt>
<trkpt lat="52.077179" lon="05.649487"><ele>17.6</ele><time>2022-04-13T13:58:21Z</time><name>PT8980</name></trkpt>
<trkpt lat="52.077171" lon="05.649481"><ele>17.7</ele><time>2022-04-13T13:58:22Z</time><name>PT8981</name></trkpt>
<trkpt lat="52.077155" lon="05.649477"><ele>17.6</ele><time>2022-04-13T13:58:23Z</time><name>PT8982</name></trkpt>
<trkpt lat="52.077129" lon="05.649473"><ele>17.7</ele><time>2022-04-13T13:58:24Z</time><name>PT8983</name></trkpt>
<trkpt lat="52.077122" lon="05.649456"><ele>17.7</ele><time>2022-04-13T13:58:25Z</time><name>PT8984</name></trkpt>
<trkpt lat="52.077118" lon="05.649443"><ele>17.6</ele><time>2022-04-13T13:58:26Z</time><name>PT8985</name></trkpt>
<trkpt lat="52.077106" lon="05.649452"><ele>17.6</ele><time>2022-04-13T13:58:27Z</time><name>PT8986</name></trkpt>
<trkpt lat="52.077096" lon="05.649460"><ele>17.6</ele><time>2022-04-13T13:58:28Z</time><name>PT8987</name></trkpt>
<trkpt lat="52.077086" lon="05.649455"><ele>17.3</ele><time>2022-04-13T13:58:29Z</time><name>PT8988</name></trkpt>
<trkpt lat="52.077078" lon="05.649440"><ele>17.4</ele><time>2022-04-13T13:58:30Z</time><name>PT8989</name></trkpt>
<trkpt lat="52.077074" lon="05.649430"><ele>17.5</ele><time>2022-04-13T13:58:31Z</time><name>PT8990</name></trkpt>
<trkpt lat="52.077067" lon="05.649412"><ele>17.6</ele><time>2022-04-13T13:58:32Z</time><name>PT8991</name></trkpt>
<trkpt lat="52.077056" lon="05.649398"><ele>17.8</ele><time>2022-04-13T13:58:33Z</time><name>PT8992</name></trkpt>
<trkpt lat="52.077047" lon="05.649382"><ele>17.7</ele><time>2022-04-13T13:58:34Z</time><name>PT8993</name></trkpt>
<trkpt lat="52.077042" lon="05.649367"><ele>17.6</ele><time>2022-04-13T13:58:35Z</time><name>PT8994</name></trkpt>
<trkpt lat="52.077035" lon="05.649352"><ele>17.6</ele><time>2022-04-13T13:58:36Z</time><name>PT8995</name></trkpt>
<trkpt lat="52.077030" lon="05.649342"><ele>17.6</ele><time>2022-04-13T13:58:37Z</time><name>PT8996</name></trkpt>
<trkpt lat="52.077015" lon="05.649325"><ele>17.3</ele><time>2022-04-13T13:58:38Z</time><name>PT8997</name></trkpt>
<trkpt lat="52.077004" lon="05.649305"><ele>17.3</ele><time>2022-04-13T13:58:39Z</time><name>PT8998</name></trkpt>
<trkpt lat="52.076990" lon="05.649288"><ele>17.3</ele><time>2022-04-13T13:58:40Z</time><name>PT8999</name></trkpt>
<trkpt lat="52.076979" lon="05.649274"><ele>17.4</ele><time>2022-04-13T13:58:41Z</time><name>PT9000</name></trkpt>
<trkpt lat="52.076978" lon="05.649265"><ele>17.3</ele><time>2022-04-13T13:58:42Z</time><name>PT9001</name></trkpt>
<trkpt lat="52.076976" lon="05.649259"><ele>17.3</ele><time>2022-04-13T13:58:43Z</time><name>PT9002</name></trkpt>
<trkpt lat="52.076967" lon="05.649247"><ele>17.4</ele><time>2022-04-13T13:58:44Z</time><name>PT9003</name></trkpt>
<trkpt lat="52.076969" lon="05.649233"><ele>17.4</ele><time>2022-04-13T13:58:45Z</time><name>PT9004</name></trkpt>
<trkpt lat="52.076971" lon="05.649220"><ele>17.3</ele><time>2022-04-13T13:58:46Z</time><name>PT9005</name></trkpt>
<trkpt lat="52.076967" lon="05.649206"><ele>17.3</ele><time>2022-04-13T13:58:47Z</time><name>PT9006</name></trkpt>
<trkpt lat="52.076964" lon="05.649196"><ele>17.1</ele><time>2022-04-13T13:58:48Z</time><name>PT9007</name></trkpt>
<trkpt lat="52.076955" lon="05.649180"><ele>17.2</ele><time>2022-04-13T13:58:49Z</time><name>PT9008</name></trkpt>
<trkpt lat="52.076944" lon="05.649162"><ele>17.1</ele><time>2022-04-13T13:58:50Z</time><name>PT9009</name></trkpt>
<trkpt lat="52.076936" lon="05.649157"><ele>17.1</ele><time>2022-04-13T13:58:51Z</time><name>PT9010</name></trkpt>
<trkpt lat="52.076928" lon="05.649148"><ele>17.1</ele><time>2022-04-13T13:58:52Z</time><name>PT9011</name></trkpt>
<trkpt lat="52.076922" lon="05.649137"><ele>17.3</ele><time>2022-04-13T13:58:53Z</time><name>PT9012</name></trkpt>
<trkpt lat="52.076911" lon="05.649118"><ele>17.3</ele><time>2022-04-13T13:58:54Z</time><name>PT9013</name></trkpt>
<trkpt lat="52.076897" lon="05.649101"><ele>17.3</ele><time>2022-04-13T13:58:55Z</time><name>PT9014</name></trkpt>
<trkpt lat="52.076887" lon="05.649086"><ele>17.3</ele><time>2022-04-13T13:58:56Z</time><name>PT9015</name></trkpt>
<trkpt lat="52.076880" lon="05.649077"><ele>17.3</ele><time>2022-04-13T13:58:57Z</time><name>PT9016</name></trkpt>
<trkpt lat="52.076875" lon="05.649070"><ele>17.3</ele><time>2022-04-13T13:58:58Z</time><name>PT9017</name></trkpt>
<trkpt lat="52.076867" lon="05.649057"><ele>17.3</ele><time>2022-04-13T13:58:59Z</time><name>PT9018</name></trkpt>
<trkpt lat="52.076858" lon="05.649034"><ele>17.3</ele><time>2022-04-13T13:59:00Z</time><name>PT9019</name></trkpt>
<trkpt lat="52.076851" lon="05.649016"><ele>17.3</ele><time>2022-04-13T13:59:01Z</time><name>PT9020</name></trkpt>
<trkpt lat="52.076843" lon="05.649013"><ele>17.4</ele><time>2022-04-13T13:59:02Z</time><name>PT9021</name></trkpt>
<trkpt lat="52.076837" lon="05.649006"><ele>17.4</ele><time>2022-04-13T13:59:03Z</time><name>PT9022</name></trkpt>
<trkpt lat="52.076821" lon="05.648999"><ele>17.3</ele><time>2022-04-13T13:59:04Z</time><name>PT9023</name></trkpt>
<trkpt lat="52.076810" lon="05.648983"><ele>17.3</ele><time>2022-04-13T13:59:05Z</time><name>PT9024</name></trkpt>
<trkpt lat="52.076801" lon="05.648969"><ele>17.3</ele><time>2022-04-13T13:59:06Z</time><name>PT9025</name></trkpt>
<trkpt lat="52.076793" lon="05.648958"><ele>17.1</ele><time>2022-04-13T13:59:07Z</time><name>PT9026</name></trkpt>
<trkpt lat="52.076789" lon="05.648950"><ele>16.9</ele><time>2022-04-13T13:59:08Z</time><name>PT9027</name></trkpt>
<trkpt lat="52.076783" lon="05.648939"><ele>16.8</ele><time>2022-04-13T13:59:09Z</time><name>PT9028</name></trkpt>
<trkpt lat="52.076778" lon="05.648924"><ele>16.7</ele><time>2022-04-13T13:59:10Z</time><name>PT9029</name></trkpt>
<trkpt lat="52.076777" lon="05.648910"><ele>16.8</ele><time>2022-04-13T13:59:11Z</time><name>PT9030</name></trkpt>
<trkpt lat="52.076765" lon="05.648909"><ele>16.8</ele><time>2022-04-13T13:59:12Z</time><name>PT9031</name></trkpt>
<trkpt lat="52.076761" lon="05.648901"><ele>16.8</ele><time>2022-04-13T13:59:13Z</time><name>PT9032</name></trkpt>
<trkpt lat="52.076752" lon="05.648898"><ele>16.8</ele><time>2022-04-13T13:59:14Z</time><name>PT9033</name></trkpt>
<trkpt lat="52.076741" lon="05.648897"><ele>16.8</ele><time>2022-04-13T13:59:15Z</time><name>PT9034</name></trkpt>
<trkpt lat="52.076733" lon="05.648892"><ele>16.8</ele><time>2022-04-13T13:59:16Z</time><name>PT9035</name></trkpt>
<trkpt lat="52.076718" lon="05.648881"><ele>16.8</ele><time>2022-04-13T13:59:17Z</time><name>PT9036</name></trkpt>
<trkpt lat="52.076709" lon="05.648869"><ele>17</ele><time>2022-04-13T13:59:18Z</time><name>PT9037</name></trkpt>
<trkpt lat="52.076706" lon="05.648856"><ele>16.9</ele><time>2022-04-13T13:59:19Z</time><name>PT9038</name></trkpt>
<trkpt lat="52.076701" lon="05.648849"><ele>16.8</ele><time>2022-04-13T13:59:20Z</time><name>PT9039</name></trkpt>
<trkpt lat="52.076688" lon="05.648843"><ele>16.6</ele><time>2022-04-13T13:59:21Z</time><name>PT9040</name></trkpt>
<trkpt lat="52.076675" lon="05.648824"><ele>16.4</ele><time>2022-04-13T13:59:22Z</time><name>PT9041</name></trkpt>
<trkpt lat="52.076664" lon="05.648808"><ele>16.3</ele><time>2022-04-13T13:59:23Z</time><name>PT9042</name></trkpt>
<trkpt lat="52.076660" lon="05.648798"><ele>16.1</ele><time>2022-04-13T13:59:24Z</time><name>PT9043</name></trkpt>
<trkpt lat="52.076655" lon="05.648793"><ele>16.1</ele><time>2022-04-13T13:59:25Z</time><name>PT9044</name></trkpt>
<trkpt lat="52.076647" lon="05.648786"><ele>16.3</ele><time>2022-04-13T13:59:26Z</time><name>PT9045</name></trkpt>
<trkpt lat="52.076636" lon="05.648776"><ele>16.3</ele><time>2022-04-13T13:59:27Z</time><name>PT9046</name></trkpt>
<trkpt lat="52.076629" lon="05.648765"><ele>16.3</ele><time>2022-04-13T13:59:28Z</time><name>PT9047</name></trkpt>
<trkpt lat="52.076624" lon="05.648749"><ele>16.2</ele><time>2022-04-13T13:59:29Z</time><name>PT9048</name></trkpt>
<trkpt lat="52.076618" lon="05.648740"><ele>16.2</ele><time>2022-04-13T13:59:30Z</time><name>PT9049</name></trkpt>
<trkpt lat="52.076610" lon="05.648731"><ele>16.2</ele><time>2022-04-13T13:59:31Z</time><name>PT9050</name></trkpt>
<trkpt lat="52.076616" lon="05.648727"><ele>16.3</ele><time>2022-04-13T13:59:32Z</time><name>PT9051</name></trkpt>
<trkpt lat="52.076615" lon="05.648709"><ele>16.3</ele><time>2022-04-13T13:59:33Z</time><name>PT9052</name></trkpt>
<trkpt lat="52.076607" lon="05.648698"><ele>16.3</ele><time>2022-04-13T13:59:34Z</time><name>PT9053</name></trkpt>
<trkpt lat="52.076600" lon="05.648691"><ele>16.3</ele><time>2022-04-13T13:59:35Z</time><name>PT9054</name></trkpt>
<trkpt lat="52.076597" lon="05.648683"><ele>16.3</ele><time>2022-04-13T13:59:36Z</time><name>PT9055</name></trkpt>
<trkpt lat="52.076589" lon="05.648676"><ele>16</ele><time>2022-04-13T13:59:37Z</time><name>PT9056</name></trkpt>
<trkpt lat="52.076583" lon="05.648656"><ele>16.1</ele><time>2022-04-13T13:59:38Z</time><name>PT9057</name></trkpt>
<trkpt lat="52.076573" lon="05.648638"><ele>16</ele><time>2022-04-13T13:59:39Z</time><name>PT9058</name></trkpt>
<trkpt lat="52.076565" lon="05.648635"><ele>16</ele><time>2022-04-13T13:59:40Z</time><name>PT9059</name></trkpt>
<trkpt lat="52.076557" lon="05.648629"><ele>15.9</ele><time>2022-04-13T13:59:41Z</time><name>PT9060</name></trkpt>
<trkpt lat="52.076546" lon="05.648616"><ele>16</ele><time>2022-04-13T13:59:42Z</time><name>PT9061</name></trkpt>
<trkpt lat="52.076534" lon="05.648598"><ele>16</ele><time>2022-04-13T13:59:43Z</time><name>PT9062</name></trkpt>
<trkpt lat="52.076520" lon="05.648583"><ele>16</ele><time>2022-04-13T13:59:44Z</time><name>PT9063</name></trkpt>
<trkpt lat="52.076509" lon="05.648574"><ele>15.9</ele><time>2022-04-13T13:59:45Z</time><name>PT9064</name></trkpt>
<trkpt lat="52.076504" lon="05.648567"><ele>15.9</ele><time>2022-04-13T13:59:46Z</time><name>PT9065</name></trkpt>
<trkpt lat="52.076498" lon="05.648560"><ele>15.9</ele><time>2022-04-13T13:59:47Z</time><name>PT9066</name></trkpt>
<trkpt lat="52.076490" lon="05.648550"><ele>15.8</ele><time>2022-04-13T13:59:48Z</time><name>PT9067</name></trkpt>
<trkpt lat="52.076483" lon="05.648532"><ele>15.8</ele><time>2022-04-13T13:59:49Z</time><name>PT9068</name></trkpt>
<trkpt lat="52.076474" lon="05.648512"><ele>15.8</ele><time>2022-04-13T13:59:50Z</time><name>PT9069</name></trkpt>
<trkpt lat="52.076468" lon="05.648492"><ele>15.9</ele><time>2022-04-13T13:59:51Z</time><name>PT9070</name></trkpt>
<trkpt lat="52.076461" lon="05.648482"><ele>15.9</ele><time>2022-04-13T13:59:52Z</time><name>PT9071</name></trkpt>
<trkpt lat="52.076453" lon="05.648471"><ele>15.9</ele><time>2022-04-13T13:59:53Z</time><name>PT9072</name></trkpt>
<trkpt lat="52.076441" lon="05.648456"><ele>15.8</ele><time>2022-04-13T13:59:54Z</time><name>PT9073</name></trkpt>
<trkpt lat="52.076430" lon="05.648434"><ele>15.8</ele><time>2022-04-13T13:59:55Z</time><name>PT9074</name></trkpt>
<trkpt lat="52.076422" lon="05.648423"><ele>15.7</ele><time>2022-04-13T13:59:56Z</time><name>PT9075</name></trkpt>
<trkpt lat="52.076418" lon="05.648417"><ele>15.7</ele><time>2022-04-13T13:59:57Z</time><name>PT9076</name></trkpt>
<trkpt lat="52.076409" lon="05.648411"><ele>15.7</ele><time>2022-04-13T13:59:58Z</time><name>PT9077</name></trkpt>
<trkpt lat="52.076400" lon="05.648403"><ele>15.6</ele><time>2022-04-13T13:59:59Z</time><name>PT9078</name></trkpt>
<trkpt lat="52.076394" lon="05.648389"><ele>15.7</ele><time>2022-04-13T14:00:00Z</time><name>PT9079</name></trkpt>
<trkpt lat="52.076389" lon="05.648380"><ele>15.7</ele><time>2022-04-13T14:00:01Z</time><name>PT9080</name></trkpt>
<trkpt lat="52.076382" lon="05.648369"><ele>15.8</ele><time>2022-04-13T14:00:02Z</time><name>PT9081</name></trkpt>
<trkpt lat="52.076375" lon="05.648363"><ele>15.8</ele><time>2022-04-13T14:00:03Z</time><name>PT9082</name></trkpt>
<trkpt lat="52.076367" lon="05.648356"><ele>15.7</ele><time>2022-04-13T14:00:04Z</time><name>PT9083</name></trkpt>
<trkpt lat="52.076357" lon="05.648339"><ele>15.7</ele><time>2022-04-13T14:00:05Z</time><name>PT9084</name></trkpt>
<trkpt lat="52.076353" lon="05.648318"><ele>15.6</ele><time>2022-04-13T14:00:06Z</time><name>PT9085</name></trkpt>
<trkpt lat="52.076351" lon="05.648310"><ele>15.6</ele><time>2022-04-13T14:00:07Z</time><name>PT9086</name></trkpt>
<trkpt lat="52.076346" lon="05.648307"><ele>15.6</ele><time>2022-04-13T14:00:08Z</time><name>PT9087</name></trkpt>
<trkpt lat="52.076334" lon="05.648304"><ele>15.7</ele><time>2022-04-13T14:00:09Z</time><name>PT9088</name></trkpt>
<trkpt lat="52.076322" lon="05.648299"><ele>15.6</ele><time>2022-04-13T14:00:10Z</time><name>PT9089</name></trkpt>
<trkpt lat="52.076312" lon="05.648285"><ele>15.6</ele><time>2022-04-13T14:00:11Z</time><name>PT9090</name></trkpt>
<trkpt lat="52.076307" lon="05.648268"><ele>15.3</ele><time>2022-04-13T14:00:12Z</time><name>PT9091</name></trkpt>
<trkpt lat="52.076304" lon="05.648258"><ele>15.4</ele><time>2022-04-13T14:00:13Z</time><name>PT9092</name></trkpt>
<trkpt lat="52.076301" lon="05.648249"><ele>15.3</ele><time>2022-04-13T14:00:14Z</time><name>PT9093</name></trkpt>
<trkpt lat="52.076283" lon="05.648241"><ele>15.3</ele><time>2022-04-13T14:00:15Z</time><name>PT9094</name></trkpt>
<trkpt lat="52.076266" lon="05.648229"><ele>15.3</ele><time>2022-04-13T14:00:16Z</time><name>PT9095</name></trkpt>
<trkpt lat="52.076254" lon="05.648208"><ele>15.3</ele><time>2022-04-13T14:00:17Z</time><name>PT9096</name></trkpt>
<trkpt lat="52.076247" lon="05.648195"><ele>15.3</ele><time>2022-04-13T14:00:18Z</time><name>PT9097</name></trkpt>
<trkpt lat="52.076245" lon="05.648184"><ele>15.4</ele><time>2022-04-13T14:00:19Z</time><name>PT9098</name></trkpt>
<trkpt lat="52.076241" lon="05.648170"><ele>15.5</ele><time>2022-04-13T14:00:20Z</time><name>PT9099</name></trkpt>
<trkpt lat="52.076228" lon="05.648156"><ele>15.4</ele><time>2022-04-13T14:00:21Z</time><name>PT9100</name></trkpt>
<trkpt lat="52.076215" lon="05.648138"><ele>15.4</ele><time>2022-04-13T14:00:22Z</time><name>PT9101</name></trkpt>
<trkpt lat="52.076208" lon="05.648122"><ele>15.4</ele><time>2022-04-13T14:00:23Z</time><name>PT9102</name></trkpt>
<trkpt lat="52.076203" lon="05.648114"><ele>15.3</ele><time>2022-04-13T14:00:24Z</time><name>PT9103</name></trkpt>
<trkpt lat="52.076196" lon="05.648104"><ele>15.3</ele><time>2022-04-13T14:00:25Z</time><name>PT9104</name></trkpt>
<trkpt lat="52.076181" lon="05.648097"><ele>15.3</ele><time>2022-04-13T14:00:26Z</time><name>PT9105</name></trkpt>
<trkpt lat="52.076169" lon="05.648079"><ele>15.2</ele><time>2022-04-13T14:00:27Z</time><name>PT9106</name></trkpt>
<trkpt lat="52.076160" lon="05.648067"><ele>15.2</ele><time>2022-04-13T14:00:28Z</time><name>PT9107</name></trkpt>
<trkpt lat="52.076155" lon="05.648062"><ele>15</ele><time>2022-04-13T14:00:29Z</time><name>PT9108</name></trkpt>
<trkpt lat="52.076150" lon="05.648055"><ele>15</ele><time>2022-04-13T14:00:30Z</time><name>PT9109</name></trkpt>
<trkpt lat="52.076146" lon="05.648046"><ele>15.1</ele><time>2022-04-13T14:00:31Z</time><name>PT9110</name></trkpt>
<trkpt lat="52.076139" lon="05.648032"><ele>15.3</ele><time>2022-04-13T14:00:32Z</time><name>PT9111</name></trkpt>
<trkpt lat="52.076136" lon="05.648019"><ele>15.3</ele><time>2022-04-13T14:00:33Z</time><name>PT9112</name></trkpt>
<trkpt lat="52.076134" lon="05.648009"><ele>15.3</ele><time>2022-04-13T14:00:34Z</time><name>PT9113</name></trkpt>
<trkpt lat="52.076128" lon="05.648001"><ele>15.2</ele><time>2022-04-13T14:00:35Z</time><name>PT9114</name></trkpt>
<trkpt lat="52.076123" lon="05.647996"><ele>15.2</ele><time>2022-04-13T14:00:36Z</time><name>PT9115</name></trkpt>
<trkpt lat="52.076103" lon="05.647995"><ele>15</ele><time>2022-04-13T14:00:37Z</time><name>PT9116</name></trkpt>
<trkpt lat="52.076093" lon="05.647976"><ele>14.9</ele><time>2022-04-13T14:00:38Z</time><name>PT9117</name></trkpt>
<trkpt lat="52.076080" lon="05.647961"><ele>15</ele><time>2022-04-13T14:00:39Z</time><name>PT9118</name></trkpt>
<trkpt lat="52.076074" lon="05.647953"><ele>14.9</ele><time>2022-04-13T14:00:40Z</time><name>PT9119</name></trkpt>
<trkpt lat="52.076070" lon="05.647950"><ele>14.9</ele><time>2022-04-13T14:00:41Z</time><name>PT9120</name></trkpt>
<trkpt lat="52.076063" lon="05.647940"><ele>15</ele><time>2022-04-13T14:00:42Z</time><name>PT9121</name></trkpt>
<trkpt lat="52.076053" lon="05.647925"><ele>15</ele><time>2022-04-13T14:00:43Z</time><name>PT9122</name></trkpt>
<trkpt lat="52.076046" lon="05.647908"><ele>15.1</ele><time>2022-04-13T14:00:44Z</time><name>PT9123</name></trkpt>
<trkpt lat="52.076041" lon="05.647899"><ele>14.9</ele><time>2022-04-13T14:00:45Z</time><name>PT9124</name></trkpt>
<trkpt lat="52.076037" lon="05.647891"><ele>15</ele><time>2022-04-13T14:00:46Z</time><name>PT9125</name></trkpt>
<trkpt lat="52.076031" lon="05.647881"><ele>14.9</ele><time>2022-04-13T14:00:47Z</time><name>PT9126</name></trkpt>
<trkpt lat="52.076023" lon="05.647861"><ele>15.1</ele><time>2022-04-13T14:00:48Z</time><name>PT9127</name></trkpt>
<trkpt lat="52.076016" lon="05.647844"><ele>15</ele><time>2022-04-13T14:00:49Z</time><name>PT9128</name></trkpt>
<trkpt lat="52.076015" lon="05.647832"><ele>14.9</ele><time>2022-04-13T14:00:50Z</time><name>PT9129</name></trkpt>
<trkpt lat="52.076008" lon="05.647832"><ele>14.8</ele><time>2022-04-13T14:00:51Z</time><name>PT9130</name></trkpt>
<trkpt lat="52.075998" lon="05.647827"><ele>14.8</ele><time>2022-04-13T14:00:52Z</time><name>PT9131</name></trkpt>
<trkpt lat="52.075990" lon="05.647819"><ele>14.4</ele><time>2022-04-13T14:00:53Z</time><name>PT9132</name></trkpt>
<trkpt lat="52.075988" lon="05.647816"><ele>14.5</ele><time>2022-04-13T14:00:54Z</time><name>PT9133</name></trkpt>
<trkpt lat="52.075986" lon="05.647810"><ele>14.6</ele><time>2022-04-13T14:00:55Z</time><name>PT9134</name></trkpt>
<trkpt lat="52.075979" lon="05.647802"><ele>14.6</ele><time>2022-04-13T14:00:56Z</time><name>PT9135</name></trkpt>
<trkpt lat="52.075972" lon="05.647788"><ele>14.6</ele><time>2022-04-13T14:00:57Z</time><name>PT9136</name></trkpt>
<trkpt lat="52.075969" lon="05.647777"><ele>14.5</ele><time>2022-04-13T14:00:58Z</time><name>PT9137</name></trkpt>
<trkpt lat="52.075963" lon="05.647769"><ele>14.4</ele><time>2022-04-13T14:00:59Z</time><name>PT9138</name></trkpt>
<trkpt lat="52.075958" lon="05.647758"><ele>14.4</ele><time>2022-04-13T14:01:00Z</time><name>PT9139</name></trkpt>
<trkpt lat="52.075947" lon="05.647749"><ele>14.4</ele><time>2022-04-13T14:01:01Z</time><name>PT9140</name></trkpt>
<trkpt lat="52.075929" lon="05.647735"><ele>14.4</ele><time>2022-04-13T14:01:02Z</time><name>PT9141</name></trkpt>
<trkpt lat="52.075918" lon="05.647720"><ele>14.4</ele><time>2022-04-13T14:01:03Z</time><name>PT9142</name></trkpt>
<trkpt lat="52.075908" lon="05.647714"><ele>14.5</ele><time>2022-04-13T14:01:04Z</time><name>PT9143</name></trkpt>
<trkpt lat="52.075901" lon="05.647708"><ele>14.6</ele><time>2022-04-13T14:01:05Z</time><name>PT9144</name></trkpt>
<trkpt lat="52.075895" lon="05.647706"><ele>14.7</ele><time>2022-04-13T14:01:06Z</time><name>PT9145</name></trkpt>
<trkpt lat="52.075890" lon="05.647701"><ele>14.7</ele><time>2022-04-13T14:01:07Z</time><name>PT9146</name></trkpt>
<trkpt lat="52.075885" lon="05.647695"><ele>14.7</ele><time>2022-04-13T14:01:08Z</time><name>PT9147</name></trkpt>
<trkpt lat="52.075881" lon="05.647692"><ele>14.7</ele><time>2022-04-13T14:01:09Z</time><name>PT9148</name></trkpt>
<trkpt lat="52.075876" lon="05.647685"><ele>14.5</ele><time>2022-04-13T14:01:10Z</time><name>PT9149</name></trkpt>
<trkpt lat="52.075863" lon="05.647671"><ele>14.4</ele><time>2022-04-13T14:01:11Z</time><name>PT9150</name></trkpt>
<trkpt lat="52.075851" lon="05.647669"><ele>14.6</ele><time>2022-04-13T14:01:12Z</time><name>PT9151</name></trkpt>
<trkpt lat="52.075838" lon="05.647646"><ele>14.6</ele><time>2022-04-13T14:01:13Z</time><name>PT9152</name></trkpt>
<trkpt lat="52.075830" lon="05.647632"><ele>14.7</ele><time>2022-04-13T14:01:14Z</time><name>PT9153</name></trkpt>
<trkpt lat="52.075820" lon="05.647625"><ele>14.6</ele><time>2022-04-13T14:01:15Z</time><name>PT9154</name></trkpt>
<trkpt lat="52.075811" lon="05.647614"><ele>14.7</ele><time>2022-04-13T14:01:16Z</time><name>PT9155</name></trkpt>
<trkpt lat="52.075804" lon="05.647607"><ele>14.5</ele><time>2022-04-13T14:01:17Z</time><name>PT9156</name></trkpt>
<trkpt lat="52.075797" lon="05.647603"><ele>14.5</ele><time>2022-04-13T14:01:18Z</time><name>PT9157</name></trkpt>
<trkpt lat="52.075792" lon="05.647595"><ele>14.7</ele><time>2022-04-13T14:01:19Z</time><name>PT9158</name></trkpt>
<trkpt lat="52.075782" lon="05.647588"><ele>14.6</ele><time>2022-04-13T14:01:20Z</time><name>PT9159</name></trkpt>
<trkpt lat="52.075777" lon="05.647582"><ele>14.4</ele><time>2022-04-13T14:01:21Z</time><name>PT9160</name></trkpt>
<trkpt lat="52.075771" lon="05.647576"><ele>14.4</ele><time>2022-04-13T14:01:22Z</time><name>PT9161</name></trkpt>
<trkpt lat="52.075763" lon="05.647565"><ele>14.4</ele><time>2022-04-13T14:01:23Z</time><name>PT9162</name></trkpt>
<trkpt lat="52.075754" lon="05.647560"><ele>14.3</ele><time>2022-04-13T14:01:24Z</time><name>PT9163</name></trkpt>
<trkpt lat="52.075749" lon="05.647553"><ele>14.3</ele><time>2022-04-13T14:01:25Z</time><name>PT9164</name></trkpt>
<trkpt lat="52.075749" lon="05.647547"><ele>14.6</ele><time>2022-04-13T14:01:26Z</time><name>PT9165</name></trkpt>
<trkpt lat="52.075749" lon="05.647545"><ele>14.5</ele><time>2022-04-13T14:01:27Z</time><name>PT9166</name></trkpt>
<trkpt lat="52.075750" lon="05.647546"><ele>14.5</ele><time>2022-04-13T14:01:28Z</time><name>PT9167</name></trkpt></trkseg></trk></gpx>